<?xml version="1.0" encoding="UTF-8"?>
<gpx version="1.1" creator="https://www.youtrack.es" xsi:schemaLocation="http://www.topografix.com/GPX/1/1 http://www.topografix.com/GPX/1/1/gpx.xsd http://www.garmin.com/xmlschemas/GpxExtensions/v3 http://www.garmin.com/xmlschemas/GpxExtensionsv3.xsd http://www.garmin.com/xmlschemas/TrackPointExtension/v1 http://www.garmin.com/xmlschemas/TrackPointExtensionv1.xsd" xmlns:gpxtpx="http://www.garmin.com/xmlschemas/TrackPointExtension/v1" xmlns:gpxx="http://www.garmin.com/xmlschemas/GpxExtensions/v3" xmlns:xsi="http://www.w3.org/2001/XMLSchema-instance">
  <metadata>
    <link href="https://www.youtrack.es">
      <text>YouTrack.es</text>
    </link>
    <time>2026-05-07T16:34:51Z</time>
  </metadata>
  <trk>
    <src>https://www.youtrack.es</src>
    <link href="https://www.youtrack.es/ruta/21069-athens-ilioupoli">
      <text>YouTrack.es</text>
    </link>
    <trkseg>
      <trkpt lat="37.96565271914005" lon="23.731961650773883">
        <ele>75</ele>
        <time>2021-04-10T06:17:44.000Z</time>
      </trkpt>
      <trkpt lat="37.965502263978124" lon="23.73189752921462">
        <ele>75</ele>
        <time>2021-04-10T06:17:45.000Z</time>
      </trkpt>
      <trkpt lat="37.96525491401553" lon="23.731779009103775">
        <ele>75.2</ele>
        <time>2021-04-10T06:17:47.000Z</time>
      </trkpt>
      <trkpt lat="37.96585254371166" lon="23.732113111764193">
        <ele>74.8</ele>
        <time>2021-04-10T06:17:48.000Z</time>
      </trkpt>
      <trkpt lat="37.96562019735575" lon="23.73197087086737">
        <ele>75.8</ele>
        <time>2021-04-10T06:17:50.000Z</time>
      </trkpt>
      <trkpt lat="37.9655016772449" lon="23.73191504739225">
        <ele>75.2</ele>
        <time>2021-04-10T06:17:52.000Z</time>
      </trkpt>
      <trkpt lat="37.96521660871804" lon="23.7318002153188">
        <ele>74.8</ele>
        <time>2021-04-10T06:17:55.000Z</time>
      </trkpt>
      <trkpt lat="37.96518257819116" lon="23.731809854507446">
        <ele>75</ele>
        <time>2021-04-10T06:17:56.000Z</time>
      </trkpt>
      <trkpt lat="37.96511803753674" lon="23.731795018538833">
        <ele>75.4</ele>
        <time>2021-04-10T06:17:58.000Z</time>
      </trkpt>
      <trkpt lat="37.9651459492743" lon="23.73174263164401">
        <ele>75.6</ele>
        <time>2021-04-10T06:17:59.000Z</time>
      </trkpt>
      <trkpt lat="37.965174447745085" lon="23.731766184791923">
        <ele>76</ele>
        <time>2021-04-10T06:18:00.000Z</time>
      </trkpt>
      <trkpt lat="37.96572698280215" lon="23.732119649648666">
        <ele>76.2</ele>
        <time>2021-04-10T06:18:01.000Z</time>
      </trkpt>
      <trkpt lat="37.965702675282955" lon="23.732124092057347">
        <ele>76.4</ele>
        <time>2021-04-10T06:18:03.000Z</time>
      </trkpt>
      <trkpt lat="37.96566537581384" lon="23.732149237766862">
        <ele>76.6</ele>
        <time>2021-04-10T06:18:06.000Z</time>
      </trkpt>
      <trkpt lat="37.96563067473471" lon="23.732167426496744">
        <ele>76.8</ele>
        <time>2021-04-10T06:18:08.000Z</time>
      </trkpt>
      <trkpt lat="37.965597147122025" lon="23.732180250808597">
        <ele>77.2</ele>
        <time>2021-04-10T06:18:10.000Z</time>
      </trkpt>
      <trkpt lat="37.96558658592403" lon="23.73218779452145">
        <ele>77.4</ele>
        <time>2021-04-10T06:18:11.000Z</time>
      </trkpt>
      <trkpt lat="37.9655637871474" lon="23.73221260495484">
        <ele>77.8</ele>
        <time>2021-04-10T06:18:13.000Z</time>
      </trkpt>
      <trkpt lat="37.96553612686694" lon="23.732243617996573">
        <ele>78.4</ele>
        <time>2021-04-10T06:18:16.000Z</time>
      </trkpt>
      <trkpt lat="37.96549966558814" lon="23.732274882495403">
        <ele>78.6</ele>
        <time>2021-04-10T06:18:20.000Z</time>
      </trkpt>
      <trkpt lat="37.96549044549465" lon="23.732284354045987">
        <ele>78.6</ele>
        <time>2021-04-10T06:18:21.000Z</time>
      </trkpt>
      <trkpt lat="37.965476950630546" lon="23.732313690707088">
        <ele>79</ele>
        <time>2021-04-10T06:18:23.000Z</time>
      </trkpt>
      <trkpt lat="37.96547510661185" lon="23.732325341552496">
        <ele>79.2</ele>
        <time>2021-04-10T06:18:24.000Z</time>
      </trkpt>
      <trkpt lat="37.96547141857445" lon="23.732334729284048">
        <ele>79.4</ele>
        <time>2021-04-10T06:18:25.000Z</time>
      </trkpt>
      <trkpt lat="37.965474016964436" lon="23.732351241633296">
        <ele>79.8</ele>
        <time>2021-04-10T06:18:26.000Z</time>
      </trkpt>
      <trkpt lat="37.96547477133572" lon="23.732367670163512">
        <ele>79.8</ele>
        <time>2021-04-10T06:18:27.000Z</time>
      </trkpt>
      <trkpt lat="37.96548348851502" lon="23.732406310737133">
        <ele>80.2</ele>
        <time>2021-04-10T06:18:29.000Z</time>
      </trkpt>
      <trkpt lat="37.96548692509532" lon="23.732448890805244">
        <ele>80.4</ele>
        <time>2021-04-10T06:18:31.000Z</time>
      </trkpt>
      <trkpt lat="37.965486254543066" lon="23.73246280476451">
        <ele>80.6</ele>
        <time>2021-04-10T06:18:32.000Z</time>
      </trkpt>
      <trkpt lat="37.9654844943434" lon="23.732478227466345">
        <ele>80.8</ele>
        <time>2021-04-10T06:18:33.000Z</time>
      </trkpt>
      <trkpt lat="37.965482315048575" lon="23.732492979615927">
        <ele>80.8</ele>
        <time>2021-04-10T06:18:34.000Z</time>
      </trkpt>
      <trkpt lat="37.96546412631869" lon="23.73254000209272">
        <ele>81.2</ele>
        <time>2021-04-10T06:18:37.000Z</time>
      </trkpt>
      <trkpt lat="37.96545465476811" lon="23.732568249106407">
        <ele>81.2</ele>
        <time>2021-04-10T06:18:39.000Z</time>
      </trkpt>
      <trkpt lat="37.96543328091502" lon="23.732621893286705">
        <ele>81.4</ele>
        <time>2021-04-10T06:18:41.000Z</time>
      </trkpt>
      <trkpt lat="37.96540352515876" lon="23.732716105878353">
        <ele>81.6</ele>
        <time>2021-04-10T06:18:43.000Z</time>
      </trkpt>
      <trkpt lat="37.96540729701519" lon="23.732797829434276">
        <ele>82.2</ele>
        <time>2021-04-10T06:18:47.000Z</time>
      </trkpt>
      <trkpt lat="37.96540402807295" lon="23.73281517997384">
        <ele>82.4</ele>
        <time>2021-04-10T06:18:48.000Z</time>
      </trkpt>
      <trkpt lat="37.96540134586394" lon="23.732833871617913">
        <ele>82.6</ele>
        <time>2021-04-10T06:18:49.000Z</time>
      </trkpt>
      <trkpt lat="37.965395813807845" lon="23.73285574838519">
        <ele>82.8</ele>
        <time>2021-04-10T06:18:50.000Z</time>
      </trkpt>
      <trkpt lat="37.96537552960217" lon="23.732881732285023">
        <ele>83.2</ele>
        <time>2021-04-10T06:18:52.000Z</time>
      </trkpt>
      <trkpt lat="37.9653412476182" lon="23.73291333205998">
        <ele>83.6</ele>
        <time>2021-04-10T06:18:54.000Z</time>
      </trkpt>
      <trkpt lat="37.96532079577446" lon="23.73292364180088">
        <ele>83.8</ele>
        <time>2021-04-10T06:18:55.000Z</time>
      </trkpt>
      <trkpt lat="37.96521769836545" lon="23.732963791117072">
        <ele>84</ele>
        <time>2021-04-10T06:19:01.000Z</time>
      </trkpt>
      <trkpt lat="37.96516824513674" lon="23.732967479154468">
        <ele>84.2</ele>
        <time>2021-04-10T06:19:04.000Z</time>
      </trkpt>
      <trkpt lat="37.965105045586824" lon="23.732976531609893">
        <ele>84.4</ele>
        <time>2021-04-10T06:19:08.000Z</time>
      </trkpt>
      <trkpt lat="37.96503681689501" lon="23.733022212982178">
        <ele>83.8</ele>
        <time>2021-04-10T06:19:13.000Z</time>
      </trkpt>
      <trkpt lat="37.96502608805895" lon="23.733047945424914">
        <ele>83.8</ele>
        <time>2021-04-10T06:19:16.000Z</time>
      </trkpt>
      <trkpt lat="37.96501946635544" lon="23.73305708169937">
        <ele>83.8</ele>
        <time>2021-04-10T06:19:17.000Z</time>
      </trkpt>
      <trkpt lat="37.96500672586262" lon="23.733075940981507">
        <ele>83.8</ele>
        <time>2021-04-10T06:19:19.000Z</time>
      </trkpt>
      <trkpt lat="37.964973114430904" lon="23.73309027403593">
        <ele>84</ele>
        <time>2021-04-10T06:19:23.000Z</time>
      </trkpt>
      <trkpt lat="37.96493807807565" lon="23.733088010922074">
        <ele>84</ele>
        <time>2021-04-10T06:19:27.000Z</time>
      </trkpt>
      <trkpt lat="37.96492801979184" lon="23.733092285692692">
        <ele>83.8</ele>
        <time>2021-04-10T06:19:28.000Z</time>
      </trkpt>
      <trkpt lat="37.964920895174146" lon="23.73309555463493">
        <ele>83.8</ele>
        <time>2021-04-10T06:19:29.000Z</time>
      </trkpt>
      <trkpt lat="37.964919386431575" lon="23.73310930095613">
        <ele>83.6</ele>
        <time>2021-04-10T06:19:30.000Z</time>
      </trkpt>
      <trkpt lat="37.9648800753057" lon="23.73314056545496">
        <ele>83</ele>
        <time>2021-04-10T06:19:35.000Z</time>
      </trkpt>
      <trkpt lat="37.96487236395478" lon="23.73314349912107">
        <ele>83</ele>
        <time>2021-04-10T06:19:36.000Z</time>
      </trkpt>
      <trkpt lat="37.96483942307532" lon="23.733161855489016">
        <ele>83</ele>
        <time>2021-04-10T06:19:38.000Z</time>
      </trkpt>
      <trkpt lat="37.96482198871672" lon="23.73317275196314">
        <ele>82.6</ele>
        <time>2021-04-10T06:19:40.000Z</time>
      </trkpt>
      <trkpt lat="37.964820731431246" lon="23.73317920602858">
        <ele>82.6</ele>
        <time>2021-04-10T06:19:41.000Z</time>
      </trkpt>
      <trkpt lat="37.964807488024235" lon="23.73318549245596">
        <ele>82.4</ele>
        <time>2021-04-10T06:19:42.000Z</time>
      </trkpt>
      <trkpt lat="37.964796759188175" lon="23.733187587931752">
        <ele>82.4</ele>
        <time>2021-04-10T06:19:43.000Z</time>
      </trkpt>
      <trkpt lat="37.9647849407047" lon="23.733192617073655">
        <ele>82.4</ele>
        <time>2021-04-10T06:19:44.000Z</time>
      </trkpt>
      <trkpt lat="37.964774295687675" lon="23.733202256262302">
        <ele>82.4</ele>
        <time>2021-04-10T06:19:45.000Z</time>
      </trkpt>
      <trkpt lat="37.964760549366474" lon="23.73321482911706">
        <ele>82.4</ele>
        <time>2021-04-10T06:19:46.000Z</time>
      </trkpt>
      <trkpt lat="37.96473590657115" lon="23.73323285020888">
        <ele>82.4</ele>
        <time>2021-04-10T06:19:47.000Z</time>
      </trkpt>
      <trkpt lat="37.964646806940436" lon="23.733241902664304">
        <ele>82.6</ele>
        <time>2021-04-10T06:19:50.000Z</time>
      </trkpt>
      <trkpt lat="37.96453448943794" lon="23.733287751674652">
        <ele>82</ele>
        <time>2021-04-10T06:19:56.000Z</time>
      </trkpt>
      <trkpt lat="37.96451454050839" lon="23.733290852978826">
        <ele>82</ele>
        <time>2021-04-10T06:19:57.000Z</time>
      </trkpt>
      <trkpt lat="37.96441974118352" lon="23.733296720311046">
        <ele>82</ele>
        <time>2021-04-10T06:20:01.000Z</time>
      </trkpt>
      <trkpt lat="37.9643290489912" lon="23.733297223225236">
        <ele>82.2</ele>
        <time>2021-04-10T06:20:04.000Z</time>
      </trkpt>
      <trkpt lat="37.96425084583461" lon="23.733386071398854">
        <ele>81.6</ele>
        <time>2021-04-10T06:20:10.000Z</time>
      </trkpt>
      <trkpt lat="37.96424766071141" lon="23.733396884053946">
        <ele>81.6</ele>
        <time>2021-04-10T06:20:11.000Z</time>
      </trkpt>
      <trkpt lat="37.96423902735114" lon="23.733398728072643">
        <ele>81.8</ele>
        <time>2021-04-10T06:20:13.000Z</time>
      </trkpt>
      <trkpt lat="37.964226454496384" lon="23.73339906334877">
        <ele>82</ele>
        <time>2021-04-10T06:20:15.000Z</time>
      </trkpt>
      <trkpt lat="37.964192256331444" lon="23.73341037891805">
        <ele>81.8</ele>
        <time>2021-04-10T06:20:17.000Z</time>
      </trkpt>
      <trkpt lat="37.96408706344664" lon="23.733469555154443">
        <ele>81.4</ele>
        <time>2021-04-10T06:20:24.000Z</time>
      </trkpt>
      <trkpt lat="37.96407708898187" lon="23.73347374610603">
        <ele>81.6</ele>
        <time>2021-04-10T06:20:25.000Z</time>
      </trkpt>
      <trkpt lat="37.96405412256718" lon="23.733474919572473">
        <ele>81.6</ele>
        <time>2021-04-10T06:20:27.000Z</time>
      </trkpt>
      <trkpt lat="37.96404398046434" lon="23.73347047716379">
        <ele>81.6</ele>
        <time>2021-04-10T06:20:28.000Z</time>
      </trkpt>
      <trkpt lat="37.96403375454247" lon="23.733445834368467">
        <ele>81.6</ele>
        <time>2021-04-10T06:20:30.000Z</time>
      </trkpt>
      <trkpt lat="37.963993940502405" lon="23.73343870975077">
        <ele>81.8</ele>
        <time>2021-04-10T06:20:33.000Z</time>
      </trkpt>
      <trkpt lat="37.96395152807236" lon="23.733440721407533">
        <ele>81.8</ele>
        <time>2021-04-10T06:20:36.000Z</time>
      </trkpt>
      <trkpt lat="37.963899560272694" lon="23.733437284827232">
        <ele>82</ele>
        <time>2021-04-10T06:20:40.000Z</time>
      </trkpt>
      <trkpt lat="37.96388522721827" lon="23.733428148552775">
        <ele>82</ele>
        <time>2021-04-10T06:20:42.000Z</time>
      </trkpt>
      <trkpt lat="37.963888412341475" lon="23.733430160209537">
        <ele>82</ele>
        <time>2021-04-10T06:20:43.000Z</time>
      </trkpt>
      <trkpt lat="37.96389109455049" lon="23.733433093875647">
        <ele>81.8</ele>
        <time>2021-04-10T06:20:44.000Z</time>
      </trkpt>
      <trkpt lat="37.96389000490308" lon="23.73343275859952">
        <ele>81.8</ele>
        <time>2021-04-10T06:20:45.000Z</time>
      </trkpt>
      <trkpt lat="37.963865445926785" lon="23.733435356989503">
        <ele>81.6</ele>
        <time>2021-04-10T06:20:48.000Z</time>
      </trkpt>
      <trkpt lat="37.96385387890041" lon="23.733442146331072">
        <ele>81.6</ele>
        <time>2021-04-10T06:20:49.000Z</time>
      </trkpt>
      <trkpt lat="37.963829822838306" lon="23.733461257070303">
        <ele>81.8</ele>
        <time>2021-04-10T06:20:51.000Z</time>
      </trkpt>
      <trkpt lat="37.963780369609594" lon="23.733530659228563">
        <ele>81.8</ele>
        <time>2021-04-10T06:20:55.000Z</time>
      </trkpt>
      <trkpt lat="37.96375220641494" lon="23.733546752482653">
        <ele>81.6</ele>
        <time>2021-04-10T06:20:57.000Z</time>
      </trkpt>
      <trkpt lat="37.96365254558623" lon="23.733575083315372">
        <ele>81.8</ele>
        <time>2021-04-10T06:21:03.000Z</time>
      </trkpt>
      <trkpt lat="37.96363896690309" lon="23.733573323115706">
        <ele>81.8</ele>
        <time>2021-04-10T06:21:04.000Z</time>
      </trkpt>
      <trkpt lat="37.96361315064132" lon="23.733570892363787">
        <ele>82</ele>
        <time>2021-04-10T06:21:06.000Z</time>
      </trkpt>
      <trkpt lat="37.96355338767171" lon="23.73358430340886">
        <ele>82</ele>
        <time>2021-04-10T06:21:10.000Z</time>
      </trkpt>
      <trkpt lat="37.96349915675819" lon="23.733634678646922">
        <ele>81.8</ele>
        <time>2021-04-10T06:21:15.000Z</time>
      </trkpt>
      <trkpt lat="37.96348264440894" lon="23.733642557635903">
        <ele>81.8</ele>
        <time>2021-04-10T06:21:16.000Z</time>
      </trkpt>
      <trkpt lat="37.963465210050344" lon="23.733649346977472">
        <ele>81.8</ele>
        <time>2021-04-10T06:21:17.000Z</time>
      </trkpt>
      <trkpt lat="37.96337837353349" lon="23.73369519598782">
        <ele>81.8</ele>
        <time>2021-04-10T06:21:21.000Z</time>
      </trkpt>
      <trkpt lat="37.96334920451045" lon="23.733749175444245">
        <ele>81.8</ele>
        <time>2021-04-10T06:21:24.000Z</time>
      </trkpt>
      <trkpt lat="37.96333151869476" lon="23.73376853764057">
        <ele>81.8</ele>
        <time>2021-04-10T06:21:26.000Z</time>
      </trkpt>
      <trkpt lat="37.9632549919188" lon="23.733797119930387">
        <ele>82.2</ele>
        <time>2021-04-10T06:21:32.000Z</time>
      </trkpt>
      <trkpt lat="37.963137812912464" lon="23.733824780210853">
        <ele>82.2</ele>
        <time>2021-04-10T06:21:38.000Z</time>
      </trkpt>
      <trkpt lat="37.96310084871948" lon="23.733861995860934">
        <ele>82.2</ele>
        <time>2021-04-10T06:21:41.000Z</time>
      </trkpt>
      <trkpt lat="37.962985849007964" lon="23.733930308371782">
        <ele>82.2</ele>
        <time>2021-04-10T06:21:49.000Z</time>
      </trkpt>
      <trkpt lat="37.96288099139929" lon="23.733964087441564">
        <ele>82.2</ele>
        <time>2021-04-10T06:21:54.000Z</time>
      </trkpt>
      <trkpt lat="37.96283237636089" lon="23.733970960602164">
        <ele>82.2</ele>
        <time>2021-04-10T06:21:57.000Z</time>
      </trkpt>
      <trkpt lat="37.962825670838356" lon="23.733971882611513">
        <ele>82.2</ele>
        <time>2021-04-10T06:21:58.000Z</time>
      </trkpt>
      <trkpt lat="37.962822234258056" lon="23.73396777547896">
        <ele>82.4</ele>
        <time>2021-04-10T06:22:00.000Z</time>
      </trkpt>
      <trkpt lat="37.96281821094453" lon="23.733959812670946">
        <ele>82.4</ele>
        <time>2021-04-10T06:22:01.000Z</time>
      </trkpt>
      <trkpt lat="37.96282986178994" lon="23.733932320028543">
        <ele>82.4</ele>
        <time>2021-04-10T06:22:04.000Z</time>
      </trkpt>
      <trkpt lat="37.96282139606774" lon="23.73392536304891">
        <ele>82.2</ele>
        <time>2021-04-10T06:22:13.000Z</time>
      </trkpt>
      <trkpt lat="37.96281460672617" lon="23.733915807679296">
        <ele>82</ele>
        <time>2021-04-10T06:22:15.000Z</time>
      </trkpt>
      <trkpt lat="37.96276221983135" lon="23.733951095491648">
        <ele>81.8</ele>
        <time>2021-04-10T06:22:19.000Z</time>
      </trkpt>
      <trkpt lat="37.96272609382868" lon="23.73397179879248">
        <ele>81.8</ele>
        <time>2021-04-10T06:22:20.000Z</time>
      </trkpt>
      <trkpt lat="37.96269499696791" lon="23.73397959396243">
        <ele>81.8</ele>
        <time>2021-04-10T06:22:21.000Z</time>
      </trkpt>
      <trkpt lat="37.96258393675089" lon="23.734042709693313">
        <ele>81.8</ele>
        <time>2021-04-10T06:22:25.000Z</time>
      </trkpt>
      <trkpt lat="37.962523670867085" lon="23.734105406329036">
        <ele>81.8</ele>
        <time>2021-04-10T06:22:30.000Z</time>
      </trkpt>
      <trkpt lat="37.962438091635704" lon="23.734091240912676">
        <ele>82.6</ele>
        <time>2021-04-10T06:22:35.000Z</time>
      </trkpt>
      <trkpt lat="37.96242258511484" lon="23.734093587845564">
        <ele>82.6</ele>
        <time>2021-04-10T06:22:36.000Z</time>
      </trkpt>
      <trkpt lat="37.962398026138544" lon="23.734107920899987">
        <ele>82.6</ele>
        <time>2021-04-10T06:22:38.000Z</time>
      </trkpt>
      <trkpt lat="37.96233348548412" lon="23.734156033024192">
        <ele>82.6</ele>
        <time>2021-04-10T06:22:44.000Z</time>
      </trkpt>
      <trkpt lat="37.96231823042035" lon="23.734155781567097">
        <ele>82.6</ele>
        <time>2021-04-10T06:22:45.000Z</time>
      </trkpt>
      <trkpt lat="37.962263245135546" lon="23.734140023589134">
        <ele>83</ele>
        <time>2021-04-10T06:22:49.000Z</time>
      </trkpt>
      <trkpt lat="37.96221404336393" lon="23.734128875657916">
        <ele>82.8</ele>
        <time>2021-04-10T06:22:52.000Z</time>
      </trkpt>
      <trkpt lat="37.96210424043238" lon="23.734138933941722">
        <ele>82.8</ele>
        <time>2021-04-10T06:22:59.000Z</time>
      </trkpt>
      <trkpt lat="37.96209309250116" lon="23.734150417149067">
        <ele>82.8</ele>
        <time>2021-04-10T06:23:00.000Z</time>
      </trkpt>
      <trkpt lat="37.962045231834054" lon="23.73417405411601">
        <ele>83.4</ele>
        <time>2021-04-10T06:23:05.000Z</time>
      </trkpt>
      <trkpt lat="37.96202201396227" lon="23.734171874821186">
        <ele>83.8</ele>
        <time>2021-04-10T06:23:08.000Z</time>
      </trkpt>
      <trkpt lat="37.96201656572521" lon="23.734173886477947">
        <ele>83.8</ele>
        <time>2021-04-10T06:23:09.000Z</time>
      </trkpt>
      <trkpt lat="37.96187642030418" lon="23.734138011932373">
        <ele>84.2</ele>
        <time>2021-04-10T06:23:19.000Z</time>
      </trkpt>
      <trkpt lat="37.96186041086912" lon="23.734145807102323">
        <ele>84</ele>
        <time>2021-04-10T06:23:20.000Z</time>
      </trkpt>
      <trkpt lat="37.96184750273824" lon="23.734157038852572">
        <ele>84</ele>
        <time>2021-04-10T06:23:21.000Z</time>
      </trkpt>
      <trkpt lat="37.96176343224943" lon="23.73419350013137">
        <ele>84.2</ele>
        <time>2021-04-10T06:23:28.000Z</time>
      </trkpt>
      <trkpt lat="37.961678775027394" lon="23.7341573741287">
        <ele>84.6</ele>
        <time>2021-04-10T06:23:35.000Z</time>
      </trkpt>
      <trkpt lat="37.96166695654392" lon="23.734158966690302">
        <ele>84.8</ele>
        <time>2021-04-10T06:23:36.000Z</time>
      </trkpt>
      <trkpt lat="37.961629489436746" lon="23.734164498746395">
        <ele>84.8</ele>
        <time>2021-04-10T06:23:41.000Z</time>
      </trkpt>
      <trkpt lat="37.961583053693175" lon="23.734189812093973">
        <ele>84.8</ele>
        <time>2021-04-10T06:23:45.000Z</time>
      </trkpt>
      <trkpt lat="37.96156796626747" lon="23.734194673597813">
        <ele>84.8</ele>
        <time>2021-04-10T06:23:46.000Z</time>
      </trkpt>
      <trkpt lat="37.96155598014593" lon="23.73419995419681">
        <ele>84.8</ele>
        <time>2021-04-10T06:23:47.000Z</time>
      </trkpt>
      <trkpt lat="37.96149143949151" lon="23.73421990312636">
        <ele>85</ele>
        <time>2021-04-10T06:23:52.000Z</time>
      </trkpt>
      <trkpt lat="37.961486745625734" lon="23.7342073302716">
        <ele>85.4</ele>
        <time>2021-04-10T06:23:54.000Z</time>
      </trkpt>
      <trkpt lat="37.961476938799024" lon="23.73419316485524">
        <ele>85.8</ele>
        <time>2021-04-10T06:23:56.000Z</time>
      </trkpt>
      <trkpt lat="37.96147098764777" lon="23.734191237017512">
        <ele>85.8</ele>
        <time>2021-04-10T06:23:57.000Z</time>
      </trkpt>
      <trkpt lat="37.961465287953615" lon="23.734198193997145">
        <ele>85.8</ele>
        <time>2021-04-10T06:23:58.000Z</time>
      </trkpt>
      <trkpt lat="37.96144810505211" lon="23.734205989167094">
        <ele>85.8</ele>
        <time>2021-04-10T06:24:00.000Z</time>
      </trkpt>
      <trkpt lat="37.96143955551088" lon="23.734210347756743">
        <ele>85.8</ele>
        <time>2021-04-10T06:24:01.000Z</time>
      </trkpt>
      <trkpt lat="37.961425725370646" lon="23.734223004430532">
        <ele>85.8</ele>
        <time>2021-04-10T06:24:02.000Z</time>
      </trkpt>
      <trkpt lat="37.96140041202307" lon="23.734247060492635">
        <ele>85.8</ele>
        <time>2021-04-10T06:24:04.000Z</time>
      </trkpt>
      <trkpt lat="37.96135070733726" lon="23.73424923978746">
        <ele>85.8</ele>
        <time>2021-04-10T06:24:07.000Z</time>
      </trkpt>
      <trkpt lat="37.96128759160638" lon="23.734224010258913">
        <ele>85.8</ele>
        <time>2021-04-10T06:24:11.000Z</time>
      </trkpt>
      <trkpt lat="37.96127149835229" lon="23.734225686639547">
        <ele>85.8</ele>
        <time>2021-04-10T06:24:12.000Z</time>
      </trkpt>
      <trkpt lat="37.961256159469485" lon="23.73422333970666">
        <ele>85.8</ele>
        <time>2021-04-10T06:24:13.000Z</time>
      </trkpt>
      <trkpt lat="37.96119337901473" lon="23.73419995419681">
        <ele>86.2</ele>
        <time>2021-04-10T06:24:18.000Z</time>
      </trkpt>
      <trkpt lat="37.96113478951156" lon="23.734204648062587">
        <ele>86.4</ele>
        <time>2021-04-10T06:24:23.000Z</time>
      </trkpt>
      <trkpt lat="37.961100339889526" lon="23.734191488474607">
        <ele>86.6</ele>
        <time>2021-04-10T06:24:25.000Z</time>
      </trkpt>
      <trkpt lat="37.9610844142735" lon="23.73418771661818">
        <ele>86.8</ele>
        <time>2021-04-10T06:24:26.000Z</time>
      </trkpt>
      <trkpt lat="37.960996739566326" lon="23.734212946146727">
        <ele>87.6</ele>
        <time>2021-04-10T06:24:31.000Z</time>
      </trkpt>
      <trkpt lat="37.960942508652806" lon="23.73421118594706">
        <ele>87.6</ele>
        <time>2021-04-10T06:24:36.000Z</time>
      </trkpt>
      <trkpt lat="37.960935551673174" lon="23.734211018308997">
        <ele>87.6</ele>
        <time>2021-04-10T06:24:37.000Z</time>
      </trkpt>
      <trkpt lat="37.96091224998236" lon="23.734187968075275">
        <ele>87.6</ele>
        <time>2021-04-10T06:24:41.000Z</time>
      </trkpt>
      <trkpt lat="37.96090864576399" lon="23.73418914154172">
        <ele>87.6</ele>
        <time>2021-04-10T06:24:42.000Z</time>
      </trkpt>
      <trkpt lat="37.960904873907566" lon="23.73419215902686">
        <ele>87.8</ele>
        <time>2021-04-10T06:24:43.000Z</time>
      </trkpt>
      <trkpt lat="37.9608840867877" lon="23.73418729752302">
        <ele>87.8</ele>
        <time>2021-04-10T06:24:45.000Z</time>
      </trkpt>
      <trkpt lat="37.96084837988019" lon="23.734196852892637">
        <ele>88</ele>
        <time>2021-04-10T06:24:47.000Z</time>
      </trkpt>
      <trkpt lat="37.960806051269174" lon="23.734223758801818">
        <ele>88.2</ele>
        <time>2021-04-10T06:24:49.000Z</time>
      </trkpt>
      <trkpt lat="37.96077227219939" lon="23.734236331656575">
        <ele>88.2</ele>
        <time>2021-04-10T06:24:51.000Z</time>
      </trkpt>
      <trkpt lat="37.960749389603734" lon="23.7342385109514">
        <ele>88.2</ele>
        <time>2021-04-10T06:24:53.000Z</time>
      </trkpt>
      <trkpt lat="37.960718125104904" lon="23.734230464324355">
        <ele>88.2</ele>
        <time>2021-04-10T06:24:55.000Z</time>
      </trkpt>
      <trkpt lat="37.96063388697803" lon="23.734189560636878">
        <ele>88.6</ele>
        <time>2021-04-10T06:25:01.000Z</time>
      </trkpt>
      <trkpt lat="37.960614021867514" lon="23.734191237017512">
        <ele>88.8</ele>
        <time>2021-04-10T06:25:03.000Z</time>
      </trkpt>
      <trkpt lat="37.960594994947314" lon="23.73419316485524">
        <ele>88.8</ele>
        <time>2021-04-10T06:25:05.000Z</time>
      </trkpt>
      <trkpt lat="37.96058736741543" lon="23.734194422140718">
        <ele>88.8</ele>
        <time>2021-04-10T06:25:06.000Z</time>
      </trkpt>
      <trkpt lat="37.96057923696935" lon="23.734196769073606">
        <ele>88.8</ele>
        <time>2021-04-10T06:25:07.000Z</time>
      </trkpt>
      <trkpt lat="37.96057051979005" lon="23.734200289472938">
        <ele>88.8</ele>
        <time>2021-04-10T06:25:08.000Z</time>
      </trkpt>
      <trkpt lat="37.9605524148792" lon="23.734205653890967">
        <ele>88.6</ele>
        <time>2021-04-10T06:25:10.000Z</time>
      </trkpt>
      <trkpt lat="37.96050539240241" lon="23.734216298907995">
        <ele>88.4</ele>
        <time>2021-04-10T06:25:12.000Z</time>
      </trkpt>
      <trkpt lat="37.96046884730458" lon="23.73422392643988">
        <ele>88.4</ele>
        <time>2021-04-10T06:25:14.000Z</time>
      </trkpt>
      <trkpt lat="37.96039441600442" lon="23.734254352748394">
        <ele>88.6</ele>
        <time>2021-04-10T06:25:19.000Z</time>
      </trkpt>
      <trkpt lat="37.96038184314966" lon="23.734254436567426">
        <ele>88.6</ele>
        <time>2021-04-10T06:25:20.000Z</time>
      </trkpt>
      <trkpt lat="37.96035334467888" lon="23.7342609744519">
        <ele>88.2</ele>
        <time>2021-04-10T06:25:24.000Z</time>
      </trkpt>
      <trkpt lat="37.96033959835768" lon="23.734257286414504">
        <ele>88.2</ele>
        <time>2021-04-10T06:25:25.000Z</time>
      </trkpt>
      <trkpt lat="37.960200710222125" lon="23.734226105734706">
        <ele>88</ele>
        <time>2021-04-10T06:25:32.000Z</time>
      </trkpt>
      <trkpt lat="37.96009241603315" lon="23.734213700518012">
        <ele>87.8</ele>
        <time>2021-04-10T06:25:38.000Z</time>
      </trkpt>
      <trkpt lat="37.96007112599909" lon="23.734215795993805">
        <ele>87.8</ele>
        <time>2021-04-10T06:25:40.000Z</time>
      </trkpt>
      <trkpt lat="37.95998303219676" lon="23.734192494302988">
        <ele>87.8</ele>
        <time>2021-04-10T06:25:46.000Z</time>
      </trkpt>
      <trkpt lat="37.95996190980077" lon="23.734160140156746">
        <ele>87.6</ele>
        <time>2021-04-10T06:25:48.000Z</time>
      </trkpt>
      <trkpt lat="37.959957383573055" lon="23.73413985595107">
        <ele>87.8</ele>
        <time>2021-04-10T06:25:50.000Z</time>
      </trkpt>
      <trkpt lat="37.95995436608791" lon="23.734134659171104">
        <ele>87.6</ele>
        <time>2021-04-10T06:25:51.000Z</time>
      </trkpt>
      <trkpt lat="37.95995285734534" lon="23.734107166528702">
        <ele>87.6</ele>
        <time>2021-04-10T06:25:54.000Z</time>
      </trkpt>
      <trkpt lat="37.95996920205653" lon="23.73406986705959">
        <ele>87.6</ele>
        <time>2021-04-10T06:26:02.000Z</time>
      </trkpt>
      <trkpt lat="37.9599342495203" lon="23.734078081324697">
        <ele>87.2</ele>
        <time>2021-04-10T06:26:08.000Z</time>
      </trkpt>
      <trkpt lat="37.959927543997765" lon="23.734071040526032">
        <ele>87</ele>
        <time>2021-04-10T06:26:09.000Z</time>
      </trkpt>
      <trkpt lat="37.959923604503274" lon="23.734066849574447">
        <ele>87</ele>
        <time>2021-04-10T06:26:10.000Z</time>
      </trkpt>
      <trkpt lat="37.95991555787623" lon="23.734055534005165">
        <ele>87</ele>
        <time>2021-04-10T06:26:13.000Z</time>
      </trkpt>
      <trkpt lat="37.959900135174394" lon="23.734055617824197">
        <ele>87</ele>
        <time>2021-04-10T06:26:15.000Z</time>
      </trkpt>
      <trkpt lat="37.959885885939" lon="23.73405779711902">
        <ele>87</ele>
        <time>2021-04-10T06:26:16.000Z</time>
      </trkpt>
      <trkpt lat="37.95984263531864" lon="23.734081350266933">
        <ele>87.2</ele>
        <time>2021-04-10T06:26:19.000Z</time>
      </trkpt>
      <trkpt lat="37.95983014628291" lon="23.734085876494646">
        <ele>87.2</ele>
        <time>2021-04-10T06:26:20.000Z</time>
      </trkpt>
      <trkpt lat="37.95978161506355" lon="23.734090821817517">
        <ele>87.2</ele>
        <time>2021-04-10T06:26:23.000Z</time>
      </trkpt>
      <trkpt lat="37.95976711437106" lon="23.734090654179454">
        <ele>87</ele>
        <time>2021-04-10T06:26:24.000Z</time>
      </trkpt>
      <trkpt lat="37.95975278131664" lon="23.73409291729331">
        <ele>87</ele>
        <time>2021-04-10T06:26:25.000Z</time>
      </trkpt>
      <trkpt lat="37.959745237603784" lon="23.734090654179454">
        <ele>86.8</ele>
        <time>2021-04-10T06:26:26.000Z</time>
      </trkpt>
      <trkpt lat="37.959731156006455" lon="23.734090318903327">
        <ele>86.8</ele>
        <time>2021-04-10T06:26:27.000Z</time>
      </trkpt>
      <trkpt lat="37.959684720262885" lon="23.734101802110672">
        <ele>86.6</ele>
        <time>2021-04-10T06:26:30.000Z</time>
      </trkpt>
      <trkpt lat="37.9596097022295" lon="23.734136167913675">
        <ele>86.4</ele>
        <time>2021-04-10T06:26:34.000Z</time>
      </trkpt>
      <trkpt lat="37.9595666192472" lon="23.734174305573106">
        <ele>86.4</ele>
        <time>2021-04-10T06:26:36.000Z</time>
      </trkpt>
      <trkpt lat="37.959511801600456" lon="23.734216382727027">
        <ele>86.2</ele>
        <time>2021-04-10T06:26:38.000Z</time>
      </trkpt>
      <trkpt lat="37.959453128278255" lon="23.734250580891967">
        <ele>86.2</ele>
        <time>2021-04-10T06:26:41.000Z</time>
      </trkpt>
      <trkpt lat="37.959440471604466" lon="23.734250413253903">
        <ele>86</ele>
        <time>2021-04-10T06:26:42.000Z</time>
      </trkpt>
      <trkpt lat="37.95941490679979" lon="23.734245551750064">
        <ele>86</ele>
        <time>2021-04-10T06:26:44.000Z</time>
      </trkpt>
      <trkpt lat="37.95938062481582" lon="23.734242785722017">
        <ele>86</ele>
        <time>2021-04-10T06:26:46.000Z</time>
      </trkpt>
      <trkpt lat="37.95934064313769" lon="23.734250664711">
        <ele>86</ele>
        <time>2021-04-10T06:26:48.000Z</time>
      </trkpt>
      <trkpt lat="37.95931834727526" lon="23.734252927824855">
        <ele>86</ele>
        <time>2021-04-10T06:26:49.000Z</time>
      </trkpt>
      <trkpt lat="37.95923427678645" lon="23.734241276979446">
        <ele>85.8</ele>
        <time>2021-04-10T06:26:54.000Z</time>
      </trkpt>
      <trkpt lat="37.95919622294605" lon="23.734247982501984">
        <ele>85.4</ele>
        <time>2021-04-10T06:26:56.000Z</time>
      </trkpt>
      <trkpt lat="37.95912883244455" lon="23.734234739094973">
        <ele>85.4</ele>
        <time>2021-04-10T06:26:59.000Z</time>
      </trkpt>
      <trkpt lat="37.95908004976809" lon="23.734229458495975">
        <ele>85.4</ele>
        <time>2021-04-10T06:27:01.000Z</time>
      </trkpt>
      <trkpt lat="37.95900327153504" lon="23.734195176512003">
        <ele>85.4</ele>
        <time>2021-04-10T06:27:03.000Z</time>
      </trkpt>
      <trkpt lat="37.958975192159414" lon="23.73419115319848">
        <ele>85.2</ele>
        <time>2021-04-10T06:27:05.000Z</time>
      </trkpt>
      <trkpt lat="37.958960523828864" lon="23.734210347756743">
        <ele>85</ele>
        <time>2021-04-10T06:27:10.000Z</time>
      </trkpt>
      <trkpt lat="37.95894652605057" lon="23.734232559800148">
        <ele>84.8</ele>
        <time>2021-04-10T06:27:12.000Z</time>
      </trkpt>
      <trkpt lat="37.958936132490635" lon="23.734255861490965">
        <ele>84.6</ele>
        <time>2021-04-10T06:27:13.000Z</time>
      </trkpt>
      <trkpt lat="37.9588480386883" lon="23.734401538968086">
        <ele>84.6</ele>
        <time>2021-04-10T06:27:19.000Z</time>
      </trkpt>
      <trkpt lat="37.95884242281318" lon="23.73441545292735">
        <ele>84.8</ele>
        <time>2021-04-10T06:27:20.000Z</time>
      </trkpt>
      <trkpt lat="37.95876438729465" lon="23.734429199248552">
        <ele>85</ele>
        <time>2021-04-10T06:27:27.000Z</time>
      </trkpt>
      <trkpt lat="37.95866363681853" lon="23.734396928921342">
        <ele>85</ele>
        <time>2021-04-10T06:27:32.000Z</time>
      </trkpt>
      <trkpt lat="37.95864025130868" lon="23.734398102387786">
        <ele>85</ele>
        <time>2021-04-10T06:27:33.000Z</time>
      </trkpt>
      <trkpt lat="37.95860026963055" lon="23.73440120369196">
        <ele>85.2</ele>
        <time>2021-04-10T06:27:35.000Z</time>
      </trkpt>
      <trkpt lat="37.95856305398047" lon="23.73440413735807">
        <ele>85.4</ele>
        <time>2021-04-10T06:27:37.000Z</time>
      </trkpt>
      <trkpt lat="37.95851569622755" lon="23.734417632222176">
        <ele>85.4</ele>
        <time>2021-04-10T06:27:40.000Z</time>
      </trkpt>
      <trkpt lat="37.958403546363115" lon="23.734491309151053">
        <ele>85.4</ele>
        <time>2021-04-10T06:27:47.000Z</time>
      </trkpt>
      <trkpt lat="37.958391308784485" lon="23.734513018280268">
        <ele>85.4</ele>
        <time>2021-04-10T06:27:48.000Z</time>
      </trkpt>
      <trkpt lat="37.95831008814275" lon="23.734547970816493">
        <ele>85.2</ele>
        <time>2021-04-10T06:27:54.000Z</time>
      </trkpt>
      <trkpt lat="37.95824806205928" lon="23.734590131789446">
        <ele>85</ele>
        <time>2021-04-10T06:28:01.000Z</time>
      </trkpt>
      <trkpt lat="37.95822995714843" lon="23.734599435701966">
        <ele>85.4</ele>
        <time>2021-04-10T06:28:04.000Z</time>
      </trkpt>
      <trkpt lat="37.95820162631571" lon="23.734612176194787">
        <ele>85.6</ele>
        <time>2021-04-10T06:28:06.000Z</time>
      </trkpt>
      <trkpt lat="37.95816868543625" lon="23.734619803726673">
        <ele>85.4</ele>
        <time>2021-04-10T06:28:08.000Z</time>
      </trkpt>
      <trkpt lat="37.95807841233909" lon="23.73468216508627">
        <ele>85.4</ele>
        <time>2021-04-10T06:28:13.000Z</time>
      </trkpt>
      <trkpt lat="37.95804111286998" lon="23.7346909660846">
        <ele>85.6</ele>
        <time>2021-04-10T06:28:16.000Z</time>
      </trkpt>
      <trkpt lat="37.957904152572155" lon="23.734736815094948">
        <ele>85.8</ele>
        <time>2021-04-10T06:28:24.000Z</time>
      </trkpt>
      <trkpt lat="37.957774149253964" lon="23.734750980511308">
        <ele>86.2</ele>
        <time>2021-04-10T06:28:32.000Z</time>
      </trkpt>
      <trkpt lat="37.95776124112308" lon="23.734748382121325">
        <ele>86.2</ele>
        <time>2021-04-10T06:28:33.000Z</time>
      </trkpt>
      <trkpt lat="37.95766836963594" lon="23.734718626365066">
        <ele>86.4</ele>
        <time>2021-04-10T06:28:39.000Z</time>
      </trkpt>
      <trkpt lat="37.95765143819153" lon="23.734722649678588">
        <ele>86.2</ele>
        <time>2021-04-10T06:28:40.000Z</time>
      </trkpt>
      <trkpt lat="37.95753249898553" lon="23.734763050451875">
        <ele>86</ele>
        <time>2021-04-10T06:28:48.000Z</time>
      </trkpt>
      <trkpt lat="37.95744616538286" lon="23.734839158132672">
        <ele>86.2</ele>
        <time>2021-04-10T06:28:56.000Z</time>
      </trkpt>
      <trkpt lat="37.957367207854986" lon="23.73493328690529">
        <ele>86.8</ele>
        <time>2021-04-10T06:29:04.000Z</time>
      </trkpt>
      <trkpt lat="37.95735966414213" lon="23.734950134530663">
        <ele>87</ele>
        <time>2021-04-10T06:29:05.000Z</time>
      </trkpt>
      <trkpt lat="37.957327058538795" lon="23.735019201412797">
        <ele>86.8</ele>
        <time>2021-04-10T06:29:08.000Z</time>
      </trkpt>
      <trkpt lat="37.957318341359496" lon="23.735042084008455">
        <ele>86.8</ele>
        <time>2021-04-10T06:29:09.000Z</time>
      </trkpt>
      <trkpt lat="37.957269893959165" lon="23.7351106479764">
        <ele>87.2</ele>
        <time>2021-04-10T06:29:14.000Z</time>
      </trkpt>
      <trkpt lat="37.957246424630284" lon="23.735107546672225">
        <ele>87.8</ele>
        <time>2021-04-10T06:29:17.000Z</time>
      </trkpt>
      <trkpt lat="37.9571714065969" lon="23.735171500593424">
        <ele>87.4</ele>
        <time>2021-04-10T06:29:22.000Z</time>
      </trkpt>
      <trkpt lat="37.9570522159338" lon="23.735242746770382">
        <ele>87.6</ele>
        <time>2021-04-10T06:29:30.000Z</time>
      </trkpt>
      <trkpt lat="37.956991950049996" lon="23.735276609659195">
        <ele>87.8</ele>
        <time>2021-04-10T06:29:36.000Z</time>
      </trkpt>
      <trkpt lat="37.956979125738144" lon="23.73526998795569">
        <ele>88</ele>
        <time>2021-04-10T06:29:37.000Z</time>
      </trkpt>
      <trkpt lat="37.95696378685534" lon="23.735263869166374">
        <ele>88.2</ele>
        <time>2021-04-10T06:29:38.000Z</time>
      </trkpt>
      <trkpt lat="37.95695054344833" lon="23.735250122845173">
        <ele>88</ele>
        <time>2021-04-10T06:29:39.000Z</time>
      </trkpt>
      <trkpt lat="37.956893211230636" lon="23.73513462021947">
        <ele>88.2</ele>
        <time>2021-04-10T06:29:44.000Z</time>
      </trkpt>
      <trkpt lat="37.956889690831304" lon="23.735105618834496">
        <ele>88.2</ele>
        <time>2021-04-10T06:29:48.000Z</time>
      </trkpt>
      <trkpt lat="37.956901006400585" lon="23.735112072899938">
        <ele>88</ele>
        <time>2021-04-10T06:29:50.000Z</time>
      </trkpt>
      <trkpt lat="37.95691525563598" lon="23.73510737903416">
        <ele>88</ele>
        <time>2021-04-10T06:29:57.000Z</time>
      </trkpt>
      <trkpt lat="37.956911232322454" lon="23.73509354889393">
        <ele>88</ele>
        <time>2021-04-10T06:30:03.000Z</time>
      </trkpt>
      <trkpt lat="37.956917183473706" lon="23.735112994909286">
        <ele>87.8</ele>
        <time>2021-04-10T06:30:08.000Z</time>
      </trkpt>
      <trkpt lat="37.956919027492404" lon="23.735152976587415">
        <ele>87.6</ele>
        <time>2021-04-10T06:30:14.000Z</time>
      </trkpt>
      <trkpt lat="37.95691525563598" lon="23.73516194522381">
        <ele>87.4</ele>
        <time>2021-04-10T06:30:18.000Z</time>
      </trkpt>
      <trkpt lat="37.95692414045334" lon="23.735202262178063">
        <ele>87.8</ele>
        <time>2021-04-10T06:30:22.000Z</time>
      </trkpt>
      <trkpt lat="37.956930762156844" lon="23.7352211214602">
        <ele>88.2</ele>
        <time>2021-04-10T06:30:26.000Z</time>
      </trkpt>
      <trkpt lat="37.95692916959524" lon="23.735223887488246">
        <ele>88.2</ele>
        <time>2021-04-10T06:30:29.000Z</time>
      </trkpt>
      <trkpt lat="37.95693310908973" lon="23.735222378745675">
        <ele>88.4</ele>
        <time>2021-04-10T06:30:31.000Z</time>
      </trkpt>
      <trkpt lat="37.956924391910434" lon="23.73522514477372">
        <ele>88</ele>
        <time>2021-04-10T06:30:36.000Z</time>
      </trkpt>
      <trkpt lat="37.95692648738623" lon="23.735209135338664">
        <ele>88</ele>
        <time>2021-04-10T06:30:38.000Z</time>
      </trkpt>
      <trkpt lat="37.95690989121795" lon="23.735197987407446">
        <ele>88</ele>
        <time>2021-04-10T06:30:43.000Z</time>
      </trkpt>
      <trkpt lat="37.95689446851611" lon="23.735196813941002">
        <ele>88</ele>
        <time>2021-04-10T06:30:48.000Z</time>
      </trkpt>
      <trkpt lat="37.95688860118389" lon="23.73520502820611">
        <ele>88</ele>
        <time>2021-04-10T06:30:52.000Z</time>
      </trkpt>
      <trkpt lat="37.95688156038523" lon="23.735206872224808">
        <ele>88</ele>
        <time>2021-04-10T06:30:57.000Z</time>
      </trkpt>
      <trkpt lat="37.956890696659684" lon="23.735218942165375">
        <ele>88</ele>
        <time>2021-04-10T06:31:03.000Z</time>
      </trkpt>
      <trkpt lat="37.95690461061895" lon="23.73523637652397">
        <ele>88</ele>
        <time>2021-04-10T06:31:08.000Z</time>
      </trkpt>
      <trkpt lat="37.95692028477788" lon="23.735236627981067">
        <ele>87.4</ele>
        <time>2021-04-10T06:31:12.000Z</time>
      </trkpt>
      <trkpt lat="37.95692573301494" lon="23.73524408787489">
        <ele>87.4</ele>
        <time>2021-04-10T06:31:14.000Z</time>
      </trkpt>
      <trkpt lat="37.95691450126469" lon="23.735237466171384">
        <ele>87.6</ele>
        <time>2021-04-10T06:31:19.000Z</time>
      </trkpt>
      <trkpt lat="37.95691877603531" lon="23.73523050919175">
        <ele>83.8</ele>
        <time>2021-04-10T06:31:23.000Z</time>
      </trkpt>
      <trkpt lat="37.95691550709307" lon="23.7352435849607">
        <ele>85.8</ele>
        <time>2021-04-10T06:31:24.000Z</time>
      </trkpt>
      <trkpt lat="37.95691257342696" lon="23.735240818932652">
        <ele>88.6</ele>
        <time>2021-04-10T06:31:25.000Z</time>
      </trkpt>
      <trkpt lat="37.95690033584833" lon="23.735227324068546">
        <ele>89.8</ele>
        <time>2021-04-10T06:31:27.000Z</time>
      </trkpt>
      <trkpt lat="37.956888265907764" lon="23.735252637416124">
        <ele>90.2</ele>
        <time>2021-04-10T06:31:33.000Z</time>
      </trkpt>
      <trkpt lat="37.95688214711845" lon="23.73525674454868">
        <ele>90.4</ele>
        <time>2021-04-10T06:31:38.000Z</time>
      </trkpt>
      <trkpt lat="37.956892624497414" lon="23.735254481434822">
        <ele>90.4</ele>
        <time>2021-04-10T06:31:41.000Z</time>
      </trkpt>
      <trkpt lat="37.956898072734475" lon="23.735258169472218">
        <ele>90.4</ele>
        <time>2021-04-10T06:31:42.000Z</time>
      </trkpt>
      <trkpt lat="37.95690033584833" lon="23.735263282433152">
        <ele>90.4</ele>
        <time>2021-04-10T06:31:43.000Z</time>
      </trkpt>
      <trkpt lat="37.95689471997321" lon="23.73530418612063">
        <ele>90.6</ele>
        <time>2021-04-10T06:31:46.000Z</time>
      </trkpt>
      <trkpt lat="37.95689329504967" lon="23.73530468903482">
        <ele>90.6</ele>
        <time>2021-04-10T06:31:47.000Z</time>
      </trkpt>
      <trkpt lat="37.9568949714303" lon="23.73532664962113">
        <ele>90.6</ele>
        <time>2021-04-10T06:31:50.000Z</time>
      </trkpt>
      <trkpt lat="37.9568986594677" lon="23.73532614670694">
        <ele>90.8</ele>
        <time>2021-04-10T06:31:54.000Z</time>
      </trkpt>
      <trkpt lat="37.95689304359257" lon="23.735309885814786">
        <ele>90.8</ele>
        <time>2021-04-10T06:31:56.000Z</time>
      </trkpt>
      <trkpt lat="37.956892624497414" lon="23.73530762270093">
        <ele>90.8</ele>
        <time>2021-04-10T06:31:57.000Z</time>
      </trkpt>
      <trkpt lat="37.95688642188907" lon="23.735300162807107">
        <ele>90.6</ele>
        <time>2021-04-10T06:32:01.000Z</time>
      </trkpt>
      <trkpt lat="37.9568880982697" lon="23.735299576073885">
        <ele>90.4</ele>
        <time>2021-04-10T06:32:02.000Z</time>
      </trkpt>
      <trkpt lat="37.9569002520293" lon="23.735264455899596">
        <ele>90.2</ele>
        <time>2021-04-10T06:32:06.000Z</time>
      </trkpt>
      <trkpt lat="37.95691257342696" lon="23.735256576910615">
        <ele>88.2</ele>
        <time>2021-04-10T06:32:08.000Z</time>
      </trkpt>
      <trkpt lat="37.95694417320192" lon="23.735240483656526">
        <ele>88.8</ele>
        <time>2021-04-10T06:32:13.000Z</time>
      </trkpt>
      <trkpt lat="37.95698172412813" lon="23.735174015164375">
        <ele>88.6</ele>
        <time>2021-04-10T06:32:20.000Z</time>
      </trkpt>
      <trkpt lat="37.95697585679591" lon="23.7351537309587">
        <ele>88.2</ele>
        <time>2021-04-10T06:32:26.000Z</time>
      </trkpt>
      <trkpt lat="37.956957248970866" lon="23.73514006845653">
        <ele>88</ele>
        <time>2021-04-10T06:32:32.000Z</time>
      </trkpt>
      <trkpt lat="37.95693101361394" lon="23.73511861078441">
        <ele>87.6</ele>
        <time>2021-04-10T06:32:39.000Z</time>
      </trkpt>
      <trkpt lat="37.956921542063355" lon="23.735129004344344">
        <ele>87.8</ele>
        <time>2021-04-10T06:32:41.000Z</time>
      </trkpt>
      <trkpt lat="37.95692422427237" lon="23.73513621278107">
        <ele>87.8</ele>
        <time>2021-04-10T06:32:44.000Z</time>
      </trkpt>
      <trkpt lat="37.95691978186369" lon="23.735130596905947">
        <ele>87.6</ele>
        <time>2021-04-10T06:32:48.000Z</time>
      </trkpt>
      <trkpt lat="37.95691877603531" lon="23.735129674896598">
        <ele>87.8</ele>
        <time>2021-04-10T06:32:50.000Z</time>
      </trkpt>
      <trkpt lat="37.956922044977546" lon="23.73512397520244">
        <ele>88</ele>
        <time>2021-04-10T06:32:52.000Z</time>
      </trkpt>
      <trkpt lat="37.95692372135818" lon="23.7351278308779">
        <ele>88.2</ele>
        <time>2021-04-10T06:32:54.000Z</time>
      </trkpt>
      <trkpt lat="37.95691751874983" lon="23.735172590240836">
        <ele>88.4</ele>
        <time>2021-04-10T06:32:56.000Z</time>
      </trkpt>
      <trkpt lat="37.95691533945501" lon="23.735184157267213">
        <ele>88.4</ele>
        <time>2021-04-10T06:32:57.000Z</time>
      </trkpt>
      <trkpt lat="37.956912741065025" lon="23.735178960487247">
        <ele>88.6</ele>
        <time>2021-04-10T06:32:59.000Z</time>
      </trkpt>
      <trkpt lat="37.9569087177515" lon="23.73517569154501">
        <ele>88.6</ele>
        <time>2021-04-10T06:33:00.000Z</time>
      </trkpt>
      <trkpt lat="37.95689530670643" lon="23.735175523906946">
        <ele>87.6</ele>
        <time>2021-04-10T06:33:02.000Z</time>
      </trkpt>
      <trkpt lat="37.95689203776419" lon="23.73517770320177">
        <ele>87.2</ele>
        <time>2021-04-10T06:33:03.000Z</time>
      </trkpt>
      <trkpt lat="37.95687342993915" lon="23.73519228771329">
        <ele>87.8</ele>
        <time>2021-04-10T06:33:07.000Z</time>
      </trkpt>
      <trkpt lat="37.95684099197388" lon="23.735265377908945">
        <ele>88.6</ele>
        <time>2021-04-10T06:33:10.000Z</time>
      </trkpt>
      <trkpt lat="37.95678801834583" lon="23.735290188342333">
        <ele>88.6</ele>
        <time>2021-04-10T06:33:14.000Z</time>
      </trkpt>
      <trkpt lat="37.95677158981562" lon="23.7352832313627">
        <ele>88.2</ele>
        <time>2021-04-10T06:33:17.000Z</time>
      </trkpt>
      <trkpt lat="37.95677385292947" lon="23.735278034582734">
        <ele>88.2</ele>
        <time>2021-04-10T06:33:19.000Z</time>
      </trkpt>
      <trkpt lat="37.956780809909105" lon="23.735272083431482">
        <ele>87.2</ele>
        <time>2021-04-10T06:33:22.000Z</time>
      </trkpt>
      <trkpt lat="37.9568000882864" lon="23.735253643244505">
        <ele>87</ele>
        <time>2021-04-10T06:33:27.000Z</time>
      </trkpt>
      <trkpt lat="37.95680092647672" lon="23.73524995520711">
        <ele>87</ele>
        <time>2021-04-10T06:33:28.000Z</time>
      </trkpt>
      <trkpt lat="37.956801764667034" lon="23.735240986570716">
        <ele>87.8</ele>
        <time>2021-04-10T06:33:35.000Z</time>
      </trkpt>
      <trkpt lat="37.956801764667034" lon="23.73523679561913">
        <ele>88.2</ele>
        <time>2021-04-10T06:33:38.000Z</time>
      </trkpt>
      <trkpt lat="37.956802267581224" lon="23.73523377813399">
        <ele>88.2</ele>
        <time>2021-04-10T06:33:39.000Z</time>
      </trkpt>
      <trkpt lat="37.95680344104767" lon="23.73523134738207">
        <ele>88</ele>
        <time>2021-04-10T06:33:41.000Z</time>
      </trkpt>
      <trkpt lat="37.9568207077682" lon="23.735233694314957">
        <ele>88</ele>
        <time>2021-04-10T06:33:47.000Z</time>
      </trkpt>
      <trkpt lat="37.95684065669775" lon="23.735233610495925">
        <ele>88.2</ele>
        <time>2021-04-10T06:33:53.000Z</time>
      </trkpt>
      <trkpt lat="37.95682515017688" lon="23.73519429937005">
        <ele>87.4</ele>
        <time>2021-04-10T06:34:01.000Z</time>
      </trkpt>
      <trkpt lat="37.95681961812079" lon="23.735198825597763">
        <ele>87.2</ele>
        <time>2021-04-10T06:34:04.000Z</time>
      </trkpt>
      <trkpt lat="37.95681291259825" lon="23.73520745895803">
        <ele>87.2</ele>
        <time>2021-04-10T06:34:07.000Z</time>
      </trkpt>
      <trkpt lat="37.956810146570206" lon="23.735213074833155">
        <ele>87.2</ele>
        <time>2021-04-10T06:34:08.000Z</time>
      </trkpt>
      <trkpt lat="37.95682246796787" lon="23.735218103975058">
        <ele>86.8</ele>
        <time>2021-04-10T06:34:13.000Z</time>
      </trkpt>
      <trkpt lat="37.956824814900756" lon="23.735220786184072">
        <ele>88.2</ele>
        <time>2021-04-10T06:34:14.000Z</time>
      </trkpt>
      <trkpt lat="37.95682707801461" lon="23.73522506095469">
        <ele>88.2</ele>
        <time>2021-04-10T06:34:16.000Z</time>
      </trkpt>
      <trkpt lat="37.95683638192713" lon="23.73523436486721">
        <ele>88.2</ele>
        <time>2021-04-10T06:34:21.000Z</time>
      </trkpt>
      <trkpt lat="37.95685398392379" lon="23.735240986570716">
        <ele>88.2</ele>
        <time>2021-04-10T06:34:27.000Z</time>
      </trkpt>
      <trkpt lat="37.956879548728466" lon="23.735202765092254">
        <ele>88.2</ele>
        <time>2021-04-10T06:34:31.000Z</time>
      </trkpt>
      <trkpt lat="37.95688214711845" lon="23.73519622720778">
        <ele>88.8</ele>
        <time>2021-04-10T06:34:32.000Z</time>
      </trkpt>
      <trkpt lat="37.95688399113715" lon="23.735186336562037">
        <ele>86.4</ele>
        <time>2021-04-10T06:34:35.000Z</time>
      </trkpt>
      <trkpt lat="37.95688373968005" lon="23.735170075669885">
        <ele>86.8</ele>
        <time>2021-04-10T06:34:38.000Z</time>
      </trkpt>
      <trkpt lat="37.95688382349908" lon="23.735169488936663">
        <ele>86.8</ele>
        <time>2021-04-10T06:34:39.000Z</time>
      </trkpt>
      <trkpt lat="37.9568830691278" lon="23.735135374590755">
        <ele>87.4</ele>
        <time>2021-04-10T06:34:45.000Z</time>
      </trkpt>
      <trkpt lat="37.95687879435718" lon="23.735111486166716">
        <ele>88.2</ele>
        <time>2021-04-10T06:34:47.000Z</time>
      </trkpt>
      <trkpt lat="37.956876531243324" lon="23.735106959939003">
        <ele>88.8</ele>
        <time>2021-04-10T06:34:48.000Z</time>
      </trkpt>
      <trkpt lat="37.95686949044466" lon="23.735106624662876">
        <ele>88.8</ele>
        <time>2021-04-10T06:34:50.000Z</time>
      </trkpt>
      <trkpt lat="37.95686555095017" lon="23.735108636319637">
        <ele>88.8</ele>
        <time>2021-04-10T06:34:51.000Z</time>
      </trkpt>
      <trkpt lat="37.95683462172747" lon="23.73511123470962">
        <ele>88.8</ele>
        <time>2021-04-10T06:34:58.000Z</time>
      </trkpt>
      <trkpt lat="37.956815510988235" lon="23.73511953279376">
        <ele>88.8</ele>
        <time>2021-04-10T06:35:01.000Z</time>
      </trkpt>
      <trkpt lat="37.956809140741825" lon="23.73513034544885">
        <ele>88.8</ele>
        <time>2021-04-10T06:35:02.000Z</time>
      </trkpt>
      <trkpt lat="37.95681316405535" lon="23.73515171930194">
        <ele>89</ele>
        <time>2021-04-10T06:35:05.000Z</time>
      </trkpt>
      <trkpt lat="37.95681534335017" lon="23.73516001738608">
        <ele>89.2</ele>
        <time>2021-04-10T06:35:07.000Z</time>
      </trkpt>
      <trkpt lat="37.95682992786169" lon="23.73514057137072">
        <ele>89.2</ele>
        <time>2021-04-10T06:35:13.000Z</time>
      </trkpt>
      <trkpt lat="37.95683219097555" lon="23.735133949667215">
        <ele>89</ele>
        <time>2021-04-10T06:35:14.000Z</time>
      </trkpt>
      <trkpt lat="37.95683277770877" lon="23.735134452581406">
        <ele>88</ele>
        <time>2021-04-10T06:35:17.000Z</time>
      </trkpt>
      <trkpt lat="37.95683420263231" lon="23.735137470066547">
        <ele>88.2</ele>
        <time>2021-04-10T06:35:18.000Z</time>
      </trkpt>
      <trkpt lat="37.95683638192713" lon="23.7351434212178">
        <ele>88.2</ele>
        <time>2021-04-10T06:35:19.000Z</time>
      </trkpt>
      <trkpt lat="37.95684032142162" lon="23.735153060406446">
        <ele>87.8</ele>
        <time>2021-04-10T06:35:22.000Z</time>
      </trkpt>
      <trkpt lat="37.95684853568673" lon="23.735166722908616">
        <ele>88.2</ele>
        <time>2021-04-10T06:35:24.000Z</time>
      </trkpt>
      <trkpt lat="37.9568603541702" lon="23.735178541392088">
        <ele>87.2</ele>
        <time>2021-04-10T06:35:26.000Z</time>
      </trkpt>
      <trkpt lat="37.95686278492212" lon="23.73517476953566">
        <ele>87</ele>
        <time>2021-04-10T06:35:27.000Z</time>
      </trkpt>
      <trkpt lat="37.95685968361795" lon="23.73517334461212">
        <ele>88.8</ele>
        <time>2021-04-10T06:35:28.000Z</time>
      </trkpt>
      <trkpt lat="37.95684199780226" lon="23.735185330733657">
        <ele>88.4</ele>
        <time>2021-04-10T06:35:30.000Z</time>
      </trkpt>
      <trkpt lat="37.9568294249475" lon="23.735190695151687">
        <ele>90.2</ele>
        <time>2021-04-10T06:35:31.000Z</time>
      </trkpt>
      <trkpt lat="37.956818947568536" lon="23.73519136570394">
        <ele>90.4</ele>
        <time>2021-04-10T06:35:32.000Z</time>
      </trkpt>
      <trkpt lat="37.95674619264901" lon="23.735220283269882">
        <ele>90</ele>
        <time>2021-04-10T06:35:39.000Z</time>
      </trkpt>
      <trkpt lat="37.95673999004066" lon="23.735220534726977">
        <ele>90</ele>
        <time>2021-04-10T06:35:40.000Z</time>
      </trkpt>
      <trkpt lat="37.956721633672714" lon="23.735229084268212">
        <ele>90</ele>
        <time>2021-04-10T06:35:42.000Z</time>
      </trkpt>
      <trkpt lat="37.95671375468373" lon="23.73523587360978">
        <ele>90</ele>
        <time>2021-04-10T06:35:43.000Z</time>
      </trkpt>
      <trkpt lat="37.95668517239392" lon="23.735263282433152">
        <ele>90.6</ele>
        <time>2021-04-10T06:35:49.000Z</time>
      </trkpt>
      <trkpt lat="37.95668927952647" lon="23.735264791175723">
        <ele>90.6</ele>
        <time>2021-04-10T06:35:51.000Z</time>
      </trkpt>
      <trkpt lat="37.9566914588213" lon="23.73526462353766">
        <ele>90.6</ele>
        <time>2021-04-10T06:35:52.000Z</time>
      </trkpt>
      <trkpt lat="37.95670486986637" lon="23.735264036804438">
        <ele>90.4</ele>
        <time>2021-04-10T06:35:58.000Z</time>
      </trkpt>
      <trkpt lat="37.95669011771679" lon="23.73525096103549">
        <ele>89.6</ele>
        <time>2021-04-10T06:36:05.000Z</time>
      </trkpt>
      <trkpt lat="37.956685088574886" lon="23.735251547768712">
        <ele>89.8</ele>
        <time>2021-04-10T06:36:06.000Z</time>
      </trkpt>
      <trkpt lat="37.95667955651879" lon="23.735248195007443">
        <ele>89.8</ele>
        <time>2021-04-10T06:36:07.000Z</time>
      </trkpt>
      <trkpt lat="37.95667435973883" lon="23.7352435849607">
        <ele>90</ele>
        <time>2021-04-10T06:36:09.000Z</time>
      </trkpt>
      <trkpt lat="37.95667637139559" lon="23.735223971307278">
        <ele>90.2</ele>
        <time>2021-04-10T06:36:14.000Z</time>
      </trkpt>
      <trkpt lat="37.95668173581362" lon="23.735212655737996">
        <ele>90.2</ele>
        <time>2021-04-10T06:36:16.000Z</time>
      </trkpt>
      <trkpt lat="37.95667829923332" lon="23.73520209454">
        <ele>90.6</ele>
        <time>2021-04-10T06:36:24.000Z</time>
      </trkpt>
      <trkpt lat="37.95666044577956" lon="23.73521961271763">
        <ele>90.6</ele>
        <time>2021-04-10T06:36:28.000Z</time>
      </trkpt>
      <trkpt lat="37.95659305527806" lon="23.73523931019008">
        <ele>90.2</ele>
        <time>2021-04-10T06:36:32.000Z</time>
      </trkpt>
      <trkpt lat="37.95657939277589" lon="23.73524844646454">
        <ele>90.2</ele>
        <time>2021-04-10T06:36:33.000Z</time>
      </trkpt>
      <trkpt lat="37.95656061731279" lon="23.735271580517292">
        <ele>90</ele>
        <time>2021-04-10T06:36:35.000Z</time>
      </trkpt>
      <trkpt lat="37.9565289337188" lon="23.735322207212448">
        <ele>90.4</ele>
        <time>2021-04-10T06:36:39.000Z</time>
      </trkpt>
      <trkpt lat="37.95651879161596" lon="23.735332433134317">
        <ele>90.4</ele>
        <time>2021-04-10T06:36:40.000Z</time>
      </trkpt>
      <trkpt lat="37.956504290923476" lon="23.735348107293248">
        <ele>90.4</ele>
        <time>2021-04-10T06:36:42.000Z</time>
      </trkpt>
      <trkpt lat="37.956460202112794" lon="23.735367050394416">
        <ele>91</ele>
        <time>2021-04-10T06:36:46.000Z</time>
      </trkpt>
      <trkpt lat="37.95641569420695" lon="23.73537551611662">
        <ele>91</ele>
        <time>2021-04-10T06:36:49.000Z</time>
      </trkpt>
      <trkpt lat="37.9563822504133" lon="23.735376857221127">
        <ele>91</ele>
        <time>2021-04-10T06:36:51.000Z</time>
      </trkpt>
      <trkpt lat="37.95634520240128" lon="23.73538088053465">
        <ele>91.2</ele>
        <time>2021-04-10T06:36:54.000Z</time>
      </trkpt>
      <trkpt lat="37.95632944442332" lon="23.735397644340992">
        <ele>91.4</ele>
        <time>2021-04-10T06:36:56.000Z</time>
      </trkpt>
      <trkpt lat="37.956313183531165" lon="23.73543033376336">
        <ele>91.4</ele>
        <time>2021-04-10T06:36:58.000Z</time>
      </trkpt>
      <trkpt lat="37.95630547218025" lon="23.735439721494913">
        <ele>91.6</ele>
        <time>2021-04-10T06:36:59.000Z</time>
      </trkpt>
      <trkpt lat="37.95629868283868" lon="23.735447600483894">
        <ele>91.4</ele>
        <time>2021-04-10T06:37:00.000Z</time>
      </trkpt>
      <trkpt lat="37.956281919032335" lon="23.735462352633476">
        <ele>90.8</ele>
        <time>2021-04-10T06:37:02.000Z</time>
      </trkpt>
      <trkpt lat="37.956247720867395" lon="23.735485654324293">
        <ele>90.6</ele>
        <time>2021-04-10T06:37:05.000Z</time>
      </trkpt>
      <trkpt lat="37.95621704310179" lon="23.735528653487563">
        <ele>90.6</ele>
        <time>2021-04-10T06:37:08.000Z</time>
      </trkpt>
      <trkpt lat="37.956203296780586" lon="23.735541477799416">
        <ele>90.6</ele>
        <time>2021-04-10T06:37:09.000Z</time>
      </trkpt>
      <trkpt lat="37.956164740026" lon="23.735570227727294">
        <ele>91</ele>
        <time>2021-04-10T06:37:12.000Z</time>
      </trkpt>
      <trkpt lat="37.95610170811415" lon="23.735578022897243">
        <ele>91.2</ele>
        <time>2021-04-10T06:37:18.000Z</time>
      </trkpt>
      <trkpt lat="37.956031300127506" lon="23.73562328517437">
        <ele>91.2</ele>
        <time>2021-04-10T06:37:24.000Z</time>
      </trkpt>
      <trkpt lat="37.956016128882766" lon="23.735634265467525">
        <ele>91.2</ele>
        <time>2021-04-10T06:37:25.000Z</time>
      </trkpt>
      <trkpt lat="37.95599324628711" lon="23.73564817942679">
        <ele>91.2</ele>
        <time>2021-04-10T06:37:27.000Z</time>
      </trkpt>
      <trkpt lat="37.95596994459629" lon="23.735659578815103">
        <ele>91.4</ele>
        <time>2021-04-10T06:37:29.000Z</time>
      </trkpt>
      <trkpt lat="37.95593457296491" lon="23.735673408955336">
        <ele>92</ele>
        <time>2021-04-10T06:37:31.000Z</time>
      </trkpt>
      <trkpt lat="37.955893920734525" lon="23.73569218441844">
        <ele>92.4</ele>
        <time>2021-04-10T06:37:33.000Z</time>
      </trkpt>
      <trkpt lat="37.955862153321505" lon="23.735723197460175">
        <ele>92.8</ele>
        <time>2021-04-10T06:37:35.000Z</time>
      </trkpt>
      <trkpt lat="37.95582636259496" lon="23.735761335119605">
        <ele>92.2</ele>
        <time>2021-04-10T06:37:38.000Z</time>
      </trkpt>
      <trkpt lat="37.95580524019897" lon="23.735778434202075">
        <ele>92.2</ele>
        <time>2021-04-10T06:37:40.000Z</time>
      </trkpt>
      <trkpt lat="37.95575654134154" lon="23.73578413389623">
        <ele>91.8</ele>
        <time>2021-04-10T06:37:44.000Z</time>
      </trkpt>
      <trkpt lat="37.9557329043746" lon="23.735772063955665">
        <ele>91.8</ele>
        <time>2021-04-10T06:37:46.000Z</time>
      </trkpt>
      <trkpt lat="37.95572360046208" lon="23.735771477222443">
        <ele>91.6</ele>
        <time>2021-04-10T06:37:47.000Z</time>
      </trkpt>
      <trkpt lat="37.9556966945529" lon="23.73580408282578">
        <ele>92.4</ele>
        <time>2021-04-10T06:37:50.000Z</time>
      </trkpt>
      <trkpt lat="37.95569149777293" lon="23.73581045307219">
        <ele>92.6</ele>
        <time>2021-04-10T06:37:51.000Z</time>
      </trkpt>
      <trkpt lat="37.95565067790449" lon="23.735823445022106">
        <ele>92.6</ele>
        <time>2021-04-10T06:37:55.000Z</time>
      </trkpt>
      <trkpt lat="37.955597285181284" lon="23.73585043475032">
        <ele>92.4</ele>
        <time>2021-04-10T06:37:59.000Z</time>
      </trkpt>
      <trkpt lat="37.95555177144706" lon="23.735865857452154">
        <ele>92.8</ele>
        <time>2021-04-10T06:38:02.000Z</time>
      </trkpt>
      <trkpt lat="37.955511873587966" lon="23.73588035814464">
        <ele>92.6</ele>
        <time>2021-04-10T06:38:05.000Z</time>
      </trkpt>
      <trkpt lat="37.95549854636192" lon="23.73588513582945">
        <ele>92.6</ele>
        <time>2021-04-10T06:38:06.000Z</time>
      </trkpt>
      <trkpt lat="37.95547314919531" lon="23.735890667885542">
        <ele>92.6</ele>
        <time>2021-04-10T06:38:08.000Z</time>
      </trkpt>
      <trkpt lat="37.95540911145508" lon="23.73588136397302">
        <ele>93</ele>
        <time>2021-04-10T06:38:12.000Z</time>
      </trkpt>
      <trkpt lat="37.9553684592247" lon="23.735886979848146">
        <ele>93</ele>
        <time>2021-04-10T06:38:15.000Z</time>
      </trkpt>
      <trkpt lat="37.95533811673522" lon="23.735920088365674">
        <ele>93.2</ele>
        <time>2021-04-10T06:38:18.000Z</time>
      </trkpt>
      <trkpt lat="37.955305092036724" lon="23.73594179749489">
        <ele>93.4</ele>
        <time>2021-04-10T06:38:21.000Z</time>
      </trkpt>
      <trkpt lat="37.955293944105506" lon="23.73594582080841">
        <ele>93.4</ele>
        <time>2021-04-10T06:38:22.000Z</time>
      </trkpt>
      <trkpt lat="37.955269971862435" lon="23.735970798879862">
        <ele>93.4</ele>
        <time>2021-04-10T06:38:24.000Z</time>
      </trkpt>
      <trkpt lat="37.955236276611686" lon="23.736008014529943">
        <ele>93.4</ele>
        <time>2021-04-10T06:38:28.000Z</time>
      </trkpt>
      <trkpt lat="37.95520660467446" lon="23.736014971509576">
        <ele>93.6</ele>
        <time>2021-04-10T06:38:31.000Z</time>
      </trkpt>
      <trkpt lat="37.95518120750785" lon="23.736013965681195">
        <ele>93.6</ele>
        <time>2021-04-10T06:38:33.000Z</time>
      </trkpt>
      <trkpt lat="37.95512655749917" lon="23.73601119965315">
        <ele>93.6</ele>
        <time>2021-04-10T06:38:36.000Z</time>
      </trkpt>
      <trkpt lat="37.955094957724214" lon="23.736053025349975">
        <ele>93.6</ele>
        <time>2021-04-10T06:38:39.000Z</time>
      </trkpt>
      <trkpt lat="37.95506595633924" lon="23.736076578497887">
        <ele>93.8</ele>
        <time>2021-04-10T06:38:42.000Z</time>
      </trkpt>
      <trkpt lat="37.95501021668315" lon="23.73609426431358">
        <ele>94.2</ele>
        <time>2021-04-10T06:38:46.000Z</time>
      </trkpt>
      <trkpt lat="37.95499471016228" lon="23.736094683408737">
        <ele>94.4</ele>
        <time>2021-04-10T06:38:47.000Z</time>
      </trkpt>
      <trkpt lat="37.954949950799346" lon="23.73608998954296">
        <ele>94.6</ele>
        <time>2021-04-10T06:38:51.000Z</time>
      </trkpt>
      <trkpt lat="37.95494148507714" lon="23.73608705587685">
        <ele>94.6</ele>
        <time>2021-04-10T06:38:52.000Z</time>
      </trkpt>
      <trkpt lat="37.95493209734559" lon="23.73608068563044">
        <ele>94.6</ele>
        <time>2021-04-10T06:38:53.000Z</time>
      </trkpt>
      <trkpt lat="37.95491013675928" lon="23.736078003421426">
        <ele>94.6</ele>
        <time>2021-04-10T06:38:55.000Z</time>
      </trkpt>
      <trkpt lat="37.95489496551454" lon="23.736072974279523">
        <ele>94.4</ele>
        <time>2021-04-10T06:38:57.000Z</time>
      </trkpt>
      <trkpt lat="37.954859929159284" lon="23.736053947359324">
        <ele>94.4</ele>
        <time>2021-04-10T06:39:00.000Z</time>
      </trkpt>
      <trkpt lat="37.95484718866646" lon="23.736058054491878">
        <ele>94.8</ele>
        <time>2021-04-10T06:39:04.000Z</time>
      </trkpt>
      <trkpt lat="37.954829670488834" lon="23.736069705337286">
        <ele>95</ele>
        <time>2021-04-10T06:39:06.000Z</time>
      </trkpt>
      <trkpt lat="37.9547986574471" lon="23.73609183356166">
        <ele>94.8</ele>
        <time>2021-04-10T06:39:09.000Z</time>
      </trkpt>
      <trkpt lat="37.954788682982326" lon="23.736099041998386">
        <ele>94.8</ele>
        <time>2021-04-10T06:39:10.000Z</time>
      </trkpt>
      <trkpt lat="37.95477711595595" lon="23.736105244606733">
        <ele>94.8</ele>
        <time>2021-04-10T06:39:11.000Z</time>
      </trkpt>
      <trkpt lat="37.9547487013042" lon="23.73612519353628">
        <ele>94.8</ele>
        <time>2021-04-10T06:39:13.000Z</time>
      </trkpt>
      <trkpt lat="37.95468910597265" lon="23.736187973991036">
        <ele>94.6</ele>
        <time>2021-04-10T06:39:17.000Z</time>
      </trkpt>
      <trkpt lat="37.95467955060303" lon="23.736205073073506">
        <ele>94.8</ele>
        <time>2021-04-10T06:39:18.000Z</time>
      </trkpt>
      <trkpt lat="37.95466873794794" lon="23.736220663413405">
        <ele>95</ele>
        <time>2021-04-10T06:39:19.000Z</time>
      </trkpt>
      <trkpt lat="37.95466052368283" lon="23.736229799687862">
        <ele>95</ele>
        <time>2021-04-10T06:39:20.000Z</time>
      </trkpt>
      <trkpt lat="37.954632360488176" lon="23.736253855749965">
        <ele>95</ele>
        <time>2021-04-10T06:39:23.000Z</time>
      </trkpt>
      <trkpt lat="37.954564802348614" lon="23.736272966489196">
        <ele>95.4</ele>
        <time>2021-04-10T06:39:28.000Z</time>
      </trkpt>
      <trkpt lat="37.95452951453626" lon="23.736268104985356">
        <ele>95.6</ele>
        <time>2021-04-10T06:39:30.000Z</time>
      </trkpt>
      <trkpt lat="37.95451333746314" lon="23.73627715744078">
        <ele>95.6</ele>
        <time>2021-04-10T06:39:31.000Z</time>
      </trkpt>
      <trkpt lat="37.954449970275164" lon="23.736300794407725">
        <ele>95.8</ele>
        <time>2021-04-10T06:39:35.000Z</time>
      </trkpt>
      <trkpt lat="37.95442583039403" lon="23.73632057569921">
        <ele>95.6</ele>
        <time>2021-04-10T06:39:37.000Z</time>
      </trkpt>
      <trkpt lat="37.95436916872859" lon="23.73637572862208">
        <ele>95.8</ele>
        <time>2021-04-10T06:39:43.000Z</time>
      </trkpt>
      <trkpt lat="37.95433606021106" lon="23.736390313133597">
        <ele>96</ele>
        <time>2021-04-10T06:39:46.000Z</time>
      </trkpt>
      <trkpt lat="37.954323906451464" lon="23.736388385295868">
        <ele>96.2</ele>
        <time>2021-04-10T06:39:47.000Z</time>
      </trkpt>
      <trkpt lat="37.95427478849888" lon="23.7363987788558">
        <ele>96</ele>
        <time>2021-04-10T06:39:50.000Z</time>
      </trkpt>
      <trkpt lat="37.95424712821841" lon="23.736400874331594">
        <ele>96.4</ele>
        <time>2021-04-10T06:39:52.000Z</time>
      </trkpt>
      <trkpt lat="37.95422290451825" lon="23.73640707693994">
        <ele>96.6</ele>
        <time>2021-04-10T06:39:54.000Z</time>
      </trkpt>
      <trkpt lat="37.954207649454474" lon="23.73640799894929">
        <ele>96.6</ele>
        <time>2021-04-10T06:39:55.000Z</time>
      </trkpt>
      <trkpt lat="37.95417504385114" lon="23.73641344718635">
        <ele>96.6</ele>
        <time>2021-04-10T06:39:57.000Z</time>
      </trkpt>
      <trkpt lat="37.95415760949254" lon="23.736420068889856">
        <ele>96.6</ele>
        <time>2021-04-10T06:39:58.000Z</time>
      </trkpt>
      <trkpt lat="37.954049818217754" lon="23.736462062224746">
        <ele>96.4</ele>
        <time>2021-04-10T06:40:04.000Z</time>
      </trkpt>
      <trkpt lat="37.954009836539626" lon="23.736504893749952">
        <ele>96.4</ele>
        <time>2021-04-10T06:40:07.000Z</time>
      </trkpt>
      <trkpt lat="37.95399248600006" lon="23.73652048408985">
        <ele>96.8</ele>
        <time>2021-04-10T06:40:09.000Z</time>
      </trkpt>
      <trkpt lat="37.953952671959996" lon="23.736554514616728">
        <ele>96.8</ele>
        <time>2021-04-10T06:40:12.000Z</time>
      </trkpt>
      <trkpt lat="37.95393222011626" lon="23.736587539315224">
        <ele>96.8</ele>
        <time>2021-04-10T06:40:15.000Z</time>
      </trkpt>
      <trkpt lat="37.95392828062177" lon="23.73659474775195">
        <ele>96.8</ele>
        <time>2021-04-10T06:40:16.000Z</time>
      </trkpt>
      <trkpt lat="37.95391604304314" lon="23.736607488244772">
        <ele>97</ele>
        <time>2021-04-10T06:40:18.000Z</time>
      </trkpt>
      <trkpt lat="37.953889137133956" lon="23.73662944883108">
        <ele>97.2</ele>
        <time>2021-04-10T06:40:20.000Z</time>
      </trkpt>
      <trkpt lat="37.953873462975025" lon="23.73663581907749">
        <ele>97.4</ele>
        <time>2021-04-10T06:40:21.000Z</time>
      </trkpt>
      <trkpt lat="37.95383549295366" lon="23.736643446609378">
        <ele>97.4</ele>
        <time>2021-04-10T06:40:23.000Z</time>
      </trkpt>
      <trkpt lat="37.953799199312925" lon="23.736655432730913">
        <ele>97.6</ele>
        <time>2021-04-10T06:40:25.000Z</time>
      </trkpt>
      <trkpt lat="37.95377992093563" lon="23.73666062951088">
        <ele>97.8</ele>
        <time>2021-04-10T06:40:26.000Z</time>
      </trkpt>
      <trkpt lat="37.953706327825785" lon="23.736669681966305">
        <ele>98.2</ele>
        <time>2021-04-10T06:40:33.000Z</time>
      </trkpt>
      <trkpt lat="37.953700963407755" lon="23.736672615632415">
        <ele>98.2</ele>
        <time>2021-04-10T06:40:34.000Z</time>
      </trkpt>
      <trkpt lat="37.95367925427854" lon="23.73669004999101">
        <ele>98.2</ele>
        <time>2021-04-10T06:40:36.000Z</time>
      </trkpt>
      <trkpt lat="37.95364782214165" lon="23.736702874302864">
        <ele>98.2</ele>
        <time>2021-04-10T06:40:38.000Z</time>
      </trkpt>
      <trkpt lat="37.95362996868789" lon="23.7367045506835">
        <ele>98.2</ele>
        <time>2021-04-10T06:40:39.000Z</time>
      </trkpt>
      <trkpt lat="37.953585712239146" lon="23.73671494424343">
        <ele>98.2</ele>
        <time>2021-04-10T06:40:42.000Z</time>
      </trkpt>
      <trkpt lat="37.95356886461377" lon="23.73673095367849">
        <ele>98.2</ele>
        <time>2021-04-10T06:40:44.000Z</time>
      </trkpt>
      <trkpt lat="37.95354631729424" lon="23.73674218542874">
        <ele>98.2</ele>
        <time>2021-04-10T06:40:47.000Z</time>
      </trkpt>
      <trkpt lat="37.95351983048022" lon="23.736738665029407">
        <ele>98.4</ele>
        <time>2021-04-10T06:40:50.000Z</time>
      </trkpt>
      <trkpt lat="37.95346182771027" lon="23.73678778298199">
        <ele>98.4</ele>
        <time>2021-04-10T06:40:56.000Z</time>
      </trkpt>
      <trkpt lat="37.95340399257839" lon="23.7367994338274">
        <ele>98.6</ele>
        <time>2021-04-10T06:41:00.000Z</time>
      </trkpt>
      <trkpt lat="37.95338756404817" lon="23.736802199855447">
        <ele>98.6</ele>
        <time>2021-04-10T06:41:01.000Z</time>
      </trkpt>
      <trkpt lat="37.953355461359024" lon="23.736812761053443">
        <ele>98.6</ele>
        <time>2021-04-10T06:41:03.000Z</time>
      </trkpt>
      <trkpt lat="37.953343726694584" lon="23.73682491481304">
        <ele>98.6</ele>
        <time>2021-04-10T06:41:04.000Z</time>
      </trkpt>
      <trkpt lat="37.95328832231462" lon="23.736870177090168">
        <ele>98.6</ele>
        <time>2021-04-10T06:41:08.000Z</time>
      </trkpt>
      <trkpt lat="37.95326921157539" lon="23.73687654733658">
        <ele>98.6</ele>
        <time>2021-04-10T06:41:09.000Z</time>
      </trkpt>
      <trkpt lat="37.95319746248424" lon="23.736870093271136">
        <ele>99</ele>
        <time>2021-04-10T06:41:14.000Z</time>
      </trkpt>
      <trkpt lat="37.95318262651563" lon="23.736869003623724">
        <ele>99</ele>
        <time>2021-04-10T06:41:15.000Z</time>
      </trkpt>
      <trkpt lat="37.9531164932996" lon="23.736895909532905">
        <ele>99</ele>
        <time>2021-04-10T06:41:20.000Z</time>
      </trkpt>
      <trkpt lat="37.95308992266655" lon="23.736906554549932">
        <ele>99</ele>
        <time>2021-04-10T06:41:22.000Z</time>
      </trkpt>
      <trkpt lat="37.953026136383414" lon="23.736945781856775">
        <ele>99.2</ele>
        <time>2021-04-10T06:41:27.000Z</time>
      </trkpt>
      <trkpt lat="37.95295053161681" lon="23.736970257014036">
        <ele>99</ele>
        <time>2021-04-10T06:41:32.000Z</time>
      </trkpt>
      <trkpt lat="37.95291063375771" lon="23.736985009163618">
        <ele>99.2</ele>
        <time>2021-04-10T06:41:35.000Z</time>
      </trkpt>
      <trkpt lat="37.95286922715604" lon="23.73698702082038">
        <ele>99.2</ele>
        <time>2021-04-10T06:41:38.000Z</time>
      </trkpt>
      <trkpt lat="37.952819438651204" lon="23.737001605331898">
        <ele>99.8</ele>
        <time>2021-04-10T06:41:41.000Z</time>
      </trkpt>
      <trkpt lat="37.95276830904186" lon="23.73701141215861">
        <ele>101</ele>
        <time>2021-04-10T06:41:44.000Z</time>
      </trkpt>
      <trkpt lat="37.95275866985321" lon="23.73701929114759">
        <ele>101</ele>
        <time>2021-04-10T06:41:45.000Z</time>
      </trkpt>
      <trkpt lat="37.9527004994452" lon="23.737083161249757">
        <ele>100.8</ele>
        <time>2021-04-10T06:41:50.000Z</time>
      </trkpt>
      <trkpt lat="37.95269010588527" lon="23.737083915621042">
        <ele>101</ele>
        <time>2021-04-10T06:41:51.000Z</time>
      </trkpt>
      <trkpt lat="37.95267669484019" lon="23.737079724669456">
        <ele>101</ele>
        <time>2021-04-10T06:41:52.000Z</time>
      </trkpt>
      <trkpt lat="37.95258524827659" lon="23.737084921449423">
        <ele>101</ele>
        <time>2021-04-10T06:41:59.000Z</time>
      </trkpt>
      <trkpt lat="37.952477876096964" lon="23.737111324444413">
        <ele>101.4</ele>
        <time>2021-04-10T06:42:07.000Z</time>
      </trkpt>
      <trkpt lat="37.95246412977576" lon="23.737119622528553">
        <ele>101.4</ele>
        <time>2021-04-10T06:42:08.000Z</time>
      </trkpt>
      <trkpt lat="37.9524243157357" lon="23.73713311739266">
        <ele>101.6</ele>
        <time>2021-04-10T06:42:12.000Z</time>
      </trkpt>
      <trkpt lat="37.95240671373904" lon="23.737156502902508">
        <ele>101.8</ele>
        <time>2021-04-10T06:42:14.000Z</time>
      </trkpt>
      <trkpt lat="37.95239414088428" lon="23.737167650833726">
        <ele>102</ele>
        <time>2021-04-10T06:42:15.000Z</time>
      </trkpt>
      <trkpt lat="37.952373353764415" lon="23.737180726602674">
        <ele>102.2</ele>
        <time>2021-04-10T06:42:17.000Z</time>
      </trkpt>
      <trkpt lat="37.952336221933365" lon="23.73722506687045">
        <ele>102</ele>
        <time>2021-04-10T06:42:20.000Z</time>
      </trkpt>
      <trkpt lat="37.95230571180582" lon="23.737281393259764">
        <ele>101.6</ele>
        <time>2021-04-10T06:42:26.000Z</time>
      </trkpt>
      <trkpt lat="37.95230269432068" lon="23.737286757677794">
        <ele>101.6</ele>
        <time>2021-04-10T06:42:27.000Z</time>
      </trkpt>
      <trkpt lat="37.9523275885731" lon="23.73733453452587">
        <ele>101.8</ele>
        <time>2021-04-10T06:42:32.000Z</time>
      </trkpt>
      <trkpt lat="37.95233295299113" lon="23.73734325170517">
        <ele>101.8</ele>
        <time>2021-04-10T06:42:33.000Z</time>
      </trkpt>
      <trkpt lat="37.952359691262245" lon="23.73745808377862">
        <ele>101.8</ele>
        <time>2021-04-10T06:42:41.000Z</time>
      </trkpt>
      <trkpt lat="37.952390536665916" lon="23.737546345219016">
        <ele>102.4</ele>
        <time>2021-04-10T06:42:48.000Z</time>
      </trkpt>
      <trkpt lat="37.95239347033203" lon="23.737561348825693">
        <ele>102.4</ele>
        <time>2021-04-10T06:42:49.000Z</time>
      </trkpt>
      <trkpt lat="37.95239808037877" lon="23.737576939165592">
        <ele>102.4</ele>
        <time>2021-04-10T06:42:50.000Z</time>
      </trkpt>
      <trkpt lat="37.952439319342375" lon="23.737612729892135">
        <ele>102.6</ele>
        <time>2021-04-10T06:42:54.000Z</time>
      </trkpt>
      <trkpt lat="37.9524502158165" lon="23.737621614709496">
        <ele>102.6</ele>
        <time>2021-04-10T06:42:55.000Z</time>
      </trkpt>
      <trkpt lat="37.95245239511132" lon="23.73763552866876">
        <ele>102.6</ele>
        <time>2021-04-10T06:42:56.000Z</time>
      </trkpt>
      <trkpt lat="37.95246270485222" lon="23.73769017867744">
        <ele>103</ele>
        <time>2021-04-10T06:43:00.000Z</time>
      </trkpt>
      <trkpt lat="37.9524655546993" lon="23.737704763188958">
        <ele>103.2</ele>
        <time>2021-04-10T06:43:01.000Z</time>
      </trkpt>
      <trkpt lat="37.95246848836541" lon="23.737720185890794">
        <ele>103.4</ele>
        <time>2021-04-10T06:43:02.000Z</time>
      </trkpt>
      <trkpt lat="37.95248022302985" lon="23.737856559455395">
        <ele>104.2</ele>
        <time>2021-04-10T06:43:10.000Z</time>
      </trkpt>
      <trkpt lat="37.95248466543853" lon="23.737894194200635">
        <ele>104.2</ele>
        <time>2021-04-10T06:43:12.000Z</time>
      </trkpt>
      <trkpt lat="37.95248391106725" lon="23.73799360357225">
        <ele>104.6</ele>
        <time>2021-04-10T06:43:18.000Z</time>
      </trkpt>
      <trkpt lat="37.95248315669596" lon="23.73803467489779">
        <ele>104.8</ele>
        <time>2021-04-10T06:43:20.000Z</time>
      </trkpt>
      <trkpt lat="37.95249581336975" lon="23.738098880276084">
        <ele>105</ele>
        <time>2021-04-10T06:43:24.000Z</time>
      </trkpt>
      <trkpt lat="37.95249924995005" lon="23.738153781741858">
        <ele>104.8</ele>
        <time>2021-04-10T06:43:27.000Z</time>
      </trkpt>
      <trkpt lat="37.952497405931354" lon="23.738170629367232">
        <ele>104.8</ele>
        <time>2021-04-10T06:43:28.000Z</time>
      </trkpt>
      <trkpt lat="37.95249220915139" lon="23.738206503912807">
        <ele>104.6</ele>
        <time>2021-04-10T06:43:30.000Z</time>
      </trkpt>
      <trkpt lat="37.952486760914326" lon="23.738277330994606">
        <ele>104.6</ele>
        <time>2021-04-10T06:43:34.000Z</time>
      </trkpt>
      <trkpt lat="37.952475445345044" lon="23.738328628242016">
        <ele>104.8</ele>
        <time>2021-04-10T06:43:37.000Z</time>
      </trkpt>
      <trkpt lat="37.95246999710798" lon="23.738348660990596">
        <ele>104.8</ele>
        <time>2021-04-10T06:43:38.000Z</time>
      </trkpt>
      <trkpt lat="37.95245407149196" lon="23.73841823078692">
        <ele>104.8</ele>
        <time>2021-04-10T06:43:42.000Z</time>
      </trkpt>
      <trkpt lat="37.95245465822518" lon="23.738440107554197">
        <ele>104.8</ele>
        <time>2021-04-10T06:43:43.000Z</time>
      </trkpt>
      <trkpt lat="37.952457340434194" lon="23.738472126424313">
        <ele>104.8</ele>
        <time>2021-04-10T06:43:45.000Z</time>
      </trkpt>
      <trkpt lat="37.95245968736708" lon="23.738489393144846">
        <ele>104.8</ele>
        <time>2021-04-10T06:43:46.000Z</time>
      </trkpt>
      <trkpt lat="37.95247091911733" lon="23.738541025668383">
        <ele>104.8</ele>
        <time>2021-04-10T06:43:49.000Z</time>
      </trkpt>
      <trkpt lat="37.95246010646224" lon="23.738649068400264">
        <ele>104.4</ele>
        <time>2021-04-10T06:43:55.000Z</time>
      </trkpt>
      <trkpt lat="37.95243864879012" lon="23.73868159018457">
        <ele>104.6</ele>
        <time>2021-04-10T06:43:56.000Z</time>
      </trkpt>
      <trkpt lat="37.95241710729897" lon="23.73870019800961">
        <ele>104.8</ele>
        <time>2021-04-10T06:44:01.000Z</time>
      </trkpt>
      <trkpt lat="37.95239665545523" lon="23.73871184885502">
        <ele>104</ele>
        <time>2021-04-10T06:44:08.000Z</time>
      </trkpt>
      <trkpt lat="37.95238592661917" lon="23.738719727844">
        <ele>104.2</ele>
        <time>2021-04-10T06:44:16.000Z</time>
      </trkpt>
      <trkpt lat="37.95240914449096" lon="23.738741520792246">
        <ele>104.2</ele>
        <time>2021-04-10T06:44:19.000Z</time>
      </trkpt>
      <trkpt lat="37.95237813144922" lon="23.738767253234982">
        <ele>104.2</ele>
        <time>2021-04-10T06:44:25.000Z</time>
      </trkpt>
      <trkpt lat="37.95237176120281" lon="23.73878275975585">
        <ele>104.2</ele>
        <time>2021-04-10T06:44:27.000Z</time>
      </trkpt>
      <trkpt lat="37.95238542370498" lon="23.738820562139153">
        <ele>104</ele>
        <time>2021-04-10T06:44:33.000Z</time>
      </trkpt>
      <trkpt lat="37.95239372178912" lon="23.738822992891073">
        <ele>104</ele>
        <time>2021-04-10T06:44:34.000Z</time>
      </trkpt>
      <trkpt lat="37.952401265501976" lon="23.738829530775547">
        <ele>104</ele>
        <time>2021-04-10T06:44:35.000Z</time>
      </trkpt>
      <trkpt lat="37.952443677932024" lon="23.738909410312772">
        <ele>104.2</ele>
        <time>2021-04-10T06:44:40.000Z</time>
      </trkpt>
      <trkpt lat="37.95245029963553" lon="23.738928018137813">
        <ele>104.2</ele>
        <time>2021-04-10T06:44:41.000Z</time>
      </trkpt>
      <trkpt lat="37.952457340434194" lon="23.738995660096407">
        <ele>104.4</ele>
        <time>2021-04-10T06:44:46.000Z</time>
      </trkpt>
      <trkpt lat="37.952475445345044" lon="23.73901820741594">
        <ele>104.4</ele>
        <time>2021-04-10T06:44:48.000Z</time>
      </trkpt>
      <trkpt lat="37.95249908231199" lon="23.73907537199557">
        <ele>104.4</ele>
        <time>2021-04-10T06:44:52.000Z</time>
      </trkpt>
      <trkpt lat="37.95249237678945" lon="23.739095656201243">
        <ele>104.4</ele>
        <time>2021-04-10T06:44:54.000Z</time>
      </trkpt>
      <trkpt lat="37.95247527770698" lon="23.739134799689054">
        <ele>104.4</ele>
        <time>2021-04-10T06:44:56.000Z</time>
      </trkpt>
      <trkpt lat="37.95245717279613" lon="23.73920202255249">
        <ele>104.2</ele>
        <time>2021-04-10T06:44:59.000Z</time>
      </trkpt>
      <trkpt lat="37.952442253008485" lon="23.739241836592555">
        <ele>104.2</ele>
        <time>2021-04-10T06:45:01.000Z</time>
      </trkpt>
      <trkpt lat="37.95240813866258" lon="23.73928843997419">
        <ele>104.2</ele>
        <time>2021-04-10T06:45:05.000Z</time>
      </trkpt>
      <trkpt lat="37.95239330269396" lon="23.739319453015924">
        <ele>104.2</ele>
        <time>2021-04-10T06:45:07.000Z</time>
      </trkpt>
      <trkpt lat="37.95236773788929" lon="23.73935650102794">
        <ele>104.4</ele>
        <time>2021-04-10T06:45:11.000Z</time>
      </trkpt>
      <trkpt lat="37.95236480422318" lon="23.73935976997018">
        <ele>104.2</ele>
        <time>2021-04-10T06:45:12.000Z</time>
      </trkpt>
      <trkpt lat="37.95235977508128" lon="23.739358680322766">
        <ele>104.2</ele>
        <time>2021-04-10T06:45:14.000Z</time>
      </trkpt>
      <trkpt lat="37.9523532371968" lon="23.739367229864">
        <ele>104.2</ele>
        <time>2021-04-10T06:45:18.000Z</time>
      </trkpt>
      <trkpt lat="37.95234879478812" lon="23.73937360011041">
        <ele>103.6</ele>
        <time>2021-04-10T06:45:22.000Z</time>
      </trkpt>
      <trkpt lat="37.95234611257911" lon="23.739371923729777">
        <ele>103.4</ele>
        <time>2021-04-10T06:45:23.000Z</time>
      </trkpt>
      <trkpt lat="37.95234384946525" lon="23.739374689757824">
        <ele>103.4</ele>
        <time>2021-04-10T06:45:24.000Z</time>
      </trkpt>
      <trkpt lat="37.952343095093966" lon="23.739376114681363">
        <ele>103.4</ele>
        <time>2021-04-10T06:45:25.000Z</time>
      </trkpt>
      <trkpt lat="37.95233923941851" lon="23.739377204328775">
        <ele>103.4</ele>
        <time>2021-04-10T06:45:26.000Z</time>
      </trkpt>
      <trkpt lat="37.95232473872602" lon="23.739381730556488">
        <ele>103.4</ele>
        <time>2021-04-10T06:45:28.000Z</time>
      </trkpt>
      <trkpt lat="37.95231652446091" lon="23.739396315068007">
        <ele>103.4</ele>
        <time>2021-04-10T06:45:35.000Z</time>
      </trkpt>
      <trkpt lat="37.9523257445544" lon="23.739383909851313">
        <ele>103.4</ele>
        <time>2021-04-10T06:45:40.000Z</time>
      </trkpt>
      <trkpt lat="37.95233194716275" lon="23.739377539604902">
        <ele>103.4</ele>
        <time>2021-04-10T06:45:44.000Z</time>
      </trkpt>
      <trkpt lat="37.95232507400215" lon="23.739418359473348">
        <ele>103.4</ele>
        <time>2021-04-10T06:45:50.000Z</time>
      </trkpt>
      <trkpt lat="37.95227528549731" lon="23.739488683640957">
        <ele>103.4</ele>
        <time>2021-04-10T06:45:55.000Z</time>
      </trkpt>
      <trkpt lat="37.95221493579447" lon="23.73955230228603">
        <ele>104</ele>
        <time>2021-04-10T06:46:01.000Z</time>
      </trkpt>
      <trkpt lat="37.95221426524222" lon="23.73955481685698">
        <ele>104.2</ele>
        <time>2021-04-10T06:46:02.000Z</time>
      </trkpt>
      <trkpt lat="37.95222013257444" lon="23.739557918161154">
        <ele>104.6</ele>
        <time>2021-04-10T06:46:05.000Z</time>
      </trkpt>
      <trkpt lat="37.952220384031534" lon="23.73954995535314">
        <ele>104.4</ele>
        <time>2021-04-10T06:46:07.000Z</time>
      </trkpt>
      <trkpt lat="37.952171517536044" lon="23.73952698893845">
        <ele>104.4</ele>
        <time>2021-04-10T06:46:13.000Z</time>
      </trkpt>
      <trkpt lat="37.9521618783474" lon="23.73953629285097">
        <ele>104.4</ele>
        <time>2021-04-10T06:46:14.000Z</time>
      </trkpt>
      <trkpt lat="37.95208040624857" lon="23.7395797111094">
        <ele>104.4</ele>
        <time>2021-04-10T06:46:21.000Z</time>
      </trkpt>
      <trkpt lat="37.95204377733171" lon="23.73958700336516">
        <ele>104.8</ele>
        <time>2021-04-10T06:46:25.000Z</time>
      </trkpt>
      <trkpt lat="37.952034808695316" lon="23.73959831893444">
        <ele>105</ele>
        <time>2021-04-10T06:46:27.000Z</time>
      </trkpt>
      <trkpt lat="37.95202424749732" lon="23.739614244550467">
        <ele>105</ele>
        <time>2021-04-10T06:46:28.000Z</time>
      </trkpt>
      <trkpt lat="37.951929196715355" lon="23.739683479070663">
        <ele>105</ele>
        <time>2021-04-10T06:46:36.000Z</time>
      </trkpt>
      <trkpt lat="37.951892986893654" lon="23.73970284126699">
        <ele>105.4</ele>
        <time>2021-04-10T06:46:40.000Z</time>
      </trkpt>
      <trkpt lat="37.9518579505384" lon="23.739713989198208">
        <ele>105.6</ele>
        <time>2021-04-10T06:46:43.000Z</time>
      </trkpt>
      <trkpt lat="37.951818220317364" lon="23.73971113935113">
        <ele>105.8</ele>
        <time>2021-04-10T06:46:46.000Z</time>
      </trkpt>
      <trkpt lat="37.951770862564445" lon="23.73974919319153">
        <ele>106.2</ele>
        <time>2021-04-10T06:46:50.000Z</time>
      </trkpt>
      <trkpt lat="37.951743537560105" lon="23.739791689440608">
        <ele>105.2</ele>
        <time>2021-04-10T06:46:58.000Z</time>
      </trkpt>
      <trkpt lat="37.95175317674875" lon="23.739797305315733">
        <ele>105</ele>
        <time>2021-04-10T06:47:00.000Z</time>
      </trkpt>
      <trkpt lat="37.95177061110735" lon="23.739786576479673">
        <ele>105</ele>
        <time>2021-04-10T06:47:05.000Z</time>
      </trkpt>
      <trkpt lat="37.95178150758147" lon="23.73980149626732">
        <ele>105.4</ele>
        <time>2021-04-10T06:47:14.000Z</time>
      </trkpt>
      <trkpt lat="37.95178418979049" lon="23.73978741466999">
        <ele>105</ele>
        <time>2021-04-10T06:47:17.000Z</time>
      </trkpt>
      <trkpt lat="37.951773796230555" lon="23.739791689440608">
        <ele>104.8</ele>
        <time>2021-04-10T06:47:21.000Z</time>
      </trkpt>
      <trkpt lat="37.95177010819316" lon="23.739791437983513">
        <ele>104.8</ele>
        <time>2021-04-10T06:47:22.000Z</time>
      </trkpt>
      <trkpt lat="37.951767425984144" lon="23.73979269526899">
        <ele>104.8</ele>
        <time>2021-04-10T06:47:23.000Z</time>
      </trkpt>
      <trkpt lat="37.95175745151937" lon="23.739806693047285">
        <ele>105</ele>
        <time>2021-04-10T06:47:31.000Z</time>
      </trkpt>
      <trkpt lat="37.951759630814195" lon="23.73980744741857">
        <ele>105</ele>
        <time>2021-04-10T06:47:33.000Z</time>
      </trkpt>
      <trkpt lat="37.951759714633226" lon="23.73981038108468">
        <ele>105.4</ele>
        <time>2021-04-10T06:47:35.000Z</time>
      </trkpt>
      <trkpt lat="37.951766420155764" lon="23.73980543576181">
        <ele>105.6</ele>
        <time>2021-04-10T06:47:40.000Z</time>
      </trkpt>
      <trkpt lat="37.951770946383476" lon="23.73980350792408">
        <ele>105.6</ele>
        <time>2021-04-10T06:47:41.000Z</time>
      </trkpt>
      <trkpt lat="37.95180832967162" lon="23.739803675562143">
        <ele>105.2</ele>
        <time>2021-04-10T06:47:49.000Z</time>
      </trkpt>
      <trkpt lat="37.95181402936578" lon="23.739792946726084">
        <ele>105.2</ele>
        <time>2021-04-10T06:47:53.000Z</time>
      </trkpt>
      <trkpt lat="37.951763989403844" lon="23.739802921190858">
        <ele>104.8</ele>
        <time>2021-04-10T06:47:58.000Z</time>
      </trkpt>
      <trkpt lat="37.951720990240574" lon="23.739841729402542">
        <ele>105</ele>
        <time>2021-04-10T06:48:03.000Z</time>
      </trkpt>
      <trkpt lat="37.95161806046963" lon="23.739897720515728">
        <ele>105.8</ele>
        <time>2021-04-10T06:48:09.000Z</time>
      </trkpt>
      <trkpt lat="37.951536336913705" lon="23.73997701331973">
        <ele>105.4</ele>
        <time>2021-04-10T06:48:17.000Z</time>
      </trkpt>
      <trkpt lat="37.951531978324056" lon="23.739984054118395">
        <ele>105.6</ele>
        <time>2021-04-10T06:48:18.000Z</time>
      </trkpt>
      <trkpt lat="37.95152091421187" lon="23.74000727199018">
        <ele>105.6</ele>
        <time>2021-04-10T06:48:22.000Z</time>
      </trkpt>
      <trkpt lat="37.95151689089835" lon="23.74000425450504">
        <ele>105.6</ele>
        <time>2021-04-10T06:48:24.000Z</time>
      </trkpt>
      <trkpt lat="37.95152401551604" lon="23.740026047453284">
        <ele>105.6</ele>
        <time>2021-04-10T06:48:31.000Z</time>
      </trkpt>
      <trkpt lat="37.95151689089835" lon="23.740029903128743">
        <ele>105.6</ele>
        <time>2021-04-10T06:48:32.000Z</time>
      </trkpt>
      <trkpt lat="37.951428880915046" lon="23.74006887897849">
        <ele>105.6</ele>
        <time>2021-04-10T06:48:39.000Z</time>
      </trkpt>
      <trkpt lat="37.95137875713408" lon="23.74011036939919">
        <ele>105.4</ele>
        <time>2021-04-10T06:48:43.000Z</time>
      </trkpt>
      <trkpt lat="37.95137573964894" lon="23.740159822627902">
        <ele>105</ele>
        <time>2021-04-10T06:48:47.000Z</time>
      </trkpt>
      <trkpt lat="37.95138563029468" lon="23.74016116373241">
        <ele>105.2</ele>
        <time>2021-04-10T06:48:48.000Z</time>
      </trkpt>
      <trkpt lat="37.9514086805284" lon="23.740147165954113">
        <ele>105.2</ele>
        <time>2021-04-10T06:48:52.000Z</time>
      </trkpt>
      <trkpt lat="37.95143097639084" lon="23.74013191089034">
        <ele>105.2</ele>
        <time>2021-04-10T06:48:54.000Z</time>
      </trkpt>
      <trkpt lat="37.95140750706196" lon="23.74011338688433">
        <ele>105</ele>
        <time>2021-04-10T06:49:03.000Z</time>
      </trkpt>
      <trkpt lat="37.95143491588533" lon="23.74020173214376">
        <ele>105.4</ele>
        <time>2021-04-10T06:49:16.000Z</time>
      </trkpt>
      <trkpt lat="37.95131656341255" lon="23.740263087674975">
        <ele>105.2</ele>
        <time>2021-04-10T06:49:23.000Z</time>
      </trkpt>
      <trkpt lat="37.95130734331906" lon="23.7402652669698">
        <ele>105</ele>
        <time>2021-04-10T06:49:24.000Z</time>
      </trkpt>
      <trkpt lat="37.95130155980587" lon="23.74026912264526">
        <ele>104.8</ele>
        <time>2021-04-10T06:49:25.000Z</time>
      </trkpt>
      <trkpt lat="37.95130642130971" lon="23.740273313596845">
        <ele>105</ele>
        <time>2021-04-10T06:49:29.000Z</time>
      </trkpt>
      <trkpt lat="37.95137842185795" lon="23.740272726863623">
        <ele>104.8</ele>
        <time>2021-04-10T06:49:38.000Z</time>
      </trkpt>
      <trkpt lat="37.95128337107599" lon="23.740327209234238">
        <ele>104.8</ele>
        <time>2021-04-10T06:49:45.000Z</time>
      </trkpt>
      <trkpt lat="37.95127163641155" lon="23.740333914756775">
        <ele>104.8</ele>
        <time>2021-04-10T06:49:46.000Z</time>
      </trkpt>
      <trkpt lat="37.95122352428734" lon="23.740363754332066">
        <ele>104.8</ele>
        <time>2021-04-10T06:49:51.000Z</time>
      </trkpt>
      <trkpt lat="37.9512086044997" lon="23.740367610007524">
        <ele>104.8</ele>
        <time>2021-04-10T06:49:53.000Z</time>
      </trkpt>
      <trkpt lat="37.951193852350116" lon="23.740358976647258">
        <ele>104.8</ele>
        <time>2021-04-10T06:49:56.000Z</time>
      </trkpt>
      <trkpt lat="37.95119544491172" lon="23.74036341905594">
        <ele>104.8</ele>
        <time>2021-04-10T06:49:59.000Z</time>
      </trkpt>
      <trkpt lat="37.95120324008167" lon="23.740358892828226">
        <ele>105</ele>
        <time>2021-04-10T06:50:00.000Z</time>
      </trkpt>
      <trkpt lat="37.95123852789402" lon="23.74034740962088">
        <ele>105</ele>
        <time>2021-04-10T06:50:05.000Z</time>
      </trkpt>
      <trkpt lat="37.95124531723559" lon="23.74034933745861">
        <ele>105.4</ele>
        <time>2021-04-10T06:50:08.000Z</time>
      </trkpt>
      <trkpt lat="37.951248083263636" lon="23.740352019667625">
        <ele>105.4</ele>
        <time>2021-04-10T06:50:09.000Z</time>
      </trkpt>
      <trkpt lat="37.95123400166631" lon="23.740333998575807">
        <ele>104.8</ele>
        <time>2021-04-10T06:50:19.000Z</time>
      </trkpt>
      <trkpt lat="37.95121505856514" lon="23.74033131636679">
        <ele>104.8</ele>
        <time>2021-04-10T06:50:22.000Z</time>
      </trkpt>
      <trkpt lat="37.95120667666197" lon="23.74035126529634">
        <ele>104.8</ele>
        <time>2021-04-10T06:50:27.000Z</time>
      </trkpt>
      <trkpt lat="37.95120391063392" lon="23.7404000479728">
        <ele>104.6</ele>
        <time>2021-04-10T06:50:32.000Z</time>
      </trkpt>
      <trkpt lat="37.95123911462724" lon="23.74037121422589">
        <ele>104.6</ele>
        <time>2021-04-10T06:50:41.000Z</time>
      </trkpt>
      <trkpt lat="37.9512223508209" lon="23.74037029221654">
        <ele>104.6</ele>
        <time>2021-04-10T06:50:44.000Z</time>
      </trkpt>
      <trkpt lat="37.95120667666197" lon="23.740390995517373">
        <ele>104.6</ele>
        <time>2021-04-10T06:50:48.000Z</time>
      </trkpt>
      <trkpt lat="37.95120290480554" lon="23.74041387811303">
        <ele>104.8</ele>
        <time>2021-04-10T06:50:52.000Z</time>
      </trkpt>
      <trkpt lat="37.951202569529414" lon="23.740417398512363">
        <ele>105</ele>
        <time>2021-04-10T06:50:55.000Z</time>
      </trkpt>
      <trkpt lat="37.95120466500521" lon="23.740418991073966">
        <ele>105</ele>
        <time>2021-04-10T06:50:57.000Z</time>
      </trkpt>
      <trkpt lat="37.951193349435925" lon="23.74041086062789">
        <ele>104.8</ele>
        <time>2021-04-10T06:51:09.000Z</time>
      </trkpt>
      <trkpt lat="37.95120424591005" lon="23.740411112084985">
        <ele>104.8</ele>
        <time>2021-04-10T06:51:12.000Z</time>
      </trkpt>
      <trkpt lat="37.95121665112674" lon="23.74039174988866">
        <ele>104.8</ele>
        <time>2021-04-10T06:51:18.000Z</time>
      </trkpt>
      <trkpt lat="37.95124045573175" lon="23.740383284166455">
        <ele>104.6</ele>
        <time>2021-04-10T06:51:33.000Z</time>
      </trkpt>
      <trkpt lat="37.9512429703027" lon="23.740387139841914">
        <ele>104.6</ele>
        <time>2021-04-10T06:51:34.000Z</time>
      </trkpt>
      <trkpt lat="37.95123031362891" lon="23.74034497886896">
        <ele>105.2</ele>
        <time>2021-04-10T06:51:45.000Z</time>
      </trkpt>
      <trkpt lat="37.951194858178496" lon="23.74038345180452">
        <ele>104.2</ele>
        <time>2021-04-10T06:52:00.000Z</time>
      </trkpt>
      <trkpt lat="37.95119611546397" lon="23.74039677903056">
        <ele>104.2</ele>
        <time>2021-04-10T06:52:03.000Z</time>
      </trkpt>
      <trkpt lat="37.95119368471205" lon="23.740384876728058">
        <ele>104.2</ele>
        <time>2021-04-10T06:52:23.000Z</time>
      </trkpt>
      <trkpt lat="37.95120785012841" lon="23.740390660241246">
        <ele>104.2</ele>
        <time>2021-04-10T06:52:25.000Z</time>
      </trkpt>
      <trkpt lat="37.95122721232474" lon="23.740406082943082">
        <ele>104.2</ele>
        <time>2021-04-10T06:52:28.000Z</time>
      </trkpt>
      <trkpt lat="37.95123274438083" lon="23.740421840921044">
        <ele>104.2</ele>
        <time>2021-04-10T06:52:32.000Z</time>
      </trkpt>
      <trkpt lat="37.95121606439352" lon="23.7403775844723">
        <ele>104.2</ele>
        <time>2021-04-10T06:52:48.000Z</time>
      </trkpt>
      <trkpt lat="37.95122989453375" lon="23.740427121520042">
        <ele>104.2</ele>
        <time>2021-04-10T06:53:02.000Z</time>
      </trkpt>
      <trkpt lat="37.951188404113054" lon="23.74040943570435">
        <ele>104.2</ele>
        <time>2021-04-10T06:53:14.000Z</time>
      </trkpt>
      <trkpt lat="37.951185051351786" lon="23.740408178418875">
        <ele>104.2</ele>
        <time>2021-04-10T06:53:15.000Z</time>
      </trkpt>
      <trkpt lat="37.951183123514056" lon="23.74040700495243">
        <ele>104.2</ele>
        <time>2021-04-10T06:53:16.000Z</time>
      </trkpt>
      <trkpt lat="37.951179100200534" lon="23.7403982039541">
        <ele>104.2</ele>
        <time>2021-04-10T06:53:31.000Z</time>
      </trkpt>
      <trkpt lat="37.95118865557015" lon="23.740373393520713">
        <ele>104.2</ele>
        <time>2021-04-10T06:53:41.000Z</time>
      </trkpt>
      <trkpt lat="37.9511930141598" lon="23.74035470187664">
        <ele>104.2</ele>
        <time>2021-04-10T06:53:45.000Z</time>
      </trkpt>
      <trkpt lat="37.95119100250304" lon="23.74035076238215">
        <ele>104.2</ele>
        <time>2021-04-10T06:53:46.000Z</time>
      </trkpt>
      <trkpt lat="37.951182536780834" lon="23.740364257246256">
        <ele>104.2</ele>
        <time>2021-04-10T06:53:53.000Z</time>
      </trkpt>
      <trkpt lat="37.95119016431272" lon="23.74037674628198">
        <ele>104.2</ele>
        <time>2021-04-10T06:53:57.000Z</time>
      </trkpt>
      <trkpt lat="37.95121128670871" lon="23.740385714918375">
        <ele>104.2</ele>
        <time>2021-04-10T06:54:02.000Z</time>
      </trkpt>
      <trkpt lat="37.951208520680666" lon="23.740394515916705">
        <ele>104.2</ele>
        <time>2021-04-10T06:54:09.000Z</time>
      </trkpt>
      <trkpt lat="37.95122436247766" lon="23.740408597514033">
        <ele>104.2</ele>
        <time>2021-04-10T06:54:16.000Z</time>
      </trkpt>
      <trkpt lat="37.95123073272407" lon="23.740406166762114">
        <ele>104.2</ele>
        <time>2021-04-10T06:54:18.000Z</time>
      </trkpt>
      <trkpt lat="37.95122914016247" lon="23.740404658019543">
        <ele>104.2</ele>
        <time>2021-04-10T06:54:19.000Z</time>
      </trkpt>
      <trkpt lat="37.95122595503926" lon="23.740400802344084">
        <ele>104.2</ele>
        <time>2021-04-10T06:54:20.000Z</time>
      </trkpt>
      <trkpt lat="37.95121832750738" lon="23.74037280678749">
        <ele>104.2</ele>
        <time>2021-04-10T06:54:26.000Z</time>
      </trkpt>
      <trkpt lat="37.95122285373509" lon="23.740417482331395">
        <ele>104.2</ele>
        <time>2021-04-10T06:54:34.000Z</time>
      </trkpt>
      <trkpt lat="37.95122084207833" lon="23.740417063236237">
        <ele>104.2</ele>
        <time>2021-04-10T06:54:38.000Z</time>
      </trkpt>
      <trkpt lat="37.951167449355125" lon="23.74042309820652">
        <ele>104.2</ele>
        <time>2021-04-10T06:54:45.000Z</time>
      </trkpt>
      <trkpt lat="37.951133251190186" lon="23.740444807335734">
        <ele>104.2</ele>
        <time>2021-04-10T06:54:48.000Z</time>
      </trkpt>
      <trkpt lat="37.95111984014511" lon="23.740466935560107">
        <ele>104.2</ele>
        <time>2021-04-10T06:54:50.000Z</time>
      </trkpt>
      <trkpt lat="37.951078936457634" lon="23.740532649680972">
        <ele>104.4</ele>
        <time>2021-04-10T06:54:56.000Z</time>
      </trkpt>
      <trkpt lat="37.95106711797416" lon="23.740542540326715">
        <ele>104.4</ele>
        <time>2021-04-10T06:54:57.000Z</time>
      </trkpt>
      <trkpt lat="37.95105437748134" lon="23.740552263334394">
        <ele>104.6</ele>
        <time>2021-04-10T06:54:58.000Z</time>
      </trkpt>
      <trkpt lat="37.951043816283345" lon="23.740561986342072">
        <ele>104.6</ele>
        <time>2021-04-10T06:54:59.000Z</time>
      </trkpt>
      <trkpt lat="37.95102998614311" lon="23.740574475377798">
        <ele>105</ele>
        <time>2021-04-10T06:55:01.000Z</time>
      </trkpt>
      <trkpt lat="37.95102395117283" lon="23.740580175071955">
        <ele>105.2</ele>
        <time>2021-04-10T06:55:03.000Z</time>
      </trkpt>
      <trkpt lat="37.95102093368769" lon="23.740578666329384">
        <ele>105.2</ele>
        <time>2021-04-10T06:55:04.000Z</time>
      </trkpt>
      <trkpt lat="37.95100240968168" lon="23.740590987727046">
        <ele>105</ele>
        <time>2021-04-10T06:55:11.000Z</time>
      </trkpt>
      <trkpt lat="37.95100098475814" lon="23.74062091112137">
        <ele>105</ele>
        <time>2021-04-10T06:55:19.000Z</time>
      </trkpt>
      <trkpt lat="37.95099620707333" lon="23.740628706291318">
        <ele>105</ele>
        <time>2021-04-10T06:55:20.000Z</time>
      </trkpt>
      <trkpt lat="37.95097433030605" lon="23.74065527692437">
        <ele>105</ele>
        <time>2021-04-10T06:55:23.000Z</time>
      </trkpt>
      <trkpt lat="37.95094926841557" lon="23.74068846926093">
        <ele>105</ele>
        <time>2021-04-10T06:55:26.000Z</time>
      </trkpt>
      <trkpt lat="37.950875675305724" lon="23.740791734308004">
        <ele>104.8</ele>
        <time>2021-04-10T06:55:35.000Z</time>
      </trkpt>
      <trkpt lat="37.9508544690907" lon="23.740832889452577">
        <ele>105</ele>
        <time>2021-04-10T06:55:39.000Z</time>
      </trkpt>
      <trkpt lat="37.95083686709404" lon="23.740867087617517">
        <ele>105</ele>
        <time>2021-04-10T06:55:42.000Z</time>
      </trkpt>
      <trkpt lat="37.95081105083227" lon="23.740908494219184">
        <ele>105</ele>
        <time>2021-04-10T06:55:47.000Z</time>
      </trkpt>
      <trkpt lat="37.95080862008035" lon="23.740922743454576">
        <ele>105.2</ele>
        <time>2021-04-10T06:55:48.000Z</time>
      </trkpt>
      <trkpt lat="37.95080300420523" lon="23.74094596132636">
        <ele>105.2</ele>
        <time>2021-04-10T06:55:50.000Z</time>
      </trkpt>
      <trkpt lat="37.95077869668603" lon="23.741021398454905">
        <ele>105</ele>
        <time>2021-04-10T06:55:56.000Z</time>
      </trkpt>
      <trkpt lat="37.950779451057315" lon="23.741061547771096">
        <ele>105.2</ele>
        <time>2021-04-10T06:55:58.000Z</time>
      </trkpt>
      <trkpt lat="37.95079370029271" lon="23.741139248013496">
        <ele>105.2</ele>
        <time>2021-04-10T06:56:02.000Z</time>
      </trkpt>
      <trkpt lat="37.9507905151695" lon="23.74115257523954">
        <ele>105.2</ele>
        <time>2021-04-10T06:56:03.000Z</time>
      </trkpt>
      <trkpt lat="37.950761932879686" lon="23.741208650171757">
        <ele>105.2</ele>
        <time>2021-04-10T06:56:07.000Z</time>
      </trkpt>
      <trkpt lat="37.95075103640556" lon="23.741221139207482">
        <ele>105.2</ele>
        <time>2021-04-10T06:56:08.000Z</time>
      </trkpt>
      <trkpt lat="37.95069328509271" lon="23.74129917472601">
        <ele>106</ele>
        <time>2021-04-10T06:56:13.000Z</time>
      </trkpt>
      <trkpt lat="37.95068389736116" lon="23.741318536922336">
        <ele>106.2</ele>
        <time>2021-04-10T06:56:14.000Z</time>
      </trkpt>
      <trkpt lat="37.950669061392546" lon="23.741342006251216">
        <ele>106.2</ele>
        <time>2021-04-10T06:56:16.000Z</time>
      </trkpt>
      <trkpt lat="37.950628995895386" lon="23.741435296833515">
        <ele>106.4</ele>
        <time>2021-04-10T06:56:22.000Z</time>
      </trkpt>
      <trkpt lat="37.95062497258186" lon="23.74145600013435">
        <ele>106.4</ele>
        <time>2021-04-10T06:56:23.000Z</time>
      </trkpt>
      <trkpt lat="37.950593708083034" lon="23.74157862737775">
        <ele>107</ele>
        <time>2021-04-10T06:56:29.000Z</time>
      </trkpt>
      <trkpt lat="37.950577614828944" lon="23.741636462509632">
        <ele>107</ele>
        <time>2021-04-10T06:56:32.000Z</time>
      </trkpt>
      <trkpt lat="37.95056562870741" lon="23.741670912131667">
        <ele>107</ele>
        <time>2021-04-10T06:56:34.000Z</time>
      </trkpt>
      <trkpt lat="37.950558587908745" lon="23.741689771413803">
        <ele>107</ele>
        <time>2021-04-10T06:56:35.000Z</time>
      </trkpt>
      <trkpt lat="37.95054375194013" lon="23.74172086827457">
        <ele>107.2</ele>
        <time>2021-04-10T06:56:37.000Z</time>
      </trkpt>
      <trkpt lat="37.95053570531309" lon="23.74173511750996">
        <ele>107.2</ele>
        <time>2021-04-10T06:56:38.000Z</time>
      </trkpt>
      <trkpt lat="37.950445767492056" lon="23.7418591696769">
        <ele>107.2</ele>
        <time>2021-04-10T06:56:47.000Z</time>
      </trkpt>
      <trkpt lat="37.950426656752825" lon="23.74186168424785">
        <ele>107.2</ele>
        <time>2021-04-10T06:56:49.000Z</time>
      </trkpt>
      <trkpt lat="37.95041718520224" lon="23.741890266537666">
        <ele>107.4</ele>
        <time>2021-04-10T06:56:51.000Z</time>
      </trkpt>
      <trkpt lat="37.95042657293379" lon="23.741919603198767">
        <ele>107.6</ele>
        <time>2021-04-10T06:56:53.000Z</time>
      </trkpt>
      <trkpt lat="37.95046269893646" lon="23.741994788870215">
        <ele>107.8</ele>
        <time>2021-04-10T06:56:56.000Z</time>
      </trkpt>
      <trkpt lat="37.95045666396618" lon="23.742064107209444">
        <ele>108.2</ele>
        <time>2021-04-10T06:56:59.000Z</time>
      </trkpt>
      <trkpt lat="37.950444258749485" lon="23.742083804681897">
        <ele>108.4</ele>
        <time>2021-04-10T06:57:00.000Z</time>
      </trkpt>
      <trkpt lat="37.95037284493446" lon="23.742165779694915">
        <ele>109.2</ele>
        <time>2021-04-10T06:57:06.000Z</time>
      </trkpt>
      <trkpt lat="37.95036094263196" lon="23.7421752512455">
        <ele>109.2</ele>
        <time>2021-04-10T06:57:07.000Z</time>
      </trkpt>
      <trkpt lat="37.95035004615784" lon="23.74218698590994">
        <ele>108.8</ele>
        <time>2021-04-10T06:57:09.000Z</time>
      </trkpt>
      <trkpt lat="37.95031777583063" lon="23.742239708080888">
        <ele>108.8</ele>
        <time>2021-04-10T06:57:12.000Z</time>
      </trkpt>
      <trkpt lat="37.95024795457721" lon="23.742339285090566">
        <ele>108.4</ele>
        <time>2021-04-10T06:57:20.000Z</time>
      </trkpt>
      <trkpt lat="37.95022381469607" lon="23.742511700838804">
        <ele>109.4</ele>
        <time>2021-04-10T06:57:28.000Z</time>
      </trkpt>
      <trkpt lat="37.950222473591566" lon="23.742531314492226">
        <ele>109.4</ele>
        <time>2021-04-10T06:57:29.000Z</time>
      </trkpt>
      <trkpt lat="37.95018844306469" lon="23.742622761055827">
        <ele>110</ele>
        <time>2021-04-10T06:57:34.000Z</time>
      </trkpt>
      <trkpt lat="37.950175032019615" lon="23.742638435214758">
        <ele>110.2</ele>
        <time>2021-04-10T06:57:36.000Z</time>
      </trkpt>
      <trkpt lat="37.950159357860684" lon="23.742674477398396">
        <ele>110.6</ele>
        <time>2021-04-10T06:57:38.000Z</time>
      </trkpt>
      <trkpt lat="37.95012499205768" lon="23.742768187075853">
        <ele>111.4</ele>
        <time>2021-04-10T06:57:45.000Z</time>
      </trkpt>
      <trkpt lat="37.95008584856987" lon="23.742904057726264">
        <ele>110.6</ele>
        <time>2021-04-10T06:57:53.000Z</time>
      </trkpt>
      <trkpt lat="37.95007495209575" lon="23.7429332267493">
        <ele>110.6</ele>
        <time>2021-04-10T06:57:55.000Z</time>
      </trkpt>
      <trkpt lat="37.95006011612713" lon="23.7429712805897">
        <ele>110.6</ele>
        <time>2021-04-10T06:57:57.000Z</time>
      </trkpt>
      <trkpt lat="37.95004251413047" lon="23.74301193282008">
        <ele>110.6</ele>
        <time>2021-04-10T06:57:59.000Z</time>
      </trkpt>
      <trkpt lat="37.95003388077021" lon="23.74302743934095">
        <ele>110.8</ele>
        <time>2021-04-10T06:58:00.000Z</time>
      </trkpt>
      <trkpt lat="37.9500185418874" lon="23.74305828474462">
        <ele>110.8</ele>
        <time>2021-04-10T06:58:02.000Z</time>
      </trkpt>
      <trkpt lat="37.94997998513281" lon="23.743145540356636">
        <ele>111.2</ele>
        <time>2021-04-10T06:58:07.000Z</time>
      </trkpt>
      <trkpt lat="37.9499635566026" lon="23.743235813453794">
        <ele>111.4</ele>
        <time>2021-04-10T06:58:14.000Z</time>
      </trkpt>
      <trkpt lat="37.949958527460694" lon="23.743255846202374">
        <ele>111.6</ele>
        <time>2021-04-10T06:58:15.000Z</time>
      </trkpt>
      <trkpt lat="37.94994360767305" lon="23.74332902021706">
        <ele>112.6</ele>
        <time>2021-04-10T06:58:20.000Z</time>
      </trkpt>
      <trkpt lat="37.949944445863366" lon="23.743351735174656">
        <ele>112.8</ele>
        <time>2021-04-10T06:58:21.000Z</time>
      </trkpt>
      <trkpt lat="37.94992499984801" lon="23.74340420588851">
        <ele>113.2</ele>
        <time>2021-04-10T06:58:24.000Z</time>
      </trkpt>
      <trkpt lat="37.94990706257522" lon="23.74343739822507">
        <ele>113.2</ele>
        <time>2021-04-10T06:58:26.000Z</time>
      </trkpt>
      <trkpt lat="37.949860375374556" lon="23.743515349924564">
        <ele>113.2</ele>
        <time>2021-04-10T06:58:32.000Z</time>
      </trkpt>
      <trkpt lat="37.9498425219208" lon="23.743534879758954">
        <ele>113.6</ele>
        <time>2021-04-10T06:58:34.000Z</time>
      </trkpt>
      <trkpt lat="37.94983388856053" lon="23.743551978841424">
        <ele>113.6</ele>
        <time>2021-04-10T06:58:35.000Z</time>
      </trkpt>
      <trkpt lat="37.9498150292784" lon="23.743583913892508">
        <ele>113.8</ele>
        <time>2021-04-10T06:58:37.000Z</time>
      </trkpt>
      <trkpt lat="37.949784100055695" lon="23.74360805377364">
        <ele>114</ele>
        <time>2021-04-10T06:58:40.000Z</time>
      </trkpt>
      <trkpt lat="37.94975903816521" lon="23.74364024028182">
        <ele>114.6</ele>
        <time>2021-04-10T06:58:42.000Z</time>
      </trkpt>
      <trkpt lat="37.94974721968174" lon="23.743656249716878">
        <ele>114.8</ele>
        <time>2021-04-10T06:58:43.000Z</time>
      </trkpt>
      <trkpt lat="37.94971687719226" lon="23.74369396828115">
        <ele>115</ele>
        <time>2021-04-10T06:58:46.000Z</time>
      </trkpt>
      <trkpt lat="37.949693743139505" lon="23.743833526968956">
        <ele>115.4</ele>
        <time>2021-04-10T06:58:54.000Z</time>
      </trkpt>
      <trkpt lat="37.94968762435019" lon="23.74389731325209">
        <ele>115.8</ele>
        <time>2021-04-10T06:58:58.000Z</time>
      </trkpt>
      <trkpt lat="37.94967790134251" lon="23.74393193051219">
        <ele>115.8</ele>
        <time>2021-04-10T06:59:00.000Z</time>
      </trkpt>
      <trkpt lat="37.94965258799493" lon="23.744010301306844">
        <ele>116.2</ele>
        <time>2021-04-10T06:59:05.000Z</time>
      </trkpt>
      <trkpt lat="37.949643367901444" lon="23.744032345712185">
        <ele>116.2</ele>
        <time>2021-04-10T06:59:07.000Z</time>
      </trkpt>
      <trkpt lat="37.949636075645685" lon="23.744046511128545">
        <ele>116.2</ele>
        <time>2021-04-10T06:59:09.000Z</time>
      </trkpt>
      <trkpt lat="37.94963540509343" lon="23.74404978007078">
        <ele>116.2</ele>
        <time>2021-04-10T06:59:10.000Z</time>
      </trkpt>
      <trkpt lat="37.94963431544602" lon="23.744070567190647">
        <ele>116.2</ele>
        <time>2021-04-10T06:59:13.000Z</time>
      </trkpt>
      <trkpt lat="37.949631717056036" lon="23.744079871103168">
        <ele>116.2</ele>
        <time>2021-04-10T06:59:14.000Z</time>
      </trkpt>
      <trkpt lat="37.94959232211113" lon="23.744150614365935">
        <ele>116.2</ele>
        <time>2021-04-10T06:59:19.000Z</time>
      </trkpt>
      <trkpt lat="37.94956709258258" lon="23.744163690134883">
        <ele>116.4</ele>
        <time>2021-04-10T06:59:21.000Z</time>
      </trkpt>
      <trkpt lat="37.949552508071065" lon="23.74420308507979">
        <ele>116.8</ele>
        <time>2021-04-10T06:59:25.000Z</time>
      </trkpt>
      <trkpt lat="37.94955334626138" lon="23.74425639398396">
        <ele>117.2</ele>
        <time>2021-04-10T06:59:28.000Z</time>
      </trkpt>
      <trkpt lat="37.94954630546272" lon="23.744297213852406">
        <ele>117.6</ele>
        <time>2021-04-10T06:59:30.000Z</time>
      </trkpt>
      <trkpt lat="37.94952526688576" lon="23.744348092004657">
        <ele>117.8</ele>
        <time>2021-04-10T06:59:33.000Z</time>
      </trkpt>
      <trkpt lat="37.949518309906125" lon="23.74436150304973">
        <ele>117.8</ele>
        <time>2021-04-10T06:59:34.000Z</time>
      </trkpt>
      <trkpt lat="37.94950431212783" lon="23.7443820387125">
        <ele>117.8</ele>
        <time>2021-04-10T06:59:36.000Z</time>
      </trkpt>
      <trkpt lat="37.9494558647275" lon="23.744474491104484">
        <ele>118.2</ele>
        <time>2021-04-10T06:59:43.000Z</time>
      </trkpt>
      <trkpt lat="37.949394676834345" lon="23.744551185518503">
        <ele>119</ele>
        <time>2021-04-10T06:59:50.000Z</time>
      </trkpt>
      <trkpt lat="37.949348827824" lon="23.74463550746441">
        <ele>119.2</ele>
        <time>2021-04-10T06:59:57.000Z</time>
      </trkpt>
      <trkpt lat="37.9493485763669" lon="23.744643051177263">
        <ele>119.2</ele>
        <time>2021-04-10T06:59:58.000Z</time>
      </trkpt>
      <trkpt lat="37.94935519807041" lon="23.74467372894287">
        <ele>119.4</ele>
        <time>2021-04-10T07:00:01.000Z</time>
      </trkpt>
      <trkpt lat="37.949377577751875" lon="23.74470591545105">
        <ele>119.4</ele>
        <time>2021-04-10T07:00:04.000Z</time>
      </trkpt>
      <trkpt lat="37.9493916593492" lon="23.744715303182602">
        <ele>119.4</ele>
        <time>2021-04-10T07:00:05.000Z</time>
      </trkpt>
      <trkpt lat="37.949441112577915" lon="23.744747573509812">
        <ele>119.6</ele>
        <time>2021-04-10T07:00:09.000Z</time>
      </trkpt>
      <trkpt lat="37.949467934668064" lon="23.744759391993284">
        <ele>119.6</ele>
        <time>2021-04-10T07:00:12.000Z</time>
      </trkpt>
      <trkpt lat="37.94956298545003" lon="23.744828458875418">
        <ele>118.8</ele>
        <time>2021-04-10T07:00:21.000Z</time>
      </trkpt>
      <trkpt lat="37.9496181383729" lon="23.744850670918822">
        <ele>119</ele>
        <time>2021-04-10T07:00:24.000Z</time>
      </trkpt>
      <trkpt lat="37.9496802482754" lon="23.744881935417652">
        <ele>119</ele>
        <time>2021-04-10T07:00:28.000Z</time>
      </trkpt>
      <trkpt lat="37.94977647252381" lon="23.744994923472404">
        <ele>119</ele>
        <time>2021-04-10T07:00:36.000Z</time>
      </trkpt>
      <trkpt lat="37.94982894323766" lon="23.745035491883755">
        <ele>118.4</ele>
        <time>2021-04-10T07:00:42.000Z</time>
      </trkpt>
      <trkpt lat="37.949819304049015" lon="23.745042281225324">
        <ele>118.6</ele>
        <time>2021-04-10T07:00:46.000Z</time>
      </trkpt>
      <trkpt lat="37.949812933802605" lon="23.745034150779247">
        <ele>119</ele>
        <time>2021-04-10T07:00:48.000Z</time>
      </trkpt>
      <trkpt lat="37.94981058686972" lon="23.74502995982766">
        <ele>119.6</ele>
        <time>2021-04-10T07:00:51.000Z</time>
      </trkpt>
      <trkpt lat="37.94980932958424" lon="23.745032474398613">
        <ele>119.6</ele>
        <time>2021-04-10T07:00:52.000Z</time>
      </trkpt>
      <trkpt lat="37.94980488717556" lon="23.745030630379915">
        <ele>119.8</ele>
        <time>2021-04-10T07:00:55.000Z</time>
      </trkpt>
      <trkpt lat="37.94977161101997" lon="23.744972376152873">
        <ele>119.8</ele>
        <time>2021-04-10T07:01:01.000Z</time>
      </trkpt>
      <trkpt lat="37.94979114085436" lon="23.744920659810305">
        <ele>119.6</ele>
        <time>2021-04-10T07:01:04.000Z</time>
      </trkpt>
      <trkpt lat="37.949823243543506" lon="23.7448344938457">
        <ele>119.4</ele>
        <time>2021-04-10T07:01:08.000Z</time>
      </trkpt>
      <trkpt lat="37.94984830543399" lon="23.744806414470077">
        <ele>119.2</ele>
        <time>2021-04-10T07:01:10.000Z</time>
      </trkpt>
      <trkpt lat="37.94998015277088" lon="23.744806749746203">
        <ele>118.8</ele>
        <time>2021-04-10T07:01:15.000Z</time>
      </trkpt>
      <trkpt lat="37.95002273283899" lon="23.744824519380927">
        <ele>118.6</ele>
        <time>2021-04-10T07:01:16.000Z</time>
      </trkpt>
      <trkpt lat="37.95007461681962" lon="23.744844049215317">
        <ele>118</ele>
        <time>2021-04-10T07:01:18.000Z</time>
      </trkpt>
      <trkpt lat="37.950091967359185" lon="23.744855616241693">
        <ele>118</ele>
        <time>2021-04-10T07:01:19.000Z</time>
      </trkpt>
      <trkpt lat="37.950113005936146" lon="23.744875648990273">
        <ele>117.6</ele>
        <time>2021-04-10T07:01:21.000Z</time>
      </trkpt>
      <trkpt lat="37.950115939602256" lon="23.74487791210413">
        <ele>117.4</ele>
        <time>2021-04-10T07:01:23.000Z</time>
      </trkpt>
      <trkpt lat="37.95011317357421" lon="23.744882857427">
        <ele>117.6</ele>
        <time>2021-04-10T07:01:24.000Z</time>
      </trkpt>
      <trkpt lat="37.95010454021394" lon="23.744890904054046">
        <ele>117.8</ele>
        <time>2021-04-10T07:01:26.000Z</time>
      </trkpt>
      <trkpt lat="37.95009900815785" lon="23.74489945359528">
        <ele>119.2</ele>
        <time>2021-04-10T07:01:28.000Z</time>
      </trkpt>
      <trkpt lat="37.95009179972112" lon="23.74490087851882">
        <ele>119.4</ele>
        <time>2021-04-10T07:01:31.000Z</time>
      </trkpt>
      <trkpt lat="37.95009129680693" lon="23.744904650375247">
        <ele>119.4</ele>
        <time>2021-04-10T07:01:32.000Z</time>
      </trkpt>
      <trkpt lat="37.95008886605501" lon="23.744904566556215">
        <ele>119.4</ele>
        <time>2021-04-10T07:01:33.000Z</time>
      </trkpt>
      <trkpt lat="37.95008911751211" lon="23.74490238726139">
        <ele>119.4</ele>
        <time>2021-04-10T07:01:35.000Z</time>
      </trkpt>
      <trkpt lat="37.950118789449334" lon="23.744826782494783">
        <ele>119.4</ele>
        <time>2021-04-10T07:01:39.000Z</time>
      </trkpt>
      <trkpt lat="37.95011661015451" lon="23.74482510611415">
        <ele>119.4</ele>
        <time>2021-04-10T07:01:43.000Z</time>
      </trkpt>
      <trkpt lat="37.950102277100086" lon="23.74485452659428">
        <ele>119.4</ele>
        <time>2021-04-10T07:01:46.000Z</time>
      </trkpt>
      <trkpt lat="37.95008450746536" lon="23.74489559791982">
        <ele>119.4</ele>
        <time>2021-04-10T07:01:54.000Z</time>
      </trkpt>
      <trkpt lat="37.95006237924099" lon="23.744928874075413">
        <ele>119.4</ele>
        <time>2021-04-10T07:02:00.000Z</time>
      </trkpt>
      <trkpt lat="37.95005248859525" lon="23.744945051148534">
        <ele>119.4</ele>
        <time>2021-04-10T07:02:06.000Z</time>
      </trkpt>
      <trkpt lat="37.95004477724433" lon="23.744945721700788">
        <ele>119.4</ele>
        <time>2021-04-10T07:02:08.000Z</time>
      </trkpt>
      <trkpt lat="37.95002030208707" lon="23.744917809963226">
        <ele>119.4</ele>
        <time>2021-04-10T07:02:14.000Z</time>
      </trkpt>
      <trkpt lat="37.950030695647" lon="23.745058625936508">
        <ele>119.4</ele>
        <time>2021-04-10T07:02:19.000Z</time>
      </trkpt>
      <trkpt lat="37.949975123628974" lon="23.744755368679762">
        <ele>119.4</ele>
        <time>2021-04-10T07:02:30.000Z</time>
      </trkpt>
      <trkpt lat="37.94997395016253" lon="23.74474598094821">
        <ele>119.4</ele>
        <time>2021-04-10T07:02:31.000Z</time>
      </trkpt>
      <trkpt lat="37.949896501377225" lon="23.74483340419829">
        <ele>119.4</ele>
        <time>2021-04-10T07:02:37.000Z</time>
      </trkpt>
      <trkpt lat="37.94997596181929" lon="23.74475385993719">
        <ele>119.4</ele>
        <time>2021-04-10T07:02:53.000Z</time>
      </trkpt>
      <trkpt lat="37.95003052800894" lon="23.744776407256722">
        <ele>119.4</ele>
        <time>2021-04-10T07:02:59.000Z</time>
      </trkpt>
      <trkpt lat="37.95011132955551" lon="23.74518192373216">
        <ele>119.4</ele>
        <time>2021-04-10T07:03:07.000Z</time>
      </trkpt>
      <trkpt lat="37.95024124905467" lon="23.745202543213964">
        <ele>119.4</ele>
        <time>2021-04-10T07:03:09.000Z</time>
      </trkpt>
      <trkpt lat="37.95024166814983" lon="23.745134733617306">
        <ele>119.4</ele>
        <time>2021-04-10T07:03:11.000Z</time>
      </trkpt>
      <trkpt lat="37.95010965317488" lon="23.74483047053218">
        <ele>119.4</ele>
        <time>2021-04-10T07:03:15.000Z</time>
      </trkpt>
      <trkpt lat="37.950104707852006" lon="23.74482317827642">
        <ele>119.4</ele>
        <time>2021-04-10T07:03:16.000Z</time>
      </trkpt>
      <trkpt lat="37.95009188354015" lon="23.744820076972246">
        <ele>119.4</ele>
        <time>2021-04-10T07:03:18.000Z</time>
      </trkpt>
      <trkpt lat="37.95001451857388" lon="23.74480901286006">
        <ele>119.4</ele>
        <time>2021-04-10T07:03:21.000Z</time>
      </trkpt>
      <trkpt lat="37.95000471174717" lon="23.744816137477756">
        <ele>119.4</ele>
        <time>2021-04-10T07:03:25.000Z</time>
      </trkpt>
      <trkpt lat="37.9500100761652" lon="23.744819406419992">
        <ele>119.4</ele>
        <time>2021-04-10T07:03:27.000Z</time>
      </trkpt>
      <trkpt lat="37.95000613667071" lon="23.744826447218657">
        <ele>116.2</ele>
        <time>2021-04-10T07:03:30.000Z</time>
      </trkpt>
      <trkpt lat="37.9499944858253" lon="23.744834661483765">
        <ele>116.4</ele>
        <time>2021-04-10T07:03:31.000Z</time>
      </trkpt>
      <trkpt lat="37.94991100206971" lon="23.744867770001292">
        <ele>116.8</ele>
        <time>2021-04-10T07:03:35.000Z</time>
      </trkpt>
      <trkpt lat="37.9498787317425" lon="23.74488713219762">
        <ele>116.8</ele>
        <time>2021-04-10T07:03:37.000Z</time>
      </trkpt>
      <trkpt lat="37.94984143227339" lon="23.744914792478085">
        <ele>117.2</ele>
        <time>2021-04-10T07:03:39.000Z</time>
      </trkpt>
      <trkpt lat="37.949825171381235" lon="23.744922252371907">
        <ele>117.2</ele>
        <time>2021-04-10T07:03:40.000Z</time>
      </trkpt>
      <trkpt lat="37.94976339675486" lon="23.74493256211281">
        <ele>117.6</ele>
        <time>2021-04-10T07:03:46.000Z</time>
      </trkpt>
      <trkpt lat="37.94971930794418" lon="23.744979919865727">
        <ele>117.6</ele>
        <time>2021-04-10T07:03:51.000Z</time>
      </trkpt>
      <trkpt lat="37.949707405641675" lon="23.744977740570903">
        <ele>117.6</ele>
        <time>2021-04-10T07:03:52.000Z</time>
      </trkpt>
      <trkpt lat="37.94968628324568" lon="23.744978411123157">
        <ele>117.6</ele>
        <time>2021-04-10T07:03:54.000Z</time>
      </trkpt>
      <trkpt lat="37.9496250115335" lon="23.744937172159553">
        <ele>117.8</ele>
        <time>2021-04-10T07:04:02.000Z</time>
      </trkpt>
      <trkpt lat="37.94961880892515" lon="23.744884617626667">
        <ele>117.6</ele>
        <time>2021-04-10T07:04:08.000Z</time>
      </trkpt>
      <trkpt lat="37.94960992410779" lon="23.744874894618988">
        <ele>117.8</ele>
        <time>2021-04-10T07:04:14.000Z</time>
      </trkpt>
      <trkpt lat="37.94957086443901" lon="23.7448656745255">
        <ele>118</ele>
        <time>2021-04-10T07:04:18.000Z</time>
      </trkpt>
      <trkpt lat="37.94954999350011" lon="23.744827955961227">
        <ele>118.4</ele>
        <time>2021-04-10T07:04:20.000Z</time>
      </trkpt>
      <trkpt lat="37.949531553313136" lon="23.744808174669743">
        <ele>118.6</ele>
        <time>2021-04-10T07:04:21.000Z</time>
      </trkpt>
      <trkpt lat="37.949476232752204" lon="23.744800379499793">
        <ele>118.8</ele>
        <time>2021-04-10T07:04:24.000Z</time>
      </trkpt>
      <trkpt lat="37.9494593013078" lon="23.744791662320495">
        <ele>118.8</ele>
        <time>2021-04-10T07:04:25.000Z</time>
      </trkpt>
      <trkpt lat="37.949401549994946" lon="23.744737096130848">
        <ele>118.8</ele>
        <time>2021-04-10T07:04:29.000Z</time>
      </trkpt>
      <trkpt lat="37.949365843087435" lon="23.74470893293619">
        <ele>119</ele>
        <time>2021-04-10T07:04:32.000Z</time>
      </trkpt>
      <trkpt lat="37.949322843924165" lon="23.74470046721399">
        <ele>119.2</ele>
        <time>2021-04-10T07:04:38.000Z</time>
      </trkpt>
      <trkpt lat="37.949315048754215" lon="23.74471086077392">
        <ele>119.2</ele>
        <time>2021-04-10T07:04:39.000Z</time>
      </trkpt>
      <trkpt lat="37.94929903931916" lon="23.744735419750214">
        <ele>119.4</ele>
        <time>2021-04-10T07:04:41.000Z</time>
      </trkpt>
      <trkpt lat="37.94929266907275" lon="23.744743382558227">
        <ele>119.4</ele>
        <time>2021-04-10T07:04:42.000Z</time>
      </trkpt>
      <trkpt lat="37.94924262911081" lon="23.744798954576254">
        <ele>120</ele>
        <time>2021-04-10T07:04:47.000Z</time>
      </trkpt>
      <trkpt lat="37.949222261086106" lon="23.74482611194253">
        <ele>120.2</ele>
        <time>2021-04-10T07:04:49.000Z</time>
      </trkpt>
      <trkpt lat="37.9492172319442" lon="23.744847234338522">
        <ele>120.2</ele>
        <time>2021-04-10T07:04:51.000Z</time>
      </trkpt>
      <trkpt lat="37.94921915978193" lon="23.74486860819161">
        <ele>120</ele>
        <time>2021-04-10T07:04:54.000Z</time>
      </trkpt>
      <trkpt lat="37.949208011850715" lon="23.744907416403294">
        <ele>119.6</ele>
        <time>2021-04-10T07:05:00.000Z</time>
      </trkpt>
      <trkpt lat="37.949193427339196" lon="23.744903560727835">
        <ele>119.6</ele>
        <time>2021-04-10T07:05:06.000Z</time>
      </trkpt>
      <trkpt lat="37.949192924425006" lon="23.74490096233785">
        <ele>119.6</ele>
        <time>2021-04-10T07:05:07.000Z</time>
      </trkpt>
      <trkpt lat="37.949198205024004" lon="23.744899705052376">
        <ele>119.4</ele>
        <time>2021-04-10T07:05:10.000Z</time>
      </trkpt>
      <trkpt lat="37.94919644482434" lon="23.744906578212976">
        <ele>119.2</ele>
        <time>2021-04-10T07:05:14.000Z</time>
      </trkpt>
      <trkpt lat="37.9491915833205" lon="23.744911523535848">
        <ele>119</ele>
        <time>2021-04-10T07:05:15.000Z</time>
      </trkpt>
      <trkpt lat="37.94915730133653" lon="23.74495309777558">
        <ele>119</ele>
        <time>2021-04-10T07:05:19.000Z</time>
      </trkpt>
      <trkpt lat="37.94913550838828" lon="23.744962653145194">
        <ele>119</ele>
        <time>2021-04-10T07:05:20.000Z</time>
      </trkpt>
      <trkpt lat="37.949096616357565" lon="23.744992492720485">
        <ele>119.2</ele>
        <time>2021-04-10T07:05:22.000Z</time>
      </trkpt>
      <trkpt lat="37.94905772432685" lon="23.74500397592783">
        <ele>119.8</ele>
        <time>2021-04-10T07:05:25.000Z</time>
      </trkpt>
      <trkpt lat="37.94902159832418" lon="23.74503079801798">
        <ele>120.6</ele>
        <time>2021-04-10T07:05:29.000Z</time>
      </trkpt>
      <trkpt lat="37.94898354448378" lon="23.745062481611967">
        <ele>121</ele>
        <time>2021-04-10T07:05:32.000Z</time>
      </trkpt>
      <trkpt lat="37.94895714148879" lon="23.7450641579926">
        <ele>121</ele>
        <time>2021-04-10T07:05:33.000Z</time>
      </trkpt>
      <trkpt lat="37.94892688281834" lon="23.74508175998926">
        <ele>121.2</ele>
        <time>2021-04-10T07:05:35.000Z</time>
      </trkpt>
      <trkpt lat="37.948884554207325" lon="23.74511838890612">
        <ele>121.4</ele>
        <time>2021-04-10T07:05:38.000Z</time>
      </trkpt>
      <trkpt lat="37.948875753208995" lon="23.74513548798859">
        <ele>121.6</ele>
        <time>2021-04-10T07:05:39.000Z</time>
      </trkpt>
      <trkpt lat="37.94886720366776" lon="23.745197346433997">
        <ele>121.8</ele>
        <time>2021-04-10T07:05:43.000Z</time>
      </trkpt>
      <trkpt lat="37.94886276125908" lon="23.745211763307452">
        <ele>121.6</ele>
        <time>2021-04-10T07:05:45.000Z</time>
      </trkpt>
      <trkpt lat="37.94886091724038" lon="23.745216792449355">
        <ele>121.4</ele>
        <time>2021-04-10T07:05:46.000Z</time>
      </trkpt>
      <trkpt lat="37.94883635826409" lon="23.745235232636333">
        <ele>121.6</ele>
        <time>2021-04-10T07:05:51.000Z</time>
      </trkpt>
      <trkpt lat="37.94878615066409" lon="23.74526297673583">
        <ele>122.2</ele>
        <time>2021-04-10T07:05:56.000Z</time>
      </trkpt>
      <trkpt lat="37.94877449981868" lon="23.745264569297433">
        <ele>122.2</ele>
        <time>2021-04-10T07:05:57.000Z</time>
      </trkpt>
      <trkpt lat="37.948746336624026" lon="23.74528979882598">
        <ele>122</ele>
        <time>2021-04-10T07:05:59.000Z</time>
      </trkpt>
      <trkpt lat="37.94871976599097" lon="23.7452991027385">
        <ele>122</ele>
        <time>2021-04-10T07:06:01.000Z</time>
      </trkpt>
      <trkpt lat="37.94864960946143" lon="23.74536221846938">
        <ele>122.2</ele>
        <time>2021-04-10T07:06:06.000Z</time>
      </trkpt>
      <trkpt lat="37.94863133691251" lon="23.745361296460032">
        <ele>122.4</ele>
        <time>2021-04-10T07:06:07.000Z</time>
      </trkpt>
      <trkpt lat="37.94849630445242" lon="23.745367666706443">
        <ele>122.6</ele>
        <time>2021-04-10T07:06:13.000Z</time>
      </trkpt>
      <trkpt lat="37.94847182929516" lon="23.74536607414484">
        <ele>122.6</ele>
        <time>2021-04-10T07:06:14.000Z</time>
      </trkpt>
      <trkpt lat="37.948451209813356" lon="23.74536842107773">
        <ele>122.6</ele>
        <time>2021-04-10T07:06:15.000Z</time>
      </trkpt>
      <trkpt lat="37.94836923480034" lon="23.745417119935155">
        <ele>122.8</ele>
        <time>2021-04-10T07:06:20.000Z</time>
      </trkpt>
      <trkpt lat="37.94834325090051" lon="23.74543539248407">
        <ele>123</ele>
        <time>2021-04-10T07:06:22.000Z</time>
      </trkpt>
      <trkpt lat="37.948288852348924" lon="23.745442014187574">
        <ele>123</ele>
        <time>2021-04-10T07:06:26.000Z</time>
      </trkpt>
      <trkpt lat="37.94827594421804" lon="23.745443020015955">
        <ele>123</ele>
        <time>2021-04-10T07:06:27.000Z</time>
      </trkpt>
      <trkpt lat="37.94825415126979" lon="23.745455676689744">
        <ele>123</ele>
        <time>2021-04-10T07:06:29.000Z</time>
      </trkpt>
      <trkpt lat="37.94823344796896" lon="23.745466489344835">
        <ele>123.4</ele>
        <time>2021-04-10T07:06:31.000Z</time>
      </trkpt>
      <trkpt lat="37.94822548516095" lon="23.745478726923466">
        <ele>123.4</ele>
        <time>2021-04-10T07:06:32.000Z</time>
      </trkpt>
      <trkpt lat="37.948215091601014" lon="23.745497670024633">
        <ele>123.6</ele>
        <time>2021-04-10T07:06:33.000Z</time>
      </trkpt>
      <trkpt lat="37.94821115210652" lon="23.745571011677384">
        <ele>123.4</ele>
        <time>2021-04-10T07:06:37.000Z</time>
      </trkpt>
      <trkpt lat="37.94819665141404" lon="23.745632199570537">
        <ele>123.6</ele>
        <time>2021-04-10T07:06:40.000Z</time>
      </trkpt>
      <trkpt lat="37.94817611575127" lon="23.745666313916445">
        <ele>123.6</ele>
        <time>2021-04-10T07:06:42.000Z</time>
      </trkpt>
      <trkpt lat="37.94816119596362" lon="23.74568467028439">
        <ele>123.6</ele>
        <time>2021-04-10T07:06:44.000Z</time>
      </trkpt>
      <trkpt lat="37.948108054697514" lon="23.74572616070509">
        <ele>123.6</ele>
        <time>2021-04-10T07:06:49.000Z</time>
      </trkpt>
      <trkpt lat="37.948093889281154" lon="23.74573110602796">
        <ele>123.6</ele>
        <time>2021-04-10T07:06:50.000Z</time>
      </trkpt>
      <trkpt lat="37.947998251765966" lon="23.745725573971868">
        <ele>123.6</ele>
        <time>2021-04-10T07:06:56.000Z</time>
      </trkpt>
      <trkpt lat="37.94796925038099" lon="23.74574527144432">
        <ele>124</ele>
        <time>2021-04-10T07:06:58.000Z</time>
      </trkpt>
      <trkpt lat="37.94793924316764" lon="23.745760191231966">
        <ele>124.2</ele>
        <time>2021-04-10T07:07:00.000Z</time>
      </trkpt>
      <trkpt lat="37.947902362793684" lon="23.74576672911644">
        <ele>124.2</ele>
        <time>2021-04-10T07:07:02.000Z</time>
      </trkpt>
      <trkpt lat="37.94786447659135" lon="23.745788019150496">
        <ele>124.2</ele>
        <time>2021-04-10T07:07:04.000Z</time>
      </trkpt>
      <trkpt lat="37.94781125150621" lon="23.745782235637307">
        <ele>124.6</ele>
        <time>2021-04-10T07:07:07.000Z</time>
      </trkpt>
      <trkpt lat="37.94779214076698" lon="23.74578340910375">
        <ele>124.8</ele>
        <time>2021-04-10T07:07:08.000Z</time>
      </trkpt>
      <trkpt lat="37.94774193316698" lon="23.74588055536151">
        <ele>125.4</ele>
        <time>2021-04-10T07:07:15.000Z</time>
      </trkpt>
      <trkpt lat="37.94774738140404" lon="23.745946688577533">
        <ele>125.6</ele>
        <time>2021-04-10T07:07:17.000Z</time>
      </trkpt>
      <trkpt lat="37.94773464091122" lon="23.745971331372857">
        <ele>125.8</ele>
        <time>2021-04-10T07:07:19.000Z</time>
      </trkpt>
      <trkpt lat="37.94771309942007" lon="23.74596211127937">
        <ele>125.8</ele>
        <time>2021-04-10T07:07:21.000Z</time>
      </trkpt>
      <trkpt lat="37.947627268731594" lon="23.745947359129786">
        <ele>126.2</ele>
        <time>2021-04-10T07:07:26.000Z</time>
      </trkpt>
      <trkpt lat="37.9475680924952" lon="23.745974516496062">
        <ele>126.2</ele>
        <time>2021-04-10T07:07:28.000Z</time>
      </trkpt>
      <trkpt lat="37.94751520268619" lon="23.745995052158833">
        <ele>126.2</ele>
        <time>2021-04-10T07:07:30.000Z</time>
      </trkpt>
      <trkpt lat="37.947407495230436" lon="23.745999159291387">
        <ele>126.2</ele>
        <time>2021-04-10T07:07:34.000Z</time>
      </trkpt>
      <trkpt lat="37.947387462481856" lon="23.7460002489388">
        <ele>126.4</ele>
        <time>2021-04-10T07:07:35.000Z</time>
      </trkpt>
      <trkpt lat="37.94732510112226" lon="23.746049283072352">
        <ele>126.4</ele>
        <time>2021-04-10T07:07:40.000Z</time>
      </trkpt>
      <trkpt lat="37.94732250273228" lon="23.746082643046975">
        <ele>126.4</ele>
        <time>2021-04-10T07:07:42.000Z</time>
      </trkpt>
      <trkpt lat="37.947320407256484" lon="23.74609907157719">
        <ele>126.2</ele>
        <time>2021-04-10T07:07:44.000Z</time>
      </trkpt>
      <trkpt lat="37.947317473590374" lon="23.746109046041965">
        <ele>126.2</ele>
        <time>2021-04-10T07:07:45.000Z</time>
      </trkpt>
      <trkpt lat="37.9473127797246" lon="23.746131425723433">
        <ele>126.6</ele>
        <time>2021-04-10T07:07:47.000Z</time>
      </trkpt>
      <trkpt lat="37.94730263762176" lon="23.746142322197556">
        <ele>126.8</ele>
        <time>2021-04-10T07:07:49.000Z</time>
      </trkpt>
      <trkpt lat="37.94729324989021" lon="23.74614391475916">
        <ele>126.8</ele>
        <time>2021-04-10T07:07:50.000Z</time>
      </trkpt>
      <trkpt lat="37.94728268869221" lon="23.746146177873015">
        <ele>126.8</ele>
        <time>2021-04-10T07:07:51.000Z</time>
      </trkpt>
      <trkpt lat="37.94725712388754" lon="23.746148776263">
        <ele>126.8</ele>
        <time>2021-04-10T07:07:54.000Z</time>
      </trkpt>
      <trkpt lat="37.94721010141075" lon="23.746187165379524">
        <ele>127.2</ele>
        <time>2021-04-10T07:07:58.000Z</time>
      </trkpt>
      <trkpt lat="37.947208005934954" lon="23.746201246976852">
        <ele>127.2</ele>
        <time>2021-04-10T07:07:59.000Z</time>
      </trkpt>
      <trkpt lat="37.94719551689923" lon="23.746237875893712">
        <ele>127.2</ele>
        <time>2021-04-10T07:08:02.000Z</time>
      </trkpt>
      <trkpt lat="37.94718378223479" lon="23.746272576972842">
        <ele>127.4</ele>
        <time>2021-04-10T07:08:04.000Z</time>
      </trkpt>
      <trkpt lat="37.94716668315232" lon="23.746257908642292">
        <ele>127.4</ele>
        <time>2021-04-10T07:08:05.000Z</time>
      </trkpt>
      <trkpt lat="37.947156792506576" lon="23.746263775974512">
        <ele>127.4</ele>
        <time>2021-04-10T07:08:06.000Z</time>
      </trkpt>
      <trkpt lat="37.94714145362377" lon="23.746321946382523">
        <ele>127.6</ele>
        <time>2021-04-10T07:08:09.000Z</time>
      </trkpt>
      <trkpt lat="37.94712611474097" lon="23.74633795581758">
        <ele>127.6</ele>
        <time>2021-04-10T07:08:10.000Z</time>
      </trkpt>
      <trkpt lat="37.94710775837302" lon="23.74635656364262">
        <ele>127.6</ele>
        <time>2021-04-10T07:08:11.000Z</time>
      </trkpt>
      <trkpt lat="37.94705780223012" lon="23.746388582512736">
        <ele>127.4</ele>
        <time>2021-04-10T07:08:14.000Z</time>
      </trkpt>
      <trkpt lat="37.94702804647386" lon="23.74642596580088">
        <ele>127.4</ele>
        <time>2021-04-10T07:08:16.000Z</time>
      </trkpt>
      <trkpt lat="37.94701589271426" lon="23.74644490890205">
        <ele>127.6</ele>
        <time>2021-04-10T07:08:17.000Z</time>
      </trkpt>
      <trkpt lat="37.94700784608722" lon="23.746459744870663">
        <ele>127.8</ele>
        <time>2021-04-10T07:08:18.000Z</time>
      </trkpt>
      <trkpt lat="37.947001811116934" lon="23.746482459828258">
        <ele>128</ele>
        <time>2021-04-10T07:08:20.000Z</time>
      </trkpt>
      <trkpt lat="37.94700147584081" lon="23.74649427831173">
        <ele>128.2</ele>
        <time>2021-04-10T07:08:22.000Z</time>
      </trkpt>
      <trkpt lat="37.94699879363179" lon="23.74650307931006">
        <ele>128.2</ele>
        <time>2021-04-10T07:08:23.000Z</time>
      </trkpt>
      <trkpt lat="37.946979347616434" lon="23.746545743197203">
        <ele>128.2</ele>
        <time>2021-04-10T07:08:27.000Z</time>
      </trkpt>
      <trkpt lat="37.94690776616335" lon="23.74658622778952">
        <ele>128.4</ele>
        <time>2021-04-10T07:08:33.000Z</time>
      </trkpt>
      <trkpt lat="37.94685546308756" lon="23.746592346578836">
        <ele>128.2</ele>
        <time>2021-04-10T07:08:37.000Z</time>
      </trkpt>
      <trkpt lat="37.9468360170722" lon="23.74659393914044">
        <ele>128.2</ele>
        <time>2021-04-10T07:08:38.000Z</time>
      </trkpt>
      <trkpt lat="37.946805004030466" lon="23.746573822572827">
        <ele>128.2</ele>
        <time>2021-04-10T07:08:40.000Z</time>
      </trkpt>
      <trkpt lat="37.94675764627755" lon="23.746575666591525">
        <ele>128.2</ele>
        <time>2021-04-10T07:08:44.000Z</time>
      </trkpt>
      <trkpt lat="37.94672948308289" lon="23.746581533923745">
        <ele>127.8</ele>
        <time>2021-04-10T07:08:46.000Z</time>
      </trkpt>
      <trkpt lat="37.94663946144283" lon="23.746657222509384">
        <ele>127.6</ele>
        <time>2021-04-10T07:08:52.000Z</time>
      </trkpt>
      <trkpt lat="37.94657751917839" lon="23.746727965772152">
        <ele>128</ele>
        <time>2021-04-10T07:08:56.000Z</time>
      </trkpt>
      <trkpt lat="37.94656561687589" lon="23.746744394302368">
        <ele>128</ele>
        <time>2021-04-10T07:08:57.000Z</time>
      </trkpt>
      <trkpt lat="37.946545500308275" lon="23.746776916086674">
        <ele>128</ele>
        <time>2021-04-10T07:08:59.000Z</time>
      </trkpt>
      <trkpt lat="37.94645723886788" lon="23.746848413720727">
        <ele>127.6</ele>
        <time>2021-04-10T07:09:07.000Z</time>
      </trkpt>
      <trkpt lat="37.946365205571055" lon="23.74698042869568">
        <ele>127.6</ele>
        <time>2021-04-10T07:09:15.000Z</time>
      </trkpt>
      <trkpt lat="37.94629496522248" lon="23.747070031240582">
        <ele>127.6</ele>
        <time>2021-04-10T07:09:21.000Z</time>
      </trkpt>
      <trkpt lat="37.94627074152231" lon="23.747086711227894">
        <ele>127.4</ele>
        <time>2021-04-10T07:09:23.000Z</time>
      </trkpt>
      <trkpt lat="37.94623578898609" lon="23.747119652107358">
        <ele>127.2</ele>
        <time>2021-04-10T07:09:25.000Z</time>
      </trkpt>
      <trkpt lat="37.94616362079978" lon="23.747185030952096">
        <ele>127</ele>
        <time>2021-04-10T07:09:29.000Z</time>
      </trkpt>
      <trkpt lat="37.94612749479711" lon="23.74722920358181">
        <ele>126.8</ele>
        <time>2021-04-10T07:09:33.000Z</time>
      </trkpt>
      <trkpt lat="37.94607854448259" lon="23.74722677282989">
        <ele>126.4</ele>
        <time>2021-04-10T07:09:37.000Z</time>
      </trkpt>
      <trkpt lat="37.94597854837775" lon="23.747242195531726">
        <ele>127</ele>
        <time>2021-04-10T07:09:44.000Z</time>
      </trkpt>
      <trkpt lat="37.94590956531465" lon="23.74725761823356">
        <ele>127</ele>
        <time>2021-04-10T07:09:50.000Z</time>
      </trkpt>
      <trkpt lat="37.94590210542083" lon="23.747267173603177">
        <ele>126.8</ele>
        <time>2021-04-10T07:09:51.000Z</time>
      </trkpt>
      <trkpt lat="37.9458586871624" lon="23.74730153940618">
        <ele>126.8</ele>
        <time>2021-04-10T07:09:54.000Z</time>
      </trkpt>
      <trkpt lat="37.94580948539078" lon="23.747333474457264">
        <ele>126.8</ele>
        <time>2021-04-10T07:09:57.000Z</time>
      </trkpt>
      <trkpt lat="37.945751985535026" lon="23.747375635430217">
        <ele>126.8</ele>
        <time>2021-04-10T07:10:01.000Z</time>
      </trkpt>
      <trkpt lat="37.94572826474905" lon="23.747396590188146">
        <ele>126.8</ele>
        <time>2021-04-10T07:10:03.000Z</time>
      </trkpt>
      <trkpt lat="37.94571661390364" lon="23.747412683442235">
        <ele>127</ele>
        <time>2021-04-10T07:10:04.000Z</time>
      </trkpt>
      <trkpt lat="37.9455859400332" lon="23.747482588514686">
        <ele>127</ele>
        <time>2021-04-10T07:10:13.000Z</time>
      </trkpt>
      <trkpt lat="37.94552349485457" lon="23.747510835528374">
        <ele>126.6</ele>
        <time>2021-04-10T07:10:17.000Z</time>
      </trkpt>
      <trkpt lat="37.94548787176609" lon="23.747511422261596">
        <ele>126.8</ele>
        <time>2021-04-10T07:10:20.000Z</time>
      </trkpt>
      <trkpt lat="37.945387875661254" lon="23.747649304568768">
        <ele>127</ele>
        <time>2021-04-10T07:10:27.000Z</time>
      </trkpt>
      <trkpt lat="37.94529139995575" lon="23.74768316745758">
        <ele>127</ele>
        <time>2021-04-10T07:10:34.000Z</time>
      </trkpt>
      <trkpt lat="37.94523390009999" lon="23.747714767232537">
        <ele>126.4</ele>
        <time>2021-04-10T07:10:41.000Z</time>
      </trkpt>
      <trkpt lat="37.945140693336725" lon="23.747761705890298">
        <ele>127.4</ele>
        <time>2021-04-10T07:10:47.000Z</time>
      </trkpt>
      <trkpt lat="37.945122169330716" lon="23.747770925983787">
        <ele>127.6</ele>
        <time>2021-04-10T07:10:48.000Z</time>
      </trkpt>
      <trkpt lat="37.94498445466161" lon="23.747814763337374">
        <ele>127</ele>
        <time>2021-04-10T07:10:57.000Z</time>
      </trkpt>
      <trkpt lat="37.94489225372672" lon="23.747903862968087">
        <ele>127.8</ele>
        <time>2021-04-10T07:11:05.000Z</time>
      </trkpt>
      <trkpt lat="37.94481933116913" lon="23.74793630093336">
        <ele>127.6</ele>
        <time>2021-04-10T07:11:10.000Z</time>
      </trkpt>
      <trkpt lat="37.94477582909167" lon="23.74794652685523">
        <ele>127.6</ele>
        <time>2021-04-10T07:11:13.000Z</time>
      </trkpt>
      <trkpt lat="37.944717071950436" lon="23.74796404503286">
        <ele>127.6</ele>
        <time>2021-04-10T07:11:18.000Z</time>
      </trkpt>
      <trkpt lat="37.944674575701356" lon="23.74800117686391">
        <ele>127.4</ele>
        <time>2021-04-10T07:11:22.000Z</time>
      </trkpt>
      <trkpt lat="37.94460198841989" lon="23.748024394735694">
        <ele>127.6</ele>
        <time>2021-04-10T07:11:29.000Z</time>
      </trkpt>
      <trkpt lat="37.944549014791846" lon="23.748084157705307">
        <ele>127.2</ele>
        <time>2021-04-10T07:11:34.000Z</time>
      </trkpt>
      <trkpt lat="37.944508446380496" lon="23.748086839914322">
        <ele>126.8</ele>
        <time>2021-04-10T07:11:36.000Z</time>
      </trkpt>
      <trkpt lat="37.94441716745496" lon="23.748160433024168">
        <ele>127.6</ele>
        <time>2021-04-10T07:11:43.000Z</time>
      </trkpt>
      <trkpt lat="37.94433955103159" lon="23.748171413317323">
        <ele>127.8</ele>
        <time>2021-04-10T07:11:48.000Z</time>
      </trkpt>
      <trkpt lat="37.94432622380555" lon="23.748182645067573">
        <ele>127.8</ele>
        <time>2021-04-10T07:11:49.000Z</time>
      </trkpt>
      <trkpt lat="37.944280626252294" lon="23.748235870152712">
        <ele>127.8</ele>
        <time>2021-04-10T07:11:53.000Z</time>
      </trkpt>
      <trkpt lat="37.944266460835934" lon="23.748258082196116">
        <ele>128</ele>
        <time>2021-04-10T07:11:55.000Z</time>
      </trkpt>
      <trkpt lat="37.94418473728001" lon="23.748298063874245">
        <ele>128.6</ele>
        <time>2021-04-10T07:12:01.000Z</time>
      </trkpt>
      <trkpt lat="37.944169817492366" lon="23.748302925378084">
        <ele>129</ele>
        <time>2021-04-10T07:12:03.000Z</time>
      </trkpt>
      <trkpt lat="37.94408264569938" lon="23.748336704447865">
        <ele>129</ele>
        <time>2021-04-10T07:12:09.000Z</time>
      </trkpt>
      <trkpt lat="37.944000670686364" lon="23.74835749156773">
        <ele>129.4</ele>
        <time>2021-04-10T07:12:15.000Z</time>
      </trkpt>
      <trkpt lat="37.943901093676686" lon="23.748467126861215">
        <ele>129.8</ele>
        <time>2021-04-10T07:12:23.000Z</time>
      </trkpt>
      <trkpt lat="37.943861028179526" lon="23.74848196282983">
        <ele>130</ele>
        <time>2021-04-10T07:12:25.000Z</time>
      </trkpt>
      <trkpt lat="37.94383621774614" lon="23.748500319197774">
        <ele>130.2</ele>
        <time>2021-04-10T07:12:27.000Z</time>
      </trkpt>
      <trkpt lat="37.94381517916918" lon="23.74850166030228">
        <ele>130.4</ele>
        <time>2021-04-10T07:12:29.000Z</time>
      </trkpt>
      <trkpt lat="37.943779891356826" lon="23.748538959771395">
        <ele>130.6</ele>
        <time>2021-04-10T07:12:32.000Z</time>
      </trkpt>
      <trkpt lat="37.94370537623763" lon="23.748514149338007">
        <ele>131</ele>
        <time>2021-04-10T07:12:36.000Z</time>
      </trkpt>
      <trkpt lat="37.94369297102094" lon="23.748504845425487">
        <ele>131</ele>
        <time>2021-04-10T07:12:37.000Z</time>
      </trkpt>
      <trkpt lat="37.94365441426635" lon="23.74846637248993">
        <ele>131</ele>
        <time>2021-04-10T07:12:39.000Z</time>
      </trkpt>
      <trkpt lat="37.94362658634782" lon="23.74855731613934">
        <ele>131.4</ele>
        <time>2021-04-10T07:12:44.000Z</time>
      </trkpt>
      <trkpt lat="37.943619126453996" lon="23.74856175854802">
        <ele>131.4</ele>
        <time>2021-04-10T07:12:45.000Z</time>
      </trkpt>
      <trkpt lat="37.94360705651343" lon="23.748564776033163">
        <ele>131.6</ele>
        <time>2021-04-10T07:12:46.000Z</time>
      </trkpt>
      <trkpt lat="37.943540923297405" lon="23.748582126572728">
        <ele>131.6</ele>
        <time>2021-04-10T07:12:50.000Z</time>
      </trkpt>
      <trkpt lat="37.94352600350976" lon="23.74859595671296">
        <ele>132</ele>
        <time>2021-04-10T07:12:55.000Z</time>
      </trkpt>
      <trkpt lat="37.943542934954166" lon="23.748611798509955">
        <ele>132.4</ele>
        <time>2021-04-10T07:12:58.000Z</time>
      </trkpt>
      <trkpt lat="37.943587778136134" lon="23.748623030260205">
        <ele>132.8</ele>
        <time>2021-04-10T07:13:01.000Z</time>
      </trkpt>
      <trkpt lat="37.94361996464431" lon="23.74862085096538">
        <ele>132.8</ele>
        <time>2021-04-10T07:13:06.000Z</time>
      </trkpt>
      <trkpt lat="37.94361770153046" lon="23.748637530952692">
        <ele>132.8</ele>
        <time>2021-04-10T07:13:07.000Z</time>
      </trkpt>
      <trkpt lat="37.94362189248204" lon="23.748618587851524">
        <ele>132.8</ele>
        <time>2021-04-10T07:13:10.000Z</time>
      </trkpt>
      <trkpt lat="37.943614684045315" lon="23.748632250353694">
        <ele>132.4</ele>
        <time>2021-04-10T07:13:17.000Z</time>
      </trkpt>
      <trkpt lat="37.94345852918923" lon="23.748663514852524">
        <ele>132.8</ele>
        <time>2021-04-10T07:13:27.000Z</time>
      </trkpt>
      <trkpt lat="37.943383511155844" lon="23.74864775687456">
        <ele>132.8</ele>
        <time>2021-04-10T07:13:34.000Z</time>
      </trkpt>
      <trkpt lat="37.94336046092212" lon="23.748654210940003">
        <ele>132.8</ele>
        <time>2021-04-10T07:13:36.000Z</time>
      </trkpt>
      <trkpt lat="37.94333347119391" lon="23.748667621985078">
        <ele>133</ele>
        <time>2021-04-10T07:13:37.000Z</time>
      </trkpt>
      <trkpt lat="37.9432874545455" lon="23.748677177354693">
        <ele>133</ele>
        <time>2021-04-10T07:13:40.000Z</time>
      </trkpt>
      <trkpt lat="37.94327035546303" lon="23.748672818765044">
        <ele>133.2</ele>
        <time>2021-04-10T07:13:41.000Z</time>
      </trkpt>
      <trkpt lat="37.94319433160126" lon="23.748686648905277">
        <ele>133.4</ele>
        <time>2021-04-10T07:13:46.000Z</time>
      </trkpt>
      <trkpt lat="37.94314915314317" lon="23.748715901747346">
        <ele>133.8</ele>
        <time>2021-04-10T07:13:49.000Z</time>
      </trkpt>
      <trkpt lat="37.943077236413956" lon="23.748727217316628">
        <ele>134</ele>
        <time>2021-04-10T07:13:53.000Z</time>
      </trkpt>
      <trkpt lat="37.94303088448942" lon="23.74873224645853">
        <ele>134</ele>
        <time>2021-04-10T07:13:56.000Z</time>
      </trkpt>
      <trkpt lat="37.9430057387799" lon="23.7487527821213">
        <ele>134.2</ele>
        <time>2021-04-10T07:13:58.000Z</time>
      </trkpt>
      <trkpt lat="37.94293868355453" lon="23.748837104067206">
        <ele>135</ele>
        <time>2021-04-10T07:14:05.000Z</time>
      </trkpt>
      <trkpt lat="37.942871209234" lon="23.74888362362981">
        <ele>135.4</ele>
        <time>2021-04-10T07:14:09.000Z</time>
      </trkpt>
      <trkpt lat="37.94281999580562" lon="23.748913882300258">
        <ele>135.8</ele>
        <time>2021-04-10T07:14:12.000Z</time>
      </trkpt>
      <trkpt lat="37.942723017185926" lon="23.748977333307266">
        <ele>136</ele>
        <time>2021-04-10T07:14:18.000Z</time>
      </trkpt>
      <trkpt lat="37.942689238116145" lon="23.74897657893598">
        <ele>136.2</ele>
        <time>2021-04-10T07:14:20.000Z</time>
      </trkpt>
      <trkpt lat="37.942617908120155" lon="23.748967107385397">
        <ele>136</ele>
        <time>2021-04-10T07:14:26.000Z</time>
      </trkpt>
      <trkpt lat="37.94257549569011" lon="23.748985966667533">
        <ele>136.4</ele>
        <time>2021-04-10T07:14:30.000Z</time>
      </trkpt>
      <trkpt lat="37.942530484870076" lon="23.74901412986219">
        <ele>136.6</ele>
        <time>2021-04-10T07:14:33.000Z</time>
      </trkpt>
      <trkpt lat="37.94241146184504" lon="23.74899954535067">
        <ele>136.4</ele>
        <time>2021-04-10T07:14:42.000Z</time>
      </trkpt>
      <trkpt lat="37.942327642813325" lon="23.74908847734332">
        <ele>136.8</ele>
        <time>2021-04-10T07:14:49.000Z</time>
      </trkpt>
      <trkpt lat="37.94231875799596" lon="23.749095434322953">
        <ele>136.8</ele>
        <time>2021-04-10T07:14:50.000Z</time>
      </trkpt>
      <trkpt lat="37.9422736633569" lon="23.749152598902583">
        <ele>136.8</ele>
        <time>2021-04-10T07:14:55.000Z</time>
      </trkpt>
      <trkpt lat="37.94224382378161" lon="23.74917682260275">
        <ele>137</ele>
        <time>2021-04-10T07:14:58.000Z</time>
      </trkpt>
      <trkpt lat="37.94214215129614" lon="23.74920330941677">
        <ele>137</ele>
        <time>2021-04-10T07:15:05.000Z</time>
      </trkpt>
      <trkpt lat="37.942130248993635" lon="23.749189227819443">
        <ele>137.4</ele>
        <time>2021-04-10T07:15:07.000Z</time>
      </trkpt>
      <trkpt lat="37.94212790206075" lon="23.749182773754">
        <ele>137.4</ele>
        <time>2021-04-10T07:15:08.000Z</time>
      </trkpt>
      <trkpt lat="37.94208054430783" lon="23.74921454116702">
        <ele>138</ele>
        <time>2021-04-10T07:15:12.000Z</time>
      </trkpt>
      <trkpt lat="37.94197568669915" lon="23.749324176460505">
        <ele>137.4</ele>
        <time>2021-04-10T07:15:18.000Z</time>
      </trkpt>
      <trkpt lat="37.94186722487211" lon="23.74938251450658">
        <ele>136.6</ele>
        <time>2021-04-10T07:15:28.000Z</time>
      </trkpt>
      <trkpt lat="37.941782819107175" lon="23.74939961358905">
        <ele>136.8</ele>
        <time>2021-04-10T07:15:35.000Z</time>
      </trkpt>
      <trkpt lat="37.94174887239933" lon="23.749423502013087">
        <ele>136.8</ele>
        <time>2021-04-10T07:15:37.000Z</time>
      </trkpt>
      <trkpt lat="37.941620126366615" lon="23.74949147924781">
        <ele>136.6</ele>
        <time>2021-04-10T07:15:44.000Z</time>
      </trkpt>
      <trkpt lat="37.94152163900435" lon="23.749528946354985">
        <ele>136.6</ele>
        <time>2021-04-10T07:15:53.000Z</time>
      </trkpt>
      <trkpt lat="37.94148417189717" lon="23.749525509774685">
        <ele>136.4</ele>
        <time>2021-04-10T07:15:55.000Z</time>
      </trkpt>
      <trkpt lat="37.94140781275928" lon="23.749552248045802">
        <ele>136.4</ele>
        <time>2021-04-10T07:15:59.000Z</time>
      </trkpt>
      <trkpt lat="37.94129826128483" lon="23.749544536694884">
        <ele>135.6</ele>
        <time>2021-04-10T07:16:06.000Z</time>
      </trkpt>
      <trkpt lat="37.94122014194727" lon="23.74957605265081">
        <ele>136</ele>
        <time>2021-04-10T07:16:13.000Z</time>
      </trkpt>
      <trkpt lat="37.94115484692156" lon="23.749581249430776">
        <ele>135.8</ele>
        <time>2021-04-10T07:16:18.000Z</time>
      </trkpt>
      <trkpt lat="37.94112140312791" lon="23.749587954953313">
        <ele>135.6</ele>
        <time>2021-04-10T07:16:21.000Z</time>
      </trkpt>
      <trkpt lat="37.94106432236731" lon="23.74961519613862">
        <ele>135.6</ele>
        <time>2021-04-10T07:16:26.000Z</time>
      </trkpt>
      <trkpt lat="37.941018054261804" lon="23.749651070684195">
        <ele>135.8</ele>
        <time>2021-04-10T07:16:29.000Z</time>
      </trkpt>
      <trkpt lat="37.940969271585345" lon="23.7496732827276">
        <ele>135.6</ele>
        <time>2021-04-10T07:16:33.000Z</time>
      </trkpt>
      <trkpt lat="37.940910095348954" lon="23.74971393495798">
        <ele>135.4</ele>
        <time>2021-04-10T07:16:38.000Z</time>
      </trkpt>
      <trkpt lat="37.940887631848454" lon="23.749722987413406">
        <ele>135</ele>
        <time>2021-04-10T07:16:40.000Z</time>
      </trkpt>
      <trkpt lat="37.94083574786782" lon="23.74977302737534">
        <ele>134.4</ele>
        <time>2021-04-10T07:16:46.000Z</time>
      </trkpt>
      <trkpt lat="37.940765507519245" lon="23.749837651848793">
        <ele>135</ele>
        <time>2021-04-10T07:16:51.000Z</time>
      </trkpt>
      <trkpt lat="37.940720580518246" lon="23.749882075935602">
        <ele>135.2</ele>
        <time>2021-04-10T07:16:54.000Z</time>
      </trkpt>
      <trkpt lat="37.94067389331758" lon="23.749919207766652">
        <ele>135.4</ele>
        <time>2021-04-10T07:16:57.000Z</time>
      </trkpt>
      <trkpt lat="37.94065193273127" lon="23.74995483085513">
        <ele>135.4</ele>
        <time>2021-04-10T07:16:58.000Z</time>
      </trkpt>
      <trkpt lat="37.94060071930289" lon="23.74997620470822">
        <ele>135.6</ele>
        <time>2021-04-10T07:17:01.000Z</time>
      </trkpt>
      <trkpt lat="37.940539699047804" lon="23.75003102235496">
        <ele>136</ele>
        <time>2021-04-10T07:17:06.000Z</time>
      </trkpt>
      <trkpt lat="37.94052058830857" lon="23.750046528875828">
        <ele>135.8</ele>
        <time>2021-04-10T07:17:08.000Z</time>
      </trkpt>
      <trkpt lat="37.94047750532627" lon="23.750081984326243">
        <ele>135.4</ele>
        <time>2021-04-10T07:17:13.000Z</time>
      </trkpt>
      <trkpt lat="37.94046149589121" lon="23.750085337087512">
        <ele>135.4</ele>
        <time>2021-04-10T07:17:15.000Z</time>
      </trkpt>
      <trkpt lat="37.94034859165549" lon="23.750116266310215">
        <ele>135.4</ele>
        <time>2021-04-10T07:17:23.000Z</time>
      </trkpt>
      <trkpt lat="37.940338449552655" lon="23.750124564394355">
        <ele>135.4</ele>
        <time>2021-04-10T07:17:24.000Z</time>
      </trkpt>
      <trkpt lat="37.940305005759" lon="23.750173095613718">
        <ele>136</ele>
        <time>2021-04-10T07:17:27.000Z</time>
      </trkpt>
      <trkpt lat="37.94025521725416" lon="23.750215088948607">
        <ele>136.4</ele>
        <time>2021-04-10T07:17:31.000Z</time>
      </trkpt>
      <trkpt lat="37.94020760804415" lon="23.750284826382995">
        <ele>136.4</ele>
        <time>2021-04-10T07:17:37.000Z</time>
      </trkpt>
      <trkpt lat="37.94021003879607" lon="23.750312570482492">
        <ele>136</ele>
        <time>2021-04-10T07:17:39.000Z</time>
      </trkpt>
      <trkpt lat="37.94021314010024" lon="23.750328831374645">
        <ele>136</ele>
        <time>2021-04-10T07:17:40.000Z</time>
      </trkpt>
      <trkpt lat="37.94022143818438" lon="23.750320365652442">
        <ele>136</ele>
        <time>2021-04-10T07:17:42.000Z</time>
      </trkpt>
      <trkpt lat="37.9402447398752" lon="23.750311145558953">
        <ele>136</ele>
        <time>2021-04-10T07:17:45.000Z</time>
      </trkpt>
      <trkpt lat="37.94027181342244" lon="23.75030712224543">
        <ele>136.2</ele>
        <time>2021-04-10T07:17:47.000Z</time>
      </trkpt>
      <trkpt lat="37.94029922224581" lon="23.750348780304193">
        <ele>136.2</ele>
        <time>2021-04-10T07:17:51.000Z</time>
      </trkpt>
      <trkpt lat="37.940286649391055" lon="23.750378787517548">
        <ele>136.6</ele>
        <time>2021-04-10T07:17:57.000Z</time>
      </trkpt>
      <trkpt lat="37.94026988558471" lon="23.75043561682105">
        <ele>136.2</ele>
        <time>2021-04-10T07:18:06.000Z</time>
      </trkpt>
      <trkpt lat="37.94022881425917" lon="23.750504683703184">
        <ele>136.6</ele>
        <time>2021-04-10T07:18:13.000Z</time>
      </trkpt>
      <trkpt lat="37.940230909734964" lon="23.750553131103516">
        <ele>136.8</ele>
        <time>2021-04-10T07:18:16.000Z</time>
      </trkpt>
      <trkpt lat="37.94021707959473" lon="23.750585485249758">
        <ele>137</ele>
        <time>2021-04-10T07:18:19.000Z</time>
      </trkpt>
      <trkpt lat="37.94019252061844" lon="23.75061976723373">
        <ele>137.2</ele>
        <time>2021-04-10T07:18:22.000Z</time>
      </trkpt>
      <trkpt lat="37.94018539600074" lon="23.75063594430685">
        <ele>137.2</ele>
        <time>2021-04-10T07:18:23.000Z</time>
      </trkpt>
      <trkpt lat="37.94017659500241" lon="23.75065689906478">
        <ele>137.2</ele>
        <time>2021-04-10T07:18:24.000Z</time>
      </trkpt>
      <trkpt lat="37.94016812928021" lon="23.750676093623042">
        <ele>137.4</ele>
        <time>2021-04-10T07:18:25.000Z</time>
      </trkpt>
      <trkpt lat="37.94016092084348" lon="23.75069503672421">
        <ele>137.6</ele>
        <time>2021-04-10T07:18:26.000Z</time>
      </trkpt>
      <trkpt lat="37.94010375626385" lon="23.750735018402338">
        <ele>137.6</ele>
        <time>2021-04-10T07:18:30.000Z</time>
      </trkpt>
      <trkpt lat="37.94009327888489" lon="23.750744992867112">
        <ele>137.8</ele>
        <time>2021-04-10T07:18:31.000Z</time>
      </trkpt>
      <trkpt lat="37.94008665718138" lon="23.75075614079833">
        <ele>137.8</ele>
        <time>2021-04-10T07:18:32.000Z</time>
      </trkpt>
      <trkpt lat="37.940080454573035" lon="23.750764187425375">
        <ele>138</ele>
        <time>2021-04-10T07:18:33.000Z</time>
      </trkpt>
      <trkpt lat="37.9400703124702" lon="23.750794027000666">
        <ele>138.2</ele>
        <time>2021-04-10T07:18:36.000Z</time>
      </trkpt>
      <trkpt lat="37.94006008654833" lon="23.750838115811348">
        <ele>138.2</ele>
        <time>2021-04-10T07:18:39.000Z</time>
      </trkpt>
      <trkpt lat="37.94006251730025" lon="23.750880863517523">
        <ele>138.2</ele>
        <time>2021-04-10T07:18:42.000Z</time>
      </trkpt>
      <trkpt lat="37.940065283328295" lon="23.75089972279966">
        <ele>138.2</ele>
        <time>2021-04-10T07:18:43.000Z</time>
      </trkpt>
      <trkpt lat="37.940066205337644" lon="23.75093249604106">
        <ele>138.2</ele>
        <time>2021-04-10T07:18:45.000Z</time>
      </trkpt>
      <trkpt lat="37.94006444513798" lon="23.750954791903496">
        <ele>138.2</ele>
        <time>2021-04-10T07:18:46.000Z</time>
      </trkpt>
      <trkpt lat="37.940061343833804" lon="23.750970466062427">
        <ele>138.2</ele>
        <time>2021-04-10T07:18:47.000Z</time>
      </trkpt>
      <trkpt lat="37.94005522504449" lon="23.751028887927532">
        <ele>138.2</ele>
        <time>2021-04-10T07:18:51.000Z</time>
      </trkpt>
      <trkpt lat="37.9400510340929" lon="23.75107088126242">
        <ele>138.6</ele>
        <time>2021-04-10T07:18:53.000Z</time>
      </trkpt>
      <trkpt lat="37.94004357419908" lon="23.751160399988294">
        <ele>139.2</ele>
        <time>2021-04-10T07:18:57.000Z</time>
      </trkpt>
      <trkpt lat="37.94004340656102" lon="23.75118370167911">
        <ele>139.2</ele>
        <time>2021-04-10T07:18:58.000Z</time>
      </trkpt>
      <trkpt lat="37.94004592113197" lon="23.75119141303003">
        <ele>139.2</ele>
        <time>2021-04-10T07:18:59.000Z</time>
      </trkpt>
      <trkpt lat="37.940042316913605" lon="23.751234663650393">
        <ele>139.2</ele>
        <time>2021-04-10T07:19:02.000Z</time>
      </trkpt>
      <trkpt lat="37.94006017036736" lon="23.75128487125039">
        <ele>139.6</ele>
        <time>2021-04-10T07:19:06.000Z</time>
      </trkpt>
      <trkpt lat="37.94008204713464" lon="23.751319907605648">
        <ele>139.8</ele>
        <time>2021-04-10T07:19:08.000Z</time>
      </trkpt>
      <trkpt lat="37.94009193778038" lon="23.75145393423736">
        <ele>140</ele>
        <time>2021-04-10T07:19:16.000Z</time>
      </trkpt>
      <trkpt lat="37.94007274322212" lon="23.751507326960564">
        <ele>140.4</ele>
        <time>2021-04-10T07:19:19.000Z</time>
      </trkpt>
      <trkpt lat="37.94007383286953" lon="23.75152518041432">
        <ele>140.6</ele>
        <time>2021-04-10T07:19:20.000Z</time>
      </trkpt>
      <trkpt lat="37.94007768854499" lon="23.751554181799293">
        <ele>141</ele>
        <time>2021-04-10T07:19:22.000Z</time>
      </trkpt>
      <trkpt lat="37.940078442916274" lon="23.751572370529175">
        <ele>141</ele>
        <time>2021-04-10T07:19:23.000Z</time>
      </trkpt>
      <trkpt lat="37.94008347205818" lon="23.75160774216056">
        <ele>141</ele>
        <time>2021-04-10T07:19:25.000Z</time>
      </trkpt>
      <trkpt lat="37.94008523225784" lon="23.75162350013852">
        <ele>141</ele>
        <time>2021-04-10T07:19:26.000Z</time>
      </trkpt>
      <trkpt lat="37.940090931952" lon="23.751683682203293">
        <ele>141.2</ele>
        <time>2021-04-10T07:19:29.000Z</time>
      </trkpt>
      <trkpt lat="37.94010233134031" lon="23.751728776842356">
        <ele>141.8</ele>
        <time>2021-04-10T07:19:32.000Z</time>
      </trkpt>
      <trkpt lat="37.9401149880141" lon="23.751764819025993">
        <ele>142</ele>
        <time>2021-04-10T07:19:34.000Z</time>
      </trkpt>
      <trkpt lat="37.940122028812766" lon="23.751781582832336">
        <ele>142</ele>
        <time>2021-04-10T07:19:35.000Z</time>
      </trkpt>
      <trkpt lat="37.94013049453497" lon="23.751794239506125">
        <ele>142</ele>
        <time>2021-04-10T07:19:36.000Z</time>
      </trkpt>
      <trkpt lat="37.9401340149343" lon="23.751809243112803">
        <ele>142</ele>
        <time>2021-04-10T07:19:37.000Z</time>
      </trkpt>
      <trkpt lat="37.94013753533363" lon="23.75185660086572">
        <ele>142.2</ele>
        <time>2021-04-10T07:19:40.000Z</time>
      </trkpt>
      <trkpt lat="37.94013845734298" lon="23.75189415179193">
        <ele>142.4</ele>
        <time>2021-04-10T07:19:42.000Z</time>
      </trkpt>
      <trkpt lat="37.940138122066855" lon="23.751909993588924">
        <ele>142.4</ele>
        <time>2021-04-10T07:19:43.000Z</time>
      </trkpt>
      <trkpt lat="37.94014122337103" lon="23.75195425003767">
        <ele>142.6</ele>
        <time>2021-04-10T07:19:47.000Z</time>
      </trkpt>
      <trkpt lat="37.94013996608555" lon="23.751969672739506">
        <ele>142.6</ele>
        <time>2021-04-10T07:19:48.000Z</time>
      </trkpt>
      <trkpt lat="37.94014030136168" lon="23.75198652036488">
        <ele>142.6</ele>
        <time>2021-04-10T07:19:49.000Z</time>
      </trkpt>
      <trkpt lat="37.940142564475536" lon="23.752041086554527">
        <ele>142.8</ele>
        <time>2021-04-10T07:19:52.000Z</time>
      </trkpt>
      <trkpt lat="37.940141055732965" lon="23.752078721299767">
        <ele>142.8</ele>
        <time>2021-04-10T07:19:54.000Z</time>
      </trkpt>
      <trkpt lat="37.94014080427587" lon="23.75209447927773">
        <ele>142.8</ele>
        <time>2021-04-10T07:19:55.000Z</time>
      </trkpt>
      <trkpt lat="37.94014164246619" lon="23.752107303589582">
        <ele>142.8</ele>
        <time>2021-04-10T07:19:56.000Z</time>
      </trkpt>
      <trkpt lat="37.94015748426318" lon="23.75216086395085">
        <ele>143.2</ele>
        <time>2021-04-10T07:20:00.000Z</time>
      </trkpt>
      <trkpt lat="37.94016117230058" lon="23.752202270552516">
        <ele>143.6</ele>
        <time>2021-04-10T07:20:03.000Z</time>
      </trkpt>
      <trkpt lat="37.940165027976036" lon="23.752223728224635">
        <ele>143.6</ele>
        <time>2021-04-10T07:20:04.000Z</time>
      </trkpt>
      <trkpt lat="37.940176762640476" lon="23.752277959138155">
        <ele>143.6</ele>
        <time>2021-04-10T07:20:08.000Z</time>
      </trkpt>
      <trkpt lat="37.940159579738975" lon="23.75236999243498">
        <ele>144</ele>
        <time>2021-04-10T07:20:13.000Z</time>
      </trkpt>
      <trkpt lat="37.940170392394066" lon="23.75246973708272">
        <ele>144.4</ele>
        <time>2021-04-10T07:20:19.000Z</time>
      </trkpt>
      <trkpt lat="37.940188916400075" lon="23.75251717865467">
        <ele>144.4</ele>
        <time>2021-04-10T07:20:21.000Z</time>
      </trkpt>
      <trkpt lat="37.94017558917403" lon="23.75259630382061">
        <ele>145</ele>
        <time>2021-04-10T07:20:25.000Z</time>
      </trkpt>
      <trkpt lat="37.94018816202879" lon="23.752672746777534">
        <ele>145</ele>
        <time>2021-04-10T07:20:28.000Z</time>
      </trkpt>
      <trkpt lat="37.94019369408488" lon="23.75269403681159">
        <ele>145</ele>
        <time>2021-04-10T07:20:29.000Z</time>
      </trkpt>
      <trkpt lat="37.94020727276802" lon="23.75273401848972">
        <ele>145</ele>
        <time>2021-04-10T07:20:32.000Z</time>
      </trkpt>
      <trkpt lat="37.94020819477737" lon="23.752783723175526">
        <ele>145.2</ele>
        <time>2021-04-10T07:20:35.000Z</time>
      </trkpt>
      <trkpt lat="37.940210876986384" lon="23.752796798944473">
        <ele>145.4</ele>
        <time>2021-04-10T07:20:36.000Z</time>
      </trkpt>
      <trkpt lat="37.94022437185049" lon="23.75290215946734">
        <ele>145.8</ele>
        <time>2021-04-10T07:20:44.000Z</time>
      </trkpt>
      <trkpt lat="37.94022420421243" lon="23.752940045669675">
        <ele>146</ele>
        <time>2021-04-10T07:20:46.000Z</time>
      </trkpt>
      <trkpt lat="37.94024775736034" lon="23.753037443384528">
        <ele>146.8</ele>
        <time>2021-04-10T07:20:52.000Z</time>
      </trkpt>
      <trkpt lat="37.9402463324368" lon="23.753071557730436">
        <ele>147</ele>
        <time>2021-04-10T07:20:54.000Z</time>
      </trkpt>
      <trkpt lat="37.9402481764555" lon="23.75321245752275">
        <ele>146.8</ele>
        <time>2021-04-10T07:21:02.000Z</time>
      </trkpt>
      <trkpt lat="37.9402584861964" lon="23.753284877166152">
        <ele>147</ele>
        <time>2021-04-10T07:21:06.000Z</time>
      </trkpt>
      <trkpt lat="37.940263682976365" lon="23.753307927399874">
        <ele>147.2</ele>
        <time>2021-04-10T07:21:08.000Z</time>
      </trkpt>
      <trkpt lat="37.94026393443346" lon="23.753363080322742">
        <ele>147.6</ele>
        <time>2021-04-10T07:21:11.000Z</time>
      </trkpt>
      <trkpt lat="37.940276339650154" lon="23.753437008708715">
        <ele>147.8</ele>
        <time>2021-04-10T07:21:15.000Z</time>
      </trkpt>
      <trkpt lat="37.94027776457369" lon="23.753529461100698">
        <ele>148.2</ele>
        <time>2021-04-10T07:21:20.000Z</time>
      </trkpt>
      <trkpt lat="37.94026980176568" lon="23.753570364788175">
        <ele>148.4</ele>
        <time>2021-04-10T07:21:23.000Z</time>
      </trkpt>
      <trkpt lat="37.94026058167219" lon="23.753654938191175">
        <ele>148.6</ele>
        <time>2021-04-10T07:21:29.000Z</time>
      </trkpt>
      <trkpt lat="37.940262258052826" lon="23.75368888489902">
        <ele>148.6</ele>
        <time>2021-04-10T07:21:31.000Z</time>
      </trkpt>
      <trkpt lat="37.94027030467987" lon="23.75372400507331">
        <ele>148.8</ele>
        <time>2021-04-10T07:21:33.000Z</time>
      </trkpt>
      <trkpt lat="37.9402809496969" lon="23.753767171874642">
        <ele>148.8</ele>
        <time>2021-04-10T07:21:35.000Z</time>
      </trkpt>
      <trkpt lat="37.940290085971355" lon="23.753787204623222">
        <ele>148.8</ele>
        <time>2021-04-10T07:21:36.000Z</time>
      </trkpt>
      <trkpt lat="37.940310118719935" lon="23.753848560154438">
        <ele>149.2</ele>
        <time>2021-04-10T07:21:40.000Z</time>
      </trkpt>
      <trkpt lat="37.94031674042344" lon="23.753875633701682">
        <ele>149.6</ele>
        <time>2021-04-10T07:21:42.000Z</time>
      </trkpt>
      <trkpt lat="37.94031850062311" lon="23.75395132228732">
        <ele>150.2</ele>
        <time>2021-04-10T07:21:47.000Z</time>
      </trkpt>
      <trkpt lat="37.940316991880536" lon="23.753969594836235">
        <ele>150.4</ele>
        <time>2021-04-10T07:21:48.000Z</time>
      </trkpt>
      <trkpt lat="37.94030953198671" lon="23.753987699747086">
        <ele>150.4</ele>
        <time>2021-04-10T07:21:49.000Z</time>
      </trkpt>
      <trkpt lat="37.94030383229256" lon="23.754028100520372">
        <ele>150.4</ele>
        <time>2021-04-10T07:21:51.000Z</time>
      </trkpt>
      <trkpt lat="37.94031171128154" lon="23.754063555970788">
        <ele>150.4</ele>
        <time>2021-04-10T07:21:53.000Z</time>
      </trkpt>
      <trkpt lat="37.94032319448888" lon="23.754099430516362">
        <ele>150.2</ele>
        <time>2021-04-10T07:21:55.000Z</time>
      </trkpt>
      <trkpt lat="37.9403274692595" lon="23.754143519327044">
        <ele>150.2</ele>
        <time>2021-04-10T07:21:57.000Z</time>
      </trkpt>
      <trkpt lat="37.94034599326551" lon="23.754307301715016">
        <ele>150.6</ele>
        <time>2021-04-10T07:22:03.000Z</time>
      </trkpt>
      <trkpt lat="37.9403483401984" lon="23.754316437989473">
        <ele>150.6</ele>
        <time>2021-04-10T07:22:04.000Z</time>
      </trkpt>
      <trkpt lat="37.940370216965675" lon="23.754359520971775">
        <ele>150.8</ele>
        <time>2021-04-10T07:22:08.000Z</time>
      </trkpt>
      <trkpt lat="37.940379939973354" lon="23.754390450194478">
        <ele>150.8</ele>
        <time>2021-04-10T07:22:10.000Z</time>
      </trkpt>
      <trkpt lat="37.94037692248821" lon="23.754406459629536">
        <ele>151</ele>
        <time>2021-04-10T07:22:11.000Z</time>
      </trkpt>
      <trkpt lat="37.94036837294698" lon="23.754425570368767">
        <ele>151</ele>
        <time>2021-04-10T07:22:12.000Z</time>
      </trkpt>
      <trkpt lat="37.940350687131286" lon="23.754464210942388">
        <ele>151</ele>
        <time>2021-04-10T07:22:14.000Z</time>
      </trkpt>
      <trkpt lat="37.94035512953997" lon="23.754519280046225">
        <ele>151</ele>
        <time>2021-04-10T07:22:17.000Z</time>
      </trkpt>
      <trkpt lat="37.94037147425115" lon="23.754591615870595">
        <ele>151.6</ele>
        <time>2021-04-10T07:22:21.000Z</time>
      </trkpt>
      <trkpt lat="37.9403774254024" lon="23.754631094634533">
        <ele>152</ele>
        <time>2021-04-10T07:22:23.000Z</time>
      </trkpt>
      <trkpt lat="37.94038815423846" lon="23.754690438508987">
        <ele>152.2</ele>
        <time>2021-04-10T07:22:26.000Z</time>
      </trkpt>
      <trkpt lat="37.940388740971684" lon="23.754708040505648">
        <ele>152.2</ele>
        <time>2021-04-10T07:22:28.000Z</time>
      </trkpt>
      <trkpt lat="37.94039150699973" lon="23.7547243013978">
        <ele>152.2</ele>
        <time>2021-04-10T07:22:30.000Z</time>
      </trkpt>
      <trkpt lat="37.940389579162" lon="23.754748525097966">
        <ele>152.2</ele>
        <time>2021-04-10T07:22:32.000Z</time>
      </trkpt>
      <trkpt lat="37.940385304391384" lon="23.754778783768415">
        <ele>152.2</ele>
        <time>2021-04-10T07:22:34.000Z</time>
      </trkpt>
      <trkpt lat="37.94038161635399" lon="23.754819771274924">
        <ele>152.4</ele>
        <time>2021-04-10T07:22:36.000Z</time>
      </trkpt>
      <trkpt lat="37.940374575555325" lon="23.75488414429128">
        <ele>152.6</ele>
        <time>2021-04-10T07:22:39.000Z</time>
      </trkpt>
      <trkpt lat="37.94036057777703" lon="23.754938626661897">
        <ele>153</ele>
        <time>2021-04-10T07:22:42.000Z</time>
      </trkpt>
      <trkpt lat="37.940347669646144" lon="23.75498279929161">
        <ele>153</ele>
        <time>2021-04-10T07:22:44.000Z</time>
      </trkpt>
      <trkpt lat="37.94035789556801" lon="23.75503015704453">
        <ele>153.2</ele>
        <time>2021-04-10T07:22:47.000Z</time>
      </trkpt>
      <trkpt lat="37.940363846719265" lon="23.755070557817817">
        <ele>153.4</ele>
        <time>2021-04-10T07:22:49.000Z</time>
      </trkpt>
      <trkpt lat="37.94036057777703" lon="23.755081705749035">
        <ele>153.6</ele>
        <time>2021-04-10T07:22:50.000Z</time>
      </trkpt>
      <trkpt lat="37.94035328552127" lon="23.755090422928333">
        <ele>153.8</ele>
        <time>2021-04-10T07:22:51.000Z</time>
      </trkpt>
      <trkpt lat="37.94030140154064" lon="23.755162674933672">
        <ele>154</ele>
        <time>2021-04-10T07:22:57.000Z</time>
      </trkpt>
      <trkpt lat="37.940285140648484" lon="23.75519972294569">
        <ele>153.8</ele>
        <time>2021-04-10T07:22:59.000Z</time>
      </trkpt>
      <trkpt lat="37.940254881978035" lon="23.755285050719976">
        <ele>154</ele>
        <time>2021-04-10T07:23:05.000Z</time>
      </trkpt>
      <trkpt lat="37.9402254614979" lon="23.755333498120308">
        <ele>154.8</ele>
        <time>2021-04-10T07:23:09.000Z</time>
      </trkpt>
      <trkpt lat="37.940212385728955" lon="23.755366941913962">
        <ele>155.4</ele>
        <time>2021-04-10T07:23:12.000Z</time>
      </trkpt>
      <trkpt lat="37.94019763357937" lon="23.755416814237833">
        <ele>155.6</ele>
        <time>2021-04-10T07:23:15.000Z</time>
      </trkpt>
      <trkpt lat="37.940168464556336" lon="23.755494263023138">
        <ele>155.6</ele>
        <time>2021-04-10T07:23:19.000Z</time>
      </trkpt>
      <trkpt lat="37.94013996608555" lon="23.755556205287576">
        <ele>155.8</ele>
        <time>2021-04-10T07:23:23.000Z</time>
      </trkpt>
      <trkpt lat="37.940122531726956" lon="23.755605490878224">
        <ele>156</ele>
        <time>2021-04-10T07:23:26.000Z</time>
      </trkpt>
      <trkpt lat="37.94009990058839" lon="23.75567606650293">
        <ele>155.8</ele>
        <time>2021-04-10T07:23:32.000Z</time>
      </trkpt>
      <trkpt lat="37.940095625817776" lon="23.755691489204764">
        <ele>155.8</ele>
        <time>2021-04-10T07:23:33.000Z</time>
      </trkpt>
      <trkpt lat="37.940070144832134" lon="23.755777655169368">
        <ele>155.6</ele>
        <time>2021-04-10T07:23:37.000Z</time>
      </trkpt>
      <trkpt lat="37.940040724352" lon="23.75587647780776">
        <ele>155.8</ele>
        <time>2021-04-10T07:23:41.000Z</time>
      </trkpt>
      <trkpt lat="37.94002236798406" lon="23.755886368453503">
        <ele>155.8</ele>
        <time>2021-04-10T07:23:42.000Z</time>
      </trkpt>
      <trkpt lat="37.94000686146319" lon="23.755886033177376">
        <ele>155.8</ele>
        <time>2021-04-10T07:23:43.000Z</time>
      </trkpt>
      <trkpt lat="37.939967131242156" lon="23.755963146686554">
        <ele>155.8</ele>
        <time>2021-04-10T07:23:50.000Z</time>
      </trkpt>
      <trkpt lat="37.93994843959808" lon="23.756019975990057">
        <ele>155.8</ele>
        <time>2021-04-10T07:23:54.000Z</time>
      </trkpt>
      <trkpt lat="37.93989605270326" lon="23.756111171096563">
        <ele>156.8</ele>
        <time>2021-04-10T07:23:58.000Z</time>
      </trkpt>
      <trkpt lat="37.93980318121612" lon="23.756217705085874">
        <ele>157.4</ele>
        <time>2021-04-10T07:24:07.000Z</time>
      </trkpt>
      <trkpt lat="37.93970989063382" lon="23.75627721659839">
        <ele>157</ele>
        <time>2021-04-10T07:24:14.000Z</time>
      </trkpt>
      <trkpt lat="37.939622551202774" lon="23.756331028416753">
        <ele>157</ele>
        <time>2021-04-10T07:24:21.000Z</time>
      </trkpt>
      <trkpt lat="37.93961215764284" lon="23.756351228803396">
        <ele>157.2</ele>
        <time>2021-04-10T07:24:22.000Z</time>
      </trkpt>
      <trkpt lat="37.93955851346254" lon="23.756381822749972">
        <ele>157.8</ele>
        <time>2021-04-10T07:24:27.000Z</time>
      </trkpt>
      <trkpt lat="37.939545353874564" lon="23.756416523829103">
        <ele>158</ele>
        <time>2021-04-10T07:24:29.000Z</time>
      </trkpt>
      <trkpt lat="37.939537139609456" lon="23.75644477084279">
        <ele>158</ele>
        <time>2021-04-10T07:24:31.000Z</time>
      </trkpt>
      <trkpt lat="37.93951199389994" lon="23.75645700842142">
        <ele>158.2</ele>
        <time>2021-04-10T07:24:33.000Z</time>
      </trkpt>
      <trkpt lat="37.93949036858976" lon="23.756457846611738">
        <ele>158.2</ele>
        <time>2021-04-10T07:24:34.000Z</time>
      </trkpt>
      <trkpt lat="37.939431024715304" lon="23.756485423073173">
        <ele>158.2</ele>
        <time>2021-04-10T07:24:38.000Z</time>
      </trkpt>
      <trkpt lat="37.939415937289596" lon="23.756487937644124">
        <ele>158.2</ele>
        <time>2021-04-10T07:24:39.000Z</time>
      </trkpt>
      <trkpt lat="37.93940478935838" lon="23.75649254769087">
        <ele>158.4</ele>
        <time>2021-04-10T07:24:40.000Z</time>
      </trkpt>
      <trkpt lat="37.939381236210465" lon="23.75649807974696">
        <ele>158.4</ele>
        <time>2021-04-10T07:24:42.000Z</time>
      </trkpt>
      <trkpt lat="37.93937302194536" lon="23.756543593481183">
        <ele>158.8</ele>
        <time>2021-04-10T07:24:44.000Z</time>
      </trkpt>
      <trkpt lat="37.93935466557741" lon="23.756562620401382">
        <ele>159</ele>
        <time>2021-04-10T07:24:46.000Z</time>
      </trkpt>
      <trkpt lat="37.939309906214476" lon="23.756576953455806">
        <ele>159.2</ele>
        <time>2021-04-10T07:24:49.000Z</time>
      </trkpt>
      <trkpt lat="37.93927822262049" lon="23.75659321434796">
        <ele>159.4</ele>
        <time>2021-04-10T07:24:51.000Z</time>
      </trkpt>
      <trkpt lat="37.93920110911131" lon="23.756660101935267">
        <ele>159.4</ele>
        <time>2021-04-10T07:24:58.000Z</time>
      </trkpt>
      <trkpt lat="37.93914495036006" lon="23.756707292050123">
        <ele>160</ele>
        <time>2021-04-10T07:25:03.000Z</time>
      </trkpt>
      <trkpt lat="37.9391239117831" lon="23.75672179274261">
        <ele>160</ele>
        <time>2021-04-10T07:25:05.000Z</time>
      </trkpt>
      <trkpt lat="37.93909172527492" lon="23.756726570427418">
        <ele>160</ele>
        <time>2021-04-10T07:25:08.000Z</time>
      </trkpt>
      <trkpt lat="37.93906917795539" lon="23.756732270121574">
        <ele>160</ele>
        <time>2021-04-10T07:25:11.000Z</time>
      </trkpt>
      <trkpt lat="37.93906205333769" lon="23.756736628711224">
        <ele>159.8</ele>
        <time>2021-04-10T07:25:12.000Z</time>
      </trkpt>
      <trkpt lat="37.939036237075925" lon="23.756777280941606">
        <ele>159.8</ele>
        <time>2021-04-10T07:25:17.000Z</time>
      </trkpt>
      <trkpt lat="37.93901092372835" lon="23.756785914301872">
        <ele>160</ele>
        <time>2021-04-10T07:25:19.000Z</time>
      </trkpt>
      <trkpt lat="37.938973205164075" lon="23.75680192373693">
        <ele>160.2</ele>
        <time>2021-04-10T07:25:22.000Z</time>
      </trkpt>
      <trkpt lat="37.938939929008484" lon="23.756809970363975">
        <ele>160.6</ele>
        <time>2021-04-10T07:25:25.000Z</time>
      </trkpt>
      <trkpt lat="37.93891662731767" lon="23.756817849352956">
        <ele>160.6</ele>
        <time>2021-04-10T07:25:27.000Z</time>
      </trkpt>
      <trkpt lat="37.938897516578436" lon="23.756828494369984">
        <ele>160.6</ele>
        <time>2021-04-10T07:25:29.000Z</time>
      </trkpt>
      <trkpt lat="37.93888779357076" lon="23.75685079023242">
        <ele>160.6</ele>
        <time>2021-04-10T07:25:32.000Z</time>
      </trkpt>
      <trkpt lat="37.93888066895306" lon="23.7568517960608">
        <ele>160.8</ele>
        <time>2021-04-10T07:25:33.000Z</time>
      </trkpt>
      <trkpt lat="37.93886507861316" lon="23.756861938163638">
        <ele>161</ele>
        <time>2021-04-10T07:25:35.000Z</time>
      </trkpt>
      <trkpt lat="37.93883892707527" lon="23.756884317845106">
        <ele>160.8</ele>
        <time>2021-04-10T07:25:38.000Z</time>
      </trkpt>
      <trkpt lat="37.938830293715" lon="23.75689429230988">
        <ele>160.8</ele>
        <time>2021-04-10T07:25:39.000Z</time>
      </trkpt>
      <trkpt lat="37.938794419169426" lon="23.756915582343936">
        <ele>161.2</ele>
        <time>2021-04-10T07:25:42.000Z</time>
      </trkpt>
      <trkpt lat="37.93876642361283" lon="23.7569398060441">
        <ele>161.6</ele>
        <time>2021-04-10T07:25:45.000Z</time>
      </trkpt>
      <trkpt lat="37.93875686824322" lon="23.75694366171956">
        <ele>161.6</ele>
        <time>2021-04-10T07:25:46.000Z</time>
      </trkpt>
      <trkpt lat="37.938745971769094" lon="23.756979200989008">
        <ele>161.8</ele>
        <time>2021-04-10T07:25:49.000Z</time>
      </trkpt>
      <trkpt lat="37.93874513357878" lon="23.757043406367302">
        <ele>162.2</ele>
        <time>2021-04-10T07:25:52.000Z</time>
      </trkpt>
      <trkpt lat="37.938721496611834" lon="23.75716737471521">
        <ele>162.6</ele>
        <time>2021-04-10T07:26:00.000Z</time>
      </trkpt>
      <trkpt lat="37.938695680350065" lon="23.757211044430733">
        <ele>162.6</ele>
        <time>2021-04-10T07:26:02.000Z</time>
      </trkpt>
      <trkpt lat="37.93864748440683" lon="23.757322188466787">
        <ele>162.6</ele>
        <time>2021-04-10T07:26:07.000Z</time>
      </trkpt>
      <trkpt lat="37.93862443417311" lon="23.75740885734558">
        <ele>163</ele>
        <time>2021-04-10T07:26:12.000Z</time>
      </trkpt>
      <trkpt lat="37.938628289848566" lon="23.757423693314195">
        <ele>163.2</ele>
        <time>2021-04-10T07:26:13.000Z</time>
      </trkpt>
      <trkpt lat="37.938648322597146" lon="23.75747239217162">
        <ele>163.8</ele>
        <time>2021-04-10T07:26:16.000Z</time>
      </trkpt>
      <trkpt lat="37.93865050189197" lon="23.75752461142838">
        <ele>163.2</ele>
        <time>2021-04-10T07:26:21.000Z</time>
      </trkpt>
      <trkpt lat="37.938645388931036" lon="23.757531065493822">
        <ele>163.4</ele>
        <time>2021-04-10T07:26:22.000Z</time>
      </trkpt>
      <trkpt lat="37.938639521598816" lon="23.75753886066377">
        <ele>163.6</ele>
        <time>2021-04-10T07:26:23.000Z</time>
      </trkpt>
      <trkpt lat="37.93863474391401" lon="23.75755679793656">
        <ele>164</ele>
        <time>2021-04-10T07:26:24.000Z</time>
      </trkpt>
      <trkpt lat="37.93864664621651" lon="23.75764975324273">
        <ele>164.4</ele>
        <time>2021-04-10T07:26:27.000Z</time>
      </trkpt>
      <trkpt lat="37.938667349517345" lon="23.757678754627705">
        <ele>164.6</ele>
        <time>2021-04-10T07:26:30.000Z</time>
      </trkpt>
      <trkpt lat="37.938666343688965" lon="23.757680682465434">
        <ele>164.6</ele>
        <time>2021-04-10T07:26:31.000Z</time>
      </trkpt>
      <trkpt lat="37.93866475112736" lon="23.757679257541895">
        <ele>164.8</ele>
        <time>2021-04-10T07:26:32.000Z</time>
      </trkpt>
      <trkpt lat="37.93865636922419" lon="23.75767665915191">
        <ele>164.8</ele>
        <time>2021-04-10T07:26:34.000Z</time>
      </trkpt>
      <trkpt lat="37.93864228762686" lon="23.757692752406">
        <ele>164.8</ele>
        <time>2021-04-10T07:26:36.000Z</time>
      </trkpt>
      <trkpt lat="37.93863147497177" lon="23.75769954174757">
        <ele>165</ele>
        <time>2021-04-10T07:26:37.000Z</time>
      </trkpt>
      <trkpt lat="37.93861320242286" lon="23.757715299725533">
        <ele>164.8</ele>
        <time>2021-04-10T07:26:39.000Z</time>
      </trkpt>
      <trkpt lat="37.93861102312803" lon="23.757710186764598">
        <ele>164.8</ele>
        <time>2021-04-10T07:26:40.000Z</time>
      </trkpt>
      <trkpt lat="37.93860951438546" lon="23.757699374109507">
        <ele>164.8</ele>
        <time>2021-04-10T07:26:41.000Z</time>
      </trkpt>
      <trkpt lat="37.93861932121217" lon="23.75771027058363">
        <ele>164.8</ele>
        <time>2021-04-10T07:26:44.000Z</time>
      </trkpt>
      <trkpt lat="37.93861764483154" lon="23.75769074074924">
        <ele>164.8</ele>
        <time>2021-04-10T07:26:52.000Z</time>
      </trkpt>
      <trkpt lat="37.938629211857915" lon="23.757677916437387">
        <ele>164.6</ele>
        <time>2021-04-10T07:26:55.000Z</time>
      </trkpt>
      <trkpt lat="37.9386386834085" lon="23.757655285298824">
        <ele>164.4</ele>
        <time>2021-04-10T07:26:57.000Z</time>
      </trkpt>
      <trkpt lat="37.93864019215107" lon="23.757689902558923">
        <ele>164.4</ele>
        <time>2021-04-10T07:27:00.000Z</time>
      </trkpt>
      <trkpt lat="37.93864153325558" lon="23.75770398415625">
        <ele>164.6</ele>
        <time>2021-04-10T07:27:01.000Z</time>
      </trkpt>
      <trkpt lat="37.93865888379514" lon="23.75773281790316">
        <ele>164.6</ele>
        <time>2021-04-10T07:27:09.000Z</time>
      </trkpt>
      <trkpt lat="37.938634073361754" lon="23.757787216454744">
        <ele>164.8</ele>
        <time>2021-04-10T07:27:18.000Z</time>
      </trkpt>
      <trkpt lat="37.93863767758012" lon="23.7578344065696">
        <ele>165.2</ele>
        <time>2021-04-10T07:27:22.000Z</time>
      </trkpt>
      <trkpt lat="37.9386299662292" lon="23.75786868855357">
        <ele>165.4</ele>
        <time>2021-04-10T07:27:24.000Z</time>
      </trkpt>
      <trkpt lat="37.938631139695644" lon="23.75788955949247">
        <ele>165.4</ele>
        <time>2021-04-10T07:27:25.000Z</time>
      </trkpt>
      <trkpt lat="37.938642874360085" lon="23.757941611111164">
        <ele>165.4</ele>
        <time>2021-04-10T07:27:28.000Z</time>
      </trkpt>
      <trkpt lat="37.93865578249097" lon="23.757969019934535">
        <ele>166</ele>
        <time>2021-04-10T07:27:30.000Z</time>
      </trkpt>
      <trkpt lat="37.93866517022252" lon="23.75799022614956">
        <ele>166.4</ele>
        <time>2021-04-10T07:27:32.000Z</time>
      </trkpt>
      <trkpt lat="37.93866424821317" lon="23.758001709356904">
        <ele>166.4</ele>
        <time>2021-04-10T07:27:33.000Z</time>
      </trkpt>
      <trkpt lat="37.938660476356745" lon="23.758016796782613">
        <ele>166.4</ele>
        <time>2021-04-10T07:27:34.000Z</time>
      </trkpt>
      <trkpt lat="37.93864639475942" lon="23.758053174242377">
        <ele>166.6</ele>
        <time>2021-04-10T07:27:36.000Z</time>
      </trkpt>
      <trkpt lat="37.938615465536714" lon="23.758094748482108">
        <ele>166.6</ele>
        <time>2021-04-10T07:27:39.000Z</time>
      </trkpt>
      <trkpt lat="37.93859576806426" lon="23.75814327970147">
        <ele>166.8</ele>
        <time>2021-04-10T07:27:42.000Z</time>
      </trkpt>
      <trkpt lat="37.93859384022653" lon="23.758155098184943">
        <ele>166.8</ele>
        <time>2021-04-10T07:27:43.000Z</time>
      </trkpt>
      <trkpt lat="37.93858587741852" lon="23.758174208924174">
        <ele>167</ele>
        <time>2021-04-10T07:27:45.000Z</time>
      </trkpt>
      <trkpt lat="37.938578333705664" lon="23.758234810084105">
        <ele>167.4</ele>
        <time>2021-04-10T07:27:49.000Z</time>
      </trkpt>
      <trkpt lat="37.93857850134373" lon="23.758265236392617">
        <ele>167.4</ele>
        <time>2021-04-10T07:27:51.000Z</time>
      </trkpt>
      <trkpt lat="37.9385763220489" lon="23.758303793147206">
        <ele>167.6</ele>
        <time>2021-04-10T07:27:53.000Z</time>
      </trkpt>
      <trkpt lat="37.93855461291969" lon="23.758334051817656">
        <ele>167.6</ele>
        <time>2021-04-10T07:27:56.000Z</time>
      </trkpt>
      <trkpt lat="37.93851253576577" lon="23.75835182145238">
        <ele>167.6</ele>
        <time>2021-04-10T07:27:59.000Z</time>
      </trkpt>
      <trkpt lat="37.9384917486459" lon="23.758375206962228">
        <ele>168.2</ele>
        <time>2021-04-10T07:28:02.000Z</time>
      </trkpt>
      <trkpt lat="37.938468446955085" lon="23.7584285158664">
        <ele>168.2</ele>
        <time>2021-04-10T07:28:05.000Z</time>
      </trkpt>
      <trkpt lat="37.93845411390066" lon="23.758473275229335">
        <ele>168.4</ele>
        <time>2021-04-10T07:28:07.000Z</time>
      </trkpt>
      <trkpt lat="37.93845109641552" lon="23.758487440645695">
        <ele>168.6</ele>
        <time>2021-04-10T07:28:08.000Z</time>
      </trkpt>
      <trkpt lat="37.93841010890901" lon="23.758599339053035">
        <ele>169.2</ele>
        <time>2021-04-10T07:28:15.000Z</time>
      </trkpt>
      <trkpt lat="37.93840130791068" lon="23.758632699027658">
        <ele>169.2</ele>
        <time>2021-04-10T07:28:17.000Z</time>
      </trkpt>
      <trkpt lat="37.938395189121366" lon="23.758655078709126">
        <ele>169.2</ele>
        <time>2021-04-10T07:28:18.000Z</time>
      </trkpt>
      <trkpt lat="37.93835227377713" lon="23.75877016223967">
        <ele>169.2</ele>
        <time>2021-04-10T07:28:24.000Z</time>
      </trkpt>
      <trkpt lat="37.938334587961435" lon="23.75883319415152">
        <ele>169.2</ele>
        <time>2021-04-10T07:28:29.000Z</time>
      </trkpt>
      <trkpt lat="37.938323775306344" lon="23.758844761177897">
        <ele>169.6</ele>
        <time>2021-04-10T07:28:31.000Z</time>
      </trkpt>
      <trkpt lat="37.938318494707346" lon="23.75885213725269">
        <ele>169.8</ele>
        <time>2021-04-10T07:28:32.000Z</time>
      </trkpt>
      <trkpt lat="37.93829469010234" lon="23.758910559117794">
        <ele>170.2</ele>
        <time>2021-04-10T07:28:36.000Z</time>
      </trkpt>
      <trkpt lat="37.93829041533172" lon="23.758919863030314">
        <ele>170.2</ele>
        <time>2021-04-10T07:28:37.000Z</time>
      </trkpt>
      <trkpt lat="37.938271975144744" lon="23.758931681513786">
        <ele>170.4</ele>
        <time>2021-04-10T07:28:40.000Z</time>
      </trkpt>
      <trkpt lat="37.938260827213526" lon="23.75894450582564">
        <ele>170.8</ele>
        <time>2021-04-10T07:28:42.000Z</time>
      </trkpt>
      <trkpt lat="37.938260324299335" lon="23.75896956771612">
        <ele>170.8</ele>
        <time>2021-04-10T07:28:44.000Z</time>
      </trkpt>
      <trkpt lat="37.93825697153807" lon="23.759000580757856">
        <ele>171</ele>
        <time>2021-04-10T07:28:46.000Z</time>
      </trkpt>
      <trkpt lat="37.93824641034007" lon="23.75901977531612">
        <ele>171</ele>
        <time>2021-04-10T07:28:48.000Z</time>
      </trkpt>
      <trkpt lat="37.93823073618114" lon="23.759057661518455">
        <ele>171.6</ele>
        <time>2021-04-10T07:28:51.000Z</time>
      </trkpt>
      <trkpt lat="37.93817399069667" lon="23.759177858009934">
        <ele>171.8</ele>
        <time>2021-04-10T07:28:59.000Z</time>
      </trkpt>
      <trkpt lat="37.938168877735734" lon="23.759236866608262">
        <ele>172</ele>
        <time>2021-04-10T07:29:03.000Z</time>
      </trkpt>
      <trkpt lat="37.93816619552672" lon="23.759262515231967">
        <ele>172.2</ele>
        <time>2021-04-10T07:29:05.000Z</time>
      </trkpt>
      <trkpt lat="37.93815446086228" lon="23.75929336063564">
        <ele>173</ele>
        <time>2021-04-10T07:29:07.000Z</time>
      </trkpt>
      <trkpt lat="37.93813090771437" lon="23.75938195735216">
        <ele>173.4</ele>
        <time>2021-04-10T07:29:11.000Z</time>
      </trkpt>
      <trkpt lat="37.93811791576445" lon="23.759431410580873">
        <ele>173.8</ele>
        <time>2021-04-10T07:29:15.000Z</time>
      </trkpt>
      <trkpt lat="37.93811137787998" lon="23.75945035368204">
        <ele>173.8</ele>
        <time>2021-04-10T07:29:16.000Z</time>
      </trkpt>
      <trkpt lat="37.93808908201754" lon="23.759515900164843">
        <ele>173.8</ele>
        <time>2021-04-10T07:29:19.000Z</time>
      </trkpt>
      <trkpt lat="37.938086818903685" lon="23.7595387827605">
        <ele>173.8</ele>
        <time>2021-04-10T07:29:20.000Z</time>
      </trkpt>
      <trkpt lat="37.9380723182112" lon="23.759570717811584">
        <ele>174</ele>
        <time>2021-04-10T07:29:22.000Z</time>
      </trkpt>
      <trkpt lat="37.93806150555611" lon="23.759583542123437">
        <ele>174</ele>
        <time>2021-04-10T07:29:23.000Z</time>
      </trkpt>
      <trkpt lat="37.938028648495674" lon="23.75962285324931">
        <ele>174.6</ele>
        <time>2021-04-10T07:29:27.000Z</time>
      </trkpt>
      <trkpt lat="37.938018003478646" lon="23.75966425985098">
        <ele>175.2</ele>
        <time>2021-04-10T07:29:30.000Z</time>
      </trkpt>
      <trkpt lat="37.938012052327394" lon="23.75967557542026">
        <ele>175.6</ele>
        <time>2021-04-10T07:29:33.000Z</time>
      </trkpt>
      <trkpt lat="37.93801221996546" lon="23.759676162153482">
        <ele>175.6</ele>
        <time>2021-04-10T07:29:34.000Z</time>
      </trkpt>
      <trkpt lat="37.93801381252706" lon="23.759681191295385">
        <ele>175.6</ele>
        <time>2021-04-10T07:29:36.000Z</time>
      </trkpt>
      <trkpt lat="37.93804004788399" lon="23.759723268449306">
        <ele>175.8</ele>
        <time>2021-04-10T07:29:43.000Z</time>
      </trkpt>
      <trkpt lat="37.93804172426462" lon="23.759738188236952">
        <ele>175.8</ele>
        <time>2021-04-10T07:29:45.000Z</time>
      </trkpt>
      <trkpt lat="37.938030576333404" lon="23.759758975356817">
        <ele>176</ele>
        <time>2021-04-10T07:29:48.000Z</time>
      </trkpt>
      <trkpt lat="37.93800316751003" lon="23.759815553203225">
        <ele>176.2</ele>
        <time>2021-04-10T07:29:51.000Z</time>
      </trkpt>
      <trkpt lat="37.937993444502354" lon="23.759818486869335">
        <ele>176.2</ele>
        <time>2021-04-10T07:29:52.000Z</time>
      </trkpt>
      <trkpt lat="37.93797827325761" lon="23.75984363257885">
        <ele>176.6</ele>
        <time>2021-04-10T07:29:56.000Z</time>
      </trkpt>
      <trkpt lat="37.93797257356346" lon="23.759867856279016">
        <ele>176.6</ele>
        <time>2021-04-10T07:29:58.000Z</time>
      </trkpt>
      <trkpt lat="37.937968634068966" lon="23.75989786349237">
        <ele>176.6</ele>
        <time>2021-04-10T07:30:00.000Z</time>
      </trkpt>
      <trkpt lat="37.93794482946396" lon="23.759950334206223">
        <ele>176.6</ele>
        <time>2021-04-10T07:30:04.000Z</time>
      </trkpt>
      <trkpt lat="37.93790032155812" lon="23.760017473250628">
        <ele>177.2</ele>
        <time>2021-04-10T07:30:09.000Z</time>
      </trkpt>
      <trkpt lat="37.937893783673644" lon="23.760029627010226">
        <ele>177.6</ele>
        <time>2021-04-10T07:30:10.000Z</time>
      </trkpt>
      <trkpt lat="37.93788883835077" lon="23.76006784848869">
        <ele>178.4</ele>
        <time>2021-04-10T07:30:13.000Z</time>
      </trkpt>
      <trkpt lat="37.93787836097181" lon="23.760116882622242">
        <ele>179</ele>
        <time>2021-04-10T07:30:18.000Z</time>
      </trkpt>
      <trkpt lat="37.937857657670975" lon="23.760200701653957">
        <ele>179.6</ele>
        <time>2021-04-10T07:30:24.000Z</time>
      </trkpt>
      <trkpt lat="37.93784634210169" lon="23.760241018608212">
        <ele>180</ele>
        <time>2021-04-10T07:30:26.000Z</time>
      </trkpt>
      <trkpt lat="37.93783930130303" lon="23.7602555193007">
        <ele>180.2</ele>
        <time>2021-04-10T07:30:27.000Z</time>
      </trkpt>
      <trkpt lat="37.93782806955278" lon="23.76029374077916">
        <ele>180.8</ele>
        <time>2021-04-10T07:30:29.000Z</time>
      </trkpt>
      <trkpt lat="37.93781985528767" lon="23.760313857346773">
        <ele>180.8</ele>
        <time>2021-04-10T07:30:30.000Z</time>
      </trkpt>
      <trkpt lat="37.93779445812106" lon="23.760374626144767">
        <ele>181.4</ele>
        <time>2021-04-10T07:30:34.000Z</time>
      </trkpt>
      <trkpt lat="37.937766797840595" lon="23.760415194556117">
        <ele>181.8</ele>
        <time>2021-04-10T07:30:38.000Z</time>
      </trkpt>
      <trkpt lat="37.937745256349444" lon="23.76044956035912">
        <ele>181.8</ele>
        <time>2021-04-10T07:30:41.000Z</time>
      </trkpt>
      <trkpt lat="37.937736958265305" lon="23.760463390499353">
        <ele>182</ele>
        <time>2021-04-10T07:30:42.000Z</time>
      </trkpt>
      <trkpt lat="37.93769027106464" lon="23.76057713292539">
        <ele>182.4</ele>
        <time>2021-04-10T07:30:49.000Z</time>
      </trkpt>
      <trkpt lat="37.93766671791673" lon="23.76064309850335">
        <ele>182.6</ele>
        <time>2021-04-10T07:30:53.000Z</time>
      </trkpt>
      <trkpt lat="37.93766202405095" lon="23.76067327335477">
        <ele>182.8</ele>
        <time>2021-04-10T07:30:55.000Z</time>
      </trkpt>
      <trkpt lat="37.93764743953943" lon="23.760764552280307">
        <ele>183.2</ele>
        <time>2021-04-10T07:31:01.000Z</time>
      </trkpt>
      <trkpt lat="37.93762883171439" lon="23.760797325521708">
        <ele>183.4</ele>
        <time>2021-04-10T07:31:04.000Z</time>
      </trkpt>
      <trkpt lat="37.93762438930571" lon="23.760827835649252">
        <ele>183.2</ele>
        <time>2021-04-10T07:31:06.000Z</time>
      </trkpt>
      <trkpt lat="37.93761416338384" lon="23.760893046855927">
        <ele>183</ele>
        <time>2021-04-10T07:31:10.000Z</time>
      </trkpt>
      <trkpt lat="37.9375852458179" lon="23.76104232855141">
        <ele>183</ele>
        <time>2021-04-10T07:31:19.000Z</time>
      </trkpt>
      <trkpt lat="37.93757409788668" lon="23.76107552088797">
        <ele>182.8</ele>
        <time>2021-04-10T07:31:21.000Z</time>
      </trkpt>
      <trkpt lat="37.93755951337516" lon="23.761106114834547">
        <ele>182.8</ele>
        <time>2021-04-10T07:31:23.000Z</time>
      </trkpt>
      <trkpt lat="37.93752514757216" lon="23.761129584163427">
        <ele>183.2</ele>
        <time>2021-04-10T07:31:26.000Z</time>
      </trkpt>
      <trkpt lat="37.93751525692642" lon="23.76114785671234">
        <ele>183.4</ele>
        <time>2021-04-10T07:31:27.000Z</time>
      </trkpt>
      <trkpt lat="37.9374937992543" lon="23.761180797591805">
        <ele>183.4</ele>
        <time>2021-04-10T07:31:30.000Z</time>
      </trkpt>
      <trkpt lat="37.93747628107667" lon="23.761231256648898">
        <ele>183.8</ele>
        <time>2021-04-10T07:31:34.000Z</time>
      </trkpt>
      <trkpt lat="37.93746982701123" lon="23.761243661865592">
        <ele>184</ele>
        <time>2021-04-10T07:31:35.000Z</time>
      </trkpt>
      <trkpt lat="37.937463792040944" lon="23.761279368773103">
        <ele>184.4</ele>
        <time>2021-04-10T07:31:37.000Z</time>
      </trkpt>
      <trkpt lat="37.93745532631874" lon="23.76134365797043">
        <ele>185</ele>
        <time>2021-04-10T07:31:41.000Z</time>
      </trkpt>
      <trkpt lat="37.93743579648435" lon="23.761386154219508">
        <ele>186.2</ele>
        <time>2021-04-10T07:31:45.000Z</time>
      </trkpt>
      <trkpt lat="37.937424816191196" lon="23.761405684053898">
        <ele>186.8</ele>
        <time>2021-04-10T07:31:47.000Z</time>
      </trkpt>
      <trkpt lat="37.937407633289695" lon="23.76141406595707">
        <ele>187.2</ele>
        <time>2021-04-10T07:31:49.000Z</time>
      </trkpt>
      <trkpt lat="37.93740260414779" lon="23.761429069563746">
        <ele>187.6</ele>
        <time>2021-04-10T07:31:51.000Z</time>
      </trkpt>
      <trkpt lat="37.937365556135774" lon="23.76144885085523">
        <ele>188</ele>
        <time>2021-04-10T07:31:57.000Z</time>
      </trkpt>
      <trkpt lat="37.93735868297517" lon="23.761453796178102">
        <ele>188</ele>
        <time>2021-04-10T07:31:58.000Z</time>
      </trkpt>
      <trkpt lat="37.93734837323427" lon="23.76145027577877">
        <ele>188</ele>
        <time>2021-04-10T07:31:59.000Z</time>
      </trkpt>
      <trkpt lat="37.93733412399888" lon="23.761444576084614">
        <ele>188.4</ele>
        <time>2021-04-10T07:32:01.000Z</time>
      </trkpt>
      <trkpt lat="37.93731836602092" lon="23.761441139504313">
        <ele>188.8</ele>
        <time>2021-04-10T07:32:03.000Z</time>
      </trkpt>
      <trkpt lat="37.93730973266065" lon="23.761458741500974">
        <ele>189</ele>
        <time>2021-04-10T07:32:05.000Z</time>
      </trkpt>
      <trkpt lat="37.93728810735047" lon="23.761449605226517">
        <ele>188.8</ele>
        <time>2021-04-10T07:32:07.000Z</time>
      </trkpt>
      <trkpt lat="37.93723002076149" lon="23.761436948552728">
        <ele>188.8</ele>
        <time>2021-04-10T07:32:12.000Z</time>
      </trkpt>
      <trkpt lat="37.93720319867134" lon="23.761431081220508">
        <ele>189.4</ele>
        <time>2021-04-10T07:32:15.000Z</time>
      </trkpt>
      <trkpt lat="37.937187692150474" lon="23.761443067342043">
        <ele>189.6</ele>
        <time>2021-04-10T07:32:17.000Z</time>
      </trkpt>
      <trkpt lat="37.93711602687836" lon="23.761463603004813">
        <ele>189.8</ele>
        <time>2021-04-10T07:32:24.000Z</time>
      </trkpt>
      <trkpt lat="37.93708493001759" lon="23.76145849004388">
        <ele>189.8</ele>
        <time>2021-04-10T07:32:26.000Z</time>
      </trkpt>
      <trkpt lat="37.93708308599889" lon="23.76147315837443">
        <ele>189.8</ele>
        <time>2021-04-10T07:32:29.000Z</time>
      </trkpt>
      <trkpt lat="37.93708828277886" lon="23.761483803391457">
        <ele>189.8</ele>
        <time>2021-04-10T07:32:30.000Z</time>
      </trkpt>
      <trkpt lat="37.937088031321764" lon="23.76147952862084">
        <ele>190</ele>
        <time>2021-04-10T07:32:31.000Z</time>
      </trkpt>
      <trkpt lat="37.93702424503863" lon="23.76142085529864">
        <ele>189.8</ele>
        <time>2021-04-10T07:32:38.000Z</time>
      </trkpt>
      <trkpt lat="37.93698342517018" lon="23.761417167261243">
        <ele>189.8</ele>
        <time>2021-04-10T07:32:40.000Z</time>
      </trkpt>
      <trkpt lat="37.936947802081704" lon="23.7614125572145">
        <ele>189.8</ele>
        <time>2021-04-10T07:32:43.000Z</time>
      </trkpt>
      <trkpt lat="37.93692885898054" lon="23.76142387278378">
        <ele>190</ele>
        <time>2021-04-10T07:32:45.000Z</time>
      </trkpt>
      <trkpt lat="37.93691033497453" lon="23.761440720409155">
        <ele>190.6</ele>
        <time>2021-04-10T07:32:48.000Z</time>
      </trkpt>
      <trkpt lat="37.93685224838555" lon="23.761419262737036">
        <ele>190.8</ele>
        <time>2021-04-10T07:32:53.000Z</time>
      </trkpt>
      <trkpt lat="37.93682257644832" lon="23.76137643121183">
        <ele>190.6</ele>
        <time>2021-04-10T07:32:54.000Z</time>
      </trkpt>
      <trkpt lat="37.936804220080376" lon="23.761386573314667">
        <ele>190.6</ele>
        <time>2021-04-10T07:32:55.000Z</time>
      </trkpt>
      <trkpt lat="37.936734817922115" lon="23.76140828244388">
        <ele>190.6</ele>
        <time>2021-04-10T07:33:00.000Z</time>
      </trkpt>
      <trkpt lat="37.93665057979524" lon="23.761465782299638">
        <ele>190.4</ele>
        <time>2021-04-10T07:33:07.000Z</time>
      </trkpt>
      <trkpt lat="37.936577405780554" lon="23.76146729104221">
        <ele>190.2</ele>
        <time>2021-04-10T07:33:14.000Z</time>
      </trkpt>
      <trkpt lat="37.93656508438289" lon="23.761462345719337">
        <ele>190.4</ele>
        <time>2021-04-10T07:33:15.000Z</time>
      </trkpt>
      <trkpt lat="37.936542788520455" lon="23.761465279385448">
        <ele>190.6</ele>
        <time>2021-04-10T07:33:17.000Z</time>
      </trkpt>
      <trkpt lat="37.93646056205034" lon="23.761482210829854">
        <ele>191</ele>
        <time>2021-04-10T07:33:23.000Z</time>
      </trkpt>
      <trkpt lat="37.936404990032315" lon="23.761588661000133">
        <ele>191.2</ele>
        <time>2021-04-10T07:33:29.000Z</time>
      </trkpt>
      <trkpt lat="37.936362912878394" lon="23.76160508953035">
        <ele>190.8</ele>
        <time>2021-04-10T07:33:35.000Z</time>
      </trkpt>
      <trkpt lat="37.936333660036325" lon="23.761611124500632">
        <ele>190.6</ele>
        <time>2021-04-10T07:33:38.000Z</time>
      </trkpt>
      <trkpt lat="37.93632033281028" lon="23.761621098965406">
        <ele>190.8</ele>
        <time>2021-04-10T07:33:39.000Z</time>
      </trkpt>
      <trkpt lat="37.93627766892314" lon="23.761656805872917">
        <ele>191.2</ele>
        <time>2021-04-10T07:33:42.000Z</time>
      </trkpt>
      <trkpt lat="37.93626786209643" lon="23.761666528880596">
        <ele>191.4</ele>
        <time>2021-04-10T07:33:43.000Z</time>
      </trkpt>
      <trkpt lat="37.93625973165035" lon="23.761686477810144">
        <ele>191.8</ele>
        <time>2021-04-10T07:33:44.000Z</time>
      </trkpt>
      <trkpt lat="37.9362400341779" lon="23.76172235235572">
        <ele>192.2</ele>
        <time>2021-04-10T07:33:47.000Z</time>
      </trkpt>
      <trkpt lat="37.936215894296765" lon="23.7617595680058">
        <ele>192.4</ele>
        <time>2021-04-10T07:33:50.000Z</time>
      </trkpt>
      <trkpt lat="37.93616627342999" lon="23.76180499792099">
        <ele>192.8</ele>
        <time>2021-04-10T07:33:55.000Z</time>
      </trkpt>
      <trkpt lat="37.93614297173917" lon="23.761842381209135">
        <ele>193.2</ele>
        <time>2021-04-10T07:33:58.000Z</time>
      </trkpt>
      <trkpt lat="37.93607549741864" lon="23.761909771710634">
        <ele>193.8</ele>
        <time>2021-04-10T07:34:05.000Z</time>
      </trkpt>
      <trkpt lat="37.93605772778392" lon="23.76192670315504">
        <ele>193.8</ele>
        <time>2021-04-10T07:34:07.000Z</time>
      </trkpt>
      <trkpt lat="37.936050267890096" lon="23.76193701289594">
        <ele>194</ele>
        <time>2021-04-10T07:34:08.000Z</time>
      </trkpt>
      <trkpt lat="37.9360431432724" lon="23.761946987360716">
        <ele>194</ele>
        <time>2021-04-10T07:34:09.000Z</time>
      </trkpt>
      <trkpt lat="37.936026295647025" lon="23.76198537647724">
        <ele>194.6</ele>
        <time>2021-04-10T07:34:12.000Z</time>
      </trkpt>
      <trkpt lat="37.93602168560028" lon="23.762001218274236">
        <ele>194.8</ele>
        <time>2021-04-10T07:34:13.000Z</time>
      </trkpt>
      <trkpt lat="37.9360034968704" lon="23.76202829182148">
        <ele>194.8</ele>
        <time>2021-04-10T07:34:15.000Z</time>
      </trkpt>
      <trkpt lat="37.935995534062386" lon="23.762044301256537">
        <ele>195</ele>
        <time>2021-04-10T07:34:16.000Z</time>
      </trkpt>
      <trkpt lat="37.9359860625118" lon="23.762060897424817">
        <ele>195.2</ele>
        <time>2021-04-10T07:34:17.000Z</time>
      </trkpt>
      <trkpt lat="37.93597617186606" lon="23.762116553261876">
        <ele>195.4</ele>
        <time>2021-04-10T07:34:20.000Z</time>
      </trkpt>
      <trkpt lat="37.93595806695521" lon="23.76215871423483">
        <ele>195.4</ele>
        <time>2021-04-10T07:34:22.000Z</time>
      </trkpt>
      <trkpt lat="37.935941806063056" lon="23.762184530496597">
        <ele>195.6</ele>
        <time>2021-04-10T07:34:24.000Z</time>
      </trkpt>
      <trkpt lat="37.93592336587608" lon="23.762222919613123">
        <ele>195.6</ele>
        <time>2021-04-10T07:34:28.000Z</time>
      </trkpt>
      <trkpt lat="37.93587014079094" lon="23.762290813028812">
        <ele>196</ele>
        <time>2021-04-10T07:34:34.000Z</time>
      </trkpt>
      <trkpt lat="37.93585220351815" lon="23.762311348691583">
        <ele>196.2</ele>
        <time>2021-04-10T07:34:36.000Z</time>
      </trkpt>
      <trkpt lat="37.93584482744336" lon="23.762325514107943">
        <ele>196.2</ele>
        <time>2021-04-10T07:34:37.000Z</time>
      </trkpt>
      <trkpt lat="37.93578514829278" lon="23.76242944970727">
        <ele>196.6</ele>
        <time>2021-04-10T07:34:44.000Z</time>
      </trkpt>
      <trkpt lat="37.935765367001295" lon="23.76247001811862">
        <ele>196.6</ele>
        <time>2021-04-10T07:34:47.000Z</time>
      </trkpt>
      <trkpt lat="37.935759918764234" lon="23.762480411678553">
        <ele>196.8</ele>
        <time>2021-04-10T07:34:48.000Z</time>
      </trkpt>
      <trkpt lat="37.935751201584935" lon="23.762497594580054">
        <ele>197</ele>
        <time>2021-04-10T07:34:49.000Z</time>
      </trkpt>
      <trkpt lat="37.935740975663066" lon="23.76251259818673">
        <ele>197.2</ele>
        <time>2021-04-10T07:34:50.000Z</time>
      </trkpt>
      <trkpt lat="37.93572345748544" lon="23.762533804401755">
        <ele>197.4</ele>
        <time>2021-04-10T07:34:52.000Z</time>
      </trkpt>
      <trkpt lat="37.93566168285906" lon="23.762594908475876">
        <ele>198</ele>
        <time>2021-04-10T07:34:58.000Z</time>
      </trkpt>
      <trkpt lat="37.9355994053185" lon="23.76269666478038">
        <ele>197.8</ele>
        <time>2021-04-10T07:35:04.000Z</time>
      </trkpt>
      <trkpt lat="37.935564033687115" lon="23.762799259275198">
        <ele>197.8</ele>
        <time>2021-04-10T07:35:10.000Z</time>
      </trkpt>
      <trkpt lat="37.93553905561566" lon="23.76286530867219">
        <ele>198.2</ele>
        <time>2021-04-10T07:35:14.000Z</time>
      </trkpt>
      <trkpt lat="37.93552623130381" lon="23.762880647554994">
        <ele>198.6</ele>
        <time>2021-04-10T07:35:16.000Z</time>
      </trkpt>
      <trkpt lat="37.935518603771925" lon="23.7628888618201">
        <ele>198.8</ele>
        <time>2021-04-10T07:35:17.000Z</time>
      </trkpt>
      <trkpt lat="37.935482896864414" lon="23.762939823791385">
        <ele>199.2</ele>
        <time>2021-04-10T07:35:21.000Z</time>
      </trkpt>
      <trkpt lat="37.93547451496124" lon="23.76296052709222">
        <ele>199.4</ele>
        <time>2021-04-10T07:35:22.000Z</time>
      </trkpt>
      <trkpt lat="37.935405783355236" lon="23.763078879565">
        <ele>199.4</ele>
        <time>2021-04-10T07:35:29.000Z</time>
      </trkpt>
      <trkpt lat="37.935361694544554" lon="23.763138139620423">
        <ele>199.8</ele>
        <time>2021-04-10T07:35:36.000Z</time>
      </trkpt>
      <trkpt lat="37.9353248141706" lon="23.763220282271504">
        <ele>200</ele>
        <time>2021-04-10T07:35:41.000Z</time>
      </trkpt>
      <trkpt lat="37.93531618081033" lon="23.763245176523924">
        <ele>200</ele>
        <time>2021-04-10T07:35:43.000Z</time>
      </trkpt>
      <trkpt lat="37.93528181500733" lon="23.763292031362653">
        <ele>199.6</ele>
        <time>2021-04-10T07:35:47.000Z</time>
      </trkpt>
      <trkpt lat="37.935263039544225" lon="23.763322290033102">
        <ele>199.6</ele>
        <time>2021-04-10T07:35:49.000Z</time>
      </trkpt>
      <trkpt lat="37.935227835550904" lon="23.763394206762314">
        <ele>200.4</ele>
        <time>2021-04-10T07:35:54.000Z</time>
      </trkpt>
      <trkpt lat="37.93522045947611" lon="23.763422537595034">
        <ele>200.6</ele>
        <time>2021-04-10T07:35:56.000Z</time>
      </trkpt>
      <trkpt lat="37.93520411476493" lon="23.763451538980007">
        <ele>200.8</ele>
        <time>2021-04-10T07:35:58.000Z</time>
      </trkpt>
      <trkpt lat="37.93519095517695" lon="23.763485653325915">
        <ele>201</ele>
        <time>2021-04-10T07:36:00.000Z</time>
      </trkpt>
      <trkpt lat="37.9351781308651" lon="23.763524210080504">
        <ele>201</ele>
        <time>2021-04-10T07:36:02.000Z</time>
      </trkpt>
      <trkpt lat="37.93516882695258" lon="23.763544661924243">
        <ele>201</ele>
        <time>2021-04-10T07:36:03.000Z</time>
      </trkpt>
      <trkpt lat="37.93516321107745" lon="23.763576177880168">
        <ele>201</ele>
        <time>2021-04-10T07:36:04.000Z</time>
      </trkpt>
      <trkpt lat="37.93515332043171" lon="23.763616662472486">
        <ele>201.4</ele>
        <time>2021-04-10T07:36:06.000Z</time>
      </trkpt>
      <trkpt lat="37.93511996045709" lon="23.7636936083436">
        <ele>201.8</ele>
        <time>2021-04-10T07:36:11.000Z</time>
      </trkpt>
      <trkpt lat="37.93509313836694" lon="23.76378094777465">
        <ele>202.2</ele>
        <time>2021-04-10T07:36:17.000Z</time>
      </trkpt>
      <trkpt lat="37.93509070761502" lon="23.76383031718433">
        <ele>202.2</ele>
        <time>2021-04-10T07:36:19.000Z</time>
      </trkpt>
      <trkpt lat="37.935043182224035" lon="23.76386166550219">
        <ele>202.2</ele>
        <time>2021-04-10T07:36:23.000Z</time>
      </trkpt>
      <trkpt lat="37.93502633459866" lon="23.76386258751154">
        <ele>202.2</ele>
        <time>2021-04-10T07:36:24.000Z</time>
      </trkpt>
      <trkpt lat="37.934951819479465" lon="23.763905838131905">
        <ele>202</ele>
        <time>2021-04-10T07:36:31.000Z</time>
      </trkpt>
      <trkpt lat="37.934926422312856" lon="23.76393785700202">
        <ele>202</ele>
        <time>2021-04-10T07:36:33.000Z</time>
      </trkpt>
      <trkpt lat="37.93487135320902" lon="23.763984628021717">
        <ele>202.2</ele>
        <time>2021-04-10T07:36:37.000Z</time>
      </trkpt>
      <trkpt lat="37.93483346700668" lon="23.76401513814926">
        <ele>202.4</ele>
        <time>2021-04-10T07:36:40.000Z</time>
      </trkpt>
      <trkpt lat="37.93482198379934" lon="23.764027459546924">
        <ele>202.4</ele>
        <time>2021-04-10T07:36:41.000Z</time>
      </trkpt>
      <trkpt lat="37.934786695986986" lon="23.764082863926888">
        <ele>202</ele>
        <time>2021-04-10T07:36:45.000Z</time>
      </trkpt>
      <trkpt lat="37.93475987389684" lon="23.764107506722212">
        <ele>202.2</ele>
        <time>2021-04-10T07:36:51.000Z</time>
      </trkpt>
      <trkpt lat="37.93474922887981" lon="23.76412150450051">
        <ele>202.2</ele>
        <time>2021-04-10T07:36:53.000Z</time>
      </trkpt>
      <trkpt lat="37.93472676537931" lon="23.76417246647179">
        <ele>202.6</ele>
        <time>2021-04-10T07:36:56.000Z</time>
      </trkpt>
      <trkpt lat="37.934706062078476" lon="23.76419392414391">
        <ele>202.6</ele>
        <time>2021-04-10T07:36:58.000Z</time>
      </trkpt>
      <trkpt lat="37.93459919281304" lon="23.764255698770285">
        <ele>201.8</ele>
        <time>2021-04-10T07:37:06.000Z</time>
      </trkpt>
      <trkpt lat="37.93451428413391" lon="23.764317138120532">
        <ele>201.4</ele>
        <time>2021-04-10T07:37:13.000Z</time>
      </trkpt>
      <trkpt lat="37.93449307791889" lon="23.764341780915856">
        <ele>201.4</ele>
        <time>2021-04-10T07:37:15.000Z</time>
      </trkpt>
      <trkpt lat="37.934433901682496" lon="23.76439969986677">
        <ele>201.2</ele>
        <time>2021-04-10T07:37:20.000Z</time>
      </trkpt>
      <trkpt lat="37.93438419699669" lon="23.76442115753889">
        <ele>201.6</ele>
        <time>2021-04-10T07:37:26.000Z</time>
      </trkpt>
      <trkpt lat="37.934378078207374" lon="23.764430293813348">
        <ele>201.6</ele>
        <time>2021-04-10T07:37:27.000Z</time>
      </trkpt>
      <trkpt lat="37.934372713789344" lon="23.764439346268773">
        <ele>201.8</ele>
        <time>2021-04-10T07:37:28.000Z</time>
      </trkpt>
      <trkpt lat="37.93436659500003" lon="23.764443788677454">
        <ele>202.2</ele>
        <time>2021-04-10T07:37:29.000Z</time>
      </trkpt>
      <trkpt lat="37.93436114676297" lon="23.764450075104833">
        <ele>202.4</ele>
        <time>2021-04-10T07:37:30.000Z</time>
      </trkpt>
      <trkpt lat="37.93434899300337" lon="23.764486452564597">
        <ele>202.8</ele>
        <time>2021-04-10T07:37:33.000Z</time>
      </trkpt>
      <trkpt lat="37.9343456402421" lon="23.764498438686132">
        <ele>202.8</ele>
        <time>2021-04-10T07:37:34.000Z</time>
      </trkpt>
      <trkpt lat="37.934308256953955" lon="23.764476729556918">
        <ele>203.2</ele>
        <time>2021-04-10T07:37:39.000Z</time>
      </trkpt>
      <trkpt lat="37.93428948149085" lon="23.76447295770049">
        <ele>203.4</ele>
        <time>2021-04-10T07:37:41.000Z</time>
      </trkpt>
      <trkpt lat="37.93428218923509" lon="23.764470862224698">
        <ele>203.6</ele>
        <time>2021-04-10T07:37:42.000Z</time>
      </trkpt>
      <trkpt lat="37.93426835909486" lon="23.764464743435383">
        <ele>204</ele>
        <time>2021-04-10T07:37:44.000Z</time>
      </trkpt>
      <trkpt lat="37.93425176292658" lon="23.764477903023362">
        <ele>204.6</ele>
        <time>2021-04-10T07:37:47.000Z</time>
      </trkpt>
      <trkpt lat="37.93425293639302" lon="23.76452324911952">
        <ele>205.6</ele>
        <time>2021-04-10T07:37:50.000Z</time>
      </trkpt>
      <trkpt lat="37.93427045457065" lon="23.764577228575945">
        <ele>206</ele>
        <time>2021-04-10T07:37:53.000Z</time>
      </trkpt>
      <trkpt lat="37.934275986626744" lon="23.764593908563256">
        <ele>206.2</ele>
        <time>2021-04-10T07:37:55.000Z</time>
      </trkpt>
      <trkpt lat="37.93427908793092" lon="23.7645950820297">
        <ele>206.4</ele>
        <time>2021-04-10T07:37:56.000Z</time>
      </trkpt>
      <trkpt lat="37.9342800937593" lon="23.76459063962102">
        <ele>206.6</ele>
        <time>2021-04-10T07:37:57.000Z</time>
      </trkpt>
      <trkpt lat="37.93428277596831" lon="23.764564152806997">
        <ele>207.2</ele>
        <time>2021-04-10T07:38:00.000Z</time>
      </trkpt>
      <trkpt lat="37.93428151868284" lon="23.76454764045775">
        <ele>207.6</ele>
        <time>2021-04-10T07:38:06.000Z</time>
      </trkpt>
      <trkpt lat="37.93428026139736" lon="23.764545964077115">
        <ele>207.8</ele>
        <time>2021-04-10T07:38:07.000Z</time>
      </trkpt>
      <trkpt lat="37.93427682481706" lon="23.76454076729715">
        <ele>207.8</ele>
        <time>2021-04-10T07:38:09.000Z</time>
      </trkpt>
      <trkpt lat="37.93425721116364" lon="23.764509251341224">
        <ele>207.6</ele>
        <time>2021-04-10T07:38:15.000Z</time>
      </trkpt>
      <trkpt lat="37.93426165357232" lon="23.76451008953154">
        <ele>207.6</ele>
        <time>2021-04-10T07:38:16.000Z</time>
      </trkpt>
      <trkpt lat="37.93430331163108" lon="23.764497935771942">
        <ele>207.6</ele>
        <time>2021-04-10T07:38:21.000Z</time>
      </trkpt>
      <trkpt lat="37.93431454338133" lon="23.764485279098153">
        <ele>207.8</ele>
        <time>2021-04-10T07:38:23.000Z</time>
      </trkpt>
      <trkpt lat="37.93431521393359" lon="23.76447874121368">
        <ele>208</ele>
        <time>2021-04-10T07:38:24.000Z</time>
      </trkpt>
      <trkpt lat="37.93431429192424" lon="23.76448175869882">
        <ele>208.4</ele>
        <time>2021-04-10T07:38:27.000Z</time>
      </trkpt>
      <trkpt lat="37.93430272489786" lon="23.76448226161301">
        <ele>208.6</ele>
        <time>2021-04-10T07:38:31.000Z</time>
      </trkpt>
      <trkpt lat="37.934284787625074" lon="23.76446709036827">
        <ele>208.2</ele>
        <time>2021-04-10T07:38:39.000Z</time>
      </trkpt>
      <trkpt lat="37.93429124169052" lon="23.764464994892478">
        <ele>208</ele>
        <time>2021-04-10T07:38:42.000Z</time>
      </trkpt>
      <trkpt lat="37.93436382897198" lon="23.764466168358922">
        <ele>208.2</ele>
        <time>2021-04-10T07:38:49.000Z</time>
      </trkpt>
      <trkpt lat="37.93438218533993" lon="23.764467928558588">
        <ele>208.2</ele>
        <time>2021-04-10T07:38:53.000Z</time>
      </trkpt>
      <trkpt lat="37.93439098633826" lon="23.764452086761594">
        <ele>208.6</ele>
        <time>2021-04-10T07:38:56.000Z</time>
      </trkpt>
      <trkpt lat="37.93441588059068" lon="23.7644534278661">
        <ele>208.8</ele>
        <time>2021-04-10T07:38:58.000Z</time>
      </trkpt>
      <trkpt lat="37.934426022693515" lon="23.76444990746677">
        <ele>208.8</ele>
        <time>2021-04-10T07:38:59.000Z</time>
      </trkpt>
      <trkpt lat="37.93445016257465" lon="23.76445434987545">
        <ele>208.6</ele>
        <time>2021-04-10T07:39:01.000Z</time>
      </trkpt>
      <trkpt lat="37.93446525000036" lon="23.764447895810008">
        <ele>208.4</ele>
        <time>2021-04-10T07:39:03.000Z</time>
      </trkpt>
      <trkpt lat="37.93446533381939" lon="23.764442866668105">
        <ele>208.4</ele>
        <time>2021-04-10T07:39:04.000Z</time>
      </trkpt>
      <trkpt lat="37.9344629868865" lon="23.764447141438723">
        <ele>208.4</ele>
        <time>2021-04-10T07:39:05.000Z</time>
      </trkpt>
      <trkpt lat="37.93444865383208" lon="23.76444848254323">
        <ele>208.2</ele>
        <time>2021-04-10T07:39:07.000Z</time>
      </trkpt>
      <trkpt lat="37.93442585505545" lon="23.764454601332545">
        <ele>207.8</ele>
        <time>2021-04-10T07:39:09.000Z</time>
      </trkpt>
      <trkpt lat="37.934399703517556" lon="23.764424845576286">
        <ele>206.6</ele>
        <time>2021-04-10T07:39:13.000Z</time>
      </trkpt>
      <trkpt lat="37.93438763357699" lon="23.76441042870283">
        <ele>206.2</ele>
        <time>2021-04-10T07:39:15.000Z</time>
      </trkpt>
      <trkpt lat="37.93437849730253" lon="23.764401208609343">
        <ele>205.6</ele>
        <time>2021-04-10T07:39:17.000Z</time>
      </trkpt>
      <trkpt lat="37.93437598273158" lon="23.764398777857423">
        <ele>205.4</ele>
        <time>2021-04-10T07:39:18.000Z</time>
      </trkpt>
      <trkpt lat="37.934330301359296" lon="23.764377404004335">
        <ele>205</ele>
        <time>2021-04-10T07:39:23.000Z</time>
      </trkpt>
      <trkpt lat="37.934325439855456" lon="23.764372877776623">
        <ele>205.2</ele>
        <time>2021-04-10T07:39:24.000Z</time>
      </trkpt>
      <trkpt lat="37.9342988692224" lon="23.764319317415357">
        <ele>205</ele>
        <time>2021-04-10T07:39:29.000Z</time>
      </trkpt>
      <trkpt lat="37.934338096529245" lon="23.76432526856661">
        <ele>204.8</ele>
        <time>2021-04-10T07:39:33.000Z</time>
      </trkpt>
      <trkpt lat="37.934257881715894" lon="23.764314204454422">
        <ele>204.6</ele>
        <time>2021-04-10T07:39:35.000Z</time>
      </trkpt>
      <trkpt lat="37.934248661622405" lon="23.764304062351584">
        <ele>204.4</ele>
        <time>2021-04-10T07:39:37.000Z</time>
      </trkpt>
      <trkpt lat="37.93424438685179" lon="23.7643049005419">
        <ele>204.4</ele>
        <time>2021-04-10T07:39:38.000Z</time>
      </trkpt>
      <trkpt lat="37.93423022143543" lon="23.76432292163372">
        <ele>204.4</ele>
        <time>2021-04-10T07:39:40.000Z</time>
      </trkpt>
      <trkpt lat="37.934230640530586" lon="23.764323089271784">
        <ele>204.4</ele>
        <time>2021-04-10T07:39:41.000Z</time>
      </trkpt>
      <trkpt lat="37.93423634022474" lon="23.764334907755256">
        <ele>204.2</ele>
        <time>2021-04-10T07:39:43.000Z</time>
      </trkpt>
      <trkpt lat="37.93423625640571" lon="23.76433415338397">
        <ele>203.6</ele>
        <time>2021-04-10T07:39:48.000Z</time>
      </trkpt>
      <trkpt lat="37.93425964191556" lon="23.76431940123439">
        <ele>203.4</ele>
        <time>2021-04-10T07:39:56.000Z</time>
      </trkpt>
      <trkpt lat="37.934270119294524" lon="23.764319568872452">
        <ele>203.2</ele>
        <time>2021-04-10T07:39:57.000Z</time>
      </trkpt>
      <trkpt lat="37.934283781796694" lon="23.76433515921235">
        <ele>204</ele>
        <time>2021-04-10T07:40:05.000Z</time>
      </trkpt>
      <trkpt lat="37.93428059667349" lon="23.76433163881302">
        <ele>204.4</ele>
        <time>2021-04-10T07:40:07.000Z</time>
      </trkpt>
      <trkpt lat="37.9342782497406" lon="23.764320155605674">
        <ele>204.6</ele>
        <time>2021-04-10T07:40:12.000Z</time>
      </trkpt>
      <trkpt lat="37.934799771755934" lon="23.764334740117192">
        <ele>204</ele>
        <time>2021-04-10T08:06:13.000Z</time>
      </trkpt>
      <trkpt lat="37.93480052612722" lon="23.764334740117192">
        <ele>204</ele>
        <time>2021-04-10T08:06:14.000Z</time>
      </trkpt>
      <trkpt lat="37.934817373752594" lon="23.764394335448742">
        <ele>205</ele>
        <time>2021-04-10T08:06:18.000Z</time>
      </trkpt>
      <trkpt lat="37.93482600711286" lon="23.764410512521863">
        <ele>205.2</ele>
        <time>2021-04-10T08:06:20.000Z</time>
      </trkpt>
      <trkpt lat="37.934834472835064" lon="23.76443129964173">
        <ele>205.4</ele>
        <time>2021-04-10T08:06:22.000Z</time>
      </trkpt>
      <trkpt lat="37.93484997935593" lon="23.764468850567937">
        <ele>205.8</ele>
        <time>2021-04-10T08:06:25.000Z</time>
      </trkpt>
      <trkpt lat="37.93486816808581" lon="23.76451302319765">
        <ele>206</ele>
        <time>2021-04-10T08:06:28.000Z</time>
      </trkpt>
      <trkpt lat="37.93490454554558" lon="23.76459022052586">
        <ele>206.4</ele>
        <time>2021-04-10T08:06:33.000Z</time>
      </trkpt>
      <trkpt lat="37.93492172844708" lon="23.764648977667093">
        <ele>207</ele>
        <time>2021-04-10T08:06:38.000Z</time>
      </trkpt>
      <trkpt lat="37.93493052944541" lon="23.76466892659664">
        <ele>207.4</ele>
        <time>2021-04-10T08:06:40.000Z</time>
      </trkpt>
      <trkpt lat="37.93497461825609" lon="23.764752745628357">
        <ele>208</ele>
        <time>2021-04-10T08:06:46.000Z</time>
      </trkpt>
      <trkpt lat="37.934985011816025" lon="23.76475827768445">
        <ele>208.2</ele>
        <time>2021-04-10T08:06:47.000Z</time>
      </trkpt>
      <trkpt lat="37.935012336820364" lon="23.764817202463746">
        <ele>208.4</ele>
        <time>2021-04-10T08:06:54.000Z</time>
      </trkpt>
      <trkpt lat="37.935020215809345" lon="23.764861458912492">
        <ele>208.4</ele>
        <time>2021-04-10T08:06:56.000Z</time>
      </trkpt>
      <trkpt lat="37.93502633459866" lon="23.7648852635175">
        <ele>208.6</ele>
        <time>2021-04-10T08:06:57.000Z</time>
      </trkpt>
      <trkpt lat="37.93503714725375" lon="23.76491518691182">
        <ele>208.6</ele>
        <time>2021-04-10T08:06:59.000Z</time>
      </trkpt>
      <trkpt lat="37.935044188052416" lon="23.76493077725172">
        <ele>208.6</ele>
        <time>2021-04-10T08:07:00.000Z</time>
      </trkpt>
      <trkpt lat="37.93505089357495" lon="23.764945026487112">
        <ele>208.6</ele>
        <time>2021-04-10T08:07:01.000Z</time>
      </trkpt>
      <trkpt lat="37.93510294519365" lon="23.76501719467342">
        <ele>208.8</ele>
        <time>2021-04-10T08:07:06.000Z</time>
      </trkpt>
      <trkpt lat="37.93510923162103" lon="23.76503043808043">
        <ele>208.8</ele>
        <time>2021-04-10T08:07:07.000Z</time>
      </trkpt>
      <trkpt lat="37.93513588607311" lon="23.76508123241365">
        <ele>209.2</ele>
        <time>2021-04-10T08:07:11.000Z</time>
      </trkpt>
      <trkpt lat="37.935142423957586" lon="23.765093637630343">
        <ele>209.2</ele>
        <time>2021-04-10T08:07:12.000Z</time>
      </trkpt>
      <trkpt lat="37.93515147641301" lon="23.765110736712813">
        <ele>209.4</ele>
        <time>2021-04-10T08:07:13.000Z</time>
      </trkpt>
      <trkpt lat="37.93517670594156" lon="23.765163961797953">
        <ele>209.8</ele>
        <time>2021-04-10T08:07:17.000Z</time>
      </trkpt>
      <trkpt lat="37.935174191370606" lon="23.765168068930507">
        <ele>210</ele>
        <time>2021-04-10T08:07:18.000Z</time>
      </trkpt>
      <trkpt lat="37.935169246047735" lon="23.765170834958553">
        <ele>210.2</ele>
        <time>2021-04-10T08:07:19.000Z</time>
      </trkpt>
      <trkpt lat="37.935162456706166" lon="23.76518432982266">
        <ele>210.6</ele>
        <time>2021-04-10T08:07:21.000Z</time>
      </trkpt>
      <trkpt lat="37.935144854709506" lon="23.76518240198493">
        <ele>211</ele>
        <time>2021-04-10T08:07:24.000Z</time>
      </trkpt>
      <trkpt lat="37.935176119208336" lon="23.765177372843027">
        <ele>211</ele>
        <time>2021-04-10T08:07:31.000Z</time>
      </trkpt>
      <trkpt lat="37.93520160019398" lon="23.765152394771576">
        <ele>211.2</ele>
        <time>2021-04-10T08:07:38.000Z</time>
      </trkpt>
      <trkpt lat="37.935200510546565" lon="23.765119118615985">
        <ele>211</ele>
        <time>2021-04-10T08:07:43.000Z</time>
      </trkpt>
      <trkpt lat="37.935204366222024" lon="23.765121465548873">
        <ele>211</ele>
        <time>2021-04-10T08:07:44.000Z</time>
      </trkpt>
      <trkpt lat="37.93522180058062" lon="23.76516915857792">
        <ele>211.2</ele>
        <time>2021-04-10T08:07:47.000Z</time>
      </trkpt>
      <trkpt lat="37.9352299310267" lon="23.765200087800622">
        <ele>211.2</ele>
        <time>2021-04-10T08:07:48.000Z</time>
      </trkpt>
      <trkpt lat="37.935231272131205" lon="23.765220874920487">
        <ele>211.4</ele>
        <time>2021-04-10T08:07:49.000Z</time>
      </trkpt>
      <trkpt lat="37.935230350121856" lon="23.765236968174577">
        <ele>211.4</ele>
        <time>2021-04-10T08:07:50.000Z</time>
      </trkpt>
      <trkpt lat="37.9352365527302" lon="23.765273680910468">
        <ele>211.4</ele>
        <time>2021-04-10T08:07:53.000Z</time>
      </trkpt>
      <trkpt lat="37.93524879030883" lon="23.765302766114473">
        <ele>211.8</ele>
        <time>2021-04-10T08:07:56.000Z</time>
      </trkpt>
      <trkpt lat="37.9352539870888" lon="23.765314668416977">
        <ele>211.8</ele>
        <time>2021-04-10T08:07:57.000Z</time>
      </trkpt>
      <trkpt lat="37.935266895219684" lon="23.765331096947193">
        <ele>212.2</ele>
        <time>2021-04-10T08:08:01.000Z</time>
      </trkpt>
      <trkpt lat="37.935277288779616" lon="23.76529823988676">
        <ele>213</ele>
        <time>2021-04-10T08:08:05.000Z</time>
      </trkpt>
      <trkpt lat="37.935276282951236" lon="23.765282230451703">
        <ele>213.2</ele>
        <time>2021-04-10T08:08:07.000Z</time>
      </trkpt>
      <trkpt lat="37.935274774208665" lon="23.765273429453373">
        <ele>213.6</ele>
        <time>2021-04-10T08:08:09.000Z</time>
      </trkpt>
      <trkpt lat="37.935259100049734" lon="23.76529036089778">
        <ele>213.6</ele>
        <time>2021-04-10T08:08:12.000Z</time>
      </trkpt>
      <trkpt lat="37.93525775894523" lon="23.765332270413637">
        <ele>214.2</ele>
        <time>2021-04-10T08:08:17.000Z</time>
      </trkpt>
      <trkpt lat="37.935253735631704" lon="23.76535632647574">
        <ele>214.6</ele>
        <time>2021-04-10T08:08:19.000Z</time>
      </trkpt>
      <trkpt lat="37.93525733985007" lon="23.76536563038826">
        <ele>214.8</ele>
        <time>2021-04-10T08:08:20.000Z</time>
      </trkpt>
      <trkpt lat="37.93526781722903" lon="23.76538314856589">
        <ele>215</ele>
        <time>2021-04-10T08:08:22.000Z</time>
      </trkpt>
      <trkpt lat="37.935277204960585" lon="23.765403516590595">
        <ele>215.4</ele>
        <time>2021-04-10T08:08:24.000Z</time>
      </trkpt>
      <trkpt lat="37.935288939625025" lon="23.765420615673065">
        <ele>215.6</ele>
        <time>2021-04-10T08:08:26.000Z</time>
      </trkpt>
      <trkpt lat="37.93529639951885" lon="23.765443498268723">
        <ele>216</ele>
        <time>2021-04-10T08:08:28.000Z</time>
      </trkpt>
      <trkpt lat="37.93530344031751" lon="23.765454813838005">
        <ele>216.2</ele>
        <time>2021-04-10T08:08:29.000Z</time>
      </trkpt>
      <trkpt lat="37.935311486944556" lon="23.76546822488308">
        <ele>216.4</ele>
        <time>2021-04-10T08:08:30.000Z</time>
      </trkpt>
      <trkpt lat="37.93532917276025" lon="23.765505105257034">
        <ele>216.4</ele>
        <time>2021-04-10T08:08:32.000Z</time>
      </trkpt>
      <trkpt lat="37.935361275449395" lon="23.765559252351522">
        <ele>217.4</ele>
        <time>2021-04-10T08:08:37.000Z</time>
      </trkpt>
      <trkpt lat="37.935343170538545" lon="23.765550535172224">
        <ele>217.6</ele>
        <time>2021-04-10T08:08:38.000Z</time>
      </trkpt>
      <trkpt lat="37.93533772230148" lon="23.765560509636998">
        <ele>217.4</ele>
        <time>2021-04-10T08:08:41.000Z</time>
      </trkpt>
      <trkpt lat="37.93534048832953" lon="23.765573417767882">
        <ele>217.2</ele>
        <time>2021-04-10T08:08:43.000Z</time>
      </trkpt>
      <trkpt lat="37.9353678971529" lon="23.765617506578565">
        <ele>216.8</ele>
        <time>2021-04-10T08:08:50.000Z</time>
      </trkpt>
      <trkpt lat="37.93536580167711" lon="23.76563150435686">
        <ele>217</ele>
        <time>2021-04-10T08:08:56.000Z</time>
      </trkpt>
      <trkpt lat="37.93537041172385" lon="23.765644915401936">
        <ele>217</ele>
        <time>2021-04-10T08:08:58.000Z</time>
      </trkpt>
      <trkpt lat="37.93539815582335" lon="23.765679951757193">
        <ele>217.8</ele>
        <time>2021-04-10T08:09:04.000Z</time>
      </trkpt>
      <trkpt lat="37.93541852384806" lon="23.765712389722466">
        <ele>218.6</ele>
        <time>2021-04-10T08:09:09.000Z</time>
      </trkpt>
      <trkpt lat="37.93542950414121" lon="23.765744911506772">
        <ele>219.2</ele>
        <time>2021-04-10T08:09:12.000Z</time>
      </trkpt>
      <trkpt lat="37.93543201871216" lon="23.765756227076054">
        <ele>219.8</ele>
        <time>2021-04-10T08:09:13.000Z</time>
      </trkpt>
      <trkpt lat="37.935434533283114" lon="23.765764692798257">
        <ele>220.2</ele>
        <time>2021-04-10T08:09:14.000Z</time>
      </trkpt>
      <trkpt lat="37.93544962070882" lon="23.76579754985869">
        <ele>220.8</ele>
        <time>2021-04-10T08:09:18.000Z</time>
      </trkpt>
      <trkpt lat="37.935458002611995" lon="23.76580542884767">
        <ele>221.2</ele>
        <time>2021-04-10T08:09:19.000Z</time>
      </trkpt>
      <trkpt lat="37.93553058989346" lon="23.76584348268807">
        <ele>222</ele>
        <time>2021-04-10T08:09:24.000Z</time>
      </trkpt>
      <trkpt lat="37.93553838506341" lon="23.76584650017321">
        <ele>222.2</ele>
        <time>2021-04-10T08:09:25.000Z</time>
      </trkpt>
      <trkpt lat="37.93557015247643" lon="23.76588363200426">
        <ele>223</ele>
        <time>2021-04-10T08:09:29.000Z</time>
      </trkpt>
      <trkpt lat="37.93558104895055" lon="23.76592906191945">
        <ele>223.6</ele>
        <time>2021-04-10T08:09:33.000Z</time>
      </trkpt>
      <trkpt lat="37.93558691628277" lon="23.765958482399583">
        <ele>224</ele>
        <time>2021-04-10T08:09:36.000Z</time>
      </trkpt>
      <trkpt lat="37.935591442510486" lon="23.765995781868696">
        <ele>225.2</ele>
        <time>2021-04-10T08:09:40.000Z</time>
      </trkpt>
      <trkpt lat="37.935615833848715" lon="23.766051940619946">
        <ele>226.4</ele>
        <time>2021-04-10T08:09:46.000Z</time>
      </trkpt>
      <trkpt lat="37.935637878254056" lon="23.766071889549494">
        <ele>226.6</ele>
        <time>2021-04-10T08:09:48.000Z</time>
      </trkpt>
      <trkpt lat="37.935666125267744" lon="23.766109440475702">
        <ele>227</ele>
        <time>2021-04-10T08:09:51.000Z</time>
      </trkpt>
      <trkpt lat="37.935675932094455" lon="23.766123186796904">
        <ele>227.6</ele>
        <time>2021-04-10T08:09:53.000Z</time>
      </trkpt>
      <trkpt lat="37.93568640947342" lon="23.76614263281226">
        <ele>227.8</ele>
        <time>2021-04-10T08:09:55.000Z</time>
      </trkpt>
      <trkpt lat="37.935721362009645" lon="23.766177082434297">
        <ele>228.4</ele>
        <time>2021-04-10T08:09:59.000Z</time>
      </trkpt>
      <trkpt lat="37.935736533254385" lon="23.7661977019161">
        <ele>228.8</ele>
        <time>2021-04-10T08:10:01.000Z</time>
      </trkpt>
      <trkpt lat="37.9357442446053" lon="23.76620759256184">
        <ele>229.2</ele>
        <time>2021-04-10T08:10:02.000Z</time>
      </trkpt>
      <trkpt lat="37.935759918764234" lon="23.766243802383542">
        <ele>230</ele>
        <time>2021-04-10T08:10:06.000Z</time>
      </trkpt>
      <trkpt lat="37.93576838448644" lon="23.766267858445644">
        <ele>230.4</ele>
        <time>2021-04-10T08:10:08.000Z</time>
      </trkpt>
      <trkpt lat="37.9357738327235" lon="23.76628520898521">
        <ele>230.6</ele>
        <time>2021-04-10T08:10:09.000Z</time>
      </trkpt>
      <trkpt lat="37.935778023675084" lon="23.766300212591887">
        <ele>230.6</ele>
        <time>2021-04-10T08:10:10.000Z</time>
      </trkpt>
      <trkpt lat="37.93577844277024" lon="23.76632041297853">
        <ele>230.8</ele>
        <time>2021-04-10T08:10:12.000Z</time>
      </trkpt>
      <trkpt lat="37.93577492237091" lon="23.766334746032953">
        <ele>230.8</ele>
        <time>2021-04-10T08:10:13.000Z</time>
      </trkpt>
      <trkpt lat="37.93577475473285" lon="23.766369530931115">
        <ele>231</ele>
        <time>2021-04-10T08:10:15.000Z</time>
      </trkpt>
      <trkpt lat="37.93577743694186" lon="23.766384534537792">
        <ele>231.2</ele>
        <time>2021-04-10T08:10:16.000Z</time>
      </trkpt>
      <trkpt lat="37.93576545082033" lon="23.76650263555348">
        <ele>232.2</ele>
        <time>2021-04-10T08:10:22.000Z</time>
      </trkpt>
      <trkpt lat="37.935772659257054" lon="23.766602715477347">
        <ele>233</ele>
        <time>2021-04-10T08:10:29.000Z</time>
      </trkpt>
      <trkpt lat="37.93577869422734" lon="23.766616377979517">
        <ele>233</ele>
        <time>2021-04-10T08:10:30.000Z</time>
      </trkpt>
      <trkpt lat="37.935785902664065" lon="23.76663607545197">
        <ele>233.2</ele>
        <time>2021-04-10T08:10:34.000Z</time>
      </trkpt>
      <trkpt lat="37.935785902664065" lon="23.76663414761424">
        <ele>233.4</ele>
        <time>2021-04-10T08:10:36.000Z</time>
      </trkpt>
      <trkpt lat="37.935772240161896" lon="23.76658528111875">
        <ele>233.4</ele>
        <time>2021-04-10T08:10:45.000Z</time>
      </trkpt>
      <trkpt lat="37.935779113322496" lon="23.766596848145127">
        <ele>233.4</ele>
        <time>2021-04-10T08:10:50.000Z</time>
      </trkpt>
      <trkpt lat="37.93580526486039" lon="23.766658790409565">
        <ele>233.2</ele>
        <time>2021-04-10T08:10:53.000Z</time>
      </trkpt>
      <trkpt lat="37.93582621961832" lon="23.766722325235605">
        <ele>233.2</ele>
        <time>2021-04-10T08:10:57.000Z</time>
      </trkpt>
      <trkpt lat="37.93583108112216" lon="23.76673665829003">
        <ele>233.2</ele>
        <time>2021-04-10T08:10:59.000Z</time>
      </trkpt>
      <trkpt lat="37.93583661317825" lon="23.766747806221247">
        <ele>233.4</ele>
        <time>2021-04-10T08:11:00.000Z</time>
      </trkpt>
      <trkpt lat="37.93588782660663" lon="23.766845539212227">
        <ele>234.4</ele>
        <time>2021-04-10T08:11:07.000Z</time>
      </trkpt>
      <trkpt lat="37.93593518435955" lon="23.766951067373157">
        <ele>234.4</ele>
        <time>2021-04-10T08:11:14.000Z</time>
      </trkpt>
      <trkpt lat="37.93595664203167" lon="23.767004376277328">
        <ele>234.8</ele>
        <time>2021-04-10T08:11:18.000Z</time>
      </trkpt>
      <trkpt lat="37.93598899617791" lon="23.76703388057649">
        <ele>235.4</ele>
        <time>2021-04-10T08:11:22.000Z</time>
      </trkpt>
      <trkpt lat="37.936004335060716" lon="23.76704947091639">
        <ele>235.6</ele>
        <time>2021-04-10T08:11:24.000Z</time>
      </trkpt>
      <trkpt lat="37.93602218851447" lon="23.767224652692676">
        <ele>236</ele>
        <time>2021-04-10T08:11:32.000Z</time>
      </trkpt>
      <trkpt lat="37.936048256233335" lon="23.767250468954444">
        <ele>236.4</ele>
        <time>2021-04-10T08:11:35.000Z</time>
      </trkpt>
      <trkpt lat="37.93611003085971" lon="23.767265137284994">
        <ele>236.6</ele>
        <time>2021-04-10T08:11:40.000Z</time>
      </trkpt>
      <trkpt lat="37.93613400310278" lon="23.767285086214542">
        <ele>237</ele>
        <time>2021-04-10T08:11:42.000Z</time>
      </trkpt>
      <trkpt lat="37.936143055558205" lon="23.767296904698014">
        <ele>237.2</ele>
        <time>2021-04-10T08:11:43.000Z</time>
      </trkpt>
      <trkpt lat="37.93615696951747" lon="23.76733236014843">
        <ele>237.6</ele>
        <time>2021-04-10T08:11:45.000Z</time>
      </trkpt>
      <trkpt lat="37.93616484850645" lon="23.76737628132105">
        <ele>237.8</ele>
        <time>2021-04-10T08:11:47.000Z</time>
      </trkpt>
      <trkpt lat="37.93617272749543" lon="23.767430428415537">
        <ele>238.4</ele>
        <time>2021-04-10T08:11:50.000Z</time>
      </trkpt>
      <trkpt lat="37.93616971001029" lon="23.767458088696003">
        <ele>238.6</ele>
        <time>2021-04-10T08:11:52.000Z</time>
      </trkpt>
      <trkpt lat="37.936166021972895" lon="23.767473846673965">
        <ele>238.6</ele>
        <time>2021-04-10T08:11:53.000Z</time>
      </trkpt>
      <trkpt lat="37.93615789152682" lon="23.767499579116702">
        <ele>239</ele>
        <time>2021-04-10T08:11:55.000Z</time>
      </trkpt>
      <trkpt lat="37.93613953515887" lon="23.767542578279972">
        <ele>239.4</ele>
        <time>2021-04-10T08:11:58.000Z</time>
      </trkpt>
      <trkpt lat="37.936134254559875" lon="23.76755657605827">
        <ele>239.6</ele>
        <time>2021-04-10T08:11:59.000Z</time>
      </trkpt>
      <trkpt lat="37.93613098561764" lon="23.767605358734727">
        <ele>240.6</ele>
        <time>2021-04-10T08:12:02.000Z</time>
      </trkpt>
      <trkpt lat="37.93616828508675" lon="23.767670402303338">
        <ele>241.4</ele>
        <time>2021-04-10T08:12:08.000Z</time>
      </trkpt>
      <trkpt lat="37.93617943301797" lon="23.767720442265272">
        <ele>241.8</ele>
        <time>2021-04-10T08:12:11.000Z</time>
      </trkpt>
      <trkpt lat="37.936244728043675" lon="23.767771823331714">
        <ele>243</ele>
        <time>2021-04-10T08:12:17.000Z</time>
      </trkpt>
      <trkpt lat="37.936265179887414" lon="23.767816331237555">
        <ele>244</ele>
        <time>2021-04-10T08:12:22.000Z</time>
      </trkpt>
      <trkpt lat="37.93627272360027" lon="23.76785757020116">
        <ele>244.8</ele>
        <time>2021-04-10T08:12:25.000Z</time>
      </trkpt>
      <trkpt lat="37.93626601807773" lon="23.767885733395815">
        <ele>245</ele>
        <time>2021-04-10T08:12:27.000Z</time>
      </trkpt>
      <trkpt lat="37.93625570833683" lon="23.767979191616178">
        <ele>245.6</ele>
        <time>2021-04-10T08:12:31.000Z</time>
      </trkpt>
      <trkpt lat="37.93624992482364" lon="23.76801012083888">
        <ele>246.2</ele>
        <time>2021-04-10T08:12:33.000Z</time>
      </trkpt>
      <trkpt lat="37.936249086633325" lon="23.768021687865257">
        <ele>246.4</ele>
        <time>2021-04-10T08:12:34.000Z</time>
      </trkpt>
      <trkpt lat="37.9362606536597" lon="23.768043229356408">
        <ele>246.8</ele>
        <time>2021-04-10T08:12:36.000Z</time>
      </trkpt>
      <trkpt lat="37.93628973886371" lon="23.76807407476008">
        <ele>247.2</ele>
        <time>2021-04-10T08:12:40.000Z</time>
      </trkpt>
      <trkpt lat="37.93629518710077" lon="23.76808002591133">
        <ele>247.4</ele>
        <time>2021-04-10T08:12:41.000Z</time>
      </trkpt>
      <trkpt lat="37.936312202364206" lon="23.76809360459447">
        <ele>248</ele>
        <time>2021-04-10T08:12:43.000Z</time>
      </trkpt>
      <trkpt lat="37.93631731532514" lon="23.768112547695637">
        <ele>248.4</ele>
        <time>2021-04-10T08:12:45.000Z</time>
      </trkpt>
      <trkpt lat="37.93630935251713" lon="23.76820122823119">
        <ele>249</ele>
        <time>2021-04-10T08:12:50.000Z</time>
      </trkpt>
      <trkpt lat="37.9363280441612" lon="23.76823048107326">
        <ele>249.6</ele>
        <time>2021-04-10T08:12:53.000Z</time>
      </trkpt>
      <trkpt lat="37.936367774382234" lon="23.768272642046213">
        <ele>250.2</ele>
        <time>2021-04-10T08:12:58.000Z</time>
      </trkpt>
      <trkpt lat="37.93636743910611" lon="23.768364675343037">
        <ele>250.8</ele>
        <time>2021-04-10T08:13:02.000Z</time>
      </trkpt>
      <trkpt lat="37.93638772331178" lon="23.768412452191114">
        <ele>251.2</ele>
        <time>2021-04-10T08:13:06.000Z</time>
      </trkpt>
      <trkpt lat="37.936397194862366" lon="23.76842108555138">
        <ele>251.2</ele>
        <time>2021-04-10T08:13:07.000Z</time>
      </trkpt>
      <trkpt lat="37.93640800751746" lon="23.768541114404798">
        <ele>252</ele>
        <time>2021-04-10T08:13:15.000Z</time>
      </trkpt>
      <trkpt lat="37.93640146963298" lon="23.768555279821157">
        <ele>252.2</ele>
        <time>2021-04-10T08:13:17.000Z</time>
      </trkpt>
      <trkpt lat="37.936359224841" lon="23.768633399158716">
        <ele>252.6</ele>
        <time>2021-04-10T08:13:23.000Z</time>
      </trkpt>
      <trkpt lat="37.936350759118795" lon="23.76864035613835">
        <ele>252.8</ele>
        <time>2021-04-10T08:13:24.000Z</time>
      </trkpt>
      <trkpt lat="37.936342963948846" lon="23.768650079146028">
        <ele>253</ele>
        <time>2021-04-10T08:13:25.000Z</time>
      </trkpt>
      <trkpt lat="37.93629610911012" lon="23.76869609579444">
        <ele>254.2</ele>
        <time>2021-04-10T08:13:29.000Z</time>
      </trkpt>
      <trkpt lat="37.93628194369376" lon="23.768723169341683">
        <ele>255</ele>
        <time>2021-04-10T08:13:32.000Z</time>
      </trkpt>
      <trkpt lat="37.936278842389584" lon="23.768735826015472">
        <ele>255.2</ele>
        <time>2021-04-10T08:13:33.000Z</time>
      </trkpt>
      <trkpt lat="37.936250511556864" lon="23.768755439668894">
        <ele>255.8</ele>
        <time>2021-04-10T08:13:36.000Z</time>
      </trkpt>
      <trkpt lat="37.93623232282698" lon="23.768752422183752">
        <ele>256</ele>
        <time>2021-04-10T08:13:38.000Z</time>
      </trkpt>
      <trkpt lat="37.936224611476064" lon="23.768752422183752">
        <ele>256.2</ele>
        <time>2021-04-10T08:13:39.000Z</time>
      </trkpt>
      <trkpt lat="37.936200723052025" lon="23.768776142969728">
        <ele>257.2</ele>
        <time>2021-04-10T08:13:44.000Z</time>
      </trkpt>
      <trkpt lat="37.93619561009109" lon="23.768781758844852">
        <ele>257.2</ele>
        <time>2021-04-10T08:13:45.000Z</time>
      </trkpt>
      <trkpt lat="37.93617985211313" lon="23.768808664754033">
        <ele>257.8</ele>
        <time>2021-04-10T08:13:48.000Z</time>
      </trkpt>
      <trkpt lat="37.936169458553195" lon="23.76883439719677">
        <ele>258</ele>
        <time>2021-04-10T08:13:50.000Z</time>
      </trkpt>
      <trkpt lat="37.93615587987006" lon="23.76891067251563">
        <ele>258.4</ele>
        <time>2021-04-10T08:13:55.000Z</time>
      </trkpt>
      <trkpt lat="37.9361277166754" lon="23.768975380808115">
        <ele>259.2</ele>
        <time>2021-04-10T08:14:03.000Z</time>
      </trkpt>
      <trkpt lat="37.936125034466386" lon="23.76898929476738">
        <ele>259.4</ele>
        <time>2021-04-10T08:14:04.000Z</time>
      </trkpt>
      <trkpt lat="37.93613693676889" lon="23.76908124424517">
        <ele>260.6</ele>
        <time>2021-04-10T08:14:10.000Z</time>
      </trkpt>
      <trkpt lat="37.93613894842565" lon="23.76909582875669">
        <ele>260.8</ele>
        <time>2021-04-10T08:14:11.000Z</time>
      </trkpt>
      <trkpt lat="37.93615303002298" lon="23.769186856225133">
        <ele>261.6</ele>
        <time>2021-04-10T08:14:19.000Z</time>
      </trkpt>
      <trkpt lat="37.9361554607749" lon="23.769193813204765">
        <ele>261.8</ele>
        <time>2021-04-10T08:14:20.000Z</time>
      </trkpt>
      <trkpt lat="37.93613584712148" lon="23.769316943362355">
        <ele>262.6</ele>
        <time>2021-04-10T08:14:28.000Z</time>
      </trkpt>
      <trkpt lat="37.93613291345537" lon="23.769337143749">
        <ele>262.8</ele>
        <time>2021-04-10T08:14:29.000Z</time>
      </trkpt>
      <trkpt lat="37.936121514067054" lon="23.769422471523285">
        <ele>263.2</ele>
        <time>2021-04-10T08:14:36.000Z</time>
      </trkpt>
      <trkpt lat="37.93611690402031" lon="23.7694407440722">
        <ele>263.6</ele>
        <time>2021-04-10T08:14:38.000Z</time>
      </trkpt>
      <trkpt lat="37.93611648492515" lon="23.76946865580976">
        <ele>263.8</ele>
        <time>2021-04-10T08:14:40.000Z</time>
      </trkpt>
      <trkpt lat="37.936106845736504" lon="23.769521629437804">
        <ele>264.8</ele>
        <time>2021-04-10T08:14:44.000Z</time>
      </trkpt>
      <trkpt lat="37.9361018165946" lon="23.769543673843145">
        <ele>264.8</ele>
        <time>2021-04-10T08:14:46.000Z</time>
      </trkpt>
      <trkpt lat="37.936100559309125" lon="23.769554905593395">
        <ele>265</ele>
        <time>2021-04-10T08:14:47.000Z</time>
      </trkpt>
      <trkpt lat="37.936100140213966" lon="23.769564628601074">
        <ele>265</ele>
        <time>2021-04-10T08:14:48.000Z</time>
      </trkpt>
      <trkpt lat="37.93605890125036" lon="23.769665881991386">
        <ele>265.6</ele>
        <time>2021-04-10T08:14:57.000Z</time>
      </trkpt>
      <trkpt lat="37.93604406528175" lon="23.769712569192052">
        <ele>266</ele>
        <time>2021-04-10T08:15:02.000Z</time>
      </trkpt>
      <trkpt lat="37.936037108302116" lon="23.769737714901567">
        <ele>266.4</ele>
        <time>2021-04-10T08:15:04.000Z</time>
      </trkpt>
      <trkpt lat="37.936023361980915" lon="23.769789850339293">
        <ele>267</ele>
        <time>2021-04-10T08:15:08.000Z</time>
      </trkpt>
      <trkpt lat="37.936001317575574" lon="23.76986394636333">
        <ele>268.2</ele>
        <time>2021-04-10T08:15:14.000Z</time>
      </trkpt>
      <trkpt lat="37.935970723629" lon="23.76993083395064">
        <ele>269</ele>
        <time>2021-04-10T08:15:21.000Z</time>
      </trkpt>
      <trkpt lat="37.93596443720162" lon="23.76995882950723">
        <ele>269.4</ele>
        <time>2021-04-10T08:15:23.000Z</time>
      </trkpt>
      <trkpt lat="37.935964185744524" lon="23.77000803127885">
        <ele>270.4</ele>
        <time>2021-04-10T08:15:29.000Z</time>
      </trkpt>
      <trkpt lat="37.93595379218459" lon="23.77003602683544">
        <ele>270.6</ele>
        <time>2021-04-10T08:15:33.000Z</time>
      </trkpt>
      <trkpt lat="37.93594918213785" lon="23.770047007128596">
        <ele>270.8</ele>
        <time>2021-04-10T08:15:34.000Z</time>
      </trkpt>
      <trkpt lat="37.93593811802566" lon="23.77007349394262">
        <ele>271</ele>
        <time>2021-04-10T08:15:36.000Z</time>
      </trkpt>
      <trkpt lat="37.935926550999284" lon="23.770105931907892">
        <ele>271.6</ele>
        <time>2021-04-10T08:15:39.000Z</time>
      </trkpt>
      <trkpt lat="37.93590039946139" lon="23.77017231658101">
        <ele>272.6</ele>
        <time>2021-04-10T08:15:44.000Z</time>
      </trkpt>
      <trkpt lat="37.935896795243025" lon="23.770181369036436">
        <ele>272.8</ele>
        <time>2021-04-10T08:15:45.000Z</time>
      </trkpt>
      <trkpt lat="37.93588137254119" lon="23.77022897824645">
        <ele>273.2</ele>
        <time>2021-04-10T08:15:50.000Z</time>
      </trkpt>
      <trkpt lat="37.93587315827608" lon="23.770250100642443">
        <ele>273.6</ele>
        <time>2021-04-10T08:15:52.000Z</time>
      </trkpt>
      <trkpt lat="37.93586393818259" lon="23.770264266058803">
        <ele>273.8</ele>
        <time>2021-04-10T08:15:53.000Z</time>
      </trkpt>
      <trkpt lat="37.93583242222667" lon="23.770324029028416">
        <ele>274.6</ele>
        <time>2021-04-10T08:15:59.000Z</time>
      </trkpt>
      <trkpt lat="37.93581096455455" lon="23.770365435630083">
        <ele>275.6</ele>
        <time>2021-04-10T08:16:05.000Z</time>
      </trkpt>
      <trkpt lat="37.93580115772784" lon="23.77037842758">
        <ele>276</ele>
        <time>2021-04-10T08:16:07.000Z</time>
      </trkpt>
      <trkpt lat="37.93578087352216" lon="23.77039317972958">
        <ele>276.4</ele>
        <time>2021-04-10T08:16:11.000Z</time>
      </trkpt>
      <trkpt lat="37.93576302006841" lon="23.77040441147983">
        <ele>276.8</ele>
        <time>2021-04-10T08:16:14.000Z</time>
      </trkpt>
      <trkpt lat="37.93575346469879" lon="23.770408183336258">
        <ele>277</ele>
        <time>2021-04-10T08:16:15.000Z</time>
      </trkpt>
      <trkpt lat="37.93570895679295" lon="23.770442297682166">
        <ele>277.8</ele>
        <time>2021-04-10T08:16:20.000Z</time>
      </trkpt>
      <trkpt lat="37.93568699620664" lon="23.77045906148851">
        <ele>278.2</ele>
        <time>2021-04-10T08:16:23.000Z</time>
      </trkpt>
      <trkpt lat="37.935621198266745" lon="23.770465850830078">
        <ele>279</ele>
        <time>2021-04-10T08:16:30.000Z</time>
      </trkpt>
      <trkpt lat="37.93560292571783" lon="23.770462917163968">
        <ele>279.4</ele>
        <time>2021-04-10T08:16:32.000Z</time>
      </trkpt>
      <trkpt lat="37.935562608763576" lon="23.770441124215722">
        <ele>280</ele>
        <time>2021-04-10T08:16:36.000Z</time>
      </trkpt>
      <trkpt lat="37.9355407319963" lon="23.77042394131422">
        <ele>280.2</ele>
        <time>2021-04-10T08:16:38.000Z</time>
      </trkpt>
      <trkpt lat="37.935499576851726" lon="23.770401058718562">
        <ele>280.4</ele>
        <time>2021-04-10T08:16:41.000Z</time>
      </trkpt>
      <trkpt lat="37.935466300696135" lon="23.77039024606347">
        <ele>280.8</ele>
        <time>2021-04-10T08:16:44.000Z</time>
      </trkpt>
      <trkpt lat="37.935449201613665" lon="23.77037406899035">
        <ele>281.2</ele>
        <time>2021-04-10T08:16:46.000Z</time>
      </trkpt>
      <trkpt lat="37.93540310114622" lon="23.77031204290688">
        <ele>282.4</ele>
        <time>2021-04-10T08:16:52.000Z</time>
      </trkpt>
      <trkpt lat="37.935392037034035" lon="23.770283460617065">
        <ele>282.6</ele>
        <time>2021-04-10T08:16:55.000Z</time>
      </trkpt>
      <trkpt lat="37.93537896126509" lon="23.770233755931258">
        <ele>283</ele>
        <time>2021-04-10T08:17:00.000Z</time>
      </trkpt>
      <trkpt lat="37.93537669815123" lon="23.770205257460475">
        <ele>283.4</ele>
        <time>2021-04-10T08:17:03.000Z</time>
      </trkpt>
      <trkpt lat="37.93537753634155" lon="23.770191930234432">
        <ele>283.6</ele>
        <time>2021-04-10T08:17:04.000Z</time>
      </trkpt>
      <trkpt lat="37.93535817414522" lon="23.77013367600739">
        <ele>284.6</ele>
        <time>2021-04-10T08:17:09.000Z</time>
      </trkpt>
      <trkpt lat="37.93535113334656" lon="23.770120097324252">
        <ele>284.6</ele>
        <time>2021-04-10T08:17:10.000Z</time>
      </trkpt>
      <trkpt lat="37.93534208089113" lon="23.770046588033438">
        <ele>285</ele>
        <time>2021-04-10T08:17:15.000Z</time>
      </trkpt>
      <trkpt lat="37.93534694239497" lon="23.770011300221086">
        <ele>285.6</ele>
        <time>2021-04-10T08:17:18.000Z</time>
      </trkpt>
      <trkpt lat="37.93534627184272" lon="23.770002583041787">
        <ele>285.8</ele>
        <time>2021-04-10T08:17:19.000Z</time>
      </trkpt>
      <trkpt lat="37.935349540784955" lon="23.76992111094296">
        <ele>286.8</ele>
        <time>2021-04-10T08:17:27.000Z</time>
      </trkpt>
      <trkpt lat="37.93534786440432" lon="23.769910214468837">
        <ele>286.8</ele>
        <time>2021-04-10T08:17:28.000Z</time>
      </trkpt>
      <trkpt lat="37.93531710281968" lon="23.769822204485536">
        <ele>288</ele>
        <time>2021-04-10T08:17:35.000Z</time>
      </trkpt>
      <trkpt lat="37.935308972373605" lon="23.769788593053818">
        <ele>288.6</ele>
        <time>2021-04-10T08:17:38.000Z</time>
      </trkpt>
      <trkpt lat="37.93529011309147" lon="23.769744420424104">
        <ele>289</ele>
        <time>2021-04-10T08:17:42.000Z</time>
      </trkpt>
      <trkpt lat="37.93527787551284" lon="23.769702343270183">
        <ele>289.8</ele>
        <time>2021-04-10T08:17:46.000Z</time>
      </trkpt>
      <trkpt lat="37.93527795933187" lon="23.769696140661836">
        <ele>290</ele>
        <time>2021-04-10T08:17:47.000Z</time>
      </trkpt>
      <trkpt lat="37.93525440618396" lon="23.769591618329287">
        <ele>291.2</ele>
        <time>2021-04-10T08:17:58.000Z</time>
      </trkpt>
      <trkpt lat="37.935228422284126" lon="23.76954878680408">
        <ele>292.2</ele>
        <time>2021-04-10T08:18:03.000Z</time>
      </trkpt>
      <trkpt lat="37.93520947918296" lon="23.769478546455503">
        <ele>293</ele>
        <time>2021-04-10T08:18:08.000Z</time>
      </trkpt>
      <trkpt lat="37.93520369566977" lon="23.769455747678876">
        <ele>293.4</ele>
        <time>2021-04-10T08:18:10.000Z</time>
      </trkpt>
      <trkpt lat="37.93517737649381" lon="23.769372766837478">
        <ele>294</ele>
        <time>2021-04-10T08:18:19.000Z</time>
      </trkpt>
      <trkpt lat="37.93512842617929" lon="23.769306717440486">
        <ele>293.6</ele>
        <time>2021-04-10T08:18:26.000Z</time>
      </trkpt>
      <trkpt lat="37.93511384166777" lon="23.76927813515067">
        <ele>293.6</ele>
        <time>2021-04-10T08:18:29.000Z</time>
      </trkpt>
      <trkpt lat="37.9350777156651" lon="23.769265059381723">
        <ele>293.8</ele>
        <time>2021-04-10T08:18:33.000Z</time>
      </trkpt>
      <trkpt lat="37.93499615974724" lon="23.769232872873545">
        <ele>294.2</ele>
        <time>2021-04-10T08:18:41.000Z</time>
      </trkpt>
      <trkpt lat="37.93497461825609" lon="23.769236812368035">
        <ele>294</ele>
        <time>2021-04-10T08:18:44.000Z</time>
      </trkpt>
      <trkpt lat="37.93496129103005" lon="23.769244104623795">
        <ele>293.8</ele>
        <time>2021-04-10T08:18:48.000Z</time>
      </trkpt>
      <trkpt lat="37.934960536658764" lon="23.76924628391862">
        <ele>294</ele>
        <time>2021-04-10T08:18:49.000Z</time>
      </trkpt>
      <trkpt lat="37.934962967410684" lon="23.76924829557538">
        <ele>294.2</ele>
        <time>2021-04-10T08:18:52.000Z</time>
      </trkpt>
      <trkpt lat="37.93496975675225" lon="23.769244607537985">
        <ele>294.4</ele>
        <time>2021-04-10T08:18:56.000Z</time>
      </trkpt>
      <trkpt lat="37.93497746810317" lon="23.76923941075802">
        <ele>294.2</ele>
        <time>2021-04-10T08:18:57.000Z</time>
      </trkpt>
      <trkpt lat="37.93498777784407" lon="23.76923806965351">
        <ele>294</ele>
        <time>2021-04-10T08:18:59.000Z</time>
      </trkpt>
      <trkpt lat="37.934987526386976" lon="23.76922977156937">
        <ele>293.8</ele>
        <time>2021-04-10T08:19:01.000Z</time>
      </trkpt>
      <trkpt lat="37.934984508901834" lon="23.76922625117004">
        <ele>293.8</ele>
        <time>2021-04-10T08:19:02.000Z</time>
      </trkpt>
      <trkpt lat="37.934980653226376" lon="23.769218707457185">
        <ele>293.6</ele>
        <time>2021-04-10T08:19:03.000Z</time>
      </trkpt>
      <trkpt lat="37.93497839011252" lon="23.769214265048504">
        <ele>293.6</ele>
        <time>2021-04-10T08:19:04.000Z</time>
      </trkpt>
      <trkpt lat="37.93496950529516" lon="23.76921409741044">
        <ele>293.6</ele>
        <time>2021-04-10T08:19:06.000Z</time>
      </trkpt>
      <trkpt lat="37.934963470324874" lon="23.769221138209105">
        <ele>293.4</ele>
        <time>2021-04-10T08:19:10.000Z</time>
      </trkpt>
      <trkpt lat="37.93496171012521" lon="23.769217198714614">
        <ele>293.4</ele>
        <time>2021-04-10T08:19:11.000Z</time>
      </trkpt>
      <trkpt lat="37.93496288359165" lon="23.769219294190407">
        <ele>293.4</ele>
        <time>2021-04-10T08:19:12.000Z</time>
      </trkpt>
      <trkpt lat="37.93496338650584" lon="23.769216863438487">
        <ele>293.4</ele>
        <time>2021-04-10T08:19:14.000Z</time>
      </trkpt>
      <trkpt lat="37.93497981503606" lon="23.76921066083014">
        <ele>293.6</ele>
        <time>2021-04-10T08:19:18.000Z</time>
      </trkpt>
      <trkpt lat="37.93498769402504" lon="23.769205128774047">
        <ele>293.2</ele>
        <time>2021-04-10T08:19:21.000Z</time>
      </trkpt>
      <trkpt lat="37.93498719111085" lon="23.769198674708605">
        <ele>293.2</ele>
        <time>2021-04-10T08:19:23.000Z</time>
      </trkpt>
      <trkpt lat="37.93498325161636" lon="23.769182497635484">
        <ele>293</ele>
        <time>2021-04-10T08:19:25.000Z</time>
      </trkpt>
      <trkpt lat="37.93498719111085" lon="23.769199596717954">
        <ele>293.4</ele>
        <time>2021-04-10T08:19:33.000Z</time>
      </trkpt>
      <trkpt lat="37.93498769402504" lon="23.769195321947336">
        <ele>293.6</ele>
        <time>2021-04-10T08:19:35.000Z</time>
      </trkpt>
      <trkpt lat="37.93495441786945" lon="23.769185598939657">
        <ele>293.2</ele>
        <time>2021-04-10T08:19:45.000Z</time>
      </trkpt>
      <trkpt lat="37.93495307676494" lon="23.769177719950676">
        <ele>293.2</ele>
        <time>2021-04-10T08:19:52.000Z</time>
      </trkpt>
      <trkpt lat="37.93495902791619" lon="23.769176797941327">
        <ele>290.6</ele>
        <time>2021-04-10T08:19:55.000Z</time>
      </trkpt>
      <trkpt lat="37.934960033744574" lon="23.769177217036486">
        <ele>292</ele>
        <time>2021-04-10T08:19:56.000Z</time>
      </trkpt>
      <trkpt lat="37.93495969846845" lon="23.769175289198756">
        <ele>293.2</ele>
        <time>2021-04-10T08:19:59.000Z</time>
      </trkpt>
      <trkpt lat="37.93495969846845" lon="23.76917604357004">
        <ele>293.2</ele>
        <time>2021-04-10T08:20:00.000Z</time>
      </trkpt>
      <trkpt lat="37.9349534958601" lon="23.769179480150342">
        <ele>293.2</ele>
        <time>2021-04-10T08:20:03.000Z</time>
      </trkpt>
      <trkpt lat="37.9349447786808" lon="23.769185012206435">
        <ele>293.2</ele>
        <time>2021-04-10T08:20:05.000Z</time>
      </trkpt>
      <trkpt lat="37.934936229139566" lon="23.769188532605767">
        <ele>293.2</ele>
        <time>2021-04-10T08:20:10.000Z</time>
      </trkpt>
      <trkpt lat="37.93493899516761" lon="23.769183419644833">
        <ele>293.2</ele>
        <time>2021-04-10T08:20:12.000Z</time>
      </trkpt>
      <trkpt lat="37.93495559133589" lon="23.76917017623782">
        <ele>293.2</ele>
        <time>2021-04-10T08:20:22.000Z</time>
      </trkpt>
      <trkpt lat="37.9349069762975" lon="23.769151400774717">
        <ele>293.2</ele>
        <time>2021-04-10T08:20:27.000Z</time>
      </trkpt>
      <trkpt lat="37.93488711118698" lon="23.76914167776704">
        <ele>293.2</ele>
        <time>2021-04-10T08:20:29.000Z</time>
      </trkpt>
      <trkpt lat="37.934840843081474" lon="23.76910513266921">
        <ele>294.2</ele>
        <time>2021-04-10T08:20:35.000Z</time>
      </trkpt>
      <trkpt lat="37.934835562482476" lon="23.76909281127155">
        <ele>294.4</ele>
        <time>2021-04-10T08:20:36.000Z</time>
      </trkpt>
      <trkpt lat="37.934821397066116" lon="23.769076634198427">
        <ele>294.8</ele>
        <time>2021-04-10T08:20:38.000Z</time>
      </trkpt>
      <trkpt lat="37.93478728272021" lon="23.769043777137995">
        <ele>295.2</ele>
        <time>2021-04-10T08:20:42.000Z</time>
      </trkpt>
      <trkpt lat="37.934778314083815" lon="23.7690366525203">
        <ele>295.2</ele>
        <time>2021-04-10T08:20:43.000Z</time>
      </trkpt>
      <trkpt lat="37.93474922887981" lon="23.769016284495592">
        <ele>295.2</ele>
        <time>2021-04-10T08:20:46.000Z</time>
      </trkpt>
      <trkpt lat="37.93470053002238" lon="23.768954761326313">
        <ele>295.8</ele>
        <time>2021-04-10T08:20:52.000Z</time>
      </trkpt>
      <trkpt lat="37.934661973267794" lon="23.76890086568892">
        <ele>296.2</ele>
        <time>2021-04-10T08:20:57.000Z</time>
      </trkpt>
      <trkpt lat="37.93463389389217" lon="23.76887697726488">
        <ele>296.2</ele>
        <time>2021-04-10T08:21:01.000Z</time>
      </trkpt>
      <trkpt lat="37.93461972847581" lon="23.76886465586722">
        <ele>296.4</ele>
        <time>2021-04-10T08:21:03.000Z</time>
      </trkpt>
      <trkpt lat="37.93460614979267" lon="23.768842527642846">
        <ele>296.4</ele>
        <time>2021-04-10T08:21:05.000Z</time>
      </trkpt>
      <trkpt lat="37.934579914435744" lon="23.768797852098942">
        <ele>296.6</ele>
        <time>2021-04-10T08:21:09.000Z</time>
      </trkpt>
      <trkpt lat="37.934550158679485" lon="23.76877086237073">
        <ele>297</ele>
        <time>2021-04-10T08:21:13.000Z</time>
      </trkpt>
      <trkpt lat="37.93453481979668" lon="23.7687551882118">
        <ele>297.2</ele>
        <time>2021-04-10T08:21:15.000Z</time>
      </trkpt>
      <trkpt lat="37.93452090583742" lon="23.768735826015472">
        <ele>297.4</ele>
        <time>2021-04-10T08:21:17.000Z</time>
      </trkpt>
      <trkpt lat="37.934480253607035" lon="23.76869031228125">
        <ele>297.6</ele>
        <time>2021-04-10T08:21:22.000Z</time>
      </trkpt>
      <trkpt lat="37.93441554531455" lon="23.768628537654877">
        <ele>298.4</ele>
        <time>2021-04-10T08:21:29.000Z</time>
      </trkpt>
      <trkpt lat="37.93440632522106" lon="23.76861797645688">
        <ele>298.8</ele>
        <time>2021-04-10T08:21:30.000Z</time>
      </trkpt>
      <trkpt lat="37.934376653283834" lon="23.7686048168689">
        <ele>299.2</ele>
        <time>2021-04-10T08:21:34.000Z</time>
      </trkpt>
      <trkpt lat="37.9343715403229" lon="23.76861738972366">
        <ele>299.4</ele>
        <time>2021-04-10T08:21:37.000Z</time>
      </trkpt>
      <trkpt lat="37.93436910957098" lon="23.768619149923325">
        <ele>299.4</ele>
        <time>2021-04-10T08:21:38.000Z</time>
      </trkpt>
      <trkpt lat="37.93435628525913" lon="23.768606493249536">
        <ele>299.4</ele>
        <time>2021-04-10T08:21:40.000Z</time>
      </trkpt>
      <trkpt lat="37.93433843180537" lon="23.768575564026833">
        <ele>299.4</ele>
        <time>2021-04-10T08:21:43.000Z</time>
      </trkpt>
      <trkpt lat="37.934323931112885" lon="23.768548322841525">
        <ele>299.6</ele>
        <time>2021-04-10T08:21:45.000Z</time>
      </trkpt>
      <trkpt lat="37.934312112629414" lon="23.768536588177085">
        <ele>299.6</ele>
        <time>2021-04-10T08:21:46.000Z</time>
      </trkpt>
      <trkpt lat="37.93424799107015" lon="23.768458301201463">
        <ele>300.2</ele>
        <time>2021-04-10T08:21:53.000Z</time>
      </trkpt>
      <trkpt lat="37.93421119451523" lon="23.768432401120663">
        <ele>300.4</ele>
        <time>2021-04-10T08:21:57.000Z</time>
      </trkpt>
      <trkpt lat="37.93420088477433" lon="23.768424773588777">
        <ele>300.8</ele>
        <time>2021-04-10T08:21:58.000Z</time>
      </trkpt>
      <trkpt lat="37.93417179957032" lon="23.768400885164738">
        <ele>301.4</ele>
        <time>2021-04-10T08:22:01.000Z</time>
      </trkpt>
      <trkpt lat="37.9341262858361" lon="23.768344977870584">
        <ele>301.8</ele>
        <time>2021-04-10T08:22:06.000Z</time>
      </trkpt>
      <trkpt lat="37.934111868962646" lon="23.76831882633269">
        <ele>302.2</ele>
        <time>2021-04-10T08:22:08.000Z</time>
      </trkpt>
      <trkpt lat="37.93407926335931" lon="23.76827641390264">
        <ele>303</ele>
        <time>2021-04-10T08:22:12.000Z</time>
      </trkpt>
      <trkpt lat="37.934037605300546" lon="23.768223943188787">
        <ele>303.2</ele>
        <time>2021-04-10T08:22:16.000Z</time>
      </trkpt>
      <trkpt lat="37.93399921618402" lon="23.768178010359406">
        <ele>304</ele>
        <time>2021-04-10T08:22:21.000Z</time>
      </trkpt>
      <trkpt lat="37.93397474102676" lon="23.768165688961744">
        <ele>304.6</ele>
        <time>2021-04-10T08:22:24.000Z</time>
      </trkpt>
      <trkpt lat="37.933928640559316" lon="23.76813568174839">
        <ele>305.2</ele>
        <time>2021-04-10T08:22:29.000Z</time>
      </trkpt>
      <trkpt lat="37.93389854952693" lon="23.768107183277607">
        <ele>306</ele>
        <time>2021-04-10T08:22:33.000Z</time>
      </trkpt>
      <trkpt lat="37.93389025144279" lon="23.76809611916542">
        <ele>306.2</ele>
        <time>2021-04-10T08:22:35.000Z</time>
      </trkpt>
      <trkpt lat="37.93382286094129" lon="23.768046582117677">
        <ele>307</ele>
        <time>2021-04-10T08:22:43.000Z</time>
      </trkpt>
      <trkpt lat="37.933799056336284" lon="23.768014144152403">
        <ele>307.2</ele>
        <time>2021-04-10T08:22:46.000Z</time>
      </trkpt>
      <trkpt lat="37.93375739827752" lon="23.767984975129366">
        <ele>308</ele>
        <time>2021-04-10T08:22:50.000Z</time>
      </trkpt>
      <trkpt lat="37.93373225256801" lon="23.76796033233404">
        <ele>308.4</ele>
        <time>2021-04-10T08:22:53.000Z</time>
      </trkpt>
      <trkpt lat="37.93368690647185" lon="23.76794021576643">
        <ele>308.8</ele>
        <time>2021-04-10T08:22:57.000Z</time>
      </trkpt>
      <trkpt lat="37.933668717741966" lon="23.767966451123357">
        <ele>309.2</ele>
        <time>2021-04-10T08:22:59.000Z</time>
      </trkpt>
      <trkpt lat="37.93365606106818" lon="23.767970222979784">
        <ele>309.4</ele>
        <time>2021-04-10T08:23:01.000Z</time>
      </trkpt>
      <trkpt lat="37.9336376208812" lon="23.76797583885491">
        <ele>309.6</ele>
        <time>2021-04-10T08:23:04.000Z</time>
      </trkpt>
      <trkpt lat="37.93363384902477" lon="23.767979610711336">
        <ele>309.6</ele>
        <time>2021-04-10T08:23:05.000Z</time>
      </trkpt>
      <trkpt lat="37.933627646416426" lon="23.76797692850232">
        <ele>309.6</ele>
        <time>2021-04-10T08:23:07.000Z</time>
      </trkpt>
      <trkpt lat="37.933621192350984" lon="23.7679832149297">
        <ele>309.2</ele>
        <time>2021-04-10T08:23:11.000Z</time>
      </trkpt>
      <trkpt lat="37.933619851246476" lon="23.76798279583454">
        <ele>309.2</ele>
        <time>2021-04-10T08:23:12.000Z</time>
      </trkpt>
      <trkpt lat="37.93363661505282" lon="23.76796611584723">
        <ele>309.2</ele>
        <time>2021-04-10T08:23:21.000Z</time>
      </trkpt>
      <trkpt lat="37.93364114128053" lon="23.76796812750399">
        <ele>309.4</ele>
        <time>2021-04-10T08:23:28.000Z</time>
      </trkpt>
      <trkpt lat="37.933628652244806" lon="23.767974665388465">
        <ele>309.8</ele>
        <time>2021-04-10T08:23:32.000Z</time>
      </trkpt>
      <trkpt lat="37.93359277769923" lon="23.767984891310334">
        <ele>309.2</ele>
        <time>2021-04-10T08:23:38.000Z</time>
      </trkpt>
      <trkpt lat="37.9335911013186" lon="23.767992602661252">
        <ele>309.2</ele>
        <time>2021-04-10T08:23:40.000Z</time>
      </trkpt>
      <trkpt lat="37.93362085707486" lon="23.76798665151">
        <ele>308.8</ele>
        <time>2021-04-10T08:23:47.000Z</time>
      </trkpt>
      <trkpt lat="37.93362881988287" lon="23.76800425350666">
        <ele>309.2</ele>
        <time>2021-04-10T08:23:53.000Z</time>
      </trkpt>
      <trkpt lat="37.933624126017094" lon="23.768027387559414">
        <ele>309.6</ele>
        <time>2021-04-10T08:23:56.000Z</time>
      </trkpt>
      <trkpt lat="37.933617839589715" lon="23.768046917393804">
        <ele>310.4</ele>
        <time>2021-04-10T08:23:58.000Z</time>
      </trkpt>
      <trkpt lat="37.9336167499423" lon="23.76806535758078">
        <ele>311.4</ele>
        <time>2021-04-10T08:24:00.000Z</time>
      </trkpt>
      <trkpt lat="37.93361524119973" lon="23.768069548532367">
        <ele>311.6</ele>
        <time>2021-04-10T08:24:01.000Z</time>
      </trkpt>
      <trkpt lat="37.93361423537135" lon="23.768069045618176">
        <ele>311.6</ele>
        <time>2021-04-10T08:24:02.000Z</time>
      </trkpt>
      <trkpt lat="37.933615827932954" lon="23.768070302903652">
        <ele>312</ele>
        <time>2021-04-10T08:24:04.000Z</time>
      </trkpt>
      <trkpt lat="37.933616330847144" lon="23.76807407476008">
        <ele>312.2</ele>
        <time>2021-04-10T08:24:05.000Z</time>
      </trkpt>
      <trkpt lat="37.933601243421435" lon="23.768080193549395">
        <ele>312.6</ele>
        <time>2021-04-10T08:24:08.000Z</time>
      </trkpt>
      <trkpt lat="37.93358431197703" lon="23.768072398379445">
        <ele>312.8</ele>
        <time>2021-04-10T08:24:11.000Z</time>
      </trkpt>
      <trkpt lat="37.93357794173062" lon="23.768062256276608">
        <ele>313.4</ele>
        <time>2021-04-10T08:24:14.000Z</time>
      </trkpt>
      <trkpt lat="37.93356981128454" lon="23.76806292682886">
        <ele>313.6</ele>
        <time>2021-04-10T08:24:16.000Z</time>
      </trkpt>
      <trkpt lat="37.933549946174026" lon="23.768081786110997">
        <ele>314</ele>
        <time>2021-04-10T08:24:22.000Z</time>
      </trkpt>
      <trkpt lat="37.93354759924114" lon="23.768076254054904">
        <ele>314.6</ele>
        <time>2021-04-10T08:24:26.000Z</time>
      </trkpt>
      <trkpt lat="37.933551454916596" lon="23.768069129437208">
        <ele>314.8</ele>
        <time>2021-04-10T08:24:28.000Z</time>
      </trkpt>
      <trkpt lat="37.93355246074498" lon="23.768069883808494">
        <ele>314.8</ele>
        <time>2021-04-10T08:24:29.000Z</time>
      </trkpt>
      <trkpt lat="37.933504013344646" lon="23.76810106448829">
        <ele>315.4</ele>
        <time>2021-04-10T08:24:37.000Z</time>
      </trkpt>
      <trkpt lat="37.93349429033697" lon="23.768100142478943">
        <ele>316</ele>
        <time>2021-04-10T08:24:40.000Z</time>
      </trkpt>
      <trkpt lat="37.933491775766015" lon="23.768099136650562">
        <ele>316.2</ele>
        <time>2021-04-10T08:24:41.000Z</time>
      </trkpt>
      <trkpt lat="37.93347995728254" lon="23.768084216862917">
        <ele>317</ele>
        <time>2021-04-10T08:24:46.000Z</time>
      </trkpt>
      <trkpt lat="37.93348356150091" lon="23.768097376450896">
        <ele>317.2</ele>
        <time>2021-04-10T08:24:55.000Z</time>
      </trkpt>
      <trkpt lat="37.9334753472358" lon="23.768110116943717">
        <ele>317.6</ele>
        <time>2021-04-10T08:25:01.000Z</time>
      </trkpt>
      <trkpt lat="37.933477610349655" lon="23.76813819631934">
        <ele>318</ele>
        <time>2021-04-10T08:25:07.000Z</time>
      </trkpt>
      <trkpt lat="37.93350091204047" lon="23.768186392262578">
        <ele>319</ele>
        <time>2021-04-10T08:25:12.000Z</time>
      </trkpt>
      <trkpt lat="37.93350770138204" lon="23.768206844106317">
        <ele>319.2</ele>
        <time>2021-04-10T08:25:13.000Z</time>
      </trkpt>
      <trkpt lat="37.933513736352324" lon="23.768223775550723">
        <ele>319.2</ele>
        <time>2021-04-10T08:25:14.000Z</time>
      </trkpt>
      <trkpt lat="37.933534020558" lon="23.768274318426847">
        <ele>319.4</ele>
        <time>2021-04-10T08:25:18.000Z</time>
      </trkpt>
      <trkpt lat="37.93357903137803" lon="23.76834087073803">
        <ele>319.2</ele>
        <time>2021-04-10T08:25:25.000Z</time>
      </trkpt>
      <trkpt lat="37.93359755538404" lon="23.76836978830397">
        <ele>319.8</ele>
        <time>2021-04-10T08:25:28.000Z</time>
      </trkpt>
      <trkpt lat="37.93360895477235" lon="23.76840004697442">
        <ele>320.2</ele>
        <time>2021-04-10T08:25:30.000Z</time>
      </trkpt>
      <trkpt lat="37.933616833761334" lon="23.76843181438744">
        <ele>320.2</ele>
        <time>2021-04-10T08:25:32.000Z</time>
      </trkpt>
      <trkpt lat="37.93364969082177" lon="23.768508676439524">
        <ele>320.2</ele>
        <time>2021-04-10T08:25:39.000Z</time>
      </trkpt>
      <trkpt lat="37.93368556536734" lon="23.768588304519653">
        <ele>321.2</ele>
        <time>2021-04-10T08:25:47.000Z</time>
      </trkpt>
      <trkpt lat="37.93369377963245" lon="23.768648570403457">
        <ele>321.2</ele>
        <time>2021-04-10T08:25:48.000Z</time>
      </trkpt>
      <trkpt lat="37.93370031751692" lon="23.76866776496172">
        <ele>321.2</ele>
        <time>2021-04-10T08:25:49.000Z</time>
      </trkpt>
      <trkpt lat="37.933699479326606" lon="23.768736077472568">
        <ele>321.6</ele>
        <time>2021-04-10T08:25:52.000Z</time>
      </trkpt>
      <trkpt lat="37.93371339328587" lon="23.768757451325655">
        <ele>321.8</ele>
        <time>2021-04-10T08:25:54.000Z</time>
      </trkpt>
      <trkpt lat="37.933741975575686" lon="23.76879340969026">
        <ele>322.2</ele>
        <time>2021-04-10T08:25:58.000Z</time>
      </trkpt>
      <trkpt lat="37.93375211767852" lon="23.76880455762148">
        <ele>322.2</ele>
        <time>2021-04-10T08:25:59.000Z</time>
      </trkpt>
      <trkpt lat="37.93376904912293" lon="23.768822411075234">
        <ele>322.2</ele>
        <time>2021-04-10T08:26:01.000Z</time>
      </trkpt>
      <trkpt lat="37.93378137052059" lon="23.76882065087557">
        <ele>322.4</ele>
        <time>2021-04-10T08:26:03.000Z</time>
      </trkpt>
      <trkpt lat="37.93380995281041" lon="23.768803384155035">
        <ele>322.4</ele>
        <time>2021-04-10T08:26:06.000Z</time>
      </trkpt>
      <trkpt lat="37.93381565250456" lon="23.768797097727656">
        <ele>322.6</ele>
        <time>2021-04-10T08:26:08.000Z</time>
      </trkpt>
      <trkpt lat="37.93381556868553" lon="23.76879491843283">
        <ele>322.6</ele>
        <time>2021-04-10T08:26:11.000Z</time>
      </trkpt>
      <trkpt lat="37.933817161247134" lon="23.768796175718307">
        <ele>322.4</ele>
        <time>2021-04-10T08:26:12.000Z</time>
      </trkpt>
      <trkpt lat="37.93382277712226" lon="23.76877329312265">
        <ele>322.6</ele>
        <time>2021-04-10T08:26:19.000Z</time>
      </trkpt>
      <trkpt lat="37.933816742151976" lon="23.76878309994936">
        <ele>322.6</ele>
        <time>2021-04-10T08:26:26.000Z</time>
      </trkpt>
      <trkpt lat="37.93382286094129" lon="23.76880464144051">
        <ele>322.2</ele>
        <time>2021-04-10T08:26:30.000Z</time>
      </trkpt>
      <trkpt lat="37.9338223580271" lon="23.768795086070895">
        <ele>322.4</ele>
        <time>2021-04-10T08:26:38.000Z</time>
      </trkpt>
      <trkpt lat="37.93381841853261" lon="23.76878854818642">
        <ele>322.6</ele>
        <time>2021-04-10T08:26:41.000Z</time>
      </trkpt>
      <trkpt lat="37.93382478877902" lon="23.76880212686956">
        <ele>322.4</ele>
        <time>2021-04-10T08:26:46.000Z</time>
      </trkpt>
      <trkpt lat="37.933825962245464" lon="23.768782010301948">
        <ele>322.4</ele>
        <time>2021-04-10T08:26:52.000Z</time>
      </trkpt>
      <trkpt lat="37.93382981792092" lon="23.768817465752363">
        <ele>322.6</ele>
        <time>2021-04-10T08:27:00.000Z</time>
      </trkpt>
      <trkpt lat="37.93383803218603" lon="23.768833810463548">
        <ele>322.6</ele>
        <time>2021-04-10T08:27:01.000Z</time>
      </trkpt>
      <trkpt lat="37.93384155258536" lon="23.768894160166383">
        <ele>322.8</ele>
        <time>2021-04-10T08:27:06.000Z</time>
      </trkpt>
      <trkpt lat="37.93383509851992" lon="23.76896096393466">
        <ele>323</ele>
        <time>2021-04-10T08:27:12.000Z</time>
      </trkpt>
      <trkpt lat="37.93382755480707" lon="23.768959203734994">
        <ele>323</ele>
        <time>2021-04-10T08:27:14.000Z</time>
      </trkpt>
      <trkpt lat="37.93382487259805" lon="23.768956186249852">
        <ele>323</ele>
        <time>2021-04-10T08:27:15.000Z</time>
      </trkpt>
      <trkpt lat="37.93382411822677" lon="23.76895174384117">
        <ele>323</ele>
        <time>2021-04-10T08:27:17.000Z</time>
      </trkpt>
      <trkpt lat="37.93383065611124" lon="23.768953755497932">
        <ele>322.8</ele>
        <time>2021-04-10T08:27:20.000Z</time>
      </trkpt>
      <trkpt lat="37.93385320343077" lon="23.76895509660244">
        <ele>322.6</ele>
        <time>2021-04-10T08:27:28.000Z</time>
      </trkpt>
      <trkpt lat="37.93385404162109" lon="23.76896825619042">
        <ele>322.6</ele>
        <time>2021-04-10T08:27:29.000Z</time>
      </trkpt>
      <trkpt lat="37.933860160410404" lon="23.768991390243173">
        <ele>322.6</ele>
        <time>2021-04-10T08:27:31.000Z</time>
      </trkpt>
      <trkpt lat="37.93385152705014" lon="23.76905618235469">
        <ele>322.6</ele>
        <time>2021-04-10T08:27:36.000Z</time>
      </trkpt>
      <trkpt lat="37.93385261669755" lon="23.769099516794086">
        <ele>322.6</ele>
        <time>2021-04-10T08:27:39.000Z</time>
      </trkpt>
      <trkpt lat="37.93385714292526" lon="23.769126841798425">
        <ele>322.6</ele>
        <time>2021-04-10T08:27:41.000Z</time>
      </trkpt>
      <trkpt lat="37.93385898694396" lon="23.769141426309943">
        <ele>322.6</ele>
        <time>2021-04-10T08:27:42.000Z</time>
      </trkpt>
      <trkpt lat="37.93386108241975" lon="23.76915693283081">
        <ele>322.6</ele>
        <time>2021-04-10T08:27:43.000Z</time>
      </trkpt>
      <trkpt lat="37.93386535719037" lon="23.76918769441545">
        <ele>322.6</ele>
        <time>2021-04-10T08:27:45.000Z</time>
      </trkpt>
      <trkpt lat="37.933886144310236" lon="23.769245613366365">
        <ele>323.8</ele>
        <time>2021-04-10T08:27:50.000Z</time>
      </trkpt>
      <trkpt lat="37.933892933651805" lon="23.76926690340042">
        <ele>324.4</ele>
        <time>2021-04-10T08:27:52.000Z</time>
      </trkpt>
      <trkpt lat="37.93389603495598" lon="23.7692766264081">
        <ele>324.4</ele>
        <time>2021-04-10T08:27:53.000Z</time>
      </trkpt>
      <trkpt lat="37.93390978127718" lon="23.769318787381053">
        <ele>324.4</ele>
        <time>2021-04-10T08:27:56.000Z</time>
      </trkpt>
      <trkpt lat="37.93393517844379" lon="23.769358433783054">
        <ele>324.6</ele>
        <time>2021-04-10T08:27:59.000Z</time>
      </trkpt>
      <trkpt lat="37.93394758366048" lon="23.76937586814165">
        <ele>324.8</ele>
        <time>2021-04-10T08:28:01.000Z</time>
      </trkpt>
      <trkpt lat="37.933980356901884" lon="23.769428255036473">
        <ele>325.2</ele>
        <time>2021-04-10T08:28:06.000Z</time>
      </trkpt>
      <trkpt lat="37.9340036585927" lon="23.769544260576367">
        <ele>325.8</ele>
        <time>2021-04-10T08:28:13.000Z</time>
      </trkpt>
      <trkpt lat="37.93401338160038" lon="23.769591953605413">
        <ele>325.8</ele>
        <time>2021-04-10T08:28:16.000Z</time>
      </trkpt>
      <trkpt lat="37.93401866219938" lon="23.76961726695299">
        <ele>325.8</ele>
        <time>2021-04-10T08:28:18.000Z</time>
      </trkpt>
      <trkpt lat="37.934046825394034" lon="23.769699577242136">
        <ele>325.8</ele>
        <time>2021-04-10T08:28:24.000Z</time>
      </trkpt>
      <trkpt lat="37.93405395001173" lon="23.769718017429113">
        <ele>325.8</ele>
        <time>2021-04-10T08:28:25.000Z</time>
      </trkpt>
      <trkpt lat="37.934080101549625" lon="23.76976235769689">
        <ele>326</ele>
        <time>2021-04-10T08:28:31.000Z</time>
      </trkpt>
      <trkpt lat="37.93408923782408" lon="23.76981315203011">
        <ele>325.8</ele>
        <time>2021-04-10T08:28:35.000Z</time>
      </trkpt>
      <trkpt lat="37.93409116566181" lon="23.76985657028854">
        <ele>325.6</ele>
        <time>2021-04-10T08:28:38.000Z</time>
      </trkpt>
      <trkpt lat="37.93408814817667" lon="23.7698654551059">
        <ele>325.8</ele>
        <time>2021-04-10T08:28:39.000Z</time>
      </trkpt>
      <trkpt lat="37.93407783843577" lon="23.76990736462176">
        <ele>326</ele>
        <time>2021-04-10T08:28:43.000Z</time>
      </trkpt>
      <trkpt lat="37.934077084064484" lon="23.76992161385715">
        <ele>326</ele>
        <time>2021-04-10T08:28:44.000Z</time>
      </trkpt>
      <trkpt lat="37.934066858142614" lon="23.769977185875177">
        <ele>325.8</ele>
        <time>2021-04-10T08:28:48.000Z</time>
      </trkpt>
      <trkpt lat="37.934064511209726" lon="23.770009456202388">
        <ele>326</ele>
        <time>2021-04-10T08:28:50.000Z</time>
      </trkpt>
      <trkpt lat="37.9340623319149" lon="23.770123282447457">
        <ele>326.4</ele>
        <time>2021-04-10T08:28:58.000Z</time>
      </trkpt>
      <trkpt lat="37.934026373550296" lon="23.770256638526917">
        <ele>326.6</ele>
        <time>2021-04-10T08:29:06.000Z</time>
      </trkpt>
      <trkpt lat="37.934021428227425" lon="23.7702713906765">
        <ele>326.6</ele>
        <time>2021-04-10T08:29:07.000Z</time>
      </trkpt>
      <trkpt lat="37.93402704410255" lon="23.770361077040434">
        <ele>326.8</ele>
        <time>2021-04-10T08:29:14.000Z</time>
      </trkpt>
      <trkpt lat="37.9340208414942" lon="23.770402232185006">
        <ele>326.8</ele>
        <time>2021-04-10T08:29:18.000Z</time>
      </trkpt>
      <trkpt lat="37.93401380069554" lon="23.770425701513886">
        <ele>327</ele>
        <time>2021-04-10T08:29:20.000Z</time>
      </trkpt>
      <trkpt lat="37.93397968634963" lon="23.770532151684165">
        <ele>327.6</ele>
        <time>2021-04-10T08:29:28.000Z</time>
      </trkpt>
      <trkpt lat="37.93393014930189" lon="23.77065159380436">
        <ele>327.8</ele>
        <time>2021-04-10T08:29:36.000Z</time>
      </trkpt>
      <trkpt lat="37.93390248902142" lon="23.770748572424054">
        <ele>328</ele>
        <time>2021-04-10T08:29:41.000Z</time>
      </trkpt>
      <trkpt lat="37.933879271149635" lon="23.770838426426053">
        <ele>328.4</ele>
        <time>2021-04-10T08:29:46.000Z</time>
      </trkpt>
      <trkpt lat="37.9338535387069" lon="23.770989468321204">
        <ele>328.6</ele>
        <time>2021-04-10T08:29:56.000Z</time>
      </trkpt>
      <trkpt lat="37.93383467942476" lon="23.771103210747242">
        <ele>329</ele>
        <time>2021-04-10T08:30:03.000Z</time>
      </trkpt>
      <trkpt lat="37.93381649069488" lon="23.771237740293145">
        <ele>330</ele>
        <time>2021-04-10T08:30:11.000Z</time>
      </trkpt>
      <trkpt lat="37.93381883762777" lon="23.771253917366266">
        <ele>330</ele>
        <time>2021-04-10T08:30:12.000Z</time>
      </trkpt>
      <trkpt lat="37.9337964579463" lon="23.771380316466093">
        <ele>330.2</ele>
        <time>2021-04-10T08:30:21.000Z</time>
      </trkpt>
      <trkpt lat="37.933783968910575" lon="23.771486431360245">
        <ele>330.8</ele>
        <time>2021-04-10T08:30:28.000Z</time>
      </trkpt>
      <trkpt lat="37.933775670826435" lon="23.771512247622013">
        <ele>330.8</ele>
        <time>2021-04-10T08:30:30.000Z</time>
      </trkpt>
      <trkpt lat="37.93375287204981" lon="23.771618949249387">
        <ele>331.2</ele>
        <time>2021-04-10T08:30:37.000Z</time>
      </trkpt>
      <trkpt lat="37.933752704411745" lon="23.77163085155189">
        <ele>331.2</ele>
        <time>2021-04-10T08:30:38.000Z</time>
      </trkpt>
      <trkpt lat="37.93375044129789" lon="23.771722381934524">
        <ele>331.8</ele>
        <time>2021-04-10T08:30:44.000Z</time>
      </trkpt>
      <trkpt lat="37.933746837079525" lon="23.77177602611482">
        <ele>332.2</ele>
        <time>2021-04-10T08:30:47.000Z</time>
      </trkpt>
      <trkpt lat="37.93374557979405" lon="23.771796813234687">
        <ele>332.2</ele>
        <time>2021-04-10T08:30:48.000Z</time>
      </trkpt>
      <trkpt lat="37.93374658562243" lon="23.771819192916155">
        <ele>332.4</ele>
        <time>2021-04-10T08:30:49.000Z</time>
      </trkpt>
      <trkpt lat="37.9337499383837" lon="23.77186546102166">
        <ele>332.4</ele>
        <time>2021-04-10T08:30:52.000Z</time>
      </trkpt>
      <trkpt lat="37.933742897585034" lon="23.771929247304797">
        <ele>332.6</ele>
        <time>2021-04-10T08:30:56.000Z</time>
      </trkpt>
      <trkpt lat="37.933744909241796" lon="23.77198406495154">
        <ele>333</ele>
        <time>2021-04-10T08:30:59.000Z</time>
      </trkpt>
      <trkpt lat="37.933748848736286" lon="23.77203645184636">
        <ele>333.2</ele>
        <time>2021-04-10T08:31:02.000Z</time>
      </trkpt>
      <trkpt lat="37.93377114459872" lon="23.772063525393605">
        <ele>333.4</ele>
        <time>2021-04-10T08:31:04.000Z</time>
      </trkpt>
      <trkpt lat="37.93377726338804" lon="23.772088838741183">
        <ele>333.6</ele>
        <time>2021-04-10T08:31:06.000Z</time>
      </trkpt>
      <trkpt lat="37.93377726338804" lon="23.772104596719146">
        <ele>333.6</ele>
        <time>2021-04-10T08:31:07.000Z</time>
      </trkpt>
      <trkpt lat="37.93378732167184" lon="23.77216888591647">
        <ele>333.8</ele>
        <time>2021-04-10T08:31:11.000Z</time>
      </trkpt>
      <trkpt lat="37.93378849513829" lon="23.772185062989593">
        <ele>333.8</ele>
        <time>2021-04-10T08:31:12.000Z</time>
      </trkpt>
      <trkpt lat="37.93379838578403" lon="23.772260583937168">
        <ele>333.8</ele>
        <time>2021-04-10T08:31:16.000Z</time>
      </trkpt>
      <trkpt lat="37.93380324728787" lon="23.77231531776488">
        <ele>333.8</ele>
        <time>2021-04-10T08:31:19.000Z</time>
      </trkpt>
      <trkpt lat="37.93379897251725" lon="23.772351946681738">
        <ele>333.8</ele>
        <time>2021-04-10T08:31:22.000Z</time>
      </trkpt>
      <trkpt lat="37.93380282819271" lon="23.772452613338828">
        <ele>334.2</ele>
        <time>2021-04-10T08:31:29.000Z</time>
      </trkpt>
      <trkpt lat="37.93381984345615" lon="23.772499803453684">
        <ele>334.4</ele>
        <time>2021-04-10T08:31:31.000Z</time>
      </trkpt>
      <trkpt lat="37.93384691700339" lon="23.772612372413278">
        <ele>334.8</ele>
        <time>2021-04-10T08:31:39.000Z</time>
      </trkpt>
      <trkpt lat="37.933934004977345" lon="23.77272728830576">
        <ele>335</ele>
        <time>2021-04-10T08:31:47.000Z</time>
      </trkpt>
      <trkpt lat="37.933899220079184" lon="23.772834492847323">
        <ele>335.2</ele>
        <time>2021-04-10T08:31:54.000Z</time>
      </trkpt>
      <trkpt lat="37.93389804661274" lon="23.772893836721778">
        <ele>335.4</ele>
        <time>2021-04-10T08:31:57.000Z</time>
      </trkpt>
      <trkpt lat="37.933911960572004" lon="23.772990312427282">
        <ele>336.4</ele>
        <time>2021-04-10T08:32:04.000Z</time>
      </trkpt>
      <trkpt lat="37.93391757644713" lon="23.773004729300737">
        <ele>336.4</ele>
        <time>2021-04-10T08:32:05.000Z</time>
      </trkpt>
      <trkpt lat="37.93392998166382" lon="23.77306256443262">
        <ele>336.6</ele>
        <time>2021-04-10T08:32:09.000Z</time>
      </trkpt>
      <trkpt lat="37.93393911793828" lon="23.773110089823604">
        <ele>337</ele>
        <time>2021-04-10T08:32:13.000Z</time>
      </trkpt>
      <trkpt lat="37.93393174186349" lon="23.773127105087042">
        <ele>337.2</ele>
        <time>2021-04-10T08:32:15.000Z</time>
      </trkpt>
      <trkpt lat="37.933926125988364" lon="23.77313523553312">
        <ele>337.4</ele>
        <time>2021-04-10T08:32:16.000Z</time>
      </trkpt>
      <trkpt lat="37.933920761570334" lon="23.773144371807575">
        <ele>337.6</ele>
        <time>2021-04-10T08:32:17.000Z</time>
      </trkpt>
      <trkpt lat="37.93391514569521" lon="23.77316465601325">
        <ele>338</ele>
        <time>2021-04-10T08:32:19.000Z</time>
      </trkpt>
      <trkpt lat="37.933909110724926" lon="23.773182509467006">
        <ele>338.6</ele>
        <time>2021-04-10T08:32:21.000Z</time>
      </trkpt>
      <trkpt lat="37.933880276978016" lon="23.773256689310074">
        <ele>339.8</ele>
        <time>2021-04-10T08:32:27.000Z</time>
      </trkpt>
      <trkpt lat="37.93386334553361" lon="23.77325937151909">
        <ele>340</ele>
        <time>2021-04-10T08:32:29.000Z</time>
      </trkpt>
      <trkpt lat="37.933836691081524" lon="23.773261718451977">
        <ele>341</ele>
        <time>2021-04-10T08:32:33.000Z</time>
      </trkpt>
      <trkpt lat="37.933831913396716" lon="23.773265657946467">
        <ele>341.2</ele>
        <time>2021-04-10T08:32:34.000Z</time>
      </trkpt>
      <trkpt lat="37.93383358977735" lon="23.773294743150473">
        <ele>341.6</ele>
        <time>2021-04-10T08:32:37.000Z</time>
      </trkpt>
      <trkpt lat="37.93384239077568" lon="23.77331309951842">
        <ele>341.8</ele>
        <time>2021-04-10T08:32:38.000Z</time>
      </trkpt>
      <trkpt lat="37.93385202996433" lon="23.773333383724093">
        <ele>342</ele>
        <time>2021-04-10T08:32:39.000Z</time>
      </trkpt>
      <trkpt lat="37.93385840021074" lon="23.773345705121756">
        <ele>342.2</ele>
        <time>2021-04-10T08:32:40.000Z</time>
      </trkpt>
      <trkpt lat="37.9338622558862" lon="23.773362301290035">
        <ele>342.4</ele>
        <time>2021-04-10T08:32:42.000Z</time>
      </trkpt>
      <trkpt lat="37.93385228142142" lon="23.773375963792205">
        <ele>343.2</ele>
        <time>2021-04-10T08:32:47.000Z</time>
      </trkpt>
      <trkpt lat="37.93384926393628" lon="23.773375879973173">
        <ele>343.4</ele>
        <time>2021-04-10T08:32:48.000Z</time>
      </trkpt>
      <trkpt lat="37.933878768235445" lon="23.773421058431268">
        <ele>343.6</ele>
        <time>2021-04-10T08:32:53.000Z</time>
      </trkpt>
      <trkpt lat="37.93386125005782" lon="23.773411083966494">
        <ele>344.4</ele>
        <time>2021-04-10T08:32:58.000Z</time>
      </trkpt>
      <trkpt lat="37.93383551761508" lon="23.773367330431938">
        <ele>344.4</ele>
        <time>2021-04-10T08:33:04.000Z</time>
      </trkpt>
      <trkpt lat="37.933832667768" lon="23.773361463099718">
        <ele>344.6</ele>
        <time>2021-04-10T08:33:06.000Z</time>
      </trkpt>
      <trkpt lat="37.93384624645114" lon="23.7734314519912">
        <ele>344.8</ele>
        <time>2021-04-10T08:33:12.000Z</time>
      </trkpt>
      <trkpt lat="37.93385119177401" lon="23.773467326536775">
        <ele>345.2</ele>
        <time>2021-04-10T08:33:15.000Z</time>
      </trkpt>
      <trkpt lat="37.93384876102209" lon="23.77349096350372">
        <ele>345.4</ele>
        <time>2021-04-10T08:33:17.000Z</time>
      </trkpt>
      <trkpt lat="37.933845072984695" lon="23.773502279073">
        <ele>345.8</ele>
        <time>2021-04-10T08:33:18.000Z</time>
      </trkpt>
      <trkpt lat="37.93382512405515" lon="23.773532286286354">
        <ele>346.4</ele>
        <time>2021-04-10T08:33:22.000Z</time>
      </trkpt>
      <trkpt lat="37.93382026255131" lon="23.77354242838919">
        <ele>346.6</ele>
        <time>2021-04-10T08:33:23.000Z</time>
      </trkpt>
      <trkpt lat="37.93381456285715" lon="23.77355609089136">
        <ele>346.8</ele>
        <time>2021-04-10T08:33:24.000Z</time>
      </trkpt>
      <trkpt lat="37.93380760587752" lon="23.77358626574278">
        <ele>347.4</ele>
        <time>2021-04-10T08:33:26.000Z</time>
      </trkpt>
      <trkpt lat="37.933804504573345" lon="23.77359506674111">
        <ele>347.8</ele>
        <time>2021-04-10T08:33:27.000Z</time>
      </trkpt>
      <trkpt lat="37.933804504573345" lon="23.773619793355465">
        <ele>348.6</ele>
        <time>2021-04-10T08:33:30.000Z</time>
      </trkpt>
      <trkpt lat="37.93380483984947" lon="23.773626666516066">
        <ele>348.8</ele>
        <time>2021-04-10T08:33:31.000Z</time>
      </trkpt>
      <trkpt lat="37.933805929496884" lon="23.77363672479987">
        <ele>349</ele>
        <time>2021-04-10T08:33:32.000Z</time>
      </trkpt>
      <trkpt lat="37.93380525894463" lon="23.773660445585847">
        <ele>349.8</ele>
        <time>2021-04-10T08:33:36.000Z</time>
      </trkpt>
      <trkpt lat="37.93380525894463" lon="23.773661451414227">
        <ele>350</ele>
        <time>2021-04-10T08:33:37.000Z</time>
      </trkpt>
      <trkpt lat="37.93377994559705" lon="23.77365273423493">
        <ele>351</ele>
        <time>2021-04-10T08:33:43.000Z</time>
      </trkpt>
      <trkpt lat="37.93373879045248" lon="23.773681232705712">
        <ele>352</ele>
        <time>2021-04-10T08:33:48.000Z</time>
      </trkpt>
      <trkpt lat="37.93370266444981" lon="23.773705791682005">
        <ele>353.2</ele>
        <time>2021-04-10T08:33:53.000Z</time>
      </trkpt>
      <trkpt lat="37.93369780294597" lon="23.773711994290352">
        <ele>353.4</ele>
        <time>2021-04-10T08:33:54.000Z</time>
      </trkpt>
      <trkpt lat="37.93368548154831" lon="23.773734206333756">
        <ele>354.4</ele>
        <time>2021-04-10T08:33:57.000Z</time>
      </trkpt>
      <trkpt lat="37.93366628699005" lon="23.77375147305429">
        <ele>354.8</ele>
        <time>2021-04-10T08:34:00.000Z</time>
      </trkpt>
      <trkpt lat="37.93365782126784" lon="23.773782402276993">
        <ele>355.4</ele>
        <time>2021-04-10T08:34:03.000Z</time>
      </trkpt>
      <trkpt lat="37.93364482931793" lon="23.773793634027243">
        <ele>356</ele>
        <time>2021-04-10T08:34:05.000Z</time>
      </trkpt>
      <trkpt lat="37.933642230927944" lon="23.773804111406207">
        <ele>356.2</ele>
        <time>2021-04-10T08:34:06.000Z</time>
      </trkpt>
      <trkpt lat="37.933639381080866" lon="23.77383009530604">
        <ele>356.4</ele>
        <time>2021-04-10T08:34:08.000Z</time>
      </trkpt>
      <trkpt lat="37.933640386909246" lon="23.773856330662966">
        <ele>356.6</ele>
        <time>2021-04-10T08:34:10.000Z</time>
      </trkpt>
      <trkpt lat="37.93362446129322" lon="23.77386965788901">
        <ele>357.6</ele>
        <time>2021-04-10T08:34:15.000Z</time>
      </trkpt>
      <trkpt lat="37.93362211436033" lon="23.773872926831245">
        <ele>357.8</ele>
        <time>2021-04-10T08:34:16.000Z</time>
      </trkpt>
      <trkpt lat="37.933630077168345" lon="23.773898659273982">
        <ele>358.4</ele>
        <time>2021-04-10T08:34:21.000Z</time>
      </trkpt>
      <trkpt lat="37.933633429929614" lon="23.77390494570136">
        <ele>358.8</ele>
        <time>2021-04-10T08:34:22.000Z</time>
      </trkpt>
      <trkpt lat="37.93363820761442" lon="23.77390435896814">
        <ele>359.4</ele>
        <time>2021-04-10T08:34:24.000Z</time>
      </trkpt>
      <trkpt lat="37.93364055454731" lon="23.77390486188233">
        <ele>360</ele>
        <time>2021-04-10T08:34:26.000Z</time>
      </trkpt>
      <trkpt lat="37.9336030036211" lon="23.77392145805061">
        <ele>360.8</ele>
        <time>2021-04-10T08:34:32.000Z</time>
      </trkpt>
      <trkpt lat="37.93360048905015" lon="23.773926319554448">
        <ele>361.2</ele>
        <time>2021-04-10T08:34:33.000Z</time>
      </trkpt>
      <trkpt lat="37.93359755538404" lon="23.773967223241925">
        <ele>361.6</ele>
        <time>2021-04-10T08:34:37.000Z</time>
      </trkpt>
      <trkpt lat="37.93358288705349" lon="23.773995218798518">
        <ele>362.4</ele>
        <time>2021-04-10T08:34:42.000Z</time>
      </trkpt>
      <trkpt lat="37.933571487665176" lon="23.774002846330404">
        <ele>363</ele>
        <time>2021-04-10T08:34:44.000Z</time>
      </trkpt>
      <trkpt lat="37.93355262838304" lon="23.774003768339753">
        <ele>363.6</ele>
        <time>2021-04-10T08:34:47.000Z</time>
      </trkpt>
      <trkpt lat="37.93355011381209" lon="23.773987758904696">
        <ele>364.2</ele>
        <time>2021-04-10T08:34:52.000Z</time>
      </trkpt>
      <trkpt lat="37.93355857953429" lon="23.773993123322725">
        <ele>364.4</ele>
        <time>2021-04-10T08:34:58.000Z</time>
      </trkpt>
      <trkpt lat="37.93355799280107" lon="23.77400360070169">
        <ele>364.6</ele>
        <time>2021-04-10T08:35:00.000Z</time>
      </trkpt>
      <trkpt lat="37.93356075882912" lon="23.7740012537688">
        <ele>364.8</ele>
        <time>2021-04-10T08:35:05.000Z</time>
      </trkpt>
      <trkpt lat="37.93356612324715" lon="23.773982310667634">
        <ele>364.4</ele>
        <time>2021-04-10T08:35:09.000Z</time>
      </trkpt>
      <trkpt lat="37.93356763198972" lon="23.773961942642927">
        <ele>364.6</ele>
        <time>2021-04-10T08:35:17.000Z</time>
      </trkpt>
      <trkpt lat="37.933565033599734" lon="23.77394350245595">
        <ele>364.4</ele>
        <time>2021-04-10T08:35:23.000Z</time>
      </trkpt>
      <trkpt lat="37.93356469832361" lon="23.773937970399857">
        <ele>364.4</ele>
        <time>2021-04-10T08:35:25.000Z</time>
      </trkpt>
      <trkpt lat="37.93358372524381" lon="23.77397485077381">
        <ele>364.6</ele>
        <time>2021-04-10T08:35:31.000Z</time>
      </trkpt>
      <trkpt lat="37.93356075882912" lon="23.77398448996246">
        <ele>364.6</ele>
        <time>2021-04-10T08:35:35.000Z</time>
      </trkpt>
      <trkpt lat="37.93356570415199" lon="23.773987255990505">
        <ele>364.8</ele>
        <time>2021-04-10T08:35:37.000Z</time>
      </trkpt>
      <trkpt lat="37.93356872163713" lon="23.773986166343093">
        <ele>364.8</ele>
        <time>2021-04-10T08:35:38.000Z</time>
      </trkpt>
      <trkpt lat="37.933567967265844" lon="23.77397820353508">
        <ele>364.8</ele>
        <time>2021-04-10T08:35:42.000Z</time>
      </trkpt>
      <trkpt lat="37.93356763198972" lon="23.773976862430573">
        <ele>364.8</ele>
        <time>2021-04-10T08:35:43.000Z</time>
      </trkpt>
      <trkpt lat="37.93356486596167" lon="23.77397971227765">
        <ele>364.8</ele>
        <time>2021-04-10T08:35:50.000Z</time>
      </trkpt>
      <trkpt lat="37.933575846254826" lon="23.774007875472307">
        <ele>364.6</ele>
        <time>2021-04-10T08:35:52.000Z</time>
      </trkpt>
      <trkpt lat="37.933575846254826" lon="23.774007875472307">
        <ele>364.6</ele>
        <time>2021-04-10T08:35:52.000Z</time>
      </trkpt>
      <trkpt lat="37.93355849571526" lon="23.774026315659285">
        <ele>364.6</ele>
        <time>2021-04-10T08:35:55.000Z</time>
      </trkpt>
      <trkpt lat="37.93355564586818" lon="23.774030674248934">
        <ele>364.8</ele>
        <time>2021-04-10T08:35:56.000Z</time>
      </trkpt>
      <trkpt lat="37.933544497936964" lon="23.77402908168733">
        <ele>365.4</ele>
        <time>2021-04-10T08:36:02.000Z</time>
      </trkpt>
      <trkpt lat="37.933540642261505" lon="23.774051377549767">
        <ele>365.4</ele>
        <time>2021-04-10T08:36:06.000Z</time>
      </trkpt>
      <trkpt lat="37.93355539441109" lon="23.77406805753708">
        <ele>365.8</ele>
        <time>2021-04-10T08:36:08.000Z</time>
      </trkpt>
      <trkpt lat="37.933571487665176" lon="23.774080965667963">
        <ele>366.2</ele>
        <time>2021-04-10T08:36:10.000Z</time>
      </trkpt>
      <trkpt lat="37.933582216501236" lon="23.774085408076644">
        <ele>366.2</ele>
        <time>2021-04-10T08:36:11.000Z</time>
      </trkpt>
      <trkpt lat="37.93364357203245" lon="23.774080462753773">
        <ele>366.6</ele>
        <time>2021-04-10T08:36:16.000Z</time>
      </trkpt>
      <trkpt lat="37.93365656398237" lon="23.774081552401185">
        <ele>366.4</ele>
        <time>2021-04-10T08:36:17.000Z</time>
      </trkpt>
      <trkpt lat="37.933714650571346" lon="23.774090772494674">
        <ele>366.6</ele>
        <time>2021-04-10T08:36:22.000Z</time>
      </trkpt>
      <trkpt lat="37.933724373579025" lon="23.7740929517895">
        <ele>366.8</ele>
        <time>2021-04-10T08:36:23.000Z</time>
      </trkpt>
      <trkpt lat="37.93373141437769" lon="23.774093287065625">
        <ele>366.8</ele>
        <time>2021-04-10T08:36:24.000Z</time>
      </trkpt>
      <trkpt lat="37.933733174577355" lon="23.77407794818282">
        <ele>367</ele>
        <time>2021-04-10T08:36:27.000Z</time>
      </trkpt>
      <trkpt lat="37.93373158201575" lon="23.774069398641586">
        <ele>367</ele>
        <time>2021-04-10T08:36:28.000Z</time>
      </trkpt>
      <trkpt lat="37.93371884152293" lon="23.773983316496015">
        <ele>367.8</ele>
        <time>2021-04-10T08:36:33.000Z</time>
      </trkpt>
      <trkpt lat="37.9337203502655" lon="23.773965379223228">
        <ele>367.8</ele>
        <time>2021-04-10T08:36:34.000Z</time>
      </trkpt>
      <trkpt lat="37.93381439521909" lon="23.773907124996185">
        <ele>367.6</ele>
        <time>2021-04-10T08:36:47.000Z</time>
      </trkpt>
      <trkpt lat="37.933718925341964" lon="23.77409395761788">
        <ele>367.8</ele>
        <time>2021-04-10T08:36:54.000Z</time>
      </trkpt>
      <trkpt lat="37.93370802886784" lon="23.77410233952105">
        <ele>367.8</ele>
        <time>2021-04-10T08:36:55.000Z</time>
      </trkpt>
      <trkpt lat="37.93370936997235" lon="23.77415891736746">
        <ele>367.8</ele>
        <time>2021-04-10T08:36:57.000Z</time>
      </trkpt>
      <trkpt lat="37.93372454121709" lon="23.77415263094008">
        <ele>367.8</ele>
        <time>2021-04-10T08:37:02.000Z</time>
      </trkpt>
      <trkpt lat="37.93376812711358" lon="23.774125054478645">
        <ele>368.4</ele>
        <time>2021-04-10T08:37:09.000Z</time>
      </trkpt>
      <trkpt lat="37.93381104245782" lon="23.77413025125861">
        <ele>369</ele>
        <time>2021-04-10T08:37:12.000Z</time>
      </trkpt>
      <trkpt lat="37.93386829085648" lon="23.77411994151771">
        <ele>369.6</ele>
        <time>2021-04-10T08:37:16.000Z</time>
      </trkpt>
      <trkpt lat="37.93389234691858" lon="23.77410233952105">
        <ele>370</ele>
        <time>2021-04-10T08:37:18.000Z</time>
      </trkpt>
      <trkpt lat="37.93392000719905" lon="23.77409353852272">
        <ele>370.2</ele>
        <time>2021-04-10T08:37:20.000Z</time>
      </trkpt>
      <trkpt lat="37.93394632637501" lon="23.77409311942756">
        <ele>370.4</ele>
        <time>2021-04-10T08:37:22.000Z</time>
      </trkpt>
      <trkpt lat="37.933957977220416" lon="23.774094376713037">
        <ele>370.6</ele>
        <time>2021-04-10T08:37:23.000Z</time>
      </trkpt>
      <trkpt lat="37.93397968634963" lon="23.774099238216877">
        <ele>371.2</ele>
        <time>2021-04-10T08:37:25.000Z</time>
      </trkpt>
      <trkpt lat="37.934001898393035" lon="23.774097645655274">
        <ele>371.4</ele>
        <time>2021-04-10T08:37:27.000Z</time>
      </trkpt>
      <trkpt lat="37.934064008295536" lon="23.77409504726529">
        <ele>371.2</ele>
        <time>2021-04-10T08:37:31.000Z</time>
      </trkpt>
      <trkpt lat="37.934106001630425" lon="23.774074679240584">
        <ele>372.4</ele>
        <time>2021-04-10T08:37:35.000Z</time>
      </trkpt>
      <trkpt lat="37.93411446735263" lon="23.774065962061286">
        <ele>372.8</ele>
        <time>2021-04-10T08:37:36.000Z</time>
      </trkpt>
      <trkpt lat="37.934122094884515" lon="23.774056993424892">
        <ele>373</ele>
        <time>2021-04-10T08:37:37.000Z</time>
      </trkpt>
      <trkpt lat="37.93413056060672" lon="23.774047857150435">
        <ele>373.2</ele>
        <time>2021-04-10T08:37:38.000Z</time>
      </trkpt>
      <trkpt lat="37.934146570041776" lon="23.774037044495344">
        <ele>373.6</ele>
        <time>2021-04-10T08:37:40.000Z</time>
      </trkpt>
      <trkpt lat="37.93416283093393" lon="23.774040145799518">
        <ele>374</ele>
        <time>2021-04-10T08:37:43.000Z</time>
      </trkpt>
      <trkpt lat="37.93417523615062" lon="23.77404375001788">
        <ele>374.2</ele>
        <time>2021-04-10T08:37:45.000Z</time>
      </trkpt>
      <trkpt lat="37.93423851951957" lon="23.774049282073975">
        <ele>374.6</ele>
        <time>2021-04-10T08:37:50.000Z</time>
      </trkpt>
      <trkpt lat="37.93426198884845" lon="23.77404123544693">
        <ele>375</ele>
        <time>2021-04-10T08:37:52.000Z</time>
      </trkpt>
      <trkpt lat="37.93433818034828" lon="23.77401835285127">
        <ele>375.8</ele>
        <time>2021-04-10T08:37:58.000Z</time>
      </trkpt>
      <trkpt lat="37.934385454282165" lon="23.77401726320386">
        <ele>376.6</ele>
        <time>2021-04-10T08:38:04.000Z</time>
      </trkpt>
      <trkpt lat="37.93439484201372" lon="23.774005193263292">
        <ele>376.6</ele>
        <time>2021-04-10T08:38:05.000Z</time>
      </trkpt>
      <trkpt lat="37.934406157583" lon="23.77399530261755">
        <ele>376.8</ele>
        <time>2021-04-10T08:38:06.000Z</time>
      </trkpt>
      <trkpt lat="37.934414790943265" lon="23.77398599870503">
        <ele>377</ele>
        <time>2021-04-10T08:38:07.000Z</time>
      </trkpt>
      <trkpt lat="37.93442099355161" lon="23.773980466648936">
        <ele>377.2</ele>
        <time>2021-04-10T08:38:08.000Z</time>
      </trkpt>
      <trkpt lat="37.93442920781672" lon="23.77396940253675">
        <ele>377.4</ele>
        <time>2021-04-10T08:38:10.000Z</time>
      </trkpt>
      <trkpt lat="37.934443624690175" lon="23.77395716495812">
        <ele>377.4</ele>
        <time>2021-04-10T08:38:12.000Z</time>
      </trkpt>
      <trkpt lat="37.93445326387882" lon="23.773948615416884">
        <ele>377.4</ele>
        <time>2021-04-10T08:38:13.000Z</time>
      </trkpt>
      <trkpt lat="37.934470949694514" lon="23.773924307897687">
        <ele>377.6</ele>
        <time>2021-04-10T08:38:15.000Z</time>
      </trkpt>
      <trkpt lat="37.93448092415929" lon="23.773898743093014">
        <ele>378</ele>
        <time>2021-04-10T08:38:17.000Z</time>
      </trkpt>
      <trkpt lat="37.934495843946934" lon="23.773883320391178">
        <ele>378.8</ele>
        <time>2021-04-10T08:38:19.000Z</time>
      </trkpt>
      <trkpt lat="37.93450389057398" lon="23.77387611195445">
        <ele>379</ele>
        <time>2021-04-10T08:38:20.000Z</time>
      </trkpt>
      <trkpt lat="37.93451118282974" lon="23.77386932261288">
        <ele>379</ele>
        <time>2021-04-10T08:38:21.000Z</time>
      </trkpt>
      <trkpt lat="37.934525264427066" lon="23.77385549247265">
        <ele>379.6</ele>
        <time>2021-04-10T08:38:23.000Z</time>
      </trkpt>
      <trkpt lat="37.934533478692174" lon="23.773846523836255">
        <ele>379.8</ele>
        <time>2021-04-10T08:38:24.000Z</time>
      </trkpt>
      <trkpt lat="37.93454890139401" lon="23.773827580735087">
        <ele>380.2</ele>
        <time>2021-04-10T08:38:26.000Z</time>
      </trkpt>
      <trkpt lat="37.93456214480102" lon="23.77381014637649">
        <ele>380.4</ele>
        <time>2021-04-10T08:38:28.000Z</time>
      </trkpt>
      <trkpt lat="37.934568179771304" lon="23.773801932111382">
        <ele>380.4</ele>
        <time>2021-04-10T08:38:29.000Z</time>
      </trkpt>
      <trkpt lat="37.93460070155561" lon="23.773753149434924">
        <ele>381</ele>
        <time>2021-04-10T08:38:34.000Z</time>
      </trkpt>
      <trkpt lat="37.93460656888783" lon="23.77374074421823">
        <ele>381.2</ele>
        <time>2021-04-10T08:38:35.000Z</time>
      </trkpt>
      <trkpt lat="37.93461285531521" lon="23.773729177191854">
        <ele>381.2</ele>
        <time>2021-04-10T08:38:36.000Z</time>
      </trkpt>
      <trkpt lat="37.93463255278766" lon="23.773704366758466">
        <ele>381.4</ele>
        <time>2021-04-10T08:38:38.000Z</time>
      </trkpt>
      <trkpt lat="37.93464914895594" lon="23.773668073117733">
        <ele>381.4</ele>
        <time>2021-04-10T08:38:41.000Z</time>
      </trkpt>
      <trkpt lat="37.93468217365444" lon="23.773594480007887">
        <ele>381.6</ele>
        <time>2021-04-10T08:38:47.000Z</time>
      </trkpt>
      <trkpt lat="37.93471368961036" lon="23.773543601855636">
        <ele>382</ele>
        <time>2021-04-10T08:38:51.000Z</time>
      </trkpt>
      <trkpt lat="37.93473078869283" lon="23.773509906604886">
        <ele>382.2</ele>
        <time>2021-04-10T08:38:54.000Z</time>
      </trkpt>
      <trkpt lat="37.93473958969116" lon="23.773482581600547">
        <ele>382.8</ele>
        <time>2021-04-10T08:38:56.000Z</time>
      </trkpt>
      <trkpt lat="37.93474453501403" lon="23.773464979603887">
        <ele>383.2</ele>
        <time>2021-04-10T08:38:58.000Z</time>
      </trkpt>
      <trkpt lat="37.93474730104208" lon="23.773454669862986">
        <ele>383.4</ele>
        <time>2021-04-10T08:39:00.000Z</time>
      </trkpt>
      <trkpt lat="37.93474822305143" lon="23.773466823622584">
        <ele>383.4</ele>
        <time>2021-04-10T08:39:02.000Z</time>
      </trkpt>
      <trkpt lat="37.93475006707013" lon="23.77348132431507">
        <ele>383.4</ele>
        <time>2021-04-10T08:39:03.000Z</time>
      </trkpt>
      <trkpt lat="37.934742104262114" lon="23.773504542186856">
        <ele>383.2</ele>
        <time>2021-04-10T08:39:08.000Z</time>
      </trkpt>
      <trkpt lat="37.93473766185343" lon="23.773567155003548">
        <ele>383.6</ele>
        <time>2021-04-10T08:39:15.000Z</time>
      </trkpt>
      <trkpt lat="37.93471846729517" lon="23.77355366013944">
        <ele>383.4</ele>
        <time>2021-04-10T08:39:21.000Z</time>
      </trkpt>
      <trkpt lat="37.93473280034959" lon="23.773517534136772">
        <ele>382.6</ele>
        <time>2021-04-10T08:39:29.000Z</time>
      </trkpt>
      <trkpt lat="37.93473330326378" lon="23.773515271022916">
        <ele>382.6</ele>
        <time>2021-04-10T08:39:31.000Z</time>
      </trkpt>
      <trkpt lat="37.93473506346345" lon="23.773511750623584">
        <ele>382.6</ele>
        <time>2021-04-10T08:39:35.000Z</time>
      </trkpt>
      <trkpt lat="37.934732381254435" lon="23.77353404648602">
        <ele>382.8</ele>
        <time>2021-04-10T08:39:37.000Z</time>
      </trkpt>
      <trkpt lat="37.93472374789417" lon="23.773522647097707">
        <ele>382.6</ele>
        <time>2021-04-10T08:39:42.000Z</time>
      </trkpt>
      <trkpt lat="37.93469348922372" lon="23.773503368720412">
        <ele>382.6</ele>
        <time>2021-04-10T08:39:47.000Z</time>
      </trkpt>
      <trkpt lat="37.93471452780068" lon="23.773531867191195">
        <ele>382.8</ele>
        <time>2021-04-10T08:39:53.000Z</time>
      </trkpt>
      <trkpt lat="37.93469692580402" lon="23.773509403690696">
        <ele>383</ele>
        <time>2021-04-10T08:39:59.000Z</time>
      </trkpt>
      <trkpt lat="37.93469248339534" lon="23.7735178694129">
        <ele>382.8</ele>
        <time>2021-04-10T08:40:04.000Z</time>
      </trkpt>
      <trkpt lat="37.9346960876137" lon="23.77352767623961">
        <ele>382.8</ele>
        <time>2021-04-10T08:40:07.000Z</time>
      </trkpt>
      <trkpt lat="37.93470220640302" lon="23.773536812514067">
        <ele>382.6</ele>
        <time>2021-04-10T08:40:11.000Z</time>
      </trkpt>
      <trkpt lat="37.934710923582315" lon="23.773543098941445">
        <ele>382.4</ele>
        <time>2021-04-10T08:40:13.000Z</time>
      </trkpt>
      <trkpt lat="37.93471947312355" lon="23.77354083582759">
        <ele>382.4</ele>
        <time>2021-04-10T08:40:18.000Z</time>
      </trkpt>
      <trkpt lat="37.934725005179644" lon="23.773544440045953">
        <ele>382.4</ele>
        <time>2021-04-10T08:40:19.000Z</time>
      </trkpt>
      <trkpt lat="37.93472877703607" lon="23.773547457531095">
        <ele>382.2</ele>
        <time>2021-04-10T08:40:35.000Z</time>
      </trkpt>
      <trkpt lat="37.93472626246512" lon="23.77354779280722">
        <ele>382.2</ele>
        <time>2021-04-10T08:40:38.000Z</time>
      </trkpt>
      <trkpt lat="37.934756353497505" lon="23.773513762280345">
        <ele>382.6</ele>
        <time>2021-04-10T08:40:46.000Z</time>
      </trkpt>
      <trkpt lat="37.934737242758274" lon="23.773520970717072">
        <ele>382</ele>
        <time>2021-04-10T08:40:54.000Z</time>
      </trkpt>
      <trkpt lat="37.93471561744809" lon="23.773560533300042">
        <ele>382</ele>
        <time>2021-04-10T08:41:08.000Z</time>
      </trkpt>
      <trkpt lat="37.9347169585526" lon="23.773549050092697">
        <ele>384.8</ele>
        <time>2021-04-10T08:41:11.000Z</time>
      </trkpt>
      <trkpt lat="37.93472173623741" lon="23.773551899939775">
        <ele>383.4</ele>
        <time>2021-04-10T08:41:12.000Z</time>
      </trkpt>
      <trkpt lat="37.93473506346345" lon="23.773546451702714">
        <ele>382.4</ele>
        <time>2021-04-10T08:41:14.000Z</time>
      </trkpt>
      <trkpt lat="37.93473958969116" lon="23.77351652830839">
        <ele>382</ele>
        <time>2021-04-10T08:41:19.000Z</time>
      </trkpt>
      <trkpt lat="37.934739254415035" lon="23.77352776005864">
        <ele>382</ele>
        <time>2021-04-10T08:41:28.000Z</time>
      </trkpt>
      <trkpt lat="37.93474034406245" lon="23.773526418954134">
        <ele>382</ele>
        <time>2021-04-10T08:41:29.000Z</time>
      </trkpt>
      <trkpt lat="37.934735314920545" lon="23.773522144183517">
        <ele>382</ele>
        <time>2021-04-10T08:41:33.000Z</time>
      </trkpt>
      <trkpt lat="37.9347375780344" lon="23.77349741756916">
        <ele>382</ele>
        <time>2021-04-10T08:41:37.000Z</time>
      </trkpt>
      <trkpt lat="37.93474134989083" lon="23.77347595989704">
        <ele>382</ele>
        <time>2021-04-10T08:41:41.000Z</time>
      </trkpt>
      <trkpt lat="37.934744451195" lon="23.77347059547901">
        <ele>382</ele>
        <time>2021-04-10T08:41:44.000Z</time>
      </trkpt>
      <trkpt lat="37.934742188081145" lon="23.773466488346457">
        <ele>382</ele>
        <time>2021-04-10T08:41:45.000Z</time>
      </trkpt>
      <trkpt lat="37.934741182252765" lon="23.773457687348127">
        <ele>382</ele>
        <time>2021-04-10T08:41:47.000Z</time>
      </trkpt>
      <trkpt lat="37.93471897020936" lon="23.77355106174946">
        <ele>382</ele>
        <time>2021-04-10T08:41:58.000Z</time>
      </trkpt>
      <trkpt lat="37.93472676537931" lon="23.773523066192865">
        <ele>382</ele>
        <time>2021-04-10T08:42:03.000Z</time>
      </trkpt>
      <trkpt lat="37.93470874428749" lon="23.77352859824896">
        <ele>382</ele>
        <time>2021-04-10T08:42:17.000Z</time>
      </trkpt>
      <trkpt lat="37.93477579951286" lon="23.773413514718413">
        <ele>382</ele>
        <time>2021-04-10T08:42:26.000Z</time>
      </trkpt>
      <trkpt lat="37.934789545834064" lon="23.77339281141758">
        <ele>382</ele>
        <time>2021-04-10T08:42:27.000Z</time>
      </trkpt>
      <trkpt lat="37.93483857996762" lon="23.77335039898753">
        <ele>382</ele>
        <time>2021-04-10T08:42:30.000Z</time>
      </trkpt>
      <trkpt lat="37.93486255221069" lon="23.773343693464994">
        <ele>382</ele>
        <time>2021-04-10T08:42:32.000Z</time>
      </trkpt>
      <trkpt lat="37.93488518334925" lon="23.773339837789536">
        <ele>382.8</ele>
        <time>2021-04-10T08:42:34.000Z</time>
      </trkpt>
      <trkpt lat="37.934909826144576" lon="23.773347716778517">
        <ele>383.6</ele>
        <time>2021-04-10T08:42:36.000Z</time>
      </trkpt>
      <trkpt lat="37.934919968247414" lon="23.773349560797215">
        <ele>383.8</ele>
        <time>2021-04-10T08:42:37.000Z</time>
      </trkpt>
      <trkpt lat="37.93493673205376" lon="23.773352494463325">
        <ele>384.2</ele>
        <time>2021-04-10T08:42:39.000Z</time>
      </trkpt>
      <trkpt lat="37.93494419194758" lon="23.77335517667234">
        <ele>384.4</ele>
        <time>2021-04-10T08:42:40.000Z</time>
      </trkpt>
      <trkpt lat="37.93495148420334" lon="23.773359954357147">
        <ele>384.6</ele>
        <time>2021-04-10T08:42:41.000Z</time>
      </trkpt>
      <trkpt lat="37.93496372178197" lon="23.77338065765798">
        <ele>384.8</ele>
        <time>2021-04-10T08:42:43.000Z</time>
      </trkpt>
      <trkpt lat="37.934974282979965" lon="23.773392559960485">
        <ele>384.8</ele>
        <time>2021-04-10T08:42:44.000Z</time>
      </trkpt>
      <trkpt lat="37.934989370405674" lon="23.773407228291035">
        <ele>385</ele>
        <time>2021-04-10T08:42:46.000Z</time>
      </trkpt>
      <trkpt lat="37.93502449057996" lon="23.773413933813572">
        <ele>385.4</ele>
        <time>2021-04-10T08:42:50.000Z</time>
      </trkpt>
      <trkpt lat="37.93507025577128" lon="23.77344997599721">
        <ele>385.8</ele>
        <time>2021-04-10T08:42:54.000Z</time>
      </trkpt>
      <trkpt lat="37.93508886359632" lon="23.773461375385523">
        <ele>386</ele>
        <time>2021-04-10T08:42:56.000Z</time>
      </trkpt>
      <trkpt lat="37.93509758077562" lon="23.773466488346457">
        <ele>386.2</ele>
        <time>2021-04-10T08:42:57.000Z</time>
      </trkpt>
      <trkpt lat="37.935133120045066" lon="23.77349096350372">
        <ele>386.8</ele>
        <time>2021-04-10T08:43:01.000Z</time>
      </trkpt>
      <trkpt lat="37.93514292687178" lon="23.77349649555981">
        <ele>387</ele>
        <time>2021-04-10T08:43:02.000Z</time>
      </trkpt>
      <trkpt lat="37.93515482917428" lon="23.77350026741624">
        <ele>387.2</ele>
        <time>2021-04-10T08:43:03.000Z</time>
      </trkpt>
      <trkpt lat="37.93516128323972" lon="23.773509487509727">
        <ele>387.4</ele>
        <time>2021-04-10T08:43:04.000Z</time>
      </trkpt>
      <trkpt lat="37.93516656383872" lon="23.77351795323193">
        <ele>387.4</ele>
        <time>2021-04-10T08:43:05.000Z</time>
      </trkpt>
      <trkpt lat="37.93517393991351" lon="23.77353119663894">
        <ele>387.8</ele>
        <time>2021-04-10T08:43:07.000Z</time>
      </trkpt>
      <trkpt lat="37.935187853872776" lon="23.773559192195535">
        <ele>388</ele>
        <time>2021-04-10T08:43:10.000Z</time>
      </trkpt>
      <trkpt lat="37.935218112543225" lon="23.773630186915398">
        <ele>389</ele>
        <time>2021-04-10T08:43:17.000Z</time>
      </trkpt>
      <trkpt lat="37.935227835550904" lon="23.773644855245948">
        <ele>389.6</ele>
        <time>2021-04-10T08:43:19.000Z</time>
      </trkpt>
      <trkpt lat="37.935247868299484" lon="23.773668324574828">
        <ele>390</ele>
        <time>2021-04-10T08:43:22.000Z</time>
      </trkpt>
      <trkpt lat="37.93527519330382" lon="23.773695398122072">
        <ele>390.8</ele>
        <time>2021-04-10T08:43:26.000Z</time>
      </trkpt>
      <trkpt lat="37.935290448367596" lon="23.77370595932007">
        <ele>391.2</ele>
        <time>2021-04-10T08:43:28.000Z</time>
      </trkpt>
      <trkpt lat="37.93530771508813" lon="23.77371777780354">
        <ele>391.6</ele>
        <time>2021-04-10T08:43:30.000Z</time>
      </trkpt>
      <trkpt lat="37.93533126823604" lon="23.773722387850285">
        <ele>392</ele>
        <time>2021-04-10T08:43:32.000Z</time>
      </trkpt>
      <trkpt lat="37.935348618775606" lon="23.77372515387833">
        <ele>392</ele>
        <time>2021-04-10T08:43:34.000Z</time>
      </trkpt>
      <trkpt lat="37.935357587412" lon="23.773731775581837">
        <ele>392.4</ele>
        <time>2021-04-10T08:43:35.000Z</time>
      </trkpt>
      <trkpt lat="37.93537376448512" lon="23.77374703064561">
        <ele>392.6</ele>
        <time>2021-04-10T08:43:37.000Z</time>
      </trkpt>
      <trkpt lat="37.935443418100476" lon="23.773768236860633">
        <ele>393.4</ele>
        <time>2021-04-10T08:43:43.000Z</time>
      </trkpt>
      <trkpt lat="37.93545582331717" lon="23.77377049997449">
        <ele>393.4</ele>
        <time>2021-04-10T08:43:44.000Z</time>
      </trkpt>
      <trkpt lat="37.93548415414989" lon="23.773777708411217">
        <ele>393.4</ele>
        <time>2021-04-10T08:43:47.000Z</time>
      </trkpt>
      <trkpt lat="37.93553218245506" lon="23.77378818579018">
        <ele>393.8</ele>
        <time>2021-04-10T08:43:53.000Z</time>
      </trkpt>
      <trkpt lat="37.93557224795222" lon="23.77377829514444">
        <ele>394</ele>
        <time>2021-04-10T08:43:56.000Z</time>
      </trkpt>
      <trkpt lat="37.93559328652918" lon="23.77377636730671">
        <ele>394.2</ele>
        <time>2021-04-10T08:43:58.000Z</time>
      </trkpt>
      <trkpt lat="37.93561466038227" lon="23.77378223463893">
        <ele>394</ele>
        <time>2021-04-10T08:44:00.000Z</time>
      </trkpt>
      <trkpt lat="37.93564994819462" lon="23.77379011362791">
        <ele>394</ele>
        <time>2021-04-10T08:44:03.000Z</time>
      </trkpt>
      <trkpt lat="37.93567174114287" lon="23.773786425590515">
        <ele>394</ele>
        <time>2021-04-10T08:44:05.000Z</time>
      </trkpt>
      <trkpt lat="37.935706442222" lon="23.77378416247666">
        <ele>394</ele>
        <time>2021-04-10T08:44:08.000Z</time>
      </trkpt>
      <trkpt lat="37.93574013747275" lon="23.77379841171205">
        <ele>394.6</ele>
        <time>2021-04-10T08:44:11.000Z</time>
      </trkpt>
      <trkpt lat="37.93575832620263" lon="23.773822551593184">
        <ele>395</ele>
        <time>2021-04-10T08:44:13.000Z</time>
      </trkpt>
      <trkpt lat="37.93578204698861" lon="23.773846942931414">
        <ele>395.4</ele>
        <time>2021-04-10T08:44:16.000Z</time>
      </trkpt>
      <trkpt lat="37.935796128585935" lon="23.773879213258624">
        <ele>395.4</ele>
        <time>2021-04-10T08:44:20.000Z</time>
      </trkpt>
      <trkpt lat="37.935797553509474" lon="23.773887427523732">
        <ele>395.6</ele>
        <time>2021-04-10T08:44:21.000Z</time>
      </trkpt>
      <trkpt lat="37.93580040335655" lon="23.773909471929073">
        <ele>396</ele>
        <time>2021-04-10T08:44:23.000Z</time>
      </trkpt>
      <trkpt lat="37.93581993319094" lon="23.77395230345428">
        <ele>396.4</ele>
        <time>2021-04-10T08:44:27.000Z</time>
      </trkpt>
      <trkpt lat="37.93582965619862" lon="23.773959930986166">
        <ele>396.6</ele>
        <time>2021-04-10T08:44:28.000Z</time>
      </trkpt>
      <trkpt lat="37.93585103005171" lon="23.77396110445261">
        <ele>397.2</ele>
        <time>2021-04-10T08:44:30.000Z</time>
      </trkpt>
      <trkpt lat="37.935881121084094" lon="23.773954482749104">
        <ele>397.4</ele>
        <time>2021-04-10T08:44:32.000Z</time>
      </trkpt>
      <trkpt lat="37.93591624125838" lon="23.773962194100022">
        <ele>397.6</ele>
        <time>2021-04-10T08:44:35.000Z</time>
      </trkpt>
      <trkpt lat="37.93592697009444" lon="23.77396889962256">
        <ele>397.8</ele>
        <time>2021-04-10T08:44:36.000Z</time>
      </trkpt>
      <trkpt lat="37.935959408059716" lon="23.774002427235246">
        <ele>398.6</ele>
        <time>2021-04-10T08:44:40.000Z</time>
      </trkpt>
      <trkpt lat="37.9359844699502" lon="23.77406084910035">
        <ele>398.8</ele>
        <time>2021-04-10T08:44:45.000Z</time>
      </trkpt>
      <trkpt lat="37.93599830009043" lon="23.774105859920382">
        <ele>399.6</ele>
        <time>2021-04-10T08:44:50.000Z</time>
      </trkpt>
      <trkpt lat="37.93600291013718" lon="23.77412631176412">
        <ele>400</ele>
        <time>2021-04-10T08:44:52.000Z</time>
      </trkpt>
      <trkpt lat="37.936002826318145" lon="23.774138800799847">
        <ele>400.2</ele>
        <time>2021-04-10T08:44:53.000Z</time>
      </trkpt>
      <trkpt lat="37.93599813245237" lon="23.774166461080313">
        <ele>400.6</ele>
        <time>2021-04-10T08:44:56.000Z</time>
      </trkpt>
      <trkpt lat="37.93599804863334" lon="23.77419806085527">
        <ele>400.8</ele>
        <time>2021-04-10T08:44:58.000Z</time>
      </trkpt>
      <trkpt lat="37.936001904308796" lon="23.774222368374467">
        <ele>400.8</ele>
        <time>2021-04-10T08:45:00.000Z</time>
      </trkpt>
      <trkpt lat="37.93600207194686" lon="23.774240389466286">
        <ele>401</ele>
        <time>2021-04-10T08:45:02.000Z</time>
      </trkpt>
      <trkpt lat="37.935995953157544" lon="23.77427726984024">
        <ele>402</ele>
        <time>2021-04-10T08:45:06.000Z</time>
      </trkpt>
      <trkpt lat="37.935989666730165" lon="23.77430710941553">
        <ele>402.6</ele>
        <time>2021-04-10T08:45:09.000Z</time>
      </trkpt>
      <trkpt lat="37.935974076390266" lon="23.774346420541406">
        <ele>403</ele>
        <time>2021-04-10T08:45:13.000Z</time>
      </trkpt>
      <trkpt lat="37.93596494011581" lon="23.774386486038566">
        <ele>403.8</ele>
        <time>2021-04-10T08:45:16.000Z</time>
      </trkpt>
      <trkpt lat="37.935939291492105" lon="23.77444876357913">
        <ele>404.2</ele>
        <time>2021-04-10T08:45:20.000Z</time>
      </trkpt>
      <trkpt lat="37.93592973612249" lon="23.774492852389812">
        <ele>404.4</ele>
        <time>2021-04-10T08:45:23.000Z</time>
      </trkpt>
      <trkpt lat="37.93593225069344" lon="23.77450835891068">
        <ele>404.6</ele>
        <time>2021-04-10T08:45:24.000Z</time>
      </trkpt>
      <trkpt lat="37.93592772446573" lon="23.774535013362765">
        <ele>404.8</ele>
        <time>2021-04-10T08:45:26.000Z</time>
      </trkpt>
      <trkpt lat="37.935917833819985" lon="23.774558482691646">
        <ele>405.2</ele>
        <time>2021-04-10T08:45:28.000Z</time>
      </trkpt>
      <trkpt lat="37.93591263704002" lon="23.774569798260927">
        <ele>405.4</ele>
        <time>2021-04-10T08:45:29.000Z</time>
      </trkpt>
      <trkpt lat="37.93587500229478" lon="23.774629393592477">
        <ele>406.2</ele>
        <time>2021-04-10T08:45:35.000Z</time>
      </trkpt>
      <trkpt lat="37.935877768322825" lon="23.77463492564857">
        <ele>406.2</ele>
        <time>2021-04-10T08:45:36.000Z</time>
      </trkpt>
      <trkpt lat="37.935875589028" lon="23.77465889789164">
        <ele>407.2</ele>
        <time>2021-04-10T08:45:41.000Z</time>
      </trkpt>
      <trkpt lat="37.935868883505464" lon="23.77466954290867">
        <ele>407.6</ele>
        <time>2021-04-10T08:45:43.000Z</time>
      </trkpt>
      <trkpt lat="37.93586326763034" lon="23.774680271744728">
        <ele>408</ele>
        <time>2021-04-10T08:45:46.000Z</time>
      </trkpt>
      <trkpt lat="37.93585983105004" lon="23.774715727195144">
        <ele>408.2</ele>
        <time>2021-04-10T08:45:49.000Z</time>
      </trkpt>
      <trkpt lat="37.93585807085037" lon="23.774729138240218">
        <ele>408.4</ele>
        <time>2021-04-10T08:45:50.000Z</time>
      </trkpt>
      <trkpt lat="37.935835691168904" lon="23.77474347129464">
        <ele>409.2</ele>
        <time>2021-04-10T08:45:55.000Z</time>
      </trkpt>
      <trkpt lat="37.93583141639829" lon="23.77474833279848">
        <ele>409.6</ele>
        <time>2021-04-10T08:45:57.000Z</time>
      </trkpt>
      <trkpt lat="37.93582521378994" lon="23.774775071069598">
        <ele>410.4</ele>
        <time>2021-04-10T08:46:03.000Z</time>
      </trkpt>
      <trkpt lat="37.935824040323496" lon="23.774783620610833">
        <ele>410.6</ele>
        <time>2021-04-10T08:46:05.000Z</time>
      </trkpt>
      <trkpt lat="37.935809371992946" lon="23.774827625602484">
        <ele>411.6</ele>
        <time>2021-04-10T08:46:10.000Z</time>
      </trkpt>
      <trkpt lat="37.93578674085438" lon="23.774856626987457">
        <ele>412.4</ele>
        <time>2021-04-10T08:46:14.000Z</time>
      </trkpt>
      <trkpt lat="37.93578187935054" lon="23.774876492097974">
        <ele>412.6</ele>
        <time>2021-04-10T08:46:16.000Z</time>
      </trkpt>
      <trkpt lat="37.93577676638961" lon="23.774901386350393">
        <ele>413.2</ele>
        <time>2021-04-10T08:46:20.000Z</time>
      </trkpt>
      <trkpt lat="37.9357701446861" lon="23.77490851096809">
        <ele>413.6</ele>
        <time>2021-04-10T08:46:22.000Z</time>
      </trkpt>
      <trkpt lat="37.93575061485171" lon="23.774960981681943">
        <ele>414.6</ele>
        <time>2021-04-10T08:46:28.000Z</time>
      </trkpt>
      <trkpt lat="37.935723289847374" lon="23.77500674687326">
        <ele>416</ele>
        <time>2021-04-10T08:46:33.000Z</time>
      </trkpt>
      <trkpt lat="37.93570702895522" lon="23.775033066049218">
        <ele>416.6</ele>
        <time>2021-04-10T08:46:37.000Z</time>
      </trkpt>
      <trkpt lat="37.93569998815656" lon="23.77505276352167">
        <ele>417</ele>
        <time>2021-04-10T08:46:39.000Z</time>
      </trkpt>
      <trkpt lat="37.935694959014654" lon="23.77507514320314">
        <ele>417.4</ele>
        <time>2021-04-10T08:46:41.000Z</time>
      </trkpt>
      <trkpt lat="37.93569604866207" lon="23.775090985000134">
        <ele>417.8</ele>
        <time>2021-04-10T08:46:43.000Z</time>
      </trkpt>
      <trkpt lat="37.935694959014654" lon="23.775101462379098">
        <ele>418</ele>
        <time>2021-04-10T08:46:45.000Z</time>
      </trkpt>
      <trkpt lat="37.93568976223469" lon="23.775119986385107">
        <ele>418.6</ele>
        <time>2021-04-10T08:46:48.000Z</time>
      </trkpt>
      <trkpt lat="37.93568548746407" lon="23.77513825893402">
        <ele>419.2</ele>
        <time>2021-04-10T08:46:50.000Z</time>
      </trkpt>
      <trkpt lat="37.93567718937993" lon="23.77515586093068">
        <ele>419.6</ele>
        <time>2021-04-10T08:46:52.000Z</time>
      </trkpt>
      <trkpt lat="37.935670148581266" lon="23.775171115994453">
        <ele>420</ele>
        <time>2021-04-10T08:46:54.000Z</time>
      </trkpt>
      <trkpt lat="37.935665203258395" lon="23.77518176101148">
        <ele>420.4</ele>
        <time>2021-04-10T08:46:56.000Z</time>
      </trkpt>
      <trkpt lat="37.93566168285906" lon="23.77519684843719">
        <ele>421</ele>
        <time>2021-04-10T08:46:58.000Z</time>
      </trkpt>
      <trkpt lat="37.935654977336526" lon="23.775212354958057">
        <ele>421.4</ele>
        <time>2021-04-10T08:47:01.000Z</time>
      </trkpt>
      <trkpt lat="37.93565237894654" lon="23.77523062750697">
        <ele>422.2</ele>
        <time>2021-04-10T08:47:04.000Z</time>
      </trkpt>
      <trkpt lat="37.935649612918496" lon="23.775243367999792">
        <ele>422.6</ele>
        <time>2021-04-10T08:47:06.000Z</time>
      </trkpt>
      <trkpt lat="37.935634860768914" lon="23.77526432275772">
        <ele>423.2</ele>
        <time>2021-04-10T08:47:10.000Z</time>
      </trkpt>
      <trkpt lat="37.93562136590481" lon="23.775292988866568">
        <ele>423.6</ele>
        <time>2021-04-10T08:47:14.000Z</time>
      </trkpt>
      <trkpt lat="37.93561038561165" lon="23.775316961109638">
        <ele>423.8</ele>
        <time>2021-04-10T08:47:17.000Z</time>
      </trkpt>
      <trkpt lat="37.93559898622334" lon="23.7753551825881">
        <ele>424.8</ele>
        <time>2021-04-10T08:47:21.000Z</time>
      </trkpt>
      <trkpt lat="37.93559697456658" lon="23.775379238650203">
        <ele>425.2</ele>
        <time>2021-04-10T08:47:25.000Z</time>
      </trkpt>
      <trkpt lat="37.935564117506146" lon="23.775431038811803">
        <ele>426</ele>
        <time>2021-04-10T08:47:30.000Z</time>
      </trkpt>
      <trkpt lat="37.93555120937526" lon="23.775441935285926">
        <ele>426.8</ele>
        <time>2021-04-10T08:47:32.000Z</time>
      </trkpt>
      <trkpt lat="37.93554291129112" lon="23.775452580302954">
        <ele>427</ele>
        <time>2021-04-10T08:47:33.000Z</time>
      </trkpt>
      <trkpt lat="37.93552405200899" lon="23.77549482509494">
        <ele>427.6</ele>
        <time>2021-04-10T08:47:39.000Z</time>
      </trkpt>
      <trkpt lat="37.93550225906074" lon="23.775524832308292">
        <ele>428.2</ele>
        <time>2021-04-10T08:47:42.000Z</time>
      </trkpt>
      <trkpt lat="37.9354820586741" lon="23.775541596114635">
        <ele>428.4</ele>
        <time>2021-04-10T08:47:44.000Z</time>
      </trkpt>
      <trkpt lat="37.935436461120844" lon="23.775587361305952">
        <ele>429.2</ele>
        <time>2021-04-10T08:47:50.000Z</time>
      </trkpt>
      <trkpt lat="37.935419362038374" lon="23.775614267215133">
        <ele>429.2</ele>
        <time>2021-04-10T08:47:52.000Z</time>
      </trkpt>
      <trkpt lat="37.935411566868424" lon="23.775622146204114">
        <ele>429.2</ele>
        <time>2021-04-10T08:47:53.000Z</time>
      </trkpt>
      <trkpt lat="37.93539865873754" lon="23.77564938738942">
        <ele>430.2</ele>
        <time>2021-04-10T08:47:58.000Z</time>
      </trkpt>
      <trkpt lat="37.93536722660065" lon="23.77566053532064">
        <ele>430.2</ele>
        <time>2021-04-10T08:47:59.000Z</time>
      </trkpt>
      <trkpt lat="37.935355911031365" lon="23.7756659835577">
        <ele>430.2</ele>
        <time>2021-04-10T08:48:00.000Z</time>
      </trkpt>
      <trkpt lat="37.9353335313499" lon="23.7756781373173">
        <ele>430.4</ele>
        <time>2021-04-10T08:48:02.000Z</time>
      </trkpt>
      <trkpt lat="37.935307044535875" lon="23.775681238621473">
        <ele>430.4</ele>
        <time>2021-04-10T08:48:04.000Z</time>
      </trkpt>
      <trkpt lat="37.93526521883905" lon="23.775711581110954">
        <ele>430.6</ele>
        <time>2021-04-10T08:48:07.000Z</time>
      </trkpt>
      <trkpt lat="37.93522456660867" lon="23.775708312168717">
        <ele>431</ele>
        <time>2021-04-10T08:48:10.000Z</time>
      </trkpt>
      <trkpt lat="37.93520998209715" lon="23.775705210864544">
        <ele>431.2</ele>
        <time>2021-04-10T08:48:12.000Z</time>
      </trkpt>
      <trkpt lat="37.93519682250917" lon="23.775698337703943">
        <ele>431.2</ele>
        <time>2021-04-10T08:48:14.000Z</time>
      </trkpt>
      <trkpt lat="37.9351815674454" lon="23.775697918608785">
        <ele>431.6</ele>
        <time>2021-04-10T08:48:16.000Z</time>
      </trkpt>
      <trkpt lat="37.93511040508747" lon="23.775670928880572">
        <ele>432.4</ele>
        <time>2021-04-10T08:48:23.000Z</time>
      </trkpt>
      <trkpt lat="37.93510302901268" lon="23.775673443451524">
        <ele>432.6</ele>
        <time>2021-04-10T08:48:24.000Z</time>
      </trkpt>
      <trkpt lat="37.9350811522454" lon="23.775680903345346">
        <ele>433</ele>
        <time>2021-04-10T08:48:27.000Z</time>
      </trkpt>
      <trkpt lat="37.935063634067774" lon="23.775674114003778">
        <ele>433.4</ele>
        <time>2021-04-10T08:48:29.000Z</time>
      </trkpt>
      <trkpt lat="37.93504427187145" lon="23.775667492300272">
        <ele>434</ele>
        <time>2021-04-10T08:48:31.000Z</time>
      </trkpt>
      <trkpt lat="37.935020215809345" lon="23.775646537542343">
        <ele>434.4</ele>
        <time>2021-04-10T08:48:34.000Z</time>
      </trkpt>
      <trkpt lat="37.934966906905174" lon="23.77560965716839">
        <ele>435.4</ele>
        <time>2021-04-10T08:48:40.000Z</time>
      </trkpt>
      <trkpt lat="37.93495927937329" lon="23.77560823224485">
        <ele>435.6</ele>
        <time>2021-04-10T08:48:41.000Z</time>
      </trkpt>
      <trkpt lat="37.93494125828147" lon="23.775609405711293">
        <ele>436.2</ele>
        <time>2021-04-10T08:48:44.000Z</time>
      </trkpt>
      <trkpt lat="37.93492667376995" lon="23.775607477873564">
        <ele>436.6</ele>
        <time>2021-04-10T08:48:47.000Z</time>
      </trkpt>
      <trkpt lat="37.93492851778865" lon="23.775605969130993">
        <ele>436.6</ele>
        <time>2021-04-10T08:48:48.000Z</time>
      </trkpt>
      <trkpt lat="37.93493983335793" lon="23.775609573349357">
        <ele>436.8</ele>
        <time>2021-04-10T08:48:52.000Z</time>
      </trkpt>
      <trkpt lat="37.93494410812855" lon="23.77561560831964">
        <ele>436.8</ele>
        <time>2021-04-10T08:48:54.000Z</time>
      </trkpt>
      <trkpt lat="37.93495743535459" lon="23.775618793442845">
        <ele>437</ele>
        <time>2021-04-10T08:49:04.000Z</time>
      </trkpt>
      <trkpt lat="37.93495492078364" lon="23.77561845816672">
        <ele>437</ele>
        <time>2021-04-10T08:49:05.000Z</time>
      </trkpt>
      <trkpt lat="37.934950813651085" lon="23.775616195052862">
        <ele>436.8</ele>
        <time>2021-04-10T08:49:13.000Z</time>
      </trkpt>
      <trkpt lat="37.934949388727546" lon="23.775581996887922">
        <ele>436.8</ele>
        <time>2021-04-10T08:49:21.000Z</time>
      </trkpt>
      <trkpt lat="37.93494176119566" lon="23.775592306628823">
        <ele>437</ele>
        <time>2021-04-10T08:49:24.000Z</time>
      </trkpt>
      <trkpt lat="37.93493589386344" lon="23.77561116591096">
        <ele>436.6</ele>
        <time>2021-04-10T08:49:29.000Z</time>
      </trkpt>
      <trkpt lat="37.93493581004441" lon="23.775613261386752">
        <ele>436.6</ele>
        <time>2021-04-10T08:49:30.000Z</time>
      </trkpt>
      <trkpt lat="37.93493019416928" lon="23.77562348730862">
        <ele>436.4</ele>
        <time>2021-04-10T08:49:34.000Z</time>
      </trkpt>
      <trkpt lat="37.934911753982306" lon="23.775635054334998">
        <ele>436.4</ele>
        <time>2021-04-10T08:49:38.000Z</time>
      </trkpt>
      <trkpt lat="37.93490320444107" lon="23.775637736544013">
        <ele>436.2</ele>
        <time>2021-04-10T08:49:40.000Z</time>
      </trkpt>
      <trkpt lat="37.934899935498834" lon="23.775631533935666">
        <ele>436.4</ele>
        <time>2021-04-10T08:49:47.000Z</time>
      </trkpt>
      <trkpt lat="37.93490211479366" lon="23.77563421614468">
        <ele>436.4</ele>
        <time>2021-04-10T08:49:56.000Z</time>
      </trkpt>
      <trkpt lat="37.934906389564276" lon="23.775644777342677">
        <ele>436.2</ele>
        <time>2021-04-10T08:50:02.000Z</time>
      </trkpt>
      <trkpt lat="37.93490555137396" lon="23.77565131522715">
        <ele>436.2</ele>
        <time>2021-04-10T08:50:03.000Z</time>
      </trkpt>
      <trkpt lat="37.9349001031369" lon="23.775683837011456">
        <ele>436.6</ele>
        <time>2021-04-10T08:50:09.000Z</time>
      </trkpt>
      <trkpt lat="37.93488602153957" lon="23.775648213922977">
        <ele>436.8</ele>
        <time>2021-04-10T08:50:19.000Z</time>
      </trkpt>
      <trkpt lat="37.93488987721503" lon="23.775636395439506">
        <ele>436.8</ele>
        <time>2021-04-10T08:50:22.000Z</time>
      </trkpt>
      <trkpt lat="37.93489281088114" lon="23.77563463523984">
        <ele>436.8</ele>
        <time>2021-04-10T08:50:24.000Z</time>
      </trkpt>
      <trkpt lat="37.934908736497164" lon="23.775641843676567">
        <ele>436.6</ele>
        <time>2021-04-10T08:50:32.000Z</time>
      </trkpt>
      <trkpt lat="37.9349067248404" lon="23.775644609704614">
        <ele>436.6</ele>
        <time>2021-04-10T08:50:33.000Z</time>
      </trkpt>
      <trkpt lat="37.934862887486815" lon="23.77563228830695">
        <ele>437</ele>
        <time>2021-04-10T08:50:43.000Z</time>
      </trkpt>
      <trkpt lat="37.93482508510351" lon="23.775592474266887">
        <ele>437</ele>
        <time>2021-04-10T08:50:52.000Z</time>
      </trkpt>
      <trkpt lat="37.93479189276695" lon="23.775578560307622">
        <ele>436.4</ele>
        <time>2021-04-10T08:50:59.000Z</time>
      </trkpt>
      <trkpt lat="37.934793988242745" lon="23.775581158697605">
        <ele>436.4</ele>
        <time>2021-04-10T08:51:00.000Z</time>
      </trkpt>
      <trkpt lat="37.934791976585984" lon="23.775591552257538">
        <ele>436.6</ele>
        <time>2021-04-10T08:51:07.000Z</time>
      </trkpt>
      <trkpt lat="37.93478149920702" lon="23.7755951564759">
        <ele>436</ele>
        <time>2021-04-10T08:51:15.000Z</time>
      </trkpt>
      <trkpt lat="37.93479038402438" lon="23.775586606934667">
        <ele>435.8</ele>
        <time>2021-04-10T08:51:21.000Z</time>
      </trkpt>
      <trkpt lat="37.93478384613991" lon="23.77558082342148">
        <ele>436</ele>
        <time>2021-04-10T08:51:24.000Z</time>
      </trkpt>
      <trkpt lat="37.93478292413056" lon="23.77558476291597">
        <ele>435.8</ele>
        <time>2021-04-10T08:51:25.000Z</time>
      </trkpt>
      <trkpt lat="37.934799855574965" lon="23.77563077956438">
        <ele>436.6</ele>
        <time>2021-04-10T08:51:35.000Z</time>
      </trkpt>
      <trkpt lat="37.93479952029884" lon="23.77563413232565">
        <ele>436.4</ele>
        <time>2021-04-10T08:51:38.000Z</time>
      </trkpt>
      <trkpt lat="37.93477286584675" lon="23.77563949674368">
        <ele>436.8</ele>
        <time>2021-04-10T08:51:53.000Z</time>
      </trkpt>
      <trkpt lat="37.93478040955961" lon="23.775626253336668">
        <ele>436.8</ele>
        <time>2021-04-10T08:51:59.000Z</time>
      </trkpt>
      <trkpt lat="37.934795496985316" lon="23.775588367134333">
        <ele>436.8</ele>
        <time>2021-04-10T08:52:07.000Z</time>
      </trkpt>
      <trkpt lat="37.934792060405016" lon="23.775594485923648">
        <ele>436.8</ele>
        <time>2021-04-10T08:52:08.000Z</time>
      </trkpt>
      <trkpt lat="37.93477278202772" lon="23.775572357699275">
        <ele>436.6</ele>
        <time>2021-04-10T08:52:13.000Z</time>
      </trkpt>
      <trkpt lat="37.934748558327556" lon="23.775542518123984">
        <ele>436.6</ele>
        <time>2021-04-10T08:52:16.000Z</time>
      </trkpt>
      <trkpt lat="37.93470815755427" lon="23.77551150508225">
        <ele>436.6</ele>
        <time>2021-04-10T08:52:19.000Z</time>
      </trkpt>
      <trkpt lat="37.9346286971122" lon="23.77545040100813">
        <ele>436.6</ele>
        <time>2021-04-10T08:52:25.000Z</time>
      </trkpt>
      <trkpt lat="37.934605395421386" lon="23.775440091267228">
        <ele>436.2</ele>
        <time>2021-04-10T08:52:27.000Z</time>
      </trkpt>
      <trkpt lat="37.934581423178315" lon="23.775428356602788">
        <ele>436</ele>
        <time>2021-04-10T08:52:29.000Z</time>
      </trkpt>
      <trkpt lat="37.93456080369651" lon="23.775417795404792">
        <ele>435.8</ele>
        <time>2021-04-10T08:52:31.000Z</time>
      </trkpt>
      <trkpt lat="37.934551667422056" lon="23.775413185358047">
        <ele>435.8</ele>
        <time>2021-04-10T08:52:32.000Z</time>
      </trkpt>
      <trkpt lat="37.93453129939735" lon="23.77540606074035">
        <ele>435.4</ele>
        <time>2021-04-10T08:52:34.000Z</time>
      </trkpt>
      <trkpt lat="37.93451813980937" lon="23.77540203742683">
        <ele>435.2</ele>
        <time>2021-04-10T08:52:35.000Z</time>
      </trkpt>
      <trkpt lat="37.93445887975395" lon="23.775374544784427">
        <ele>434.8</ele>
        <time>2021-04-10T08:52:40.000Z</time>
      </trkpt>
      <trkpt lat="37.93443071655929" lon="23.77534537576139">
        <ele>434.4</ele>
        <time>2021-04-10T08:52:43.000Z</time>
      </trkpt>
      <trkpt lat="37.934427028521895" lon="23.77533121034503">
        <ele>434.4</ele>
        <time>2021-04-10T08:52:44.000Z</time>
      </trkpt>
      <trkpt lat="37.93439165689051" lon="23.775290558114648">
        <ele>434.2</ele>
        <time>2021-04-10T08:52:48.000Z</time>
      </trkpt>
      <trkpt lat="37.934360057115555" lon="23.775274213403463">
        <ele>433.8</ele>
        <time>2021-04-10T08:52:51.000Z</time>
      </trkpt>
      <trkpt lat="37.934303814545274" lon="23.775235824286938">
        <ele>433.4</ele>
        <time>2021-04-10T08:52:56.000Z</time>
      </trkpt>
      <trkpt lat="37.93429451063275" lon="23.775228448212147">
        <ele>433.4</ele>
        <time>2021-04-10T08:52:57.000Z</time>
      </trkpt>
      <trkpt lat="37.93427137658" lon="23.77519592642784">
        <ele>433.2</ele>
        <time>2021-04-10T08:53:00.000Z</time>
      </trkpt>
      <trkpt lat="37.93421094305813" lon="23.775153597816825">
        <ele>432.6</ele>
        <time>2021-04-10T08:53:07.000Z</time>
      </trkpt>
      <trkpt lat="37.93420490808785" lon="23.775170613080263">
        <ele>432.6</ele>
        <time>2021-04-10T08:53:11.000Z</time>
      </trkpt>
      <trkpt lat="37.93421580456197" lon="23.775180000811815">
        <ele>432.6</ele>
        <time>2021-04-10T08:53:13.000Z</time>
      </trkpt>
      <trkpt lat="37.93426710180938" lon="23.775196680799127">
        <ele>432.4</ele>
        <time>2021-04-10T08:53:19.000Z</time>
      </trkpt>
      <trkpt lat="37.93433700688183" lon="23.77523976378143">
        <ele>433.2</ele>
        <time>2021-04-10T08:53:27.000Z</time>
      </trkpt>
      <trkpt lat="37.93437246233225" lon="23.775289468467236">
        <ele>433.2</ele>
        <time>2021-04-10T08:53:32.000Z</time>
      </trkpt>
      <trkpt lat="37.934392830356956" lon="23.775301538407803">
        <ele>433.4</ele>
        <time>2021-04-10T08:53:35.000Z</time>
      </trkpt>
      <trkpt lat="37.93441982008517" lon="23.775327689945698">
        <ele>434</ele>
        <time>2021-04-10T08:53:38.000Z</time>
      </trkpt>
      <trkpt lat="37.934435326606035" lon="23.775340849533677">
        <ele>434.4</ele>
        <time>2021-04-10T08:53:40.000Z</time>
      </trkpt>
      <trkpt lat="37.934444043785334" lon="23.775348141789436">
        <ele>434.4</ele>
        <time>2021-04-10T08:53:41.000Z</time>
      </trkpt>
      <trkpt lat="37.93446525000036" lon="23.775368593633175">
        <ele>434.8</ele>
        <time>2021-04-10T08:53:43.000Z</time>
      </trkpt>
      <trkpt lat="37.934535657987" lon="23.775413688272238">
        <ele>435</ele>
        <time>2021-04-10T08:53:50.000Z</time>
      </trkpt>
      <trkpt lat="37.934558959677815" lon="23.775429194793105">
        <ele>435.2</ele>
        <time>2021-04-10T08:53:52.000Z</time>
      </trkpt>
      <trkpt lat="37.934603467583656" lon="23.775467919185758">
        <ele>435.4</ele>
        <time>2021-04-10T08:53:56.000Z</time>
      </trkpt>
      <trkpt lat="37.9346133582294" lon="23.775474205613136">
        <ele>435.8</ele>
        <time>2021-04-10T08:53:57.000Z</time>
      </trkpt>
      <trkpt lat="37.93470329605043" lon="23.77553891390562">
        <ele>436.2</ele>
        <time>2021-04-10T08:54:06.000Z</time>
      </trkpt>
      <trkpt lat="37.934718299657106" lon="23.775547379627824">
        <ele>436.2</ele>
        <time>2021-04-10T08:54:07.000Z</time>
      </trkpt>
      <trkpt lat="37.934761717915535" lon="23.775568502023816">
        <ele>436.6</ele>
        <time>2021-04-10T08:54:11.000Z</time>
      </trkpt>
      <trkpt lat="37.93480823747814" lon="23.77559901215136">
        <ele>437</ele>
        <time>2021-04-10T08:54:16.000Z</time>
      </trkpt>
      <trkpt lat="37.934886775910854" lon="23.77565123140812">
        <ele>437.6</ele>
        <time>2021-04-10T08:54:23.000Z</time>
      </trkpt>
      <trkpt lat="37.93490965850651" lon="23.77566154114902">
        <ele>437.8</ele>
        <time>2021-04-10T08:54:25.000Z</time>
      </trkpt>
      <trkpt lat="37.93493555858731" lon="23.77567662857473">
        <ele>438</ele>
        <time>2021-04-10T08:54:27.000Z</time>
      </trkpt>
      <trkpt lat="37.934992890805006" lon="23.77572750672698">
        <ele>438.2</ele>
        <time>2021-04-10T08:54:33.000Z</time>
      </trkpt>
      <trkpt lat="37.935036392882466" lon="23.77577545121312">
        <ele>439</ele>
        <time>2021-04-10T08:54:38.000Z</time>
      </trkpt>
      <trkpt lat="37.93505617417395" lon="23.77579598687589">
        <ele>439.4</ele>
        <time>2021-04-10T08:54:40.000Z</time>
      </trkpt>
      <trkpt lat="37.93507310561836" lon="23.77582088112831">
        <ele>440.4</ele>
        <time>2021-04-10T08:54:42.000Z</time>
      </trkpt>
      <trkpt lat="37.935088193044066" lon="23.775841165333986">
        <ele>441.6</ele>
        <time>2021-04-10T08:54:44.000Z</time>
      </trkpt>
      <trkpt lat="37.93509439565241" lon="23.7758301012218">
        <ele>440.4</ele>
        <time>2021-04-10T08:54:48.000Z</time>
      </trkpt>
      <trkpt lat="37.935094982385635" lon="23.77582523971796">
        <ele>440</ele>
        <time>2021-04-10T08:54:49.000Z</time>
      </trkpt>
      <trkpt lat="37.935102274641395" lon="23.775816606357694">
        <ele>439.4</ele>
        <time>2021-04-10T08:54:53.000Z</time>
      </trkpt>
      <trkpt lat="37.935104789212346" lon="23.775812415406108">
        <ele>439</ele>
        <time>2021-04-10T08:54:55.000Z</time>
      </trkpt>
      <trkpt lat="37.935103699564934" lon="23.775815600529313">
        <ele>438.6</ele>
        <time>2021-04-10T08:54:59.000Z</time>
      </trkpt>
      <trkpt lat="37.935104202479124" lon="23.775826580822468">
        <ele>438.6</ele>
        <time>2021-04-10T08:55:00.000Z</time>
      </trkpt>
      <trkpt lat="37.93510101735592" lon="23.77583253197372">
        <ele>438.6</ele>
        <time>2021-04-10T08:55:01.000Z</time>
      </trkpt>
      <trkpt lat="37.93510059826076" lon="23.77583404071629">
        <ele>438.6</ele>
        <time>2021-04-10T08:55:02.000Z</time>
      </trkpt>
      <trkpt lat="37.93509950861335" lon="23.775834375992417">
        <ele>438.8</ele>
        <time>2021-04-10T08:55:03.000Z</time>
      </trkpt>
      <trkpt lat="37.93508542701602" lon="23.775844099000096">
        <ele>439</ele>
        <time>2021-04-10T08:55:06.000Z</time>
      </trkpt>
      <trkpt lat="37.935090623795986" lon="23.7758422549814">
        <ele>439.6</ele>
        <time>2021-04-10T08:55:12.000Z</time>
      </trkpt>
      <trkpt lat="37.93508685193956" lon="23.775851726531982">
        <ele>439</ele>
        <time>2021-04-10T08:55:19.000Z</time>
      </trkpt>
      <trkpt lat="37.93509389273822" lon="23.77584770321846">
        <ele>439.2</ele>
        <time>2021-04-10T08:55:25.000Z</time>
      </trkpt>
      <trkpt lat="37.93506782501936" lon="23.77587896771729">
        <ele>439.6</ele>
        <time>2021-04-10T08:55:34.000Z</time>
      </trkpt>
      <trkpt lat="37.93506246060133" lon="23.775888523086905">
        <ele>438.8</ele>
        <time>2021-04-10T08:55:42.000Z</time>
      </trkpt>
      <trkpt lat="37.93503597378731" lon="23.775874273851514">
        <ele>439</ele>
        <time>2021-04-10T08:55:49.000Z</time>
      </trkpt>
      <trkpt lat="37.93504041619599" lon="23.77590000629425">
        <ele>439.2</ele>
        <time>2021-04-10T08:55:54.000Z</time>
      </trkpt>
      <trkpt lat="37.93503664433956" lon="23.775898832827806">
        <ele>439.2</ele>
        <time>2021-04-10T08:55:56.000Z</time>
      </trkpt>
      <trkpt lat="37.93503077700734" lon="23.775893049314618">
        <ele>439.2</ele>
        <time>2021-04-10T08:56:00.000Z</time>
      </trkpt>
      <trkpt lat="37.93502876535058" lon="23.775893049314618">
        <ele>439.2</ele>
        <time>2021-04-10T08:56:04.000Z</time>
      </trkpt>
      <trkpt lat="37.93504083529115" lon="23.775895815342665">
        <ele>439.2</ele>
        <time>2021-04-10T08:56:08.000Z</time>
      </trkpt>
      <trkpt lat="37.93504041619599" lon="23.775890115648508">
        <ele>439.2</ele>
        <time>2021-04-10T08:56:12.000Z</time>
      </trkpt>
      <trkpt lat="37.93504393659532" lon="23.775899251922965">
        <ele>439.2</ele>
        <time>2021-04-10T08:56:16.000Z</time>
      </trkpt>
      <trkpt lat="37.935043601319194" lon="23.775902520865202">
        <ele>439.2</ele>
        <time>2021-04-10T08:56:17.000Z</time>
      </trkpt>
      <trkpt lat="37.9350380692631" lon="23.77590486779809">
        <ele>439.2</ele>
        <time>2021-04-10T08:56:19.000Z</time>
      </trkpt>
      <trkpt lat="37.93503689579666" lon="23.77590478397906">
        <ele>439.2</ele>
        <time>2021-04-10T08:56:20.000Z</time>
      </trkpt>
      <trkpt lat="37.93503949418664" lon="23.775896402075887">
        <ele>439.2</ele>
        <time>2021-04-10T08:56:23.000Z</time>
      </trkpt>
      <trkpt lat="37.935050474479795" lon="23.77589112147689">
        <ele>439.2</ele>
        <time>2021-04-10T08:56:26.000Z</time>
      </trkpt>
      <trkpt lat="37.93506355024874" lon="23.77588684670627">
        <ele>439.2</ele>
        <time>2021-04-10T08:56:32.000Z</time>
      </trkpt>
      <trkpt lat="37.935067154467106" lon="23.77586823888123">
        <ele>439.2</ele>
        <time>2021-04-10T08:56:35.000Z</time>
      </trkpt>
      <trkpt lat="37.935072015970945" lon="23.77585164271295">
        <ele>439.2</ele>
        <time>2021-04-10T08:56:37.000Z</time>
      </trkpt>
      <trkpt lat="37.93506748974323" lon="23.77586966380477">
        <ele>439.2</ele>
        <time>2021-04-10T08:56:40.000Z</time>
      </trkpt>
      <trkpt lat="37.93505952693522" lon="23.775888606905937">
        <ele>439.2</ele>
        <time>2021-04-10T08:56:49.000Z</time>
      </trkpt>
      <trkpt lat="37.935065142810345" lon="23.775883074849844">
        <ele>439.2</ele>
        <time>2021-04-10T08:56:59.000Z</time>
      </trkpt>
      <trkpt lat="37.93504913337529" lon="23.775851475074887">
        <ele>439.2</ele>
        <time>2021-04-10T08:57:06.000Z</time>
      </trkpt>
      <trkpt lat="37.935040667653084" lon="23.775854660198092">
        <ele>439.2</ele>
        <time>2021-04-10T08:57:09.000Z</time>
      </trkpt>
      <trkpt lat="37.93505265377462" lon="23.775865975767374">
        <ele>439.2</ele>
        <time>2021-04-10T08:57:15.000Z</time>
      </trkpt>
      <trkpt lat="37.93506388552487" lon="23.775838566944003">
        <ele>439.2</ele>
        <time>2021-04-10T08:57:23.000Z</time>
      </trkpt>
      <trkpt lat="37.93508752249181" lon="23.775858767330647">
        <ele>439.2</ele>
        <time>2021-04-10T08:57:27.000Z</time>
      </trkpt>
      <trkpt lat="37.93510654941201" lon="23.775866059586406">
        <ele>439.2</ele>
        <time>2021-04-10T08:57:30.000Z</time>
      </trkpt>
      <trkpt lat="37.93511711061001" lon="23.77586429938674">
        <ele>439.2</ele>
        <time>2021-04-10T08:57:32.000Z</time>
      </trkpt>
      <trkpt lat="37.93514929711819" lon="23.77588785253465">
        <ele>439.2</ele>
        <time>2021-04-10T08:57:36.000Z</time>
      </trkpt>
      <trkpt lat="37.93516606092453" lon="23.775905203074217">
        <ele>439.2</ele>
        <time>2021-04-10T08:57:39.000Z</time>
      </trkpt>
      <trkpt lat="37.93517670594156" lon="23.775910567492247">
        <ele>439.2</ele>
        <time>2021-04-10T08:57:41.000Z</time>
      </trkpt>
      <trkpt lat="37.93518642894924" lon="23.775925738736987">
        <ele>439.6</ele>
        <time>2021-04-10T08:57:43.000Z</time>
      </trkpt>
      <trkpt lat="37.93522942811251" lon="23.77595331519842">
        <ele>440</ele>
        <time>2021-04-10T08:57:49.000Z</time>
      </trkpt>
      <trkpt lat="37.935259183868766" lon="23.775962702929974">
        <ele>440.4</ele>
        <time>2021-04-10T08:57:52.000Z</time>
      </trkpt>
      <trkpt lat="37.93526781722903" lon="23.775964798405766">
        <ele>440.6</ele>
        <time>2021-04-10T08:57:53.000Z</time>
      </trkpt>
      <trkpt lat="37.93533319607377" lon="23.775982232764363">
        <ele>441.6</ele>
        <time>2021-04-10T08:58:01.000Z</time>
      </trkpt>
      <trkpt lat="37.93534895405173" lon="23.775989525020123">
        <ele>442</ele>
        <time>2021-04-10T08:58:03.000Z</time>
      </trkpt>
      <trkpt lat="37.935402514413" lon="23.775996901094913">
        <ele>442.4</ele>
        <time>2021-04-10T08:58:08.000Z</time>
      </trkpt>
      <trkpt lat="37.935437550768256" lon="23.776001343503594">
        <ele>442.4</ele>
        <time>2021-04-10T08:58:11.000Z</time>
      </trkpt>
      <trkpt lat="37.9354595951736" lon="23.776000505313277">
        <ele>442.4</ele>
        <time>2021-04-10T08:58:13.000Z</time>
      </trkpt>
      <trkpt lat="37.935479544103146" lon="23.776003774255514">
        <ele>442.6</ele>
        <time>2021-04-10T08:58:15.000Z</time>
      </trkpt>
      <trkpt lat="37.93548918329179" lon="23.776004193350673">
        <ele>442.6</ele>
        <time>2021-04-10T08:58:16.000Z</time>
      </trkpt>
      <trkpt lat="37.93549890629947" lon="23.776003858074546">
        <ele>442.8</ele>
        <time>2021-04-10T08:58:17.000Z</time>
      </trkpt>
      <trkpt lat="37.93551902286708" lon="23.776010647416115">
        <ele>443</ele>
        <time>2021-04-10T08:58:19.000Z</time>
      </trkpt>
      <trkpt lat="37.93552799150348" lon="23.776015508919954">
        <ele>443</ele>
        <time>2021-04-10T08:58:20.000Z</time>
      </trkpt>
      <trkpt lat="37.93555221520364" lon="23.7760251481086">
        <ele>443.4</ele>
        <time>2021-04-10T08:58:23.000Z</time>
      </trkpt>
      <trkpt lat="37.935562524944544" lon="23.776028668507934">
        <ele>443.4</ele>
        <time>2021-04-10T08:58:24.000Z</time>
      </trkpt>
      <trkpt lat="37.935593370348215" lon="23.776030847802758">
        <ele>443.8</ele>
        <time>2021-04-10T08:58:27.000Z</time>
      </trkpt>
      <trkpt lat="37.93562890961766" lon="23.7760338652879">
        <ele>444</ele>
        <time>2021-04-10T08:58:30.000Z</time>
      </trkpt>
      <trkpt lat="37.93565061874688" lon="23.776040486991405">
        <ele>444</ele>
        <time>2021-04-10T08:58:32.000Z</time>
      </trkpt>
      <trkpt lat="37.93569604866207" lon="23.776045013219118">
        <ele>444.6</ele>
        <time>2021-04-10T08:58:38.000Z</time>
      </trkpt>
      <trkpt lat="37.93572253547609" lon="23.776054568588734">
        <ele>444.8</ele>
        <time>2021-04-10T08:58:41.000Z</time>
      </trkpt>
      <trkpt lat="37.93574986048043" lon="23.776053059846163">
        <ele>444.8</ele>
        <time>2021-04-10T08:58:44.000Z</time>
      </trkpt>
      <trkpt lat="37.93578280135989" lon="23.776078959926963">
        <ele>445.2</ele>
        <time>2021-04-10T08:58:49.000Z</time>
      </trkpt>
      <trkpt lat="37.93579143472016" lon="23.776088850572705">
        <ele>445.4</ele>
        <time>2021-04-10T08:58:50.000Z</time>
      </trkpt>
      <trkpt lat="37.93580970726907" lon="23.776103435084224">
        <ele>445.8</ele>
        <time>2021-04-10T08:58:52.000Z</time>
      </trkpt>
      <trkpt lat="37.93584424071014" lon="23.776112822815776">
        <ele>446</ele>
        <time>2021-04-10T08:58:56.000Z</time>
      </trkpt>
      <trkpt lat="37.93595630675554" lon="23.7761150021106">
        <ele>446.6</ele>
        <time>2021-04-10T08:59:06.000Z</time>
      </trkpt>
      <trkpt lat="37.935966700315475" lon="23.776115337386727">
        <ele>446.6</ele>
        <time>2021-04-10T08:59:07.000Z</time>
      </trkpt>
      <trkpt lat="37.935984805226326" lon="23.776111230254173">
        <ele>447</ele>
        <time>2021-04-10T08:59:09.000Z</time>
      </trkpt>
      <trkpt lat="37.93604356236756" lon="23.776110475882888">
        <ele>447.6</ele>
        <time>2021-04-10T08:59:15.000Z</time>
      </trkpt>
      <trkpt lat="37.93612805195153" lon="23.776126317679882">
        <ele>448</ele>
        <time>2021-04-10T08:59:25.000Z</time>
      </trkpt>
      <trkpt lat="37.93617800809443" lon="23.77611894160509">
        <ele>449</ele>
        <time>2021-04-10T08:59:30.000Z</time>
      </trkpt>
      <trkpt lat="37.93621505610645" lon="23.776111816987395">
        <ele>449</ele>
        <time>2021-04-10T08:59:34.000Z</time>
      </trkpt>
      <trkpt lat="37.93629543855786" lon="23.776087341830134">
        <ele>449.6</ele>
        <time>2021-04-10T08:59:42.000Z</time>
      </trkpt>
      <trkpt lat="37.93634572997689" lon="23.77608809620142">
        <ele>450.2</ele>
        <time>2021-04-10T08:59:47.000Z</time>
      </trkpt>
      <trkpt lat="37.936380011960864" lon="23.776086000725627">
        <ele>450.2</ele>
        <time>2021-04-10T08:59:51.000Z</time>
      </trkpt>
      <trkpt lat="37.936385376378894" lon="23.776082061231136">
        <ele>450.2</ele>
        <time>2021-04-10T08:59:52.000Z</time>
      </trkpt>
      <trkpt lat="37.93643893674016" lon="23.7760769482702">
        <ele>451.4</ele>
        <time>2021-04-10T08:59:57.000Z</time>
      </trkpt>
      <trkpt lat="37.93645394034684" lon="23.776071751490235">
        <ele>451.8</ele>
        <time>2021-04-10T08:59:59.000Z</time>
      </trkpt>
      <trkpt lat="37.93651370331645" lon="23.77608616836369">
        <ele>452.4</ele>
        <time>2021-04-10T09:00:06.000Z</time>
      </trkpt>
      <trkpt lat="37.93653029948473" lon="23.77607594244182">
        <ele>452.6</ele>
        <time>2021-04-10T09:00:08.000Z</time>
      </trkpt>
      <trkpt lat="37.93657388538122" lon="23.77603822387755">
        <ele>453.4</ele>
        <time>2021-04-10T09:00:14.000Z</time>
      </trkpt>
      <trkpt lat="37.936568018049" lon="23.776030763983727">
        <ele>453.6</ele>
        <time>2021-04-10T09:00:15.000Z</time>
      </trkpt>
      <trkpt lat="37.936561396345496" lon="23.776004780083895">
        <ele>453.6</ele>
        <time>2021-04-10T09:00:17.000Z</time>
      </trkpt>
      <trkpt lat="37.93657070025802" lon="23.775933953002095">
        <ele>453.4</ele>
        <time>2021-04-10T09:00:21.000Z</time>
      </trkpt>
      <trkpt lat="37.93663373216987" lon="23.775878632441163">
        <ele>452.8</ele>
        <time>2021-04-10T09:00:27.000Z</time>
      </trkpt>
      <trkpt lat="37.936664409935474" lon="23.77585105597973">
        <ele>453</ele>
        <time>2021-04-10T09:00:30.000Z</time>
      </trkpt>
      <trkpt lat="37.93668829835951" lon="23.775834124535322">
        <ele>453</ele>
        <time>2021-04-10T09:00:32.000Z</time>
      </trkpt>
      <trkpt lat="37.93671562336385" lon="23.775830855593085">
        <ele>453.2</ele>
        <time>2021-04-10T09:00:34.000Z</time>
      </trkpt>
      <trkpt lat="37.936758287250996" lon="23.77578852698207">
        <ele>453.2</ele>
        <time>2021-04-10T09:00:39.000Z</time>
      </trkpt>
      <trkpt lat="37.93676138855517" lon="23.775784084573388">
        <ele>453</ele>
        <time>2021-04-10T09:00:40.000Z</time>
      </trkpt>
      <trkpt lat="37.936767004430294" lon="23.775765979662538">
        <ele>453</ele>
        <time>2021-04-10T09:00:42.000Z</time>
      </trkpt>
      <trkpt lat="37.936770943924785" lon="23.77575432881713">
        <ele>452.8</ele>
        <time>2021-04-10T09:00:43.000Z</time>
      </trkpt>
      <trkpt lat="37.93677463196218" lon="23.775744438171387">
        <ele>452.8</ele>
        <time>2021-04-10T09:00:44.000Z</time>
      </trkpt>
      <trkpt lat="37.936774380505085" lon="23.775716023519635">
        <ele>452.8</ele>
        <time>2021-04-10T09:00:46.000Z</time>
      </trkpt>
      <trkpt lat="37.936782175675035" lon="23.77569230273366">
        <ele>452.6</ele>
        <time>2021-04-10T09:00:49.000Z</time>
      </trkpt>
      <trkpt lat="37.93678862974048" lon="23.775690039619803">
        <ele>452.8</ele>
        <time>2021-04-10T09:00:52.000Z</time>
      </trkpt>
      <trkpt lat="37.93678100220859" lon="23.77568450756371">
        <ele>452.6</ele>
        <time>2021-04-10T09:00:57.000Z</time>
      </trkpt>
      <trkpt lat="37.93677949346602" lon="23.77568257972598">
        <ele>452.6</ele>
        <time>2021-04-10T09:00:58.000Z</time>
      </trkpt>
      <trkpt lat="37.93678971938789" lon="23.775670425966382">
        <ele>452.8</ele>
        <time>2021-04-10T09:01:04.000Z</time>
      </trkpt>
      <trkpt lat="37.93679206632078" lon="23.775655338540673">
        <ele>452.8</ele>
        <time>2021-04-10T09:01:06.000Z</time>
      </trkpt>
      <trkpt lat="37.93681461364031" lon="23.77563128247857">
        <ele>452.4</ele>
        <time>2021-04-10T09:01:11.000Z</time>
      </trkpt>
      <trkpt lat="37.936817798763514" lon="23.77562382258475">
        <ele>452.4</ele>
        <time>2021-04-10T09:01:12.000Z</time>
      </trkpt>
      <trkpt lat="37.93683179654181" lon="23.77559607848525">
        <ele>451.8</ele>
        <time>2021-04-10T09:01:19.000Z</time>
      </trkpt>
      <trkpt lat="37.93683749623597" lon="23.77558342181146">
        <ele>451.6</ele>
        <time>2021-04-10T09:01:22.000Z</time>
      </trkpt>
      <trkpt lat="37.93683464638889" lon="23.775580655783415">
        <ele>451.4</ele>
        <time>2021-04-10T09:01:23.000Z</time>
      </trkpt>
      <trkpt lat="37.93683565221727" lon="23.77557059749961">
        <ele>451.4</ele>
        <time>2021-04-10T09:01:25.000Z</time>
      </trkpt>
      <trkpt lat="37.936867671087384" lon="23.775541679933667">
        <ele>451.2</ele>
        <time>2021-04-10T09:01:31.000Z</time>
      </trkpt>
      <trkpt lat="37.93686205521226" lon="23.77550572156906">
        <ele>450.6</ele>
        <time>2021-04-10T09:01:36.000Z</time>
      </trkpt>
      <trkpt lat="37.93687387369573" lon="23.775498680770397">
        <ele>450.6</ele>
        <time>2021-04-10T09:01:38.000Z</time>
      </trkpt>
      <trkpt lat="37.93687756173313" lon="23.775495495647192">
        <ele>450.6</ele>
        <time>2021-04-10T09:01:39.000Z</time>
      </trkpt>
      <trkpt lat="37.936879908666015" lon="23.77549247816205">
        <ele>450.2</ele>
        <time>2021-04-10T09:01:40.000Z</time>
      </trkpt>
      <trkpt lat="37.93688359670341" lon="23.775492310523987">
        <ele>450</ele>
        <time>2021-04-10T09:01:41.000Z</time>
      </trkpt>
      <trkpt lat="37.93690111488104" lon="23.77550706267357">
        <ele>449.8</ele>
        <time>2021-04-10T09:01:47.000Z</time>
      </trkpt>
      <trkpt lat="37.93696724809706" lon="23.77550572156906">
        <ele>449.8</ele>
        <time>2021-04-10T09:01:55.000Z</time>
      </trkpt>
      <trkpt lat="37.93697990477085" lon="23.77551343291998">
        <ele>449.8</ele>
        <time>2021-04-10T09:02:00.000Z</time>
      </trkpt>
      <trkpt lat="37.936957105994225" lon="23.7755071464926">
        <ele>449.6</ele>
        <time>2021-04-10T09:02:09.000Z</time>
      </trkpt>
      <trkpt lat="37.93696230277419" lon="23.775501446798444">
        <ele>449.2</ele>
        <time>2021-04-10T09:02:13.000Z</time>
      </trkpt>
      <trkpt lat="37.936962554231286" lon="23.77550572156906">
        <ele>448.6</ele>
        <time>2021-04-10T09:02:16.000Z</time>
      </trkpt>
      <trkpt lat="37.93696356005967" lon="23.775507230311632">
        <ele>448.6</ele>
        <time>2021-04-10T09:02:17.000Z</time>
      </trkpt>
      <trkpt lat="37.936972696334124" lon="23.775515612214804">
        <ele>448.8</ele>
        <time>2021-04-10T09:02:20.000Z</time>
      </trkpt>
      <trkpt lat="37.93697361834347" lon="23.775513852015138">
        <ele>449</ele>
        <time>2021-04-10T09:02:23.000Z</time>
      </trkpt>
      <trkpt lat="37.93697588145733" lon="23.77551150508225">
        <ele>448.8</ele>
        <time>2021-04-10T09:02:28.000Z</time>
      </trkpt>
      <trkpt lat="37.93698216788471" lon="23.775515193119645">
        <ele>449</ele>
        <time>2021-04-10T09:02:36.000Z</time>
      </trkpt>
      <trkpt lat="37.93697822839022" lon="23.77551494166255">
        <ele>448.8</ele>
        <time>2021-04-10T09:02:39.000Z</time>
      </trkpt>
      <trkpt lat="37.936972696334124" lon="23.77551988698542">
        <ele>448.8</ele>
        <time>2021-04-10T09:02:41.000Z</time>
      </trkpt>
      <trkpt lat="37.93696515262127" lon="23.775516031309962">
        <ele>448.8</ele>
        <time>2021-04-10T09:02:43.000Z</time>
      </trkpt>
      <trkpt lat="37.93695735745132" lon="23.77551544457674">
        <ele>448.8</ele>
        <time>2021-04-10T09:02:45.000Z</time>
      </trkpt>
      <trkpt lat="37.93694755062461" lon="23.775529274716973">
        <ele>448.2</ele>
        <time>2021-04-10T09:02:50.000Z</time>
      </trkpt>
      <trkpt lat="37.93695065192878" lon="23.775524832308292">
        <ele>448.2</ele>
        <time>2021-04-10T09:02:51.000Z</time>
      </trkpt>
      <trkpt lat="37.936959620565176" lon="23.775523994117975">
        <ele>448.4</ele>
        <time>2021-04-10T09:02:56.000Z</time>
      </trkpt>
      <trkpt lat="37.93695752508938" lon="23.775514271110296">
        <ele>448.4</ele>
        <time>2021-04-10T09:03:00.000Z</time>
      </trkpt>
      <trkpt lat="37.9369599558413" lon="23.7755124270916">
        <ele>448.4</ele>
        <time>2021-04-10T09:03:03.000Z</time>
      </trkpt>
      <trkpt lat="37.93696062639356" lon="23.775509241968393">
        <ele>448.4</ele>
        <time>2021-04-10T09:03:04.000Z</time>
      </trkpt>
      <trkpt lat="37.93696062639356" lon="23.77550655975938">
        <ele>448.4</ele>
        <time>2021-04-10T09:03:05.000Z</time>
      </trkpt>
      <trkpt lat="37.93695115484297" lon="23.775501362979412">
        <ele>448.2</ele>
        <time>2021-04-10T09:03:08.000Z</time>
      </trkpt>
      <trkpt lat="37.93694562278688" lon="23.775509241968393">
        <ele>448.4</ele>
        <time>2021-04-10T09:03:12.000Z</time>
      </trkpt>
      <trkpt lat="37.936946880072355" lon="23.775512678548694">
        <ele>448.4</ele>
        <time>2021-04-10T09:03:15.000Z</time>
      </trkpt>
      <trkpt lat="37.936949813738465" lon="23.77551544457674">
        <ele>448.4</ele>
        <time>2021-04-10T09:03:18.000Z</time>
      </trkpt>
      <trkpt lat="37.93695249594748" lon="23.775513181462884">
        <ele>448.4</ele>
        <time>2021-04-10T09:03:24.000Z</time>
      </trkpt>
      <trkpt lat="37.936954256147146" lon="23.775506895035505">
        <ele>448.8</ele>
        <time>2021-04-10T09:03:29.000Z</time>
      </trkpt>
      <trkpt lat="37.936939084902406" lon="23.775535142049193">
        <ele>448</ele>
        <time>2021-04-10T09:03:40.000Z</time>
      </trkpt>
      <trkpt lat="37.936941934749484" lon="23.775531873106956">
        <ele>448</ele>
        <time>2021-04-10T09:03:42.000Z</time>
      </trkpt>
      <trkpt lat="37.93693673796952" lon="23.77553396858275">
        <ele>448</ele>
        <time>2021-04-10T09:03:47.000Z</time>
      </trkpt>
      <trkpt lat="37.93693799525499" lon="23.77553539350629">
        <ele>447.8</ele>
        <time>2021-04-10T09:03:52.000Z</time>
      </trkpt>
      <trkpt lat="37.936938498169184" lon="23.775518210604787">
        <ele>447.8</ele>
        <time>2021-04-10T09:04:04.000Z</time>
      </trkpt>
      <trkpt lat="37.93695886619389" lon="23.775504380464554">
        <ele>447.8</ele>
        <time>2021-04-10T09:04:18.000Z</time>
      </trkpt>
      <trkpt lat="37.93693103827536" lon="23.775509744882584">
        <ele>447.8</ele>
        <time>2021-04-10T09:04:31.000Z</time>
      </trkpt>
      <trkpt lat="37.9369308706373" lon="23.775513600558043">
        <ele>447.8</ele>
        <time>2021-04-10T09:04:36.000Z</time>
      </trkpt>
      <trkpt lat="37.936939503997564" lon="23.775513768196106">
        <ele>447.8</ele>
        <time>2021-04-10T09:04:40.000Z</time>
      </trkpt>
      <trkpt lat="37.93694553896785" lon="23.775508739054203">
        <ele>447.6</ele>
        <time>2021-04-10T09:04:43.000Z</time>
      </trkpt>
      <trkpt lat="37.93694017454982" lon="23.775506811216474">
        <ele>447.6</ele>
        <time>2021-04-10T09:04:49.000Z</time>
      </trkpt>
      <trkpt lat="37.93692307546735" lon="23.775509661063552">
        <ele>447.8</ele>
        <time>2021-04-10T09:05:06.000Z</time>
      </trkpt>
      <trkpt lat="37.93692424893379" lon="23.77551779150963">
        <ele>447.8</ele>
        <time>2021-04-10T09:05:08.000Z</time>
      </trkpt>
      <trkpt lat="37.936933720484376" lon="23.775522485375404">
        <ele>447.8</ele>
        <time>2021-04-10T09:05:13.000Z</time>
      </trkpt>
      <trkpt lat="37.93696263805032" lon="23.775518126785755">
        <ele>447.8</ele>
        <time>2021-04-10T09:05:27.000Z</time>
      </trkpt>
      <trkpt lat="37.93696263805032" lon="23.77553790807724">
        <ele>448</ele>
        <time>2021-04-10T09:05:32.000Z</time>
      </trkpt>
      <trkpt lat="37.936962470412254" lon="23.77554184757173">
        <ele>448.2</ele>
        <time>2021-04-10T09:05:33.000Z</time>
      </trkpt>
      <trkpt lat="37.93696515262127" lon="23.775547547265887">
        <ele>448.2</ele>
        <time>2021-04-10T09:05:35.000Z</time>
      </trkpt>
      <trkpt lat="37.936961967498064" lon="23.775526089593768">
        <ele>448</ele>
        <time>2021-04-10T09:05:41.000Z</time>
      </trkpt>
      <trkpt lat="37.93697948567569" lon="23.775521395727992">
        <ele>447.2</ele>
        <time>2021-04-10T09:05:50.000Z</time>
      </trkpt>
      <trkpt lat="37.93697705492377" lon="23.775518210604787">
        <ele>447.2</ele>
        <time>2021-04-10T09:05:51.000Z</time>
      </trkpt>
      <trkpt lat="37.936974288895726" lon="23.775518126785755">
        <ele>447.2</ele>
        <time>2021-04-10T09:05:52.000Z</time>
      </trkpt>
      <trkpt lat="37.93695752508938" lon="23.775512175634503">
        <ele>447.6</ele>
        <time>2021-04-10T09:05:57.000Z</time>
      </trkpt>
      <trkpt lat="37.93695576488972" lon="23.775507984682918">
        <ele>447.6</ele>
        <time>2021-04-10T09:05:59.000Z</time>
      </trkpt>
      <trkpt lat="37.93695626780391" lon="23.775506308302283">
        <ele>447.6</ele>
        <time>2021-04-10T09:06:02.000Z</time>
      </trkpt>
      <trkpt lat="37.93695735745132" lon="23.77549985423684">
        <ele>447.6</ele>
        <time>2021-04-10T09:06:05.000Z</time>
      </trkpt>
      <trkpt lat="37.93698132969439" lon="23.77551351673901">
        <ele>447</ele>
        <time>2021-04-10T09:06:13.000Z</time>
      </trkpt>
      <trkpt lat="37.93695140630007" lon="23.775494573637843">
        <ele>447.2</ele>
        <time>2021-04-10T09:06:21.000Z</time>
      </trkpt>
      <trkpt lat="37.93695283122361" lon="23.775503123179078">
        <ele>447.2</ele>
        <time>2021-04-10T09:06:22.000Z</time>
      </trkpt>
      <trkpt lat="37.93695895001292" lon="23.77550764940679">
        <ele>447</ele>
        <time>2021-04-10T09:06:32.000Z</time>
      </trkpt>
      <trkpt lat="37.93694914318621" lon="23.775519216433167">
        <ele>446.8</ele>
        <time>2021-04-10T09:06:36.000Z</time>
      </trkpt>
      <trkpt lat="37.936927853152156" lon="23.77550069242716">
        <ele>446.4</ele>
        <time>2021-04-10T09:06:44.000Z</time>
      </trkpt>
      <trkpt lat="37.93692408129573" lon="23.775481581687927">
        <ele>446.4</ele>
        <time>2021-04-10T09:06:47.000Z</time>
      </trkpt>
      <trkpt lat="37.93695408850908" lon="23.77552525140345">
        <ele>446.4</ele>
        <time>2021-04-10T09:06:50.000Z</time>
      </trkpt>
      <trkpt lat="37.93697437271476" lon="23.77551544457674">
        <ele>447.6</ele>
        <time>2021-04-10T09:45:21.000Z</time>
      </trkpt>
      <trkpt lat="37.936976216733456" lon="23.775522653013468">
        <ele>448</ele>
        <time>2021-04-10T09:45:22.000Z</time>
      </trkpt>
      <trkpt lat="37.93698870576918" lon="23.775536231696606">
        <ele>447.8</ele>
        <time>2021-04-10T09:45:25.000Z</time>
      </trkpt>
      <trkpt lat="37.936996752396226" lon="23.775540506467223">
        <ele>448.2</ele>
        <time>2021-04-10T09:45:28.000Z</time>
      </trkpt>
      <trkpt lat="37.93699163943529" lon="23.775551319122314">
        <ele>448.2</ele>
        <time>2021-04-10T09:45:32.000Z</time>
      </trkpt>
      <trkpt lat="37.93698485009372" lon="23.775543440133333">
        <ele>448.2</ele>
        <time>2021-04-10T09:45:34.000Z</time>
      </trkpt>
      <trkpt lat="37.93696925975382" lon="23.77554327249527">
        <ele>448</ele>
        <time>2021-04-10T09:45:40.000Z</time>
      </trkpt>
      <trkpt lat="37.93693673796952" lon="23.775563640519977">
        <ele>448</ele>
        <time>2021-04-10T09:45:49.000Z</time>
      </trkpt>
      <trkpt lat="37.93693824671209" lon="23.77555064857006">
        <ele>447.8</ele>
        <time>2021-04-10T09:45:55.000Z</time>
      </trkpt>
      <trkpt lat="37.93694763444364" lon="23.77555802464485">
        <ele>447.8</ele>
        <time>2021-04-10T09:45:59.000Z</time>
      </trkpt>
      <trkpt lat="37.93694721534848" lon="23.775558108463883">
        <ele>447.8</ele>
        <time>2021-04-10T09:46:00.000Z</time>
      </trkpt>
      <trkpt lat="37.936942018568516" lon="23.775558611378074">
        <ele>448</ele>
        <time>2021-04-10T09:46:02.000Z</time>
      </trkpt>
      <trkpt lat="37.93693623505533" lon="23.775563053786755">
        <ele>448</ele>
        <time>2021-04-10T09:46:03.000Z</time>
      </trkpt>
      <trkpt lat="37.93694017454982" lon="23.77555886283517">
        <ele>448.6</ele>
        <time>2021-04-10T09:46:12.000Z</time>
      </trkpt>
      <trkpt lat="37.93693397194147" lon="23.775542182847857">
        <ele>448.4</ele>
        <time>2021-04-10T09:46:19.000Z</time>
      </trkpt>
      <trkpt lat="37.936915531754494" lon="23.77554235048592">
        <ele>448.6</ele>
        <time>2021-04-10T09:46:22.000Z</time>
      </trkpt>
      <trkpt lat="37.93692818842828" lon="23.775559784844518">
        <ele>448.4</ele>
        <time>2021-04-10T09:46:29.000Z</time>
      </trkpt>
      <trkpt lat="37.936948388814926" lon="23.77555752173066">
        <ele>448.4</ele>
        <time>2021-04-10T09:46:36.000Z</time>
      </trkpt>
      <trkpt lat="37.93694604188204" lon="23.775572273880243">
        <ele>448.4</ele>
        <time>2021-04-10T09:46:42.000Z</time>
      </trkpt>
      <trkpt lat="37.93694654479623" lon="23.77556967549026">
        <ele>448.4</ele>
        <time>2021-04-10T09:46:43.000Z</time>
      </trkpt>
      <trkpt lat="37.936949310824275" lon="23.775567496195436">
        <ele>448.4</ele>
        <time>2021-04-10T09:46:47.000Z</time>
      </trkpt>
      <trkpt lat="37.93694478459656" lon="23.775571351870894">
        <ele>448.4</ele>
        <time>2021-04-10T09:46:48.000Z</time>
      </trkpt>
      <trkpt lat="37.93694084510207" lon="23.775567496195436">
        <ele>448.4</ele>
        <time>2021-04-10T09:46:50.000Z</time>
      </trkpt>
      <trkpt lat="37.93693942017853" lon="23.775533633306623">
        <ele>448.4</ele>
        <time>2021-04-10T09:47:01.000Z</time>
      </trkpt>
      <trkpt lat="37.9369374923408" lon="23.77552516758442">
        <ele>448.4</ele>
        <time>2021-04-10T09:47:03.000Z</time>
      </trkpt>
      <trkpt lat="37.93694478459656" lon="23.775527430698276">
        <ele>448.4</ele>
        <time>2021-04-10T09:47:06.000Z</time>
      </trkpt>
      <trkpt lat="37.93694520369172" lon="23.775531286373734">
        <ele>448.4</ele>
        <time>2021-04-10T09:47:08.000Z</time>
      </trkpt>
      <trkpt lat="37.936945874243975" lon="23.775541679933667">
        <ele>448.4</ele>
        <time>2021-04-10T09:47:15.000Z</time>
      </trkpt>
      <trkpt lat="37.93695232830942" lon="23.775534722954035">
        <ele>448.4</ele>
        <time>2021-04-10T09:47:22.000Z</time>
      </trkpt>
      <trkpt lat="37.936966409906745" lon="23.77552332356572">
        <ele>448.4</ele>
        <time>2021-04-10T09:47:25.000Z</time>
      </trkpt>
      <trkpt lat="37.93696808628738" lon="23.775529023259878">
        <ele>448.4</ele>
        <time>2021-04-10T09:47:27.000Z</time>
      </trkpt>
      <trkpt lat="37.93697152286768" lon="23.77553447149694">
        <ele>448.4</ele>
        <time>2021-04-10T09:47:30.000Z</time>
      </trkpt>
      <trkpt lat="37.9369964171201" lon="23.775548050180078">
        <ele>448.4</ele>
        <time>2021-04-10T09:47:37.000Z</time>
      </trkpt>
      <trkpt lat="37.936990885064006" lon="23.775567496195436">
        <ele>448.4</ele>
        <time>2021-04-10T09:47:44.000Z</time>
      </trkpt>
      <trkpt lat="37.936999602243304" lon="23.775553749874234">
        <ele>448.4</ele>
        <time>2021-04-10T09:47:47.000Z</time>
      </trkpt>
      <trkpt lat="37.93700479902327" lon="23.775558276101947">
        <ele>448.4</ele>
        <time>2021-04-10T09:47:51.000Z</time>
      </trkpt>
      <trkpt lat="37.936988370493054" lon="23.775553917512298">
        <ele>448.4</ele>
        <time>2021-04-10T09:47:58.000Z</time>
      </trkpt>
      <trkpt lat="37.936986442655325" lon="23.775581577792764">
        <ele>448.4</ele>
        <time>2021-04-10T09:48:03.000Z</time>
      </trkpt>
      <trkpt lat="37.936982586979866" lon="23.775592977181077">
        <ele>448.4</ele>
        <time>2021-04-10T09:48:04.000Z</time>
      </trkpt>
      <trkpt lat="37.93695593252778" lon="23.77563815563917">
        <ele>448.4</ele>
        <time>2021-04-10T09:48:07.000Z</time>
      </trkpt>
      <trkpt lat="37.936933217570186" lon="23.7756937276572">
        <ele>447</ele>
        <time>2021-04-10T09:48:11.000Z</time>
      </trkpt>
      <trkpt lat="37.93692206963897" lon="23.77570210956037">
        <ele>445.8</ele>
        <time>2021-04-10T09:48:13.000Z</time>
      </trkpt>
      <trkpt lat="37.936916872859" lon="23.775701941922307">
        <ele>448</ele>
        <time>2021-04-10T09:48:14.000Z</time>
      </trkpt>
      <trkpt lat="37.93691192753613" lon="23.7757006008178">
        <ele>448.2</ele>
        <time>2021-04-10T09:48:15.000Z</time>
      </trkpt>
      <trkpt lat="37.93690036050975" lon="23.77571233548224">
        <ele>448.2</ele>
        <time>2021-04-10T09:48:17.000Z</time>
      </trkpt>
      <trkpt lat="37.93688016012311" lon="23.775747707113624">
        <ele>449</ele>
        <time>2021-04-10T09:48:20.000Z</time>
      </trkpt>
      <trkpt lat="37.93686834163964" lon="23.775755083188415">
        <ele>449</ele>
        <time>2021-04-10T09:48:21.000Z</time>
      </trkpt>
      <trkpt lat="37.93685727752745" lon="23.775759525597095">
        <ele>449</ele>
        <time>2021-04-10T09:48:22.000Z</time>
      </trkpt>
      <trkpt lat="37.93684730306268" lon="23.775764722377062">
        <ele>447.6</ele>
        <time>2021-04-10T09:48:23.000Z</time>
      </trkpt>
      <trkpt lat="37.93679315596819" lon="23.775779055431485">
        <ele>447.4</ele>
        <time>2021-04-10T09:48:28.000Z</time>
      </trkpt>
      <trkpt lat="37.93675082735717" lon="23.775816606357694">
        <ele>447</ele>
        <time>2021-04-10T09:48:34.000Z</time>
      </trkpt>
      <trkpt lat="37.936746971681714" lon="23.775817528367043">
        <ele>447</ele>
        <time>2021-04-10T09:48:35.000Z</time>
      </trkpt>
      <trkpt lat="37.93667480349541" lon="23.775858767330647">
        <ele>446.8</ele>
        <time>2021-04-10T09:48:41.000Z</time>
      </trkpt>
      <trkpt lat="37.93663775548339" lon="23.775908472016454">
        <ele>446.6</ele>
        <time>2021-04-10T09:48:44.000Z</time>
      </trkpt>
      <trkpt lat="37.93662593699992" lon="23.775921380147338">
        <ele>446.6</ele>
        <time>2021-04-10T09:48:46.000Z</time>
      </trkpt>
      <trkpt lat="37.93661436997354" lon="23.775926074013114">
        <ele>446.6</ele>
        <time>2021-04-10T09:48:48.000Z</time>
      </trkpt>
      <trkpt lat="37.936602886766195" lon="23.7759508844465">
        <ele>446.6</ele>
        <time>2021-04-10T09:48:56.000Z</time>
      </trkpt>
      <trkpt lat="37.93658193200827" lon="23.775987178087234">
        <ele>446.6</ele>
        <time>2021-04-10T09:48:59.000Z</time>
      </trkpt>
      <trkpt lat="37.936591655015945" lon="23.776036966592073">
        <ele>446.8</ele>
        <time>2021-04-10T09:49:03.000Z</time>
      </trkpt>
      <trkpt lat="37.93665342964232" lon="23.776115253567696">
        <ele>447</ele>
        <time>2021-04-10T09:49:08.000Z</time>
      </trkpt>
      <trkpt lat="37.93666751123965" lon="23.776121037080884">
        <ele>447</ele>
        <time>2021-04-10T09:49:09.000Z</time>
      </trkpt>
      <trkpt lat="37.93670489452779" lon="23.776153894141316">
        <ele>447.6</ele>
        <time>2021-04-10T09:49:13.000Z</time>
      </trkpt>
      <trkpt lat="37.936722077429295" lon="23.776174848899245">
        <ele>447.8</ele>
        <time>2021-04-10T09:49:15.000Z</time>
      </trkpt>
      <trkpt lat="37.936809081584215" lon="23.776242826133966">
        <ele>448.6</ele>
        <time>2021-04-10T09:49:23.000Z</time>
      </trkpt>
      <trkpt lat="37.93682022951543" lon="23.776251208037138">
        <ele>448.6</ele>
        <time>2021-04-10T09:49:24.000Z</time>
      </trkpt>
      <trkpt lat="37.93686582706869" lon="23.7763031758368">
        <ele>448.8</ele>
        <time>2021-04-10T09:49:28.000Z</time>
      </trkpt>
      <trkpt lat="37.93690463528037" lon="23.776356652379036">
        <ele>448.6</ele>
        <time>2021-04-10T09:49:32.000Z</time>
      </trkpt>
      <trkpt lat="37.93697311542928" lon="23.776470562443137">
        <ele>449.4</ele>
        <time>2021-04-10T09:49:41.000Z</time>
      </trkpt>
      <trkpt lat="37.93702935799956" lon="23.77655614167452">
        <ele>449.8</ele>
        <time>2021-04-10T09:49:47.000Z</time>
      </trkpt>
      <trkpt lat="37.937040254473686" lon="23.776570139452815">
        <ele>449.8</ele>
        <time>2021-04-10T09:49:48.000Z</time>
      </trkpt>
      <trkpt lat="37.937062131240964" lon="23.77659478224814">
        <ele>449.8</ele>
        <time>2021-04-10T09:49:50.000Z</time>
      </trkpt>
      <trkpt lat="37.93708819895983" lon="23.77663250081241">
        <ele>450</ele>
        <time>2021-04-10T09:49:53.000Z</time>
      </trkpt>
      <trkpt lat="37.93710596859455" lon="23.77665253356099">
        <ele>449.8</ele>
        <time>2021-04-10T09:49:55.000Z</time>
      </trkpt>
      <trkpt lat="37.93713631108403" lon="23.77667055465281">
        <ele>449.8</ele>
        <time>2021-04-10T09:49:58.000Z</time>
      </trkpt>
      <trkpt lat="37.93714595027268" lon="23.776676254346967">
        <ele>450</ele>
        <time>2021-04-10T09:49:59.000Z</time>
      </trkpt>
      <trkpt lat="37.93716950342059" lon="23.776688324287534">
        <ele>450.6</ele>
        <time>2021-04-10T09:50:01.000Z</time>
      </trkpt>
      <trkpt lat="37.937184339389205" lon="23.77669544890523">
        <ele>450.8</ele>
        <time>2021-04-10T09:50:02.000Z</time>
      </trkpt>
      <trkpt lat="37.93723965995014" lon="23.776703495532274">
        <ele>451.2</ele>
        <time>2021-04-10T09:50:06.000Z</time>
      </trkpt>
      <trkpt lat="37.937336806207895" lon="23.776722522452474">
        <ele>451.8</ele>
        <time>2021-04-10T09:50:12.000Z</time>
      </trkpt>
      <trkpt lat="37.937349043786526" lon="23.776724115014076">
        <ele>452</ele>
        <time>2021-04-10T09:50:13.000Z</time>
      </trkpt>
      <trkpt lat="37.93735851533711" lon="23.776727467775345">
        <ele>452</ele>
        <time>2021-04-10T09:50:14.000Z</time>
      </trkpt>
      <trkpt lat="37.937360778450966" lon="23.776715230196714">
        <ele>452</ele>
        <time>2021-04-10T09:50:18.000Z</time>
      </trkpt>
      <trkpt lat="37.93735650368035" lon="23.776713805273175">
        <ele>452</ele>
        <time>2021-04-10T09:50:19.000Z</time>
      </trkpt>
      <trkpt lat="37.93734879232943" lon="23.776709949597716">
        <ele>452</ele>
        <time>2021-04-10T09:50:20.000Z</time>
      </trkpt>
      <trkpt lat="37.9372865986079" lon="23.776701483875513">
        <ele>452</ele>
        <time>2021-04-10T09:50:26.000Z</time>
      </trkpt>
      <trkpt lat="37.9372329544276" lon="23.77671640366316">
        <ele>452</ele>
        <time>2021-04-10T09:50:30.000Z</time>
      </trkpt>
      <trkpt lat="37.9371880274266" lon="23.776706093922257">
        <ele>451.8</ele>
        <time>2021-04-10T09:50:34.000Z</time>
      </trkpt>
      <trkpt lat="37.93716195970774" lon="23.7767022382468">
        <ele>451.8</ele>
        <time>2021-04-10T09:50:36.000Z</time>
      </trkpt>
      <trkpt lat="37.93715089559555" lon="23.776705339550972">
        <ele>451.8</ele>
        <time>2021-04-10T09:50:37.000Z</time>
      </trkpt>
      <trkpt lat="37.93715089559555" lon="23.776705339550972">
        <ele>451.8</ele>
        <time>2021-04-10T09:50:37.000Z</time>
      </trkpt>
      <trkpt lat="37.93711803853512" lon="23.776700729504228">
        <ele>451.6</ele>
        <time>2021-04-10T09:50:42.000Z</time>
      </trkpt>
      <trkpt lat="37.93712206184864" lon="23.776705842465162">
        <ele>451.4</ele>
        <time>2021-04-10T09:50:50.000Z</time>
      </trkpt>
      <trkpt lat="37.93712306767702" lon="23.776706429198384">
        <ele>451.4</ele>
        <time>2021-04-10T09:50:51.000Z</time>
      </trkpt>
      <trkpt lat="37.93712256476283" lon="23.776706848293543">
        <ele>451.6</ele>
        <time>2021-04-10T09:50:53.000Z</time>
      </trkpt>
      <trkpt lat="37.93711074627936" lon="23.776709865778685">
        <ele>451.6</ele>
        <time>2021-04-10T09:50:55.000Z</time>
      </trkpt>
      <trkpt lat="37.93707059696317" lon="23.776707937940955">
        <ele>451.8</ele>
        <time>2021-04-10T09:50:59.000Z</time>
      </trkpt>
      <trkpt lat="37.93699809350073" lon="23.77671740949154">
        <ele>452</ele>
        <time>2021-04-10T09:51:05.000Z</time>
      </trkpt>
      <trkpt lat="37.93695484288037" lon="23.776691844686866">
        <ele>452.2</ele>
        <time>2021-04-10T09:51:08.000Z</time>
      </trkpt>
      <trkpt lat="37.93690522201359" lon="23.776666531339288">
        <ele>452.6</ele>
        <time>2021-04-10T09:51:12.000Z</time>
      </trkpt>
      <trkpt lat="37.93689323589206" lon="23.77666426822543">
        <ele>453</ele>
        <time>2021-04-10T09:51:13.000Z</time>
      </trkpt>
      <trkpt lat="37.93686985038221" lon="23.77666619606316">
        <ele>453.4</ele>
        <time>2021-04-10T09:51:15.000Z</time>
      </trkpt>
      <trkpt lat="37.93685786426067" lon="23.776668459177017">
        <ele>453.6</ele>
        <time>2021-04-10T09:51:16.000Z</time>
      </trkpt>
      <trkpt lat="37.93682190589607" lon="23.776666279882193">
        <ele>454.2</ele>
        <time>2021-04-10T09:51:19.000Z</time>
      </trkpt>
      <trkpt lat="37.936801789328456" lon="23.7766485940665">
        <ele>454.6</ele>
        <time>2021-04-10T09:51:21.000Z</time>
      </trkpt>
      <trkpt lat="37.936775302514434" lon="23.776628645136952">
        <ele>454.8</ele>
        <time>2021-04-10T09:51:24.000Z</time>
      </trkpt>
      <trkpt lat="37.936732890084386" lon="23.77662948332727">
        <ele>455.4</ele>
        <time>2021-04-10T09:51:27.000Z</time>
      </trkpt>
      <trkpt lat="37.9366872087121" lon="23.776632081717253">
        <ele>455.8</ele>
        <time>2021-04-10T09:51:31.000Z</time>
      </trkpt>
      <trkpt lat="37.93667555786669" lon="23.77663099206984">
        <ele>456</ele>
        <time>2021-04-10T09:51:32.000Z</time>
      </trkpt>
      <trkpt lat="37.93665451928973" lon="23.7766279745847">
        <ele>456.4</ele>
        <time>2021-04-10T09:51:34.000Z</time>
      </trkpt>
      <trkpt lat="37.93662250041962" lon="23.776630153879523">
        <ele>457</ele>
        <time>2021-04-10T09:51:38.000Z</time>
      </trkpt>
      <trkpt lat="37.93662015348673" lon="23.776634512469172">
        <ele>457.4</ele>
        <time>2021-04-10T09:51:39.000Z</time>
      </trkpt>
      <trkpt lat="37.93661696836352" lon="23.776633506640792">
        <ele>457.4</ele>
        <time>2021-04-10T09:51:40.000Z</time>
      </trkpt>
      <trkpt lat="37.936616046354175" lon="23.77664021216333">
        <ele>457.6</ele>
        <time>2021-04-10T09:51:41.000Z</time>
      </trkpt>
      <trkpt lat="37.93663389980793" lon="23.7766676209867">
        <ele>458.4</ele>
        <time>2021-04-10T09:51:44.000Z</time>
      </trkpt>
      <trkpt lat="37.93664219789207" lon="23.776672733947635">
        <ele>458.6</ele>
        <time>2021-04-10T09:51:45.000Z</time>
      </trkpt>
      <trkpt lat="37.93665552511811" lon="23.77669838257134">
        <ele>459</ele>
        <time>2021-04-10T09:51:47.000Z</time>
      </trkpt>
      <trkpt lat="37.93666114099324" lon="23.77671053633094">
        <ele>459.2</ele>
        <time>2021-04-10T09:51:48.000Z</time>
      </trkpt>
      <trkpt lat="37.936669355258346" lon="23.776723612099886">
        <ele>459.4</ele>
        <time>2021-04-10T09:51:49.000Z</time>
      </trkpt>
      <trkpt lat="37.9366803355515" lon="23.77673266455531">
        <ele>459.6</ele>
        <time>2021-04-10T09:51:50.000Z</time>
      </trkpt>
      <trkpt lat="37.93669533915818" lon="23.776785554364324">
        <ele>460</ele>
        <time>2021-04-10T09:51:55.000Z</time>
      </trkpt>
      <trkpt lat="37.936712773516774" lon="23.776819752529263">
        <ele>460.8</ele>
        <time>2021-04-10T09:51:59.000Z</time>
      </trkpt>
      <trkpt lat="37.9367236699909" lon="23.776818746700883">
        <ele>461.6</ele>
        <time>2021-04-10T09:52:02.000Z</time>
      </trkpt>
      <trkpt lat="37.936774883419275" lon="23.776816483587027">
        <ele>461.4</ele>
        <time>2021-04-10T09:52:09.000Z</time>
      </trkpt>
      <trkpt lat="37.93677764944732" lon="23.776813969016075">
        <ele>461.4</ele>
        <time>2021-04-10T09:52:10.000Z</time>
      </trkpt>
      <trkpt lat="37.93677429668605" lon="23.776814304292202">
        <ele>461.4</ele>
        <time>2021-04-10T09:52:11.000Z</time>
      </trkpt>
      <trkpt lat="37.936741607263684" lon="23.77682159654796">
        <ele>461.4</ele>
        <time>2021-04-10T09:52:15.000Z</time>
      </trkpt>
      <trkpt lat="37.9367580357939" lon="23.776844143867493">
        <ele>461.8</ele>
        <time>2021-04-10T09:52:20.000Z</time>
      </trkpt>
      <trkpt lat="37.93676566332579" lon="23.776854034513235">
        <ele>461.8</ele>
        <time>2021-04-10T09:52:21.000Z</time>
      </trkpt>
      <trkpt lat="37.936779744923115" lon="23.77686803229153">
        <ele>462.2</ele>
        <time>2021-04-10T09:52:23.000Z</time>
      </trkpt>
      <trkpt lat="37.936798352748156" lon="23.77689963206649">
        <ele>463</ele>
        <time>2021-04-10T09:52:27.000Z</time>
      </trkpt>
      <trkpt lat="37.93680489063263" lon="23.776916479691863">
        <ele>463.4</ele>
        <time>2021-04-10T09:52:29.000Z</time>
      </trkpt>
      <trkpt lat="37.93682064861059" lon="23.77698915079236">
        <ele>464</ele>
        <time>2021-04-10T09:52:35.000Z</time>
      </trkpt>
      <trkpt lat="37.936832047998905" lon="23.77700675278902">
        <ele>464.6</ele>
        <time>2021-04-10T09:52:37.000Z</time>
      </trkpt>
      <trkpt lat="37.93684680014849" lon="23.77703416161239">
        <ele>465</ele>
        <time>2021-04-10T09:52:39.000Z</time>
      </trkpt>
      <trkpt lat="37.93686012737453" lon="23.777064839378">
        <ele>465.6</ele>
        <time>2021-04-10T09:52:42.000Z</time>
      </trkpt>
      <trkpt lat="37.936869598925114" lon="23.777080597355962">
        <ele>466.2</ele>
        <time>2021-04-10T09:52:44.000Z</time>
      </trkpt>
      <trkpt lat="37.93687387369573" lon="23.77708788961172">
        <ele>466.2</ele>
        <time>2021-04-10T09:52:45.000Z</time>
      </trkpt>
      <trkpt lat="37.93690178543329" lon="23.77712636254728">
        <ele>467.2</ele>
        <time>2021-04-10T09:52:50.000Z</time>
      </trkpt>
      <trkpt lat="37.93691921979189" lon="23.777157459408045">
        <ele>467.4</ele>
        <time>2021-04-10T09:52:53.000Z</time>
      </trkpt>
      <trkpt lat="37.936921399086714" lon="23.77716642804444">
        <ele>467.8</ele>
        <time>2021-04-10T09:52:54.000Z</time>
      </trkpt>
      <trkpt lat="37.93693992309272" lon="23.777186376973987">
        <ele>468.4</ele>
        <time>2021-04-10T09:52:56.000Z</time>
      </trkpt>
      <trkpt lat="37.936961967498064" lon="23.777241948992014">
        <ele>469</ele>
        <time>2021-04-10T09:53:01.000Z</time>
      </trkpt>
      <trkpt lat="37.93696615844965" lon="23.77725536003709">
        <ele>469.2</ele>
        <time>2021-04-10T09:53:02.000Z</time>
      </trkpt>
      <trkpt lat="37.936978647485375" lon="23.777272710576653">
        <ele>469.4</ele>
        <time>2021-04-10T09:53:04.000Z</time>
      </trkpt>
      <trkpt lat="37.93700907379389" lon="23.777316799387336">
        <ele>470.4</ele>
        <time>2021-04-10T09:53:09.000Z</time>
      </trkpt>
      <trkpt lat="37.93703304603696" lon="23.77732526510954">
        <ele>470.6</ele>
        <time>2021-04-10T09:53:12.000Z</time>
      </trkpt>
      <trkpt lat="37.937071518972516" lon="23.777344040572643">
        <ele>471.4</ele>
        <time>2021-04-10T09:53:16.000Z</time>
      </trkpt>
      <trkpt lat="37.937079230323434" lon="23.777347560971975">
        <ele>471.6</ele>
        <time>2021-04-10T09:53:17.000Z</time>
      </trkpt>
      <trkpt lat="37.93709582649171" lon="23.777360217645764">
        <ele>471.8</ele>
        <time>2021-04-10T09:53:19.000Z</time>
      </trkpt>
      <trkpt lat="37.93713178485632" lon="23.777379244565964">
        <ele>472.6</ele>
        <time>2021-04-10T09:53:23.000Z</time>
      </trkpt>
      <trkpt lat="37.93714745901525" lon="23.777388716116548">
        <ele>472.8</ele>
        <time>2021-04-10T09:53:25.000Z</time>
      </trkpt>
      <trkpt lat="37.93719179928303" lon="23.777403216809034">
        <ele>473.6</ele>
        <time>2021-04-10T09:53:29.000Z</time>
      </trkpt>
      <trkpt lat="37.937208814546466" lon="23.77740992233157">
        <ele>474</ele>
        <time>2021-04-10T09:53:31.000Z</time>
      </trkpt>
      <trkpt lat="37.937222896143794" lon="23.77741570584476">
        <ele>474.2</ele>
        <time>2021-04-10T09:53:33.000Z</time>
      </trkpt>
      <trkpt lat="37.93724711984396" lon="23.77742693759501">
        <ele>474.6</ele>
        <time>2021-04-10T09:53:36.000Z</time>
      </trkpt>
      <trkpt lat="37.937254663556814" lon="23.77743523567915">
        <ele>474.8</ele>
        <time>2021-04-10T09:53:37.000Z</time>
      </trkpt>
      <trkpt lat="37.93726949952543" lon="23.77744948491454">
        <ele>475.2</ele>
        <time>2021-04-10T09:53:39.000Z</time>
      </trkpt>
      <trkpt lat="37.9372778814286" lon="23.777454430237412">
        <ele>475.4</ele>
        <time>2021-04-10T09:53:40.000Z</time>
      </trkpt>
      <trkpt lat="37.937293304130435" lon="23.777463231235743">
        <ele>475.8</ele>
        <time>2021-04-10T09:53:43.000Z</time>
      </trkpt>
      <trkpt lat="37.93731861747801" lon="23.777480833232403">
        <ele>476.6</ele>
        <time>2021-04-10T09:53:47.000Z</time>
      </trkpt>
      <trkpt lat="37.93732741847634" lon="23.777489634230733">
        <ele>477</ele>
        <time>2021-04-10T09:53:49.000Z</time>
      </trkpt>
      <trkpt lat="37.93733261525631" lon="23.7774895504117">
        <ele>477.2</ele>
        <time>2021-04-10T09:53:50.000Z</time>
      </trkpt>
      <trkpt lat="37.937340158969164" lon="23.77748946659267">
        <ele>477.4</ele>
        <time>2021-04-10T09:53:51.000Z</time>
      </trkpt>
      <trkpt lat="37.937355833128095" lon="23.777489718049765">
        <ele>477.6</ele>
        <time>2021-04-10T09:53:53.000Z</time>
      </trkpt>
      <trkpt lat="37.937370501458645" lon="23.777491226792336">
        <ele>477.6</ele>
        <time>2021-04-10T09:53:54.000Z</time>
      </trkpt>
      <trkpt lat="37.93740838766098" lon="23.777505392208695">
        <ele>478</ele>
        <time>2021-04-10T09:53:56.000Z</time>
      </trkpt>
      <trkpt lat="37.937469240278006" lon="23.777521904557943">
        <ele>478.2</ele>
        <time>2021-04-10T09:53:59.000Z</time>
      </trkpt>
      <trkpt lat="37.93752422556281" lon="23.777528945356607">
        <ele>478.6</ele>
        <time>2021-04-10T09:54:04.000Z</time>
      </trkpt>
      <trkpt lat="37.93753696605563" lon="23.777519641444087">
        <ele>479</ele>
        <time>2021-04-10T09:54:06.000Z</time>
      </trkpt>
      <trkpt lat="37.93754417449236" lon="23.777516037225723">
        <ele>479.4</ele>
        <time>2021-04-10T09:54:07.000Z</time>
      </trkpt>
      <trkpt lat="37.93754895217717" lon="23.77751058898866">
        <ele>479.6</ele>
        <time>2021-04-10T09:54:08.000Z</time>
      </trkpt>
      <trkpt lat="37.937550796195865" lon="23.777505727484822">
        <ele>479.8</ele>
        <time>2021-04-10T09:54:09.000Z</time>
      </trkpt>
      <trkpt lat="37.93755071237683" lon="23.777502039447427">
        <ele>480.2</ele>
        <time>2021-04-10T09:54:10.000Z</time>
      </trkpt>
      <trkpt lat="37.937550796195865" lon="23.77750220708549">
        <ele>480.2</ele>
        <time>2021-04-10T09:54:11.000Z</time>
      </trkpt>
      <trkpt lat="37.93755096383393" lon="23.77750757150352">
        <ele>480.4</ele>
        <time>2021-04-10T09:54:12.000Z</time>
      </trkpt>
      <trkpt lat="37.93754811398685" lon="23.77750949934125">
        <ele>480.6</ele>
        <time>2021-04-10T09:54:13.000Z</time>
      </trkpt>
      <trkpt lat="37.93755121529102" lon="23.777513774111867">
        <ele>480.8</ele>
        <time>2021-04-10T09:54:15.000Z</time>
      </trkpt>
      <trkpt lat="37.93755783699453" lon="23.77751972526312">
        <ele>481</ele>
        <time>2021-04-10T09:54:17.000Z</time>
      </trkpt>
      <trkpt lat="37.93755942955613" lon="23.777523580938578">
        <ele>481</ele>
        <time>2021-04-10T09:54:18.000Z</time>
      </trkpt>
      <trkpt lat="37.93756320141256" lon="23.777523413300514">
        <ele>481</ele>
        <time>2021-04-10T09:54:19.000Z</time>
      </trkpt>
      <trkpt lat="37.937595304101706" lon="23.777499105781317">
        <ele>480.2</ele>
        <time>2021-04-10T09:54:31.000Z</time>
      </trkpt>
      <trkpt lat="37.93767426162958" lon="23.777528861537576">
        <ele>481.4</ele>
        <time>2021-04-10T09:54:39.000Z</time>
      </trkpt>
      <trkpt lat="37.9376835655421" lon="23.77753246575594">
        <ele>481.8</ele>
        <time>2021-04-10T09:54:40.000Z</time>
      </trkpt>
      <trkpt lat="37.9377113096416" lon="23.77755098976195">
        <ele>482.6</ele>
        <time>2021-04-10T09:54:44.000Z</time>
      </trkpt>
      <trkpt lat="37.93771072290838" lon="23.77757010050118">
        <ele>482.6</ele>
        <time>2021-04-10T09:54:46.000Z</time>
      </trkpt>
      <trkpt lat="37.93771214783192" lon="23.777575297281146">
        <ele>482.6</ele>
        <time>2021-04-10T09:54:47.000Z</time>
      </trkpt>
      <trkpt lat="37.93772597797215" lon="23.777609998360276">
        <ele>482.8</ele>
        <time>2021-04-10T09:54:51.000Z</time>
      </trkpt>
      <trkpt lat="37.9377406463027" lon="23.77764386124909">
        <ele>483.8</ele>
        <time>2021-04-10T09:54:54.000Z</time>
      </trkpt>
      <trkpt lat="37.937740394845605" lon="23.777652494609356">
        <ele>484</ele>
        <time>2021-04-10T09:54:55.000Z</time>
      </trkpt>
      <trkpt lat="37.937736455351114" lon="23.77765752375126">
        <ele>484.4</ele>
        <time>2021-04-10T09:54:56.000Z</time>
      </trkpt>
      <trkpt lat="37.93772270902991" lon="23.777674874290824">
        <ele>484.8</ele>
        <time>2021-04-10T09:54:58.000Z</time>
      </trkpt>
      <trkpt lat="37.937716925516725" lon="23.777684681117535">
        <ele>485</ele>
        <time>2021-04-10T09:54:59.000Z</time>
      </trkpt>
      <trkpt lat="37.937709549441934" lon="23.77769767306745">
        <ele>485.6</ele>
        <time>2021-04-10T09:55:01.000Z</time>
      </trkpt>
      <trkpt lat="37.9377025924623" lon="23.777700355276465">
        <ele>485.8</ele>
        <time>2021-04-10T09:55:03.000Z</time>
      </trkpt>
      <trkpt lat="37.93769613839686" lon="23.777702283114195">
        <ele>486.2</ele>
        <time>2021-04-10T09:55:05.000Z</time>
      </trkpt>
      <trkpt lat="37.93771332129836" lon="23.777704881504178">
        <ele>487</ele>
        <time>2021-04-10T09:55:11.000Z</time>
      </trkpt>
      <trkpt lat="37.937718350440264" lon="23.777703624218702">
        <ele>487.2</ele>
        <time>2021-04-10T09:55:15.000Z</time>
      </trkpt>
      <trkpt lat="37.937717428430915" lon="23.777702702209353">
        <ele>487.2</ele>
        <time>2021-04-10T09:55:19.000Z</time>
      </trkpt>
      <trkpt lat="37.937716003507376" lon="23.77770538441837">
        <ele>487.2</ele>
        <time>2021-04-10T09:55:23.000Z</time>
      </trkpt>
      <trkpt lat="37.93769714422524" lon="23.777729021385312">
        <ele>487.2</ele>
        <time>2021-04-10T09:55:27.000Z</time>
      </trkpt>
      <trkpt lat="37.93769270181656" lon="23.77773421816528">
        <ele>487.2</ele>
        <time>2021-04-10T09:55:28.000Z</time>
      </trkpt>
      <trkpt lat="37.93766428716481" lon="23.7777503952384">
        <ele>487.6</ele>
        <time>2021-04-10T09:55:32.000Z</time>
      </trkpt>
      <trkpt lat="37.93764475733042" lon="23.777754921466112">
        <ele>488</ele>
        <time>2021-04-10T09:55:35.000Z</time>
      </trkpt>
      <trkpt lat="37.937641153112054" lon="23.777756681665778">
        <ele>488.2</ele>
        <time>2021-04-10T09:55:36.000Z</time>
      </trkpt>
      <trkpt lat="37.93763838708401" lon="23.777756514027715">
        <ele>488.4</ele>
        <time>2021-04-10T09:55:37.000Z</time>
      </trkpt>
      <trkpt lat="37.93762816116214" lon="23.77775391563773">
        <ele>488.8</ele>
        <time>2021-04-10T09:55:43.000Z</time>
      </trkpt>
      <trkpt lat="37.93761449865997" lon="23.777744863182306">
        <ele>489.2</ele>
        <time>2021-04-10T09:55:46.000Z</time>
      </trkpt>
      <trkpt lat="37.937635872513056" lon="23.777735391631722">
        <ele>490</ele>
        <time>2021-04-10T09:55:50.000Z</time>
      </trkpt>
      <trkpt lat="37.93764056637883" lon="23.777744444087148">
        <ele>490.4</ele>
        <time>2021-04-10T09:55:52.000Z</time>
      </trkpt>
      <trkpt lat="37.93765204958618" lon="23.777746120467782">
        <ele>490.4</ele>
        <time>2021-04-10T09:55:55.000Z</time>
      </trkpt>
      <trkpt lat="37.93765070848167" lon="23.777744276449084">
        <ele>490.6</ele>
        <time>2021-04-10T09:55:56.000Z</time>
      </trkpt>
      <trkpt lat="37.93764978647232" lon="23.77774109132588">
        <ele>490.6</ele>
        <time>2021-04-10T09:55:57.000Z</time>
      </trkpt>
      <trkpt lat="37.93764450587332" lon="23.77775969915092">
        <ele>491.2</ele>
        <time>2021-04-10T09:56:04.000Z</time>
      </trkpt>
      <trkpt lat="37.93764526024461" lon="23.7777659855783">
        <ele>491.2</ele>
        <time>2021-04-10T09:56:05.000Z</time>
      </trkpt>
      <trkpt lat="37.93764936737716" lon="23.7777694221586">
        <ele>491.4</ele>
        <time>2021-04-10T09:56:06.000Z</time>
      </trkpt>
      <trkpt lat="37.93767903931439" lon="23.77779297530651">
        <ele>492.4</ele>
        <time>2021-04-10T09:56:13.000Z</time>
      </trkpt>
      <trkpt lat="37.93768934905529" lon="23.77781393006444">
        <ele>493.4</ele>
        <time>2021-04-10T09:56:18.000Z</time>
      </trkpt>
      <trkpt lat="37.93768105097115" lon="23.777812672778964">
        <ele>493.6</ele>
        <time>2021-04-10T09:56:20.000Z</time>
      </trkpt>
      <trkpt lat="37.937673926353455" lon="23.777804458513856">
        <ele>493.6</ele>
        <time>2021-04-10T09:56:22.000Z</time>
      </trkpt>
      <trkpt lat="37.93771457858384" lon="23.777813091874123">
        <ele>494</ele>
        <time>2021-04-10T09:56:28.000Z</time>
      </trkpt>
      <trkpt lat="37.93774785473943" lon="23.777826502919197">
        <ele>494.8</ele>
        <time>2021-04-10T09:56:31.000Z</time>
      </trkpt>
      <trkpt lat="37.93776453472674" lon="23.777837567031384">
        <ele>495.6</ele>
        <time>2021-04-10T09:56:33.000Z</time>
      </trkpt>
      <trkpt lat="37.93777861632407" lon="23.777844943106174">
        <ele>495.8</ele>
        <time>2021-04-10T09:56:35.000Z</time>
      </trkpt>
      <trkpt lat="37.93779722414911" lon="23.777835806831717">
        <ele>496</ele>
        <time>2021-04-10T09:56:37.000Z</time>
      </trkpt>
      <trkpt lat="37.93780367821455" lon="23.777838069945574">
        <ele>496.2</ele>
        <time>2021-04-10T09:56:38.000Z</time>
      </trkpt>
      <trkpt lat="37.93781474232674" lon="23.777847290039062">
        <ele>496.4</ele>
        <time>2021-04-10T09:56:40.000Z</time>
      </trkpt>
      <trkpt lat="37.93782169930637" lon="23.77785064280033">
        <ele>496.8</ele>
        <time>2021-04-10T09:56:42.000Z</time>
      </trkpt>
      <trkpt lat="37.93781683780253" lon="23.7778505589813">
        <ele>497</ele>
        <time>2021-04-10T09:56:43.000Z</time>
      </trkpt>
      <trkpt lat="37.937774090096354" lon="23.777874782681465">
        <ele>497.8</ele>
        <time>2021-04-10T09:56:47.000Z</time>
      </trkpt>
      <trkpt lat="37.93774441815913" lon="23.777887355536222">
        <ele>498</ele>
        <time>2021-04-10T09:56:50.000Z</time>
      </trkpt>
      <trkpt lat="37.937726648524404" lon="23.777881488204002">
        <ele>498.2</ele>
        <time>2021-04-10T09:56:52.000Z</time>
      </trkpt>
      <trkpt lat="37.937699910253286" lon="23.777880733832717">
        <ele>498.2</ele>
        <time>2021-04-10T09:56:54.000Z</time>
      </trkpt>
      <trkpt lat="37.9376922827214" lon="23.777879728004336">
        <ele>498.4</ele>
        <time>2021-04-10T09:56:55.000Z</time>
      </trkpt>
      <trkpt lat="37.9376716632396" lon="23.777886936441064">
        <ele>498.8</ele>
        <time>2021-04-10T09:56:59.000Z</time>
      </trkpt>
      <trkpt lat="37.93764593079686" lon="23.77790043130517">
        <ele>499</ele>
        <time>2021-04-10T09:57:02.000Z</time>
      </trkpt>
      <trkpt lat="37.937639812007546" lon="23.77790722064674">
        <ele>499</ele>
        <time>2021-04-10T09:57:04.000Z</time>
      </trkpt>
      <trkpt lat="37.93760854750872" lon="23.77790185622871">
        <ele>498.8</ele>
        <time>2021-04-10T09:57:08.000Z</time>
      </trkpt>
      <trkpt lat="37.93760376982391" lon="23.777902107685804">
        <ele>498.8</ele>
        <time>2021-04-10T09:57:09.000Z</time>
      </trkpt>
      <trkpt lat="37.93760024942458" lon="23.777902778238058">
        <ele>499</ele>
        <time>2021-04-10T09:57:10.000Z</time>
      </trkpt>
      <trkpt lat="37.93760326690972" lon="23.77789121121168">
        <ele>498.8</ele>
        <time>2021-04-10T09:57:12.000Z</time>
      </trkpt>
      <trkpt lat="37.9376164264977" lon="23.77788324840367">
        <ele>499</ele>
        <time>2021-04-10T09:57:18.000Z</time>
      </trkpt>
      <trkpt lat="37.9376180190593" lon="23.777872771024704">
        <ele>499</ele>
        <time>2021-04-10T09:57:27.000Z</time>
      </trkpt>
      <trkpt lat="37.93765129521489" lon="23.777892971411347">
        <ele>498.6</ele>
        <time>2021-04-10T09:57:35.000Z</time>
      </trkpt>
      <trkpt lat="37.93762975372374" lon="23.77793077379465">
        <ele>499</ele>
        <time>2021-04-10T09:57:42.000Z</time>
      </trkpt>
      <trkpt lat="37.93762137182057" lon="23.777926918119192">
        <ele>499</ele>
        <time>2021-04-10T09:57:43.000Z</time>
      </trkpt>
      <trkpt lat="37.93761860579252" lon="23.777866819873452">
        <ele>499.2</ele>
        <time>2021-04-10T09:57:48.000Z</time>
      </trkpt>
      <trkpt lat="37.93764601461589" lon="23.777865059673786">
        <ele>498.8</ele>
        <time>2021-04-10T09:57:53.000Z</time>
      </trkpt>
      <trkpt lat="37.937669567763805" lon="23.777870507910848">
        <ele>499</ele>
        <time>2021-04-10T09:58:07.000Z</time>
      </trkpt>
      <trkpt lat="37.9376613534987" lon="23.777862126007676">
        <ele>498.8</ele>
        <time>2021-04-10T09:58:10.000Z</time>
      </trkpt>
      <trkpt lat="37.93762925080955" lon="23.777850307524204">
        <ele>499.2</ele>
        <time>2021-04-10T09:58:16.000Z</time>
      </trkpt>
      <trkpt lat="37.93762682005763" lon="23.77786078490317">
        <ele>499.2</ele>
        <time>2021-04-10T09:58:22.000Z</time>
      </trkpt>
      <trkpt lat="37.937616258859634" lon="23.777866987511516">
        <ele>498.8</ele>
        <time>2021-04-10T09:58:25.000Z</time>
      </trkpt>
      <trkpt lat="37.937630005180836" lon="23.777840584516525">
        <ele>499</ele>
        <time>2021-04-10T09:58:30.000Z</time>
      </trkpt>
      <trkpt lat="37.93764081783593" lon="23.7778695859015">
        <ele>499.4</ele>
        <time>2021-04-10T09:58:41.000Z</time>
      </trkpt>
      <trkpt lat="37.93762866407633" lon="23.777878303080797">
        <ele>499.2</ele>
        <time>2021-04-10T09:58:44.000Z</time>
      </trkpt>
      <trkpt lat="37.937627071514726" lon="23.777894731611013">
        <ele>499.2</ele>
        <time>2021-04-10T09:58:46.000Z</time>
      </trkpt>
      <trkpt lat="37.93761592358351" lon="23.777886936441064">
        <ele>499.2</ele>
        <time>2021-04-10T09:58:54.000Z</time>
      </trkpt>
      <trkpt lat="37.93761692941189" lon="23.777861623093486">
        <ele>499.6</ele>
        <time>2021-04-10T09:58:58.000Z</time>
      </trkpt>
      <trkpt lat="37.93766160495579" lon="23.77784762531519">
        <ele>499.4</ele>
        <time>2021-04-10T09:59:02.000Z</time>
      </trkpt>
      <trkpt lat="37.93766730464995" lon="23.777843015268445">
        <ele>499.2</ele>
        <time>2021-04-10T09:59:04.000Z</time>
      </trkpt>
      <trkpt lat="37.937653893604875" lon="23.777850307524204">
        <ele>499.2</ele>
        <time>2021-04-10T09:59:07.000Z</time>
      </trkpt>
      <trkpt lat="37.93764634989202" lon="23.777893306687474">
        <ele>499.6</ele>
        <time>2021-04-10T09:59:13.000Z</time>
      </trkpt>
      <trkpt lat="37.937651965767145" lon="23.777946531772614">
        <ele>499.2</ele>
        <time>2021-04-10T09:59:18.000Z</time>
      </trkpt>
      <trkpt lat="37.93767476454377" lon="23.77799858339131">
        <ele>499.8</ele>
        <time>2021-04-10T09:59:25.000Z</time>
      </trkpt>
      <trkpt lat="37.937680296599865" lon="23.778001433238387">
        <ele>499.8</ele>
        <time>2021-04-10T09:59:29.000Z</time>
      </trkpt>
      <trkpt lat="37.937660766765475" lon="23.777967989444733">
        <ele>499.6</ele>
        <time>2021-04-10T09:59:34.000Z</time>
      </trkpt>
      <trkpt lat="37.93764492496848" lon="23.777925241738558">
        <ele>499.8</ele>
        <time>2021-04-10T09:59:37.000Z</time>
      </trkpt>
      <trkpt lat="37.93761315755546" lon="23.777883416041732">
        <ele>499.6</ele>
        <time>2021-04-10T09:59:42.000Z</time>
      </trkpt>
      <trkpt lat="37.937604021281004" lon="23.777881739661098">
        <ele>499.6</ele>
        <time>2021-04-10T09:59:43.000Z</time>
      </trkpt>
      <trkpt lat="37.937582144513726" lon="23.77787788398564">
        <ele>499.4</ele>
        <time>2021-04-10T09:59:45.000Z</time>
      </trkpt>
      <trkpt lat="37.93757267296314" lon="23.777867574244738">
        <ele>499.4</ele>
        <time>2021-04-10T09:59:47.000Z</time>
      </trkpt>
      <trkpt lat="37.937572253867984" lon="23.777860952541232">
        <ele>499.4</ele>
        <time>2021-04-10T09:59:48.000Z</time>
      </trkpt>
      <trkpt lat="37.937572253867984" lon="23.777858773246408">
        <ele>499.4</ele>
        <time>2021-04-10T09:59:49.000Z</time>
      </trkpt>
      <trkpt lat="37.93757367879152" lon="23.77786137163639">
        <ele>499.2</ele>
        <time>2021-04-10T09:59:54.000Z</time>
      </trkpt>
      <trkpt lat="37.93759647756815" lon="23.77789464779198">
        <ele>499.4</ele>
        <time>2021-04-10T10:00:00.000Z</time>
      </trkpt>
      <trkpt lat="37.937601171433926" lon="23.777879141271114">
        <ele>499.4</ele>
        <time>2021-04-10T10:00:02.000Z</time>
      </trkpt>
      <trkpt lat="37.93759496882558" lon="23.77787201665342">
        <ele>499.4</ele>
        <time>2021-04-10T10:00:06.000Z</time>
      </trkpt>
      <trkpt lat="37.93758264742792" lon="23.777855169028044">
        <ele>499.2</ele>
        <time>2021-04-10T10:00:11.000Z</time>
      </trkpt>
      <trkpt lat="37.93758264742792" lon="23.77787168137729">
        <ele>499.2</ele>
        <time>2021-04-10T10:00:13.000Z</time>
      </trkpt>
      <trkpt lat="37.93759563937783" lon="23.777899760752916">
        <ele>499.2</ele>
        <time>2021-04-10T10:00:17.000Z</time>
      </trkpt>
      <trkpt lat="37.93759169988334" lon="23.77789464779198">
        <ele>499</ele>
        <time>2021-04-10T10:00:20.000Z</time>
      </trkpt>
      <trkpt lat="37.937603099271655" lon="23.777886098250747">
        <ele>499</ele>
        <time>2021-04-10T10:00:22.000Z</time>
      </trkpt>
      <trkpt lat="37.937609385699034" lon="23.7778970785439">
        <ele>499</ele>
        <time>2021-04-10T10:00:26.000Z</time>
      </trkpt>
      <trkpt lat="37.9375902749598" lon="23.77788584679365">
        <ele>498.8</ele>
        <time>2021-04-10T10:00:36.000Z</time>
      </trkpt>
      <trkpt lat="37.93759513646364" lon="23.777882745489478">
        <ele>498.8</ele>
        <time>2021-04-10T10:00:38.000Z</time>
      </trkpt>
      <trkpt lat="37.93760200962424" lon="23.777887523174286">
        <ele>498.8</ele>
        <time>2021-04-10T10:00:39.000Z</time>
      </trkpt>
      <trkpt lat="37.93760687112808" lon="23.777889283373952">
        <ele>498.8</ele>
        <time>2021-04-10T10:00:40.000Z</time>
      </trkpt>
      <trkpt lat="37.93758264742792" lon="23.777857767418027">
        <ele>498.8</ele>
        <time>2021-04-10T10:00:54.000Z</time>
      </trkpt>
      <trkpt lat="37.93759882450104" lon="23.777881655842066">
        <ele>498.8</ele>
        <time>2021-04-10T10:01:03.000Z</time>
      </trkpt>
      <trkpt lat="37.9376058652997" lon="23.777880147099495">
        <ele>499</ele>
        <time>2021-04-10T10:01:05.000Z</time>
      </trkpt>
      <trkpt lat="37.937622629106045" lon="23.77788425423205">
        <ele>499.4</ele>
        <time>2021-04-10T10:01:10.000Z</time>
      </trkpt>
      <trkpt lat="37.937632938846946" lon="23.777892468497157">
        <ele>499.4</ele>
        <time>2021-04-10T10:01:12.000Z</time>
      </trkpt>
      <trkpt lat="37.937643667683005" lon="23.777885427698493">
        <ele>500</ele>
        <time>2021-04-10T10:01:18.000Z</time>
      </trkpt>
      <trkpt lat="37.937680799514055" lon="23.777936222031713">
        <ele>499.2</ele>
        <time>2021-04-10T10:01:35.000Z</time>
      </trkpt>
      <trkpt lat="37.937669064849615" lon="23.777955332770944">
        <ele>499.4</ele>
        <time>2021-04-10T10:01:42.000Z</time>
      </trkpt>
      <trkpt lat="37.93766202405095" lon="23.777942173182964">
        <ele>499.4</ele>
        <time>2021-04-10T10:01:49.000Z</time>
      </trkpt>
      <trkpt lat="37.93766403570771" lon="23.777950052171946">
        <ele>499.4</ele>
        <time>2021-04-10T10:01:51.000Z</time>
      </trkpt>
      <trkpt lat="37.93768339790404" lon="23.777949884533882">
        <ele>499.8</ele>
        <time>2021-04-10T10:01:54.000Z</time>
      </trkpt>
      <trkpt lat="37.937693037092686" lon="23.777950471267104">
        <ele>499.8</ele>
        <time>2021-04-10T10:01:56.000Z</time>
      </trkpt>
      <trkpt lat="37.9376766923815" lon="23.777947956696153">
        <ele>499.6</ele>
        <time>2021-04-10T10:02:00.000Z</time>
      </trkpt>
      <trkpt lat="37.93768406845629" lon="23.777911076322198">
        <ele>499.4</ele>
        <time>2021-04-10T10:02:08.000Z</time>
      </trkpt>
      <trkpt lat="37.93769479729235" lon="23.777905460447073">
        <ele>499.4</ele>
        <time>2021-04-10T10:02:09.000Z</time>
      </trkpt>
      <trkpt lat="37.9377062804997" lon="23.77790135331452">
        <ele>499.4</ele>
        <time>2021-04-10T10:02:10.000Z</time>
      </trkpt>
      <trkpt lat="37.937725307419896" lon="23.7778970785439">
        <ele>499.6</ele>
        <time>2021-04-10T10:02:12.000Z</time>
      </trkpt>
      <trkpt lat="37.93776269070804" lon="23.777880733832717">
        <ele>499.4</ele>
        <time>2021-04-10T10:02:15.000Z</time>
      </trkpt>
      <trkpt lat="37.937817173078656" lon="23.777844104915857">
        <ele>499.4</ele>
        <time>2021-04-10T10:02:20.000Z</time>
      </trkpt>
      <trkpt lat="37.937827901914716" lon="23.777836561203003">
        <ele>499.2</ele>
        <time>2021-04-10T10:02:21.000Z</time>
      </trkpt>
      <trkpt lat="37.9378754273057" lon="23.77781049348414">
        <ele>499.2</ele>
        <time>2021-04-10T10:02:25.000Z</time>
      </trkpt>
      <trkpt lat="37.937888419255614" lon="23.77780420705676">
        <ele>499.2</ele>
        <time>2021-04-10T10:02:26.000Z</time>
      </trkpt>
      <trkpt lat="37.937903590500355" lon="23.777799010276794">
        <ele>499.2</ele>
        <time>2021-04-10T10:02:28.000Z</time>
      </trkpt>
      <trkpt lat="37.93790887109935" lon="23.777806470170617">
        <ele>499</ele>
        <time>2021-04-10T10:02:32.000Z</time>
      </trkpt>
      <trkpt lat="37.93790987692773" lon="23.77782080322504">
        <ele>498.8</ele>
        <time>2021-04-10T10:02:33.000Z</time>
      </trkpt>
      <trkpt lat="37.93794348835945" lon="23.777902778238058">
        <ele>498.8</ele>
        <time>2021-04-10T10:02:39.000Z</time>
      </trkpt>
      <trkpt lat="37.937943655997515" lon="23.77791367471218">
        <ele>499</ele>
        <time>2021-04-10T10:02:40.000Z</time>
      </trkpt>
      <trkpt lat="37.937943153083324" lon="23.77792188897729">
        <ele>499</ele>
        <time>2021-04-10T10:02:41.000Z</time>
      </trkpt>
      <trkpt lat="37.93794390745461" lon="23.77792784012854">
        <ele>499.2</ele>
        <time>2021-04-10T10:02:42.000Z</time>
      </trkpt>
      <trkpt lat="37.93794843368232" lon="23.777941586449742">
        <ele>500</ele>
        <time>2021-04-10T10:02:44.000Z</time>
      </trkpt>
      <trkpt lat="37.93794533237815" lon="23.777971174567938">
        <ele>501</ele>
        <time>2021-04-10T10:02:47.000Z</time>
      </trkpt>
      <trkpt lat="37.93794684112072" lon="23.777977460995317">
        <ele>501.4</ele>
        <time>2021-04-10T10:02:48.000Z</time>
      </trkpt>
      <trkpt lat="37.937956815585494" lon="23.777992380782962">
        <ele>502.2</ele>
        <time>2021-04-10T10:02:50.000Z</time>
      </trkpt>
      <trkpt lat="37.937959330156446" lon="23.77800344489515">
        <ele>502.6</ele>
        <time>2021-04-10T10:02:51.000Z</time>
      </trkpt>
      <trkpt lat="37.93796201236546" lon="23.77800889313221">
        <ele>503</ele>
        <time>2021-04-10T10:02:52.000Z</time>
      </trkpt>
      <trkpt lat="37.93795798905194" lon="23.77802113071084">
        <ele>503.4</ele>
        <time>2021-04-10T10:02:54.000Z</time>
      </trkpt>
      <trkpt lat="37.93795530684292" lon="23.7780265789479">
        <ele>503.8</ele>
        <time>2021-04-10T10:02:55.000Z</time>
      </trkpt>
      <trkpt lat="37.93795606121421" lon="23.778035044670105">
        <ele>503.8</ele>
        <time>2021-04-10T10:02:56.000Z</time>
      </trkpt>
      <trkpt lat="37.93795798905194" lon="23.778040492907166">
        <ele>504.2</ele>
        <time>2021-04-10T10:02:57.000Z</time>
      </trkpt>
      <trkpt lat="37.93796645477414" lon="23.778044683858752">
        <ele>504.6</ele>
        <time>2021-04-10T10:02:58.000Z</time>
      </trkpt>
      <trkpt lat="37.93797676451504" lon="23.778051305562258">
        <ele>505.2</ele>
        <time>2021-04-10T10:02:59.000Z</time>
      </trkpt>
      <trkpt lat="37.937985146418214" lon="23.77807284705341">
        <ele>505.8</ele>
        <time>2021-04-10T10:03:02.000Z</time>
      </trkpt>
      <trkpt lat="37.93798891827464" lon="23.778091790154576">
        <ele>506</ele>
        <time>2021-04-10T10:03:04.000Z</time>
      </trkpt>
      <trkpt lat="37.93799227103591" lon="23.77809489145875">
        <ele>506.2</ele>
        <time>2021-04-10T10:03:05.000Z</time>
      </trkpt>
      <trkpt lat="37.93799000792205" lon="23.778109727427363">
        <ele>506.4</ele>
        <time>2021-04-10T10:03:08.000Z</time>
      </trkpt>
      <trkpt lat="37.93798724189401" lon="23.77812473103404">
        <ele>507.6</ele>
        <time>2021-04-10T10:03:12.000Z</time>
      </trkpt>
      <trkpt lat="37.93798045255244" lon="23.778125066310167">
        <ele>508.2</ele>
        <time>2021-04-10T10:03:15.000Z</time>
      </trkpt>
      <trkpt lat="37.937943739816546" lon="23.778127832338214">
        <ele>508.6</ele>
        <time>2021-04-10T10:03:18.000Z</time>
      </trkpt>
      <trkpt lat="37.937896298244596" lon="23.77811794169247">
        <ele>509.2</ele>
        <time>2021-04-10T10:03:21.000Z</time>
      </trkpt>
      <trkpt lat="37.937871320173144" lon="23.778121378272772">
        <ele>509.8</ele>
        <time>2021-04-10T10:03:24.000Z</time>
      </trkpt>
      <trkpt lat="37.93786033987999" lon="23.778140237554908">
        <ele>510.2</ele>
        <time>2021-04-10T10:03:26.000Z</time>
      </trkpt>
      <trkpt lat="37.93786126188934" lon="23.77814124338329">
        <ele>510.8</ele>
        <time>2021-04-10T10:03:28.000Z</time>
      </trkpt>
      <trkpt lat="37.937858579680324" lon="23.778144512325525">
        <ele>511</ele>
        <time>2021-04-10T10:03:29.000Z</time>
      </trkpt>
      <trkpt lat="37.93785899877548" lon="23.778146356344223">
        <ele>511.2</ele>
        <time>2021-04-10T10:03:30.000Z</time>
      </trkpt>
      <trkpt lat="37.93785740621388" lon="23.77815004438162">
        <ele>511.4</ele>
        <time>2021-04-10T10:03:31.000Z</time>
      </trkpt>
      <trkpt lat="37.93784751556814" lon="23.77817301079631">
        <ele>512</ele>
        <time>2021-04-10T10:03:34.000Z</time>
      </trkpt>
      <trkpt lat="37.93784114532173" lon="23.778179716318846">
        <ele>512.4</ele>
        <time>2021-04-10T10:03:36.000Z</time>
      </trkpt>
      <trkpt lat="37.937844498082995" lon="23.77817401662469">
        <ele>513</ele>
        <time>2021-04-10T10:03:39.000Z</time>
      </trkpt>
      <trkpt lat="37.93785070069134" lon="23.77815842628479">
        <ele>513.8</ele>
        <time>2021-04-10T10:03:43.000Z</time>
      </trkpt>
      <trkpt lat="37.937860591337085" lon="23.778143171221018">
        <ele>514</ele>
        <time>2021-04-10T10:03:44.000Z</time>
      </trkpt>
      <trkpt lat="37.937853718176484" lon="23.778151888400316">
        <ele>514</ele>
        <time>2021-04-10T10:03:46.000Z</time>
      </trkpt>
      <trkpt lat="37.93785195797682" lon="23.778158091008663">
        <ele>514.2</ele>
        <time>2021-04-10T10:03:47.000Z</time>
      </trkpt>
      <trkpt lat="37.93784919194877" lon="23.778163539245725">
        <ele>514.2</ele>
        <time>2021-04-10T10:03:50.000Z</time>
      </trkpt>
      <trkpt lat="37.937851874157786" lon="23.778168903663754">
        <ele>514</ele>
        <time>2021-04-10T10:03:55.000Z</time>
      </trkpt>
      <trkpt lat="37.937850365415215" lon="23.778168065473437">
        <ele>514</ele>
        <time>2021-04-10T10:03:56.000Z</time>
      </trkpt>
      <trkpt lat="37.93783653527498" lon="23.77817803993821">
        <ele>513.8</ele>
        <time>2021-04-10T10:03:59.000Z</time>
      </trkpt>
      <trkpt lat="37.93782211840153" lon="23.778187930583954">
        <ele>514.2</ele>
        <time>2021-04-10T10:04:03.000Z</time>
      </trkpt>
      <trkpt lat="37.93780610896647" lon="23.778216177597642">
        <ele>515.2</ele>
        <time>2021-04-10T10:04:06.000Z</time>
      </trkpt>
      <trkpt lat="37.937797140330076" lon="23.77821508795023">
        <ele>516</ele>
        <time>2021-04-10T10:04:10.000Z</time>
      </trkpt>
      <trkpt lat="37.93779864907265" lon="23.778214249759912">
        <ele>516.2</ele>
        <time>2021-04-10T10:04:11.000Z</time>
      </trkpt>
      <trkpt lat="37.93779035098851" lon="23.778232941403985">
        <ele>517</ele>
        <time>2021-04-10T10:04:16.000Z</time>
      </trkpt>
      <trkpt lat="37.937781969085336" lon="23.7782321870327">
        <ele>517.2</ele>
        <time>2021-04-10T10:04:17.000Z</time>
      </trkpt>
      <trkpt lat="37.937770653516054" lon="23.778238389641047">
        <ele>518.4</ele>
        <time>2021-04-10T10:04:21.000Z</time>
      </trkpt>
      <trkpt lat="37.93777434155345" lon="23.77826244570315">
        <ele>518.8</ele>
        <time>2021-04-10T10:04:26.000Z</time>
      </trkpt>
      <trkpt lat="37.93777392245829" lon="23.77827032469213">
        <ele>518.8</ele>
        <time>2021-04-10T10:04:27.000Z</time>
      </trkpt>
      <trkpt lat="37.93776621110737" lon="23.778282729908824">
        <ele>519</ele>
        <time>2021-04-10T10:04:29.000Z</time>
      </trkpt>
      <trkpt lat="37.93775347061455" lon="23.778285076841712">
        <ele>519.8</ele>
        <time>2021-04-10T10:04:32.000Z</time>
      </trkpt>
      <trkpt lat="37.937755482271314" lon="23.778290105983615">
        <ele>520</ele>
        <time>2021-04-10T10:04:33.000Z</time>
      </trkpt>
      <trkpt lat="37.937758918851614" lon="23.778303181752563">
        <ele>521</ele>
        <time>2021-04-10T10:04:36.000Z</time>
      </trkpt>
      <trkpt lat="37.937757493928075" lon="23.77830695360899">
        <ele>521.2</ele>
        <time>2021-04-10T10:04:37.000Z</time>
      </trkpt>
      <trkpt lat="37.93774986639619" lon="23.77832698635757">
        <ele>521.8</ele>
        <time>2021-04-10T10:04:39.000Z</time>
      </trkpt>
      <trkpt lat="37.93774047866464" lon="23.778336374089122">
        <ele>522.4</ele>
        <time>2021-04-10T10:04:41.000Z</time>
      </trkpt>
      <trkpt lat="37.9377197753638" lon="23.77833193168044">
        <ele>523</ele>
        <time>2021-04-10T10:04:44.000Z</time>
      </trkpt>
      <trkpt lat="37.93771751224995" lon="23.77833134494722">
        <ele>523.2</ele>
        <time>2021-04-10T10:04:45.000Z</time>
      </trkpt>
      <trkpt lat="37.937714075669646" lon="23.778332769870758">
        <ele>523.4</ele>
        <time>2021-04-10T10:04:46.000Z</time>
      </trkpt>
      <trkpt lat="37.937673004344106" lon="23.77836763858795">
        <ele>524.6</ele>
        <time>2021-04-10T10:04:52.000Z</time>
      </trkpt>
      <trkpt lat="37.937682308256626" lon="23.778385911136866">
        <ele>526</ele>
        <time>2021-04-10T10:04:55.000Z</time>
      </trkpt>
      <trkpt lat="37.93767367489636" lon="23.778405860066414">
        <ele>526.6</ele>
        <time>2021-04-10T10:04:57.000Z</time>
      </trkpt>
      <trkpt lat="37.93766780756414" lon="23.77841197885573">
        <ele>527</ele>
        <time>2021-04-10T10:04:58.000Z</time>
      </trkpt>
      <trkpt lat="37.93765707872808" lon="23.778430251404643">
        <ele>528.2</ele>
        <time>2021-04-10T10:05:01.000Z</time>
      </trkpt>
      <trkpt lat="37.93765515089035" lon="23.778433185070753">
        <ele>528.4</ele>
        <time>2021-04-10T10:05:02.000Z</time>
      </trkpt>
      <trkpt lat="37.937662778422236" lon="23.778440728783607">
        <ele>529.2</ele>
        <time>2021-04-10T10:05:04.000Z</time>
      </trkpt>
      <trkpt lat="37.937664119526744" lon="23.77844274044037">
        <ele>529.4</ele>
        <time>2021-04-10T10:05:05.000Z</time>
      </trkpt>
      <trkpt lat="37.937661772593856" lon="23.77846964634955">
        <ele>530.2</ele>
        <time>2021-04-10T10:05:10.000Z</time>
      </trkpt>
      <trkpt lat="37.937654228881" lon="23.778478614985943">
        <ele>530.4</ele>
        <time>2021-04-10T10:05:12.000Z</time>
      </trkpt>
      <trkpt lat="37.93764199130237" lon="23.778483644127846">
        <ele>530.6</ele>
        <time>2021-04-10T10:05:16.000Z</time>
      </trkpt>
      <trkpt lat="37.93763813562691" lon="23.778508622199297">
        <ele>530.6</ele>
        <time>2021-04-10T10:05:23.000Z</time>
      </trkpt>
      <trkpt lat="37.93764140456915" lon="23.778478698804975">
        <ele>530.6</ele>
        <time>2021-04-10T10:05:26.000Z</time>
      </trkpt>
      <trkpt lat="37.937644589692354" lon="23.778467047959566">
        <ele>530.6</ele>
        <time>2021-04-10T10:05:29.000Z</time>
      </trkpt>
      <trkpt lat="37.93764526024461" lon="23.77848490141332">
        <ele>530.6</ele>
        <time>2021-04-10T10:05:36.000Z</time>
      </trkpt>
      <trkpt lat="37.9376457631588" lon="23.77848825417459">
        <ele>530.6</ele>
        <time>2021-04-10T10:05:38.000Z</time>
      </trkpt>
      <trkpt lat="37.93764987029135" lon="23.778487583622336">
        <ele>530.6</ele>
        <time>2021-04-10T10:05:39.000Z</time>
      </trkpt>
      <trkpt lat="37.93765121139586" lon="23.77848624251783">
        <ele>530.6</ele>
        <time>2021-04-10T10:05:40.000Z</time>
      </trkpt>
      <trkpt lat="37.9376507923007" lon="23.778484733775258">
        <ele>530.6</ele>
        <time>2021-04-10T10:05:41.000Z</time>
      </trkpt>
      <trkpt lat="37.937649535015225" lon="23.77848238684237">
        <ele>530.6</ele>
        <time>2021-04-10T10:05:42.000Z</time>
      </trkpt>
      <trkpt lat="37.93764769099653" lon="23.778478363528848">
        <ele>530.8</ele>
        <time>2021-04-10T10:05:43.000Z</time>
      </trkpt>
      <trkpt lat="37.937645595520735" lon="23.778475932776928">
        <ele>530.8</ele>
        <time>2021-04-10T10:05:44.000Z</time>
      </trkpt>
      <trkpt lat="37.93764484114945" lon="23.778474340215325">
        <ele>530.8</ele>
        <time>2021-04-10T10:05:45.000Z</time>
      </trkpt>
      <trkpt lat="37.93764718808234" lon="23.77847014926374">
        <ele>530.8</ele>
        <time>2021-04-10T10:05:46.000Z</time>
      </trkpt>
      <trkpt lat="37.93765012174845" lon="23.778465623036027">
        <ele>530.8</ele>
        <time>2021-04-10T10:05:47.000Z</time>
      </trkpt>
      <trkpt lat="37.937668561935425" lon="23.77846327610314">
        <ele>530.8</ele>
        <time>2021-04-10T10:05:51.000Z</time>
      </trkpt>
      <trkpt lat="37.93766898103058" lon="23.778466545045376">
        <ele>530.6</ele>
        <time>2021-04-10T10:05:52.000Z</time>
      </trkpt>
      <trkpt lat="37.9376716632396" lon="23.778486410155892">
        <ele>530.8</ele>
        <time>2021-04-10T10:05:54.000Z</time>
      </trkpt>
      <trkpt lat="37.937690522521734" lon="23.778543239459395">
        <ele>531.4</ele>
        <time>2021-04-10T10:05:59.000Z</time>
      </trkpt>
      <trkpt lat="37.937693037092686" lon="23.778559500351548">
        <ele>531.6</ele>
        <time>2021-04-10T10:06:00.000Z</time>
      </trkpt>
      <trkpt lat="37.93768624775112" lon="23.778585819527507">
        <ele>532.8</ele>
        <time>2021-04-10T10:06:05.000Z</time>
      </trkpt>
      <trkpt lat="37.93770343065262" lon="23.778600404039025">
        <ele>533.6</ele>
        <time>2021-04-10T10:06:07.000Z</time>
      </trkpt>
      <trkpt lat="37.93770695105195" lon="23.778612641617656">
        <ele>534</ele>
        <time>2021-04-10T10:06:09.000Z</time>
      </trkpt>
      <trkpt lat="37.93770636431873" lon="23.778622280806303">
        <ele>534.2</ele>
        <time>2021-04-10T10:06:10.000Z</time>
      </trkpt>
      <trkpt lat="37.937705190852284" lon="23.778637535870075">
        <ele>534.6</ele>
        <time>2021-04-10T10:06:11.000Z</time>
      </trkpt>
      <trkpt lat="37.93770192191005" lon="23.778626807034016">
        <ele>535.2</ele>
        <time>2021-04-10T10:06:13.000Z</time>
      </trkpt>
      <trkpt lat="37.937691528350115" lon="23.778633680194616">
        <ele>535.8</ele>
        <time>2021-04-10T10:06:16.000Z</time>
      </trkpt>
      <trkpt lat="37.93769169598818" lon="23.77864273265004">
        <ele>536.2</ele>
        <time>2021-04-10T10:06:19.000Z</time>
      </trkpt>
      <trkpt lat="37.93769127689302" lon="23.778666704893112">
        <ele>536.4</ele>
        <time>2021-04-10T10:06:22.000Z</time>
      </trkpt>
      <trkpt lat="37.9376904387027" lon="23.77870132215321">
        <ele>536.4</ele>
        <time>2021-04-10T10:06:24.000Z</time>
      </trkpt>
      <trkpt lat="37.937687169760466" lon="23.778718169778585">
        <ele>536.4</ele>
        <time>2021-04-10T10:06:25.000Z</time>
      </trkpt>
      <trkpt lat="37.937682727351785" lon="23.778749937191606">
        <ele>536.4</ele>
        <time>2021-04-10T10:06:27.000Z</time>
      </trkpt>
      <trkpt lat="37.93771374039352" lon="23.778809867799282">
        <ele>536.8</ele>
        <time>2021-04-10T10:06:31.000Z</time>
      </trkpt>
      <trkpt lat="37.93775975704193" lon="23.77886736765504">
        <ele>536.8</ele>
        <time>2021-04-10T10:06:36.000Z</time>
      </trkpt>
      <trkpt lat="37.93780761770904" lon="23.778914641588926">
        <ele>537.2</ele>
        <time>2021-04-10T10:06:40.000Z</time>
      </trkpt>
      <trkpt lat="37.93783779256046" lon="23.778927801176906">
        <ele>537.4</ele>
        <time>2021-04-10T10:06:43.000Z</time>
      </trkpt>
      <trkpt lat="37.93785287998617" lon="23.778944229707122">
        <ele>537.6</ele>
        <time>2021-04-10T10:06:45.000Z</time>
      </trkpt>
      <trkpt lat="37.937860088422894" lon="23.778955210000277">
        <ele>537.6</ele>
        <time>2021-04-10T10:06:46.000Z</time>
      </trkpt>
      <trkpt lat="37.937867464497685" lon="23.778962083160877">
        <ele>537.4</ele>
        <time>2021-04-10T10:06:47.000Z</time>
      </trkpt>
      <trkpt lat="37.93790618889034" lon="23.778989408165216">
        <ele>537.8</ele>
        <time>2021-04-10T10:06:50.000Z</time>
      </trkpt>
      <trkpt lat="37.93792345561087" lon="23.779018577188253">
        <ele>538</ele>
        <time>2021-04-10T10:06:52.000Z</time>
      </trkpt>
      <trkpt lat="37.9379721544683" lon="23.779046656563878">
        <ele>538.2</ele>
        <time>2021-04-10T10:06:56.000Z</time>
      </trkpt>
      <trkpt lat="37.937982715666294" lon="23.77905210480094">
        <ele>538.4</ele>
        <time>2021-04-10T10:06:57.000Z</time>
      </trkpt>
      <trkpt lat="37.93804122135043" lon="23.779156375676394">
        <ele>538.8</ele>
        <time>2021-04-10T10:07:05.000Z</time>
      </trkpt>
      <trkpt lat="37.93808028101921" lon="23.779239607974887">
        <ele>539.4</ele>
        <time>2021-04-10T10:07:12.000Z</time>
      </trkpt>
      <trkpt lat="37.93810727074742" lon="23.77926324494183">
        <ele>540</ele>
        <time>2021-04-10T10:07:14.000Z</time>
      </trkpt>
      <trkpt lat="37.93811917304993" lon="23.779291324317455">
        <ele>540.4</ele>
        <time>2021-04-10T10:07:16.000Z</time>
      </trkpt>
      <trkpt lat="37.93811984360218" lon="23.779301131144166">
        <ele>540.6</ele>
        <time>2021-04-10T10:07:17.000Z</time>
      </trkpt>
      <trkpt lat="37.938140630722046" lon="23.77931931987405">
        <ele>540.8</ele>
        <time>2021-04-10T10:07:20.000Z</time>
      </trkpt>
      <trkpt lat="37.938160076737404" lon="23.779354859143496">
        <ele>541.2</ele>
        <time>2021-04-10T10:07:23.000Z</time>
      </trkpt>
      <trkpt lat="37.9381465818733" lon="23.77936868928373">
        <ele>541.4</ele>
        <time>2021-04-10T10:07:26.000Z</time>
      </trkpt>
      <trkpt lat="37.93814264237881" lon="23.779364163056016">
        <ele>541.4</ele>
        <time>2021-04-10T10:07:27.000Z</time>
      </trkpt>
      <trkpt lat="37.938135769218206" lon="23.779359133914113">
        <ele>541.4</ele>
        <time>2021-04-10T10:07:29.000Z</time>
      </trkpt>
      <trkpt lat="37.93813291937113" lon="23.77935846336186">
        <ele>541.4</ele>
        <time>2021-04-10T10:07:30.000Z</time>
      </trkpt>
      <trkpt lat="37.938116658478975" lon="23.77936282195151">
        <ele>541.4</ele>
        <time>2021-04-10T10:07:36.000Z</time>
      </trkpt>
      <trkpt lat="37.93813199736178" lon="23.779353769496083">
        <ele>541</ele>
        <time>2021-04-10T10:07:45.000Z</time>
      </trkpt>
      <trkpt lat="37.93819100596011" lon="23.779414035379887">
        <ele>541.4</ele>
        <time>2021-04-10T10:07:51.000Z</time>
      </trkpt>
      <trkpt lat="37.93822822161019" lon="23.779439432546496">
        <ele>541.8</ele>
        <time>2021-04-10T10:07:55.000Z</time>
      </trkpt>
      <trkpt lat="37.9382396209985" lon="23.779452927410603">
        <ele>541.8</ele>
        <time>2021-04-10T10:07:56.000Z</time>
      </trkpt>
      <trkpt lat="37.938272980973125" lon="23.779510762542486">
        <ele>543</ele>
        <time>2021-04-10T10:08:00.000Z</time>
      </trkpt>
      <trkpt lat="37.93829343281686" lon="23.779539931565523">
        <ele>543.4</ele>
        <time>2021-04-10T10:08:03.000Z</time>
      </trkpt>
      <trkpt lat="37.93830793350935" lon="23.779577314853668">
        <ele>543.6</ele>
        <time>2021-04-10T10:08:06.000Z</time>
      </trkpt>
      <trkpt lat="37.938345819711685" lon="23.77970639616251">
        <ele>544</ele>
        <time>2021-04-10T10:08:14.000Z</time>
      </trkpt>
      <trkpt lat="37.93834120966494" lon="23.77975568175316">
        <ele>544.2</ele>
        <time>2021-04-10T10:08:17.000Z</time>
      </trkpt>
      <trkpt lat="37.938341461122036" lon="23.77981091849506">
        <ele>544.2</ele>
        <time>2021-04-10T10:08:20.000Z</time>
      </trkpt>
      <trkpt lat="37.93834422715008" lon="23.779833298176527">
        <ele>544.8</ele>
        <time>2021-04-10T10:08:24.000Z</time>
      </trkpt>
      <trkpt lat="37.938326206058264" lon="23.77984411083162">
        <ele>545</ele>
        <time>2021-04-10T10:08:26.000Z</time>
      </trkpt>
      <trkpt lat="37.938316063955426" lon="23.779838662594557">
        <ele>545</ele>
        <time>2021-04-10T10:08:27.000Z</time>
      </trkpt>
      <trkpt lat="37.93829930014908" lon="23.779838494956493">
        <ele>545.4</ele>
        <time>2021-04-10T10:08:29.000Z</time>
      </trkpt>
      <trkpt lat="37.938292007893324" lon="23.779854672029614">
        <ele>546.2</ele>
        <time>2021-04-10T10:08:31.000Z</time>
      </trkpt>
      <trkpt lat="37.938290080055594" lon="23.77990823239088">
        <ele>547.4</ele>
        <time>2021-04-10T10:08:36.000Z</time>
      </trkpt>
      <trkpt lat="37.9382882360369" lon="23.779918709769845">
        <ele>547.6</ele>
        <time>2021-04-10T10:08:37.000Z</time>
      </trkpt>
      <trkpt lat="37.93828831985593" lon="23.77992633730173">
        <ele>547.6</ele>
        <time>2021-04-10T10:08:38.000Z</time>
      </trkpt>
      <trkpt lat="37.938297875225544" lon="23.779926588758826">
        <ele>548.4</ele>
        <time>2021-04-10T10:08:41.000Z</time>
      </trkpt>
      <trkpt lat="37.93830349110067" lon="23.779929690063">
        <ele>548.8</ele>
        <time>2021-04-10T10:08:42.000Z</time>
      </trkpt>
      <trkpt lat="37.93829577974975" lon="23.779963050037622">
        <ele>549.4</ele>
        <time>2021-04-10T10:08:46.000Z</time>
      </trkpt>
      <trkpt lat="37.938292594626546" lon="23.779968665912747">
        <ele>549.6</ele>
        <time>2021-04-10T10:08:47.000Z</time>
      </trkpt>
      <trkpt lat="37.93827616609633" lon="23.779997499659657">
        <ele>550.2</ele>
        <time>2021-04-10T10:08:55.000Z</time>
      </trkpt>
      <trkpt lat="37.9382863920182" lon="23.780054412782192">
        <ele>550.6</ele>
        <time>2021-04-10T10:08:59.000Z</time>
      </trkpt>
      <trkpt lat="37.93829385191202" lon="23.7800919637084">
        <ele>551.8</ele>
        <time>2021-04-10T10:09:04.000Z</time>
      </trkpt>
      <trkpt lat="37.93828513473272" lon="23.780102357268333">
        <ele>552</ele>
        <time>2021-04-10T10:09:06.000Z</time>
      </trkpt>
      <trkpt lat="37.93824783526361" lon="23.780138483271003">
        <ele>552.6</ele>
        <time>2021-04-10T10:09:11.000Z</time>
      </trkpt>
      <trkpt lat="37.93823467567563" lon="23.78018374554813">
        <ele>552.8</ele>
        <time>2021-04-10T10:09:13.000Z</time>
      </trkpt>
      <trkpt lat="37.93820274062455" lon="23.780219787731767">
        <ele>553.6</ele>
        <time>2021-04-10T10:09:17.000Z</time>
      </trkpt>
      <trkpt lat="37.938180612400174" lon="23.780240071937442">
        <ele>554</ele>
        <time>2021-04-10T10:09:20.000Z</time>
      </trkpt>
      <trkpt lat="37.93818857520819" lon="23.78025809302926">
        <ele>554.4</ele>
        <time>2021-04-10T10:09:22.000Z</time>
      </trkpt>
      <trkpt lat="37.93819980695844" lon="23.780279383063316">
        <ele>554.6</ele>
        <time>2021-04-10T10:09:25.000Z</time>
      </trkpt>
      <trkpt lat="37.93820274062455" lon="23.780300421640277">
        <ele>555</ele>
        <time>2021-04-10T10:09:27.000Z</time>
      </trkpt>
      <trkpt lat="37.93820919468999" lon="23.780310647562146">
        <ele>555.4</ele>
        <time>2021-04-10T10:09:29.000Z</time>
      </trkpt>
      <trkpt lat="37.93823417276144" lon="23.780339816585183">
        <ele>555.8</ele>
        <time>2021-04-10T10:09:32.000Z</time>
      </trkpt>
      <trkpt lat="37.9382414650172" lon="23.7803509645164">
        <ele>556</ele>
        <time>2021-04-10T10:09:33.000Z</time>
      </trkpt>
      <trkpt lat="37.9382568039" lon="23.780373260378838">
        <ele>556.8</ele>
        <time>2021-04-10T10:09:36.000Z</time>
      </trkpt>
      <trkpt lat="37.938265185803175" lon="23.780394634231925">
        <ele>557.2</ele>
        <time>2021-04-10T10:09:38.000Z</time>
      </trkpt>
      <trkpt lat="37.938274908810854" lon="23.780438052490354">
        <ele>557.8</ele>
        <time>2021-04-10T10:09:42.000Z</time>
      </trkpt>
      <trkpt lat="37.938268622383475" lon="23.78046470694244">
        <ele>558.2</ele>
        <time>2021-04-10T10:09:45.000Z</time>
      </trkpt>
      <trkpt lat="37.93823576532304" lon="23.780494211241603">
        <ele>558.8</ele>
        <time>2021-04-10T10:09:49.000Z</time>
      </trkpt>
      <trkpt lat="37.93823568150401" lon="23.780497228726745">
        <ele>559.4</ele>
        <time>2021-04-10T10:09:51.000Z</time>
      </trkpt>
      <trkpt lat="37.938240207731724" lon="23.78053360618651">
        <ele>560.2</ele>
        <time>2021-04-10T10:09:55.000Z</time>
      </trkpt>
      <trkpt lat="37.938241716474295" lon="23.780553471297026">
        <ele>560.6</ele>
        <time>2021-04-10T10:09:57.000Z</time>
      </trkpt>
      <trkpt lat="37.93824590742588" lon="23.78057233057916">
        <ele>561</ele>
        <time>2021-04-10T10:09:59.000Z</time>
      </trkpt>
      <trkpt lat="37.938249595463276" lon="23.780611138790846">
        <ele>561.2</ele>
        <time>2021-04-10T10:10:02.000Z</time>
      </trkpt>
      <trkpt lat="37.938250098377466" lon="23.780624717473984">
        <ele>561.4</ele>
        <time>2021-04-10T10:10:03.000Z</time>
      </trkpt>
      <trkpt lat="37.93824942782521" lon="23.78063578158617">
        <ele>561.6</ele>
        <time>2021-04-10T10:10:04.000Z</time>
      </trkpt>
      <trkpt lat="37.93825160712004" lon="23.78066159784794">
        <ele>561.8</ele>
        <time>2021-04-10T10:10:07.000Z</time>
      </trkpt>
      <trkpt lat="37.93825479224324" lon="23.780677523463964">
        <ele>562</ele>
        <time>2021-04-10T10:10:08.000Z</time>
      </trkpt>
      <trkpt lat="37.93825663626194" lon="23.78068716265261">
        <ele>562.2</ele>
        <time>2021-04-10T10:10:09.000Z</time>
      </trkpt>
      <trkpt lat="37.938261833041906" lon="23.780721863731742">
        <ele>562.8</ele>
        <time>2021-04-10T10:10:13.000Z</time>
      </trkpt>
      <trkpt lat="37.93823970481753" lon="23.78075304441154">
        <ele>563.2</ele>
        <time>2021-04-10T10:10:16.000Z</time>
      </trkpt>
      <trkpt lat="37.938231909647584" lon="23.78079453483224">
        <ele>563.6</ele>
        <time>2021-04-10T10:10:19.000Z</time>
      </trkpt>
      <trkpt lat="37.938234424218535" lon="23.780796546489">
        <ele>564</ele>
        <time>2021-04-10T10:10:21.000Z</time>
      </trkpt>
      <trkpt lat="37.938235346227884" lon="23.780798222869635">
        <ele>564.2</ele>
        <time>2021-04-10T10:10:22.000Z</time>
      </trkpt>
      <trkpt lat="37.93820324353874" lon="23.78078179433942">
        <ele>564.8</ele>
        <time>2021-04-10T10:10:27.000Z</time>
      </trkpt>
      <trkpt lat="37.93819419108331" lon="23.780780201777816">
        <ele>565</ele>
        <time>2021-04-10T10:10:28.000Z</time>
      </trkpt>
      <trkpt lat="37.93819075450301" lon="23.780777771025896">
        <ele>565.4</ele>
        <time>2021-04-10T10:10:30.000Z</time>
      </trkpt>
      <trkpt lat="37.938187485560775" lon="23.780784644186497">
        <ele>566</ele>
        <time>2021-04-10T10:10:33.000Z</time>
      </trkpt>
      <trkpt lat="37.93818329460919" lon="23.780792774632573">
        <ele>566.2</ele>
        <time>2021-04-10T10:10:34.000Z</time>
      </trkpt>
      <trkpt lat="37.938158232718706" lon="23.780865529552102">
        <ele>567.2</ele>
        <time>2021-04-10T10:10:40.000Z</time>
      </trkpt>
      <trkpt lat="37.93815337121487" lon="23.7808795273304">
        <ele>567.4</ele>
        <time>2021-04-10T10:10:41.000Z</time>
      </trkpt>
      <trkpt lat="37.93813509866595" lon="23.780899895355105">
        <ele>568.6</ele>
        <time>2021-04-10T10:10:46.000Z</time>
      </trkpt>
      <trkpt lat="37.938111796975136" lon="23.780886819586158">
        <ele>569.2</ele>
        <time>2021-04-10T10:10:51.000Z</time>
      </trkpt>
      <trkpt lat="37.93808363378048" lon="23.780867625027895">
        <ele>569.6</ele>
        <time>2021-04-10T10:10:54.000Z</time>
      </trkpt>
      <trkpt lat="37.93806326575577" lon="23.78085371106863">
        <ele>570.2</ele>
        <time>2021-04-10T10:10:57.000Z</time>
      </trkpt>
      <trkpt lat="37.938048178330064" lon="23.780825128778815">
        <ele>570.8</ele>
        <time>2021-04-10T10:11:00.000Z</time>
      </trkpt>
      <trkpt lat="37.93804742395878" lon="23.78079948015511">
        <ele>571.2</ele>
        <time>2021-04-10T10:11:02.000Z</time>
      </trkpt>
      <trkpt lat="37.93804013170302" lon="23.780785063281655">
        <ele>571.4</ele>
        <time>2021-04-10T10:11:09.000Z</time>
      </trkpt>
      <trkpt lat="37.93801817111671" lon="23.780839378014207">
        <ele>572.2</ele>
        <time>2021-04-10T10:11:13.000Z</time>
      </trkpt>
      <trkpt lat="37.93799369595945" lon="23.780836192891">
        <ele>572.8</ele>
        <time>2021-04-10T10:11:15.000Z</time>
      </trkpt>
      <trkpt lat="37.93796947225928" lon="23.78082739189267">
        <ele>573.2</ele>
        <time>2021-04-10T10:11:18.000Z</time>
      </trkpt>
      <trkpt lat="37.93794633820653" lon="23.780817836523056">
        <ele>574</ele>
        <time>2021-04-10T10:11:21.000Z</time>
      </trkpt>
      <trkpt lat="37.937937788665295" lon="23.78081121481955">
        <ele>574</ele>
        <time>2021-04-10T10:11:22.000Z</time>
      </trkpt>
      <trkpt lat="37.937920773401856" lon="23.780794702470303">
        <ele>574.4</ele>
        <time>2021-04-10T10:11:24.000Z</time>
      </trkpt>
      <trkpt lat="37.93791272677481" lon="23.780766455456614">
        <ele>575</ele>
        <time>2021-04-10T10:11:28.000Z</time>
      </trkpt>
      <trkpt lat="37.93791465461254" lon="23.780766539275646">
        <ele>575</ele>
        <time>2021-04-10T10:11:29.000Z</time>
      </trkpt>
      <trkpt lat="37.93789830990136" lon="23.780799731612206">
        <ele>575.6</ele>
        <time>2021-04-10T10:11:33.000Z</time>
      </trkpt>
      <trkpt lat="37.93789252638817" lon="23.78081121481955">
        <ele>575.6</ele>
        <time>2021-04-10T10:11:34.000Z</time>
      </trkpt>
      <trkpt lat="37.93784114532173" lon="23.780794199556112">
        <ele>576.8</ele>
        <time>2021-04-10T10:11:40.000Z</time>
      </trkpt>
      <trkpt lat="37.937833769246936" lon="23.78078179433942">
        <ele>577.8</ele>
        <time>2021-04-10T10:11:44.000Z</time>
      </trkpt>
      <trkpt lat="37.93780359439552" lon="23.780766539275646">
        <ele>578.6</ele>
        <time>2021-04-10T10:11:48.000Z</time>
      </trkpt>
      <trkpt lat="37.93777744285762" lon="23.780726809054613">
        <ele>579</ele>
        <time>2021-04-10T10:11:53.000Z</time>
      </trkpt>
      <trkpt lat="37.93776394799352" lon="23.780699064955115">
        <ele>579.4</ele>
        <time>2021-04-10T10:11:56.000Z</time>
      </trkpt>
      <trkpt lat="37.93775766156614" lon="23.780693616718054">
        <ele>579.4</ele>
        <time>2021-04-10T10:11:57.000Z</time>
      </trkpt>
      <trkpt lat="37.93772757053375" lon="23.780668890103698">
        <ele>579.6</ele>
        <time>2021-04-10T10:12:01.000Z</time>
      </trkpt>
      <trkpt lat="37.93771214783192" lon="23.78065723925829">
        <ele>580</ele>
        <time>2021-04-10T10:12:03.000Z</time>
      </trkpt>
      <trkpt lat="37.93767132796347" lon="23.78062454983592">
        <ele>580.8</ele>
        <time>2021-04-10T10:12:08.000Z</time>
      </trkpt>
      <trkpt lat="37.937636291608214" lon="23.780603427439928">
        <ele>581.2</ele>
        <time>2021-04-10T10:12:12.000Z</time>
      </trkpt>
      <trkpt lat="37.937619863078" lon="23.780594039708376">
        <ele>581.4</ele>
        <time>2021-04-10T10:12:15.000Z</time>
      </trkpt>
      <trkpt lat="37.93762589804828" lon="23.780591441318393">
        <ele>581.6</ele>
        <time>2021-04-10T10:12:18.000Z</time>
      </trkpt>
      <trkpt lat="37.937630508095026" lon="23.780596302822232">
        <ele>581.4</ele>
        <time>2021-04-10T10:12:21.000Z</time>
      </trkpt>
      <trkpt lat="37.93761885724962" lon="23.78059772774577">
        <ele>581.4</ele>
        <time>2021-04-10T10:12:26.000Z</time>
      </trkpt>
      <trkpt lat="37.937626065686345" lon="23.780601331964135">
        <ele>581.6</ele>
        <time>2021-04-10T10:12:27.000Z</time>
      </trkpt>
      <trkpt lat="37.93762380257249" lon="23.78060015849769">
        <ele>582.2</ele>
        <time>2021-04-10T10:12:30.000Z</time>
      </trkpt>
      <trkpt lat="37.93763377703726" lon="23.780599823221564">
        <ele>582.2</ele>
        <time>2021-04-10T10:12:34.000Z</time>
      </trkpt>
      <trkpt lat="37.93762883171439" lon="23.780589010566473">
        <ele>582.4</ele>
        <time>2021-04-10T10:12:40.000Z</time>
      </trkpt>
      <trkpt lat="37.937607541680336" lon="23.780585573986173">
        <ele>582.2</ele>
        <time>2021-04-10T10:12:43.000Z</time>
      </trkpt>
      <trkpt lat="37.937603602185845" lon="23.780592530965805">
        <ele>582.2</ele>
        <time>2021-04-10T10:12:44.000Z</time>
      </trkpt>
      <trkpt lat="37.93761173263192" lon="23.780595548450947">
        <ele>582.4</ele>
        <time>2021-04-10T10:12:46.000Z</time>
      </trkpt>
      <trkpt lat="37.937606954947114" lon="23.780587250366807">
        <ele>582.2</ele>
        <time>2021-04-10T10:12:52.000Z</time>
      </trkpt>
      <trkpt lat="37.93760335072875" lon="23.780584316700697">
        <ele>582.4</ele>
        <time>2021-04-10T10:12:54.000Z</time>
      </trkpt>
      <trkpt lat="37.93760091997683" lon="23.78057811409235">
        <ele>582.4</ele>
        <time>2021-04-10T10:12:57.000Z</time>
      </trkpt>
      <trkpt lat="37.93760200962424" lon="23.780566630885005">
        <ele>582</ele>
        <time>2021-04-10T10:13:01.000Z</time>
      </trkpt>
      <trkpt lat="37.93759941123426" lon="23.780566044151783">
        <ele>582.2</ele>
        <time>2021-04-10T10:13:04.000Z</time>
      </trkpt>
      <trkpt lat="37.93759346008301" lon="23.78055070526898">
        <ele>582.4</ele>
        <time>2021-04-10T10:13:07.000Z</time>
      </trkpt>
      <trkpt lat="37.937602177262306" lon="23.78054483793676">
        <ele>582.8</ele>
        <time>2021-04-10T10:13:12.000Z</time>
      </trkpt>
      <trkpt lat="37.9375955555588" lon="23.780562607571483">
        <ele>583</ele>
        <time>2021-04-10T10:13:19.000Z</time>
      </trkpt>
      <trkpt lat="37.937591364607215" lon="23.78056445159018">
        <ele>583.2</ele>
        <time>2021-04-10T10:13:22.000Z</time>
      </trkpt>
      <trkpt lat="37.93760100379586" lon="23.780559170991182">
        <ele>583.2</ele>
        <time>2021-04-10T10:13:25.000Z</time>
      </trkpt>
      <trkpt lat="37.937581557780504" lon="23.78055665642023">
        <ele>583</ele>
        <time>2021-04-10T10:13:29.000Z</time>
      </trkpt>
      <trkpt lat="37.93752648867667" lon="23.780542071908712">
        <ele>583.2</ele>
        <time>2021-04-10T10:13:34.000Z</time>
      </trkpt>
      <trkpt lat="37.937468653544784" lon="23.780528409406543">
        <ele>584</ele>
        <time>2021-04-10T10:13:40.000Z</time>
      </trkpt>
      <trkpt lat="37.937461864203215" lon="23.780526565387845">
        <ele>584.4</ele>
        <time>2021-04-10T10:13:41.000Z</time>
      </trkpt>
      <trkpt lat="37.937453566119075" lon="23.780512819066644">
        <ele>584.8</ele>
        <time>2021-04-10T10:13:43.000Z</time>
      </trkpt>
      <trkpt lat="37.937444262206554" lon="23.780500330030918">
        <ele>585.2</ele>
        <time>2021-04-10T10:13:45.000Z</time>
      </trkpt>
      <trkpt lat="37.93743629939854" lon="23.780488511547446">
        <ele>585.2</ele>
        <time>2021-04-10T10:13:46.000Z</time>
      </trkpt>
      <trkpt lat="37.93742783367634" lon="23.780481722205877">
        <ele>585.4</ele>
        <time>2021-04-10T10:13:47.000Z</time>
      </trkpt>
      <trkpt lat="37.9374124109745" lon="23.780480967834592">
        <ele>585.4</ele>
        <time>2021-04-10T10:13:49.000Z</time>
      </trkpt>
      <trkpt lat="37.9373849183321" lon="23.780459258705378">
        <ele>585.8</ele>
        <time>2021-04-10T10:13:52.000Z</time>
      </trkpt>
      <trkpt lat="37.937352899461985" lon="23.780449451878667">
        <ele>586.4</ele>
        <time>2021-04-10T10:13:56.000Z</time>
      </trkpt>
      <trkpt lat="37.93733806349337" lon="23.780448446050286">
        <ele>586.6</ele>
        <time>2021-04-10T10:13:58.000Z</time>
      </trkpt>
      <trkpt lat="37.93732766993344" lon="23.78044668585062">
        <ele>586.6</ele>
        <time>2021-04-10T10:13:59.000Z</time>
      </trkpt>
      <trkpt lat="37.93731853365898" lon="23.78044475801289">
        <ele>586.6</ele>
        <time>2021-04-10T10:14:00.000Z</time>
      </trkpt>
      <trkpt lat="37.937311325222254" lon="23.780444422736764">
        <ele>586.8</ele>
        <time>2021-04-10T10:14:01.000Z</time>
      </trkpt>
      <trkpt lat="37.93730285950005" lon="23.780451463535428">
        <ele>587.4</ele>
        <time>2021-04-10T10:14:05.000Z</time>
      </trkpt>
      <trkpt lat="37.937315767630935" lon="23.7804545648396">
        <ele>587.6</ele>
        <time>2021-04-10T10:14:06.000Z</time>
      </trkpt>
      <trkpt lat="37.93732238933444" lon="23.780458588153124">
        <ele>587.6</ele>
        <time>2021-04-10T10:14:07.000Z</time>
      </trkpt>
      <trkpt lat="37.93732565827668" lon="23.780460180714726">
        <ele>587.8</ele>
        <time>2021-04-10T10:14:08.000Z</time>
      </trkpt>
      <trkpt lat="37.937329011037946" lon="23.780466802418232">
        <ele>588</ele>
        <time>2021-04-10T10:14:09.000Z</time>
      </trkpt>
      <trkpt lat="37.93734242208302" lon="23.78049898892641">
        <ele>588.4</ele>
        <time>2021-04-10T10:14:12.000Z</time>
      </trkpt>
      <trkpt lat="37.93734200298786" lon="23.78051365725696">
        <ele>589</ele>
        <time>2021-04-10T10:14:14.000Z</time>
      </trkpt>
      <trkpt lat="37.93733848258853" lon="23.780548609793186">
        <ele>589.6</ele>
        <time>2021-04-10T10:14:17.000Z</time>
      </trkpt>
      <trkpt lat="37.93735801242292" lon="23.78057467751205">
        <ele>590</ele>
        <time>2021-04-10T10:14:21.000Z</time>
      </trkpt>
      <trkpt lat="37.93737812899053" lon="23.78060300834477">
        <ele>590.6</ele>
        <time>2021-04-10T10:14:24.000Z</time>
      </trkpt>
      <trkpt lat="37.9373833257705" lon="23.780613988637924">
        <ele>590.8</ele>
        <time>2021-04-10T10:14:25.000Z</time>
      </trkpt>
      <trkpt lat="37.93739581480622" lon="23.78063234500587">
        <ele>591</ele>
        <time>2021-04-10T10:14:27.000Z</time>
      </trkpt>
      <trkpt lat="37.93739472515881" lon="23.780658496543765">
        <ele>591.2</ele>
        <time>2021-04-10T10:14:30.000Z</time>
      </trkpt>
      <trkpt lat="37.93738391250372" lon="23.780665369704366">
        <ele>591.6</ele>
        <time>2021-04-10T10:14:32.000Z</time>
      </trkpt>
      <trkpt lat="37.93737159110606" lon="23.780668219551444">
        <ele>591.6</ele>
        <time>2021-04-10T10:14:33.000Z</time>
      </trkpt>
      <trkpt lat="37.93735658749938" lon="23.78066503442824">
        <ele>592</ele>
        <time>2021-04-10T10:14:34.000Z</time>
      </trkpt>
      <trkpt lat="37.93732373043895" lon="23.780677942559123">
        <ele>592.6</ele>
        <time>2021-04-10T10:14:39.000Z</time>
      </trkpt>
      <trkpt lat="37.93731995858252" lon="23.780684899538755">
        <ele>593</ele>
        <time>2021-04-10T10:14:40.000Z</time>
      </trkpt>
      <trkpt lat="37.93731275014579" lon="23.780690347775817">
        <ele>593.2</ele>
        <time>2021-04-10T10:14:41.000Z</time>
      </trkpt>
      <trkpt lat="37.93727293610573" lon="23.780695041641593">
        <ele>593.8</ele>
        <time>2021-04-10T10:14:45.000Z</time>
      </trkpt>
      <trkpt lat="37.937260530889034" lon="23.78068992868066">
        <ele>594.2</ele>
        <time>2021-04-10T10:14:47.000Z</time>
      </trkpt>
      <trkpt lat="37.93725256808102" lon="23.780686827376485">
        <ele>594.4</ele>
        <time>2021-04-10T10:14:48.000Z</time>
      </trkpt>
      <trkpt lat="37.937229266390204" lon="23.780672326683998">
        <ele>595.2</ele>
        <time>2021-04-10T10:14:51.000Z</time>
      </trkpt>
      <trkpt lat="37.937223399057984" lon="23.780666459351778">
        <ele>595.4</ele>
        <time>2021-04-10T10:14:52.000Z</time>
      </trkpt>
      <trkpt lat="37.937181405723095" lon="23.78065279684961">
        <ele>596.2</ele>
        <time>2021-04-10T10:14:58.000Z</time>
      </trkpt>
      <trkpt lat="37.937174532562494" lon="23.78063821233809">
        <ele>596.6</ele>
        <time>2021-04-10T10:15:00.000Z</time>
      </trkpt>
      <trkpt lat="37.937183333560824" lon="23.780632093548775">
        <ele>597.4</ele>
        <time>2021-04-10T10:15:05.000Z</time>
      </trkpt>
      <trkpt lat="37.93716707266867" lon="23.780631758272648">
        <ele>597.6</ele>
        <time>2021-04-10T10:15:07.000Z</time>
      </trkpt>
      <trkpt lat="37.937136981636286" lon="23.780641397461295">
        <ele>598.2</ele>
        <time>2021-04-10T10:15:10.000Z</time>
      </trkpt>
      <trkpt lat="37.937123235315084" lon="23.78063628450036">
        <ele>598.8</ele>
        <time>2021-04-10T10:15:12.000Z</time>
      </trkpt>
      <trkpt lat="37.9371016100049" lon="23.780600493773818">
        <ele>599.6</ele>
        <time>2021-04-10T10:15:16.000Z</time>
      </trkpt>
      <trkpt lat="37.93709951452911" lon="23.78058783710003">
        <ele>600</ele>
        <time>2021-04-10T10:15:17.000Z</time>
      </trkpt>
      <trkpt lat="37.937108650803566" lon="23.780591189861298">
        <ele>600.4</ele>
        <time>2021-04-10T10:15:22.000Z</time>
      </trkpt>
      <trkpt lat="37.937115943059325" lon="23.78065036609769">
        <ele>601</ele>
        <time>2021-04-10T10:15:28.000Z</time>
      </trkpt>
      <trkpt lat="37.93712742626667" lon="23.78066553734243">
        <ele>601.2</ele>
        <time>2021-04-10T10:15:30.000Z</time>
      </trkpt>
      <trkpt lat="37.93713656254113" lon="23.780687833204865">
        <ele>601.4</ele>
        <time>2021-04-10T10:15:32.000Z</time>
      </trkpt>
      <trkpt lat="37.93713002465665" lon="23.78072471357882">
        <ele>602.2</ele>
        <time>2021-04-10T10:15:35.000Z</time>
      </trkpt>
      <trkpt lat="37.93712491169572" lon="23.780728317797184">
        <ele>602.4</ele>
        <time>2021-04-10T10:15:36.000Z</time>
      </trkpt>
      <trkpt lat="37.937124744057655" lon="23.78076385706663">
        <ele>603.2</ele>
        <time>2021-04-10T10:15:41.000Z</time>
      </trkpt>
      <trkpt lat="37.93712683953345" lon="23.780766036361456">
        <ele>603.4</ele>
        <time>2021-04-10T10:15:42.000Z</time>
      </trkpt>
      <trkpt lat="37.93711242265999" lon="23.780754385516047">
        <ele>603.6</ele>
        <time>2021-04-10T10:15:45.000Z</time>
      </trkpt>
      <trkpt lat="37.93710202910006" lon="23.780741561204195">
        <ele>603.6</ele>
        <time>2021-04-10T10:15:48.000Z</time>
      </trkpt>
      <trkpt lat="37.9371016100049" lon="23.78074516542256">
        <ele>603.4</ele>
        <time>2021-04-10T10:15:49.000Z</time>
      </trkpt>
      <trkpt lat="37.937113428488374" lon="23.780759498476982">
        <ele>603.2</ele>
        <time>2021-04-10T10:15:56.000Z</time>
      </trkpt>
      <trkpt lat="37.93712709099054" lon="23.780763521790504">
        <ele>603.6</ele>
        <time>2021-04-10T10:16:04.000Z</time>
      </trkpt>
      <trkpt lat="37.93713681399822" lon="23.780801659449935">
        <ele>603.2</ele>
        <time>2021-04-10T10:16:09.000Z</time>
      </trkpt>
      <trkpt lat="37.937134467065334" lon="23.780809622257948">
        <ele>603.2</ele>
        <time>2021-04-10T10:16:10.000Z</time>
      </trkpt>
      <trkpt lat="37.937140837311745" lon="23.780854800716043">
        <ele>604</ele>
        <time>2021-04-10T10:16:16.000Z</time>
      </trkpt>
      <trkpt lat="37.93714159168303" lon="23.78086586482823">
        <ele>604.2</ele>
        <time>2021-04-10T10:16:17.000Z</time>
      </trkpt>
      <trkpt lat="37.9371431004256" lon="23.780877012759447">
        <ele>604.2</ele>
        <time>2021-04-10T10:16:18.000Z</time>
      </trkpt>
      <trkpt lat="37.93716422282159" lon="23.78091908991337">
        <ele>604.8</ele>
        <time>2021-04-10T10:16:21.000Z</time>
      </trkpt>
      <trkpt lat="37.93717335909605" lon="23.780931159853935">
        <ele>605.2</ele>
        <time>2021-04-10T10:16:22.000Z</time>
      </trkpt>
      <trkpt lat="37.937186434865" lon="23.780939122661948">
        <ele>605.6</ele>
        <time>2021-04-10T10:16:23.000Z</time>
      </trkpt>
      <trkpt lat="37.93722214177251" lon="23.781025372445583">
        <ele>606</ele>
        <time>2021-04-10T10:16:31.000Z</time>
      </trkpt>
      <trkpt lat="37.937231278046966" lon="23.78104322589934">
        <ele>606.2</ele>
        <time>2021-04-10T10:16:33.000Z</time>
      </trkpt>
      <trkpt lat="37.937247874215245" lon="23.78109661862254">
        <ele>606.6</ele>
        <time>2021-04-10T10:16:37.000Z</time>
      </trkpt>
      <trkpt lat="37.937256591394544" lon="23.781125703826547">
        <ele>607</ele>
        <time>2021-04-10T10:16:39.000Z</time>
      </trkpt>
      <trkpt lat="37.93725625611842" lon="23.7811385281384">
        <ele>607.2</ele>
        <time>2021-04-10T10:16:41.000Z</time>
      </trkpt>
      <trkpt lat="37.93725340627134" lon="23.781172474846244">
        <ele>607.8</ele>
        <time>2021-04-10T10:16:44.000Z</time>
      </trkpt>
      <trkpt lat="37.937254747375846" lon="23.781193094328046">
        <ele>608.4</ele>
        <time>2021-04-10T10:16:47.000Z</time>
      </trkpt>
      <trkpt lat="37.9372606985271" lon="23.7812040746212">
        <ele>608.6</ele>
        <time>2021-04-10T10:16:48.000Z</time>
      </trkpt>
      <trkpt lat="37.93726287782192" lon="23.78120742738247">
        <ele>608.6</ele>
        <time>2021-04-10T10:16:49.000Z</time>
      </trkpt>
      <trkpt lat="37.93726681731641" lon="23.781210025772452">
        <ele>608.8</ele>
        <time>2021-04-10T10:16:50.000Z</time>
      </trkpt>
      <trkpt lat="37.9372744448483" lon="23.78121815621853">
        <ele>609</ele>
        <time>2021-04-10T10:16:51.000Z</time>
      </trkpt>
      <trkpt lat="37.93727846816182" lon="23.781237434595823">
        <ele>609.2</ele>
        <time>2021-04-10T10:16:53.000Z</time>
      </trkpt>
      <trkpt lat="37.93727151118219" lon="23.781245816498995">
        <ele>609.4</ele>
        <time>2021-04-10T10:16:55.000Z</time>
      </trkpt>
      <trkpt lat="37.93728685006499" lon="23.78127045929432">
        <ele>610</ele>
        <time>2021-04-10T10:16:58.000Z</time>
      </trkpt>
      <trkpt lat="37.937292382121086" lon="23.781293174251914">
        <ele>610.6</ele>
        <time>2021-04-10T10:17:00.000Z</time>
      </trkpt>
      <trkpt lat="37.93730026111007" lon="23.781333910301328">
        <ele>611.2</ele>
        <time>2021-04-10T10:17:03.000Z</time>
      </trkpt>
      <trkpt lat="37.9373228084296" lon="23.781370455399156">
        <ele>611.8</ele>
        <time>2021-04-10T10:17:07.000Z</time>
      </trkpt>
      <trkpt lat="37.93731325305998" lon="23.78142384812236">
        <ele>612.4</ele>
        <time>2021-04-10T10:17:13.000Z</time>
      </trkpt>
      <trkpt lat="37.93729975819588" lon="23.78144346177578">
        <ele>612.8</ele>
        <time>2021-04-10T10:17:15.000Z</time>
      </trkpt>
      <trkpt lat="37.93730679899454" lon="23.781470116227865">
        <ele>613.4</ele>
        <time>2021-04-10T10:17:19.000Z</time>
      </trkpt>
      <trkpt lat="37.937309397384524" lon="23.781473636627197">
        <ele>613.8</ele>
        <time>2021-04-10T10:17:20.000Z</time>
      </trkpt>
      <trkpt lat="37.93733085505664" lon="23.78149090334773">
        <ele>614.6</ele>
        <time>2021-04-10T10:17:23.000Z</time>
      </trkpt>
      <trkpt lat="37.93733697384596" lon="23.781512612476945">
        <ele>615</ele>
        <time>2021-04-10T10:17:25.000Z</time>
      </trkpt>
      <trkpt lat="37.937332363799214" lon="23.78153725527227">
        <ele>615.4</ele>
        <time>2021-04-10T10:17:27.000Z</time>
      </trkpt>
      <trkpt lat="37.937331441789865" lon="23.78154907375574">
        <ele>615.6</ele>
        <time>2021-04-10T10:17:28.000Z</time>
      </trkpt>
      <trkpt lat="37.93734921142459" lon="23.781581930816174">
        <ele>616.4</ele>
        <time>2021-04-10T10:17:32.000Z</time>
      </trkpt>
      <trkpt lat="37.93735415674746" lon="23.78159492276609">
        <ele>616.8</ele>
        <time>2021-04-10T10:17:33.000Z</time>
      </trkpt>
      <trkpt lat="37.93735616840422" lon="23.78159986808896">
        <ele>617</ele>
        <time>2021-04-10T10:17:35.000Z</time>
      </trkpt>
      <trkpt lat="37.93735851533711" lon="23.78162233158946">
        <ele>617.4</ele>
        <time>2021-04-10T10:17:38.000Z</time>
      </trkpt>
      <trkpt lat="37.93735692277551" lon="23.781663738191128">
        <ele>617.8</ele>
        <time>2021-04-10T10:17:41.000Z</time>
      </trkpt>
      <trkpt lat="37.93736002407968" lon="23.781689470633864">
        <ele>618.2</ele>
        <time>2021-04-10T10:17:43.000Z</time>
      </trkpt>
      <trkpt lat="37.93736446648836" lon="23.78169852308929">
        <ele>619</ele>
        <time>2021-04-10T10:17:45.000Z</time>
      </trkpt>
      <trkpt lat="37.93736572377384" lon="23.781712353229523">
        <ele>619.4</ele>
        <time>2021-04-10T10:17:47.000Z</time>
      </trkpt>
      <trkpt lat="37.93736832216382" lon="23.781723333522677">
        <ele>619.6</ele>
        <time>2021-04-10T10:17:48.000Z</time>
      </trkpt>
      <trkpt lat="37.93737511150539" lon="23.781769266352057">
        <ele>620</ele>
        <time>2021-04-10T10:17:52.000Z</time>
      </trkpt>
      <trkpt lat="37.93736983090639" lon="23.78178250975907">
        <ele>620.4</ele>
        <time>2021-04-10T10:17:53.000Z</time>
      </trkpt>
      <trkpt lat="37.93735859915614" lon="23.781793573871255">
        <ele>620.8</ele>
        <time>2021-04-10T10:17:55.000Z</time>
      </trkpt>
      <trkpt lat="37.937343679368496" lon="23.781786784529686">
        <ele>620.8</ele>
        <time>2021-04-10T10:17:57.000Z</time>
      </trkpt>
      <trkpt lat="37.93733990751207" lon="23.78178410232067">
        <ele>621</ele>
        <time>2021-04-10T10:17:58.000Z</time>
      </trkpt>
      <trkpt lat="37.93734300881624" lon="23.781788544729352">
        <ele>621</ele>
        <time>2021-04-10T10:18:01.000Z</time>
      </trkpt>
      <trkpt lat="37.93734032660723" lon="23.78179281949997">
        <ele>621</ele>
        <time>2021-04-10T10:18:04.000Z</time>
      </trkpt>
      <trkpt lat="37.937348457053304" lon="23.781796926632524">
        <ele>621</ele>
        <time>2021-04-10T10:18:11.000Z</time>
      </trkpt>
      <trkpt lat="37.93735113926232" lon="23.781800363212824">
        <ele>621</ele>
        <time>2021-04-10T10:18:16.000Z</time>
      </trkpt>
      <trkpt lat="37.93734233826399" lon="23.781821904703975">
        <ele>621</ele>
        <time>2021-04-10T10:18:18.000Z</time>
      </trkpt>
      <trkpt lat="37.93734619393945" lon="23.781833136454225">
        <ele>621</ele>
        <time>2021-04-10T10:18:21.000Z</time>
      </trkpt>
      <trkpt lat="37.93734049424529" lon="23.78179918974638">
        <ele>620.8</ele>
        <time>2021-04-10T10:18:27.000Z</time>
      </trkpt>
      <trkpt lat="37.93733412399888" lon="23.781791562214494">
        <ele>620.8</ele>
        <time>2021-04-10T10:18:31.000Z</time>
      </trkpt>
      <trkpt lat="37.937325490638614" lon="23.78176893107593">
        <ele>620.8</ele>
        <time>2021-04-10T10:18:40.000Z</time>
      </trkpt>
      <trkpt lat="37.937317695468664" lon="23.781760213896632">
        <ele>621</ele>
        <time>2021-04-10T10:18:42.000Z</time>
      </trkpt>
      <trkpt lat="37.937315264716744" lon="23.781764404848218">
        <ele>620.8</ele>
        <time>2021-04-10T10:18:45.000Z</time>
      </trkpt>
      <trkpt lat="37.93732934631407" lon="23.78177630715072">
        <ele>620.6</ele>
        <time>2021-04-10T10:18:49.000Z</time>
      </trkpt>
      <trkpt lat="37.93733345344663" lon="23.781780414283276">
        <ele>620.8</ele>
        <time>2021-04-10T10:18:51.000Z</time>
      </trkpt>
      <trkpt lat="37.93733345344663" lon="23.781781001016498">
        <ele>620.8</ele>
        <time>2021-04-10T10:18:52.000Z</time>
      </trkpt>
      <trkpt lat="37.93733378872275" lon="23.781789131462574">
        <ele>620.6</ele>
        <time>2021-04-10T10:18:59.000Z</time>
      </trkpt>
      <trkpt lat="37.93733320198953" lon="23.781816456466913">
        <ele>620.6</ele>
        <time>2021-04-10T10:19:10.000Z</time>
      </trkpt>
      <trkpt lat="37.937334794551134" lon="23.7818153668195">
        <ele>620.4</ele>
        <time>2021-04-10T10:19:11.000Z</time>
      </trkpt>
      <trkpt lat="37.93733202852309" lon="23.78181436099112">
        <ele>620.6</ele>
        <time>2021-04-10T10:19:13.000Z</time>
      </trkpt>
      <trkpt lat="37.9373331181705" lon="23.781802291050553">
        <ele>620.6</ele>
        <time>2021-04-10T10:19:18.000Z</time>
      </trkpt>
      <trkpt lat="37.937341667711735" lon="23.78180019557476">
        <ele>620.2</ele>
        <time>2021-04-10T10:19:23.000Z</time>
      </trkpt>
      <trkpt lat="37.937336722388864" lon="23.781807152554393">
        <ele>620.2</ele>
        <time>2021-04-10T10:19:26.000Z</time>
      </trkpt>
      <trkpt lat="37.93732867576182" lon="23.781802458688617">
        <ele>620.2</ele>
        <time>2021-04-10T10:19:30.000Z</time>
      </trkpt>
      <trkpt lat="37.937330435961485" lon="23.78180254250765">
        <ele>620.2</ele>
        <time>2021-04-10T10:19:31.000Z</time>
      </trkpt>
      <trkpt lat="37.9373347107321" lon="23.78179667517543">
        <ele>620.2</ele>
        <time>2021-04-10T10:19:34.000Z</time>
      </trkpt>
      <trkpt lat="37.93733957223594" lon="23.781797010451555">
        <ele>620</ele>
        <time>2021-04-10T10:19:39.000Z</time>
      </trkpt>
      <trkpt lat="37.937345607206225" lon="23.781801369041204">
        <ele>620.2</ele>
        <time>2021-04-10T10:19:41.000Z</time>
      </trkpt>
      <trkpt lat="37.93734334409237" lon="23.78180354833603">
        <ele>620.4</ele>
        <time>2021-04-10T10:19:44.000Z</time>
      </trkpt>
      <trkpt lat="37.937341248616576" lon="23.781801871955395">
        <ele>620.4</ele>
        <time>2021-04-10T10:19:45.000Z</time>
      </trkpt>
      <trkpt lat="37.93734082952142" lon="23.78180011175573">
        <ele>620.4</ele>
        <time>2021-04-10T10:19:52.000Z</time>
      </trkpt>
      <trkpt lat="37.93734678067267" lon="23.781821988523006">
        <ele>620.6</ele>
        <time>2021-04-10T10:19:57.000Z</time>
      </trkpt>
      <trkpt lat="37.93734912760556" lon="23.78182609565556">
        <ele>620.6</ele>
        <time>2021-04-10T10:19:58.000Z</time>
      </trkpt>
      <trkpt lat="37.93734401464462" lon="23.781841434538364">
        <ele>625</ele>
        <time>2021-04-10T10:20:04.000Z</time>
      </trkpt>
      <trkpt lat="37.93734057806432" lon="23.781839003786445">
        <ele>622.6</ele>
        <time>2021-04-10T10:20:05.000Z</time>
      </trkpt>
      <trkpt lat="37.9373399913311" lon="23.781835651025176">
        <ele>621.4</ele>
        <time>2021-04-10T10:20:06.000Z</time>
      </trkpt>
      <trkpt lat="37.93734141625464" lon="23.78184260800481">
        <ele>620.4</ele>
        <time>2021-04-10T10:20:09.000Z</time>
      </trkpt>
      <trkpt lat="37.937345104292035" lon="23.781834645196795">
        <ele>620.2</ele>
        <time>2021-04-10T10:20:15.000Z</time>
      </trkpt>
      <trkpt lat="37.937343176454306" lon="23.78183187916875">
        <ele>620.2</ele>
        <time>2021-04-10T10:20:18.000Z</time>
      </trkpt>
      <trkpt lat="37.93734326027334" lon="23.781829113140702">
        <ele>620.2</ele>
        <time>2021-04-10T10:20:19.000Z</time>
      </trkpt>
      <trkpt lat="37.93734577484429" lon="23.78181243315339">
        <ele>620.2</ele>
        <time>2021-04-10T10:20:27.000Z</time>
      </trkpt>
      <trkpt lat="37.93733797967434" lon="23.781804889440536">
        <ele>620.2</ele>
        <time>2021-04-10T10:20:29.000Z</time>
      </trkpt>
      <trkpt lat="37.93730763718486" lon="23.781811259686947">
        <ele>620.2</ele>
        <time>2021-04-10T10:20:37.000Z</time>
      </trkpt>
      <trkpt lat="37.9373124986887" lon="23.78180748783052">
        <ele>620.2</ele>
        <time>2021-04-10T10:20:46.000Z</time>
      </trkpt>
      <trkpt lat="37.93731459416449" lon="23.781810589134693">
        <ele>620.2</ele>
        <time>2021-04-10T10:20:47.000Z</time>
      </trkpt>
      <trkpt lat="37.93731903657317" lon="23.78181343898177">
        <ele>620.2</ele>
        <time>2021-04-10T10:20:49.000Z</time>
      </trkpt>
      <trkpt lat="37.93731610290706" lon="23.781814947724342">
        <ele>620.2</ele>
        <time>2021-04-10T10:20:51.000Z</time>
      </trkpt>
      <trkpt lat="37.93731392361224" lon="23.78180706873536">
        <ele>620.2</ele>
        <time>2021-04-10T10:20:55.000Z</time>
      </trkpt>
      <trkpt lat="37.93733035214245" lon="23.78181134350598">
        <ele>620.2</ele>
        <time>2021-04-10T10:21:01.000Z</time>
      </trkpt>
      <trkpt lat="37.937334878370166" lon="23.781813522800803">
        <ele>620.2</ele>
        <time>2021-04-10T10:21:02.000Z</time>
      </trkpt>
      <trkpt lat="37.937334878370166" lon="23.78181343898177">
        <ele>620.2</ele>
        <time>2021-04-10T10:21:03.000Z</time>
      </trkpt>
      <trkpt lat="37.937334375455976" lon="23.781826766207814">
        <ele>620.2</ele>
        <time>2021-04-10T10:21:05.000Z</time>
      </trkpt>
      <trkpt lat="37.93733303435147" lon="23.781827269122005">
        <ele>620.2</ele>
        <time>2021-04-10T10:21:06.000Z</time>
      </trkpt>
      <trkpt lat="37.937332950532436" lon="23.781814528629184">
        <ele>620.2</ele>
        <time>2021-04-10T10:21:14.000Z</time>
      </trkpt>
      <trkpt lat="37.93732976540923" lon="23.781810086220503">
        <ele>620.2</ele>
        <time>2021-04-10T10:21:17.000Z</time>
      </trkpt>
      <trkpt lat="37.937324149534106" lon="23.78179332241416">
        <ele>620.2</ele>
        <time>2021-04-10T10:21:21.000Z</time>
      </trkpt>
      <trkpt lat="37.937328508123755" lon="23.781804973259568">
        <ele>620.2</ele>
        <time>2021-04-10T10:21:23.000Z</time>
      </trkpt>
      <trkpt lat="37.93732590973377" lon="23.781804889440536">
        <ele>620.2</ele>
        <time>2021-04-10T10:21:25.000Z</time>
      </trkpt>
      <trkpt lat="37.93732247315347" lon="23.78180840983987">
        <ele>620.2</ele>
        <time>2021-04-10T10:21:26.000Z</time>
      </trkpt>
      <trkpt lat="37.937320126220584" lon="23.781815534457564">
        <ele>620.6</ele>
        <time>2021-04-10T10:21:27.000Z</time>
      </trkpt>
      <trkpt lat="37.937318198382854" lon="23.781825928017497">
        <ele>621</ele>
        <time>2021-04-10T10:21:28.000Z</time>
      </trkpt>
      <trkpt lat="37.93732373043895" lon="23.78184512257576">
        <ele>621.4</ele>
        <time>2021-04-10T10:21:29.000Z</time>
      </trkpt>
      <trkpt lat="37.93733278289437" lon="23.78186766989529">
        <ele>622.2</ele>
        <time>2021-04-10T10:21:32.000Z</time>
      </trkpt>
      <trkpt lat="37.93731694109738" lon="23.781853588297963">
        <ele>622.6</ele>
        <time>2021-04-10T10:21:34.000Z</time>
      </trkpt>
      <trkpt lat="37.937305541709065" lon="23.78184612840414">
        <ele>622.8</ele>
        <time>2021-04-10T10:21:35.000Z</time>
      </trkpt>
      <trkpt lat="37.937287436798215" lon="23.78184218890965">
        <ele>623</ele>
        <time>2021-04-10T10:21:37.000Z</time>
      </trkpt>
      <trkpt lat="37.93724779039621" lon="23.78183581866324">
        <ele>623.8</ele>
        <time>2021-04-10T10:21:41.000Z</time>
      </trkpt>
      <trkpt lat="37.93724024668336" lon="23.781838417053223">
        <ele>624</ele>
        <time>2021-04-10T10:21:42.000Z</time>
      </trkpt>
      <trkpt lat="37.9372173640877" lon="23.781822491437197">
        <ele>624.8</ele>
        <time>2021-04-10T10:21:45.000Z</time>
      </trkpt>
      <trkpt lat="37.93718794360757" lon="23.781798100098968">
        <ele>625.2</ele>
        <time>2021-04-10T10:21:49.000Z</time>
      </trkpt>
      <trkpt lat="37.93715131469071" lon="23.781786281615496">
        <ele>625.8</ele>
        <time>2021-04-10T10:21:53.000Z</time>
      </trkpt>
      <trkpt lat="37.937143351882696" lon="23.78178007900715">
        <ele>626</ele>
        <time>2021-04-10T10:21:54.000Z</time>
      </trkpt>
      <trkpt lat="37.937127174809575" lon="23.78176792524755">
        <ele>626.4</ele>
        <time>2021-04-10T10:21:56.000Z</time>
      </trkpt>
      <trkpt lat="37.93711225502193" lon="23.7817722838372">
        <ele>627.2</ele>
        <time>2021-04-10T10:22:00.000Z</time>
      </trkpt>
      <trkpt lat="37.9371050465852" lon="23.781779324635863">
        <ele>627.4</ele>
        <time>2021-04-10T10:22:02.000Z</time>
      </trkpt>
      <trkpt lat="37.937083169817924" lon="23.78181486390531">
        <ele>628.4</ele>
        <time>2021-04-10T10:22:07.000Z</time>
      </trkpt>
      <trkpt lat="37.93707462027669" lon="23.78181528300047">
        <ele>628.8</ele>
        <time>2021-04-10T10:22:08.000Z</time>
      </trkpt>
      <trkpt lat="37.93706523254514" lon="23.781817127019167">
        <ele>629.6</ele>
        <time>2021-04-10T10:22:10.000Z</time>
      </trkpt>
      <trkpt lat="37.93705014511943" lon="23.78181586973369">
        <ele>629.8</ele>
        <time>2021-04-10T10:22:13.000Z</time>
      </trkpt>
      <trkpt lat="37.93704201467335" lon="23.781825928017497">
        <ele>630.6</ele>
        <time>2021-04-10T10:22:17.000Z</time>
      </trkpt>
      <trkpt lat="37.937027011066675" lon="23.781829699873924">
        <ele>631</ele>
        <time>2021-04-10T10:22:19.000Z</time>
      </trkpt>
      <trkpt lat="37.9370188806206" lon="23.78182944841683">
        <ele>631.2</ele>
        <time>2021-04-10T10:22:20.000Z</time>
      </trkpt>
      <trkpt lat="37.937011839821935" lon="23.781828274950385">
        <ele>631.2</ele>
        <time>2021-04-10T10:22:21.000Z</time>
      </trkpt>
      <trkpt lat="37.9370048828423" lon="23.781814109534025">
        <ele>631.6</ele>
        <time>2021-04-10T10:22:23.000Z</time>
      </trkpt>
      <trkpt lat="37.93699356727302" lon="23.781796423718333">
        <ele>632</ele>
        <time>2021-04-10T10:22:25.000Z</time>
      </trkpt>
      <trkpt lat="37.936959620565176" lon="23.781769685447216">
        <ele>632.6</ele>
        <time>2021-04-10T10:22:30.000Z</time>
      </trkpt>
      <trkpt lat="37.93695182539523" lon="23.781757028773427">
        <ele>633.2</ele>
        <time>2021-04-10T10:22:33.000Z</time>
      </trkpt>
      <trkpt lat="37.93690622784197" lon="23.781748646870255">
        <ele>633.6</ele>
        <time>2021-04-10T10:22:39.000Z</time>
      </trkpt>
      <trkpt lat="37.93689399026334" lon="23.781757950782776">
        <ele>633.8</ele>
        <time>2021-04-10T10:22:41.000Z</time>
      </trkpt>
      <trkpt lat="37.9368893802166" lon="23.781777480617166">
        <ele>634.6</ele>
        <time>2021-04-10T10:22:44.000Z</time>
      </trkpt>
      <trkpt lat="37.936878902837634" lon="23.781776474788785">
        <ele>634.8</ele>
        <time>2021-04-10T10:22:45.000Z</time>
      </trkpt>
      <trkpt lat="37.93687127530575" lon="23.78177630715072">
        <ele>635</ele>
        <time>2021-04-10T10:22:46.000Z</time>
      </trkpt>
      <trkpt lat="37.93684269301593" lon="23.781779492273927">
        <ele>635.4</ele>
        <time>2021-04-10T10:22:49.000Z</time>
      </trkpt>
      <trkpt lat="37.93683506548405" lon="23.781783850863576">
        <ele>635.6</ele>
        <time>2021-04-10T10:22:50.000Z</time>
      </trkpt>
      <trkpt lat="37.93681335635483" lon="23.78177865408361">
        <ele>636</ele>
        <time>2021-04-10T10:22:52.000Z</time>
      </trkpt>
      <trkpt lat="37.93679231777787" lon="23.78177664242685">
        <ele>636.6</ele>
        <time>2021-04-10T10:22:54.000Z</time>
      </trkpt>
      <trkpt lat="37.93678158894181" lon="23.781774630770087">
        <ele>636.8</ele>
        <time>2021-04-10T10:22:55.000Z</time>
      </trkpt>
      <trkpt lat="37.93675954453647" lon="23.781759459525347">
        <ele>637.2</ele>
        <time>2021-04-10T10:22:58.000Z</time>
      </trkpt>
      <trkpt lat="37.936755772680044" lon="23.781759878620505">
        <ele>637.6</ele>
        <time>2021-04-10T10:22:59.000Z</time>
      </trkpt>
      <trkpt lat="37.93675367720425" lon="23.781762812286615">
        <ele>637.8</ele>
        <time>2021-04-10T10:23:00.000Z</time>
      </trkpt>
      <trkpt lat="37.93673599138856" lon="23.781758034601808">
        <ele>638.6</ele>
        <time>2021-04-10T10:23:02.000Z</time>
      </trkpt>
      <trkpt lat="37.93670036830008" lon="23.781718723475933">
        <ele>639.6</ele>
        <time>2021-04-10T10:23:06.000Z</time>
      </trkpt>
      <trkpt lat="37.936684526503086" lon="23.781697684898973">
        <ele>639.8</ele>
        <time>2021-04-10T10:23:08.000Z</time>
      </trkpt>
      <trkpt lat="37.93666122481227" lon="23.781677316874266">
        <ele>640.4</ele>
        <time>2021-04-10T10:23:11.000Z</time>
      </trkpt>
      <trkpt lat="37.936652759090066" lon="23.781648818403482">
        <ele>640.6</ele>
        <time>2021-04-10T10:23:13.000Z</time>
      </trkpt>
      <trkpt lat="37.936635576188564" lon="23.781638676300645">
        <ele>641</ele>
        <time>2021-04-10T10:23:16.000Z</time>
      </trkpt>
      <trkpt lat="37.93661587871611" lon="23.78165158443153">
        <ele>641</ele>
        <time>2021-04-10T10:23:19.000Z</time>
      </trkpt>
      <trkpt lat="37.936609759926796" lon="23.781651500612497">
        <ele>641.2</ele>
        <time>2021-04-10T10:23:20.000Z</time>
      </trkpt>
      <trkpt lat="37.93660171329975" lon="23.781649824231863">
        <ele>641.4</ele>
        <time>2021-04-10T10:23:22.000Z</time>
      </trkpt>
      <trkpt lat="37.93659492395818" lon="23.78164672292769">
        <ele>641.6</ele>
        <time>2021-04-10T10:23:23.000Z</time>
      </trkpt>
      <trkpt lat="37.936590649187565" lon="23.78164772875607">
        <ele>641.8</ele>
        <time>2021-04-10T10:23:24.000Z</time>
      </trkpt>
      <trkpt lat="37.93658486567438" lon="23.781648315489292">
        <ele>642</ele>
        <time>2021-04-10T10:23:25.000Z</time>
      </trkpt>
      <trkpt lat="37.93657665140927" lon="23.78165317699313">
        <ele>642.8</ele>
        <time>2021-04-10T10:23:29.000Z</time>
      </trkpt>
      <trkpt lat="37.93657564558089" lon="23.781659798696637">
        <ele>643</ele>
        <time>2021-04-10T10:23:30.000Z</time>
      </trkpt>
      <trkpt lat="37.93657053261995" lon="23.78168092109263">
        <ele>644</ele>
        <time>2021-04-10T10:23:34.000Z</time>
      </trkpt>
      <trkpt lat="37.936569610610604" lon="23.781687626615167">
        <ele>644.2</ele>
        <time>2021-04-10T10:23:35.000Z</time>
      </trkpt>
      <trkpt lat="37.93656592257321" lon="23.781725177541375">
        <ele>645</ele>
        <time>2021-04-10T10:23:41.000Z</time>
      </trkpt>
      <trkpt lat="37.93656189925969" lon="23.78172635100782">
        <ele>645.2</ele>
        <time>2021-04-10T10:23:42.000Z</time>
      </trkpt>
      <trkpt lat="37.93655477464199" lon="23.781756861135364">
        <ele>646.2</ele>
        <time>2021-04-10T10:23:46.000Z</time>
      </trkpt>
      <trkpt lat="37.93655133806169" lon="23.78175468184054">
        <ele>646.4</ele>
        <time>2021-04-10T10:23:47.000Z</time>
      </trkpt>
      <trkpt lat="37.93655284680426" lon="23.781769266352057">
        <ele>647.6</ele>
        <time>2021-04-10T10:23:51.000Z</time>
      </trkpt>
      <trkpt lat="37.936549158766866" lon="23.781756944954395">
        <ele>648</ele>
        <time>2021-04-10T10:23:55.000Z</time>
      </trkpt>
      <trkpt lat="37.93650800362229" lon="23.781750155612826">
        <ele>648.2</ele>
        <time>2021-04-10T10:24:00.000Z</time>
      </trkpt>
      <trkpt lat="37.9364868812263" lon="23.781749652698636">
        <ele>648.6</ele>
        <time>2021-04-10T10:24:02.000Z</time>
      </trkpt>
      <trkpt lat="37.93646207079291" lon="23.7817566934973">
        <ele>649.2</ele>
        <time>2021-04-10T10:24:05.000Z</time>
      </trkpt>
      <trkpt lat="37.936454275622964" lon="23.78174747340381">
        <ele>649.6</ele>
        <time>2021-04-10T10:24:08.000Z</time>
      </trkpt>
      <trkpt lat="37.936445558443666" lon="23.78173657692969">
        <ele>650</ele>
        <time>2021-04-10T10:24:10.000Z</time>
      </trkpt>
      <trkpt lat="37.93643441051245" lon="23.781718472018838">
        <ele>649.8</ele>
        <time>2021-04-10T10:24:13.000Z</time>
      </trkpt>
      <trkpt lat="37.93642854318023" lon="23.781703803688288">
        <ele>650.2</ele>
        <time>2021-04-10T10:24:15.000Z</time>
      </trkpt>
      <trkpt lat="37.936431895941496" lon="23.78170631825924">
        <ele>650.4</ele>
        <time>2021-04-10T10:24:17.000Z</time>
      </trkpt>
      <trkpt lat="37.936434745788574" lon="23.781708497554064">
        <ele>650.8</ele>
        <time>2021-04-10T10:24:18.000Z</time>
      </trkpt>
      <trkpt lat="37.936433739960194" lon="23.781717382371426">
        <ele>651</ele>
        <time>2021-04-10T10:24:20.000Z</time>
      </trkpt>
      <trkpt lat="37.93643700890243" lon="23.781719310209155">
        <ele>651.2</ele>
        <time>2021-04-10T10:24:22.000Z</time>
      </trkpt>
      <trkpt lat="37.93643809854984" lon="23.78171855583787">
        <ele>651</ele>
        <time>2021-04-10T10:24:23.000Z</time>
      </trkpt>
      <trkpt lat="37.93643650598824" lon="23.781708665192127">
        <ele>650.8</ele>
        <time>2021-04-10T10:24:27.000Z</time>
      </trkpt>
      <trkpt lat="37.93644530698657" lon="23.78168871626258">
        <ele>650.4</ele>
        <time>2021-04-10T10:24:35.000Z</time>
      </trkpt>
      <trkpt lat="37.93645704165101" lon="23.781689973548055">
        <ele>650.6</ele>
        <time>2021-04-10T10:24:39.000Z</time>
      </trkpt>
      <trkpt lat="37.936458718031645" lon="23.781702546402812">
        <ele>650.4</ele>
        <time>2021-04-10T10:24:41.000Z</time>
      </trkpt>
      <trkpt lat="37.9364525154233" lon="23.78171319141984">
        <ele>650.4</ele>
        <time>2021-04-10T10:24:42.000Z</time>
      </trkpt>
      <trkpt lat="37.93641001917422" lon="23.781698858365417">
        <ele>650.8</ele>
        <time>2021-04-10T10:24:52.000Z</time>
      </trkpt>
      <trkpt lat="37.936364840716124" lon="23.781626857817173">
        <ele>651</ele>
        <time>2021-04-10T10:24:58.000Z</time>
      </trkpt>
      <trkpt lat="37.936327792704105" lon="23.78157053142786">
        <ele>651.2</ele>
        <time>2021-04-10T10:25:04.000Z</time>
      </trkpt>
      <trkpt lat="37.93630700558424" lon="23.781554102897644">
        <ele>651</ele>
        <time>2021-04-10T10:25:07.000Z</time>
      </trkpt>
      <trkpt lat="37.93628504499793" lon="23.781535495072603">
        <ele>650.8</ele>
        <time>2021-04-10T10:25:09.000Z</time>
      </trkpt>
      <trkpt lat="37.936274986714125" lon="23.7815373390913">
        <ele>650.8</ele>
        <time>2021-04-10T10:25:10.000Z</time>
      </trkpt>
      <trkpt lat="37.936262749135494" lon="23.781529711559415">
        <ele>650.8</ele>
        <time>2021-04-10T10:25:11.000Z</time>
      </trkpt>
      <trkpt lat="37.936228550970554" lon="23.781492915004492">
        <ele>651.6</ele>
        <time>2021-04-10T10:25:15.000Z</time>
      </trkpt>
      <trkpt lat="37.936222767457366" lon="23.78148159943521">
        <ele>651.8</ele>
        <time>2021-04-10T10:25:16.000Z</time>
      </trkpt>
      <trkpt lat="37.93619401752949" lon="23.781458297744393">
        <ele>651.8</ele>
        <time>2021-04-10T10:25:20.000Z</time>
      </trkpt>
      <trkpt lat="37.93618345633149" lon="23.78145326860249">
        <ele>651.8</ele>
        <time>2021-04-10T10:25:21.000Z</time>
      </trkpt>
      <trkpt lat="37.9361501801759" lon="23.781439857557416">
        <ele>652</ele>
        <time>2021-04-10T10:25:24.000Z</time>
      </trkpt>
      <trkpt lat="37.936126962304115" lon="23.78142971545458">
        <ele>652.4</ele>
        <time>2021-04-10T10:25:26.000Z</time>
      </trkpt>
      <trkpt lat="37.936105923727155" lon="23.781403144821525">
        <ele>652.6</ele>
        <time>2021-04-10T10:25:29.000Z</time>
      </trkpt>
      <trkpt lat="37.93610131368041" lon="23.781393505632877">
        <ele>652.8</ele>
        <time>2021-04-10T10:25:30.000Z</time>
      </trkpt>
      <trkpt lat="37.936092261224985" lon="23.7813819386065">
        <ele>652.8</ele>
        <time>2021-04-10T10:25:32.000Z</time>
      </trkpt>
      <trkpt lat="37.936073150485754" lon="23.78136140294373">
        <ele>653.4</ele>
        <time>2021-04-10T10:25:37.000Z</time>
      </trkpt>
      <trkpt lat="37.936069797724485" lon="23.7813578825444">
        <ele>653.6</ele>
        <time>2021-04-10T10:25:38.000Z</time>
      </trkpt>
      <trkpt lat="37.936059068888426" lon="23.781360145658255">
        <ele>653.6</ele>
        <time>2021-04-10T10:25:40.000Z</time>
      </trkpt>
      <trkpt lat="37.93604398146272" lon="23.78135452978313">
        <ele>653.8</ele>
        <time>2021-04-10T10:25:43.000Z</time>
      </trkpt>
      <trkpt lat="37.93604029342532" lon="23.781351009383798">
        <ele>654</ele>
        <time>2021-04-10T10:25:44.000Z</time>
      </trkpt>
      <trkpt lat="37.93599813245237" lon="23.781347908079624">
        <ele>654.6</ele>
        <time>2021-04-10T10:25:49.000Z</time>
      </trkpt>
      <trkpt lat="37.93598061427474" lon="23.781336257234216">
        <ele>655</ele>
        <time>2021-04-10T10:25:52.000Z</time>
      </trkpt>
      <trkpt lat="37.93597441166639" lon="23.781329719349742">
        <ele>655.4</ele>
        <time>2021-04-10T10:25:54.000Z</time>
      </trkpt>
      <trkpt lat="37.93597566895187" lon="23.78132821060717">
        <ele>655.4</ele>
        <time>2021-04-10T10:25:56.000Z</time>
      </trkpt>
      <trkpt lat="37.93598203919828" lon="23.781334748491645">
        <ele>655.4</ele>
        <time>2021-04-10T10:25:59.000Z</time>
      </trkpt>
      <trkpt lat="37.93598488904536" lon="23.78133491612971">
        <ele>655.4</ele>
        <time>2021-04-10T10:26:00.000Z</time>
      </trkpt>
      <trkpt lat="37.93597851879895" lon="23.781344387680292">
        <ele>655.2</ele>
        <time>2021-04-10T10:26:07.000Z</time>
      </trkpt>
      <trkpt lat="37.935993103310466" lon="23.781337263062596">
        <ele>655</ele>
        <time>2021-04-10T10:26:15.000Z</time>
      </trkpt>
      <trkpt lat="37.93599687516689" lon="23.78133801743388">
        <ele>655</ele>
        <time>2021-04-10T10:26:16.000Z</time>
      </trkpt>
      <trkpt lat="37.93599955737591" lon="23.781340532004833">
        <ele>655</ele>
        <time>2021-04-10T10:26:17.000Z</time>
      </trkpt>
      <trkpt lat="37.936008190736175" lon="23.78133407793939">
        <ele>655.2</ele>
        <time>2021-04-10T10:26:22.000Z</time>
      </trkpt>
      <trkpt lat="37.936016069725156" lon="23.78133156336844">
        <ele>655.4</ele>
        <time>2021-04-10T10:26:24.000Z</time>
      </trkpt>
      <trkpt lat="37.93602311052382" lon="23.78133743070066">
        <ele>655.6</ele>
        <time>2021-04-10T10:26:26.000Z</time>
      </trkpt>
      <trkpt lat="37.936037024483085" lon="23.781349835917354">
        <ele>655.6</ele>
        <time>2021-04-10T10:26:32.000Z</time>
      </trkpt>
      <trkpt lat="37.936029648408294" lon="23.781349500641227">
        <ele>655.8</ele>
        <time>2021-04-10T10:26:39.000Z</time>
      </trkpt>
      <trkpt lat="37.936021434143186" lon="23.781366934999824">
        <ele>655.8</ele>
        <time>2021-04-10T10:26:43.000Z</time>
      </trkpt>
      <trkpt lat="37.93603400699794" lon="23.781354781240225">
        <ele>656.2</ele>
        <time>2021-04-10T10:26:48.000Z</time>
      </trkpt>
      <trkpt lat="37.93603224679828" lon="23.78135402686894">
        <ele>656</ele>
        <time>2021-04-10T10:26:52.000Z</time>
      </trkpt>
      <trkpt lat="37.93600928038359" lon="23.781343633309007">
        <ele>655.4</ele>
        <time>2021-04-10T10:27:03.000Z</time>
      </trkpt>
      <trkpt lat="37.93600215576589" lon="23.78135201521218">
        <ele>655.4</ele>
        <time>2021-04-10T10:27:07.000Z</time>
      </trkpt>
      <trkpt lat="37.93600399978459" lon="23.78135017119348">
        <ele>655.4</ele>
        <time>2021-04-10T10:27:12.000Z</time>
      </trkpt>
      <trkpt lat="37.9360138066113" lon="23.781361235305667">
        <ele>655.4</ele>
        <time>2021-04-10T10:27:20.000Z</time>
      </trkpt>
      <trkpt lat="37.93601682409644" lon="23.781365007162094">
        <ele>655.4</ele>
        <time>2021-04-10T10:27:21.000Z</time>
      </trkpt>
      <trkpt lat="37.93601741082966" lon="23.7813716288656">
        <ele>655.4</ele>
        <time>2021-04-10T10:27:23.000Z</time>
      </trkpt>
      <trkpt lat="37.93601573444903" lon="23.78136190585792">
        <ele>655.4</ele>
        <time>2021-04-10T10:27:27.000Z</time>
      </trkpt>
      <trkpt lat="37.93602051213384" lon="23.781353859230876">
        <ele>655.4</ele>
        <time>2021-04-10T10:27:30.000Z</time>
      </trkpt>
      <trkpt lat="37.93602470308542" lon="23.78137405961752">
        <ele>655.4</ele>
        <time>2021-04-10T10:27:37.000Z</time>
      </trkpt>
      <trkpt lat="37.936024786904454" lon="23.781376741826534">
        <ele>655.4</ele>
        <time>2021-04-10T10:27:41.000Z</time>
      </trkpt>
      <trkpt lat="37.936024367809296" lon="23.781376406550407">
        <ele>655.4</ele>
        <time>2021-04-10T10:27:42.000Z</time>
      </trkpt>
      <trkpt lat="37.9360225237906" lon="23.781378166750073">
        <ele>655.4</ele>
        <time>2021-04-10T10:27:43.000Z</time>
      </trkpt>
      <trkpt lat="37.936019506305456" lon="23.78137791529298">
        <ele>655.4</ele>
        <time>2021-04-10T10:27:46.000Z</time>
      </trkpt>
      <trkpt lat="37.93601732701063" lon="23.78138671629131">
        <ele>655.4</ele>
        <time>2021-04-10T10:27:48.000Z</time>
      </trkpt>
      <trkpt lat="37.936014560982585" lon="23.78138931468129">
        <ele>655.4</ele>
        <time>2021-04-10T10:27:52.000Z</time>
      </trkpt>
      <trkpt lat="37.93602294288576" lon="23.781385039910674">
        <ele>655.4</ele>
        <time>2021-04-10T10:28:05.000Z</time>
      </trkpt>
      <trkpt lat="37.9360291454941" lon="23.78138487227261">
        <ele>655.4</ele>
        <time>2021-04-10T10:28:07.000Z</time>
      </trkpt>
      <trkpt lat="37.93603174388409" lon="23.781386883929372">
        <ele>655.4</ele>
        <time>2021-04-10T10:28:09.000Z</time>
      </trkpt>
      <trkpt lat="37.936027720570564" lon="23.781382776796818">
        <ele>655.4</ele>
        <time>2021-04-10T10:28:11.000Z</time>
      </trkpt>
      <trkpt lat="37.93602847494185" lon="23.781382609158754">
        <ele>655.4</ele>
        <time>2021-04-10T10:28:12.000Z</time>
      </trkpt>
      <trkpt lat="37.93602763675153" lon="23.78135310485959">
        <ele>655.4</ele>
        <time>2021-04-10T10:28:39.000Z</time>
      </trkpt>
      <trkpt lat="37.93601590208709" lon="23.78134187310934">
        <ele>655.4</ele>
        <time>2021-04-10T10:28:59.000Z</time>
      </trkpt>
      <trkpt lat="37.93601615354419" lon="23.78134380094707">
        <ele>655.4</ele>
        <time>2021-04-10T10:29:00.000Z</time>
      </trkpt>
      <trkpt lat="37.936011208221316" lon="23.781345477327704">
        <ele>655.4</ele>
        <time>2021-04-10T10:29:03.000Z</time>
      </trkpt>
      <trkpt lat="37.93601288460195" lon="23.781339693814516">
        <ele>655.4</ele>
        <time>2021-04-10T10:29:07.000Z</time>
      </trkpt>
      <trkpt lat="37.93601347133517" lon="23.781339190900326">
        <ele>655.4</ele>
        <time>2021-04-10T10:29:09.000Z</time>
      </trkpt>
      <trkpt lat="37.93602218851447" lon="23.781344639137387">
        <ele>655.4</ele>
        <time>2021-04-10T10:29:13.000Z</time>
      </trkpt>
      <trkpt lat="37.93601087294519" lon="23.78134815953672">
        <ele>655.4</ele>
        <time>2021-04-10T10:29:19.000Z</time>
      </trkpt>
      <trkpt lat="37.93601321987808" lon="23.781353272497654">
        <ele>655.4</ele>
        <time>2021-04-10T10:29:24.000Z</time>
      </trkpt>
      <trkpt lat="37.93601145967841" lon="23.78133994527161">
        <ele>655.4</ele>
        <time>2021-04-10T10:29:40.000Z</time>
      </trkpt>
      <trkpt lat="37.936009615659714" lon="23.781346064060926">
        <ele>655.4</ele>
        <time>2021-04-10T10:29:43.000Z</time>
      </trkpt>
      <trkpt lat="37.93599528260529" lon="23.781333826482296">
        <ele>655.4</ele>
        <time>2021-04-10T10:29:50.000Z</time>
      </trkpt>
      <trkpt lat="37.93600458651781" lon="23.781344890594482">
        <ele>655.4</ele>
        <time>2021-04-10T10:30:08.000Z</time>
      </trkpt>
      <trkpt lat="37.93601321987808" lon="23.78135696053505">
        <ele>655.4</ele>
        <time>2021-04-10T10:30:10.000Z</time>
      </trkpt>
      <trkpt lat="37.9360122140497" lon="23.78135746344924">
        <ele>655.4</ele>
        <time>2021-04-10T10:30:12.000Z</time>
      </trkpt>
      <trkpt lat="37.935892436653376" lon="23.781371880322695">
        <ele>655.4</ele>
        <time>2021-04-10T10:43:37.000Z</time>
      </trkpt>
      <trkpt lat="37.935892855748534" lon="23.78136919811368">
        <ele>655.4</ele>
        <time>2021-04-10T10:43:38.000Z</time>
      </trkpt>
      <trkpt lat="37.935890927910805" lon="23.781352434307337">
        <ele>656.8</ele>
        <time>2021-04-10T10:43:40.000Z</time>
      </trkpt>
      <trkpt lat="37.93588573113084" lon="23.781341956928372">
        <ele>657.8</ele>
        <time>2021-04-10T10:43:41.000Z</time>
      </trkpt>
      <trkpt lat="37.93587014079094" lon="23.781341034919024">
        <ele>658.8</ele>
        <time>2021-04-10T10:43:43.000Z</time>
      </trkpt>
      <trkpt lat="37.93585647828877" lon="23.78131597302854">
        <ele>659.4</ele>
        <time>2021-04-10T10:43:45.000Z</time>
      </trkpt>
      <trkpt lat="37.93583351187408" lon="23.781279176473618">
        <ele>660</ele>
        <time>2021-04-10T10:43:48.000Z</time>
      </trkpt>
      <trkpt lat="37.93582680635154" lon="23.78128462471068">
        <ele>660.2</ele>
        <time>2021-04-10T10:43:50.000Z</time>
      </trkpt>
      <trkpt lat="37.935803923755884" lon="23.78127481788397">
        <ele>660.6</ele>
        <time>2021-04-10T10:43:53.000Z</time>
      </trkpt>
      <trkpt lat="37.935781963169575" lon="23.781268363818526">
        <ele>660.8</ele>
        <time>2021-04-10T10:43:55.000Z</time>
      </trkpt>
      <trkpt lat="37.93577257543802" lon="23.781277919188142">
        <ele>661</ele>
        <time>2021-04-10T10:43:57.000Z</time>
      </trkpt>
      <trkpt lat="37.93576821684837" lon="23.781279176473618">
        <ele>661.2</ele>
        <time>2021-04-10T10:43:58.000Z</time>
      </trkpt>
      <trkpt lat="37.93574206531048" lon="23.781245732679963">
        <ele>661.4</ele>
        <time>2021-04-10T10:44:02.000Z</time>
      </trkpt>
      <trkpt lat="37.935740975663066" lon="23.781246738508344">
        <ele>661.4</ele>
        <time>2021-04-10T10:44:04.000Z</time>
      </trkpt>
      <trkpt lat="37.9357151594013" lon="23.78121480345726">
        <ele>661.4</ele>
        <time>2021-04-10T10:44:08.000Z</time>
      </trkpt>
      <trkpt lat="37.935690097510815" lon="23.781224861741066">
        <ele>661.2</ele>
        <time>2021-04-10T10:44:11.000Z</time>
      </trkpt>
      <trkpt lat="37.93566637672484" lon="23.78121681511402">
        <ele>661.6</ele>
        <time>2021-04-10T10:44:13.000Z</time>
      </trkpt>
      <trkpt lat="37.935637375339866" lon="23.78122746013105">
        <ele>662</ele>
        <time>2021-04-10T10:44:16.000Z</time>
      </trkpt>
      <trkpt lat="37.935631005093455" lon="23.781231064349413">
        <ele>662.4</ele>
        <time>2021-04-10T10:44:17.000Z</time>
      </trkpt>
      <trkpt lat="37.935626646503806" lon="23.7812783382833">
        <ele>662.6</ele>
        <time>2021-04-10T10:44:22.000Z</time>
      </trkpt>
      <trkpt lat="37.9356321785599" lon="23.78132821060717">
        <ele>663.6</ele>
        <time>2021-04-10T10:44:28.000Z</time>
      </trkpt>
      <trkpt lat="37.93563469313085" lon="23.7813422922045">
        <ele>664.8</ele>
        <time>2021-04-10T10:44:34.000Z</time>
      </trkpt>
      <trkpt lat="37.93562178499997" lon="23.781349919736385">
        <ele>665.8</ele>
        <time>2021-04-10T10:44:39.000Z</time>
      </trkpt>
      <trkpt lat="37.935603093355894" lon="23.7813526019454">
        <ele>666.2</ele>
        <time>2021-04-10T10:44:41.000Z</time>
      </trkpt>
      <trkpt lat="37.935590855777264" lon="23.78135067410767">
        <ele>666.2</ele>
        <time>2021-04-10T10:44:42.000Z</time>
      </trkpt>
      <trkpt lat="37.935554729774594" lon="23.78135545179248">
        <ele>666.6</ele>
        <time>2021-04-10T10:44:46.000Z</time>
      </trkpt>
      <trkpt lat="37.935545425862074" lon="23.78135939128697">
        <ele>666.8</ele>
        <time>2021-04-10T10:44:47.000Z</time>
      </trkpt>
      <trkpt lat="37.93553804978728" lon="23.781356289982796">
        <ele>667</ele>
        <time>2021-04-10T10:44:48.000Z</time>
      </trkpt>
      <trkpt lat="37.93552413582802" lon="23.78135461360216">
        <ele>667.8</ele>
        <time>2021-04-10T10:44:51.000Z</time>
      </trkpt>
      <trkpt lat="37.93551625683904" lon="23.781344974413514">
        <ele>668</ele>
        <time>2021-04-10T10:44:52.000Z</time>
      </trkpt>
      <trkpt lat="37.935509299859405" lon="23.781329886987805">
        <ele>668</ele>
        <time>2021-04-10T10:44:53.000Z</time>
      </trkpt>
      <trkpt lat="37.93549605645239" lon="23.78131354227662">
        <ele>668.2</ele>
        <time>2021-04-10T10:44:55.000Z</time>
      </trkpt>
      <trkpt lat="37.93548725545406" lon="23.781314548105">
        <ele>668.6</ele>
        <time>2021-04-10T10:44:57.000Z</time>
      </trkpt>
      <trkpt lat="37.93548038229346" lon="23.78132083453238">
        <ele>668.8</ele>
        <time>2021-04-10T10:44:59.000Z</time>
      </trkpt>
      <trkpt lat="37.93546663597226" lon="23.781302059069276">
        <ele>669</ele>
        <time>2021-04-10T10:45:01.000Z</time>
      </trkpt>
      <trkpt lat="37.935460936278105" lon="23.781300466507673">
        <ele>669.2</ele>
        <time>2021-04-10T10:45:02.000Z</time>
      </trkpt>
      <trkpt lat="37.93544392101467" lon="23.781295185908675">
        <ele>669.4</ele>
        <time>2021-04-10T10:45:04.000Z</time>
      </trkpt>
      <trkpt lat="37.93542606756091" lon="23.781302981078625">
        <ele>669.6</ele>
        <time>2021-04-10T10:45:06.000Z</time>
      </trkpt>
      <trkpt lat="37.93541659601033" lon="23.781307842582464">
        <ele>669.6</ele>
        <time>2021-04-10T10:45:07.000Z</time>
      </trkpt>
      <trkpt lat="37.935407627373934" lon="23.781311446800828">
        <ele>669.8</ele>
        <time>2021-04-10T10:45:08.000Z</time>
      </trkpt>
      <trkpt lat="37.9353853315115" lon="23.781360145658255">
        <ele>670.2</ele>
        <time>2021-04-10T10:45:13.000Z</time>
      </trkpt>
      <trkpt lat="37.93538239784539" lon="23.781381687149405">
        <ele>670.4</ele>
        <time>2021-04-10T10:45:16.000Z</time>
      </trkpt>
      <trkpt lat="37.93538994155824" lon="23.781407503411174">
        <ele>671</ele>
        <time>2021-04-10T10:45:19.000Z</time>
      </trkpt>
      <trkpt lat="37.93539245612919" lon="23.781411359086633">
        <ele>671.4</ele>
        <time>2021-04-10T10:45:20.000Z</time>
      </trkpt>
      <trkpt lat="37.93542296625674" lon="23.78143172711134">
        <ele>672</ele>
        <time>2021-04-10T10:45:25.000Z</time>
      </trkpt>
      <trkpt lat="37.93542942032218" lon="23.781459387391806">
        <ele>672.4</ele>
        <time>2021-04-10T10:45:27.000Z</time>
      </trkpt>
      <trkpt lat="37.93542707338929" lon="23.781496603041887">
        <ele>673.2</ele>
        <time>2021-04-10T10:45:31.000Z</time>
      </trkpt>
      <trkpt lat="37.93540645390749" lon="23.78153876401484">
        <ele>673.6</ele>
        <time>2021-04-10T10:45:36.000Z</time>
      </trkpt>
      <trkpt lat="37.93538943864405" lon="23.781545720994473">
        <ele>674</ele>
        <time>2021-04-10T10:45:38.000Z</time>
      </trkpt>
      <trkpt lat="37.93535674922168" lon="23.78155343234539">
        <ele>674.8</ele>
        <time>2021-04-10T10:45:42.000Z</time>
      </trkpt>
      <trkpt lat="37.93534107506275" lon="23.781557120382786">
        <ele>675.2</ele>
        <time>2021-04-10T10:45:45.000Z</time>
      </trkpt>
      <trkpt lat="37.93533864431083" lon="23.781573297455907">
        <ele>675.8</ele>
        <time>2021-04-10T10:45:49.000Z</time>
      </trkpt>
      <trkpt lat="37.93533965013921" lon="23.781578242778778">
        <ele>675.8</ele>
        <time>2021-04-10T10:45:50.000Z</time>
      </trkpt>
      <trkpt lat="37.93533571064472" lon="23.781586959958076">
        <ele>675.8</ele>
        <time>2021-04-10T10:45:51.000Z</time>
      </trkpt>
      <trkpt lat="37.93532473035157" lon="23.78161545842886">
        <ele>677</ele>
        <time>2021-04-10T10:45:55.000Z</time>
      </trkpt>
      <trkpt lat="37.93531911447644" lon="23.781639682129025">
        <ele>677.4</ele>
        <time>2021-04-10T10:45:58.000Z</time>
      </trkpt>
      <trkpt lat="37.93531224131584" lon="23.781652003526688">
        <ele>678</ele>
        <time>2021-04-10T10:46:01.000Z</time>
      </trkpt>
      <trkpt lat="37.93530645780265" lon="23.781688548624516">
        <ele>678.8</ele>
        <time>2021-04-10T10:46:05.000Z</time>
      </trkpt>
      <trkpt lat="37.935312828049064" lon="23.78171319141984">
        <ele>679</ele>
        <time>2021-04-10T10:46:07.000Z</time>
      </trkpt>
      <trkpt lat="37.93531592935324" lon="23.78173230215907">
        <ele>679.2</ele>
        <time>2021-04-10T10:46:10.000Z</time>
      </trkpt>
      <trkpt lat="37.93531324714422" lon="23.781741857528687">
        <ele>679.4</ele>
        <time>2021-04-10T10:46:12.000Z</time>
      </trkpt>
      <trkpt lat="37.93530444614589" lon="23.781760213896632">
        <ele>680.2</ele>
        <time>2021-04-10T10:46:15.000Z</time>
      </trkpt>
      <trkpt lat="37.93529028072953" lon="23.78177287057042">
        <ele>680.4</ele>
        <time>2021-04-10T10:46:17.000Z</time>
      </trkpt>
      <trkpt lat="37.93529321439564" lon="23.78181922249496">
        <ele>681.4</ele>
        <time>2021-04-10T10:46:23.000Z</time>
      </trkpt>
      <trkpt lat="37.935300171375275" lon="23.781834226101637">
        <ele>681.6</ele>
        <time>2021-04-10T10:46:24.000Z</time>
      </trkpt>
      <trkpt lat="37.93531022965908" lon="23.781853755936027">
        <ele>682</ele>
        <time>2021-04-10T10:46:26.000Z</time>
      </trkpt>
      <trkpt lat="37.93531743809581" lon="23.781868256628513">
        <ele>682.4</ele>
        <time>2021-04-10T10:46:28.000Z</time>
      </trkpt>
      <trkpt lat="37.9353300947696" lon="23.781897677108645">
        <ele>682.6</ele>
        <time>2021-04-10T10:46:31.000Z</time>
      </trkpt>
      <trkpt lat="37.9353385604918" lon="23.78192374482751">
        <ele>683.4</ele>
        <time>2021-04-10T10:46:34.000Z</time>
      </trkpt>
      <trkpt lat="37.93534585274756" lon="23.78192910924554">
        <ele>683.6</ele>
        <time>2021-04-10T10:46:35.000Z</time>
      </trkpt>
      <trkpt lat="37.9353525582701" lon="23.781940257176757">
        <ele>683.6</ele>
        <time>2021-04-10T10:46:36.000Z</time>
      </trkpt>
      <trkpt lat="37.93536052107811" lon="23.781952830031514">
        <ele>683.8</ele>
        <time>2021-04-10T10:46:38.000Z</time>
      </trkpt>
      <trkpt lat="37.93536295183003" lon="23.781957775354385">
        <ele>684</ele>
        <time>2021-04-10T10:46:39.000Z</time>
      </trkpt>
      <trkpt lat="37.9353660531342" lon="23.781968923285604">
        <ele>684.6</ele>
        <time>2021-04-10T10:46:42.000Z</time>
      </trkpt>
      <trkpt lat="37.93536555022001" lon="23.781979735940695">
        <ele>685</ele>
        <time>2021-04-10T10:46:43.000Z</time>
      </trkpt>
      <trkpt lat="37.93536487966776" lon="23.781996248289943">
        <ele>685</ele>
        <time>2021-04-10T10:46:44.000Z</time>
      </trkpt>
      <trkpt lat="37.935382733121514" lon="23.782039918005466">
        <ele>685.6</ele>
        <time>2021-04-10T10:46:48.000Z</time>
      </trkpt>
      <trkpt lat="37.93538583442569" lon="23.782049473375082">
        <ele>685.8</ele>
        <time>2021-04-10T10:46:49.000Z</time>
      </trkpt>
      <trkpt lat="37.935393042862415" lon="23.78205676563084">
        <ele>686</ele>
        <time>2021-04-10T10:46:50.000Z</time>
      </trkpt>
      <trkpt lat="37.93539756909013" lon="23.782066572457552">
        <ele>686.2</ele>
        <time>2021-04-10T10:46:51.000Z</time>
      </trkpt>
      <trkpt lat="37.93543436564505" lon="23.782090041786432">
        <ele>687</ele>
        <time>2021-04-10T10:46:55.000Z</time>
      </trkpt>
      <trkpt lat="37.93544274754822" lon="23.782102530822158">
        <ele>687.2</ele>
        <time>2021-04-10T10:46:56.000Z</time>
      </trkpt>
      <trkpt lat="37.93545054271817" lon="23.782112253829837">
        <ele>687.4</ele>
        <time>2021-04-10T10:46:57.000Z</time>
      </trkpt>
      <trkpt lat="37.9354611877352" lon="23.782144440338016">
        <ele>687.8</ele>
        <time>2021-04-10T10:47:01.000Z</time>
      </trkpt>
      <trkpt lat="37.935457583516836" lon="23.78215198405087">
        <ele>687.8</ele>
        <time>2021-04-10T10:47:02.000Z</time>
      </trkpt>
      <trkpt lat="37.93545096181333" lon="23.78216573037207">
        <ele>688</ele>
        <time>2021-04-10T10:47:03.000Z</time>
      </trkpt>
      <trkpt lat="37.935443334281445" lon="23.782171262428164">
        <ele>688.2</ele>
        <time>2021-04-10T10:47:04.000Z</time>
      </trkpt>
      <trkpt lat="37.935431683436036" lon="23.782174279913306">
        <ele>688.6</ele>
        <time>2021-04-10T10:47:07.000Z</time>
      </trkpt>
      <trkpt lat="37.93543084524572" lon="23.7821798119694">
        <ele>688.8</ele>
        <time>2021-04-10T10:47:08.000Z</time>
      </trkpt>
      <trkpt lat="37.93542900122702" lon="23.782185092568398">
        <ele>689.2</ele>
        <time>2021-04-10T10:47:09.000Z</time>
      </trkpt>
      <trkpt lat="37.93540402315557" lon="23.782232785597444">
        <ele>690</ele>
        <time>2021-04-10T10:47:15.000Z</time>
      </trkpt>
      <trkpt lat="37.93538792990148" lon="23.782233875244856">
        <ele>690.2</ele>
        <time>2021-04-10T10:47:17.000Z</time>
      </trkpt>
      <trkpt lat="37.93538340367377" lon="23.782237395644188">
        <ele>690.2</ele>
        <time>2021-04-10T10:47:18.000Z</time>
      </trkpt>
      <trkpt lat="37.93536538258195" lon="23.782272348180413">
        <ele>691</ele>
        <time>2021-04-10T10:47:21.000Z</time>
      </trkpt>
      <trkpt lat="37.93535968288779" lon="23.78228592686355">
        <ele>691.2</ele>
        <time>2021-04-10T10:47:22.000Z</time>
      </trkpt>
      <trkpt lat="37.93535901233554" lon="23.782350216060877">
        <ele>692.2</ele>
        <time>2021-04-10T10:47:28.000Z</time>
      </trkpt>
      <trkpt lat="37.93536094017327" lon="23.782359017059207">
        <ele>692.4</ele>
        <time>2021-04-10T10:47:29.000Z</time>
      </trkpt>
      <trkpt lat="37.93536010198295" lon="23.782382486388087">
        <ele>692.8</ele>
        <time>2021-04-10T10:47:31.000Z</time>
      </trkpt>
      <trkpt lat="37.935363706201315" lon="23.78240847028792">
        <ele>693.4</ele>
        <time>2021-04-10T10:47:34.000Z</time>
      </trkpt>
      <trkpt lat="37.93536680750549" lon="23.782419115304947">
        <ele>693.6</ele>
        <time>2021-04-10T10:47:35.000Z</time>
      </trkpt>
      <trkpt lat="37.93535993434489" lon="23.78244560211897">
        <ele>694.2</ele>
        <time>2021-04-10T10:47:41.000Z</time>
      </trkpt>
      <trkpt lat="37.93534442782402" lon="23.782458174973726">
        <ele>694.6</ele>
        <time>2021-04-10T10:47:43.000Z</time>
      </trkpt>
      <trkpt lat="37.935322215780616" lon="23.782485080882907">
        <ele>695.6</ele>
        <time>2021-04-10T10:47:47.000Z</time>
      </trkpt>
      <trkpt lat="37.935318276286125" lon="23.782487930729985">
        <ele>695.8</ele>
        <time>2021-04-10T10:47:48.000Z</time>
      </trkpt>
      <trkpt lat="37.93529941700399" lon="23.78249312750995">
        <ele>696</ele>
        <time>2021-04-10T10:47:51.000Z</time>
      </trkpt>
      <trkpt lat="37.93528441339731" lon="23.78250913694501">
        <ele>696.4</ele>
        <time>2021-04-10T10:47:55.000Z</time>
      </trkpt>
      <trkpt lat="37.93528240174055" lon="23.782511819154024">
        <ele>696.6</ele>
        <time>2021-04-10T10:47:56.000Z</time>
      </trkpt>
      <trkpt lat="37.935279132798314" lon="23.78252196125686">
        <ele>696.8</ele>
        <time>2021-04-10T10:47:58.000Z</time>
      </trkpt>
      <trkpt lat="37.935274774208665" lon="23.78253805451095">
        <ele>697</ele>
        <time>2021-04-10T10:48:00.000Z</time>
      </trkpt>
      <trkpt lat="37.93527712114155" lon="23.78254828043282">
        <ele>697.4</ele>
        <time>2021-04-10T10:48:04.000Z</time>
      </trkpt>
      <trkpt lat="37.93528231792152" lon="23.78256395459175">
        <ele>697.4</ele>
        <time>2021-04-10T10:48:05.000Z</time>
      </trkpt>
      <trkpt lat="37.93529748916626" lon="23.782614581286907">
        <ele>697.8</ele>
        <time>2021-04-10T10:48:10.000Z</time>
      </trkpt>
      <trkpt lat="37.93530042283237" lon="23.782637380063534">
        <ele>698.2</ele>
        <time>2021-04-10T10:48:12.000Z</time>
      </trkpt>
      <trkpt lat="37.93529782444239" lon="23.78266168758273">
        <ele>698.4</ele>
        <time>2021-04-10T10:48:14.000Z</time>
      </trkpt>
      <trkpt lat="37.93529405258596" lon="23.782663447782397">
        <ele>698.8</ele>
        <time>2021-04-10T10:48:15.000Z</time>
      </trkpt>
      <trkpt lat="37.935290951281786" lon="23.78266897983849">
        <ele>699</ele>
        <time>2021-04-10T10:48:16.000Z</time>
      </trkpt>
      <trkpt lat="37.93528818525374" lon="23.782672584056854">
        <ele>699.2</ele>
        <time>2021-04-10T10:48:17.000Z</time>
      </trkpt>
      <trkpt lat="37.93528290465474" lon="23.782702507451177">
        <ele>699.8</ele>
        <time>2021-04-10T10:48:21.000Z</time>
      </trkpt>
      <trkpt lat="37.93527443893254" lon="23.78272128291428">
        <ele>700</ele>
        <time>2021-04-10T10:48:24.000Z</time>
      </trkpt>
      <trkpt lat="37.93526127934456" lon="23.782762186601758">
        <ele>700.6</ele>
        <time>2021-04-10T10:48:28.000Z</time>
      </trkpt>
      <trkpt lat="37.935250382870436" lon="23.7827911041677">
        <ele>701.2</ele>
        <time>2021-04-10T10:48:31.000Z</time>
      </trkpt>
      <trkpt lat="37.93524677865207" lon="23.78283502534032">
        <ele>702</ele>
        <time>2021-04-10T10:48:34.000Z</time>
      </trkpt>
      <trkpt lat="37.935249796137214" lon="23.782845083624125">
        <ele>702</ele>
        <time>2021-04-10T10:48:35.000Z</time>
      </trkpt>
      <trkpt lat="37.935251388698816" lon="23.78286243416369">
        <ele>702.2</ele>
        <time>2021-04-10T10:48:37.000Z</time>
      </trkpt>
      <trkpt lat="37.93524174951017" lon="23.782901745289564">
        <ele>703</ele>
        <time>2021-04-10T10:48:43.000Z</time>
      </trkpt>
      <trkpt lat="37.93521895073354" lon="23.782928232103586">
        <ele>703.6</ele>
        <time>2021-04-10T10:48:46.000Z</time>
      </trkpt>
      <trkpt lat="37.93520310893655" lon="23.78297441639006">
        <ele>704.4</ele>
        <time>2021-04-10T10:48:50.000Z</time>
      </trkpt>
      <trkpt lat="37.93520227074623" lon="23.782985480502248">
        <ele>704.6</ele>
        <time>2021-04-10T10:48:51.000Z</time>
      </trkpt>
      <trkpt lat="37.935198498889804" lon="23.783015236258507">
        <ele>705.6</ele>
        <time>2021-04-10T10:48:55.000Z</time>
      </trkpt>
      <trkpt lat="37.93519942089915" lon="23.78302319906652">
        <ele>705.6</ele>
        <time>2021-04-10T10:48:56.000Z</time>
      </trkpt>
      <trkpt lat="37.93515097349882" lon="23.78304474055767">
        <ele>706.4</ele>
        <time>2021-04-10T10:49:03.000Z</time>
      </trkpt>
      <trkpt lat="37.93513856828213" lon="23.783047338947654">
        <ele>706.6</ele>
        <time>2021-04-10T10:49:05.000Z</time>
      </trkpt>
      <trkpt lat="37.9351295158267" lon="23.783111041411757">
        <ele>707</ele>
        <time>2021-04-10T10:49:09.000Z</time>
      </trkpt>
      <trkpt lat="37.935130186378956" lon="23.783117663115263">
        <ele>707.2</ele>
        <time>2021-04-10T10:49:10.000Z</time>
      </trkpt>
      <trkpt lat="37.93512582778931" lon="23.783141300082207">
        <ele>707.6</ele>
        <time>2021-04-10T10:49:13.000Z</time>
      </trkpt>
      <trkpt lat="37.93511518277228" lon="23.78314691595733">
        <ele>707.6</ele>
        <time>2021-04-10T10:49:15.000Z</time>
      </trkpt>
      <trkpt lat="37.935111578553915" lon="23.783154543489218">
        <ele>707.6</ele>
        <time>2021-04-10T10:49:16.000Z</time>
      </trkpt>
      <trkpt lat="37.93510512448847" lon="23.78315806388855">
        <ele>707.8</ele>
        <time>2021-04-10T10:49:17.000Z</time>
      </trkpt>
      <trkpt lat="37.93509523384273" lon="23.783169128000736">
        <ele>708.4</ele>
        <time>2021-04-10T10:49:19.000Z</time>
      </trkpt>
      <trkpt lat="37.935082325711846" lon="23.783204331994057">
        <ele>708.8</ele>
        <time>2021-04-10T10:49:23.000Z</time>
      </trkpt>
      <trkpt lat="37.93507997877896" lon="23.7832142226398">
        <ele>709</ele>
        <time>2021-04-10T10:49:24.000Z</time>
      </trkpt>
      <trkpt lat="37.93507620692253" lon="23.7832245323807">
        <ele>709.2</ele>
        <time>2021-04-10T10:49:25.000Z</time>
      </trkpt>
      <trkpt lat="37.93506405316293" lon="23.783263759687543">
        <ele>710</ele>
        <time>2021-04-10T10:49:28.000Z</time>
      </trkpt>
      <trkpt lat="37.935040667653084" lon="23.78331145271659">
        <ele>710.6</ele>
        <time>2021-04-10T10:49:32.000Z</time>
      </trkpt>
      <trkpt lat="37.935024574398994" lon="23.783335592597723">
        <ele>711.2</ele>
        <time>2021-04-10T10:49:35.000Z</time>
      </trkpt>
      <trkpt lat="37.9349968302995" lon="23.78336568363011">
        <ele>711.6</ele>
        <time>2021-04-10T10:49:40.000Z</time>
      </trkpt>
      <trkpt lat="37.93496833182871" lon="23.78340139053762">
        <ele>712.2</ele>
        <time>2021-04-10T10:49:45.000Z</time>
      </trkpt>
      <trkpt lat="37.93496464379132" lon="23.7834092695266">
        <ele>712.4</ele>
        <time>2021-04-10T10:49:46.000Z</time>
      </trkpt>
      <trkpt lat="37.93496070429683" lon="23.783417399972677">
        <ele>712.4</ele>
        <time>2021-04-10T10:49:47.000Z</time>
      </trkpt>
      <trkpt lat="37.93494955636561" lon="23.783433912321925">
        <ele>713</ele>
        <time>2021-04-10T10:49:52.000Z</time>
      </trkpt>
      <trkpt lat="37.93494561687112" lon="23.783458974212408">
        <ele>713</ele>
        <time>2021-04-10T10:49:54.000Z</time>
      </trkpt>
      <trkpt lat="37.93492843396962" lon="23.78348051570356">
        <ele>713.4</ele>
        <time>2021-04-10T10:49:56.000Z</time>
      </trkpt>
      <trkpt lat="37.93487931601703" lon="23.78354899585247">
        <ele>714.4</ele>
        <time>2021-04-10T10:50:03.000Z</time>
      </trkpt>
      <trkpt lat="37.93487529270351" lon="23.78355871886015">
        <ele>714.6</ele>
        <time>2021-04-10T10:50:04.000Z</time>
      </trkpt>
      <trkpt lat="37.93486313894391" lon="23.783581936731935">
        <ele>715.2</ele>
        <time>2021-04-10T10:50:07.000Z</time>
      </trkpt>
      <trkpt lat="37.93485567905009" lon="23.783585792407393">
        <ele>715.2</ele>
        <time>2021-04-10T10:50:10.000Z</time>
      </trkpt>
      <trkpt lat="37.934850146993995" lon="23.78358277492225">
        <ele>715.2</ele>
        <time>2021-04-10T10:50:13.000Z</time>
      </trkpt>
      <trkpt lat="37.93484880588949" lon="23.783593168482184">
        <ele>715.4</ele>
        <time>2021-04-10T10:50:15.000Z</time>
      </trkpt>
      <trkpt lat="37.934822738170624" lon="23.783622169867158">
        <ele>716</ele>
        <time>2021-04-10T10:50:18.000Z</time>
      </trkpt>
      <trkpt lat="37.93480237014592" lon="23.78365502692759">
        <ele>716.6</ele>
        <time>2021-04-10T10:50:22.000Z</time>
      </trkpt>
      <trkpt lat="37.93479172512889" lon="23.783682687208056">
        <ele>716.8</ele>
        <time>2021-04-10T10:50:26.000Z</time>
      </trkpt>
      <trkpt lat="37.93477177619934" lon="23.78372685983777">
        <ele>717</ele>
        <time>2021-04-10T10:50:30.000Z</time>
      </trkpt>
      <trkpt lat="37.934755850583315" lon="23.78374538384378">
        <ele>717.4</ele>
        <time>2021-04-10T10:50:33.000Z</time>
      </trkpt>
      <trkpt lat="37.93474713340402" lon="23.783750412985682">
        <ele>717.6</ele>
        <time>2021-04-10T10:50:34.000Z</time>
      </trkpt>
      <trkpt lat="37.9347238317132" lon="23.783764075487852">
        <ele>718.4</ele>
        <time>2021-04-10T10:50:37.000Z</time>
      </trkpt>
      <trkpt lat="37.934714863076806" lon="23.783784108236432">
        <ele>718.4</ele>
        <time>2021-04-10T10:50:39.000Z</time>
      </trkpt>
      <trkpt lat="37.93470723554492" lon="23.78379676491022">
        <ele>718.6</ele>
        <time>2021-04-10T10:50:40.000Z</time>
      </trkpt>
      <trkpt lat="37.93469650670886" lon="23.783814031630754">
        <ele>718.6</ele>
        <time>2021-04-10T10:50:41.000Z</time>
      </trkpt>
      <trkpt lat="37.93466406874359" lon="23.783844793215394">
        <ele>719.2</ele>
        <time>2021-04-10T10:50:45.000Z</time>
      </trkpt>
      <trkpt lat="37.9346442874521" lon="23.78386708907783">
        <ele>719.6</ele>
        <time>2021-04-10T10:50:48.000Z</time>
      </trkpt>
      <trkpt lat="37.93458511121571" lon="23.783928947523236">
        <ele>719.8</ele>
        <time>2021-04-10T10:50:56.000Z</time>
      </trkpt>
      <trkpt lat="37.93456901796162" lon="23.783952752128243">
        <ele>720</ele>
        <time>2021-04-10T10:50:59.000Z</time>
      </trkpt>
      <trkpt lat="37.934560887515545" lon="23.78396473824978">
        <ele>720.8</ele>
        <time>2021-04-10T10:51:01.000Z</time>
      </trkpt>
      <trkpt lat="37.93455191887915" lon="23.783969013020396">
        <ele>721.2</ele>
        <time>2021-04-10T10:51:03.000Z</time>
      </trkpt>
      <trkpt lat="37.934544710442424" lon="23.783965660259128">
        <ele>721.2</ele>
        <time>2021-04-10T10:51:04.000Z</time>
      </trkpt>
      <trkpt lat="37.93453901074827" lon="23.78396633081138">
        <ele>721.4</ele>
        <time>2021-04-10T10:51:05.000Z</time>
      </trkpt>
      <trkpt lat="37.93452937155962" lon="23.783958200365305">
        <ele>721.4</ele>
        <time>2021-04-10T10:51:09.000Z</time>
      </trkpt>
      <trkpt lat="37.93452107347548" lon="23.78395694307983">
        <ele>721.6</ele>
        <time>2021-04-10T10:51:14.000Z</time>
      </trkpt>
      <trkpt lat="37.93452207930386" lon="23.78402190282941">
        <ele>721.4</ele>
        <time>2021-04-10T10:51:23.000Z</time>
      </trkpt>
      <trkpt lat="37.934519313275814" lon="23.784006144851446">
        <ele>721.8</ele>
        <time>2021-04-10T10:51:27.000Z</time>
      </trkpt>
      <trkpt lat="37.9345235042274" lon="23.784001702442765">
        <ele>722</ele>
        <time>2021-04-10T10:51:30.000Z</time>
      </trkpt>
      <trkpt lat="37.934528114274144" lon="23.783987620845437">
        <ele>721.2</ele>
        <time>2021-04-10T10:51:36.000Z</time>
      </trkpt>
      <trkpt lat="37.93451973237097" lon="23.783984435722232">
        <ele>721.4</ele>
        <time>2021-04-10T10:51:38.000Z</time>
      </trkpt>
      <trkpt lat="37.934520319104195" lon="23.783980077132583">
        <ele>721.8</ele>
        <time>2021-04-10T10:51:42.000Z</time>
      </trkpt>
      <trkpt lat="37.93452207930386" lon="23.783902544528246">
        <ele>721.2</ele>
        <time>2021-04-10T10:51:47.000Z</time>
      </trkpt>
      <trkpt lat="37.934547727927566" lon="23.78385728225112">
        <ele>721.2</ele>
        <time>2021-04-10T10:51:51.000Z</time>
      </trkpt>
      <trkpt lat="37.934553595259786" lon="23.7838289514184">
        <ele>720.8</ele>
        <time>2021-04-10T10:51:53.000Z</time>
      </trkpt>
      <trkpt lat="37.93455619364977" lon="23.7838152050972">
        <ele>720.6</ele>
        <time>2021-04-10T10:51:54.000Z</time>
      </trkpt>
      <trkpt lat="37.934558959677815" lon="23.783807326108217">
        <ele>720.6</ele>
        <time>2021-04-10T10:51:55.000Z</time>
      </trkpt>
      <trkpt lat="37.93456910178065" lon="23.78380891866982">
        <ele>720.2</ele>
        <time>2021-04-10T10:51:58.000Z</time>
      </trkpt>
      <trkpt lat="37.93457128107548" lon="23.78381964750588">
        <ele>720</ele>
        <time>2021-04-10T10:52:01.000Z</time>
      </trkpt>
      <trkpt lat="37.934559462592006" lon="23.783823000267148">
        <ele>720.2</ele>
        <time>2021-04-10T10:52:09.000Z</time>
      </trkpt>
      <trkpt lat="37.93454546481371" lon="23.78379425033927">
        <ele>719.8</ele>
        <time>2021-04-10T10:52:16.000Z</time>
      </trkpt>
      <trkpt lat="37.93453515507281" lon="23.783791149035096">
        <ele>719.8</ele>
        <time>2021-04-10T10:52:24.000Z</time>
      </trkpt>
      <trkpt lat="37.93456055223942" lon="23.783808834850788">
        <ele>719.8</ele>
        <time>2021-04-10T10:52:30.000Z</time>
      </trkpt>
      <trkpt lat="37.93456507846713" lon="23.783811768516898">
        <ele>720</ele>
        <time>2021-04-10T10:52:31.000Z</time>
      </trkpt>
      <trkpt lat="37.934565832838416" lon="23.783813444897532">
        <ele>720</ele>
        <time>2021-04-10T10:52:32.000Z</time>
      </trkpt>
      <trkpt lat="37.93456491082907" lon="23.783906903117895">
        <ele>720</ele>
        <time>2021-04-10T10:52:40.000Z</time>
      </trkpt>
      <trkpt lat="37.93456348590553" lon="23.783923499286175">
        <ele>720</ele>
        <time>2021-04-10T10:52:42.000Z</time>
      </trkpt>
      <trkpt lat="37.93455418199301" lon="23.78393833525479">
        <ele>720.2</ele>
        <time>2021-04-10T10:52:45.000Z</time>
      </trkpt>
      <trkpt lat="37.93453230522573" lon="23.783973874524236">
        <ele>720.8</ele>
        <time>2021-04-10T10:52:51.000Z</time>
      </trkpt>
      <trkpt lat="37.93453029356897" lon="23.78397261723876">
        <ele>721</ele>
        <time>2021-04-10T10:52:52.000Z</time>
      </trkpt>
      <trkpt lat="37.93452451005578" lon="23.78397312015295">
        <ele>721</ele>
        <time>2021-04-10T10:52:53.000Z</time>
      </trkpt>
      <trkpt lat="37.934515876695514" lon="23.783987872302532">
        <ele>721</ele>
        <time>2021-04-10T10:52:56.000Z</time>
      </trkpt>
      <trkpt lat="37.93451436795294" lon="23.7839946616441">
        <ele>721</ele>
        <time>2021-04-10T10:52:57.000Z</time>
      </trkpt>
      <trkpt lat="37.934510093182325" lon="23.78398141823709">
        <ele>721.2</ele>
        <time>2021-04-10T10:53:02.000Z</time>
      </trkpt>
      <trkpt lat="37.934518391266465" lon="23.783982759341598">
        <ele>721.4</ele>
        <time>2021-04-10T10:53:05.000Z</time>
      </trkpt>
      <trkpt lat="37.93452492915094" lon="23.78398879431188">
        <ele>721.4</ele>
        <time>2021-04-10T10:53:08.000Z</time>
      </trkpt>
      <trkpt lat="37.934531131759286" lon="23.783985106274486">
        <ele>721.8</ele>
        <time>2021-04-10T10:53:14.000Z</time>
      </trkpt>
      <trkpt lat="37.934533562511206" lon="23.783984016627073">
        <ele>721.8</ele>
        <time>2021-04-10T10:53:16.000Z</time>
      </trkpt>
      <trkpt lat="37.93453096412122" lon="23.783984519541264">
        <ele>722</ele>
        <time>2021-04-10T10:53:23.000Z</time>
      </trkpt>
      <trkpt lat="37.93452258221805" lon="23.783987537026405">
        <ele>722</ele>
        <time>2021-04-10T10:53:24.000Z</time>
      </trkpt>
      <trkpt lat="37.93452149257064" lon="23.78398586064577">
        <ele>722</ele>
        <time>2021-04-10T10:53:25.000Z</time>
      </trkpt>
      <trkpt lat="37.93452585116029" lon="23.783988626673818">
        <ele>721.4</ele>
        <time>2021-04-10T10:53:30.000Z</time>
      </trkpt>
      <trkpt lat="37.9345287848264" lon="23.783999104052782">
        <ele>721.4</ele>
        <time>2021-04-10T10:53:31.000Z</time>
      </trkpt>
      <trkpt lat="37.93452660553157" lon="23.783991979435086">
        <ele>721.6</ele>
        <time>2021-04-10T10:53:35.000Z</time>
      </trkpt>
      <trkpt lat="37.93451679870486" lon="23.78400136716664">
        <ele>721.4</ele>
        <time>2021-04-10T10:53:38.000Z</time>
      </trkpt>
      <trkpt lat="37.93450397439301" lon="23.783997930586338">
        <ele>721.2</ele>
        <time>2021-04-10T10:53:43.000Z</time>
      </trkpt>
      <trkpt lat="37.93450657278299" lon="23.783985441550612">
        <ele>721.8</ele>
        <time>2021-04-10T10:53:49.000Z</time>
      </trkpt>
      <trkpt lat="37.93450338765979" lon="23.783984603360295">
        <ele>721.8</ele>
        <time>2021-04-10T10:53:50.000Z</time>
      </trkpt>
      <trkpt lat="37.93450053781271" lon="23.783985106274486">
        <ele>721.8</ele>
        <time>2021-04-10T10:53:51.000Z</time>
      </trkpt>
      <trkpt lat="37.93450347147882" lon="23.783981669694185">
        <ele>722</ele>
        <time>2021-04-10T10:53:53.000Z</time>
      </trkpt>
      <trkpt lat="37.93451244011521" lon="23.78397462889552">
        <ele>721.8</ele>
        <time>2021-04-10T10:53:55.000Z</time>
      </trkpt>
      <trkpt lat="37.934527108445764" lon="23.783971946686506">
        <ele>721.8</ele>
        <time>2021-04-10T10:53:58.000Z</time>
      </trkpt>
      <trkpt lat="37.93451914563775" lon="23.784037409350276">
        <ele>721.6</ele>
        <time>2021-04-10T10:54:05.000Z</time>
      </trkpt>
      <trkpt lat="37.93449810706079" lon="23.784061297774315">
        <ele>722.4</ele>
        <time>2021-04-10T10:54:11.000Z</time>
      </trkpt>
      <trkpt lat="37.9345044773072" lon="23.784059789031744">
        <ele>722.8</ele>
        <time>2021-04-10T10:54:12.000Z</time>
      </trkpt>
      <trkpt lat="37.9345063213259" lon="23.784061213955283">
        <ele>722.8</ele>
        <time>2021-04-10T10:54:13.000Z</time>
      </trkpt>
      <trkpt lat="37.93449860997498" lon="23.784062638878822">
        <ele>722.8</ele>
        <time>2021-04-10T10:54:16.000Z</time>
      </trkpt>
      <trkpt lat="37.93449567630887" lon="23.78406498581171">
        <ele>722.8</ele>
        <time>2021-04-10T10:54:17.000Z</time>
      </trkpt>
      <trkpt lat="37.93448436073959" lon="23.784073451533914">
        <ele>722.4</ele>
        <time>2021-04-10T10:54:19.000Z</time>
      </trkpt>
      <trkpt lat="37.934381514787674" lon="23.78415785729885">
        <ele>722.4</ele>
        <time>2021-04-10T10:54:28.000Z</time>
      </trkpt>
      <trkpt lat="37.934363996610045" lon="23.784223487600684">
        <ele>722.6</ele>
        <time>2021-04-10T10:54:34.000Z</time>
      </trkpt>
      <trkpt lat="37.93433449231088" lon="23.784299679100513">
        <ele>722.6</ele>
        <time>2021-04-10T10:54:40.000Z</time>
      </trkpt>
      <trkpt lat="37.934315130114555" lon="23.784326501190662">
        <ele>722.4</ele>
        <time>2021-04-10T10:54:42.000Z</time>
      </trkpt>
      <trkpt lat="37.934257965534925" lon="23.784385174512863">
        <ele>722.4</ele>
        <time>2021-04-10T10:54:47.000Z</time>
      </trkpt>
      <trkpt lat="37.93424195609987" lon="23.784411996603012">
        <ele>722.6</ele>
        <time>2021-04-10T10:54:50.000Z</time>
      </trkpt>
      <trkpt lat="37.93422024697065" lon="23.78443479537964">
        <ele>722.6</ele>
        <time>2021-04-10T10:54:53.000Z</time>
      </trkpt>
      <trkpt lat="37.93421220034361" lon="23.784445440396667">
        <ele>722.8</ele>
        <time>2021-04-10T10:54:54.000Z</time>
      </trkpt>
      <trkpt lat="37.9341936763376" lon="23.784484416246414">
        <ele>722.6</ele>
        <time>2021-04-10T10:54:57.000Z</time>
      </trkpt>
      <trkpt lat="37.93416475877166" lon="23.784542502835393">
        <ele>723</ele>
        <time>2021-04-10T10:55:01.000Z</time>
      </trkpt>
      <trkpt lat="37.93413005769253" lon="23.784651216119528">
        <ele>722.2</ele>
        <time>2021-04-10T10:55:09.000Z</time>
      </trkpt>
      <trkpt lat="37.93410952202976" lon="23.784709637984633">
        <ele>723.2</ele>
        <time>2021-04-10T10:55:15.000Z</time>
      </trkpt>
      <trkpt lat="37.934085968881845" lon="23.784777782857418">
        <ele>723.4</ele>
        <time>2021-04-10T10:55:22.000Z</time>
      </trkpt>
      <trkpt lat="37.93406970798969" lon="23.784831007942557">
        <ele>723.8</ele>
        <time>2021-04-10T10:55:27.000Z</time>
      </trkpt>
      <trkpt lat="37.93405981734395" lon="23.784847101196647">
        <ele>723.8</ele>
        <time>2021-04-10T10:55:30.000Z</time>
      </trkpt>
      <trkpt lat="37.934049339964986" lon="23.78484332934022">
        <ele>723.8</ele>
        <time>2021-04-10T10:55:32.000Z</time>
      </trkpt>
      <trkpt lat="37.93404757976532" lon="23.784853303804994">
        <ele>723.8</ele>
        <time>2021-04-10T10:55:33.000Z</time>
      </trkpt>
      <trkpt lat="37.934043891727924" lon="23.784915581345558">
        <ele>724</ele>
        <time>2021-04-10T10:55:37.000Z</time>
      </trkpt>
      <trkpt lat="37.934042969718575" lon="23.78493905067444">
        <ele>724</ele>
        <time>2021-04-10T10:55:39.000Z</time>
      </trkpt>
      <trkpt lat="37.93402402661741" lon="23.784969560801983">
        <ele>724.4</ele>
        <time>2021-04-10T10:55:42.000Z</time>
      </trkpt>
      <trkpt lat="37.93399930000305" lon="23.784989761188626">
        <ele>724.2</ele>
        <time>2021-04-10T10:55:46.000Z</time>
      </trkpt>
      <trkpt lat="37.933976501226425" lon="23.78502261824906">
        <ele>723.8</ele>
        <time>2021-04-10T10:55:50.000Z</time>
      </trkpt>
      <trkpt lat="37.933965772390366" lon="23.78503242507577">
        <ele>723.8</ele>
        <time>2021-04-10T10:55:52.000Z</time>
      </trkpt>
      <trkpt lat="37.933962754905224" lon="23.78503980115056">
        <ele>723.8</ele>
        <time>2021-04-10T10:55:53.000Z</time>
      </trkpt>
      <trkpt lat="37.93396074324846" lon="23.78504960797727">
        <ele>723.6</ele>
        <time>2021-04-10T10:55:54.000Z</time>
      </trkpt>
      <trkpt lat="37.93394783511758" lon="23.785078022629023">
        <ele>723.6</ele>
        <time>2021-04-10T10:55:57.000Z</time>
      </trkpt>
      <trkpt lat="37.93393610045314" lon="23.78510132431984">
        <ele>723.4</ele>
        <time>2021-04-10T10:56:00.000Z</time>
      </trkpt>
      <trkpt lat="37.93391413986683" lon="23.78511984832585">
        <ele>723.2</ele>
        <time>2021-04-10T10:56:03.000Z</time>
      </trkpt>
      <trkpt lat="37.9339016508311" lon="23.785141641274095">
        <ele>722.8</ele>
        <time>2021-04-10T10:56:05.000Z</time>
      </trkpt>
      <trkpt lat="37.93389234691858" lon="23.785146921873093">
        <ele>722.8</ele>
        <time>2021-04-10T10:56:06.000Z</time>
      </trkpt>
      <trkpt lat="37.93386619538069" lon="23.785133929923177">
        <ele>722.8</ele>
        <time>2021-04-10T10:56:08.000Z</time>
      </trkpt>
      <trkpt lat="37.93385798111558" lon="23.785130493342876">
        <ele>722.6</ele>
        <time>2021-04-10T10:56:09.000Z</time>
      </trkpt>
      <trkpt lat="37.93381506577134" lon="23.785111214965582">
        <ele>722.8</ele>
        <time>2021-04-10T10:56:15.000Z</time>
      </trkpt>
      <trkpt lat="37.93379503302276" lon="23.785088248550892">
        <ele>722.8</ele>
        <time>2021-04-10T10:56:17.000Z</time>
      </trkpt>
      <trkpt lat="37.93375689536333" lon="23.78506075590849">
        <ele>723.4</ele>
        <time>2021-04-10T10:56:21.000Z</time>
      </trkpt>
      <trkpt lat="37.933750273659825" lon="23.785051787272096">
        <ele>723.4</ele>
        <time>2021-04-10T10:56:22.000Z</time>
      </trkpt>
      <trkpt lat="37.93374574743211" lon="23.785043573006988">
        <ele>723.4</ele>
        <time>2021-04-10T10:56:23.000Z</time>
      </trkpt>
      <trkpt lat="37.93370853178203" lon="23.784997388720512">
        <ele>724</ele>
        <time>2021-04-10T10:56:29.000Z</time>
      </trkpt>
      <trkpt lat="37.93369327671826" lon="23.784973584115505">
        <ele>724</ele>
        <time>2021-04-10T10:56:31.000Z</time>
      </trkpt>
      <trkpt lat="37.933634519577026" lon="23.784933350980282">
        <ele>724.4</ele>
        <time>2021-04-10T10:56:36.000Z</time>
      </trkpt>
      <trkpt lat="37.93361767195165" lon="23.7849410623312">
        <ele>724.4</ele>
        <time>2021-04-10T10:56:39.000Z</time>
      </trkpt>
      <trkpt lat="37.93358288705349" lon="23.784916754812002">
        <ele>724.8</ele>
        <time>2021-04-10T10:56:43.000Z</time>
      </trkpt>
      <trkpt lat="37.9335720743984" lon="23.784909714013338">
        <ele>725</ele>
        <time>2021-04-10T10:56:44.000Z</time>
      </trkpt>
      <trkpt lat="37.93353552930057" lon="23.78489764407277">
        <ele>725.4</ele>
        <time>2021-04-10T10:56:48.000Z</time>
      </trkpt>
      <trkpt lat="37.93351113796234" lon="23.784890603274107">
        <ele>725.4</ele>
        <time>2021-04-10T10:56:50.000Z</time>
      </trkpt>
      <trkpt lat="37.9334700666368" lon="23.784885993227363">
        <ele>725.4</ele>
        <time>2021-04-10T10:56:54.000Z</time>
      </trkpt>
      <trkpt lat="37.93344022706151" lon="23.784857243299484">
        <ele>725.6</ele>
        <time>2021-04-10T10:56:57.000Z</time>
      </trkpt>
      <trkpt lat="37.93342606164515" lon="23.784847436472774">
        <ele>725.6</ele>
        <time>2021-04-10T10:56:59.000Z</time>
      </trkpt>
      <trkpt lat="37.93340275995433" lon="23.784817596897483">
        <ele>726</ele>
        <time>2021-04-10T10:57:03.000Z</time>
      </trkpt>
      <trkpt lat="37.933383313938975" lon="23.78479840233922">
        <ele>726.2</ele>
        <time>2021-04-10T10:57:05.000Z</time>
      </trkpt>
      <trkpt lat="37.93332237750292" lon="23.784758169203997">
        <ele>726.4</ele>
        <time>2021-04-10T10:57:11.000Z</time>
      </trkpt>
      <trkpt lat="37.93326864950359" lon="23.784731347113848">
        <ele>727.2</ele>
        <time>2021-04-10T10:57:17.000Z</time>
      </trkpt>
      <trkpt lat="37.93325079604983" lon="23.784716678783298">
        <ele>727.4</ele>
        <time>2021-04-10T10:57:19.000Z</time>
      </trkpt>
      <trkpt lat="37.933186339214444" lon="23.784709302708507">
        <ele>728.2</ele>
        <time>2021-04-10T10:57:27.000Z</time>
      </trkpt>
      <trkpt lat="37.93317628093064" lon="23.78470502793789">
        <ele>728.2</ele>
        <time>2021-04-10T10:57:28.000Z</time>
      </trkpt>
      <trkpt lat="37.93315825983882" lon="23.784690191969275">
        <ele>728.4</ele>
        <time>2021-04-10T10:57:30.000Z</time>
      </trkpt>
      <trkpt lat="37.9331368021667" lon="23.784677954390645">
        <ele>728.6</ele>
        <time>2021-04-10T10:57:32.000Z</time>
      </trkpt>
      <trkpt lat="37.93311769142747" lon="23.784670159220695">
        <ele>728.8</ele>
        <time>2021-04-10T10:57:34.000Z</time>
      </trkpt>
      <trkpt lat="37.93308952823281" lon="23.78466160967946">
        <ele>729.2</ele>
        <time>2021-04-10T10:57:37.000Z</time>
      </trkpt>
      <trkpt lat="37.93305709026754" lon="23.78464442677796">
        <ele>729.6</ele>
        <time>2021-04-10T10:57:41.000Z</time>
      </trkpt>
      <trkpt lat="37.93304887600243" lon="23.784636044874787">
        <ele>729.6</ele>
        <time>2021-04-10T10:57:42.000Z</time>
      </trkpt>
      <trkpt lat="37.933029094710946" lon="23.784615760669112">
        <ele>730</ele>
        <time>2021-04-10T10:57:44.000Z</time>
      </trkpt>
      <trkpt lat="37.93300394900143" lon="23.78461031243205">
        <ele>730.2</ele>
        <time>2021-04-10T10:57:46.000Z</time>
      </trkpt>
      <trkpt lat="37.932968409731984" lon="23.78460201434791">
        <ele>730.4</ele>
        <time>2021-04-10T10:57:49.000Z</time>
      </trkpt>
      <trkpt lat="37.93290579691529" lon="23.784499168395996">
        <ele>730.6</ele>
        <time>2021-04-10T10:57:58.000Z</time>
      </trkpt>
      <trkpt lat="37.93290118686855" lon="23.78449833020568">
        <ele>730.6</ele>
        <time>2021-04-10T10:57:59.000Z</time>
      </trkpt>
      <trkpt lat="37.93288115411997" lon="23.784495564177632">
        <ele>730.6</ele>
        <time>2021-04-10T10:58:01.000Z</time>
      </trkpt>
      <trkpt lat="37.93285793624818" lon="23.784490199759603">
        <ele>730.8</ele>
        <time>2021-04-10T10:58:03.000Z</time>
      </trkpt>
      <trkpt lat="37.93284636922181" lon="23.78448324277997">
        <ele>730.8</ele>
        <time>2021-04-10T10:58:04.000Z</time>
      </trkpt>
      <trkpt lat="37.93281393125653" lon="23.784475028514862">
        <ele>731.2</ele>
        <time>2021-04-10T10:58:07.000Z</time>
      </trkpt>
      <trkpt lat="37.932785181328654" lon="23.784499587491155">
        <ele>731.4</ele>
        <time>2021-04-10T10:58:10.000Z</time>
      </trkpt>
      <trkpt lat="37.93276942335069" lon="23.784512160345912">
        <ele>731.4</ele>
        <time>2021-04-10T10:58:12.000Z</time>
      </trkpt>
      <trkpt lat="37.932742265984416" lon="23.784491205587983">
        <ele>731.4</ele>
        <time>2021-04-10T10:58:15.000Z</time>
      </trkpt>
      <trkpt lat="37.93273178860545" lon="23.78447435796261">
        <ele>731.6</ele>
        <time>2021-04-10T10:58:16.000Z</time>
      </trkpt>
      <trkpt lat="37.9327171202749" lon="23.78446128219366">
        <ele>731.6</ele>
        <time>2021-04-10T10:58:17.000Z</time>
      </trkpt>
      <trkpt lat="37.932687951251864" lon="23.784466227516532">
        <ele>731.4</ele>
        <time>2021-04-10T10:58:20.000Z</time>
      </trkpt>
      <trkpt lat="37.93268912471831" lon="23.784481063485146">
        <ele>731.4</ele>
        <time>2021-04-10T10:58:21.000Z</time>
      </trkpt>
      <trkpt lat="37.9326825030148" lon="23.784488607198">
        <ele>731.4</ele>
        <time>2021-04-10T10:58:25.000Z</time>
      </trkpt>
      <trkpt lat="37.93261444196105" lon="23.7844539899379">
        <ele>732.2</ele>
        <time>2021-04-10T10:58:34.000Z</time>
      </trkpt>
      <trkpt lat="37.93260572478175" lon="23.784450888633728">
        <ele>732.4</ele>
        <time>2021-04-10T10:58:35.000Z</time>
      </trkpt>
      <trkpt lat="37.932524252682924" lon="23.78446714952588">
        <ele>733</ele>
        <time>2021-04-10T10:58:43.000Z</time>
      </trkpt>
      <trkpt lat="37.93250363320112" lon="23.784456588327885">
        <ele>733.2</ele>
        <time>2021-04-10T10:58:45.000Z</time>
      </trkpt>
      <trkpt lat="37.93246851302683" lon="23.78443001769483">
        <ele>733.2</ele>
        <time>2021-04-10T10:58:49.000Z</time>
      </trkpt>
      <trkpt lat="37.93244227766991" lon="23.784410236403346">
        <ele>733.2</ele>
        <time>2021-04-10T10:58:54.000Z</time>
      </trkpt>
      <trkpt lat="37.932432889938354" lon="23.78440797328949">
        <ele>733.2</ele>
        <time>2021-04-10T10:58:55.000Z</time>
      </trkpt>
      <trkpt lat="37.932369941845536" lon="23.784435549750924">
        <ele>733.4</ele>
        <time>2021-04-10T10:59:02.000Z</time>
      </trkpt>
      <trkpt lat="37.93236172758043" lon="23.784434208646417">
        <ele>733.4</ele>
        <time>2021-04-10T10:59:03.000Z</time>
      </trkpt>
      <trkpt lat="37.932343538850546" lon="23.784429682418704">
        <ele>733.6</ele>
        <time>2021-04-10T10:59:05.000Z</time>
      </trkpt>
      <trkpt lat="37.93232384137809" lon="23.784426916390657">
        <ele>733.8</ele>
        <time>2021-04-10T10:59:07.000Z</time>
      </trkpt>
      <trkpt lat="37.93224882334471" lon="23.784447452053428">
        <ele>734.2</ele>
        <time>2021-04-10T10:59:15.000Z</time>
      </trkpt>
      <trkpt lat="37.93222929351032" lon="23.78444602712989">
        <ele>734.4</ele>
        <time>2021-04-10T10:59:17.000Z</time>
      </trkpt>
      <trkpt lat="37.932193921878934" lon="23.78445097245276">
        <ele>734.8</ele>
        <time>2021-04-10T10:59:22.000Z</time>
      </trkpt>
      <trkpt lat="37.932147569954395" lon="23.78445591777563">
        <ele>735.4</ele>
        <time>2021-04-10T10:59:28.000Z</time>
      </trkpt>
      <trkpt lat="37.932138266041875" lon="23.784456588327885">
        <ele>735.4</ele>
        <time>2021-04-10T10:59:29.000Z</time>
      </trkpt>
      <trkpt lat="37.93208713643253" lon="23.78444602712989">
        <ele>735.6</ele>
        <time>2021-04-10T10:59:34.000Z</time>
      </trkpt>
      <trkpt lat="37.93205444701016" lon="23.78443923778832">
        <ele>735.6</ele>
        <time>2021-04-10T10:59:37.000Z</time>
      </trkpt>
      <trkpt lat="37.93200021609664" lon="23.784432280808687">
        <ele>736.2</ele>
        <time>2021-04-10T10:59:41.000Z</time>
      </trkpt>
      <trkpt lat="37.93195369653404" lon="23.784453738480806">
        <ele>736.2</ele>
        <time>2021-04-10T10:59:45.000Z</time>
      </trkpt>
      <trkpt lat="37.93193726800382" lon="23.784452565014362">
        <ele>736.2</ele>
        <time>2021-04-10T10:59:48.000Z</time>
      </trkpt>
      <trkpt lat="37.931933496147394" lon="23.784443261101842">
        <ele>736.6</ele>
        <time>2021-04-10T10:59:50.000Z</time>
      </trkpt>
      <trkpt lat="37.93190399184823" lon="23.784440914168954">
        <ele>736.8</ele>
        <time>2021-04-10T10:59:55.000Z</time>
      </trkpt>
      <trkpt lat="37.93185328133404" lon="23.78443043678999">
        <ele>737.6</ele>
        <time>2021-04-10T11:00:00.000Z</time>
      </trkpt>
      <trkpt lat="37.93183559551835" lon="23.784447200596333">
        <ele>737.8</ele>
        <time>2021-04-10T11:00:02.000Z</time>
      </trkpt>
      <trkpt lat="37.931815311312675" lon="23.784461868926883">
        <ele>737.8</ele>
        <time>2021-04-10T11:00:04.000Z</time>
      </trkpt>
      <trkpt lat="37.931801145896316" lon="23.784468406811357">
        <ele>738</ele>
        <time>2021-04-10T11:00:07.000Z</time>
      </trkpt>
      <trkpt lat="37.93177583254874" lon="23.7844299338758">
        <ele>738.8</ele>
        <time>2021-04-10T11:00:12.000Z</time>
      </trkpt>
      <trkpt lat="37.93177776038647" lon="23.78443974070251">
        <ele>738.4</ele>
        <time>2021-04-10T11:00:20.000Z</time>
      </trkpt>
      <trkpt lat="37.93178723193705" lon="23.784414008259773">
        <ele>738.4</ele>
        <time>2021-04-10T11:00:29.000Z</time>
      </trkpt>
      <trkpt lat="37.931785471737385" lon="23.784411661326885">
        <ele>738.4</ele>
        <time>2021-04-10T11:00:30.000Z</time>
      </trkpt>
      <trkpt lat="37.931784968823195" lon="23.784410320222378">
        <ele>738.4</ele>
        <time>2021-04-10T11:00:31.000Z</time>
      </trkpt>
      <trkpt lat="37.931789746508" lon="23.784409565851092">
        <ele>738.2</ele>
        <time>2021-04-10T11:00:32.000Z</time>
      </trkpt>
      <trkpt lat="37.93178731575608" lon="23.784393724054098">
        <ele>738.2</ele>
        <time>2021-04-10T11:00:36.000Z</time>
      </trkpt>
      <trkpt lat="37.93177432380617" lon="23.784396406263113">
        <ele>738.2</ele>
        <time>2021-04-10T11:00:39.000Z</time>
      </trkpt>
      <trkpt lat="37.931750770658255" lon="23.784442087635398">
        <ele>738.2</ele>
        <time>2021-04-10T11:00:43.000Z</time>
      </trkpt>
      <trkpt lat="37.931735599413514" lon="23.78445591777563">
        <ele>738</ele>
        <time>2021-04-10T11:00:45.000Z</time>
      </trkpt>
      <trkpt lat="37.93169092386961" lon="23.784448290243745">
        <ele>738.2</ele>
        <time>2021-04-10T11:00:50.000Z</time>
      </trkpt>
      <trkpt lat="37.93166804127395" lon="23.784430269151926">
        <ele>738.2</ele>
        <time>2021-04-10T11:00:52.000Z</time>
      </trkpt>
      <trkpt lat="37.931659910827875" lon="23.784423815086484">
        <ele>738.4</ele>
        <time>2021-04-10T11:00:53.000Z</time>
      </trkpt>
      <trkpt lat="37.931624790653586" lon="23.784401016309857">
        <ele>738.2</ele>
        <time>2021-04-10T11:00:58.000Z</time>
      </trkpt>
      <trkpt lat="37.93159771710634" lon="23.784405291080475">
        <ele>738.4</ele>
        <time>2021-04-10T11:01:02.000Z</time>
      </trkpt>
      <trkpt lat="37.931591011583805" lon="23.784407889470458">
        <ele>738.6</ele>
        <time>2021-04-10T11:01:03.000Z</time>
      </trkpt>
      <trkpt lat="37.93157550506294" lon="23.784417444840074">
        <ele>739</ele>
        <time>2021-04-10T11:01:05.000Z</time>
      </trkpt>
      <trkpt lat="37.931534349918365" lon="23.7844246532768">
        <ele>739.8</ele>
        <time>2021-04-10T11:01:10.000Z</time>
      </trkpt>
      <trkpt lat="37.9315169993788" lon="23.784440914168954">
        <ele>740</ele>
        <time>2021-04-10T11:01:12.000Z</time>
      </trkpt>
      <trkpt lat="37.93148464523256" lon="23.784448793157935">
        <ele>740.6</ele>
        <time>2021-04-10T11:01:17.000Z</time>
      </trkpt>
      <trkpt lat="37.931476598605514" lon="23.78444845788181">
        <ele>740.8</ele>
        <time>2021-04-10T11:01:18.000Z</time>
      </trkpt>
      <trkpt lat="37.93146821670234" lon="23.78444761969149">
        <ele>741</ele>
        <time>2021-04-10T11:01:19.000Z</time>
      </trkpt>
      <trkpt lat="37.931446842849255" lon="23.784460611641407">
        <ele>741</ele>
        <time>2021-04-10T11:01:21.000Z</time>
      </trkpt>
      <trkpt lat="37.93137970380485" lon="23.78448869101703">
        <ele>742</ele>
        <time>2021-04-10T11:01:28.000Z</time>
      </trkpt>
      <trkpt lat="37.93136939406395" lon="23.78450025804341">
        <ele>742.2</ele>
        <time>2021-04-10T11:01:29.000Z</time>
      </trkpt>
      <trkpt lat="37.93135682120919" lon="23.78452188335359">
        <ele>742.4</ele>
        <time>2021-04-10T11:01:31.000Z</time>
      </trkpt>
      <trkpt lat="37.93132999911904" lon="23.784539820626378">
        <ele>742.6</ele>
        <time>2021-04-10T11:01:36.000Z</time>
      </trkpt>
      <trkpt lat="37.93129026889801" lon="23.784525487571955">
        <ele>743</ele>
        <time>2021-04-10T11:01:39.000Z</time>
      </trkpt>
      <trkpt lat="37.93123360723257" lon="23.78455708734691">
        <ele>743.4</ele>
        <time>2021-04-10T11:01:43.000Z</time>
      </trkpt>
      <trkpt lat="37.9312080424279" lon="23.784546358510852">
        <ele>743.4</ele>
        <time>2021-04-10T11:01:48.000Z</time>
      </trkpt>
      <trkpt lat="37.931181974709034" lon="23.784550968557596">
        <ele>743.8</ele>
        <time>2021-04-10T11:01:52.000Z</time>
      </trkpt>
      <trkpt lat="37.931178621947765" lon="23.784552225843072">
        <ele>743.6</ele>
        <time>2021-04-10T11:01:56.000Z</time>
      </trkpt>
      <trkpt lat="37.93117510154843" lon="23.784563038498163">
        <ele>743.4</ele>
        <time>2021-04-10T11:01:59.000Z</time>
      </trkpt>
      <trkpt lat="37.93117350898683" lon="23.78456924110651">
        <ele>743.4</ele>
        <time>2021-04-10T11:02:00.000Z</time>
      </trkpt>
      <trkpt lat="37.93117493391037" lon="23.78455951809883">
        <ele>743.6</ele>
        <time>2021-04-10T11:02:06.000Z</time>
      </trkpt>
      <trkpt lat="37.931173257529736" lon="23.78455650061369">
        <ele>743.4</ele>
        <time>2021-04-10T11:02:09.000Z</time>
      </trkpt>
      <trkpt lat="37.93117401190102" lon="23.784565636888146">
        <ele>743.2</ele>
        <time>2021-04-10T11:02:11.000Z</time>
      </trkpt>
      <trkpt lat="37.93118951842189" lon="23.78457703627646">
        <ele>743.6</ele>
        <time>2021-04-10T11:02:20.000Z</time>
      </trkpt>
      <trkpt lat="37.931185914203525" lon="23.78457946702838">
        <ele>743.6</ele>
        <time>2021-04-10T11:02:21.000Z</time>
      </trkpt>
      <trkpt lat="37.931182980537415" lon="23.784584496170282">
        <ele>743.4</ele>
        <time>2021-04-10T11:02:23.000Z</time>
      </trkpt>
      <trkpt lat="37.931199576705694" lon="23.78458491526544">
        <ele>743.4</ele>
        <time>2021-04-10T11:02:28.000Z</time>
      </trkpt>
      <trkpt lat="37.931191781535745" lon="23.78457996994257">
        <ele>743.4</ele>
        <time>2021-04-10T11:02:31.000Z</time>
      </trkpt>
      <trkpt lat="37.931190859526396" lon="23.78457996994257">
        <ele>743.4</ele>
        <time>2021-04-10T11:02:32.000Z</time>
      </trkpt>
      <trkpt lat="37.931190272793174" lon="23.78458541817963">
        <ele>743.4</ele>
        <time>2021-04-10T11:02:36.000Z</time>
      </trkpt>
      <trkpt lat="37.931194715201855" lon="23.78459958359599">
        <ele>743.4</ele>
        <time>2021-04-10T11:02:49.000Z</time>
      </trkpt>
      <trkpt lat="37.93117878958583" lon="23.784577203914523">
        <ele>743</ele>
        <time>2021-04-10T11:02:59.000Z</time>
      </trkpt>
      <trkpt lat="37.93117443099618" lon="23.78459949977696">
        <ele>742.8</ele>
        <time>2021-04-10T11:03:08.000Z</time>
      </trkpt>
      <trkpt lat="37.931175185367465" lon="23.784607043489814">
        <ele>742.8</ele>
        <time>2021-04-10T11:03:12.000Z</time>
      </trkpt>
      <trkpt lat="37.93118415400386" lon="23.78459606319666">
        <ele>742.8</ele>
        <time>2021-04-10T11:03:14.000Z</time>
      </trkpt>
      <trkpt lat="37.93119354173541" lon="23.78458625636995">
        <ele>743</ele>
        <time>2021-04-10T11:03:23.000Z</time>
      </trkpt>
      <trkpt lat="37.93120024725795" lon="23.784593548625708">
        <ele>743</ele>
        <time>2021-04-10T11:03:25.000Z</time>
      </trkpt>
      <trkpt lat="37.931198570877314" lon="23.78459212370217">
        <ele>743</ele>
        <time>2021-04-10T11:03:26.000Z</time>
      </trkpt>
      <trkpt lat="37.931196223944426" lon="23.784563541412354">
        <ele>742.4</ele>
        <time>2021-04-10T11:03:38.000Z</time>
      </trkpt>
      <trkpt lat="37.931212820112705" lon="23.784576952457428">
        <ele>743.4</ele>
        <time>2021-04-10T11:03:50.000Z</time>
      </trkpt>
      <trkpt lat="37.93119530193508" lon="23.784573264420033">
        <ele>743.6</ele>
        <time>2021-04-10T11:03:59.000Z</time>
      </trkpt>
      <trkpt lat="37.93119437992573" lon="23.78462062217295">
        <ele>743.4</ele>
        <time>2021-04-10T11:04:12.000Z</time>
      </trkpt>
      <trkpt lat="37.93118331581354" lon="23.78464442677796">
        <ele>743.4</ele>
        <time>2021-04-10T11:04:16.000Z</time>
      </trkpt>
      <trkpt lat="37.931190272793174" lon="23.78464652225375">
        <ele>743.6</ele>
        <time>2021-04-10T11:04:21.000Z</time>
      </trkpt>
      <trkpt lat="37.93119153007865" lon="23.784641241654754">
        <ele>743.6</ele>
        <time>2021-04-10T11:04:22.000Z</time>
      </trkpt>
      <trkpt lat="37.93119203299284" lon="23.78463478758931">
        <ele>743.6</ele>
        <time>2021-04-10T11:04:23.000Z</time>
      </trkpt>
      <trkpt lat="37.9311922006309" lon="23.784630596637726">
        <ele>743.6</ele>
        <time>2021-04-10T11:04:24.000Z</time>
      </trkpt>
      <trkpt lat="37.931196223944426" lon="23.78462741151452">
        <ele>743.2</ele>
        <time>2021-04-10T11:04:35.000Z</time>
      </trkpt>
      <trkpt lat="37.931194799020886" lon="23.7846302613616">
        <ele>743.2</ele>
        <time>2021-04-10T11:04:36.000Z</time>
      </trkpt>
      <trkpt lat="37.93119144625962" lon="23.78463470377028">
        <ele>743.2</ele>
        <time>2021-04-10T11:04:37.000Z</time>
      </trkpt>
      <trkpt lat="37.931185914203525" lon="23.78463814035058">
        <ele>743.4</ele>
        <time>2021-04-10T11:04:38.000Z</time>
      </trkpt>
      <trkpt lat="37.931182561442256" lon="23.78464308567345">
        <ele>743.2</ele>
        <time>2021-04-10T11:04:39.000Z</time>
      </trkpt>
      <trkpt lat="37.931179124861956" lon="23.784645767882466">
        <ele>743.2</ele>
        <time>2021-04-10T11:04:40.000Z</time>
      </trkpt>
      <trkpt lat="37.93117878958583" lon="23.7846440076828">
        <ele>743.2</ele>
        <time>2021-04-10T11:04:42.000Z</time>
      </trkpt>
      <trkpt lat="37.93118289671838" lon="23.78462045453489">
        <ele>743.2</ele>
        <time>2021-04-10T11:04:47.000Z</time>
      </trkpt>
      <trkpt lat="37.93119739741087" lon="23.78460536710918">
        <ele>743.4</ele>
        <time>2021-04-10T11:04:52.000Z</time>
      </trkpt>
      <trkpt lat="37.93119463138282" lon="23.78459958359599">
        <ele>743.6</ele>
        <time>2021-04-10T11:05:07.000Z</time>
      </trkpt>
      <trkpt lat="37.931197145953774" lon="23.784594386816025">
        <ele>743.4</ele>
        <time>2021-04-10T11:05:09.000Z</time>
      </trkpt>
      <trkpt lat="37.9312043543905" lon="23.78459656611085">
        <ele>743.4</ele>
        <time>2021-04-10T11:05:17.000Z</time>
      </trkpt>
      <trkpt lat="37.93120284564793" lon="23.78459556028247">
        <ele>743.2</ele>
        <time>2021-04-10T11:05:19.000Z</time>
      </trkpt>
      <trkpt lat="37.931191865354776" lon="23.784587681293488">
        <ele>743.2</ele>
        <time>2021-04-10T11:05:29.000Z</time>
      </trkpt>
      <trkpt lat="37.931188428774476" lon="23.784588519483805">
        <ele>743.2</ele>
        <time>2021-04-10T11:05:32.000Z</time>
      </trkpt>
      <trkpt lat="37.931202007457614" lon="23.784573264420033">
        <ele>745</ele>
        <time>2021-04-10T11:06:01.000Z</time>
      </trkpt>
      <trkpt lat="37.93120192363858" lon="23.784579131752253">
        <ele>743.8</ele>
        <time>2021-04-10T11:06:03.000Z</time>
      </trkpt>
      <trkpt lat="37.9311993252486" lon="23.78458483144641">
        <ele>743.6</ele>
        <time>2021-04-10T11:06:05.000Z</time>
      </trkpt>
      <trkpt lat="37.9312011692673" lon="23.78458726219833">
        <ele>743.4</ele>
        <time>2021-04-10T11:06:07.000Z</time>
      </trkpt>
      <trkpt lat="37.93120125308633" lon="23.78458340652287">
        <ele>743.4</ele>
        <time>2021-04-10T11:06:08.000Z</time>
      </trkpt>
      <trkpt lat="37.931201504543424" lon="23.78458097577095">
        <ele>743.4</ele>
        <time>2021-04-10T11:06:09.000Z</time>
      </trkpt>
      <trkpt lat="37.93120167218149" lon="23.784583071246743">
        <ele>743.4</ele>
        <time>2021-04-10T11:06:11.000Z</time>
      </trkpt>
      <trkpt lat="37.93118432164192" lon="23.784582652151585">
        <ele>743.4</ele>
        <time>2021-04-10T11:06:23.000Z</time>
      </trkpt>
      <trkpt lat="37.9311768617481" lon="23.7845853343606">
        <ele>743.4</ele>
        <time>2021-04-10T11:06:25.000Z</time>
      </trkpt>
      <trkpt lat="37.93117250315845" lon="23.784585585817695">
        <ele>743.4</ele>
        <time>2021-04-10T11:06:28.000Z</time>
      </trkpt>
      <trkpt lat="37.93117233552039" lon="23.784595727920532">
        <ele>743.4</ele>
        <time>2021-04-10T11:06:32.000Z</time>
      </trkpt>
      <trkpt lat="37.93118113651872" lon="23.784590614959598">
        <ele>743.4</ele>
        <time>2021-04-10T11:06:45.000Z</time>
      </trkpt>
      <trkpt lat="37.931180130690336" lon="23.784599164500833">
        <ele>743.4</ele>
        <time>2021-04-10T11:06:48.000Z</time>
      </trkpt>
      <trkpt lat="37.93118859641254" lon="23.78461073152721">
        <ele>743.4</ele>
        <time>2021-04-10T11:06:52.000Z</time>
      </trkpt>
      <trkpt lat="37.93118918314576" lon="23.78461324609816">
        <ele>743.4</ele>
        <time>2021-04-10T11:06:54.000Z</time>
      </trkpt>
      <trkpt lat="37.93117929250002" lon="23.784629674628377">
        <ele>743.4</ele>
        <time>2021-04-10T11:07:07.000Z</time>
      </trkpt>
      <trkpt lat="37.93117493391037" lon="23.784635374322534">
        <ele>743.4</ele>
        <time>2021-04-10T11:07:09.000Z</time>
      </trkpt>
      <trkpt lat="37.931173676624894" lon="23.78463663160801">
        <ele>743.4</ele>
        <time>2021-04-10T11:07:11.000Z</time>
      </trkpt>
      <trkpt lat="37.93117979541421" lon="23.78461760468781">
        <ele>743.4</ele>
        <time>2021-04-10T11:07:17.000Z</time>
      </trkpt>
      <trkpt lat="37.93118323199451" lon="23.784605283290148">
        <ele>743.4</ele>
        <time>2021-04-10T11:07:20.000Z</time>
      </trkpt>
      <trkpt lat="37.93118365108967" lon="23.784602181985974">
        <ele>743.4</ele>
        <time>2021-04-10T11:07:32.000Z</time>
      </trkpt>
      <trkpt lat="37.93118457309902" lon="23.784594470635056">
        <ele>743.4</ele>
        <time>2021-04-10T11:07:39.000Z</time>
      </trkpt>
      <trkpt lat="37.93118474073708" lon="23.784591872245073">
        <ele>743.4</ele>
        <time>2021-04-10T11:07:40.000Z</time>
      </trkpt>
      <trkpt lat="37.93118683621287" lon="23.784591034054756">
        <ele>743.4</ele>
        <time>2021-04-10T11:07:41.000Z</time>
      </trkpt>
      <trkpt lat="37.93118993751705" lon="23.784592458978295">
        <ele>743.4</ele>
        <time>2021-04-10T11:07:43.000Z</time>
      </trkpt>
      <trkpt lat="37.93119446374476" lon="23.78459556028247">
        <ele>743.4</ele>
        <time>2021-04-10T11:07:45.000Z</time>
      </trkpt>
      <trkpt lat="37.93117702938616" lon="23.784606456756592">
        <ele>743.4</ele>
        <time>2021-04-10T11:08:00.000Z</time>
      </trkpt>
      <trkpt lat="37.931174682453275" lon="23.784586088731885">
        <ele>743.4</ele>
        <time>2021-04-10T11:08:04.000Z</time>
      </trkpt>
      <trkpt lat="37.931180549785495" lon="23.784586172550917">
        <ele>743.4</ele>
        <time>2021-04-10T11:08:07.000Z</time>
      </trkpt>
      <trkpt lat="37.93117200024426" lon="23.784598745405674">
        <ele>743.4</ele>
        <time>2021-04-10T11:08:12.000Z</time>
      </trkpt>
      <trkpt lat="37.93116621673107" lon="23.78459556028247">
        <ele>743.4</ele>
        <time>2021-04-10T11:08:15.000Z</time>
      </trkpt>
      <trkpt lat="37.931162444874644" lon="23.784582819789648">
        <ele>743.4</ele>
        <time>2021-04-10T11:08:19.000Z</time>
      </trkpt>
      <trkpt lat="37.931164959445596" lon="23.78456781618297">
        <ele>743.4</ele>
        <time>2021-04-10T11:08:25.000Z</time>
      </trkpt>
      <trkpt lat="37.93118122033775" lon="23.78456580452621">
        <ele>743.4</ele>
        <time>2021-04-10T11:08:40.000Z</time>
      </trkpt>
      <trkpt lat="37.93117543682456" lon="23.784576281905174">
        <ele>743.4</ele>
        <time>2021-04-10T11:08:42.000Z</time>
      </trkpt>
      <trkpt lat="37.93117283843458" lon="23.78457452170551">
        <ele>743.4</ele>
        <time>2021-04-10T11:08:43.000Z</time>
      </trkpt>
      <trkpt lat="37.93116177432239" lon="23.784570917487144">
        <ele>743.4</ele>
        <time>2021-04-10T11:08:49.000Z</time>
      </trkpt>
      <trkpt lat="37.931166887283325" lon="23.784629926085472">
        <ele>743.4</ele>
        <time>2021-04-10T11:09:03.000Z</time>
      </trkpt>
      <trkpt lat="37.93116353452206" lon="23.784590614959598">
        <ele>743.4</ele>
        <time>2021-04-10T11:09:07.000Z</time>
      </trkpt>
      <trkpt lat="37.93119940906763" lon="23.78462011925876">
        <ele>743.4</ele>
        <time>2021-04-10T11:09:11.000Z</time>
      </trkpt>
      <trkpt lat="37.9311594273895" lon="23.784622633829713">
        <ele>743.4</ele>
        <time>2021-04-10T11:09:13.000Z</time>
      </trkpt>
      <trkpt lat="37.931157583370805" lon="23.784626740962267">
        <ele>743.4</ele>
        <time>2021-04-10T11:09:15.000Z</time>
      </trkpt>
      <trkpt lat="37.931180549785495" lon="23.784612072631717">
        <ele>743.4</ele>
        <time>2021-04-10T11:09:23.000Z</time>
      </trkpt>
      <trkpt lat="37.9311628639698" lon="23.784591453149915">
        <ele>743.4</ele>
        <time>2021-04-10T11:09:36.000Z</time>
      </trkpt>
      <trkpt lat="37.93116420507431" lon="23.784584663808346">
        <ele>743.4</ele>
        <time>2021-04-10T11:09:38.000Z</time>
      </trkpt>
      <trkpt lat="37.93114844709635" lon="23.78460444509983">
        <ele>743.4</ele>
        <time>2021-04-10T11:09:51.000Z</time>
      </trkpt>
      <trkpt lat="37.93109480291605" lon="23.78455507569015">
        <ele>743.4</ele>
        <time>2021-04-10T11:12:40.000Z</time>
      </trkpt>
      <trkpt lat="37.931090611964464" lon="23.784571001306176">
        <ele>743.8</ele>
        <time>2021-04-10T11:12:42.000Z</time>
      </trkpt>
      <trkpt lat="37.931081308051944" lon="23.78458240069449">
        <ele>743.8</ele>
        <time>2021-04-10T11:12:43.000Z</time>
      </trkpt>
      <trkpt lat="37.93103210628033" lon="23.784582652151585">
        <ele>744</ele>
        <time>2021-04-10T11:12:48.000Z</time>
      </trkpt>
      <trkpt lat="37.930991034954786" lon="23.784582735970616">
        <ele>744.6</ele>
        <time>2021-04-10T11:12:51.000Z</time>
      </trkpt>
      <trkpt lat="37.93096773326397" lon="23.784582233056426">
        <ele>744.6</ele>
        <time>2021-04-10T11:12:53.000Z</time>
      </trkpt>
      <trkpt lat="37.93095650151372" lon="23.784583238884807">
        <ele>744.6</ele>
        <time>2021-04-10T11:12:54.000Z</time>
      </trkpt>
      <trkpt lat="37.93092339299619" lon="23.784582735970616">
        <ele>744.2</ele>
        <time>2021-04-10T11:12:57.000Z</time>
      </trkpt>
      <trkpt lat="37.930891709402204" lon="23.784578628838062">
        <ele>744.6</ele>
        <time>2021-04-10T11:13:02.000Z</time>
      </trkpt>
      <trkpt lat="37.930890787392855" lon="23.78461182117462">
        <ele>744.8</ele>
        <time>2021-04-10T11:13:04.000Z</time>
      </trkpt>
      <trkpt lat="37.93089053593576" lon="23.784636883065104">
        <ele>744.8</ele>
        <time>2021-04-10T11:13:06.000Z</time>
      </trkpt>
      <trkpt lat="37.93087435886264" lon="23.784656412899494">
        <ele>745.8</ele>
        <time>2021-04-10T11:13:10.000Z</time>
      </trkpt>
      <trkpt lat="37.93086907826364" lon="23.78466110676527">
        <ele>746</ele>
        <time>2021-04-10T11:13:11.000Z</time>
      </trkpt>
      <trkpt lat="37.93084502220154" lon="23.784699495881796">
        <ele>747.2</ele>
        <time>2021-04-10T11:13:16.000Z</time>
      </trkpt>
      <trkpt lat="37.930842926725745" lon="23.784709721803665">
        <ele>747.4</ele>
        <time>2021-04-10T11:13:17.000Z</time>
      </trkpt>
      <trkpt lat="37.93083429336548" lon="23.784764874726534">
        <ele>748.2</ele>
        <time>2021-04-10T11:13:21.000Z</time>
      </trkpt>
      <trkpt lat="37.930823815986514" lon="23.784779710695148">
        <ele>748.6</ele>
        <time>2021-04-10T11:13:23.000Z</time>
      </trkpt>
      <trkpt lat="37.93077570386231" lon="23.784793205559254">
        <ele>749.4</ele>
        <time>2021-04-10T11:13:27.000Z</time>
      </trkpt>
      <trkpt lat="37.93074477463961" lon="23.784814663231373">
        <ele>750.2</ele>
        <time>2021-04-10T11:13:30.000Z</time>
      </trkpt>
      <trkpt lat="37.93074645102024" lon="23.784822039306164">
        <ele>750.4</ele>
        <time>2021-04-10T11:13:31.000Z</time>
      </trkpt>
      <trkpt lat="37.93074334971607" lon="23.78484576009214">
        <ele>751</ele>
        <time>2021-04-10T11:13:33.000Z</time>
      </trkpt>
      <trkpt lat="37.9307415895164" lon="23.784849112853408">
        <ele>751.2</ele>
        <time>2021-04-10T11:13:34.000Z</time>
      </trkpt>
      <trkpt lat="37.93074251152575" lon="23.7848443351686">
        <ele>751.2</ele>
        <time>2021-04-10T11:13:35.000Z</time>
      </trkpt>
      <trkpt lat="37.93074544519186" lon="23.784843580797315">
        <ele>751.4</ele>
        <time>2021-04-10T11:13:37.000Z</time>
      </trkpt>
      <trkpt lat="37.93074745684862" lon="23.78484525717795">
        <ele>750.8</ele>
        <time>2021-04-10T11:13:40.000Z</time>
      </trkpt>
      <trkpt lat="37.93077084235847" lon="23.784868642687798">
        <ele>721.6</ele>
        <time>2021-04-10T11:50:23.000Z</time>
      </trkpt>
      <trkpt lat="37.93076639994979" lon="23.78486772067845">
        <ele>721.2</ele>
        <time>2021-04-10T11:50:24.000Z</time>
      </trkpt>
      <trkpt lat="37.93074494227767" lon="23.78487710841">
        <ele>721</ele>
        <time>2021-04-10T11:50:28.000Z</time>
      </trkpt>
      <trkpt lat="37.930739326402545" lon="23.784885071218014">
        <ele>721</ele>
        <time>2021-04-10T11:50:29.000Z</time>
      </trkpt>
      <trkpt lat="37.93073941022158" lon="23.784952964633703">
        <ele>720.6</ele>
        <time>2021-04-10T11:50:34.000Z</time>
      </trkpt>
      <trkpt lat="37.9307521507144" lon="23.785034604370594">
        <ele>720.6</ele>
        <time>2021-04-10T11:50:41.000Z</time>
      </trkpt>
      <trkpt lat="37.93076162226498" lon="23.78505924716592">
        <ele>720.8</ele>
        <time>2021-04-10T11:50:43.000Z</time>
      </trkpt>
      <trkpt lat="37.930784756317735" lon="23.785094618797302">
        <ele>721.4</ele>
        <time>2021-04-10T11:50:47.000Z</time>
      </trkpt>
      <trkpt lat="37.93078903108835" lon="23.785099061205983">
        <ele>721.4</ele>
        <time>2021-04-10T11:50:48.000Z</time>
      </trkpt>
      <trkpt lat="37.93080244213343" lon="23.78510719165206">
        <ele>721.6</ele>
        <time>2021-04-10T11:50:50.000Z</time>
      </trkpt>
      <trkpt lat="37.930834544822574" lon="23.78513367846608">
        <ele>722.4</ele>
        <time>2021-04-10T11:50:54.000Z</time>
      </trkpt>
      <trkpt lat="37.93085063807666" lon="23.785149939358234">
        <ele>723</ele>
        <time>2021-04-10T11:50:56.000Z</time>
      </trkpt>
      <trkpt lat="37.93087385594845" lon="23.785210456699133">
        <ele>723.8</ele>
        <time>2021-04-10T11:51:01.000Z</time>
      </trkpt>
      <trkpt lat="37.93087578378618" lon="23.785219006240368">
        <ele>724</ele>
        <time>2021-04-10T11:51:02.000Z</time>
      </trkpt>
      <trkpt lat="37.930877963081" lon="23.785223113372922">
        <ele>724.2</ele>
        <time>2021-04-10T11:51:03.000Z</time>
      </trkpt>
      <trkpt lat="37.93089246377349" lon="23.785216324031353">
        <ele>724.6</ele>
        <time>2021-04-10T11:51:06.000Z</time>
      </trkpt>
      <trkpt lat="37.93089481070638" lon="23.785219928249717">
        <ele>725</ele>
        <time>2021-04-10T11:51:08.000Z</time>
      </trkpt>
      <trkpt lat="37.93089942075312" lon="23.785221688449383">
        <ele>725.6</ele>
        <time>2021-04-10T11:51:11.000Z</time>
      </trkpt>
      <trkpt lat="37.93091534636915" lon="23.78524800762534">
        <ele>725.6</ele>
        <time>2021-04-10T11:51:16.000Z</time>
      </trkpt>
      <trkpt lat="37.93093780986965" lon="23.785285223275423">
        <ele>725.8</ele>
        <time>2021-04-10T11:51:22.000Z</time>
      </trkpt>
      <trkpt lat="37.93094594031572" lon="23.785300981253386">
        <ele>726.2</ele>
        <time>2021-04-10T11:51:24.000Z</time>
      </trkpt>
      <trkpt lat="37.930967062711716" lon="23.785309195518494">
        <ele>727</ele>
        <time>2021-04-10T11:51:26.000Z</time>
      </trkpt>
      <trkpt lat="37.93097963556647" lon="23.785315733402967">
        <ele>727.4</ele>
        <time>2021-04-10T11:51:27.000Z</time>
      </trkpt>
      <trkpt lat="37.93100310489535" lon="23.785311123356223">
        <ele>728.2</ele>
        <time>2021-04-10T11:51:29.000Z</time>
      </trkpt>
      <trkpt lat="37.9310143366456" lon="23.78530760295689">
        <ele>728.4</ele>
        <time>2021-04-10T11:51:30.000Z</time>
      </trkpt>
      <trkpt lat="37.931028082966805" lon="23.78529871813953">
        <ele>728.6</ele>
        <time>2021-04-10T11:51:32.000Z</time>
      </trkpt>
      <trkpt lat="37.93103378266096" lon="23.78529536537826">
        <ele>728.6</ele>
        <time>2021-04-10T11:51:33.000Z</time>
      </trkpt>
      <trkpt lat="37.93104602023959" lon="23.785284217447042">
        <ele>728.8</ele>
        <time>2021-04-10T11:51:37.000Z</time>
      </trkpt>
      <trkpt lat="37.93106546625495" lon="23.785281283780932">
        <ele>729</ele>
        <time>2021-04-10T11:51:40.000Z</time>
      </trkpt>
      <trkpt lat="37.93109279125929" lon="23.785277595743537">
        <ele>729.4</ele>
        <time>2021-04-10T11:51:42.000Z</time>
      </trkpt>
      <trkpt lat="37.9311232175678" lon="23.78529729321599">
        <ele>729.8</ele>
        <time>2021-04-10T11:51:46.000Z</time>
      </trkpt>
      <trkpt lat="37.93113629333675" lon="23.785321516916156">
        <ele>730.2</ele>
        <time>2021-04-10T11:51:48.000Z</time>
      </trkpt>
      <trkpt lat="37.931150794029236" lon="23.7853641808033">
        <ele>730.6</ele>
        <time>2021-04-10T11:51:50.000Z</time>
      </trkpt>
      <trkpt lat="37.931165378540754" lon="23.78541355021298">
        <ele>731.6</ele>
        <time>2021-04-10T11:51:55.000Z</time>
      </trkpt>
      <trkpt lat="37.93116428889334" lon="23.78543115220964">
        <ele>731.6</ele>
        <time>2021-04-10T11:51:56.000Z</time>
      </trkpt>
      <trkpt lat="37.93116118758917" lon="23.785448502749205">
        <ele>731.8</ele>
        <time>2021-04-10T11:51:57.000Z</time>
      </trkpt>
      <trkpt lat="37.931165378540754" lon="23.785483120009303">
        <ele>732.4</ele>
        <time>2021-04-10T11:52:00.000Z</time>
      </trkpt>
      <trkpt lat="37.931166887283325" lon="23.785491921007633">
        <ele>732.6</ele>
        <time>2021-04-10T11:52:01.000Z</time>
      </trkpt>
      <trkpt lat="37.93116747401655" lon="23.78550784662366">
        <ele>732.8</ele>
        <time>2021-04-10T11:52:02.000Z</time>
      </trkpt>
      <trkpt lat="37.931171329692006" lon="23.785534920170903">
        <ele>733.2</ele>
        <time>2021-04-10T11:52:04.000Z</time>
      </trkpt>
      <trkpt lat="37.93119882233441" lon="23.785574734210968">
        <ele>733.4</ele>
        <time>2021-04-10T11:52:09.000Z</time>
      </trkpt>
      <trkpt lat="37.931204438209534" lon="23.785591330379248">
        <ele>733.6</ele>
        <time>2021-04-10T11:52:11.000Z</time>
      </trkpt>
      <trkpt lat="37.93122690171003" lon="23.785641035065055">
        <ele>734.2</ele>
        <time>2021-04-10T11:52:16.000Z</time>
      </trkpt>
      <trkpt lat="37.93124726973474" lon="23.78567640669644">
        <ele>735</ele>
        <time>2021-04-10T11:52:20.000Z</time>
      </trkpt>
      <trkpt lat="37.93126579374075" lon="23.785681603476405">
        <ele>735.4</ele>
        <time>2021-04-10T11:52:23.000Z</time>
      </trkpt>
      <trkpt lat="37.93127057142556" lon="23.785688979551196">
        <ele>735.4</ele>
        <time>2021-04-10T11:52:24.000Z</time>
      </trkpt>
      <trkpt lat="37.931279288604856" lon="23.785704066976905">
        <ele>735.8</ele>
        <time>2021-04-10T11:52:27.000Z</time>
      </trkpt>
      <trkpt lat="37.93128255754709" lon="23.78570574335754">
        <ele>736</ele>
        <time>2021-04-10T11:52:28.000Z</time>
      </trkpt>
      <trkpt lat="37.93128691613674" lon="23.785703647881746">
        <ele>736</ele>
        <time>2021-04-10T11:52:29.000Z</time>
      </trkpt>
      <trkpt lat="37.93132773600519" lon="23.785731978714466">
        <ele>736.2</ele>
        <time>2021-04-10T11:52:35.000Z</time>
      </trkpt>
      <trkpt lat="37.93135807849467" lon="23.785775061696768">
        <ele>737</ele>
        <time>2021-04-10T11:52:40.000Z</time>
      </trkpt>
      <trkpt lat="37.93135757558048" lon="23.78581085242331">
        <ele>737.4</ele>
        <time>2021-04-10T11:52:43.000Z</time>
      </trkpt>
      <trkpt lat="37.93137048371136" lon="23.78580456599593">
        <ele>737.8</ele>
        <time>2021-04-10T11:52:46.000Z</time>
      </trkpt>
      <trkpt lat="37.931376434862614" lon="23.785802638158202">
        <ele>737.8</ele>
        <time>2021-04-10T11:52:48.000Z</time>
      </trkpt>
      <trkpt lat="37.93137123808265" lon="23.785795513540506">
        <ele>737.8</ele>
        <time>2021-04-10T11:52:51.000Z</time>
      </trkpt>
      <trkpt lat="37.93136461637914" lon="23.785799201577902">
        <ele>737.8</ele>
        <time>2021-04-10T11:52:56.000Z</time>
      </trkpt>
      <trkpt lat="37.93136989697814" lon="23.78581764176488">
        <ele>737.8</ele>
        <time>2021-04-10T11:53:03.000Z</time>
      </trkpt>
      <trkpt lat="37.93137433938682" lon="23.785815378651023">
        <ele>738</ele>
        <time>2021-04-10T11:53:04.000Z</time>
      </trkpt>
      <trkpt lat="37.93139831162989" lon="23.785824682563543">
        <ele>739</ele>
        <time>2021-04-10T11:53:09.000Z</time>
      </trkpt>
      <trkpt lat="37.931409711018205" lon="23.78582937642932">
        <ele>739</ele>
        <time>2021-04-10T11:53:10.000Z</time>
      </trkpt>
      <trkpt lat="37.93146553449333" lon="23.785845721140504">
        <ele>739.6</ele>
        <time>2021-04-10T11:53:15.000Z</time>
      </trkpt>
      <trkpt lat="37.93148439377546" lon="23.785865334793925">
        <ele>740</ele>
        <time>2021-04-10T11:53:17.000Z</time>
      </trkpt>
      <trkpt lat="37.93149076402187" lon="23.785873968154192">
        <ele>740.2</ele>
        <time>2021-04-10T11:53:18.000Z</time>
      </trkpt>
      <trkpt lat="37.93149922974408" lon="23.78588469699025">
        <ele>740.4</ele>
        <time>2021-04-10T11:53:20.000Z</time>
      </trkpt>
      <trkpt lat="37.93152823112905" lon="23.785902047529817">
        <ele>741</ele>
        <time>2021-04-10T11:53:24.000Z</time>
      </trkpt>
      <trkpt lat="37.93153694830835" lon="23.785909172147512">
        <ele>741.2</ele>
        <time>2021-04-10T11:53:25.000Z</time>
      </trkpt>
      <trkpt lat="37.931554885581136" lon="23.785931132733822">
        <ele>741.6</ele>
        <time>2021-04-10T11:53:27.000Z</time>
      </trkpt>
      <trkpt lat="37.93157466687262" lon="23.785968348383904">
        <ele>742.4</ele>
        <time>2021-04-10T11:53:31.000Z</time>
      </trkpt>
      <trkpt lat="37.93158397078514" lon="23.785979244858027">
        <ele>742.6</ele>
        <time>2021-04-10T11:53:32.000Z</time>
      </trkpt>
      <trkpt lat="37.931603249162436" lon="23.785993242636323">
        <ele>743</ele>
        <time>2021-04-10T11:53:34.000Z</time>
      </trkpt>
      <trkpt lat="37.93161272071302" lon="23.78599751740694">
        <ele>743.4</ele>
        <time>2021-04-10T11:53:35.000Z</time>
      </trkpt>
      <trkpt lat="37.931621270254254" lon="23.786000283434987">
        <ele>743.4</ele>
        <time>2021-04-10T11:53:36.000Z</time>
      </trkpt>
      <trkpt lat="37.93163761496544" lon="23.786011012271047">
        <ele>743.8</ele>
        <time>2021-04-10T11:53:38.000Z</time>
      </trkpt>
      <trkpt lat="37.93164272792637" lon="23.78601402975619">
        <ele>743.8</ele>
        <time>2021-04-10T11:53:39.000Z</time>
      </trkpt>
      <trkpt lat="37.93165328912437" lon="23.78602442331612">
        <ele>744.2</ele>
        <time>2021-04-10T11:53:43.000Z</time>
      </trkpt>
      <trkpt lat="37.93166586197913" lon="23.786036325618625">
        <ele>744.2</ele>
        <time>2021-04-10T11:53:45.000Z</time>
      </trkpt>
      <trkpt lat="37.931711208075285" lon="23.78608343191445">
        <ele>744.2</ele>
        <time>2021-04-10T11:53:51.000Z</time>
      </trkpt>
      <trkpt lat="37.93174842372537" lon="23.786127772182226">
        <ele>744.6</ele>
        <time>2021-04-10T11:53:55.000Z</time>
      </trkpt>
      <trkpt lat="37.93178882449865" lon="23.786189882084727">
        <ele>745.4</ele>
        <time>2021-04-10T11:53:59.000Z</time>
      </trkpt>
      <trkpt lat="37.93182008899748" lon="23.786236234009266">
        <ele>745.8</ele>
        <time>2021-04-10T11:54:01.000Z</time>
      </trkpt>
      <trkpt lat="37.93189091607928" lon="23.78632734529674">
        <ele>747</ele>
        <time>2021-04-10T11:54:05.000Z</time>
      </trkpt>
      <trkpt lat="37.93192360550165" lon="23.786375960335135">
        <ele>748</ele>
        <time>2021-04-10T11:54:08.000Z</time>
      </trkpt>
      <trkpt lat="37.931947661563754" lon="23.78641133196652">
        <ele>749</ele>
        <time>2021-04-10T11:54:11.000Z</time>
      </trkpt>
      <trkpt lat="37.932014381513" lon="23.786453492939472">
        <ele>750.2</ele>
        <time>2021-04-10T11:54:16.000Z</time>
      </trkpt>
      <trkpt lat="37.932048747316" lon="23.786488361656666">
        <ele>750.8</ele>
        <time>2021-04-10T11:54:20.000Z</time>
      </trkpt>
      <trkpt lat="37.93206995353103" lon="23.78651342354715">
        <ele>751.2</ele>
        <time>2021-04-10T11:54:23.000Z</time>
      </trkpt>
      <trkpt lat="37.932075737044215" lon="23.786520045250654">
        <ele>751.4</ele>
        <time>2021-04-10T11:54:24.000Z</time>
      </trkpt>
      <trkpt lat="37.93208378367126" lon="23.78652675077319">
        <ele>751.6</ele>
        <time>2021-04-10T11:54:25.000Z</time>
      </trkpt>
      <trkpt lat="37.93210716918111" lon="23.78655893728137">
        <ele>752</ele>
        <time>2021-04-10T11:54:28.000Z</time>
      </trkpt>
      <trkpt lat="37.932130470871925" lon="23.786591459065676">
        <ele>752.4</ele>
        <time>2021-04-10T11:54:31.000Z</time>
      </trkpt>
      <trkpt lat="37.93216735124588" lon="23.786621298640966">
        <ele>753.2</ele>
        <time>2021-04-10T11:54:35.000Z</time>
      </trkpt>
      <trkpt lat="37.93219551444054" lon="23.78664535470307">
        <ele>753.6</ele>
        <time>2021-04-10T11:54:38.000Z</time>
      </trkpt>
      <trkpt lat="37.93224857188761" lon="23.786739818751812">
        <ele>754.2</ele>
        <time>2021-04-10T11:54:45.000Z</time>
      </trkpt>
      <trkpt lat="37.93225888162851" lon="23.786766724660993">
        <ele>754.6</ele>
        <time>2021-04-10T11:54:47.000Z</time>
      </trkpt>
      <trkpt lat="37.9322717897594" lon="23.786805784329772">
        <ele>755.6</ele>
        <time>2021-04-10T11:54:50.000Z</time>
      </trkpt>
      <trkpt lat="37.93228955939412" lon="23.7868251465261">
        <ele>755.8</ele>
        <time>2021-04-10T11:54:52.000Z</time>
      </trkpt>
      <trkpt lat="37.932343957945704" lon="23.7869372125715">
        <ele>756.8</ele>
        <time>2021-04-10T11:54:59.000Z</time>
      </trkpt>
      <trkpt lat="37.93239123187959" lon="23.78702220506966">
        <ele>757.2</ele>
        <time>2021-04-10T11:55:06.000Z</time>
      </trkpt>
      <trkpt lat="37.93242744170129" lon="23.787077525630593">
        <ele>757.8</ele>
        <time>2021-04-10T11:55:10.000Z</time>
      </trkpt>
      <trkpt lat="37.93245367705822" lon="23.787130499258637">
        <ele>758.4</ele>
        <time>2021-04-10T11:55:13.000Z</time>
      </trkpt>
      <trkpt lat="37.932455940172076" lon="23.78718732856214">
        <ele>759</ele>
        <time>2021-04-10T11:55:17.000Z</time>
      </trkpt>
      <trkpt lat="37.93247136287391" lon="23.78724734298885">
        <ele>759.6</ele>
        <time>2021-04-10T11:55:21.000Z</time>
      </trkpt>
      <trkpt lat="37.93250564485788" lon="23.787326384335756">
        <ele>760.2</ele>
        <time>2021-04-10T11:55:27.000Z</time>
      </trkpt>
      <trkpt lat="37.93251830153167" lon="23.7873500213027">
        <ele>760.2</ele>
        <time>2021-04-10T11:55:29.000Z</time>
      </trkpt>
      <trkpt lat="37.93256423436105" lon="23.787419004365802">
        <ele>760.4</ele>
        <time>2021-04-10T11:55:37.000Z</time>
      </trkpt>
      <trkpt lat="37.932569682598114" lon="23.787444988265634">
        <ele>760</ele>
        <time>2021-04-10T11:55:41.000Z</time>
      </trkpt>
      <trkpt lat="37.93256557546556" lon="23.78746527247131">
        <ele>760.6</ele>
        <time>2021-04-10T11:55:48.000Z</time>
      </trkpt>
      <trkpt lat="37.932555098086596" lon="23.787438115105033">
        <ele>760.4</ele>
        <time>2021-04-10T11:55:56.000Z</time>
      </trkpt>
      <trkpt lat="37.932553589344025" lon="23.787445658817887">
        <ele>760.2</ele>
        <time>2021-04-10T11:56:03.000Z</time>
      </trkpt>
      <trkpt lat="37.932561468333006" lon="23.787449430674314">
        <ele>760.2</ele>
        <time>2021-04-10T11:56:06.000Z</time>
      </trkpt>
      <trkpt lat="37.93255124241114" lon="23.78743057139218">
        <ele>760.2</ele>
        <time>2021-04-10T11:56:12.000Z</time>
      </trkpt>
      <trkpt lat="37.9325514100492" lon="23.787436857819557">
        <ele>760.4</ele>
        <time>2021-04-10T11:56:18.000Z</time>
      </trkpt>
      <trkpt lat="37.932565324008465" lon="23.78746686503291">
        <ele>760.4</ele>
        <time>2021-04-10T11:56:20.000Z</time>
      </trkpt>
      <trkpt lat="37.93255476281047" lon="23.787577087059617">
        <ele>761.2</ele>
        <time>2021-04-10T11:56:25.000Z</time>
      </trkpt>
      <trkpt lat="37.932593738660216" lon="23.78773600794375">
        <ele>762</ele>
        <time>2021-04-10T11:56:34.000Z</time>
      </trkpt>
      <trkpt lat="37.932610334828496" lon="23.78777171485126">
        <ele>762.2</ele>
        <time>2021-04-10T11:56:37.000Z</time>
      </trkpt>
      <trkpt lat="37.932619554921985" lon="23.78778286278248">
        <ele>762.4</ele>
        <time>2021-04-10T11:56:38.000Z</time>
      </trkpt>
      <trkpt lat="37.93266221880913" lon="23.78779912367463">
        <ele>762.2</ele>
        <time>2021-04-10T11:56:41.000Z</time>
      </trkpt>
      <trkpt lat="37.93268610723317" lon="23.78779660910368">
        <ele>761.8</ele>
        <time>2021-04-10T11:56:43.000Z</time>
      </trkpt>
      <trkpt lat="37.93270823545754" lon="23.787794429808855">
        <ele>761.6</ele>
        <time>2021-04-10T11:56:46.000Z</time>
      </trkpt>
      <trkpt lat="37.93274402618408" lon="23.78777372650802">
        <ele>761.8</ele>
        <time>2021-04-10T11:56:49.000Z</time>
      </trkpt>
      <trkpt lat="37.93279968202114" lon="23.787785712629557">
        <ele>761.8</ele>
        <time>2021-04-10T11:56:55.000Z</time>
      </trkpt>
      <trkpt lat="37.93284108862281" lon="23.787770876660943">
        <ele>761.4</ele>
        <time>2021-04-10T11:57:01.000Z</time>
      </trkpt>
      <trkpt lat="37.93284896761179" lon="23.787759141996503">
        <ele>761.4</ele>
        <time>2021-04-10T11:57:02.000Z</time>
      </trkpt>
      <trkpt lat="37.932862881571054" lon="23.78774145618081">
        <ele>761.2</ele>
        <time>2021-04-10T11:57:04.000Z</time>
      </trkpt>
      <trkpt lat="37.93287034146488" lon="23.787698708474636">
        <ele>761</ele>
        <time>2021-04-10T11:57:08.000Z</time>
      </trkpt>
      <trkpt lat="37.932869754731655" lon="23.787695607170463">
        <ele>761</ele>
        <time>2021-04-10T11:57:09.000Z</time>
      </trkpt>
      <trkpt lat="37.932870173826814" lon="23.787681525573134">
        <ele>762</ele>
        <time>2021-04-10T11:57:12.000Z</time>
      </trkpt>
      <trkpt lat="37.93287050910294" lon="23.787677753716707">
        <ele>762.6</ele>
        <time>2021-04-10T11:57:13.000Z</time>
      </trkpt>
      <trkpt lat="37.93286229483783" lon="23.78767892718315">
        <ele>762.6</ele>
        <time>2021-04-10T11:57:15.000Z</time>
      </trkpt>
      <trkpt lat="37.932859444990754" lon="23.787655793130398">
        <ele>762.8</ele>
        <time>2021-04-10T11:57:22.000Z</time>
      </trkpt>
      <trkpt lat="37.93287587352097" lon="23.78765973262489">
        <ele>762.4</ele>
        <time>2021-04-10T11:57:29.000Z</time>
      </trkpt>
      <trkpt lat="37.9328778013587" lon="23.787658223882318">
        <ele>762.4</ele>
        <time>2021-04-10T11:57:30.000Z</time>
      </trkpt>
      <trkpt lat="37.932879477739334" lon="23.787652691826224">
        <ele>762.4</ele>
        <time>2021-04-10T11:57:32.000Z</time>
      </trkpt>
      <trkpt lat="37.93287386186421" lon="23.787665516138077">
        <ele>762.6</ele>
        <time>2021-04-10T11:57:41.000Z</time>
      </trkpt>
      <trkpt lat="37.93286648578942" lon="23.787645315751433">
        <ele>762.8</ele>
        <time>2021-04-10T11:57:47.000Z</time>
      </trkpt>
      <trkpt lat="37.932866318151355" lon="23.787645483389497">
        <ele>762.8</ele>
        <time>2021-04-10T11:57:48.000Z</time>
      </trkpt>
      <trkpt lat="37.93286355212331" lon="23.787644812837243">
        <ele>763</ele>
        <time>2021-04-10T11:57:56.000Z</time>
      </trkpt>
      <trkpt lat="37.932830192148685" lon="23.78764757886529">
        <ele>762.4</ele>
        <time>2021-04-10T11:58:04.000Z</time>
      </trkpt>
      <trkpt lat="37.93281862512231" lon="23.787637520581484">
        <ele>762.2</ele>
        <time>2021-04-10T11:58:06.000Z</time>
      </trkpt>
      <trkpt lat="37.93279029428959" lon="23.78761975094676">
        <ele>762.2</ele>
        <time>2021-04-10T11:58:12.000Z</time>
      </trkpt>
      <trkpt lat="37.93278316967189" lon="23.787614051252604">
        <ele>762.4</ele>
        <time>2021-04-10T11:58:13.000Z</time>
      </trkpt>
      <trkpt lat="37.93278551660478" lon="23.787593599408865">
        <ele>761.8</ele>
        <time>2021-04-10T11:58:18.000Z</time>
      </trkpt>
      <trkpt lat="37.93278660625219" lon="23.787588654085994">
        <ele>761.8</ele>
        <time>2021-04-10T11:58:19.000Z</time>
      </trkpt>
      <trkpt lat="37.93276791460812" lon="23.787556132301688">
        <ele>761.8</ele>
        <time>2021-04-10T11:58:27.000Z</time>
      </trkpt>
      <trkpt lat="37.93276925571263" lon="23.787557305768132">
        <ele>761.8</ele>
        <time>2021-04-10T11:58:29.000Z</time>
      </trkpt>
      <trkpt lat="37.93277093209326" lon="23.787558563053608">
        <ele>761.8</ele>
        <time>2021-04-10T11:58:30.000Z</time>
      </trkpt>
      <trkpt lat="37.93278308585286" lon="23.787591503933072">
        <ele>761.8</ele>
        <time>2021-04-10T11:58:37.000Z</time>
      </trkpt>
      <trkpt lat="37.93278928846121" lon="23.787617906928062">
        <ele>762.2</ele>
        <time>2021-04-10T11:58:43.000Z</time>
      </trkpt>
      <trkpt lat="37.93279289267957" lon="23.787659564986825">
        <ele>762.2</ele>
        <time>2021-04-10T11:58:48.000Z</time>
      </trkpt>
      <trkpt lat="37.93278199620545" lon="23.787679513916373">
        <ele>761.8</ele>
        <time>2021-04-10T11:58:55.000Z</time>
      </trkpt>
      <trkpt lat="37.932779397815466" lon="23.78762167878449">
        <ele>762.2</ele>
        <time>2021-04-10T11:59:01.000Z</time>
      </trkpt>
      <trkpt lat="37.932742685079575" lon="23.78760516643524">
        <ele>762.4</ele>
        <time>2021-04-10T11:59:10.000Z</time>
      </trkpt>
      <trkpt lat="37.93272349052131" lon="23.787702899426222">
        <ele>761.8</ele>
        <time>2021-04-10T12:00:12.000Z</time>
      </trkpt>
      <trkpt lat="37.93272600509226" lon="23.787717819213867">
        <ele>762.2</ele>
        <time>2021-04-10T12:00:13.000Z</time>
      </trkpt>
      <trkpt lat="37.93271888047457" lon="23.787806667387486">
        <ele>762.4</ele>
        <time>2021-04-10T12:00:20.000Z</time>
      </trkpt>
      <trkpt lat="37.93271955102682" lon="23.787808511406183">
        <ele>761.6</ele>
        <time>2021-04-10T12:00:21.000Z</time>
      </trkpt>
      <trkpt lat="37.93272298760712" lon="23.78779619000852">
        <ele>760.8</ele>
        <time>2021-04-10T12:00:23.000Z</time>
      </trkpt>
      <trkpt lat="37.932724663987756" lon="23.787789652124047">
        <ele>760.4</ele>
        <time>2021-04-10T12:00:24.000Z</time>
      </trkpt>
      <trkpt lat="37.932725083082914" lon="23.787787472829223">
        <ele>760.4</ele>
        <time>2021-04-10T12:00:25.000Z</time>
      </trkpt>
      <trkpt lat="37.93275115080178" lon="23.787815971300006">
        <ele>760.4</ele>
        <time>2021-04-10T12:00:34.000Z</time>
      </trkpt>
      <trkpt lat="37.93275073170662" lon="23.787820832803845">
        <ele>760.6</ele>
        <time>2021-04-10T12:00:37.000Z</time>
      </trkpt>
      <trkpt lat="37.932745199650526" lon="23.787826783955097">
        <ele>760.6</ele>
        <time>2021-04-10T12:00:40.000Z</time>
      </trkpt>
      <trkpt lat="37.93274578638375" lon="23.787824185565114">
        <ele>760.2</ele>
        <time>2021-04-10T12:00:43.000Z</time>
      </trkpt>
      <trkpt lat="37.93276556767523" lon="23.78782016225159">
        <ele>760</ele>
        <time>2021-04-10T12:00:51.000Z</time>
      </trkpt>
      <trkpt lat="37.93276263400912" lon="23.787793591618538">
        <ele>760.6</ele>
        <time>2021-04-10T12:00:57.000Z</time>
      </trkpt>
      <trkpt lat="37.93275182135403" lon="23.787792837247252">
        <ele>760.8</ele>
        <time>2021-04-10T12:00:58.000Z</time>
      </trkpt>
      <trkpt lat="37.932727010920644" lon="23.787801386788487">
        <ele>761</ele>
        <time>2021-04-10T12:01:00.000Z</time>
      </trkpt>
      <trkpt lat="37.93271594680846" lon="23.787795854732394">
        <ele>762.2</ele>
        <time>2021-04-10T12:01:02.000Z</time>
      </trkpt>
      <trkpt lat="37.932714857161045" lon="23.787793423980474">
        <ele>762.2</ele>
        <time>2021-04-10T12:01:03.000Z</time>
      </trkpt>
      <trkpt lat="37.93271351605654" lon="23.78778981976211">
        <ele>762.2</ele>
        <time>2021-04-10T12:01:04.000Z</time>
      </trkpt>
      <trkpt lat="37.9327102471143" lon="23.78780390135944">
        <ele>761</ele>
        <time>2021-04-10T12:01:07.000Z</time>
      </trkpt>
      <trkpt lat="37.93270966038108" lon="23.787807002663612">
        <ele>761.2</ele>
        <time>2021-04-10T12:01:08.000Z</time>
      </trkpt>
      <trkpt lat="37.932701194658875" lon="23.787807673215866">
        <ele>761.2</ele>
        <time>2021-04-10T12:01:09.000Z</time>
      </trkpt>
      <trkpt lat="37.932690382003784" lon="23.787807589396834">
        <ele>761.2</ele>
        <time>2021-04-10T12:01:10.000Z</time>
      </trkpt>
      <trkpt lat="37.93268132954836" lon="23.787807757034898">
        <ele>761.2</ele>
        <time>2021-04-10T12:01:11.000Z</time>
      </trkpt>
      <trkpt lat="37.93267160654068" lon="23.78780541010201">
        <ele>761.2</ele>
        <time>2021-04-10T12:01:12.000Z</time>
      </trkpt>
      <trkpt lat="37.93264805339277" lon="23.787771044299006">
        <ele>761.4</ele>
        <time>2021-04-10T12:01:14.000Z</time>
      </trkpt>
      <trkpt lat="37.932635731995106" lon="23.78774095326662">
        <ele>761.4</ele>
        <time>2021-04-10T12:01:16.000Z</time>
      </trkpt>
      <trkpt lat="37.93263447470963" lon="23.787732487544417">
        <ele>761.8</ele>
        <time>2021-04-10T12:01:17.000Z</time>
      </trkpt>
      <trkpt lat="37.932631792500615" lon="23.787727374583483">
        <ele>762.4</ele>
        <time>2021-04-10T12:01:18.000Z</time>
      </trkpt>
      <trkpt lat="37.9326272662729" lon="23.787733241915703">
        <ele>761.6</ele>
        <time>2021-04-10T12:01:20.000Z</time>
      </trkpt>
      <trkpt lat="37.93262617662549" lon="23.787735169753432">
        <ele>761.8</ele>
        <time>2021-04-10T12:01:21.000Z</time>
      </trkpt>
      <trkpt lat="37.93263707309961" lon="23.787741959095">
        <ele>761.6</ele>
        <time>2021-04-10T12:01:23.000Z</time>
      </trkpt>
      <trkpt lat="37.932642018422484" lon="23.78774631768465">
        <ele>761.2</ele>
        <time>2021-04-10T12:01:24.000Z</time>
      </trkpt>
      <trkpt lat="37.93263950385153" lon="23.787769032642245">
        <ele>761.8</ele>
        <time>2021-04-10T12:01:28.000Z</time>
      </trkpt>
      <trkpt lat="37.93264235369861" lon="23.78777515143156">
        <ele>762</ele>
        <time>2021-04-10T12:01:31.000Z</time>
      </trkpt>
      <trkpt lat="37.93264294043183" lon="23.78775998018682">
        <ele>761.6</ele>
        <time>2021-04-10T12:01:38.000Z</time>
      </trkpt>
      <trkpt lat="37.93264235369861" lon="23.787749921903014">
        <ele>762</ele>
        <time>2021-04-10T12:01:43.000Z</time>
      </trkpt>
      <trkpt lat="37.93263162486255" lon="23.78772770985961">
        <ele>762</ele>
        <time>2021-04-10T12:01:46.000Z</time>
      </trkpt>
      <trkpt lat="37.9326238296926" lon="23.78769736737013">
        <ele>761.8</ele>
        <time>2021-04-10T12:01:48.000Z</time>
      </trkpt>
      <trkpt lat="37.93261980637908" lon="23.78768085502088">
        <ele>762</ele>
        <time>2021-04-10T12:01:49.000Z</time>
      </trkpt>
      <trkpt lat="37.93261787854135" lon="23.787663923576474">
        <ele>762.4</ele>
        <time>2021-04-10T12:01:50.000Z</time>
      </trkpt>
      <trkpt lat="37.932614190503955" lon="23.78765244036913">
        <ele>762.4</ele>
        <time>2021-04-10T12:01:51.000Z</time>
      </trkpt>
      <trkpt lat="37.93259164318442" lon="23.78753576427698">
        <ele>762</ele>
        <time>2021-04-10T12:01:58.000Z</time>
      </trkpt>
      <trkpt lat="37.93259256519377" lon="23.787484634667635">
        <ele>761.4</ele>
        <time>2021-04-10T12:02:01.000Z</time>
      </trkpt>
      <trkpt lat="37.932573119178414" lon="23.787410371005535">
        <ele>761.2</ele>
        <time>2021-04-10T12:02:05.000Z</time>
      </trkpt>
      <trkpt lat="37.93253431096673" lon="23.78730802796781">
        <ele>762</ele>
        <time>2021-04-10T12:02:12.000Z</time>
      </trkpt>
      <trkpt lat="37.93252835981548" lon="23.787271063774824">
        <ele>760.2</ele>
        <time>2021-04-10T12:02:14.000Z</time>
      </trkpt>
      <trkpt lat="37.93249650858343" lon="23.787194956094027">
        <ele>760</ele>
        <time>2021-04-10T12:02:19.000Z</time>
      </trkpt>
      <trkpt lat="37.93249374255538" lon="23.787181712687016">
        <ele>759.6</ele>
        <time>2021-04-10T12:02:20.000Z</time>
      </trkpt>
      <trkpt lat="37.932483181357384" lon="23.78717509098351">
        <ele>759</ele>
        <time>2021-04-10T12:02:22.000Z</time>
      </trkpt>
      <trkpt lat="37.93246298097074" lon="23.787114406004548">
        <ele>758.8</ele>
        <time>2021-04-10T12:02:25.000Z</time>
      </trkpt>
      <trkpt lat="37.93244261294603" lon="23.78705875016749">
        <ele>757.8</ele>
        <time>2021-04-10T12:02:31.000Z</time>
      </trkpt>
      <trkpt lat="37.93244051747024" lon="23.787062605842948">
        <ele>757.6</ele>
        <time>2021-04-10T12:02:32.000Z</time>
      </trkpt>
      <trkpt lat="37.93243951164186" lon="23.787066293880343">
        <ele>757.6</ele>
        <time>2021-04-10T12:02:33.000Z</time>
      </trkpt>
      <trkpt lat="37.93244487605989" lon="23.787073334679008">
        <ele>757.6</ele>
        <time>2021-04-10T12:02:37.000Z</time>
      </trkpt>
      <trkpt lat="37.932424172759056" lon="23.78701139241457">
        <ele>757.4</ele>
        <time>2021-04-10T12:02:44.000Z</time>
      </trkpt>
      <trkpt lat="37.93241118080914" lon="23.786960346624255">
        <ele>757.6</ele>
        <time>2021-04-10T12:02:50.000Z</time>
      </trkpt>
      <trkpt lat="37.93240883387625" lon="23.786970991641283">
        <ele>757.4</ele>
        <time>2021-04-10T12:02:55.000Z</time>
      </trkpt>
      <trkpt lat="37.93240724131465" lon="23.786963112652302">
        <ele>756.8</ele>
        <time>2021-04-10T12:03:09.000Z</time>
      </trkpt>
      <trkpt lat="37.93240640312433" lon="23.78696587868035">
        <ele>757</ele>
        <time>2021-04-10T12:03:17.000Z</time>
      </trkpt>
      <trkpt lat="37.93240179307759" lon="23.78696202300489">
        <ele>757</ele>
        <time>2021-04-10T12:03:18.000Z</time>
      </trkpt>
      <trkpt lat="37.93239978142083" lon="23.786974092945457">
        <ele>757</ele>
        <time>2021-04-10T12:03:25.000Z</time>
      </trkpt>
      <trkpt lat="37.93240036815405" lon="23.786974092945457">
        <ele>757</ele>
        <time>2021-04-10T12:03:26.000Z</time>
      </trkpt>
      <trkpt lat="37.932408414781094" lon="23.78696294501424">
        <ele>757.4</ele>
        <time>2021-04-10T12:03:31.000Z</time>
      </trkpt>
      <trkpt lat="37.93240724131465" lon="23.78696210682392">
        <ele>757.4</ele>
        <time>2021-04-10T12:03:32.000Z</time>
      </trkpt>
      <trkpt lat="37.93240833096206" lon="23.786970572546124">
        <ele>757</ele>
        <time>2021-04-10T12:03:40.000Z</time>
      </trkpt>
      <trkpt lat="37.93240732513368" lon="23.78697283565998">
        <ele>757</ele>
        <time>2021-04-10T12:03:42.000Z</time>
      </trkpt>
      <trkpt lat="37.932405984029174" lon="23.78698842599988">
        <ele>757</ele>
        <time>2021-04-10T12:03:46.000Z</time>
      </trkpt>
      <trkpt lat="37.93240296654403" lon="23.78702061250806">
        <ele>757</ele>
        <time>2021-04-10T12:04:00.000Z</time>
      </trkpt>
      <trkpt lat="37.9324010387063" lon="23.787017427384853">
        <ele>757</ele>
        <time>2021-04-10T12:04:03.000Z</time>
      </trkpt>
      <trkpt lat="37.93240514583886" lon="23.787032514810562">
        <ele>757</ele>
        <time>2021-04-10T12:04:07.000Z</time>
      </trkpt>
      <trkpt lat="37.93240145780146" lon="23.787034107372165">
        <ele>757</ele>
        <time>2021-04-10T12:04:09.000Z</time>
      </trkpt>
      <trkpt lat="37.93240581639111" lon="23.7870167568326">
        <ele>757</ele>
        <time>2021-04-10T12:04:16.000Z</time>
      </trkpt>
      <trkpt lat="37.932407995685935" lon="23.78702807240188">
        <ele>757</ele>
        <time>2021-04-10T12:04:19.000Z</time>
      </trkpt>
      <trkpt lat="37.932404140010476" lon="23.78704173490405">
        <ele>757</ele>
        <time>2021-04-10T12:04:24.000Z</time>
      </trkpt>
      <trkpt lat="37.93238561600447" lon="23.786923717707396">
        <ele>757</ele>
        <time>2021-04-10T12:04:31.000Z</time>
      </trkpt>
      <trkpt lat="37.9323426168412" lon="23.786835623905063">
        <ele>756.6</ele>
        <time>2021-04-10T12:04:38.000Z</time>
      </trkpt>
      <trkpt lat="37.9323167167604" lon="23.786789188161492">
        <ele>755.6</ele>
        <time>2021-04-10T12:04:42.000Z</time>
      </trkpt>
      <trkpt lat="37.9323079995811" lon="23.786779046058655">
        <ele>755.6</ele>
        <time>2021-04-10T12:04:43.000Z</time>
      </trkpt>
      <trkpt lat="37.93228251859546" lon="23.78675926476717">
        <ele>754.8</ele>
        <time>2021-04-10T12:04:46.000Z</time>
      </trkpt>
      <trkpt lat="37.93228251859546" lon="23.786750379949808">
        <ele>756.8</ele>
        <time>2021-04-10T12:04:47.000Z</time>
      </trkpt>
      <trkpt lat="37.93227665126324" lon="23.78672355785966">
        <ele>756.6</ele>
        <time>2021-04-10T12:04:49.000Z</time>
      </trkpt>
      <trkpt lat="37.93225913308561" lon="23.78667184151709">
        <ele>755.8</ele>
        <time>2021-04-10T12:04:52.000Z</time>
      </trkpt>
      <trkpt lat="37.93220875784755" lon="23.78661559894681">
        <ele>755.8</ele>
        <time>2021-04-10T12:04:56.000Z</time>
      </trkpt>
      <trkpt lat="37.93219719082117" lon="23.786608474329114">
        <ele>755.6</ele>
        <time>2021-04-10T12:04:57.000Z</time>
      </trkpt>
      <trkpt lat="37.93215720914304" lon="23.786557596176863">
        <ele>754.6</ele>
        <time>2021-04-10T12:05:02.000Z</time>
      </trkpt>
      <trkpt lat="37.93214865960181" lon="23.78654820844531">
        <ele>754</ele>
        <time>2021-04-10T12:05:03.000Z</time>
      </trkpt>
      <trkpt lat="37.9321266990155" lon="23.786531277000904">
        <ele>752.6</ele>
        <time>2021-04-10T12:05:05.000Z</time>
      </trkpt>
      <trkpt lat="37.93207355774939" lon="23.78648953512311">
        <ele>752.6</ele>
        <time>2021-04-10T12:05:09.000Z</time>
      </trkpt>
      <trkpt lat="37.932019997388124" lon="23.786426670849323">
        <ele>752</ele>
        <time>2021-04-10T12:05:15.000Z</time>
      </trkpt>
      <trkpt lat="37.931998539716005" lon="23.78639481961727">
        <ele>752.6</ele>
        <time>2021-04-10T12:05:18.000Z</time>
      </trkpt>
      <trkpt lat="37.931954115629196" lon="23.78634922206402">
        <ele>751.8</ele>
        <time>2021-04-10T12:05:22.000Z</time>
      </trkpt>
      <trkpt lat="37.93193969875574" lon="23.786329524591565">
        <ele>751.2</ele>
        <time>2021-04-10T12:05:24.000Z</time>
      </trkpt>
      <trkpt lat="37.93190851807594" lon="23.786297170445323">
        <ele>750.2</ele>
        <time>2021-04-10T12:05:27.000Z</time>
      </trkpt>
      <trkpt lat="37.931886138394475" lon="23.786271438002586">
        <ele>750.2</ele>
        <time>2021-04-10T12:05:29.000Z</time>
      </trkpt>
      <trkpt lat="37.931843139231205" lon="23.786212848499417">
        <ele>749.8</ele>
        <time>2021-04-10T12:05:33.000Z</time>
      </trkpt>
      <trkpt lat="37.9318349249661" lon="23.786200443282723">
        <ele>748.6</ele>
        <time>2021-04-10T12:05:34.000Z</time>
      </trkpt>
      <trkpt lat="37.931822603568435" lon="23.7861792370677">
        <ele>749</ele>
        <time>2021-04-10T12:05:36.000Z</time>
      </trkpt>
      <trkpt lat="37.93179695494473" lon="23.786144200712442">
        <ele>748.8</ele>
        <time>2021-04-10T12:05:39.000Z</time>
      </trkpt>
      <trkpt lat="37.931769881397486" lon="23.786094915121794">
        <ele>748.8</ele>
        <time>2021-04-10T12:05:42.000Z</time>
      </trkpt>
      <trkpt lat="37.931755213066936" lon="23.78605954349041">
        <ele>748.6</ele>
        <time>2021-04-10T12:05:44.000Z</time>
      </trkpt>
      <trkpt lat="37.93173920363188" lon="23.78602920100093">
        <ele>747.8</ele>
        <time>2021-04-10T12:05:46.000Z</time>
      </trkpt>
      <trkpt lat="37.93173308484256" lon="23.78601746633649">
        <ele>747.6</ele>
        <time>2021-04-10T12:05:47.000Z</time>
      </trkpt>
      <trkpt lat="37.93170592747629" lon="23.78597949631512">
        <ele>747.2</ele>
        <time>2021-04-10T12:05:52.000Z</time>
      </trkpt>
      <trkpt lat="37.93170567601919" lon="23.785979244858027">
        <ele>745</ele>
        <time>2021-04-10T12:05:54.000Z</time>
      </trkpt>
      <trkpt lat="37.931704921647906" lon="23.78598486073315">
        <ele>744.2</ele>
        <time>2021-04-10T12:05:57.000Z</time>
      </trkpt>
      <trkpt lat="37.931706262752414" lon="23.7859857827425">
        <ele>744.8</ele>
        <time>2021-04-10T12:05:58.000Z</time>
      </trkpt>
      <trkpt lat="37.931703832000494" lon="23.786001205444336">
        <ele>744.8</ele>
        <time>2021-04-10T12:06:02.000Z</time>
      </trkpt>
      <trkpt lat="37.931708274409175" lon="23.785994835197926">
        <ele>744.6</ele>
        <time>2021-04-10T12:06:10.000Z</time>
      </trkpt>
      <trkpt lat="37.93169972486794" lon="23.78598963841796">
        <ele>744.2</ele>
        <time>2021-04-10T12:06:20.000Z</time>
      </trkpt>
      <trkpt lat="37.93168941512704" lon="23.78598628565669">
        <ele>744.4</ele>
        <time>2021-04-10T12:06:24.000Z</time>
      </trkpt>
      <trkpt lat="37.931685810908675" lon="23.78598972223699">
        <ele>744</ele>
        <time>2021-04-10T12:06:30.000Z</time>
      </trkpt>
      <trkpt lat="37.931677429005504" lon="23.786005564033985">
        <ele>744.2</ele>
        <time>2021-04-10T12:06:33.000Z</time>
      </trkpt>
      <trkpt lat="37.931676506996155" lon="23.786000534892082">
        <ele>744.4</ele>
        <time>2021-04-10T12:06:35.000Z</time>
      </trkpt>
      <trkpt lat="37.93169620446861" lon="23.785987542942166">
        <ele>744.6</ele>
        <time>2021-04-10T12:06:41.000Z</time>
      </trkpt>
      <trkpt lat="37.93168522417545" lon="23.785996427759528">
        <ele>744</ele>
        <time>2021-04-10T12:06:51.000Z</time>
      </trkpt>
      <trkpt lat="37.931701904162765" lon="23.786003636196256">
        <ele>744.2</ele>
        <time>2021-04-10T12:06:57.000Z</time>
      </trkpt>
      <trkpt lat="37.931669717654586" lon="23.785971282050014">
        <ele>744</ele>
        <time>2021-04-10T12:07:05.000Z</time>
      </trkpt>
      <trkpt lat="37.931669214740396" lon="23.785966504365206">
        <ele>743.8</ele>
        <time>2021-04-10T12:07:06.000Z</time>
      </trkpt>
      <trkpt lat="37.931684302166104" lon="23.785955859348178">
        <ele>744</ele>
        <time>2021-04-10T12:07:14.000Z</time>
      </trkpt>
      <trkpt lat="37.931689750403166" lon="23.785988967865705">
        <ele>744.2</ele>
        <time>2021-04-10T12:07:21.000Z</time>
      </trkpt>
      <trkpt lat="37.931689247488976" lon="23.785990560427308">
        <ele>744.2</ele>
        <time>2021-04-10T12:07:23.000Z</time>
      </trkpt>
      <trkpt lat="37.931691175326705" lon="23.78598913550377">
        <ele>744.2</ele>
        <time>2021-04-10T12:07:24.000Z</time>
      </trkpt>
      <trkpt lat="37.93170458637178" lon="23.785977819934487">
        <ele>744.4</ele>
        <time>2021-04-10T12:07:30.000Z</time>
      </trkpt>
      <trkpt lat="37.93170123361051" lon="23.785977317020297">
        <ele>744.6</ele>
        <time>2021-04-10T12:07:32.000Z</time>
      </trkpt>
      <trkpt lat="37.931687319651246" lon="23.785981005057693">
        <ele>744.4</ele>
        <time>2021-04-10T12:07:36.000Z</time>
      </trkpt>
      <trkpt lat="37.93168472126126" lon="23.7859823461622">
        <ele>744.4</ele>
        <time>2021-04-10T12:07:37.000Z</time>
      </trkpt>
      <trkpt lat="37.9316811170429" lon="23.785984190180898">
        <ele>744.2</ele>
        <time>2021-04-10T12:07:39.000Z</time>
      </trkpt>
      <trkpt lat="37.93165194801986" lon="23.78598284907639">
        <ele>744.2</ele>
        <time>2021-04-10T12:07:49.000Z</time>
      </trkpt>
      <trkpt lat="37.93165136128664" lon="23.785981507971883">
        <ele>744.2</ele>
        <time>2021-04-10T12:07:50.000Z</time>
      </trkpt>
      <trkpt lat="37.93165907263756" lon="23.78597798757255">
        <ele>744.2</ele>
        <time>2021-04-10T12:07:54.000Z</time>
      </trkpt>
      <trkpt lat="37.93165932409465" lon="23.785982681438327">
        <ele>744</ele>
        <time>2021-04-10T12:07:57.000Z</time>
      </trkpt>
      <trkpt lat="37.93165873736143" lon="23.78598620183766">
        <ele>744</ele>
        <time>2021-04-10T12:07:58.000Z</time>
      </trkpt>
      <trkpt lat="37.931653540581465" lon="23.78599659539759">
        <ele>744</ele>
        <time>2021-04-10T12:08:01.000Z</time>
      </trkpt>
      <trkpt lat="37.93165127746761" lon="23.78599315881729">
        <ele>743.8</ele>
        <time>2021-04-10T12:08:07.000Z</time>
      </trkpt>
      <trkpt lat="37.93165035545826" lon="23.785991985350847">
        <ele>744.2</ele>
        <time>2021-04-10T12:08:12.000Z</time>
      </trkpt>
      <trkpt lat="37.93164683505893" lon="23.78599022515118">
        <ele>744.4</ele>
        <time>2021-04-10T12:08:14.000Z</time>
      </trkpt>
      <trkpt lat="37.93164750561118" lon="23.78598771058023">
        <ele>744.2</ele>
        <time>2021-04-10T12:08:20.000Z</time>
      </trkpt>
      <trkpt lat="37.93164054863155" lon="23.78596918657422">
        <ele>744</ele>
        <time>2021-04-10T12:08:31.000Z</time>
      </trkpt>
      <trkpt lat="37.931614397093654" lon="23.785942113026977">
        <ele>744.2</ele>
        <time>2021-04-10T12:08:38.000Z</time>
      </trkpt>
      <trkpt lat="37.9316086973995" lon="23.785941610112786">
        <ele>744.2</ele>
        <time>2021-04-10T12:08:40.000Z</time>
      </trkpt>
      <trkpt lat="37.93161263689399" lon="23.785932222381234">
        <ele>744.4</ele>
        <time>2021-04-10T12:08:43.000Z</time>
      </trkpt>
      <trkpt lat="37.93160459026694" lon="23.78593205474317">
        <ele>744.2</ele>
        <time>2021-04-10T12:08:47.000Z</time>
      </trkpt>
      <trkpt lat="37.93161020614207" lon="23.785930881276727">
        <ele>744.2</ele>
        <time>2021-04-10T12:08:50.000Z</time>
      </trkpt>
      <trkpt lat="37.93161020614207" lon="23.785937167704105">
        <ele>744.2</ele>
        <time>2021-04-10T12:08:53.000Z</time>
      </trkpt>
      <trkpt lat="37.9316552169621" lon="23.785970024764538">
        <ele>744.4</ele>
        <time>2021-04-10T12:08:58.000Z</time>
      </trkpt>
      <trkpt lat="37.93166468851268" lon="23.78598771058023">
        <ele>744.2</ele>
        <time>2021-04-10T12:09:07.000Z</time>
      </trkpt>
      <trkpt lat="37.93167290277779" lon="23.78598385490477">
        <ele>744.4</ele>
        <time>2021-04-10T12:09:17.000Z</time>
      </trkpt>
      <trkpt lat="37.93167390860617" lon="23.785983435809612">
        <ele>744.4</ele>
        <time>2021-04-10T12:09:18.000Z</time>
      </trkpt>
      <trkpt lat="37.9317086096853" lon="23.78599072806537">
        <ele>744.6</ele>
        <time>2021-04-10T12:09:24.000Z</time>
      </trkpt>
      <trkpt lat="37.931704418733716" lon="23.785990308970213">
        <ele>744.6</ele>
        <time>2021-04-10T12:09:26.000Z</time>
      </trkpt>
      <trkpt lat="37.93167910538614" lon="23.78597212024033">
        <ele>744.8</ele>
        <time>2021-04-10T12:09:31.000Z</time>
      </trkpt>
      <trkpt lat="37.93168321251869" lon="23.78599014133215">
        <ele>744.8</ele>
        <time>2021-04-10T12:09:34.000Z</time>
      </trkpt>
      <trkpt lat="37.931686816737056" lon="23.785993913188577">
        <ele>744.8</ele>
        <time>2021-04-10T12:09:35.000Z</time>
      </trkpt>
      <trkpt lat="37.93168882839382" lon="23.785990476608276">
        <ele>744.8</ele>
        <time>2021-04-10T12:09:36.000Z</time>
      </trkpt>
      <trkpt lat="37.931653121486306" lon="23.78595351241529">
        <ele>745.2</ele>
        <time>2021-04-10T12:09:40.000Z</time>
      </trkpt>
      <trkpt lat="37.93164247646928" lon="23.785938592627645">
        <ele>745</ele>
        <time>2021-04-10T12:09:41.000Z</time>
      </trkpt>
      <trkpt lat="37.93163484893739" lon="23.78590129315853">
        <ele>744.6</ele>
        <time>2021-04-10T12:09:44.000Z</time>
      </trkpt>
      <trkpt lat="37.93162998743355" lon="23.785874722525477">
        <ele>743.8</ele>
        <time>2021-04-10T12:09:47.000Z</time>
      </trkpt>
      <trkpt lat="37.93162688612938" lon="23.785868184641004">
        <ele>743.8</ele>
        <time>2021-04-10T12:09:48.000Z</time>
      </trkpt>
      <trkpt lat="37.9316256288439" lon="23.78585720434785">
        <ele>744.4</ele>
        <time>2021-04-10T12:09:49.000Z</time>
      </trkpt>
      <trkpt lat="37.931618420407176" lon="23.785840440541506">
        <ele>743.6</ele>
        <time>2021-04-10T12:09:51.000Z</time>
      </trkpt>
      <trkpt lat="37.93159939348698" lon="23.785833567380905">
        <ele>743.4</ele>
        <time>2021-04-10T12:09:53.000Z</time>
      </trkpt>
      <trkpt lat="37.93158832937479" lon="23.78582602366805">
        <ele>743.4</ele>
        <time>2021-04-10T12:09:54.000Z</time>
      </trkpt>
      <trkpt lat="37.93157164938748" lon="23.785822251811624">
        <ele>743</ele>
        <time>2021-04-10T12:09:57.000Z</time>
      </trkpt>
      <trkpt lat="37.93157156556845" lon="23.785809176042676">
        <ele>742.8</ele>
        <time>2021-04-10T12:09:59.000Z</time>
      </trkpt>
      <trkpt lat="37.931567039340734" lon="23.785778749734163">
        <ele>742.6</ele>
        <time>2021-04-10T12:10:02.000Z</time>
      </trkpt>
      <trkpt lat="37.931567542254925" lon="23.785762740299106">
        <ele>742.6</ele>
        <time>2021-04-10T12:10:03.000Z</time>
      </trkpt>
      <trkpt lat="37.93154876679182" lon="23.78573172725737">
        <ele>742.2</ele>
        <time>2021-04-10T12:10:06.000Z</time>
      </trkpt>
      <trkpt lat="37.93153837323189" lon="23.785730050876737">
        <ele>742.2</ele>
        <time>2021-04-10T12:10:07.000Z</time>
      </trkpt>
      <trkpt lat="37.93152269907296" lon="23.785725105553865">
        <ele>741.8</ele>
        <time>2021-04-10T12:10:09.000Z</time>
      </trkpt>
      <trkpt lat="37.93151658028364" lon="23.785726111382246">
        <ele>741.8</ele>
        <time>2021-04-10T12:10:10.000Z</time>
      </trkpt>
      <trkpt lat="37.93151071295142" lon="23.78573860041797">
        <ele>741.6</ele>
        <time>2021-04-10T12:10:11.000Z</time>
      </trkpt>
      <trkpt lat="37.931504510343075" lon="23.78575117327273">
        <ele>741.4</ele>
        <time>2021-04-10T12:10:13.000Z</time>
      </trkpt>
      <trkpt lat="37.93148573487997" lon="23.7857389356941">
        <ele>741.6</ele>
        <time>2021-04-10T12:10:19.000Z</time>
      </trkpt>
      <trkpt lat="37.931486908346415" lon="23.78572292625904">
        <ele>741.6</ele>
        <time>2021-04-10T12:10:20.000Z</time>
      </trkpt>
      <trkpt lat="37.93146855197847" lon="23.785724099725485">
        <ele>741.8</ele>
        <time>2021-04-10T12:10:22.000Z</time>
      </trkpt>
      <trkpt lat="37.93144843541086" lon="23.785732481628656">
        <ele>741.8</ele>
        <time>2021-04-10T12:10:24.000Z</time>
      </trkpt>
      <trkpt lat="37.93144407682121" lon="23.785710772499442">
        <ele>741.2</ele>
        <time>2021-04-10T12:10:29.000Z</time>
      </trkpt>
      <trkpt lat="37.931445417925715" lon="23.785712281242013">
        <ele>740.8</ele>
        <time>2021-04-10T12:10:32.000Z</time>
      </trkpt>
      <trkpt lat="37.93144625611603" lon="23.78573801368475">
        <ele>740.8</ele>
        <time>2021-04-10T12:10:38.000Z</time>
      </trkpt>
      <trkpt lat="37.93147341348231" lon="23.78572183661163">
        <ele>740.4</ele>
        <time>2021-04-10T12:10:50.000Z</time>
      </trkpt>
      <trkpt lat="37.931482968851924" lon="23.78572384826839">
        <ele>740.4</ele>
        <time>2021-04-10T12:10:52.000Z</time>
      </trkpt>
      <trkpt lat="37.93148531578481" lon="23.785708090290427">
        <ele>740.6</ele>
        <time>2021-04-10T12:10:59.000Z</time>
      </trkpt>
      <trkpt lat="37.93145346455276" lon="23.78566173836589">
        <ele>741</ele>
        <time>2021-04-10T12:11:06.000Z</time>
      </trkpt>
      <trkpt lat="37.93144013732672" lon="23.78563500009477">
        <ele>740.8</ele>
        <time>2021-04-10T12:11:08.000Z</time>
      </trkpt>
      <trkpt lat="37.93143385089934" lon="23.785620583221316">
        <ele>740.8</ele>
        <time>2021-04-10T12:11:10.000Z</time>
      </trkpt>
      <trkpt lat="37.93142077513039" lon="23.78557230345905">
        <ele>739.8</ele>
        <time>2021-04-10T12:11:17.000Z</time>
      </trkpt>
      <trkpt lat="37.93139378540218" lon="23.785559060052037">
        <ele>739.2</ele>
        <time>2021-04-10T12:11:22.000Z</time>
      </trkpt>
      <trkpt lat="37.93139076791704" lon="23.785546151921153">
        <ele>739.4</ele>
        <time>2021-04-10T12:11:23.000Z</time>
      </trkpt>
      <trkpt lat="37.93138900771737" lon="23.78552008420229">
        <ele>738.6</ele>
        <time>2021-04-10T12:11:28.000Z</time>
      </trkpt>
      <trkpt lat="37.93137710541487" lon="23.7855039909482">
        <ele>738</ele>
        <time>2021-04-10T12:11:30.000Z</time>
      </trkpt>
      <trkpt lat="37.93139244429767" lon="23.785438612103462">
        <ele>737.4</ele>
        <time>2021-04-10T12:11:37.000Z</time>
      </trkpt>
      <trkpt lat="37.93139730580151" lon="23.78543358296156">
        <ele>737.2</ele>
        <time>2021-04-10T12:11:38.000Z</time>
      </trkpt>
      <trkpt lat="37.9313962161541" lon="23.785399803891778">
        <ele>736.2</ele>
        <time>2021-04-10T12:11:44.000Z</time>
      </trkpt>
      <trkpt lat="37.93140300549567" lon="23.785385051742196">
        <ele>736</ele>
        <time>2021-04-10T12:11:45.000Z</time>
      </trkpt>
      <trkpt lat="37.93141599744558" lon="23.7853573076427">
        <ele>735.2</ele>
        <time>2021-04-10T12:11:47.000Z</time>
      </trkpt>
      <trkpt lat="37.93140853755176" lon="23.785302406176925">
        <ele>734.4</ele>
        <time>2021-04-10T12:11:52.000Z</time>
      </trkpt>
      <trkpt lat="37.93138758279383" lon="23.785258820280433">
        <ele>734</ele>
        <time>2021-04-10T12:11:56.000Z</time>
      </trkpt>
      <trkpt lat="37.93137853033841" lon="23.78524834290147">
        <ele>733.6</ele>
        <time>2021-04-10T12:11:58.000Z</time>
      </trkpt>
      <trkpt lat="37.93134391307831" lon="23.785275416448712">
        <ele>733.4</ele>
        <time>2021-04-10T12:12:02.000Z</time>
      </trkpt>
      <trkpt lat="37.93130828998983" lon="23.785292012616992">
        <ele>733.2</ele>
        <time>2021-04-10T12:12:04.000Z</time>
      </trkpt>
      <trkpt lat="37.93130409903824" lon="23.785275081172585">
        <ele>733.2</ele>
        <time>2021-04-10T12:12:07.000Z</time>
      </trkpt>
      <trkpt lat="37.93129513040185" lon="23.785247672349215">
        <ele>733.4</ele>
        <time>2021-04-10T12:12:10.000Z</time>
      </trkpt>
      <trkpt lat="37.931275852024555" lon="23.78521372564137">
        <ele>733.4</ele>
        <time>2021-04-10T12:12:12.000Z</time>
      </trkpt>
      <trkpt lat="37.93125690892339" lon="23.78520299680531">
        <ele>733.4</ele>
        <time>2021-04-10T12:12:15.000Z</time>
      </trkpt>
      <trkpt lat="37.93124676682055" lon="23.785210624337196">
        <ele>733.4</ele>
        <time>2021-04-10T12:12:16.000Z</time>
      </trkpt>
      <trkpt lat="37.93122463859618" lon="23.785206517204642">
        <ele>733.6</ele>
        <time>2021-04-10T12:12:18.000Z</time>
      </trkpt>
      <trkpt lat="37.93121114373207" lon="23.78519327379763">
        <ele>733.6</ele>
        <time>2021-04-10T12:12:20.000Z</time>
      </trkpt>
      <trkpt lat="37.9311974812299" lon="23.78519511781633">
        <ele>733</ele>
        <time>2021-04-10T12:12:24.000Z</time>
      </trkpt>
      <trkpt lat="37.931190272793174" lon="23.785201236605644">
        <ele>732.4</ele>
        <time>2021-04-10T12:12:25.000Z</time>
      </trkpt>
      <trkpt lat="37.93116797693074" lon="23.785206265747547">
        <ele>732.2</ele>
        <time>2021-04-10T12:12:29.000Z</time>
      </trkpt>
      <trkpt lat="37.931134197860956" lon="23.7852190900594">
        <ele>732.4</ele>
        <time>2021-04-10T12:12:33.000Z</time>
      </trkpt>
      <trkpt lat="37.93110343627632" lon="23.785234093666077">
        <ele>732</ele>
        <time>2021-04-10T12:12:37.000Z</time>
      </trkpt>
      <trkpt lat="37.93109874241054" lon="23.785242224112153">
        <ele>732</ele>
        <time>2021-04-10T12:12:39.000Z</time>
      </trkpt>
      <trkpt lat="37.93106169439852" lon="23.785263346508145">
        <ele>732.4</ele>
        <time>2021-04-10T12:12:44.000Z</time>
      </trkpt>
      <trkpt lat="37.931052055209875" lon="23.78525965847075">
        <ele>732.4</ele>
        <time>2021-04-10T12:12:45.000Z</time>
      </trkpt>
      <trkpt lat="37.93103453703225" lon="23.78524591214955">
        <ele>732.6</ele>
        <time>2021-04-10T12:12:48.000Z</time>
      </trkpt>
      <trkpt lat="37.93098835274577" lon="23.78521121107042">
        <ele>731.4</ele>
        <time>2021-04-10T12:12:53.000Z</time>
      </trkpt>
      <trkpt lat="37.930971421301365" lon="23.785168463364244">
        <ele>731.2</ele>
        <time>2021-04-10T12:12:58.000Z</time>
      </trkpt>
      <trkpt lat="37.93097477406263" lon="23.78517022356391">
        <ele>730.4</ele>
        <time>2021-04-10T12:13:00.000Z</time>
      </trkpt>
      <trkpt lat="37.93097703717649" lon="23.785171983763576">
        <ele>729.6</ele>
        <time>2021-04-10T12:13:03.000Z</time>
      </trkpt>
      <trkpt lat="37.930978210642934" lon="23.785154465585947">
        <ele>729.4</ele>
        <time>2021-04-10T12:13:05.000Z</time>
      </trkpt>
      <trkpt lat="37.93096010573208" lon="23.78511691465974">
        <ele>729</ele>
        <time>2021-04-10T12:13:08.000Z</time>
      </trkpt>
      <trkpt lat="37.930907467380166" lon="23.785060588270426">
        <ele>728.8</ele>
        <time>2021-04-10T12:13:14.000Z</time>
      </trkpt>
      <trkpt lat="37.930901600047946" lon="23.785046506673098">
        <ele>728.6</ele>
        <time>2021-04-10T12:13:16.000Z</time>
      </trkpt>
      <trkpt lat="37.930898666381836" lon="23.78502261824906">
        <ele>728.2</ele>
        <time>2021-04-10T12:13:18.000Z</time>
      </trkpt>
      <trkpt lat="37.93089682236314" lon="23.784996885806322">
        <ele>727.6</ele>
        <time>2021-04-10T12:13:20.000Z</time>
      </trkpt>
      <trkpt lat="37.93090470135212" lon="23.784976517781615">
        <ele>727.2</ele>
        <time>2021-04-10T12:13:22.000Z</time>
      </trkpt>
      <trkpt lat="37.93089414015412" lon="23.78494651056826">
        <ele>727</ele>
        <time>2021-04-10T12:13:26.000Z</time>
      </trkpt>
      <trkpt lat="37.93086874298751" lon="23.784910971298814">
        <ele>726.4</ele>
        <time>2021-04-10T12:13:30.000Z</time>
      </trkpt>
      <trkpt lat="37.930860444903374" lon="23.78490694798529">
        <ele>726</ele>
        <time>2021-04-10T12:13:31.000Z</time>
      </trkpt>
      <trkpt lat="37.93085290119052" lon="23.7849030084908">
        <ele>725.6</ele>
        <time>2021-04-10T12:13:32.000Z</time>
      </trkpt>
      <trkpt lat="37.930837981402874" lon="23.784900829195976">
        <ele>725</ele>
        <time>2021-04-10T12:13:34.000Z</time>
      </trkpt>
      <trkpt lat="37.93082213960588" lon="23.784897392615676">
        <ele>724.8</ele>
        <time>2021-04-10T12:13:36.000Z</time>
      </trkpt>
      <trkpt lat="37.930817445740104" lon="23.784896302968264">
        <ele>724.8</ele>
        <time>2021-04-10T12:13:37.000Z</time>
      </trkpt>
      <trkpt lat="37.93081870302558" lon="23.784905774518847">
        <ele>724.8</ele>
        <time>2021-04-10T12:13:39.000Z</time>
      </trkpt>
      <trkpt lat="37.930822391062975" lon="23.78491080366075">
        <ele>725</ele>
        <time>2021-04-10T12:13:41.000Z</time>
      </trkpt>
      <trkpt lat="37.93082063086331" lon="23.784909965470433">
        <ele>725</ele>
        <time>2021-04-10T12:13:42.000Z</time>
      </trkpt>
      <trkpt lat="37.93080068193376" lon="23.784864535555243">
        <ele>724.8</ele>
        <time>2021-04-10T12:13:46.000Z</time>
      </trkpt>
      <trkpt lat="37.93079975992441" lon="23.78485070541501">
        <ele>724.6</ele>
        <time>2021-04-10T12:13:48.000Z</time>
      </trkpt>
      <trkpt lat="37.930798418819904" lon="23.784849615767598">
        <ele>726.4</ele>
        <time>2021-04-10T12:13:49.000Z</time>
      </trkpt>
      <trkpt lat="37.930798921734095" lon="23.784849364310503">
        <ele>725.8</ele>
        <time>2021-04-10T12:13:51.000Z</time>
      </trkpt>
      <trkpt lat="37.930770590901375" lon="23.784813322126865">
        <ele>726.2</ele>
        <time>2021-04-10T12:13:56.000Z</time>
      </trkpt>
      <trkpt lat="37.930747624486685" lon="23.784825894981623">
        <ele>725.8</ele>
        <time>2021-04-10T12:14:00.000Z</time>
      </trkpt>
      <trkpt lat="37.93074938468635" lon="23.784828577190638">
        <ele>725.4</ele>
        <time>2021-04-10T12:14:03.000Z</time>
      </trkpt>
      <trkpt lat="37.930752988904715" lon="23.784831846132874">
        <ele>725.4</ele>
        <time>2021-04-10T12:14:04.000Z</time>
      </trkpt>
      <trkpt lat="37.93075977824628" lon="23.7848305888474">
        <ele>725</ele>
        <time>2021-04-10T12:14:09.000Z</time>
      </trkpt>
      <trkpt lat="37.93076019734144" lon="23.78481994383037">
        <ele>725</ele>
        <time>2021-04-10T12:14:10.000Z</time>
      </trkpt>
      <trkpt lat="37.93076237663627" lon="23.784752888605">
        <ele>725.6</ele>
        <time>2021-04-10T12:14:17.000Z</time>
      </trkpt>
      <trkpt lat="37.930750558152795" lon="23.78474324941635">
        <ele>724.2</ele>
        <time>2021-04-10T12:14:23.000Z</time>
      </trkpt>
      <trkpt lat="37.930744690820575" lon="23.78473637625575">
        <ele>724.2</ele>
        <time>2021-04-10T12:14:26.000Z</time>
      </trkpt>
      <trkpt lat="37.93074008077383" lon="23.784736460074782">
        <ele>724.2</ele>
        <time>2021-04-10T12:14:32.000Z</time>
      </trkpt>
      <trkpt lat="37.93073991313577" lon="23.78474274650216">
        <ele>724.2</ele>
        <time>2021-04-10T12:14:35.000Z</time>
      </trkpt>
      <trkpt lat="37.9307434335351" lon="23.784745847806334">
        <ele>724</ele>
        <time>2021-04-10T12:14:44.000Z</time>
      </trkpt>
      <trkpt lat="37.930747205391526" lon="23.78474911674857">
        <ele>723.8</ele>
        <time>2021-04-10T12:14:48.000Z</time>
      </trkpt>
      <trkpt lat="37.93077880516648" lon="23.78475397825241">
        <ele>723.8</ele>
        <time>2021-04-10T12:14:53.000Z</time>
      </trkpt>
      <trkpt lat="37.930785678327084" lon="23.784721037372947">
        <ele>724.2</ele>
        <time>2021-04-10T12:14:56.000Z</time>
      </trkpt>
      <trkpt lat="37.93078735470772" lon="23.784699998795986">
        <ele>724.2</ele>
        <time>2021-04-10T12:14:57.000Z</time>
      </trkpt>
      <trkpt lat="37.93079246766865" lon="23.78468608483672">
        <ele>724.2</ele>
        <time>2021-04-10T12:14:58.000Z</time>
      </trkpt>
      <trkpt lat="37.93079565279186" lon="23.784672589972615">
        <ele>724.2</ele>
        <time>2021-04-10T12:14:59.000Z</time>
      </trkpt>
      <trkpt lat="37.93079489842057" lon="23.78465515561402">
        <ele>723.4</ele>
        <time>2021-04-10T12:15:01.000Z</time>
      </trkpt>
      <trkpt lat="37.930787270888686" lon="23.784652138128877">
        <ele>722.8</ele>
        <time>2021-04-10T12:15:02.000Z</time>
      </trkpt>
      <trkpt lat="37.93076975271106" lon="23.784639732912183">
        <ele>721.6</ele>
        <time>2021-04-10T12:15:06.000Z</time>
      </trkpt>
      <trkpt lat="37.93076262809336" lon="23.78463512286544">
        <ele>721.4</ele>
        <time>2021-04-10T12:15:08.000Z</time>
      </trkpt>
      <trkpt lat="37.9307452775538" lon="23.784635877236724">
        <ele>720.8</ele>
        <time>2021-04-10T12:15:10.000Z</time>
      </trkpt>
      <trkpt lat="37.9307312797755" lon="23.784624310210347">
        <ele>720.6</ele>
        <time>2021-04-10T12:15:12.000Z</time>
      </trkpt>
      <trkpt lat="37.93072767555714" lon="23.78461073152721">
        <ele>720.4</ele>
        <time>2021-04-10T12:15:13.000Z</time>
      </trkpt>
      <trkpt lat="37.93072834610939" lon="23.78459120169282">
        <ele>720.2</ele>
        <time>2021-04-10T12:15:15.000Z</time>
      </trkpt>
      <trkpt lat="37.93072340078652" lon="23.784588938578963">
        <ele>719.8</ele>
        <time>2021-04-10T12:15:18.000Z</time>
      </trkpt>
      <trkpt lat="37.930715940892696" lon="23.784581227228045">
        <ele>719.4</ele>
        <time>2021-04-10T12:15:20.000Z</time>
      </trkpt>
      <trkpt lat="37.93068400584161" lon="23.784562787041068">
        <ele>719.6</ele>
        <time>2021-04-10T12:15:24.000Z</time>
      </trkpt>
      <trkpt lat="37.93066590093076" lon="23.78455557860434">
        <ele>719.8</ele>
        <time>2021-04-10T12:15:26.000Z</time>
      </trkpt>
      <trkpt lat="37.93063949793577" lon="23.78454820252955">
        <ele>719.8</ele>
        <time>2021-04-10T12:15:29.000Z</time>
      </trkpt>
      <trkpt lat="37.93063170276582" lon="23.784551471471786">
        <ele>719.8</ele>
        <time>2021-04-10T12:15:30.000Z</time>
      </trkpt>
      <trkpt lat="37.93060664087534" lon="23.78455742262304">
        <ele>719.6</ele>
        <time>2021-04-10T12:15:32.000Z</time>
      </trkpt>
      <trkpt lat="37.93057336471975" lon="23.78454082645476">
        <ele>718.2</ele>
        <time>2021-04-10T12:15:35.000Z</time>
      </trkpt>
      <trkpt lat="37.930565318092704" lon="23.78453018143773">
        <ele>717.8</ele>
        <time>2021-04-10T12:15:36.000Z</time>
      </trkpt>
      <trkpt lat="37.93055232614279" lon="23.78448324277997">
        <ele>717.2</ele>
        <time>2021-04-10T12:15:39.000Z</time>
      </trkpt>
      <trkpt lat="37.930552661418915" lon="23.784460024908185">
        <ele>716.6</ele>
        <time>2021-04-10T12:15:41.000Z</time>
      </trkpt>
      <trkpt lat="37.9305586963892" lon="23.784451140090823">
        <ele>716.4</ele>
        <time>2021-04-10T12:15:42.000Z</time>
      </trkpt>
      <trkpt lat="37.93058451265097" lon="23.78443881869316">
        <ele>716</ele>
        <time>2021-04-10T12:15:45.000Z</time>
      </trkpt>
      <trkpt lat="37.93061443604529" lon="23.78443295136094">
        <ele>716</ele>
        <time>2021-04-10T12:15:48.000Z</time>
      </trkpt>
      <trkpt lat="37.930631870403886" lon="23.784407889470458">
        <ele>716.2</ele>
        <time>2021-04-10T12:15:52.000Z</time>
      </trkpt>
      <trkpt lat="37.93065927922726" lon="23.7844056263566">
        <ele>715.6</ele>
        <time>2021-04-10T12:15:57.000Z</time>
      </trkpt>
      <trkpt lat="37.93069716542959" lon="23.784362878650427">
        <ele>715.2</ele>
        <time>2021-04-10T12:16:04.000Z</time>
      </trkpt>
      <trkpt lat="37.930707139894366" lon="23.784362375736237">
        <ele>715</ele>
        <time>2021-04-10T12:16:05.000Z</time>
      </trkpt>
      <trkpt lat="37.93072792701423" lon="23.784325746819377">
        <ele>714.6</ele>
        <time>2021-04-10T12:16:09.000Z</time>
      </trkpt>
      <trkpt lat="37.93073035776615" lon="23.78432096913457">
        <ele>714.6</ele>
        <time>2021-04-10T12:16:10.000Z</time>
      </trkpt>
      <trkpt lat="37.93073178268969" lon="23.784313844516873">
        <ele>714.6</ele>
        <time>2021-04-10T12:16:11.000Z</time>
      </trkpt>
      <trkpt lat="37.93074946850538" lon="23.784294817596674">
        <ele>714.2</ele>
        <time>2021-04-10T12:16:14.000Z</time>
      </trkpt>
      <trkpt lat="37.930758437141776" lon="23.784279813989997">
        <ele>714</ele>
        <time>2021-04-10T12:16:16.000Z</time>
      </trkpt>
      <trkpt lat="37.930759023875" lon="23.784262631088495">
        <ele>713.8</ele>
        <time>2021-04-10T12:16:17.000Z</time>
      </trkpt>
      <trkpt lat="37.93075977824628" lon="23.78424033522606">
        <ele>713.6</ele>
        <time>2021-04-10T12:16:18.000Z</time>
      </trkpt>
      <trkpt lat="37.93077335692942" lon="23.78419063054025">
        <ele>712.6</ele>
        <time>2021-04-10T12:16:21.000Z</time>
      </trkpt>
      <trkpt lat="37.93077704496682" lon="23.784173280000687">
        <ele>712</ele>
        <time>2021-04-10T12:16:23.000Z</time>
      </trkpt>
      <trkpt lat="37.93076237663627" lon="23.78416322171688">
        <ele>711.6</ele>
        <time>2021-04-10T12:16:26.000Z</time>
      </trkpt>
      <trkpt lat="37.93076262809336" lon="23.7841484695673">
        <ele>711.6</ele>
        <time>2021-04-10T12:16:27.000Z</time>
      </trkpt>
      <trkpt lat="37.93076447211206" lon="23.784133968874812">
        <ele>711.6</ele>
        <time>2021-04-10T12:16:28.000Z</time>
      </trkpt>
      <trkpt lat="37.930761873722076" lon="23.784113433212042">
        <ele>711.6</ele>
        <time>2021-04-10T12:16:30.000Z</time>
      </trkpt>
      <trkpt lat="37.93075625784695" lon="23.784091556444764">
        <ele>711.6</ele>
        <time>2021-04-10T12:16:32.000Z</time>
      </trkpt>
      <trkpt lat="37.93074544519186" lon="23.784047216176987">
        <ele>710.4</ele>
        <time>2021-04-10T12:16:36.000Z</time>
      </trkpt>
      <trkpt lat="37.9307640530169" lon="23.784000193700194">
        <ele>709.4</ele>
        <time>2021-04-10T12:16:41.000Z</time>
      </trkpt>
      <trkpt lat="37.93076480738819" lon="23.783998852595687">
        <ele>709.4</ele>
        <time>2021-04-10T12:16:42.000Z</time>
      </trkpt>
      <trkpt lat="37.93076355010271" lon="23.7839946616441">
        <ele>709.2</ele>
        <time>2021-04-10T12:16:43.000Z</time>
      </trkpt>
      <trkpt lat="37.930771596729755" lon="23.78398921340704">
        <ele>708.2</ele>
        <time>2021-04-10T12:16:47.000Z</time>
      </trkpt>
      <trkpt lat="37.930775033310056" lon="23.783976137638092">
        <ele>708.2</ele>
        <time>2021-04-10T12:16:48.000Z</time>
      </trkpt>
      <trkpt lat="37.930786684155464" lon="23.78396037966013">
        <ele>708</ele>
        <time>2021-04-10T12:16:52.000Z</time>
      </trkpt>
      <trkpt lat="37.93078701943159" lon="23.783959541469812">
        <ele>707.4</ele>
        <time>2021-04-10T12:16:59.000Z</time>
      </trkpt>
      <trkpt lat="37.93078701943159" lon="23.783960044384003">
        <ele>707.4</ele>
        <time>2021-04-10T12:17:01.000Z</time>
      </trkpt>
      <trkpt lat="37.93078115209937" lon="23.783956272527575">
        <ele>707.6</ele>
        <time>2021-04-10T12:17:03.000Z</time>
      </trkpt>
      <trkpt lat="37.93077318929136" lon="23.78394680097699">
        <ele>707.8</ele>
        <time>2021-04-10T12:17:06.000Z</time>
      </trkpt>
      <trkpt lat="37.930773021653295" lon="23.78393841907382">
        <ele>707.6</ele>
        <time>2021-04-10T12:17:08.000Z</time>
      </trkpt>
      <trkpt lat="37.930772015824914" lon="23.78393204882741">
        <ele>707.6</ele>
        <time>2021-04-10T12:17:10.000Z</time>
      </trkpt>
      <trkpt lat="37.9307746142149" lon="23.78393892198801">
        <ele>708</ele>
        <time>2021-04-10T12:17:18.000Z</time>
      </trkpt>
      <trkpt lat="37.93077134527266" lon="23.783923164010048">
        <ele>708.2</ele>
        <time>2021-04-10T12:17:25.000Z</time>
      </trkpt>
      <trkpt lat="37.930771512910724" lon="23.783932216465473">
        <ele>708</ele>
        <time>2021-04-10T12:17:28.000Z</time>
      </trkpt>
      <trkpt lat="37.93077520094812" lon="23.78394336439669">
        <ele>708</ele>
        <time>2021-04-10T12:17:32.000Z</time>
      </trkpt>
      <trkpt lat="37.930786767974496" lon="23.78395057283342">
        <ele>708</ele>
        <time>2021-04-10T12:17:37.000Z</time>
      </trkpt>
      <trkpt lat="37.93078634887934" lon="23.78396088257432">
        <ele>708</ele>
        <time>2021-04-10T12:17:46.000Z</time>
      </trkpt>
      <trkpt lat="37.93077880516648" lon="23.783937161788344">
        <ele>707.6</ele>
        <time>2021-04-10T12:17:52.000Z</time>
      </trkpt>
      <trkpt lat="37.93077905662358" lon="23.783946884796023">
        <ele>708.2</ele>
        <time>2021-04-10T12:17:57.000Z</time>
      </trkpt>
      <trkpt lat="37.93077520094812" lon="23.783900449052453">
        <ele>708</ele>
        <time>2021-04-10T12:18:04.000Z</time>
      </trkpt>
      <trkpt lat="37.93076262809336" lon="23.783917296677828">
        <ele>708</ele>
        <time>2021-04-10T12:18:10.000Z</time>
      </trkpt>
      <trkpt lat="37.93075868859887" lon="23.78390673547983">
        <ele>708</ele>
        <time>2021-04-10T12:18:11.000Z</time>
      </trkpt>
      <trkpt lat="37.93072993867099" lon="23.783862479031086">
        <ele>708</ele>
        <time>2021-04-10T12:18:16.000Z</time>
      </trkpt>
      <trkpt lat="37.930726669728756" lon="23.783860886469483">
        <ele>708</ele>
        <time>2021-04-10T12:18:18.000Z</time>
      </trkpt>
      <trkpt lat="37.930731028318405" lon="23.78386071883142">
        <ele>707.2</ele>
        <time>2021-04-10T12:18:20.000Z</time>
      </trkpt>
      <trkpt lat="37.930730022490025" lon="23.78386113792658">
        <ele>706.2</ele>
        <time>2021-04-10T12:18:22.000Z</time>
      </trkpt>
      <trkpt lat="37.930727591738105" lon="23.783859042450786">
        <ele>706</ele>
        <time>2021-04-10T12:18:23.000Z</time>
      </trkpt>
      <trkpt lat="37.930716359987855" lon="23.783825850114226">
        <ele>705.6</ele>
        <time>2021-04-10T12:18:28.000Z</time>
      </trkpt>
      <trkpt lat="37.93068383820355" lon="23.78377757035196">
        <ele>705.4</ele>
        <time>2021-04-10T12:18:33.000Z</time>
      </trkpt>
      <trkpt lat="37.93068325147033" lon="23.783772373571992">
        <ele>705.4</ele>
        <time>2021-04-10T12:18:34.000Z</time>
      </trkpt>
      <trkpt lat="37.9306916333735" lon="23.783766087144613">
        <ele>705</ele>
        <time>2021-04-10T12:18:36.000Z</time>
      </trkpt>
      <trkpt lat="37.9307019431144" lon="23.783761812373996">
        <ele>704.4</ele>
        <time>2021-04-10T12:18:39.000Z</time>
      </trkpt>
      <trkpt lat="37.93068735860288" lon="23.783776480704546">
        <ele>704</ele>
        <time>2021-04-10T12:18:45.000Z</time>
      </trkpt>
      <trkpt lat="37.93068090453744" lon="23.783774971961975">
        <ele>703.8</ele>
        <time>2021-04-10T12:18:46.000Z</time>
      </trkpt>
      <trkpt lat="37.930653328076005" lon="23.783708922564983">
        <ele>703.8</ele>
        <time>2021-04-10T12:18:52.000Z</time>
      </trkpt>
      <trkpt lat="37.930643605068326" lon="23.783676819875836">
        <ele>702.8</ele>
        <time>2021-04-10T12:18:58.000Z</time>
      </trkpt>
      <trkpt lat="37.930638659745455" lon="23.783667935058475">
        <ele>702.6</ele>
        <time>2021-04-10T12:19:00.000Z</time>
      </trkpt>
      <trkpt lat="37.93065223842859" lon="23.783630300313234">
        <ele>701.8</ele>
        <time>2021-04-10T12:19:05.000Z</time>
      </trkpt>
      <trkpt lat="37.93067394755781" lon="23.783621499314904">
        <ele>701.6</ele>
        <time>2021-04-10T12:19:07.000Z</time>
      </trkpt>
      <trkpt lat="37.93071703054011" lon="23.7835940066725">
        <ele>701</ele>
        <time>2021-04-10T12:19:11.000Z</time>
      </trkpt>
      <trkpt lat="37.93072675354779" lon="23.783580595627427">
        <ele>700.8</ele>
        <time>2021-04-10T12:19:13.000Z</time>
      </trkpt>
      <trkpt lat="37.930743182078004" lon="23.783561903983355">
        <ele>700.8</ele>
        <time>2021-04-10T12:19:15.000Z</time>
      </trkpt>
      <trkpt lat="37.93075776658952" lon="23.78353139385581">
        <ele>700.6</ele>
        <time>2021-04-10T12:19:18.000Z</time>
      </trkpt>
      <trkpt lat="37.93075969442725" lon="23.783530807122588">
        <ele>700.6</ele>
        <time>2021-04-10T12:19:19.000Z</time>
      </trkpt>
      <trkpt lat="37.93075961060822" lon="23.783542457967997">
        <ele>700.4</ele>
        <time>2021-04-10T12:19:21.000Z</time>
      </trkpt>
      <trkpt lat="37.93074938468635" lon="23.783559976145625">
        <ele>699.6</ele>
        <time>2021-04-10T12:19:24.000Z</time>
      </trkpt>
      <trkpt lat="37.93075826950371" lon="23.783537931740284">
        <ele>699.2</ele>
        <time>2021-04-10T12:19:26.000Z</time>
      </trkpt>
      <trkpt lat="37.930817445740104" lon="23.783463835716248">
        <ele>699</ele>
        <time>2021-04-10T12:19:31.000Z</time>
      </trkpt>
      <trkpt lat="37.9308642167598" lon="23.78345654346049">
        <ele>698.8</ele>
        <time>2021-04-10T12:19:35.000Z</time>
      </trkpt>
      <trkpt lat="37.93087444268167" lon="23.783452603965998">
        <ele>698.6</ele>
        <time>2021-04-10T12:19:36.000Z</time>
      </trkpt>
      <trkpt lat="37.93089204467833" lon="23.783446485176682">
        <ele>698.6</ele>
        <time>2021-04-10T12:19:38.000Z</time>
      </trkpt>
      <trkpt lat="37.93092557229102" lon="23.78344682045281">
        <ele>698.4</ele>
        <time>2021-04-10T12:19:41.000Z</time>
      </trkpt>
      <trkpt lat="37.93094149790704" lon="23.783434750512242">
        <ele>698.2</ele>
        <time>2021-04-10T12:19:43.000Z</time>
      </trkpt>
      <trkpt lat="37.930947532877326" lon="23.783425698056817">
        <ele>698</ele>
        <time>2021-04-10T12:19:44.000Z</time>
      </trkpt>
      <trkpt lat="37.93096630834043" lon="23.783414717763662">
        <ele>697.6</ele>
        <time>2021-04-10T12:19:46.000Z</time>
      </trkpt>
      <trkpt lat="37.93100017122924" lon="23.783407593145967">
        <ele>696.8</ele>
        <time>2021-04-10T12:19:49.000Z</time>
      </trkpt>
      <trkpt lat="37.931019281968474" lon="23.783390996977687">
        <ele>696.8</ele>
        <time>2021-04-10T12:19:51.000Z</time>
      </trkpt>
      <trkpt lat="37.931051552295685" lon="23.783356714993715">
        <ele>696.8</ele>
        <time>2021-04-10T12:19:54.000Z</time>
      </trkpt>
      <trkpt lat="37.93108927085996" lon="23.78329628147185">
        <ele>696.4</ele>
        <time>2021-04-10T12:19:58.000Z</time>
      </trkpt>
      <trkpt lat="37.93109287507832" lon="23.783269878476858">
        <ele>695.8</ele>
        <time>2021-04-10T12:20:00.000Z</time>
      </trkpt>
      <trkpt lat="37.931093545630574" lon="23.783260993659496">
        <ele>695.4</ele>
        <time>2021-04-10T12:20:01.000Z</time>
      </trkpt>
      <trkpt lat="37.931102598086" lon="23.78324548713863">
        <ele>694.8</ele>
        <time>2021-04-10T12:20:06.000Z</time>
      </trkpt>
      <trkpt lat="37.93110955506563" lon="23.78324062563479">
        <ele>694.8</ele>
        <time>2021-04-10T12:20:07.000Z</time>
      </trkpt>
      <trkpt lat="37.931127827614546" lon="23.783199889585376">
        <ele>694.6</ele>
        <time>2021-04-10T12:20:10.000Z</time>
      </trkpt>
      <trkpt lat="37.9311491176486" lon="23.78317566588521">
        <ele>694.4</ele>
        <time>2021-04-10T12:20:12.000Z</time>
      </trkpt>
      <trkpt lat="37.93117635883391" lon="23.78312931396067">
        <ele>694</ele>
        <time>2021-04-10T12:20:15.000Z</time>
      </trkpt>
      <trkpt lat="37.93118633329868" lon="23.783085057511926">
        <ele>693.4</ele>
        <time>2021-04-10T12:20:18.000Z</time>
      </trkpt>
      <trkpt lat="37.931199073791504" lon="23.783055637031794">
        <ele>693.4</ele>
        <time>2021-04-10T12:20:20.000Z</time>
      </trkpt>
      <trkpt lat="37.931246012449265" lon="23.783024372532964">
        <ele>693.2</ele>
        <time>2021-04-10T12:20:24.000Z</time>
      </trkpt>
      <trkpt lat="37.93127233162522" lon="23.783007944002748">
        <ele>692.6</ele>
        <time>2021-04-10T12:20:28.000Z</time>
      </trkpt>
      <trkpt lat="37.931272415444255" lon="23.782994616776705">
        <ele>692.2</ele>
        <time>2021-04-10T12:20:30.000Z</time>
      </trkpt>
      <trkpt lat="37.9312701523304" lon="23.78292739391327">
        <ele>692</ele>
        <time>2021-04-10T12:20:35.000Z</time>
      </trkpt>
      <trkpt lat="37.9312632791698" lon="23.78289478830993">
        <ele>692.2</ele>
        <time>2021-04-10T12:20:37.000Z</time>
      </trkpt>
      <trkpt lat="37.931265542283654" lon="23.782874839380383">
        <ele>691.6</ele>
        <time>2021-04-10T12:20:39.000Z</time>
      </trkpt>
      <trkpt lat="37.93126696720719" lon="23.782842736691236">
        <ele>691.2</ele>
        <time>2021-04-10T12:20:41.000Z</time>
      </trkpt>
      <trkpt lat="37.9312564060092" lon="23.782812980934978">
        <ele>691</ele>
        <time>2021-04-10T12:20:43.000Z</time>
      </trkpt>
      <trkpt lat="37.93125347234309" lon="23.782785069197416">
        <ele>690.6</ele>
        <time>2021-04-10T12:20:47.000Z</time>
      </trkpt>
      <trkpt lat="37.93124919757247" lon="23.782781548798084">
        <ele>690.4</ele>
        <time>2021-04-10T12:20:50.000Z</time>
      </trkpt>
      <trkpt lat="37.93124618008733" lon="23.782781464979053">
        <ele>690</ele>
        <time>2021-04-10T12:20:52.000Z</time>
      </trkpt>
      <trkpt lat="37.93123830109835" lon="23.7827807944268">
        <ele>689.8</ele>
        <time>2021-04-10T12:20:55.000Z</time>
      </trkpt>
      <trkpt lat="37.93123830109835" lon="23.78277358599007">
        <ele>689.8</ele>
        <time>2021-04-10T12:21:00.000Z</time>
      </trkpt>
      <trkpt lat="37.93125648982823" lon="23.782772915437818">
        <ele>689.8</ele>
        <time>2021-04-10T12:21:03.000Z</time>
      </trkpt>
      <trkpt lat="37.93127166107297" lon="23.782776184380054">
        <ele>690</ele>
        <time>2021-04-10T12:21:08.000Z</time>
      </trkpt>
      <trkpt lat="37.93127182871103" lon="23.78277450799942">
        <ele>690</ele>
        <time>2021-04-10T12:21:09.000Z</time>
      </trkpt>
      <trkpt lat="37.93127182871103" lon="23.78277450799942">
        <ele>690</ele>
        <time>2021-04-10T12:21:09.000Z</time>
      </trkpt>
      <trkpt lat="37.93129890225828" lon="23.782781045883894">
        <ele>690</ele>
        <time>2021-04-10T12:21:15.000Z</time>
      </trkpt>
      <trkpt lat="37.9313079547137" lon="23.782762186601758">
        <ele>690</ele>
        <time>2021-04-10T12:21:18.000Z</time>
      </trkpt>
      <trkpt lat="37.93131776154041" lon="23.78273536451161">
        <ele>689.6</ele>
        <time>2021-04-10T12:21:21.000Z</time>
      </trkpt>
      <trkpt lat="37.931327568367124" lon="23.782724551856518">
        <ele>689.2</ele>
        <time>2021-04-10T12:21:26.000Z</time>
      </trkpt>
      <trkpt lat="37.93132455088198" lon="23.78268758766353">
        <ele>689</ele>
        <time>2021-04-10T12:21:29.000Z</time>
      </trkpt>
      <trkpt lat="37.93132404796779" lon="23.782654646784067">
        <ele>688.6</ele>
        <time>2021-04-10T12:21:32.000Z</time>
      </trkpt>
      <trkpt lat="37.93133125640452" lon="23.78262841142714">
        <ele>688.4</ele>
        <time>2021-04-10T12:21:34.000Z</time>
      </trkpt>
      <trkpt lat="37.931338381022215" lon="23.782609971240163">
        <ele>688.4</ele>
        <time>2021-04-10T12:21:35.000Z</time>
      </trkpt>
      <trkpt lat="37.931352127343416" lon="23.782577365636826">
        <ele>687.8</ele>
        <time>2021-04-10T12:21:38.000Z</time>
      </trkpt>
      <trkpt lat="37.931351121515036" lon="23.782574934884906">
        <ele>687.8</ele>
        <time>2021-04-10T12:21:39.000Z</time>
      </trkpt>
      <trkpt lat="37.931348187848926" lon="23.782566636800766">
        <ele>687.6</ele>
        <time>2021-04-10T12:21:40.000Z</time>
      </trkpt>
      <trkpt lat="37.93134793639183" lon="23.782553477212787">
        <ele>687.4</ele>
        <time>2021-04-10T12:21:41.000Z</time>
      </trkpt>
      <trkpt lat="37.93134299106896" lon="23.78251986578107">
        <ele>687</ele>
        <time>2021-04-10T12:21:43.000Z</time>
      </trkpt>
      <trkpt lat="37.931352546438575" lon="23.78248281776905">
        <ele>686.6</ele>
        <time>2021-04-10T12:21:45.000Z</time>
      </trkpt>
      <trkpt lat="37.93136168271303" lon="23.782457252964377">
        <ele>686.4</ele>
        <time>2021-04-10T12:21:47.000Z</time>
      </trkpt>
      <trkpt lat="37.931362772360444" lon="23.78244962543249">
        <ele>686.4</ele>
        <time>2021-04-10T12:21:48.000Z</time>
      </trkpt>
      <trkpt lat="37.93136545456946" lon="23.78244803287089">
        <ele>686.4</ele>
        <time>2021-04-10T12:21:50.000Z</time>
      </trkpt>
      <trkpt lat="37.931356485933065" lon="23.782399585470557">
        <ele>685.6</ele>
        <time>2021-04-10T12:21:54.000Z</time>
      </trkpt>
      <trkpt lat="37.931336369365454" lon="23.782362705096602">
        <ele>685.2</ele>
        <time>2021-04-10T12:21:57.000Z</time>
      </trkpt>
      <trkpt lat="37.931326227262616" lon="23.7822937220335">
        <ele>684.6</ele>
        <time>2021-04-10T12:22:02.000Z</time>
      </trkpt>
      <trkpt lat="37.931325137615204" lon="23.78228098154068">
        <ele>684.6</ele>
        <time>2021-04-10T12:22:03.000Z</time>
      </trkpt>
      <trkpt lat="37.93132798746228" lon="23.78223362378776">
        <ele>684.4</ele>
        <time>2021-04-10T12:22:08.000Z</time>
      </trkpt>
      <trkpt lat="37.931321281939745" lon="23.782215183600783">
        <ele>684.4</ele>
        <time>2021-04-10T12:22:09.000Z</time>
      </trkpt>
      <trkpt lat="37.93131474405527" lon="23.78219749778509">
        <ele>684.2</ele>
        <time>2021-04-10T12:22:10.000Z</time>
      </trkpt>
      <trkpt lat="37.93131306767464" lon="23.78217101097107">
        <ele>683.6</ele>
        <time>2021-04-10T12:22:12.000Z</time>
      </trkpt>
      <trkpt lat="37.93131616897881" lon="23.782135974615812">
        <ele>682.4</ele>
        <time>2021-04-10T12:22:14.000Z</time>
      </trkpt>
      <trkpt lat="37.93132337741554" lon="23.78210068680346">
        <ele>681.8</ele>
        <time>2021-04-10T12:22:16.000Z</time>
      </trkpt>
      <trkpt lat="37.931331507861614" lon="23.7820952385664">
        <ele>681.6</ele>
        <time>2021-04-10T12:22:17.000Z</time>
      </trkpt>
      <trkpt lat="37.93133762665093" lon="23.782078977674246">
        <ele>681.4</ele>
        <time>2021-04-10T12:22:19.000Z</time>
      </trkpt>
      <trkpt lat="37.931346176192164" lon="23.782065650448203">
        <ele>681.2</ele>
        <time>2021-04-10T12:22:21.000Z</time>
      </trkpt>
      <trkpt lat="37.93134240433574" lon="23.78205961547792">
        <ele>681</ele>
        <time>2021-04-10T12:22:23.000Z</time>
      </trkpt>
      <trkpt lat="37.93133326806128" lon="23.7820484675467">
        <ele>680.6</ele>
        <time>2021-04-10T12:22:25.000Z</time>
      </trkpt>
      <trkpt lat="37.93133025057614" lon="23.782047629356384">
        <ele>680.4</ele>
        <time>2021-04-10T12:22:26.000Z</time>
      </trkpt>
      <trkpt lat="37.9313322622329" lon="23.782044611871243">
        <ele>680.4</ele>
        <time>2021-04-10T12:22:27.000Z</time>
      </trkpt>
      <trkpt lat="37.93132681399584" lon="23.78203136846423">
        <ele>680.2</ele>
        <time>2021-04-10T12:22:30.000Z</time>
      </trkpt>
      <trkpt lat="37.931309547275305" lon="23.78201862797141">
        <ele>680.2</ele>
        <time>2021-04-10T12:22:32.000Z</time>
      </trkpt>
      <trkpt lat="37.93127995915711" lon="23.781948806717992">
        <ele>679.2</ele>
        <time>2021-04-10T12:22:37.000Z</time>
      </trkpt>
      <trkpt lat="37.931267553940415" lon="23.781919218599796">
        <ele>678.6</ele>
        <time>2021-04-10T12:22:39.000Z</time>
      </trkpt>
      <trkpt lat="37.93126721866429" lon="23.781888959929347">
        <ele>678.4</ele>
        <time>2021-04-10T12:22:41.000Z</time>
      </trkpt>
      <trkpt lat="37.93126981705427" lon="23.781856019049883">
        <ele>678.2</ele>
        <time>2021-04-10T12:22:43.000Z</time>
      </trkpt>
      <trkpt lat="37.93126738630235" lon="23.78183632157743">
        <ele>678</ele>
        <time>2021-04-10T12:22:45.000Z</time>
      </trkpt>
      <trkpt lat="37.9312614351511" lon="23.781814947724342">
        <ele>677</ele>
        <time>2021-04-10T12:22:48.000Z</time>
      </trkpt>
      <trkpt lat="37.9312579985708" lon="23.781773122027516">
        <ele>676.2</ele>
        <time>2021-04-10T12:22:53.000Z</time>
      </trkpt>
      <trkpt lat="37.931257747113705" lon="23.781768679618835">
        <ele>676.2</ele>
        <time>2021-04-10T12:22:54.000Z</time>
      </trkpt>
      <trkpt lat="37.93126151897013" lon="23.78171025775373">
        <ele>676</ele>
        <time>2021-04-10T12:22:59.000Z</time>
      </trkpt>
      <trkpt lat="37.93127182871103" lon="23.781681759282947">
        <ele>675.6</ele>
        <time>2021-04-10T12:23:01.000Z</time>
      </trkpt>
      <trkpt lat="37.93128473684192" lon="23.78165988251567">
        <ele>675.2</ele>
        <time>2021-04-10T12:23:04.000Z</time>
      </trkpt>
      <trkpt lat="37.931293873116374" lon="23.78162727691233">
        <ele>675</ele>
        <time>2021-04-10T12:23:06.000Z</time>
      </trkpt>
      <trkpt lat="37.931289011612535" lon="23.781598107889295">
        <ele>674</ele>
        <time>2021-04-10T12:23:11.000Z</time>
      </trkpt>
      <trkpt lat="37.93128482066095" lon="23.781588720157743">
        <ele>673.8</ele>
        <time>2021-04-10T12:23:13.000Z</time>
      </trkpt>
      <trkpt lat="37.93129161000252" lon="23.78156810067594">
        <ele>673.2</ele>
        <time>2021-04-10T12:23:16.000Z</time>
      </trkpt>
      <trkpt lat="37.93128876015544" lon="23.78156558610499">
        <ele>673</ele>
        <time>2021-04-10T12:23:17.000Z</time>
      </trkpt>
      <trkpt lat="37.93128155171871" lon="23.78156608901918">
        <ele>672.8</ele>
        <time>2021-04-10T12:23:18.000Z</time>
      </trkpt>
      <trkpt lat="37.93126252479851" lon="23.781560892239213">
        <ele>672.2</ele>
        <time>2021-04-10T12:23:23.000Z</time>
      </trkpt>
      <trkpt lat="37.931247437372804" lon="23.781547313556075">
        <ele>671.8</ele>
        <time>2021-04-10T12:23:26.000Z</time>
      </trkpt>
      <trkpt lat="37.93124886229634" lon="23.781525688245893">
        <ele>671.8</ele>
        <time>2021-04-10T12:23:28.000Z</time>
      </trkpt>
      <trkpt lat="37.93129228055477" lon="23.781472546979785">
        <ele>671</ele>
        <time>2021-04-10T12:23:35.000Z</time>
      </trkpt>
      <trkpt lat="37.93129906989634" lon="23.781464667990804">
        <ele>670.8</ele>
        <time>2021-04-10T12:23:36.000Z</time>
      </trkpt>
      <trkpt lat="37.93131466023624" lon="23.781448239460588">
        <ele>670.8</ele>
        <time>2021-04-10T12:23:38.000Z</time>
      </trkpt>
      <trkpt lat="37.93132446706295" lon="23.781434576958418">
        <ele>670.6</ele>
        <time>2021-04-10T12:23:40.000Z</time>
      </trkpt>
      <trkpt lat="37.93132262304425" lon="23.781402138993144">
        <ele>670.2</ele>
        <time>2021-04-10T12:23:43.000Z</time>
      </trkpt>
      <trkpt lat="37.93136067688465" lon="23.78138931468129">
        <ele>670.2</ele>
        <time>2021-04-10T12:23:45.000Z</time>
      </trkpt>
      <trkpt lat="37.93136729858816" lon="23.78136928193271">
        <ele>670</ele>
        <time>2021-04-10T12:23:47.000Z</time>
      </trkpt>
      <trkpt lat="37.93136646039784" lon="23.781360648572445">
        <ele>670</ele>
        <time>2021-04-10T12:23:48.000Z</time>
      </trkpt>
      <trkpt lat="37.93136470019817" lon="23.78135352395475">
        <ele>669.8</ele>
        <time>2021-04-10T12:23:49.000Z</time>
      </trkpt>
      <trkpt lat="37.93135606683791" lon="23.7813267018646">
        <ele>669</ele>
        <time>2021-04-10T12:23:53.000Z</time>
      </trkpt>
      <trkpt lat="37.93134349398315" lon="23.781302645802498">
        <ele>668.8</ele>
        <time>2021-04-10T12:23:56.000Z</time>
      </trkpt>
      <trkpt lat="37.93133863247931" lon="23.781286971643567">
        <ele>668.6</ele>
        <time>2021-04-10T12:23:57.000Z</time>
      </trkpt>
      <trkpt lat="37.93135003186762" lon="23.781257886439562">
        <ele>668.2</ele>
        <time>2021-04-10T12:24:00.000Z</time>
      </trkpt>
      <trkpt lat="37.93137081898749" lon="23.78123877570033">
        <ele>667.4</ele>
        <time>2021-04-10T12:24:03.000Z</time>
      </trkpt>
      <trkpt lat="37.931409291923046" lon="23.781222430989146">
        <ele>667.6</ele>
        <time>2021-04-10T12:24:07.000Z</time>
      </trkpt>
      <trkpt lat="37.93142647482455" lon="23.78120315261185">
        <ele>667.8</ele>
        <time>2021-04-10T12:24:09.000Z</time>
      </trkpt>
      <trkpt lat="37.93143678456545" lon="23.781185634434223">
        <ele>667.8</ele>
        <time>2021-04-10T12:24:11.000Z</time>
      </trkpt>
      <trkpt lat="37.93144382536411" lon="23.78118404187262">
        <ele>667.6</ele>
        <time>2021-04-10T12:24:12.000Z</time>
      </trkpt>
      <trkpt lat="37.93146318756044" lon="23.781196027994156">
        <ele>667.2</ele>
        <time>2021-04-10T12:24:15.000Z</time>
      </trkpt>
      <trkpt lat="37.931466456502676" lon="23.781195357441902">
        <ele>667.2</ele>
        <time>2021-04-10T12:24:16.000Z</time>
      </trkpt>
      <trkpt lat="37.931463019922376" lon="23.781204661354423">
        <ele>667.2</ele>
        <time>2021-04-10T12:24:18.000Z</time>
      </trkpt>
      <trkpt lat="37.93145941570401" lon="23.781212456524372">
        <ele>667.2</ele>
        <time>2021-04-10T12:24:22.000Z</time>
      </trkpt>
      <trkpt lat="37.931461008265615" lon="23.78119477070868">
        <ele>666.6</ele>
        <time>2021-04-10T12:24:29.000Z</time>
      </trkpt>
      <trkpt lat="37.93146486394107" lon="23.781186304986477">
        <ele>666.6</ele>
        <time>2021-04-10T12:24:30.000Z</time>
      </trkpt>
      <trkpt lat="37.93146771378815" lon="23.78117331303656">
        <ele>666.8</ele>
        <time>2021-04-10T12:24:31.000Z</time>
      </trkpt>
      <trkpt lat="37.93150811456144" lon="23.781116819009185">
        <ele>667.4</ele>
        <time>2021-04-10T12:24:37.000Z</time>
      </trkpt>
      <trkpt lat="37.93152437545359" lon="23.781044483184814">
        <ele>666.6</ele>
        <time>2021-04-10T12:24:44.000Z</time>
      </trkpt>
      <trkpt lat="37.931540720164776" lon="23.78098069690168">
        <ele>666.6</ele>
        <time>2021-04-10T12:24:48.000Z</time>
      </trkpt>
      <trkpt lat="37.93154499493539" lon="23.780973656103015">
        <ele>666.4</ele>
        <time>2021-04-10T12:24:50.000Z</time>
      </trkpt>
      <trkpt lat="37.93154323473573" lon="23.780961837619543">
        <ele>666.4</ele>
        <time>2021-04-10T12:24:51.000Z</time>
      </trkpt>
      <trkpt lat="37.931540636345744" lon="23.780951527878642">
        <ele>666.4</ele>
        <time>2021-04-10T12:24:52.000Z</time>
      </trkpt>
      <trkpt lat="37.93152512982488" lon="23.780903834849596">
        <ele>665.6</ele>
        <time>2021-04-10T12:24:56.000Z</time>
      </trkpt>
      <trkpt lat="37.93151649646461" lon="23.780879359692335">
        <ele>665.4</ele>
        <time>2021-04-10T12:24:58.000Z</time>
      </trkpt>
      <trkpt lat="37.93151590973139" lon="23.780862344428897">
        <ele>665.2</ele>
        <time>2021-04-10T12:24:59.000Z</time>
      </trkpt>
      <trkpt lat="37.93151398189366" lon="23.7808258831501">
        <ele>665</ele>
        <time>2021-04-10T12:25:01.000Z</time>
      </trkpt>
      <trkpt lat="37.931497218087316" lon="23.780789002776146">
        <ele>664.8</ele>
        <time>2021-04-10T12:25:06.000Z</time>
      </trkpt>
      <trkpt lat="37.93149830773473" lon="23.78078724257648">
        <ele>664.8</ele>
        <time>2021-04-10T12:25:07.000Z</time>
      </trkpt>
      <trkpt lat="37.931511299684644" lon="23.780789338052273">
        <ele>664.2</ele>
        <time>2021-04-10T12:25:11.000Z</time>
      </trkpt>
      <trkpt lat="37.93151314370334" lon="23.780783051624894">
        <ele>664</ele>
        <time>2021-04-10T12:25:13.000Z</time>
      </trkpt>
      <trkpt lat="37.931478610262275" lon="23.780733263120055">
        <ele>664.2</ele>
        <time>2021-04-10T12:25:18.000Z</time>
      </trkpt>
      <trkpt lat="37.93146813288331" lon="23.780727898702025">
        <ele>664.2</ele>
        <time>2021-04-10T12:25:19.000Z</time>
      </trkpt>
      <trkpt lat="37.931441059336066" lon="23.78072613850236">
        <ele>664.4</ele>
        <time>2021-04-10T12:25:21.000Z</time>
      </trkpt>
      <trkpt lat="37.931402334943414" lon="23.780699567869306">
        <ele>664</ele>
        <time>2021-04-10T12:25:25.000Z</time>
      </trkpt>
      <trkpt lat="37.931395964697" lon="23.78066847100854">
        <ele>664</ele>
        <time>2021-04-10T12:25:27.000Z</time>
      </trkpt>
      <trkpt lat="37.93138557113707" lon="23.780636368319392">
        <ele>663.8</ele>
        <time>2021-04-10T12:25:31.000Z</time>
      </trkpt>
      <trkpt lat="37.93137760832906" lon="23.780625136569142">
        <ele>663.4</ele>
        <time>2021-04-10T12:25:32.000Z</time>
      </trkpt>
      <trkpt lat="37.93137174099684" lon="23.780611557886004">
        <ele>663.2</ele>
        <time>2021-04-10T12:25:33.000Z</time>
      </trkpt>
      <trkpt lat="37.931365286931396" lon="23.7805996555835">
        <ele>662.8</ele>
        <time>2021-04-10T12:25:34.000Z</time>
      </trkpt>
      <trkpt lat="37.931353049352765" lon="23.780575850978494">
        <ele>662.4</ele>
        <time>2021-04-10T12:25:37.000Z</time>
      </trkpt>
      <trkpt lat="37.93129471130669" lon="23.780517764389515">
        <ele>662.2</ele>
        <time>2021-04-10T12:25:44.000Z</time>
      </trkpt>
      <trkpt lat="37.931273337453604" lon="23.78049706108868">
        <ele>661.4</ele>
        <time>2021-04-10T12:25:46.000Z</time>
      </trkpt>
      <trkpt lat="37.93124819174409" lon="23.78043880686164">
        <ele>660.8</ele>
        <time>2021-04-10T12:25:50.000Z</time>
      </trkpt>
      <trkpt lat="37.931233858689666" lon="23.780416008085012">
        <ele>660.4</ele>
        <time>2021-04-10T12:25:52.000Z</time>
      </trkpt>
      <trkpt lat="37.931224051862955" lon="23.78037292510271">
        <ele>659.8</ele>
        <time>2021-04-10T12:25:55.000Z</time>
      </trkpt>
      <trkpt lat="37.931224973872304" lon="23.780342414975166">
        <ele>659.8</ele>
        <time>2021-04-10T12:25:57.000Z</time>
      </trkpt>
      <trkpt lat="37.93120318092406" lon="23.78031626343727">
        <ele>659.6</ele>
        <time>2021-04-10T12:26:00.000Z</time>
      </trkpt>
      <trkpt lat="37.931202007457614" lon="23.780262703076005">
        <ele>659.2</ele>
        <time>2021-04-10T12:26:04.000Z</time>
      </trkpt>
      <trkpt lat="37.931192284449935" lon="23.780245101079345">
        <ele>658.8</ele>
        <time>2021-04-10T12:26:06.000Z</time>
      </trkpt>
      <trkpt lat="37.931164372712374" lon="23.78023269586265">
        <ele>658</ele>
        <time>2021-04-10T12:26:09.000Z</time>
      </trkpt>
      <trkpt lat="37.93115112930536" lon="23.780205873772502">
        <ele>657.8</ele>
        <time>2021-04-10T12:26:11.000Z</time>
      </trkpt>
      <trkpt lat="37.931139981374145" lon="23.780177542939782">
        <ele>657.4</ele>
        <time>2021-04-10T12:26:13.000Z</time>
      </trkpt>
      <trkpt lat="37.931137550622225" lon="23.78016513772309">
        <ele>657.4</ele>
        <time>2021-04-10T12:26:14.000Z</time>
      </trkpt>
      <trkpt lat="37.93113914318383" lon="23.780141165480018">
        <ele>656.8</ele>
        <time>2021-04-10T12:26:16.000Z</time>
      </trkpt>
      <trkpt lat="37.93114182539284" lon="23.7801265809685">
        <ele>656.4</ele>
        <time>2021-04-10T12:26:17.000Z</time>
      </trkpt>
      <trkpt lat="37.93114375323057" lon="23.780114594846964">
        <ele>656.2</ele>
        <time>2021-04-10T12:26:18.000Z</time>
      </trkpt>
      <trkpt lat="37.93114501051605" lon="23.780103530734777">
        <ele>656</ele>
        <time>2021-04-10T12:26:19.000Z</time>
      </trkpt>
      <trkpt lat="37.93114216066897" lon="23.780090203508735">
        <ele>655.8</ele>
        <time>2021-04-10T12:26:20.000Z</time>
      </trkpt>
      <trkpt lat="37.93113210238516" lon="23.780074696987867">
        <ele>655.6</ele>
        <time>2021-04-10T12:26:22.000Z</time>
      </trkpt>
      <trkpt lat="37.93112933635712" lon="23.78006220795214">
        <ele>655.6</ele>
        <time>2021-04-10T12:26:23.000Z</time>
      </trkpt>
      <trkpt lat="37.931130174547434" lon="23.780026752501726">
        <ele>655.4</ele>
        <time>2021-04-10T12:26:25.000Z</time>
      </trkpt>
      <trkpt lat="37.93110636994243" lon="23.77999766729772">
        <ele>654.6</ele>
        <time>2021-04-10T12:26:29.000Z</time>
      </trkpt>
      <trkpt lat="37.931059347465634" lon="23.779969168826938">
        <ele>653.6</ele>
        <time>2021-04-10T12:26:34.000Z</time>
      </trkpt>
      <trkpt lat="37.93105532415211" lon="23.779926421120763">
        <ele>653</ele>
        <time>2021-04-10T12:26:37.000Z</time>
      </trkpt>
      <trkpt lat="37.9310595151037" lon="23.7798519898206">
        <ele>652.8</ele>
        <time>2021-04-10T12:26:42.000Z</time>
      </trkpt>
      <trkpt lat="37.93105171993375" lon="23.779840674251318">
        <ele>652.6</ele>
        <time>2021-04-10T12:26:43.000Z</time>
      </trkpt>
      <trkpt lat="37.93104434385896" lon="23.77982751466334">
        <ele>652.2</ele>
        <time>2021-04-10T12:26:44.000Z</time>
      </trkpt>
      <trkpt lat="37.93104694224894" lon="23.77979876473546">
        <ele>651.4</ele>
        <time>2021-04-10T12:26:46.000Z</time>
      </trkpt>
      <trkpt lat="37.93106362223625" lon="23.779764231294394">
        <ele>650.4</ele>
        <time>2021-04-10T12:26:50.000Z</time>
      </trkpt>
      <trkpt lat="37.93110712431371" lon="23.779697511345148">
        <ele>649.4</ele>
        <time>2021-04-10T12:26:57.000Z</time>
      </trkpt>
      <trkpt lat="37.931111650541425" lon="23.779689548537135">
        <ele>649.2</ele>
        <time>2021-04-10T12:26:58.000Z</time>
      </trkpt>
      <trkpt lat="37.931109722703695" lon="23.779691895470023">
        <ele>648.4</ele>
        <time>2021-04-10T12:27:02.000Z</time>
      </trkpt>
      <trkpt lat="37.93109639547765" lon="23.779695918783545">
        <ele>648.2</ele>
        <time>2021-04-10T12:27:04.000Z</time>
      </trkpt>
      <trkpt lat="37.931073093786836" lon="23.779700361192226">
        <ele>648.2</ele>
        <time>2021-04-10T12:27:06.000Z</time>
      </trkpt>
      <trkpt lat="37.9310558270663" lon="23.779675466939807">
        <ele>648.4</ele>
        <time>2021-04-10T12:27:08.000Z</time>
      </trkpt>
      <trkpt lat="37.93105029501021" lon="23.77966532483697">
        <ele>648.4</ele>
        <time>2021-04-10T12:27:09.000Z</time>
      </trkpt>
      <trkpt lat="37.93104928918183" lon="23.77965560182929">
        <ele>648.4</ele>
        <time>2021-04-10T12:27:10.000Z</time>
      </trkpt>
      <trkpt lat="37.93104786425829" lon="23.77964671701193">
        <ele>648.2</ele>
        <time>2021-04-10T12:27:11.000Z</time>
      </trkpt>
      <trkpt lat="37.931047109887004" lon="23.779645459726453">
        <ele>648.2</ele>
        <time>2021-04-10T12:27:12.000Z</time>
      </trkpt>
      <trkpt lat="37.93104166164994" lon="23.7796482257545">
        <ele>648</ele>
        <time>2021-04-10T12:27:13.000Z</time>
      </trkpt>
      <trkpt lat="37.93103327974677" lon="23.779650907963514">
        <ele>648</ele>
        <time>2021-04-10T12:27:14.000Z</time>
      </trkpt>
      <trkpt lat="37.93101383373141" lon="23.779656942933798">
        <ele>647.8</ele>
        <time>2021-04-10T12:27:16.000Z</time>
      </trkpt>
      <trkpt lat="37.930987598374486" lon="23.779645124450326">
        <ele>647.6</ele>
        <time>2021-04-10T12:27:20.000Z</time>
      </trkpt>
      <trkpt lat="37.93097066693008" lon="23.77962634898722">
        <ele>647.4</ele>
        <time>2021-04-10T12:27:23.000Z</time>
      </trkpt>
      <trkpt lat="37.93096521869302" lon="23.7796188890934">
        <ele>647.2</ele>
        <time>2021-04-10T12:27:24.000Z</time>
      </trkpt>
      <trkpt lat="37.93095943517983" lon="23.77961453050375">
        <ele>647.2</ele>
        <time>2021-04-10T12:27:25.000Z</time>
      </trkpt>
      <trkpt lat="37.93093026615679" lon="23.77959743142128">
        <ele>646.4</ele>
        <time>2021-04-10T12:27:31.000Z</time>
      </trkpt>
      <trkpt lat="37.93092180043459" lon="23.779598604887724">
        <ele>646.2</ele>
        <time>2021-04-10T12:27:32.000Z</time>
      </trkpt>
      <trkpt lat="37.93090419843793" lon="23.779590977355838">
        <ele>646.2</ele>
        <time>2021-04-10T12:27:34.000Z</time>
      </trkpt>
      <trkpt lat="37.9308935534209" lon="23.779557198286057">
        <ele>646.4</ele>
        <time>2021-04-10T12:27:37.000Z</time>
      </trkpt>
      <trkpt lat="37.93086329475045" lon="23.779520820826292">
        <ele>645.8</ele>
        <time>2021-04-10T12:27:41.000Z</time>
      </trkpt>
      <trkpt lat="37.93084577657282" lon="23.77950900234282">
        <ele>645.2</ele>
        <time>2021-04-10T12:27:43.000Z</time>
      </trkpt>
      <trkpt lat="37.93083764612675" lon="23.77950464375317">
        <ele>645</ele>
        <time>2021-04-10T12:27:44.000Z</time>
      </trkpt>
      <trkpt lat="37.93082524091005" lon="23.779494501650333">
        <ele>644.6</ele>
        <time>2021-04-10T12:27:48.000Z</time>
      </trkpt>
      <trkpt lat="37.93081392534077" lon="23.779488382861018">
        <ele>644.6</ele>
        <time>2021-04-10T12:27:50.000Z</time>
      </trkpt>
      <trkpt lat="37.930804872885346" lon="23.779485281556845">
        <ele>644.4</ele>
        <time>2021-04-10T12:27:52.000Z</time>
      </trkpt>
      <trkpt lat="37.93080227449536" lon="23.779445132240653">
        <ele>644</ele>
        <time>2021-04-10T12:27:58.000Z</time>
      </trkpt>
      <trkpt lat="37.930797915905714" lon="23.779440773651004">
        <ele>643.6</ele>
        <time>2021-04-10T12:27:59.000Z</time>
      </trkpt>
      <trkpt lat="37.93078752234578" lon="23.77943281084299">
        <ele>642.8</ele>
        <time>2021-04-10T12:28:02.000Z</time>
      </trkpt>
      <trkpt lat="37.93075650930405" lon="23.779415544122458">
        <ele>642.2</ele>
        <time>2021-04-10T12:28:06.000Z</time>
      </trkpt>
      <trkpt lat="37.930751061066985" lon="23.77938285470009">
        <ele>641.8</ele>
        <time>2021-04-10T12:28:08.000Z</time>
      </trkpt>
      <trkpt lat="37.9307587724179" lon="23.779317811131477">
        <ele>641.8</ele>
        <time>2021-04-10T12:28:12.000Z</time>
      </trkpt>
      <trkpt lat="37.93074737302959" lon="23.779288223013282">
        <ele>640.8</ele>
        <time>2021-04-10T12:28:17.000Z</time>
      </trkpt>
      <trkpt lat="37.93074217624962" lon="23.779289815574884">
        <ele>640.8</ele>
        <time>2021-04-10T12:28:18.000Z</time>
      </trkpt>
      <trkpt lat="37.93071174994111" lon="23.77930766902864">
        <ele>640.6</ele>
        <time>2021-04-10T12:28:22.000Z</time>
      </trkpt>
      <trkpt lat="37.930696746334434" lon="23.77934781834483">
        <ele>640.6</ele>
        <time>2021-04-10T12:28:27.000Z</time>
      </trkpt>
      <trkpt lat="37.93067914433777" lon="23.77934924326837">
        <ele>640.6</ele>
        <time>2021-04-10T12:28:30.000Z</time>
      </trkpt>
      <trkpt lat="37.930646454915404" lon="23.77933113835752">
        <ele>640.6</ele>
        <time>2021-04-10T12:28:33.000Z</time>
      </trkpt>
      <trkpt lat="37.93061804026365" lon="23.77932225354016">
        <ele>640.6</ele>
        <time>2021-04-10T12:28:35.000Z</time>
      </trkpt>
      <trkpt lat="37.93057722039521" lon="23.779296269640326">
        <ele>640.6</ele>
        <time>2021-04-10T12:28:40.000Z</time>
      </trkpt>
      <trkpt lat="37.93056791648269" lon="23.77929300069809">
        <ele>640.6</ele>
        <time>2021-04-10T12:28:41.000Z</time>
      </trkpt>
      <trkpt lat="37.930518966168165" lon="23.77926617860794">
        <ele>639.8</ele>
        <time>2021-04-10T12:28:46.000Z</time>
      </trkpt>
      <trkpt lat="37.93046548962593" lon="23.779263915494084">
        <ele>638.6</ele>
        <time>2021-04-10T12:28:52.000Z</time>
      </trkpt>
      <trkpt lat="37.93041008524597" lon="23.77923432737589">
        <ele>637.4</ele>
        <time>2021-04-10T12:28:59.000Z</time>
      </trkpt>
      <trkpt lat="37.93040882796049" lon="23.77920943312347">
        <ele>637.2</ele>
        <time>2021-04-10T12:29:01.000Z</time>
      </trkpt>
      <trkpt lat="37.93042140081525" lon="23.77918009646237">
        <ele>636.8</ele>
        <time>2021-04-10T12:29:04.000Z</time>
      </trkpt>
      <trkpt lat="37.930442271754146" lon="23.779161404818296">
        <ele>636.4</ele>
        <time>2021-04-10T12:29:09.000Z</time>
      </trkpt>
      <trkpt lat="37.93043866753578" lon="23.779149167239666">
        <ele>636.2</ele>
        <time>2021-04-10T12:29:11.000Z</time>
      </trkpt>
      <trkpt lat="37.93040354736149" lon="23.779131565243006">
        <ele>635.8</ele>
        <time>2021-04-10T12:29:17.000Z</time>
      </trkpt>
      <trkpt lat="37.93038351461291" lon="23.779098205268383">
        <ele>635.2</ele>
        <time>2021-04-10T12:29:21.000Z</time>
      </trkpt>
      <trkpt lat="37.93037513270974" lon="23.77908051945269">
        <ele>635</ele>
        <time>2021-04-10T12:29:23.000Z</time>
      </trkpt>
      <trkpt lat="37.930370522663" lon="23.779071383178234">
        <ele>634.6</ele>
        <time>2021-04-10T12:29:24.000Z</time>
      </trkpt>
      <trkpt lat="37.93035878799856" lon="23.779051015153527">
        <ele>634.2</ele>
        <time>2021-04-10T12:29:26.000Z</time>
      </trkpt>
      <trkpt lat="37.930372869595885" lon="23.778984965756536">
        <ele>633.6</ele>
        <time>2021-04-10T12:29:31.000Z</time>
      </trkpt>
      <trkpt lat="37.930376809090376" lon="23.77897004596889">
        <ele>633.2</ele>
        <time>2021-04-10T12:29:32.000Z</time>
      </trkpt>
      <trkpt lat="37.93037815019488" lon="23.778948420658708">
        <ele>633</ele>
        <time>2021-04-10T12:29:34.000Z</time>
      </trkpt>
      <trkpt lat="37.93037152849138" lon="23.778937188908458">
        <ele>632</ele>
        <time>2021-04-10T12:29:37.000Z</time>
      </trkpt>
      <trkpt lat="37.93036716990173" lon="23.778939871117473">
        <ele>631.8</ele>
        <time>2021-04-10T12:29:38.000Z</time>
      </trkpt>
      <trkpt lat="37.93033825233579" lon="23.778967196121812">
        <ele>631.2</ele>
        <time>2021-04-10T12:29:44.000Z</time>
      </trkpt>
      <trkpt lat="37.93031972832978" lon="23.77896510064602">
        <ele>631.4</ele>
        <time>2021-04-10T12:29:47.000Z</time>
      </trkpt>
      <trkpt lat="37.93031394481659" lon="23.778941379860044">
        <ele>631.4</ele>
        <time>2021-04-10T12:29:50.000Z</time>
      </trkpt>
      <trkpt lat="37.93031143024564" lon="23.77892310731113">
        <ele>631.2</ele>
        <time>2021-04-10T12:29:52.000Z</time>
      </trkpt>
      <trkpt lat="37.93030170723796" lon="23.77889821305871">
        <ele>631</ele>
        <time>2021-04-10T12:29:56.000Z</time>
      </trkpt>
      <trkpt lat="37.93030413798988" lon="23.77891489304602">
        <ele>630.8</ele>
        <time>2021-04-10T12:30:00.000Z</time>
      </trkpt>
      <trkpt lat="37.930308831855655" lon="23.778918078169227">
        <ele>630.4</ele>
        <time>2021-04-10T12:30:03.000Z</time>
      </trkpt>
      <trkpt lat="37.930301455780864" lon="23.77894263714552">
        <ele>630</ele>
        <time>2021-04-10T12:30:13.000Z</time>
      </trkpt>
      <trkpt lat="37.93029014021158" lon="23.77892654389143">
        <ele>630.2</ele>
        <time>2021-04-10T12:30:19.000Z</time>
      </trkpt>
      <trkpt lat="37.93029240332544" lon="23.778920425102115">
        <ele>630.2</ele>
        <time>2021-04-10T12:30:21.000Z</time>
      </trkpt>
      <trkpt lat="37.93029734864831" lon="23.778906846418977">
        <ele>630.2</ele>
        <time>2021-04-10T12:30:27.000Z</time>
      </trkpt>
      <trkpt lat="37.93030070140958" lon="23.778905756771564">
        <ele>630.4</ele>
        <time>2021-04-10T12:30:28.000Z</time>
      </trkpt>
      <trkpt lat="37.930302964523435" lon="23.778898799791932">
        <ele>630.4</ele>
        <time>2021-04-10T12:30:31.000Z</time>
      </trkpt>
      <trkpt lat="37.93028578162193" lon="23.77887331880629">
        <ele>630</ele>
        <time>2021-04-10T12:30:38.000Z</time>
      </trkpt>
      <trkpt lat="37.93028335087001" lon="23.778854878619313">
        <ele>629.6</ele>
        <time>2021-04-10T12:30:42.000Z</time>
      </trkpt>
      <trkpt lat="37.93027773499489" lon="23.778852364048362">
        <ele>629.4</ele>
        <time>2021-04-10T12:30:43.000Z</time>
      </trkpt>
      <trkpt lat="37.930235574021935" lon="23.778834929689765">
        <ele>628.8</ele>
        <time>2021-04-10T12:30:48.000Z</time>
      </trkpt>
      <trkpt lat="37.93022459372878" lon="23.778817914426327">
        <ele>628.6</ele>
        <time>2021-04-10T12:30:50.000Z</time>
      </trkpt>
      <trkpt lat="37.93022568337619" lon="23.778809616342187">
        <ele>628.4</ele>
        <time>2021-04-10T12:30:51.000Z</time>
      </trkpt>
      <trkpt lat="37.9302323050797" lon="23.778798133134842">
        <ele>628.2</ele>
        <time>2021-04-10T12:30:53.000Z</time>
      </trkpt>
      <trkpt lat="37.93023347854614" lon="23.778793774545193">
        <ele>628.2</ele>
        <time>2021-04-10T12:30:54.000Z</time>
      </trkpt>
      <trkpt lat="37.930232137441635" lon="23.77878589555621">
        <ele>627.8</ele>
        <time>2021-04-10T12:30:56.000Z</time>
      </trkpt>
      <trkpt lat="37.930225767195225" lon="23.778783045709133">
        <ele>627.4</ele>
        <time>2021-04-10T12:30:59.000Z</time>
      </trkpt>
      <trkpt lat="37.930221911519766" lon="23.778777429834008">
        <ele>627.2</ele>
        <time>2021-04-10T12:31:00.000Z</time>
      </trkpt>
      <trkpt lat="37.93020732700825" lon="23.778768042102456">
        <ele>627</ele>
        <time>2021-04-10T12:31:02.000Z</time>
      </trkpt>
      <trkpt lat="37.9301892220974" lon="23.778760246932507">
        <ele>626.6</ele>
        <time>2021-04-10T12:31:04.000Z</time>
      </trkpt>
      <trkpt lat="37.930171117186546" lon="23.778756810352206">
        <ele>626.4</ele>
        <time>2021-04-10T12:31:06.000Z</time>
      </trkpt>
      <trkpt lat="37.93016483075917" lon="23.778745494782925">
        <ele>626.2</ele>
        <time>2021-04-10T12:31:08.000Z</time>
      </trkpt>
      <trkpt lat="37.93017170391977" lon="23.778761588037014">
        <ele>626</ele>
        <time>2021-04-10T12:31:14.000Z</time>
      </trkpt>
      <trkpt lat="37.93013356626034" lon="23.778769383206964">
        <ele>626.2</ele>
        <time>2021-04-10T12:31:19.000Z</time>
      </trkpt>
      <trkpt lat="37.930097272619605" lon="23.77875597216189">
        <ele>626.4</ele>
        <time>2021-04-10T12:31:25.000Z</time>
      </trkpt>
      <trkpt lat="37.930097272619605" lon="23.778748428449035">
        <ele>626.4</ele>
        <time>2021-04-10T12:31:26.000Z</time>
      </trkpt>
      <trkpt lat="37.930087549611926" lon="23.778729988262057">
        <ele>625.6</ele>
        <time>2021-04-10T12:31:30.000Z</time>
      </trkpt>
      <trkpt lat="37.93008713051677" lon="23.778723953291774">
        <ele>625.2</ele>
        <time>2021-04-10T12:31:31.000Z</time>
      </trkpt>
      <trkpt lat="37.93009148910642" lon="23.778704842552543">
        <ele>624.6</ele>
        <time>2021-04-10T12:31:35.000Z</time>
      </trkpt>
      <trkpt lat="37.93007950298488" lon="23.77866762690246">
        <ele>624.2</ele>
        <time>2021-04-10T12:31:40.000Z</time>
      </trkpt>
      <trkpt lat="37.930081179365516" lon="23.778655556961894">
        <ele>624.2</ele>
        <time>2021-04-10T12:31:41.000Z</time>
      </trkpt>
      <trkpt lat="37.930070366710424" lon="23.778616497293115">
        <ele>622.8</ele>
        <time>2021-04-10T12:31:46.000Z</time>
      </trkpt>
      <trkpt lat="37.93005645275116" lon="23.77860702574253">
        <ele>622.4</ele>
        <time>2021-04-10T12:31:48.000Z</time>
      </trkpt>
      <trkpt lat="37.930031307041645" lon="23.77859571017325">
        <ele>621.8</ele>
        <time>2021-04-10T12:31:52.000Z</time>
      </trkpt>
      <trkpt lat="37.93002376332879" lon="23.778596967458725">
        <ele>621.8</ele>
        <time>2021-04-10T12:31:53.000Z</time>
      </trkpt>
      <trkpt lat="37.93001387268305" lon="23.778589004650712">
        <ele>621.8</ele>
        <time>2021-04-10T12:31:55.000Z</time>
      </trkpt>
      <trkpt lat="37.93000465258956" lon="23.778577269986272">
        <ele>621.8</ele>
        <time>2021-04-10T12:31:57.000Z</time>
      </trkpt>
      <trkpt lat="37.92999040335417" lon="23.778567714616656">
        <ele>621.4</ele>
        <time>2021-04-10T12:32:00.000Z</time>
      </trkpt>
      <trkpt lat="37.929972214624286" lon="23.778551453724504">
        <ele>620.8</ele>
        <time>2021-04-10T12:32:05.000Z</time>
      </trkpt>
      <trkpt lat="37.92996944859624" lon="23.77854583784938">
        <ele>620.4</ele>
        <time>2021-04-10T12:32:06.000Z</time>
      </trkpt>
      <trkpt lat="37.929966179654" lon="23.778538377955556">
        <ele>620.2</ele>
        <time>2021-04-10T12:32:07.000Z</time>
      </trkpt>
      <trkpt lat="37.92994061484933" lon="23.778508119285107">
        <ele>619.8</ele>
        <time>2021-04-10T12:32:11.000Z</time>
      </trkpt>
      <trkpt lat="37.929944302886724" lon="23.778475429862738">
        <ele>619.2</ele>
        <time>2021-04-10T12:32:15.000Z</time>
      </trkpt>
      <trkpt lat="37.9299352504313" lon="23.778444416821003">
        <ele>618.8</ele>
        <time>2021-04-10T12:32:18.000Z</time>
      </trkpt>
      <trkpt lat="37.92993248440325" lon="23.7784359510988">
        <ele>618.4</ele>
        <time>2021-04-10T12:32:20.000Z</time>
      </trkpt>
      <trkpt lat="37.92993005365133" lon="23.778409296646714">
        <ele>617.6</ele>
        <time>2021-04-10T12:32:23.000Z</time>
      </trkpt>
      <trkpt lat="37.929922761395574" lon="23.77839546650648">
        <ele>617.2</ele>
        <time>2021-04-10T12:32:25.000Z</time>
      </trkpt>
      <trkpt lat="37.92990121990442" lon="23.778393706306815">
        <ele>617</ele>
        <time>2021-04-10T12:32:27.000Z</time>
      </trkpt>
      <trkpt lat="37.929875403642654" lon="23.77839353866875">
        <ele>617</ele>
        <time>2021-04-10T12:32:29.000Z</time>
      </trkpt>
      <trkpt lat="37.92985578998923" lon="23.778385743498802">
        <ele>617</ele>
        <time>2021-04-10T12:32:31.000Z</time>
      </trkpt>
      <trkpt lat="37.92984497733414" lon="23.77839638851583">
        <ele>616.6</ele>
        <time>2021-04-10T12:32:35.000Z</time>
      </trkpt>
      <trkpt lat="37.92983919382095" lon="23.77840183675289">
        <ele>616.4</ele>
        <time>2021-04-10T12:32:36.000Z</time>
      </trkpt>
      <trkpt lat="37.929828967899084" lon="23.77840762026608">
        <ele>616.2</ele>
        <time>2021-04-10T12:32:37.000Z</time>
      </trkpt>
      <trkpt lat="37.929816730320454" lon="23.778413822874427">
        <ele>616</ele>
        <time>2021-04-10T12:32:38.000Z</time>
      </trkpt>
      <trkpt lat="37.92979317717254" lon="23.778387252241373">
        <ele>615.8</ele>
        <time>2021-04-10T12:32:41.000Z</time>
      </trkpt>
      <trkpt lat="37.92978538200259" lon="23.778376439586282">
        <ele>615.4</ele>
        <time>2021-04-10T12:32:43.000Z</time>
      </trkpt>
      <trkpt lat="37.92977406643331" lon="23.77836554311216">
        <ele>614.2</ele>
        <time>2021-04-10T12:32:47.000Z</time>
      </trkpt>
      <trkpt lat="37.929782615974545" lon="23.77836797386408">
        <ele>614.2</ele>
        <time>2021-04-10T12:32:48.000Z</time>
      </trkpt>
      <trkpt lat="37.92978982441127" lon="23.77835674211383">
        <ele>613.4</ele>
        <time>2021-04-10T12:32:53.000Z</time>
      </trkpt>
      <trkpt lat="37.92979326099157" lon="23.778357077389956">
        <ele>613.2</ele>
        <time>2021-04-10T12:32:56.000Z</time>
      </trkpt>
      <trkpt lat="37.92979275807738" lon="23.778356155380607">
        <ele>613.2</ele>
        <time>2021-04-10T12:32:57.000Z</time>
      </trkpt>
      <trkpt lat="37.92978395707905" lon="23.77837434411049">
        <ele>613.2</ele>
        <time>2021-04-10T12:33:04.000Z</time>
      </trkpt>
      <trkpt lat="37.929780185222626" lon="23.778379373252392">
        <ele>613.2</ele>
        <time>2021-04-10T12:33:05.000Z</time>
      </trkpt>
      <trkpt lat="37.929766941815615" lon="23.778382390737534">
        <ele>613</ele>
        <time>2021-04-10T12:33:10.000Z</time>
      </trkpt>
      <trkpt lat="37.92976493015885" lon="23.778384318575263">
        <ele>613</ele>
        <time>2021-04-10T12:33:11.000Z</time>
      </trkpt>
      <trkpt lat="37.92975939810276" lon="23.778380546718836">
        <ele>613</ele>
        <time>2021-04-10T12:33:15.000Z</time>
      </trkpt>
      <trkpt lat="37.9297745693475" lon="23.77837585285306">
        <ele>613</ele>
        <time>2021-04-10T12:33:19.000Z</time>
      </trkpt>
      <trkpt lat="37.92977792210877" lon="23.778372583910823">
        <ele>613</ele>
        <time>2021-04-10T12:33:25.000Z</time>
      </trkpt>
      <trkpt lat="37.92978378944099" lon="23.778380462899804">
        <ele>613.2</ele>
        <time>2021-04-10T12:33:35.000Z</time>
      </trkpt>
      <trkpt lat="37.929783621802926" lon="23.77837300300598">
        <ele>613.4</ele>
        <time>2021-04-10T12:33:45.000Z</time>
      </trkpt>
      <trkpt lat="37.92980298399925" lon="23.778364034369588">
        <ele>613.2</ele>
        <time>2021-04-10T12:33:51.000Z</time>
      </trkpt>
      <trkpt lat="37.92979896068573" lon="23.77835037186742">
        <ele>613.4</ele>
        <time>2021-04-10T12:33:58.000Z</time>
      </trkpt>
      <trkpt lat="37.929781191051006" lon="23.778336122632027">
        <ele>613</ele>
        <time>2021-04-10T12:34:09.000Z</time>
      </trkpt>
      <trkpt lat="37.92977054603398" lon="23.77835732884705">
        <ele>613.4</ele>
        <time>2021-04-10T12:34:17.000Z</time>
      </trkpt>
      <trkpt lat="37.929801223799586" lon="23.77835246734321">
        <ele>613</ele>
        <time>2021-04-10T12:34:26.000Z</time>
      </trkpt>
      <trkpt lat="37.92979619465768" lon="23.778362274169922">
        <ele>613.2</ele>
        <time>2021-04-10T12:34:38.000Z</time>
      </trkpt>
      <trkpt lat="37.929803067818284" lon="23.778364956378937">
        <ele>613.4</ele>
        <time>2021-04-10T12:34:45.000Z</time>
      </trkpt>
      <trkpt lat="37.92980005033314" lon="23.778363447636366">
        <ele>613.4</ele>
        <time>2021-04-10T12:34:46.000Z</time>
      </trkpt>
      <trkpt lat="37.92979443445802" lon="23.77836411818862">
        <ele>613.2</ele>
        <time>2021-04-10T12:34:48.000Z</time>
      </trkpt>
      <trkpt lat="37.92977255769074" lon="23.7783807143569">
        <ele>613.2</ele>
        <time>2021-04-10T12:34:56.000Z</time>
      </trkpt>
      <trkpt lat="37.92977808974683" lon="23.77835146151483">
        <ele>612.6</ele>
        <time>2021-04-10T12:35:04.000Z</time>
      </trkpt>
      <trkpt lat="37.92977465316653" lon="23.77834743820131">
        <ele>612.6</ele>
        <time>2021-04-10T12:35:05.000Z</time>
      </trkpt>
      <trkpt lat="37.9297798499465" lon="23.778339810669422">
        <ele>612.6</ele>
        <time>2021-04-10T12:35:09.000Z</time>
      </trkpt>
      <trkpt lat="37.92978437617421" lon="23.778344420716166">
        <ele>613</ele>
        <time>2021-04-10T12:35:12.000Z</time>
      </trkpt>
      <trkpt lat="37.92978152632713" lon="23.778348695486784">
        <ele>613</ele>
        <time>2021-04-10T12:35:13.000Z</time>
      </trkpt>
      <trkpt lat="37.92978085577488" lon="23.778337966650724">
        <ele>613.2</ele>
        <time>2021-04-10T12:35:15.000Z</time>
      </trkpt>
      <trkpt lat="37.92977498844266" lon="23.778334613889456">
        <ele>610.4</ele>
        <time>2021-04-10T12:35:20.000Z</time>
      </trkpt>
      <trkpt lat="37.929768869653344" lon="23.778338553383946">
        <ele>611.4</ele>
        <time>2021-04-10T12:35:21.000Z</time>
      </trkpt>
      <trkpt lat="37.929777251556516" lon="23.778359089046717">
        <ele>612.4</ele>
        <time>2021-04-10T12:35:28.000Z</time>
      </trkpt>
      <trkpt lat="37.92977691628039" lon="23.778355484828353">
        <ele>612.4</ele>
        <time>2021-04-10T12:35:29.000Z</time>
      </trkpt>
      <trkpt lat="37.92978873476386" lon="23.77833972685039">
        <ele>612.4</ele>
        <time>2021-04-10T12:35:36.000Z</time>
      </trkpt>
      <trkpt lat="37.929788902401924" lon="23.778340900316834">
        <ele>612.4</ele>
        <time>2021-04-10T12:35:39.000Z</time>
      </trkpt>
      <trkpt lat="37.92978663928807" lon="23.77834215760231">
        <ele>612.4</ele>
        <time>2021-04-10T12:35:40.000Z</time>
      </trkpt>
      <trkpt lat="37.9297867231071" lon="23.778340565040708">
        <ele>612.4</ele>
        <time>2021-04-10T12:35:43.000Z</time>
      </trkpt>
      <trkpt lat="37.92978965677321" lon="23.778344001621008">
        <ele>612.4</ele>
        <time>2021-04-10T12:35:45.000Z</time>
      </trkpt>
      <trkpt lat="37.92978772893548" lon="23.77834316343069">
        <ele>612.4</ele>
        <time>2021-04-10T12:35:47.000Z</time>
      </trkpt>
      <trkpt lat="37.9297901596874" lon="23.77834651619196">
        <ele>612.4</ele>
        <time>2021-04-10T12:35:52.000Z</time>
      </trkpt>
      <trkpt lat="37.92978823184967" lon="23.778344253078103">
        <ele>612.4</ele>
        <time>2021-04-10T12:36:00.000Z</time>
      </trkpt>
      <trkpt lat="37.929786974564195" lon="23.778348779305816">
        <ele>612.4</ele>
        <time>2021-04-10T12:36:04.000Z</time>
      </trkpt>
      <trkpt lat="37.9297642596066" lon="23.77834559418261">
        <ele>612.4</ele>
        <time>2021-04-10T12:36:12.000Z</time>
      </trkpt>
      <trkpt lat="37.92976560071111" lon="23.778345426544547">
        <ele>612.4</ele>
        <time>2021-04-10T12:36:13.000Z</time>
      </trkpt>
      <trkpt lat="37.929766941815615" lon="23.77834559418261">
        <ele>612.4</ele>
        <time>2021-04-10T12:36:14.000Z</time>
      </trkpt>
      <trkpt lat="37.92979351244867" lon="23.778336038812995">
        <ele>612.4</ele>
        <time>2021-04-10T12:36:25.000Z</time>
      </trkpt>
      <trkpt lat="37.92979158461094" lon="23.778342995792627">
        <ele>612.4</ele>
        <time>2021-04-10T12:36:29.000Z</time>
      </trkpt>
      <trkpt lat="37.92979124933481" lon="23.77835037186742">
        <ele>612.4</ele>
        <time>2021-04-10T12:36:31.000Z</time>
      </trkpt>
      <trkpt lat="37.929787477478385" lon="23.778335535898805">
        <ele>612.4</ele>
        <time>2021-04-10T12:36:37.000Z</time>
      </trkpt>
      <trkpt lat="37.92978823184967" lon="23.778332686051726">
        <ele>612.4</ele>
        <time>2021-04-10T12:36:38.000Z</time>
      </trkpt>
      <trkpt lat="37.92979736812413" lon="23.778339056298137">
        <ele>612.4</ele>
        <time>2021-04-10T12:36:44.000Z</time>
      </trkpt>
      <trkpt lat="37.92979451827705" lon="23.778349114581943">
        <ele>612.4</ele>
        <time>2021-04-10T12:36:57.000Z</time>
      </trkpt>
      <trkpt lat="37.92980533093214" lon="23.77837099134922">
        <ele>612.4</ele>
        <time>2021-04-10T12:37:01.000Z</time>
      </trkpt>
      <trkpt lat="37.92981270700693" lon="23.778387000784278">
        <ele>612.4</ele>
        <time>2021-04-10T12:37:03.000Z</time>
      </trkpt>
      <trkpt lat="37.929762667045" lon="23.77830401994288">
        <ele>612.4</ele>
        <time>2021-04-10T12:37:12.000Z</time>
      </trkpt>
      <trkpt lat="37.92976803146303" lon="23.7782771140337">
        <ele>612.4</ele>
        <time>2021-04-10T12:37:13.000Z</time>
      </trkpt>
      <trkpt lat="37.92978496290743" lon="23.778234785422683">
        <ele>612.4</ele>
        <time>2021-04-10T12:37:16.000Z</time>
      </trkpt>
      <trkpt lat="37.92978689074516" lon="23.778229672461748">
        <ele>612.4</ele>
        <time>2021-04-10T12:37:17.000Z</time>
      </trkpt>
      <trkpt lat="37.929790830239654" lon="23.778208969160914">
        <ele>612.4</ele>
        <time>2021-04-10T12:37:19.000Z</time>
      </trkpt>
      <trkpt lat="37.92978881858289" lon="23.77819170244038">
        <ele>612.4</ele>
        <time>2021-04-10T12:37:21.000Z</time>
      </trkpt>
      <trkpt lat="37.9297816939652" lon="23.77818147651851">
        <ele>609.4</ele>
        <time>2021-04-10T12:37:22.000Z</time>
      </trkpt>
      <trkpt lat="37.92977465316653" lon="23.778172340244055">
        <ele>609.2</ele>
        <time>2021-04-10T12:37:23.000Z</time>
      </trkpt>
      <trkpt lat="37.929737605154514" lon="23.778115175664425">
        <ele>608.8</ele>
        <time>2021-04-10T12:37:29.000Z</time>
      </trkpt>
      <trkpt lat="37.929720589891076" lon="23.778065303340554">
        <ele>608.4</ele>
        <time>2021-04-10T12:37:33.000Z</time>
      </trkpt>
      <trkpt lat="37.9297174885869" lon="23.778043845668435">
        <ele>608</ele>
        <time>2021-04-10T12:37:35.000Z</time>
      </trkpt>
      <trkpt lat="37.92970231734216" lon="23.778020879253745">
        <ele>607.2</ele>
        <time>2021-04-10T12:37:38.000Z</time>
      </trkpt>
      <trkpt lat="37.929700473323464" lon="23.77800260670483">
        <ele>607.2</ele>
        <time>2021-04-10T12:37:40.000Z</time>
      </trkpt>
      <trkpt lat="37.92970365844667" lon="23.777995901182294">
        <ele>607</ele>
        <time>2021-04-10T12:37:41.000Z</time>
      </trkpt>
      <trkpt lat="37.929687732830644" lon="23.777978718280792">
        <ele>606.4</ele>
        <time>2021-04-10T12:37:44.000Z</time>
      </trkpt>
      <trkpt lat="37.929681446403265" lon="23.777986178174615">
        <ele>606</ele>
        <time>2021-04-10T12:37:45.000Z</time>
      </trkpt>
      <trkpt lat="37.929672645404935" lon="23.77798978239298">
        <ele>606</ele>
        <time>2021-04-10T12:37:46.000Z</time>
      </trkpt>
      <trkpt lat="37.92965915054083" lon="23.7779679056257">
        <ele>605.4</ele>
        <time>2021-04-10T12:37:50.000Z</time>
      </trkpt>
      <trkpt lat="37.929658982902765" lon="23.77796539105475">
        <ele>605.4</ele>
        <time>2021-04-10T12:37:51.000Z</time>
      </trkpt>
      <trkpt lat="37.929631657898426" lon="23.777958266437054">
        <ele>605.2</ele>
        <time>2021-04-10T12:37:56.000Z</time>
      </trkpt>
      <trkpt lat="37.929595950990915" lon="23.777921134606004">
        <ele>605</ele>
        <time>2021-04-10T12:38:00.000Z</time>
      </trkpt>
      <trkpt lat="37.92957994155586" lon="23.777906047180295">
        <ele>604.8</ele>
        <time>2021-04-10T12:38:02.000Z</time>
      </trkpt>
      <trkpt lat="37.92957717552781" lon="23.777898671105504">
        <ele>604.8</ele>
        <time>2021-04-10T12:38:03.000Z</time>
      </trkpt>
      <trkpt lat="37.929574912413955" lon="23.77785642631352">
        <ele>604.4</ele>
        <time>2021-04-10T12:38:07.000Z</time>
      </trkpt>
      <trkpt lat="37.92957508005202" lon="23.777839997783303">
        <ele>604.2</ele>
        <time>2021-04-10T12:38:09.000Z</time>
      </trkpt>
      <trkpt lat="37.92957667261362" lon="23.777828933671117">
        <ele>604</ele>
        <time>2021-04-10T12:38:10.000Z</time>
      </trkpt>
      <trkpt lat="37.92957457713783" lon="23.777797166258097">
        <ele>603.6</ele>
        <time>2021-04-10T12:38:13.000Z</time>
      </trkpt>
      <trkpt lat="37.929559824988246" lon="23.777776965871453">
        <ele>603</ele>
        <time>2021-04-10T12:38:16.000Z</time>
      </trkpt>
      <trkpt lat="37.92955571785569" lon="23.77777579240501">
        <ele>603</ele>
        <time>2021-04-10T12:38:17.000Z</time>
      </trkpt>
      <trkpt lat="37.92955596931279" lon="23.777769338339567">
        <ele>602.8</ele>
        <time>2021-04-10T12:38:18.000Z</time>
      </trkpt>
      <trkpt lat="37.92955253273249" lon="23.77776305191219">
        <ele>602.8</ele>
        <time>2021-04-10T12:38:19.000Z</time>
      </trkpt>
      <trkpt lat="37.929528476670384" lon="23.777710245922208">
        <ele>602.2</ele>
        <time>2021-04-10T12:38:24.000Z</time>
      </trkpt>
      <trkpt lat="37.929528560489416" lon="23.777693565934896">
        <ele>601.8</ele>
        <time>2021-04-10T12:38:25.000Z</time>
      </trkpt>
      <trkpt lat="37.92950928211212" lon="23.777644280344248">
        <ele>601.2</ele>
        <time>2021-04-10T12:38:30.000Z</time>
      </trkpt>
      <trkpt lat="37.92951154522598" lon="23.77763614989817">
        <ele>600.8</ele>
        <time>2021-04-10T12:38:34.000Z</time>
      </trkpt>
      <trkpt lat="37.92951414361596" lon="23.77763355150819">
        <ele>600.8</ele>
        <time>2021-04-10T12:38:35.000Z</time>
      </trkpt>
      <trkpt lat="37.9295171611011" lon="23.777623157948256">
        <ele>600.4</ele>
        <time>2021-04-10T12:38:41.000Z</time>
      </trkpt>
      <trkpt lat="37.929515317082405" lon="23.77760278992355">
        <ele>600</ele>
        <time>2021-04-10T12:38:45.000Z</time>
      </trkpt>
      <trkpt lat="37.92951012030244" lon="23.777602454647422">
        <ele>599.8</ele>
        <time>2021-04-10T12:38:46.000Z</time>
      </trkpt>
      <trkpt lat="37.92949947528541" lon="23.77760287374258">
        <ele>599.8</ele>
        <time>2021-04-10T12:38:47.000Z</time>
      </trkpt>
      <trkpt lat="37.92946628294885" lon="23.777570771053433">
        <ele>599.6</ele>
        <time>2021-04-10T12:38:51.000Z</time>
      </trkpt>
      <trkpt lat="37.929453290998936" lon="23.777518719434738">
        <ele>599</ele>
        <time>2021-04-10T12:38:56.000Z</time>
      </trkpt>
      <trkpt lat="37.92945194989443" lon="23.777504470199347">
        <ele>598.8</ele>
        <time>2021-04-10T12:38:57.000Z</time>
      </trkpt>
      <trkpt lat="37.92944365181029" lon="23.77749340608716">
        <ele>598.8</ele>
        <time>2021-04-10T12:38:58.000Z</time>
      </trkpt>
      <trkpt lat="37.929418087005615" lon="23.777476977556944">
        <ele>598.6</ele>
        <time>2021-04-10T12:39:01.000Z</time>
      </trkpt>
      <trkpt lat="37.92940710671246" lon="23.777467254549265">
        <ele>598.4</ele>
        <time>2021-04-10T12:39:02.000Z</time>
      </trkpt>
      <trkpt lat="37.92940082028508" lon="23.77746071666479">
        <ele>598</ele>
        <time>2021-04-10T12:39:03.000Z</time>
      </trkpt>
      <trkpt lat="37.92938623577356" lon="23.777455184608698">
        <ele>597.8</ele>
        <time>2021-04-10T12:39:05.000Z</time>
      </trkpt>
      <trkpt lat="37.92937818914652" lon="23.777458537369967">
        <ele>597.6</ele>
        <time>2021-04-10T12:39:06.000Z</time>
      </trkpt>
      <trkpt lat="37.9293720703572" lon="23.777457028627396">
        <ele>597.6</ele>
        <time>2021-04-10T12:39:07.000Z</time>
      </trkpt>
      <trkpt lat="37.929367292672396" lon="23.777450742200017">
        <ele>597.4</ele>
        <time>2021-04-10T12:39:08.000Z</time>
      </trkpt>
      <trkpt lat="37.92934340424836" lon="23.77742358483374">
        <ele>596.8</ele>
        <time>2021-04-10T12:39:12.000Z</time>
      </trkpt>
      <trkpt lat="37.92933468706906" lon="23.77742107026279">
        <ele>596.8</ele>
        <time>2021-04-10T12:39:13.000Z</time>
      </trkpt>
      <trkpt lat="37.929323706775904" lon="23.777419226244092">
        <ele>596.8</ele>
        <time>2021-04-10T12:39:14.000Z</time>
      </trkpt>
      <trkpt lat="37.92928825132549" lon="23.777423333376646">
        <ele>596.8</ele>
        <time>2021-04-10T12:39:18.000Z</time>
      </trkpt>
      <trkpt lat="37.92928674258292" lon="23.77741662785411">
        <ele>596.6</ele>
        <time>2021-04-10T12:39:19.000Z</time>
      </trkpt>
      <trkpt lat="37.929281294345856" lon="23.77742207609117">
        <ele>596.6</ele>
        <time>2021-04-10T12:39:23.000Z</time>
      </trkpt>
      <trkpt lat="37.929305685684085" lon="23.77741134725511">
        <ele>596.8</ele>
        <time>2021-04-10T12:39:28.000Z</time>
      </trkpt>
      <trkpt lat="37.929303254932165" lon="23.777399277314544">
        <ele>596.4</ele>
        <time>2021-04-10T12:39:35.000Z</time>
      </trkpt>
      <trkpt lat="37.92929663322866" lon="23.777401372790337">
        <ele>596.6</ele>
        <time>2021-04-10T12:39:41.000Z</time>
      </trkpt>
      <trkpt lat="37.929303757846355" lon="23.77739609219134">
        <ele>596.6</ele>
        <time>2021-04-10T12:39:43.000Z</time>
      </trkpt>
      <trkpt lat="37.9293102119118" lon="23.7773928232491">
        <ele>596.6</ele>
        <time>2021-04-10T12:39:45.000Z</time>
      </trkpt>
      <trkpt lat="37.929325215518475" lon="23.777378238737583">
        <ele>596.8</ele>
        <time>2021-04-10T12:39:50.000Z</time>
      </trkpt>
      <trkpt lat="37.92933728545904" lon="23.77734337002039">
        <ele>596</ele>
        <time>2021-04-10T12:39:55.000Z</time>
      </trkpt>
      <trkpt lat="37.92933720164001" lon="23.777336748316884">
        <ele>595.8</ele>
        <time>2021-04-10T12:39:56.000Z</time>
      </trkpt>
      <trkpt lat="37.929327143356204" lon="23.777320655062795">
        <ele>595.6</ele>
        <time>2021-04-10T12:39:58.000Z</time>
      </trkpt>
      <trkpt lat="37.92930099181831" lon="23.777284864336252">
        <ele>595</ele>
        <time>2021-04-10T12:40:01.000Z</time>
      </trkpt>
      <trkpt lat="37.929299399256706" lon="23.777274219319224">
        <ele>594.8</ele>
        <time>2021-04-10T12:40:02.000Z</time>
      </trkpt>
      <trkpt lat="37.9292943701148" lon="23.777263993397355">
        <ele>594.6</ele>
        <time>2021-04-10T12:40:03.000Z</time>
      </trkpt>
      <trkpt lat="37.929278276860714" lon="23.777245804667473">
        <ele>594.4</ele>
        <time>2021-04-10T12:40:06.000Z</time>
      </trkpt>
      <trkpt lat="37.92928188107908" lon="23.77724320627749">
        <ele>594.2</ele>
        <time>2021-04-10T12:40:07.000Z</time>
      </trkpt>
      <trkpt lat="37.92931976728141" lon="23.77721822820604">
        <ele>593.4</ele>
        <time>2021-04-10T12:40:11.000Z</time>
      </trkpt>
      <trkpt lat="37.929314067587256" lon="23.77720858901739">
        <ele>593.2</ele>
        <time>2021-04-10T12:40:12.000Z</time>
      </trkpt>
      <trkpt lat="37.92927945032716" lon="23.777169529348612">
        <ele>592.6</ele>
        <time>2021-04-10T12:40:15.000Z</time>
      </trkpt>
      <trkpt lat="37.92926821857691" lon="23.777151089161634">
        <ele>592.4</ele>
        <time>2021-04-10T12:40:16.000Z</time>
      </trkpt>
      <trkpt lat="37.92923318222165" lon="23.777150670066476">
        <ele>592.2</ele>
        <time>2021-04-10T12:40:18.000Z</time>
      </trkpt>
      <trkpt lat="37.92919781059027" lon="23.777141282334924">
        <ele>591.6</ele>
        <time>2021-04-10T12:40:21.000Z</time>
      </trkpt>
      <trkpt lat="37.92919588275254" lon="23.777134409174323">
        <ele>591.2</ele>
        <time>2021-04-10T12:40:22.000Z</time>
      </trkpt>
      <trkpt lat="37.929197642952204" lon="23.777132062241435">
        <ele>590.6</ele>
        <time>2021-04-10T12:40:23.000Z</time>
      </trkpt>
      <trkpt lat="37.92919454164803" lon="23.777129044756293">
        <ele>590.2</ele>
        <time>2021-04-10T12:40:25.000Z</time>
      </trkpt>
      <trkpt lat="37.929192865267396" lon="23.777122171595693">
        <ele>590.2</ele>
        <time>2021-04-10T12:40:26.000Z</time>
      </trkpt>
      <trkpt lat="37.92918926104903" lon="23.77711429260671">
        <ele>590</ele>
        <time>2021-04-10T12:40:27.000Z</time>
      </trkpt>
      <trkpt lat="37.929168390110135" lon="23.77712594345212">
        <ele>589</ele>
        <time>2021-04-10T12:40:31.000Z</time>
      </trkpt>
      <trkpt lat="37.92916428297758" lon="23.777128038927913">
        <ele>589</ele>
        <time>2021-04-10T12:40:32.000Z</time>
      </trkpt>
      <trkpt lat="37.92915405705571" lon="23.777083531022072">
        <ele>588.8</ele>
        <time>2021-04-10T12:40:37.000Z</time>
      </trkpt>
      <trkpt lat="37.92913486249745" lon="23.77707372419536">
        <ele>588.8</ele>
        <time>2021-04-10T12:40:39.000Z</time>
      </trkpt>
      <trkpt lat="37.929098485037684" lon="23.777089063078165">
        <ele>588.2</ele>
        <time>2021-04-10T12:40:43.000Z</time>
      </trkpt>
      <trkpt lat="37.92908297851682" lon="23.777084620669484">
        <ele>587.8</ele>
        <time>2021-04-10T12:40:45.000Z</time>
      </trkpt>
      <trkpt lat="37.92907828465104" lon="23.77707556821406">
        <ele>587.4</ele>
        <time>2021-04-10T12:40:46.000Z</time>
      </trkpt>
      <trkpt lat="37.929073590785265" lon="23.777051093056798">
        <ele>586.8</ele>
        <time>2021-04-10T12:40:48.000Z</time>
      </trkpt>
      <trkpt lat="37.92907099239528" lon="23.777044052258134">
        <ele>586.8</ele>
        <time>2021-04-10T12:40:49.000Z</time>
      </trkpt>
      <trkpt lat="37.92906562797725" lon="23.77703265286982">
        <ele>586.6</ele>
        <time>2021-04-10T12:40:50.000Z</time>
      </trkpt>
      <trkpt lat="37.9290631134063" lon="23.777022510766983">
        <ele>586.4</ele>
        <time>2021-04-10T12:40:51.000Z</time>
      </trkpt>
      <trkpt lat="37.92907585389912" lon="23.776995185762644">
        <ele>585.8</ele>
        <time>2021-04-10T12:40:54.000Z</time>
      </trkpt>
      <trkpt lat="37.929083313792944" lon="23.777021756395698">
        <ele>586</ele>
        <time>2021-04-10T12:41:00.000Z</time>
      </trkpt>
      <trkpt lat="37.929088259115815" lon="23.77702033147216">
        <ele>586.6</ele>
        <time>2021-04-10T12:41:04.000Z</time>
      </trkpt>
      <trkpt lat="37.929079961031675" lon="23.777016391977668">
        <ele>586.8</ele>
        <time>2021-04-10T12:41:10.000Z</time>
      </trkpt>
      <trkpt lat="37.929085325449705" lon="23.77701010555029">
        <ele>586.4</ele>
        <time>2021-04-10T12:41:19.000Z</time>
      </trkpt>
      <trkpt lat="37.92908767238259" lon="23.777007339522243">
        <ele>586.2</ele>
        <time>2021-04-10T12:41:20.000Z</time>
      </trkpt>
      <trkpt lat="37.9290821403265" lon="23.777009434998035">
        <ele>586.2</ele>
        <time>2021-04-10T12:41:26.000Z</time>
      </trkpt>
      <trkpt lat="37.929080966860056" lon="23.777010524645448">
        <ele>586.2</ele>
        <time>2021-04-10T12:41:27.000Z</time>
      </trkpt>
      <trkpt lat="37.92907912284136" lon="23.77700189128518">
        <ele>585.8</ele>
        <time>2021-04-10T12:41:30.000Z</time>
      </trkpt>
      <trkpt lat="37.92908515781164" lon="23.776996107771993">
        <ele>585.8</ele>
        <time>2021-04-10T12:41:33.000Z</time>
      </trkpt>
      <trkpt lat="37.92908934876323" lon="23.777011781930923">
        <ele>585.6</ele>
        <time>2021-04-10T12:41:39.000Z</time>
      </trkpt>
      <trkpt lat="37.92908934876323" lon="23.777008512988687">
        <ele>585.6</ele>
        <time>2021-04-10T12:41:42.000Z</time>
      </trkpt>
      <trkpt lat="37.929093623533845" lon="23.777010021731257">
        <ele>585.6</ele>
        <time>2021-04-10T12:41:43.000Z</time>
      </trkpt>
      <trkpt lat="37.929096557199955" lon="23.776998119428754">
        <ele>585.6</ele>
        <time>2021-04-10T12:41:48.000Z</time>
      </trkpt>
      <trkpt lat="37.929098568856716" lon="23.776995101943612">
        <ele>585.8</ele>
        <time>2021-04-10T12:41:49.000Z</time>
      </trkpt>
      <trkpt lat="37.9290752671659" lon="23.77698479220271">
        <ele>585.2</ele>
        <time>2021-04-10T12:41:57.000Z</time>
      </trkpt>
      <trkpt lat="37.92907518334687" lon="23.777004489675164">
        <ele>585.2</ele>
        <time>2021-04-10T12:41:59.000Z</time>
      </trkpt>
      <trkpt lat="37.92907392606139" lon="23.77701161429286">
        <ele>585.2</ele>
        <time>2021-04-10T12:42:00.000Z</time>
      </trkpt>
      <trkpt lat="37.92907518334687" lon="23.777007926255465">
        <ele>585.8</ele>
        <time>2021-04-10T12:42:05.000Z</time>
      </trkpt>
      <trkpt lat="37.92906604707241" lon="23.776999292895198">
        <ele>585.8</ele>
        <time>2021-04-10T12:42:07.000Z</time>
      </trkpt>
      <trkpt lat="37.92906344868243" lon="23.777000550180674">
        <ele>585</ele>
        <time>2021-04-10T12:42:11.000Z</time>
      </trkpt>
      <trkpt lat="37.92906520888209" lon="23.776993257924914">
        <ele>584.6</ele>
        <time>2021-04-10T12:42:13.000Z</time>
      </trkpt>
      <trkpt lat="37.929070154204965" lon="23.77698127180338">
        <ele>584.2</ele>
        <time>2021-04-10T12:42:16.000Z</time>
      </trkpt>
      <trkpt lat="37.929053977131844" lon="23.776969788596034">
        <ele>583.6</ele>
        <time>2021-04-10T12:42:20.000Z</time>
      </trkpt>
      <trkpt lat="37.929046265780926" lon="23.776972638443112">
        <ele>583.6</ele>
        <time>2021-04-10T12:42:22.000Z</time>
      </trkpt>
      <trkpt lat="37.929044757038355" lon="23.77697146497667">
        <ele>582.8</ele>
        <time>2021-04-10T12:42:26.000Z</time>
      </trkpt>
      <trkpt lat="37.929076105356216" lon="23.776952773332596">
        <ele>582.6</ele>
        <time>2021-04-10T12:42:36.000Z</time>
      </trkpt>
      <trkpt lat="37.9290771111846" lon="23.77695394679904">
        <ele>582.4</ele>
        <time>2021-04-10T12:42:37.000Z</time>
      </trkpt>
      <trkpt lat="37.929038889706135" lon="23.776966435834765">
        <ele>582.2</ele>
        <time>2021-04-10T12:42:40.000Z</time>
      </trkpt>
      <trkpt lat="37.92904643341899" lon="23.776967525482178">
        <ele>582</ele>
        <time>2021-04-10T12:42:42.000Z</time>
      </trkpt>
      <trkpt lat="37.92904006317258" lon="23.776976829394698">
        <ele>582.4</ele>
        <time>2021-04-10T12:42:49.000Z</time>
      </trkpt>
      <trkpt lat="37.929037883877754" lon="23.776978002861142">
        <ele>582.4</ele>
        <time>2021-04-10T12:42:50.000Z</time>
      </trkpt>
      <trkpt lat="37.92904266156256" lon="23.77697347663343">
        <ele>582.2</ele>
        <time>2021-04-10T12:43:00.000Z</time>
      </trkpt>
      <trkpt lat="37.92904241010547" lon="23.776974733918905">
        <ele>582.8</ele>
        <time>2021-04-10T12:43:04.000Z</time>
      </trkpt>
      <trkpt lat="37.92904693633318" lon="23.77696869894862">
        <ele>582.8</ele>
        <time>2021-04-10T12:43:09.000Z</time>
      </trkpt>
      <trkpt lat="37.9290459305048" lon="23.776967441663146">
        <ele>582.8</ele>
        <time>2021-04-10T12:43:10.000Z</time>
      </trkpt>
      <trkpt lat="37.92904014699161" lon="23.7769628316164">
        <ele>582.8</ele>
        <time>2021-04-10T12:43:13.000Z</time>
      </trkpt>
      <trkpt lat="37.92902841232717" lon="23.776951599866152">
        <ele>582.8</ele>
        <time>2021-04-10T12:43:23.000Z</time>
      </trkpt>
      <trkpt lat="37.92901877313852" lon="23.77693433314562">
        <ele>582.4</ele>
        <time>2021-04-10T12:43:27.000Z</time>
      </trkpt>
      <trkpt lat="37.92903469875455" lon="23.776927962899208">
        <ele>582.4</ele>
        <time>2021-04-10T12:43:36.000Z</time>
      </trkpt>
      <trkpt lat="37.92903268709779" lon="23.776935758069158">
        <ele>582.4</ele>
        <time>2021-04-10T12:43:37.000Z</time>
      </trkpt>
      <trkpt lat="37.929027155041695" lon="23.77694422379136">
        <ele>582.4</ele>
        <time>2021-04-10T12:43:38.000Z</time>
      </trkpt>
      <trkpt lat="37.92901625856757" lon="23.776957551017404">
        <ele>582.2</ele>
        <time>2021-04-10T12:43:39.000Z</time>
      </trkpt>
      <trkpt lat="37.92900091968477" lon="23.776958053931594">
        <ele>580</ele>
        <time>2021-04-10T12:43:41.000Z</time>
      </trkpt>
      <trkpt lat="37.92900091968477" lon="23.77695009112358">
        <ele>580.4</ele>
        <time>2021-04-10T12:43:42.000Z</time>
      </trkpt>
      <trkpt lat="37.92899379506707" lon="23.776918156072497">
        <ele>580.8</ele>
        <time>2021-04-10T12:43:47.000Z</time>
      </trkpt>
      <trkpt lat="37.928970493376255" lon="23.7769060023129">
        <ele>580.8</ele>
        <time>2021-04-10T12:43:53.000Z</time>
      </trkpt>
      <trkpt lat="37.92896395549178" lon="23.77689485438168">
        <ele>580.8</ele>
        <time>2021-04-10T12:43:55.000Z</time>
      </trkpt>
      <trkpt lat="37.92896864935756" lon="23.776863254606724">
        <ele>580.8</ele>
        <time>2021-04-10T12:43:59.000Z</time>
      </trkpt>
      <trkpt lat="37.928968481719494" lon="23.776865769177675">
        <ele>580.8</ele>
        <time>2021-04-10T12:44:00.000Z</time>
      </trkpt>
      <trkpt lat="37.92897216975689" lon="23.776878425851464">
        <ele>580.8</ele>
        <time>2021-04-10T12:44:03.000Z</time>
      </trkpt>
      <trkpt lat="37.928958339616656" lon="23.776878342032433">
        <ele>580.8</ele>
        <time>2021-04-10T12:44:09.000Z</time>
      </trkpt>
      <trkpt lat="37.92895574122667" lon="23.77686509862542">
        <ele>580.8</ele>
        <time>2021-04-10T12:44:14.000Z</time>
      </trkpt>
      <trkpt lat="37.92897376231849" lon="23.776857554912567">
        <ele>580.8</ele>
        <time>2021-04-10T12:44:20.000Z</time>
      </trkpt>
      <trkpt lat="37.92897820472717" lon="23.77684162929654">
        <ele>580.8</ele>
        <time>2021-04-10T12:44:24.000Z</time>
      </trkpt>
      <trkpt lat="37.928965128958225" lon="23.776874151080847">
        <ele>580.8</ele>
        <time>2021-04-10T12:44:30.000Z</time>
      </trkpt>
      <trkpt lat="37.92896873317659" lon="23.776838779449463">
        <ele>580.8</ele>
        <time>2021-04-10T12:44:37.000Z</time>
      </trkpt>
      <trkpt lat="37.9289700742811" lon="23.77683576196432">
        <ele>580.8</ele>
        <time>2021-04-10T12:44:39.000Z</time>
      </trkpt>
      <trkpt lat="37.928952388465405" lon="23.776828218251467">
        <ele>577.8</ele>
        <time>2021-04-10T12:44:42.000Z</time>
      </trkpt>
      <trkpt lat="37.928944090381265" lon="23.77682503312826">
        <ele>577.2</ele>
        <time>2021-04-10T12:44:43.000Z</time>
      </trkpt>
      <trkpt lat="37.928937720134854" lon="23.776814891025424">
        <ele>576.6</ele>
        <time>2021-04-10T12:44:44.000Z</time>
      </trkpt>
      <trkpt lat="37.928931852802634" lon="23.77681380137801">
        <ele>576.8</ele>
        <time>2021-04-10T12:44:47.000Z</time>
      </trkpt>
      <trkpt lat="37.928929924964905" lon="23.776817321777344">
        <ele>576.8</ele>
        <time>2021-04-10T12:44:48.000Z</time>
      </trkpt>
      <trkpt lat="37.928916681557894" lon="23.776829978451133">
        <ele>576.4</ele>
        <time>2021-04-10T12:44:55.000Z</time>
      </trkpt>
      <trkpt lat="37.928906455636024" lon="23.776827128604054">
        <ele>576.6</ele>
        <time>2021-04-10T12:45:02.000Z</time>
      </trkpt>
      <trkpt lat="37.92889807373285" lon="23.776823692023754">
        <ele>576.2</ele>
        <time>2021-04-10T12:45:05.000Z</time>
      </trkpt>
      <trkpt lat="37.928888853639364" lon="23.77680935896933">
        <ele>575.4</ele>
        <time>2021-04-10T12:45:10.000Z</time>
      </trkpt>
      <trkpt lat="37.928864881396294" lon="23.776824781671166">
        <ele>575.2</ele>
        <time>2021-04-10T12:45:14.000Z</time>
      </trkpt>
      <trkpt lat="37.92885784059763" lon="23.77682050690055">
        <ele>575.2</ele>
        <time>2021-04-10T12:45:15.000Z</time>
      </trkpt>
      <trkpt lat="37.92885499075055" lon="23.776812460273504">
        <ele>575.2</ele>
        <time>2021-04-10T12:45:17.000Z</time>
      </trkpt>
      <trkpt lat="37.928857589140534" lon="23.776780609041452">
        <ele>574.4</ele>
        <time>2021-04-10T12:45:20.000Z</time>
      </trkpt>
      <trkpt lat="37.928856583312154" lon="23.776770466938615">
        <ele>574</ele>
        <time>2021-04-10T12:45:21.000Z</time>
      </trkpt>
      <trkpt lat="37.928845603019" lon="23.776750350371003">
        <ele>573.4</ele>
        <time>2021-04-10T12:45:26.000Z</time>
      </trkpt>
      <trkpt lat="37.92883152142167" lon="23.77674926072359">
        <ele>572.6</ele>
        <time>2021-04-10T12:45:32.000Z</time>
      </trkpt>
      <trkpt lat="37.92882716283202" lon="23.776742639020085">
        <ele>572.2</ele>
        <time>2021-04-10T12:45:33.000Z</time>
      </trkpt>
      <trkpt lat="37.92879581451416" lon="23.776744147762656">
        <ele>571.6</ele>
        <time>2021-04-10T12:45:37.000Z</time>
      </trkpt>
      <trkpt lat="37.928785337135196" lon="23.77674196846783">
        <ele>571.2</ele>
        <time>2021-04-10T12:45:39.000Z</time>
      </trkpt>
      <trkpt lat="37.92878064326942" lon="23.776710955426097">
        <ele>570</ele>
        <time>2021-04-10T12:45:42.000Z</time>
      </trkpt>
      <trkpt lat="37.92877812869847" lon="23.77669846639037">
        <ele>569.8</ele>
        <time>2021-04-10T12:45:43.000Z</time>
      </trkpt>
      <trkpt lat="37.92877586558461" lon="23.77669100649655">
        <ele>569.6</ele>
        <time>2021-04-10T12:45:44.000Z</time>
      </trkpt>
      <trkpt lat="37.928778966888785" lon="23.77667097374797">
        <ele>569</ele>
        <time>2021-04-10T12:45:46.000Z</time>
      </trkpt>
      <trkpt lat="37.92878642678261" lon="23.77664214000106">
        <ele>568.2</ele>
        <time>2021-04-10T12:45:49.000Z</time>
      </trkpt>
      <trkpt lat="37.928780475631356" lon="23.77664616331458">
        <ele>568</ele>
        <time>2021-04-10T12:45:51.000Z</time>
      </trkpt>
      <trkpt lat="37.92876681312919" lon="23.776628226041794">
        <ele>567.2</ele>
        <time>2021-04-10T12:45:55.000Z</time>
      </trkpt>
      <trkpt lat="37.92876547202468" lon="23.776616156101227">
        <ele>567</ele>
        <time>2021-04-10T12:45:56.000Z</time>
      </trkpt>
      <trkpt lat="37.92876455001533" lon="23.776606768369675">
        <ele>566.6</ele>
        <time>2021-04-10T12:45:57.000Z</time>
      </trkpt>
      <trkpt lat="37.928756419569254" lon="23.776596626266837">
        <ele>566.4</ele>
        <time>2021-04-10T12:46:00.000Z</time>
      </trkpt>
      <trkpt lat="37.928758934140205" lon="23.776609618216753">
        <ele>566</ele>
        <time>2021-04-10T12:46:05.000Z</time>
      </trkpt>
      <trkpt lat="37.928751138970256" lon="23.776608193293214">
        <ele>566</ele>
        <time>2021-04-10T12:46:06.000Z</time>
      </trkpt>
      <trkpt lat="37.9287385661155" lon="23.77656837925315">
        <ele>565</ele>
        <time>2021-04-10T12:46:11.000Z</time>
      </trkpt>
      <trkpt lat="37.92873043566942" lon="23.776556393131614">
        <ele>564.8</ele>
        <time>2021-04-10T12:46:13.000Z</time>
      </trkpt>
      <trkpt lat="37.92872875928879" lon="23.77652839757502">
        <ele>563.4</ele>
        <time>2021-04-10T12:46:17.000Z</time>
      </trkpt>
      <trkpt lat="37.92872674763203" lon="23.77652353607118">
        <ele>563.2</ele>
        <time>2021-04-10T12:46:18.000Z</time>
      </trkpt>
      <trkpt lat="37.92872155085206" lon="23.776500150561333">
        <ele>562.8</ele>
        <time>2021-04-10T12:46:21.000Z</time>
      </trkpt>
      <trkpt lat="37.92872188612819" lon="23.776511466130614">
        <ele>562.6</ele>
        <time>2021-04-10T12:46:24.000Z</time>
      </trkpt>
      <trkpt lat="37.92872834019363" lon="23.77651171758771">
        <ele>562.6</ele>
        <time>2021-04-10T12:46:25.000Z</time>
      </trkpt>
      <trkpt lat="37.92873370461166" lon="23.776507107540965">
        <ele>562.4</ele>
        <time>2021-04-10T12:46:26.000Z</time>
      </trkpt>
      <trkpt lat="37.92874644510448" lon="23.776461509987712">
        <ele>562.2</ele>
        <time>2021-04-10T12:46:29.000Z</time>
      </trkpt>
      <trkpt lat="37.92874250560999" lon="23.776450278237462">
        <ele>562.2</ele>
        <time>2021-04-10T12:46:30.000Z</time>
      </trkpt>
      <trkpt lat="37.928736386820674" lon="23.776435861364007">
        <ele>561.8</ele>
        <time>2021-04-10T12:46:33.000Z</time>
      </trkpt>
      <trkpt lat="37.928739907220006" lon="23.776432760059834">
        <ele>561.6</ele>
        <time>2021-04-10T12:46:35.000Z</time>
      </trkpt>
      <trkpt lat="37.92874292470515" lon="23.77642815001309">
        <ele>561.4</ele>
        <time>2021-04-10T12:46:37.000Z</time>
      </trkpt>
      <trkpt lat="37.928727585822344" lon="23.776431754231453">
        <ele>560.4</ele>
        <time>2021-04-10T12:46:43.000Z</time>
      </trkpt>
      <trkpt lat="37.92872289195657" lon="23.776427479460835">
        <ele>560.2</ele>
        <time>2021-04-10T12:46:44.000Z</time>
      </trkpt>
      <trkpt lat="37.928701266646385" lon="23.77640660852194">
        <ele>560.2</ele>
        <time>2021-04-10T12:46:49.000Z</time>
      </trkpt>
      <trkpt lat="37.928699338808656" lon="23.776405435055494">
        <ele>560.2</ele>
        <time>2021-04-10T12:46:50.000Z</time>
      </trkpt>
      <trkpt lat="37.92867855168879" lon="23.776413314044476">
        <ele>559.2</ele>
        <time>2021-04-10T12:46:55.000Z</time>
      </trkpt>
      <trkpt lat="37.92867469601333" lon="23.776413146406412">
        <ele>559</ele>
        <time>2021-04-10T12:46:56.000Z</time>
      </trkpt>
      <trkpt lat="37.928643599152565" lon="23.776389006525278">
        <ele>558.8</ele>
        <time>2021-04-10T12:47:01.000Z</time>
      </trkpt>
      <trkpt lat="37.92865181341767" lon="23.77635640092194">
        <ele>558.2</ele>
        <time>2021-04-10T12:47:06.000Z</time>
      </trkpt>
      <trkpt lat="37.92865516617894" lon="23.77634709700942">
        <ele>557.8</ele>
        <time>2021-04-10T12:47:07.000Z</time>
      </trkpt>
      <trkpt lat="37.92865524999797" lon="23.776341062039137">
        <ele>557.2</ele>
        <time>2021-04-10T12:47:11.000Z</time>
      </trkpt>
      <trkpt lat="37.9286193754524" lon="23.776335110887885">
        <ele>557</ele>
        <time>2021-04-10T12:47:16.000Z</time>
      </trkpt>
      <trkpt lat="37.92861828580499" lon="23.776328237727284">
        <ele>557</ele>
        <time>2021-04-10T12:47:17.000Z</time>
      </trkpt>
      <trkpt lat="37.9286159388721" lon="23.77633100375533">
        <ele>556.8</ele>
        <time>2021-04-10T12:47:18.000Z</time>
      </trkpt>
      <trkpt lat="37.92860856279731" lon="23.776322789490223">
        <ele>556</ele>
        <time>2021-04-10T12:47:21.000Z</time>
      </trkpt>
      <trkpt lat="37.928608395159245" lon="23.776320945471525">
        <ele>555.6</ele>
        <time>2021-04-10T12:47:22.000Z</time>
      </trkpt>
      <trkpt lat="37.92860621586442" lon="23.776322873309255">
        <ele>554.8</ele>
        <time>2021-04-10T12:47:24.000Z</time>
      </trkpt>
      <trkpt lat="37.92860663495958" lon="23.776323962956667">
        <ele>554.6</ele>
        <time>2021-04-10T12:47:26.000Z</time>
      </trkpt>
      <trkpt lat="37.92860923334956" lon="23.776328824460506">
        <ele>554.4</ele>
        <time>2021-04-10T12:47:28.000Z</time>
      </trkpt>
      <trkpt lat="37.92860269546509" lon="23.77631977200508">
        <ele>554.6</ele>
        <time>2021-04-10T12:47:35.000Z</time>
      </trkpt>
      <trkpt lat="37.92857654392719" lon="23.776288675144315">
        <ele>554.2</ele>
        <time>2021-04-10T12:47:40.000Z</time>
      </trkpt>
      <trkpt lat="37.928562043234706" lon="23.776239221915603">
        <ele>553.8</ele>
        <time>2021-04-10T12:47:44.000Z</time>
      </trkpt>
      <trkpt lat="37.92856967076659" lon="23.77620887942612">
        <ele>553.2</ele>
        <time>2021-04-10T12:47:46.000Z</time>
      </trkpt>
      <trkpt lat="37.92856891639531" lon="23.776203682646155">
        <ele>551.8</ele>
        <time>2021-04-10T12:47:48.000Z</time>
      </trkpt>
      <trkpt lat="37.92854569852352" lon="23.77621558494866">
        <ele>550.8</ele>
        <time>2021-04-10T12:47:52.000Z</time>
      </trkpt>
      <trkpt lat="37.92854259721935" lon="23.776210555806756">
        <ele>550.8</ele>
        <time>2021-04-10T12:47:53.000Z</time>
      </trkpt>
      <trkpt lat="37.92852918617427" lon="23.77620787359774">
        <ele>549.4</ele>
        <time>2021-04-10T12:47:56.000Z</time>
      </trkpt>
      <trkpt lat="37.92852566577494" lon="23.77619312144816">
        <ele>549</ele>
        <time>2021-04-10T12:47:58.000Z</time>
      </trkpt>
      <trkpt lat="37.92850789614022" lon="23.776169316843152">
        <ele>549</ele>
        <time>2021-04-10T12:48:03.000Z</time>
      </trkpt>
      <trkpt lat="37.92849867604673" lon="23.776148529723287">
        <ele>548</ele>
        <time>2021-04-10T12:48:07.000Z</time>
      </trkpt>
      <trkpt lat="37.92849632911384" lon="23.776121623814106">
        <ele>547.4</ele>
        <time>2021-04-10T12:48:10.000Z</time>
      </trkpt>
      <trkpt lat="37.928493563085794" lon="23.7761237192899">
        <ele>546.8</ele>
        <time>2021-04-10T12:48:12.000Z</time>
      </trkpt>
      <trkpt lat="37.92849381454289" lon="23.776120198890567">
        <ele>546.6</ele>
        <time>2021-04-10T12:48:15.000Z</time>
      </trkpt>
      <trkpt lat="37.92848610319197" lon="23.77611592411995">
        <ele>546.4</ele>
        <time>2021-04-10T12:48:21.000Z</time>
      </trkpt>
      <trkpt lat="37.928458945825696" lon="23.776099998503923">
        <ele>546.4</ele>
        <time>2021-04-10T12:48:25.000Z</time>
      </trkpt>
      <trkpt lat="37.928435476496816" lon="23.776090946048498">
        <ele>546.2</ele>
        <time>2021-04-10T12:48:27.000Z</time>
      </trkpt>
      <trkpt lat="37.92842634022236" lon="23.77608608454466">
        <ele>545.8</ele>
        <time>2021-04-10T12:48:28.000Z</time>
      </trkpt>
      <trkpt lat="37.928420724347234" lon="23.77607828937471">
        <ele>545.6</ele>
        <time>2021-04-10T12:48:29.000Z</time>
      </trkpt>
      <trkpt lat="37.928428100422025" lon="23.776045013219118">
        <ele>544.8</ele>
        <time>2021-04-10T12:48:33.000Z</time>
      </trkpt>
      <trkpt lat="37.92843145318329" lon="23.77604174427688">
        <ele>544.4</ele>
        <time>2021-04-10T12:48:34.000Z</time>
      </trkpt>
      <trkpt lat="37.92842499911785" lon="23.776031183078885">
        <ele>543.4</ele>
        <time>2021-04-10T12:48:37.000Z</time>
      </trkpt>
      <trkpt lat="37.92841988615692" lon="23.77603093162179">
        <ele>543.4</ele>
        <time>2021-04-10T12:48:39.000Z</time>
      </trkpt>
      <trkpt lat="37.9283949919045" lon="23.776019113138318">
        <ele>542.6</ele>
        <time>2021-04-10T12:48:45.000Z</time>
      </trkpt>
      <trkpt lat="37.92839138768613" lon="23.776014083996415">
        <ele>542.2</ele>
        <time>2021-04-10T12:48:46.000Z</time>
      </trkpt>
      <trkpt lat="37.92838191613555" lon="23.775985669344664">
        <ele>541.6</ele>
        <time>2021-04-10T12:48:49.000Z</time>
      </trkpt>
      <trkpt lat="37.92836615815759" lon="23.775971084833145">
        <ele>541.6</ele>
        <time>2021-04-10T12:48:51.000Z</time>
      </trkpt>
      <trkpt lat="37.928372360765934" lon="23.77597762271762">
        <ele>541.6</ele>
        <time>2021-04-10T12:48:54.000Z</time>
      </trkpt>
      <trkpt lat="37.92837806046009" lon="23.775970079004765">
        <ele>541.4</ele>
        <time>2021-04-10T12:49:00.000Z</time>
      </trkpt>
      <trkpt lat="37.92838585563004" lon="23.775977790355682">
        <ele>541.2</ele>
        <time>2021-04-10T12:49:03.000Z</time>
      </trkpt>
      <trkpt lat="37.92838686145842" lon="23.775977287441492">
        <ele>541.2</ele>
        <time>2021-04-10T12:49:05.000Z</time>
      </trkpt>
      <trkpt lat="37.92838384397328" lon="23.775979969650507">
        <ele>541.2</ele>
        <time>2021-04-10T12:49:06.000Z</time>
      </trkpt>
      <trkpt lat="37.928383089601994" lon="23.775983909144998">
        <ele>540.8</ele>
        <time>2021-04-10T12:49:10.000Z</time>
      </trkpt>
      <trkpt lat="37.928384179249406" lon="23.7759458553046">
        <ele>540.2</ele>
        <time>2021-04-10T12:49:16.000Z</time>
      </trkpt>
      <trkpt lat="37.9283862747252" lon="23.775940407067537">
        <ele>540</ele>
        <time>2021-04-10T12:49:17.000Z</time>
      </trkpt>
      <trkpt lat="37.928401781246066" lon="23.7759440112859">
        <ele>539.2</ele>
        <time>2021-04-10T12:49:22.000Z</time>
      </trkpt>
      <trkpt lat="37.92837076820433" lon="23.77594208344817">
        <ele>539</ele>
        <time>2021-04-10T12:49:26.000Z</time>
      </trkpt>
      <trkpt lat="37.92837202548981" lon="23.775933869183064">
        <ele>538.6</ele>
        <time>2021-04-10T12:49:28.000Z</time>
      </trkpt>
      <trkpt lat="37.92836959473789" lon="23.775930935516953">
        <ele>538.2</ele>
        <time>2021-04-10T12:49:30.000Z</time>
      </trkpt>
      <trkpt lat="37.92836448177695" lon="23.77591224387288">
        <ele>537.8</ele>
        <time>2021-04-10T12:49:34.000Z</time>
      </trkpt>
      <trkpt lat="37.92835098691285" lon="23.7758819013834">
        <ele>536.6</ele>
        <time>2021-04-10T12:49:39.000Z</time>
      </trkpt>
      <trkpt lat="37.92833983898163" lon="23.77587410621345">
        <ele>535.6</ele>
        <time>2021-04-10T12:49:44.000Z</time>
      </trkpt>
      <trkpt lat="37.92831712402403" lon="23.775860192254186">
        <ele>534.8</ele>
        <time>2021-04-10T12:49:48.000Z</time>
      </trkpt>
      <trkpt lat="37.92832273989916" lon="23.775842003524303">
        <ele>534.4</ele>
        <time>2021-04-10T12:49:50.000Z</time>
      </trkpt>
      <trkpt lat="37.92832617647946" lon="23.775838650763035">
        <ele>534.4</ele>
        <time>2021-04-10T12:49:51.000Z</time>
      </trkpt>
      <trkpt lat="37.928327517583966" lon="23.775840662419796">
        <ele>534.2</ele>
        <time>2021-04-10T12:49:54.000Z</time>
      </trkpt>
      <trkpt lat="37.92832584120333" lon="23.775840075686574">
        <ele>534.4</ele>
        <time>2021-04-10T12:49:55.000Z</time>
      </trkpt>
      <trkpt lat="37.92832382954657" lon="23.775839488953352">
        <ele>534.2</ele>
        <time>2021-04-10T12:49:57.000Z</time>
      </trkpt>
      <trkpt lat="37.92831452563405" lon="23.775834124535322">
        <ele>534</ele>
        <time>2021-04-10T12:50:00.000Z</time>
      </trkpt>
      <trkpt lat="37.9283257573843" lon="23.775810236111283">
        <ele>533.8</ele>
        <time>2021-04-10T12:50:02.000Z</time>
      </trkpt>
      <trkpt lat="37.92833304964006" lon="23.77579984255135">
        <ele>533.6</ele>
        <time>2021-04-10T12:50:03.000Z</time>
      </trkpt>
      <trkpt lat="37.928339252248406" lon="23.77578961662948">
        <ele>533.4</ele>
        <time>2021-04-10T12:50:05.000Z</time>
      </trkpt>
      <trkpt lat="37.928343107923865" lon="23.7757817376405">
        <ele>532.8</ele>
        <time>2021-04-10T12:50:08.000Z</time>
      </trkpt>
      <trkpt lat="37.928339252248406" lon="23.77577545121312">
        <ele>532.4</ele>
        <time>2021-04-10T12:50:10.000Z</time>
      </trkpt>
      <trkpt lat="37.92828183621168" lon="23.77575198188424">
        <ele>531.6</ele>
        <time>2021-04-10T12:50:16.000Z</time>
      </trkpt>
      <trkpt lat="37.9282686766237" lon="23.775726333260536">
        <ele>531.2</ele>
        <time>2021-04-10T12:50:20.000Z</time>
      </trkpt>
      <trkpt lat="37.9282654915005" lon="23.775696577504277">
        <ele>530.8</ele>
        <time>2021-04-10T12:50:23.000Z</time>
      </trkpt>
      <trkpt lat="37.92826700024307" lon="23.77568794414401">
        <ele>530.2</ele>
        <time>2021-04-10T12:50:24.000Z</time>
      </trkpt>
      <trkpt lat="37.92826624587178" lon="23.77568056806922">
        <ele>529.2</ele>
        <time>2021-04-10T12:50:26.000Z</time>
      </trkpt>
      <trkpt lat="37.92825484648347" lon="23.775665732100606">
        <ele>528.4</ele>
        <time>2021-04-10T12:50:31.000Z</time>
      </trkpt>
      <trkpt lat="37.928250236436725" lon="23.775667492300272">
        <ele>528.2</ele>
        <time>2021-04-10T12:50:32.000Z</time>
      </trkpt>
      <trkpt lat="37.928235149011016" lon="23.775665061548352">
        <ele>527.6</ele>
        <time>2021-04-10T12:50:38.000Z</time>
      </trkpt>
      <trkpt lat="37.92823338881135" lon="23.77564100548625">
        <ele>527</ele>
        <time>2021-04-10T12:50:41.000Z</time>
      </trkpt>
      <trkpt lat="37.9282359033823" lon="23.775616781786084">
        <ele>526.6</ele>
        <time>2021-04-10T12:50:43.000Z</time>
      </trkpt>
      <trkpt lat="37.92823372408748" lon="23.775615943595767">
        <ele>526</ele>
        <time>2021-04-10T12:50:45.000Z</time>
      </trkpt>
      <trkpt lat="37.92820765636861" lon="23.775618206709623">
        <ele>525.6</ele>
        <time>2021-04-10T12:50:48.000Z</time>
      </trkpt>
      <trkpt lat="37.92817831970751" lon="23.775590965524316">
        <ele>525</ele>
        <time>2021-04-10T12:50:54.000Z</time>
      </trkpt>
      <trkpt lat="37.92817370966077" lon="23.77558384090662">
        <ele>524.6</ele>
        <time>2021-04-10T12:50:55.000Z</time>
      </trkpt>
      <trkpt lat="37.928160801529884" lon="23.775576716288924">
        <ele>523.4</ele>
        <time>2021-04-10T12:50:58.000Z</time>
      </trkpt>
      <trkpt lat="37.92814454063773" lon="23.775562634691596">
        <ele>522.4</ele>
        <time>2021-04-10T12:51:00.000Z</time>
      </trkpt>
      <trkpt lat="37.928139762952924" lon="23.77555115148425">
        <ele>522.2</ele>
        <time>2021-04-10T12:51:01.000Z</time>
      </trkpt>
      <trkpt lat="37.92813926003873" lon="23.775532627478242">
        <ele>521.6</ele>
        <time>2021-04-10T12:51:03.000Z</time>
      </trkpt>
      <trkpt lat="37.92813892476261" lon="23.775529274716973">
        <ele>521.2</ele>
        <time>2021-04-10T12:51:04.000Z</time>
      </trkpt>
      <trkpt lat="37.92813624255359" lon="23.77552416175604">
        <ele>521</ele>
        <time>2021-04-10T12:51:05.000Z</time>
      </trkpt>
      <trkpt lat="37.92813112959266" lon="23.775516115128994">
        <ele>520.8</ele>
        <time>2021-04-10T12:51:06.000Z</time>
      </trkpt>
      <trkpt lat="37.928128112107515" lon="23.77549189142883">
        <ele>520.6</ele>
        <time>2021-04-10T12:51:09.000Z</time>
      </trkpt>
      <trkpt lat="37.92812878265977" lon="23.775487868115306">
        <ele>520.8</ele>
        <time>2021-04-10T12:51:11.000Z</time>
      </trkpt>
      <trkpt lat="37.92813582345843" lon="23.775469679385424">
        <ele>520.6</ele>
        <time>2021-04-10T12:51:16.000Z</time>
      </trkpt>
      <trkpt lat="37.928132051602006" lon="23.7754484731704">
        <ele>519.8</ele>
        <time>2021-04-10T12:51:20.000Z</time>
      </trkpt>
      <trkpt lat="37.928140265867114" lon="23.775445790961385">
        <ele>519.8</ele>
        <time>2021-04-10T12:51:22.000Z</time>
      </trkpt>
      <trkpt lat="37.928118389099836" lon="23.775467416271567">
        <ele>520.2</ele>
        <time>2021-04-10T12:51:30.000Z</time>
      </trkpt>
      <trkpt lat="37.92811277322471" lon="23.77546364441514">
        <ele>520.2</ele>
        <time>2021-04-10T12:51:32.000Z</time>
      </trkpt>
      <trkpt lat="37.92811595834792" lon="23.775454172864556">
        <ele>519.8</ele>
        <time>2021-04-10T12:51:35.000Z</time>
      </trkpt>
      <trkpt lat="37.92811377905309" lon="23.775469763204455">
        <ele>519.4</ele>
        <time>2021-04-10T12:51:41.000Z</time>
      </trkpt>
      <trkpt lat="37.92812777683139" lon="23.77545383758843">
        <ele>520</ele>
        <time>2021-04-10T12:51:49.000Z</time>
      </trkpt>
      <trkpt lat="37.92813213542104" lon="23.775442354381084">
        <ele>520</ele>
        <time>2021-04-10T12:51:51.000Z</time>
      </trkpt>
      <trkpt lat="37.92812098748982" lon="23.775420058518648">
        <ele>519.8</ele>
        <time>2021-04-10T12:51:56.000Z</time>
      </trkpt>
      <trkpt lat="37.928134901449084" lon="23.77542936243117">
        <ele>519.6</ele>
        <time>2021-04-10T12:52:03.000Z</time>
      </trkpt>
      <trkpt lat="37.92814387008548" lon="23.775430619716644">
        <ele>519.6</ele>
        <time>2021-04-10T12:52:06.000Z</time>
      </trkpt>
      <trkpt lat="37.92813615873456" lon="23.775421818718314">
        <ele>519.8</ele>
        <time>2021-04-10T12:52:12.000Z</time>
      </trkpt>
      <trkpt lat="37.928117383271456" lon="23.77538929693401">
        <ele>519.2</ele>
        <time>2021-04-10T12:52:18.000Z</time>
      </trkpt>
      <trkpt lat="37.92811956256628" lon="23.77538988366723">
        <ele>518.8</ele>
        <time>2021-04-10T12:52:20.000Z</time>
      </trkpt>
      <trkpt lat="37.92813280597329" lon="23.775384686887264">
        <ele>518</ele>
        <time>2021-04-10T12:52:23.000Z</time>
      </trkpt>
      <trkpt lat="37.92809902690351" lon="23.77536155283451">
        <ele>518.4</ele>
        <time>2021-04-10T12:52:30.000Z</time>
      </trkpt>
      <trkpt lat="37.92809860780835" lon="23.775332886725664">
        <ele>517.8</ele>
        <time>2021-04-10T12:52:35.000Z</time>
      </trkpt>
      <trkpt lat="37.928102212026715" lon="23.775326600298285">
        <ele>517.4</ele>
        <time>2021-04-10T12:52:36.000Z</time>
      </trkpt>
      <trkpt lat="37.92810053564608" lon="23.775329366326332">
        <ele>517</ele>
        <time>2021-04-10T12:52:40.000Z</time>
      </trkpt>
      <trkpt lat="37.92809156700969" lon="23.775329450145364">
        <ele>516.8</ele>
        <time>2021-04-10T12:52:47.000Z</time>
      </trkpt>
      <trkpt lat="37.92809525504708" lon="23.775324672460556">
        <ele>516.4</ele>
        <time>2021-04-10T12:52:49.000Z</time>
      </trkpt>
      <trkpt lat="37.928103134036064" lon="23.775320816785097">
        <ele>516.2</ele>
        <time>2021-04-10T12:52:54.000Z</time>
      </trkpt>
      <trkpt lat="37.92810162529349" lon="23.775315871462226">
        <ele>516.4</ele>
        <time>2021-04-10T12:52:55.000Z</time>
      </trkpt>
      <trkpt lat="37.92809894308448" lon="23.775311009958386">
        <ele>516.4</ele>
        <time>2021-04-10T12:52:56.000Z</time>
      </trkpt>
      <trkpt lat="37.92808972299099" lon="23.775301622226834">
        <ele>516.2</ele>
        <time>2021-04-10T12:52:58.000Z</time>
      </trkpt>
      <trkpt lat="37.92808871716261" lon="23.775291899219155">
        <ele>516.2</ele>
        <time>2021-04-10T12:52:59.000Z</time>
      </trkpt>
      <trkpt lat="37.92808159254491" lon="23.775272704660892">
        <ele>516.2</ele>
        <time>2021-04-10T12:53:01.000Z</time>
      </trkpt>
      <trkpt lat="37.92805946432054" lon="23.775245044380426">
        <ele>515.8</ele>
        <time>2021-04-10T12:53:06.000Z</time>
      </trkpt>
      <trkpt lat="37.928052758798" lon="23.775237584486604">
        <ele>515.4</ele>
        <time>2021-04-10T12:53:10.000Z</time>
      </trkpt>
      <trkpt lat="37.928052339702845" lon="23.775227861478925">
        <ele>515</ele>
        <time>2021-04-10T12:53:11.000Z</time>
      </trkpt>
      <trkpt lat="37.92803146876395" lon="23.775194669142365">
        <ele>514.2</ele>
        <time>2021-04-10T12:53:14.000Z</time>
      </trkpt>
      <trkpt lat="37.92800037190318" lon="23.77516256645322">
        <ele>514</ele>
        <time>2021-04-10T12:53:16.000Z</time>
      </trkpt>
      <trkpt lat="37.92791965417564" lon="23.775099031627178">
        <ele>513.2</ele>
        <time>2021-04-10T12:53:19.000Z</time>
      </trkpt>
      <trkpt lat="37.927920911461115" lon="23.77509132027626">
        <ele>512.8</ele>
        <time>2021-04-10T12:53:20.000Z</time>
      </trkpt>
      <trkpt lat="37.927956618368626" lon="23.775107245892286">
        <ele>512.2</ele>
        <time>2021-04-10T12:53:23.000Z</time>
      </trkpt>
      <trkpt lat="37.927976651117206" lon="23.7751099281013">
        <ele>512.2</ele>
        <time>2021-04-10T12:53:25.000Z</time>
      </trkpt>
      <trkpt lat="37.92796868830919" lon="23.775110598653555">
        <ele>511.4</ele>
        <time>2021-04-10T12:53:30.000Z</time>
      </trkpt>
      <trkpt lat="37.927949326112866" lon="23.775101881474257">
        <ele>511.2</ele>
        <time>2021-04-10T12:53:33.000Z</time>
      </trkpt>
      <trkpt lat="37.92794605717063" lon="23.77508645877242">
        <ele>511</ele>
        <time>2021-04-10T12:53:34.000Z</time>
      </trkpt>
      <trkpt lat="37.927946811541915" lon="23.775071874260902">
        <ele>511</ele>
        <time>2021-04-10T12:53:35.000Z</time>
      </trkpt>
      <trkpt lat="37.927945805713534" lon="23.775058295577765">
        <ele>510.8</ele>
        <time>2021-04-10T12:53:36.000Z</time>
      </trkpt>
      <trkpt lat="37.927921833470464" lon="23.77504387870431">
        <ele>509.8</ele>
        <time>2021-04-10T12:53:39.000Z</time>
      </trkpt>
      <trkpt lat="37.92791563086212" lon="23.775037424638867">
        <ele>509.4</ele>
        <time>2021-04-10T12:53:40.000Z</time>
      </trkpt>
      <trkpt lat="37.927910601720214" lon="23.775031305849552">
        <ele>509.2</ele>
        <time>2021-04-10T12:53:41.000Z</time>
      </trkpt>
      <trkpt lat="37.92791420593858" lon="23.775029880926013">
        <ele>509</ele>
        <time>2021-04-10T12:53:43.000Z</time>
      </trkpt>
      <trkpt lat="37.92792468331754" lon="23.775036418810487">
        <ele>508.6</ele>
        <time>2021-04-10T12:53:45.000Z</time>
      </trkpt>
      <trkpt lat="37.92792376130819" lon="23.775034910067916">
        <ele>508.6</ele>
        <time>2021-04-10T12:53:46.000Z</time>
      </trkpt>
      <trkpt lat="37.92791588231921" lon="23.775024935603142">
        <ele>508.6</ele>
        <time>2021-04-10T12:53:48.000Z</time>
      </trkpt>
      <trkpt lat="37.92791537940502" lon="23.77501403912902">
        <ele>508.6</ele>
        <time>2021-04-10T12:53:49.000Z</time>
      </trkpt>
      <trkpt lat="37.92791781015694" lon="23.77500196918845">
        <ele>508.4</ele>
        <time>2021-04-10T12:53:50.000Z</time>
      </trkpt>
      <trkpt lat="37.92793323285878" lon="23.77497162669897">
        <ele>507.8</ele>
        <time>2021-04-10T12:53:53.000Z</time>
      </trkpt>
      <trkpt lat="37.92793926782906" lon="23.774962993338704">
        <ele>507.4</ele>
        <time>2021-04-10T12:53:54.000Z</time>
      </trkpt>
      <trkpt lat="37.92794521898031" lon="23.774948408827186">
        <ele>506.8</ele>
        <time>2021-04-10T12:53:58.000Z</time>
      </trkpt>
      <trkpt lat="37.92793549597263" lon="23.774951174855232">
        <ele>506.2</ele>
        <time>2021-04-10T12:54:02.000Z</time>
      </trkpt>
      <trkpt lat="37.927927700802684" lon="23.774925023317337">
        <ele>505.8</ele>
        <time>2021-04-10T12:54:05.000Z</time>
      </trkpt>
      <trkpt lat="37.927921917289495" lon="23.774920161813498">
        <ele>505.8</ele>
        <time>2021-04-10T12:54:06.000Z</time>
      </trkpt>
      <trkpt lat="37.927899453788996" lon="23.77487481571734">
        <ele>505.8</ele>
        <time>2021-04-10T12:54:10.000Z</time>
      </trkpt>
      <trkpt lat="37.92789417319" lon="23.77486115321517">
        <ele>505.8</ele>
        <time>2021-04-10T12:54:11.000Z</time>
      </trkpt>
      <trkpt lat="37.927888724952936" lon="23.77485327422619">
        <ele>505.6</ele>
        <time>2021-04-10T12:54:12.000Z</time>
      </trkpt>
      <trkpt lat="37.92787925340235" lon="23.774828799068928">
        <ele>505</ele>
        <time>2021-04-10T12:54:14.000Z</time>
      </trkpt>
      <trkpt lat="37.92786994948983" lon="23.774814549833536">
        <ele>504.4</ele>
        <time>2021-04-10T12:54:16.000Z</time>
      </trkpt>
      <trkpt lat="37.92786307632923" lon="23.774806754663587">
        <ele>504.2</ele>
        <time>2021-04-10T12:54:17.000Z</time>
      </trkpt>
      <trkpt lat="37.9278389364481" lon="23.774779764935374">
        <ele>504</ele>
        <time>2021-04-10T12:54:20.000Z</time>
      </trkpt>
      <trkpt lat="37.92783357203007" lon="23.77477020956576">
        <ele>503.8</ele>
        <time>2021-04-10T12:54:22.000Z</time>
      </trkpt>
      <trkpt lat="37.92784103192389" lon="23.774788146838546">
        <ele>503.6</ele>
        <time>2021-04-10T12:54:32.000Z</time>
      </trkpt>
      <trkpt lat="37.927846144884825" lon="23.774789990857244">
        <ele>503.6</ele>
        <time>2021-04-10T12:54:35.000Z</time>
      </trkpt>
      <trkpt lat="37.92785033583641" lon="23.774792589247227">
        <ele>503.6</ele>
        <time>2021-04-10T12:54:39.000Z</time>
      </trkpt>
      <trkpt lat="37.92785016819835" lon="23.774795103818178">
        <ele>503.4</ele>
        <time>2021-04-10T12:54:40.000Z</time>
      </trkpt>
      <trkpt lat="37.92782728560269" lon="23.77478638663888">
        <ele>502.8</ele>
        <time>2021-04-10T12:54:46.000Z</time>
      </trkpt>
      <trkpt lat="37.927814377471805" lon="23.774772807955742">
        <ele>502.4</ele>
        <time>2021-04-10T12:54:53.000Z</time>
      </trkpt>
      <trkpt lat="37.92782988399267" lon="23.774786554276943">
        <ele>502.6</ele>
        <time>2021-04-10T12:54:58.000Z</time>
      </trkpt>
      <trkpt lat="37.92783172801137" lon="23.774787224829197">
        <ele>502.6</ele>
        <time>2021-04-10T12:54:59.000Z</time>
      </trkpt>
      <trkpt lat="37.92783600278199" lon="23.7747853808105">
        <ele>502.6</ele>
        <time>2021-04-10T12:55:01.000Z</time>
      </trkpt>
      <trkpt lat="37.927808091044426" lon="23.774758726358414">
        <ele>502.4</ele>
        <time>2021-04-10T12:55:05.000Z</time>
      </trkpt>
      <trkpt lat="37.9278265312314" lon="23.774782363325357">
        <ele>502</ele>
        <time>2021-04-10T12:55:19.000Z</time>
      </trkpt>
      <trkpt lat="37.9278265312314" lon="23.7747785076499">
        <ele>501.8</ele>
        <time>2021-04-10T12:55:21.000Z</time>
      </trkpt>
      <trkpt lat="37.92782896198332" lon="23.77474196255207">
        <ele>501.4</ele>
        <time>2021-04-10T12:55:30.000Z</time>
      </trkpt>
      <trkpt lat="37.92781521566212" lon="23.77471840940416">
        <ele>501</ele>
        <time>2021-04-10T12:55:33.000Z</time>
      </trkpt>
      <trkpt lat="37.92780867777765" lon="23.77470474690199">
        <ele>500.8</ele>
        <time>2021-04-10T12:55:35.000Z</time>
      </trkpt>
      <trkpt lat="37.927802223712206" lon="23.774705417454243">
        <ele>500.8</ele>
        <time>2021-04-10T12:55:36.000Z</time>
      </trkpt>
      <trkpt lat="37.9277385212481" lon="23.77466669306159">
        <ele>500.6</ele>
        <time>2021-04-10T12:55:41.000Z</time>
      </trkpt>
      <trkpt lat="37.92772955261171" lon="23.774615563452244">
        <ele>500</ele>
        <time>2021-04-10T12:55:45.000Z</time>
      </trkpt>
      <trkpt lat="37.927727876231074" lon="23.774612294510007">
        <ele>499.6</ele>
        <time>2021-04-10T12:55:46.000Z</time>
      </trkpt>
      <trkpt lat="37.92771681211889" lon="23.774600392207503">
        <ele>498.6</ele>
        <time>2021-04-10T12:55:50.000Z</time>
      </trkpt>
      <trkpt lat="37.927706837654114" lon="23.774578850716352">
        <ele>498.4</ele>
        <time>2021-04-10T12:55:52.000Z</time>
      </trkpt>
      <trkpt lat="37.92770340107381" lon="23.774558063596487">
        <ele>498.2</ele>
        <time>2021-04-10T12:55:55.000Z</time>
      </trkpt>
      <trkpt lat="37.92768948711455" lon="23.774539791047573">
        <ele>498</ele>
        <time>2021-04-10T12:55:58.000Z</time>
      </trkpt>
      <trkpt lat="37.92768311686814" lon="23.774531241506338">
        <ele>498</ele>
        <time>2021-04-10T12:55:59.000Z</time>
      </trkpt>
      <trkpt lat="37.92766652069986" lon="23.774498384445906">
        <ele>497.6</ele>
        <time>2021-04-10T12:56:01.000Z</time>
      </trkpt>
      <trkpt lat="37.92765344493091" lon="23.77445605583489">
        <ele>497.2</ele>
        <time>2021-04-10T12:56:04.000Z</time>
      </trkpt>
      <trkpt lat="37.92764221318066" lon="23.774430407211185">
        <ele>496.4</ele>
        <time>2021-04-10T12:56:06.000Z</time>
      </trkpt>
      <trkpt lat="37.927632657811046" lon="23.77442386932671">
        <ele>496.2</ele>
        <time>2021-04-10T12:56:07.000Z</time>
      </trkpt>
      <trkpt lat="37.92761731892824" lon="23.774406099691987">
        <ele>496.2</ele>
        <time>2021-04-10T12:56:09.000Z</time>
      </trkpt>
      <trkpt lat="37.927620420232415" lon="23.77438866533339">
        <ele>496</ele>
        <time>2021-04-10T12:56:13.000Z</time>
      </trkpt>
      <trkpt lat="37.927633160725236" lon="23.774392269551754">
        <ele>496</ele>
        <time>2021-04-10T12:56:15.000Z</time>
      </trkpt>
      <trkpt lat="37.92764120735228" lon="23.774386066943407">
        <ele>496</ele>
        <time>2021-04-10T12:56:17.000Z</time>
      </trkpt>
      <trkpt lat="37.92763961479068" lon="23.774383468553424">
        <ele>496.2</ele>
        <time>2021-04-10T12:56:20.000Z</time>
      </trkpt>
      <trkpt lat="37.92763969860971" lon="23.7743812892586">
        <ele>496.2</ele>
        <time>2021-04-10T12:56:22.000Z</time>
      </trkpt>
      <trkpt lat="37.92763391509652" lon="23.774395287036896">
        <ele>495.8</ele>
        <time>2021-04-10T12:56:29.000Z</time>
      </trkpt>
      <trkpt lat="37.927622431889176" lon="23.774401489645243">
        <ele>495.8</ele>
        <time>2021-04-10T12:56:34.000Z</time>
      </trkpt>
      <trkpt lat="37.927642464637756" lon="23.77437156625092">
        <ele>496.6</ele>
        <time>2021-04-10T12:56:40.000Z</time>
      </trkpt>
      <trkpt lat="37.92764296755195" lon="23.774338960647583">
        <ele>496.2</ele>
        <time>2021-04-10T12:56:44.000Z</time>
      </trkpt>
      <trkpt lat="37.92763584293425" lon="23.774316161870956">
        <ele>495.6</ele>
        <time>2021-04-10T12:56:47.000Z</time>
      </trkpt>
      <trkpt lat="37.927628299221396" lon="23.774288585409522">
        <ele>495.4</ele>
        <time>2021-04-10T12:56:49.000Z</time>
      </trkpt>
      <trkpt lat="37.9276227671653" lon="23.774258494377136">
        <ele>495.2</ele>
        <time>2021-04-10T12:56:52.000Z</time>
      </trkpt>
      <trkpt lat="37.927620839327574" lon="23.774247178807855">
        <ele>495</ele>
        <time>2021-04-10T12:56:53.000Z</time>
      </trkpt>
      <trkpt lat="37.92762033641338" lon="23.7742068618536">
        <ele>494</ele>
        <time>2021-04-10T12:57:00.000Z</time>
      </trkpt>
      <trkpt lat="37.92762511409819" lon="23.774198228493333">
        <ele>493.8</ele>
        <time>2021-04-10T12:57:01.000Z</time>
      </trkpt>
      <trkpt lat="37.92762896977365" lon="23.774186158552766">
        <ele>493.6</ele>
        <time>2021-04-10T12:57:02.000Z</time>
      </trkpt>
      <trkpt lat="37.927626790478826" lon="23.774168137460947">
        <ele>493</ele>
        <time>2021-04-10T12:57:04.000Z</time>
      </trkpt>
      <trkpt lat="37.92762368917465" lon="23.774164030328393">
        <ele>492.8</ele>
        <time>2021-04-10T12:57:05.000Z</time>
      </trkpt>
      <trkpt lat="37.92762109078467" lon="23.774163527414203">
        <ele>492.4</ele>
        <time>2021-04-10T12:57:06.000Z</time>
      </trkpt>
      <trkpt lat="37.92762000113726" lon="23.77416000701487">
        <ele>491.6</ele>
        <time>2021-04-10T12:57:08.000Z</time>
      </trkpt>
      <trkpt lat="37.927630143240094" lon="23.774141147732735">
        <ele>490.8</ele>
        <time>2021-04-10T12:57:11.000Z</time>
      </trkpt>
      <trkpt lat="37.927633579820395" lon="23.774148356169462">
        <ele>490.2</ele>
        <time>2021-04-10T12:57:13.000Z</time>
      </trkpt>
      <trkpt lat="37.92763693258166" lon="23.774142237380147">
        <ele>490</ele>
        <time>2021-04-10T12:57:15.000Z</time>
      </trkpt>
      <trkpt lat="37.92763743549585" lon="23.774141734465957">
        <ele>489.8</ele>
        <time>2021-04-10T12:57:17.000Z</time>
      </trkpt>
      <trkpt lat="37.92762067168951" lon="23.774125557392836">
        <ele>490.6</ele>
        <time>2021-04-10T12:57:24.000Z</time>
      </trkpt>
      <trkpt lat="37.927616061642766" lon="23.77413209527731">
        <ele>490.8</ele>
        <time>2021-04-10T12:57:30.000Z</time>
      </trkpt>
      <trkpt lat="37.92761530727148" lon="23.774141315370798">
        <ele>490.8</ele>
        <time>2021-04-10T12:57:31.000Z</time>
      </trkpt>
      <trkpt lat="37.92759778909385" lon="23.774156235158443">
        <ele>490.8</ele>
        <time>2021-04-10T12:57:37.000Z</time>
      </trkpt>
      <trkpt lat="37.92758245021105" lon="23.774126647040248">
        <ele>491.4</ele>
        <time>2021-04-10T12:57:40.000Z</time>
      </trkpt>
      <trkpt lat="37.92757373303175" lon="23.774115331470966">
        <ele>491.6</ele>
        <time>2021-04-10T12:57:41.000Z</time>
      </trkpt>
      <trkpt lat="37.927566608414054" lon="23.774085910990834">
        <ele>491.6</ele>
        <time>2021-04-10T12:57:43.000Z</time>
      </trkpt>
      <trkpt lat="37.92756384238601" lon="23.774079121649265">
        <ele>491.2</ele>
        <time>2021-04-10T12:57:44.000Z</time>
      </trkpt>
      <trkpt lat="37.927558897063136" lon="23.77404408529401">
        <ele>490.6</ele>
        <time>2021-04-10T12:57:47.000Z</time>
      </trkpt>
      <trkpt lat="37.927560321986675" lon="23.774037547409534">
        <ele>490.6</ele>
        <time>2021-04-10T12:57:48.000Z</time>
      </trkpt>
      <trkpt lat="37.92755462229252" lon="23.774017598479986">
        <ele>490.4</ele>
        <time>2021-04-10T12:57:50.000Z</time>
      </trkpt>
      <trkpt lat="37.92754892259836" lon="23.77400712110102">
        <ele>490.2</ele>
        <time>2021-04-10T12:57:51.000Z</time>
      </trkpt>
      <trkpt lat="37.92754406109452" lon="23.773994715884328">
        <ele>490</ele>
        <time>2021-04-10T12:57:52.000Z</time>
      </trkpt>
      <trkpt lat="37.927526626735926" lon="23.773977113887668">
        <ele>489.2</ele>
        <time>2021-04-10T12:57:54.000Z</time>
      </trkpt>
      <trkpt lat="37.92749175801873" lon="23.773940736427903">
        <ele>489.4</ele>
        <time>2021-04-10T12:57:57.000Z</time>
      </trkpt>
      <trkpt lat="37.92747130617499" lon="23.773894049227238">
        <ele>490.2</ele>
        <time>2021-04-10T12:58:00.000Z</time>
      </trkpt>
      <trkpt lat="37.92747155763209" lon="23.773894803598523">
        <ele>489.8</ele>
        <time>2021-04-10T12:58:01.000Z</time>
      </trkpt>
      <trkpt lat="37.92747256346047" lon="23.77390888519585">
        <ele>489</ele>
        <time>2021-04-10T12:58:04.000Z</time>
      </trkpt>
      <trkpt lat="37.92747843079269" lon="23.773917267099023">
        <ele>488.8</ele>
        <time>2021-04-10T12:58:05.000Z</time>
      </trkpt>
      <trkpt lat="37.927501229569316" lon="23.773938808590174">
        <ele>488.8</ele>
        <time>2021-04-10T12:58:08.000Z</time>
      </trkpt>
      <trkpt lat="37.92748924344778" lon="23.77392497844994">
        <ele>488.8</ele>
        <time>2021-04-10T12:58:12.000Z</time>
      </trkpt>
      <trkpt lat="37.927482621744275" lon="23.77388591878116">
        <ele>488.6</ele>
        <time>2021-04-10T12:58:15.000Z</time>
      </trkpt>
      <trkpt lat="37.92747071944177" lon="23.77384912222624">
        <ele>488.6</ele>
        <time>2021-04-10T12:58:18.000Z</time>
      </trkpt>
      <trkpt lat="37.92743937112391" lon="23.77379355020821">
        <ele>488.2</ele>
        <time>2021-04-10T12:58:23.000Z</time>
      </trkpt>
      <trkpt lat="37.92743928730488" lon="23.773782989010215">
        <ele>488</ele>
        <time>2021-04-10T12:58:24.000Z</time>
      </trkpt>
      <trkpt lat="37.92743585072458" lon="23.773746779188514">
        <ele>487</ele>
        <time>2021-04-10T12:58:27.000Z</time>
      </trkpt>
      <trkpt lat="37.92742076329887" lon="23.77371970564127">
        <ele>486.4</ele>
        <time>2021-04-10T12:58:31.000Z</time>
      </trkpt>
      <trkpt lat="37.92741606943309" lon="23.77370562404394">
        <ele>486.2</ele>
        <time>2021-04-10T12:58:32.000Z</time>
      </trkpt>
      <trkpt lat="37.927406849339604" lon="23.773703780025244">
        <ele>486</ele>
        <time>2021-04-10T12:58:33.000Z</time>
      </trkpt>
      <trkpt lat="37.92738363146782" lon="23.773699924349785">
        <ele>485.4</ele>
        <time>2021-04-10T12:58:35.000Z</time>
      </trkpt>
      <trkpt lat="37.92737424373627" lon="23.77368944697082">
        <ele>485</ele>
        <time>2021-04-10T12:58:36.000Z</time>
      </trkpt>
      <trkpt lat="37.92736753821373" lon="23.773679807782173">
        <ele>484.8</ele>
        <time>2021-04-10T12:58:37.000Z</time>
      </trkpt>
      <trkpt lat="37.927356557920575" lon="23.773661786690354">
        <ele>484.4</ele>
        <time>2021-04-10T12:58:39.000Z</time>
      </trkpt>
      <trkpt lat="37.92735622264445" lon="23.773632366210222">
        <ele>484.6</ele>
        <time>2021-04-10T12:58:41.000Z</time>
      </trkpt>
      <trkpt lat="37.92734398506582" lon="23.773610657081008">
        <ele>484.4</ele>
        <time>2021-04-10T12:58:43.000Z</time>
      </trkpt>
      <trkpt lat="37.92734197340906" lon="23.773532873019576">
        <ele>484.2</ele>
        <time>2021-04-10T12:58:47.000Z</time>
      </trkpt>
      <trkpt lat="37.92733610607684" lon="23.773510409519076">
        <ele>484</ele>
        <time>2021-04-10T12:58:49.000Z</time>
      </trkpt>
      <trkpt lat="37.92732445523143" lon="23.773489454761147">
        <ele>483.6</ele>
        <time>2021-04-10T12:58:52.000Z</time>
      </trkpt>
      <trkpt lat="37.92731582187116" lon="23.773486940190196">
        <ele>483.4</ele>
        <time>2021-04-10T12:58:53.000Z</time>
      </trkpt>
      <trkpt lat="37.92731917463243" lon="23.77345785498619">
        <ele>483</ele>
        <time>2021-04-10T12:58:57.000Z</time>
      </trkpt>
      <trkpt lat="37.92731657624245" lon="23.773463051766157">
        <ele>483</ele>
        <time>2021-04-10T12:58:58.000Z</time>
      </trkpt>
      <trkpt lat="37.927309619262815" lon="23.773471349850297">
        <ele>482.6</ele>
        <time>2021-04-10T12:59:01.000Z</time>
      </trkpt>
      <trkpt lat="37.92731054127216" lon="23.773452322930098">
        <ele>482.4</ele>
        <time>2021-04-10T12:59:05.000Z</time>
      </trkpt>
      <trkpt lat="37.92731096036732" lon="23.773448802530766">
        <ele>482.6</ele>
        <time>2021-04-10T12:59:06.000Z</time>
      </trkpt>
      <trkpt lat="37.92730459012091" lon="23.773430362343788">
        <ele>482.8</ele>
        <time>2021-04-10T12:59:12.000Z</time>
      </trkpt>
      <trkpt lat="37.9273241199553" lon="23.773443941026926">
        <ele>482.6</ele>
        <time>2021-04-10T12:59:15.000Z</time>
      </trkpt>
      <trkpt lat="37.92735303752124" lon="23.773449640721083">
        <ele>482.8</ele>
        <time>2021-04-10T12:59:22.000Z</time>
      </trkpt>
      <trkpt lat="37.927327724173665" lon="23.77344259992242">
        <ele>482.8</ele>
        <time>2021-04-10T12:59:27.000Z</time>
      </trkpt>
      <trkpt lat="37.927315067499876" lon="23.77344259992242">
        <ele>482.4</ele>
        <time>2021-04-10T12:59:30.000Z</time>
      </trkpt>
      <trkpt lat="37.92731925845146" lon="23.773447796702385">
        <ele>482</ele>
        <time>2021-04-10T12:59:34.000Z</time>
      </trkpt>
      <trkpt lat="37.92733292095363" lon="23.773478474467993">
        <ele>481.6</ele>
        <time>2021-04-10T12:59:37.000Z</time>
      </trkpt>
      <trkpt lat="37.92733979411423" lon="23.773497082293034">
        <ele>481.6</ele>
        <time>2021-04-10T12:59:39.000Z</time>
      </trkpt>
      <trkpt lat="37.92733836919069" lon="23.773493226617575">
        <ele>481.8</ele>
        <time>2021-04-10T12:59:40.000Z</time>
      </trkpt>
      <trkpt lat="37.92734448798001" lon="23.773480989038944">
        <ele>482.4</ele>
        <time>2021-04-10T12:59:42.000Z</time>
      </trkpt>
      <trkpt lat="37.92733686044812" lon="23.773442935198545">
        <ele>482.8</ele>
        <time>2021-04-10T12:59:47.000Z</time>
      </trkpt>
      <trkpt lat="37.92732462286949" lon="23.773398343473673">
        <ele>481.6</ele>
        <time>2021-04-10T12:59:51.000Z</time>
      </trkpt>
      <trkpt lat="37.927303835749626" lon="23.77338166348636">
        <ele>481</ele>
        <time>2021-04-10T12:59:53.000Z</time>
      </trkpt>
      <trkpt lat="37.92729729786515" lon="23.773364648222923">
        <ele>481</ele>
        <time>2021-04-10T12:59:54.000Z</time>
      </trkpt>
      <trkpt lat="37.92728648521006" lon="23.7733381614089">
        <ele>481</ele>
        <time>2021-04-10T12:59:56.000Z</time>
      </trkpt>
      <trkpt lat="37.92728338390589" lon="23.773324163630605">
        <ele>480.8</ele>
        <time>2021-04-10T12:59:57.000Z</time>
      </trkpt>
      <trkpt lat="37.927254382520914" lon="23.77327756024897">
        <ele>480.2</ele>
        <time>2021-04-10T13:00:03.000Z</time>
      </trkpt>
      <trkpt lat="37.92723502032459" lon="23.77324428409338">
        <ele>479.8</ele>
        <time>2021-04-10T13:00:07.000Z</time>
      </trkpt>
      <trkpt lat="37.92722940444946" lon="23.77321888692677">
        <ele>479.6</ele>
        <time>2021-04-10T13:00:08.000Z</time>
      </trkpt>
      <trkpt lat="37.9272170830518" lon="23.77317287027836">
        <ele>479.2</ele>
        <time>2021-04-10T13:00:11.000Z</time>
      </trkpt>
      <trkpt lat="37.92721649631858" lon="23.7731621414423">
        <ele>479</ele>
        <time>2021-04-10T13:00:13.000Z</time>
      </trkpt>
      <trkpt lat="37.92721373029053" lon="23.773166332393885">
        <ele>478.8</ele>
        <time>2021-04-10T13:00:14.000Z</time>
      </trkpt>
      <trkpt lat="37.92719470337033" lon="23.7731758877635">
        <ele>478</ele>
        <time>2021-04-10T13:00:17.000Z</time>
      </trkpt>
      <trkpt lat="37.92718347162008" lon="23.773164823651314">
        <ele>477.2</ele>
        <time>2021-04-10T13:00:19.000Z</time>
      </trkpt>
      <trkpt lat="37.927180621773005" lon="23.773149400949478">
        <ele>477</ele>
        <time>2021-04-10T13:00:20.000Z</time>
      </trkpt>
      <trkpt lat="37.9271790292114" lon="23.773128278553486">
        <ele>476.8</ele>
        <time>2021-04-10T13:00:22.000Z</time>
      </trkpt>
      <trkpt lat="37.92717156931758" lon="23.773116376250982">
        <ele>476.4</ele>
        <time>2021-04-10T13:00:24.000Z</time>
      </trkpt>
      <trkpt lat="37.927171317860484" lon="23.773092152550817">
        <ele>475.6</ele>
        <time>2021-04-10T13:00:27.000Z</time>
      </trkpt>
      <trkpt lat="37.92717877775431" lon="23.7730844411999">
        <ele>475.4</ele>
        <time>2021-04-10T13:00:28.000Z</time>
      </trkpt>
      <trkpt lat="37.92718288488686" lon="23.7730810046196">
        <ele>475.2</ele>
        <time>2021-04-10T13:00:29.000Z</time>
      </trkpt>
      <trkpt lat="37.927182046696544" lon="23.773083435371518">
        <ele>475</ele>
        <time>2021-04-10T13:00:30.000Z</time>
      </trkpt>
      <trkpt lat="37.92718238197267" lon="23.773082764819264">
        <ele>474.6</ele>
        <time>2021-04-10T13:00:32.000Z</time>
      </trkpt>
      <trkpt lat="37.927183052524924" lon="23.773075891658664">
        <ele>474.4</ele>
        <time>2021-04-10T13:00:34.000Z</time>
      </trkpt>
      <trkpt lat="37.92718389071524" lon="23.773077903315425">
        <ele>474.2</ele>
        <time>2021-04-10T13:00:39.000Z</time>
      </trkpt>
      <trkpt lat="37.92717534117401" lon="23.773099277168512">
        <ele>474</ele>
        <time>2021-04-10T13:00:41.000Z</time>
      </trkpt>
      <trkpt lat="37.92717291042209" lon="23.77310992218554">
        <ele>473.6</ele>
        <time>2021-04-10T13:00:46.000Z</time>
      </trkpt>
      <trkpt lat="37.927161594852805" lon="23.77311084419489">
        <ele>473.6</ele>
        <time>2021-04-10T13:00:48.000Z</time>
      </trkpt>
      <trkpt lat="37.92715405113995" lon="23.77307522110641">
        <ele>474.6</ele>
        <time>2021-04-10T13:00:53.000Z</time>
      </trkpt>
      <trkpt lat="37.92715706862509" lon="23.773064576089382">
        <ele>475</ele>
        <time>2021-04-10T13:00:55.000Z</time>
      </trkpt>
      <trkpt lat="37.92716477997601" lon="23.773088296875358">
        <ele>475.2</ele>
        <time>2021-04-10T13:01:00.000Z</time>
      </trkpt>
      <trkpt lat="37.927149860188365" lon="23.773068683221936">
        <ele>474.6</ele>
        <time>2021-04-10T13:01:07.000Z</time>
      </trkpt>
      <trkpt lat="37.927134688943624" lon="23.77305183559656">
        <ele>474.4</ele>
        <time>2021-04-10T13:01:10.000Z</time>
      </trkpt>
      <trkpt lat="37.92712806724012" lon="23.773017302155495">
        <ele>474.2</ele>
        <time>2021-04-10T13:01:12.000Z</time>
      </trkpt>
      <trkpt lat="37.927130246534944" lon="23.772994503378868">
        <ele>473.8</ele>
        <time>2021-04-10T13:01:14.000Z</time>
      </trkpt>
      <trkpt lat="37.9271341022104" lon="23.772988049313426">
        <ele>473.4</ele>
        <time>2021-04-10T13:01:15.000Z</time>
      </trkpt>
      <trkpt lat="37.92714273557067" lon="23.773002298548818">
        <ele>473.2</ele>
        <time>2021-04-10T13:01:16.000Z</time>
      </trkpt>
      <trkpt lat="37.927128402516246" lon="23.77298478037119">
        <ele>472.8</ele>
        <time>2021-04-10T13:01:21.000Z</time>
      </trkpt>
      <trkpt lat="37.927152374759316" lon="23.772970363497734">
        <ele>472.6</ele>
        <time>2021-04-10T13:01:26.000Z</time>
      </trkpt>
      <trkpt lat="37.92717500589788" lon="23.77294530160725">
        <ele>473.6</ele>
        <time>2021-04-10T13:01:30.000Z</time>
      </trkpt>
      <trkpt lat="37.92717047967017" lon="23.772911354899406">
        <ele>473.2</ele>
        <time>2021-04-10T13:01:34.000Z</time>
      </trkpt>
      <trkpt lat="37.92717701755464" lon="23.772842539474368">
        <ele>472.4</ele>
        <time>2021-04-10T13:01:40.000Z</time>
      </trkpt>
      <trkpt lat="37.92717643082142" lon="23.77287682145834">
        <ele>472.4</ele>
        <time>2021-04-10T13:01:46.000Z</time>
      </trkpt>
      <trkpt lat="37.927172826603055" lon="23.7728841137141">
        <ele>472</ele>
        <time>2021-04-10T13:01:49.000Z</time>
      </trkpt>
      <trkpt lat="37.92715203948319" lon="23.77286215312779">
        <ele>471.8</ele>
        <time>2021-04-10T13:01:53.000Z</time>
      </trkpt>
      <trkpt lat="37.92716813273728" lon="23.77279233187437">
        <ele>472.4</ele>
        <time>2021-04-10T13:01:59.000Z</time>
      </trkpt>
      <trkpt lat="37.92717341333628" lon="23.77277716062963">
        <ele>472.4</ele>
        <time>2021-04-10T13:02:01.000Z</time>
      </trkpt>
      <trkpt lat="37.92715597897768" lon="23.772797863930464">
        <ele>471.8</ele>
        <time>2021-04-10T13:02:05.000Z</time>
      </trkpt>
      <trkpt lat="37.927149357274175" lon="23.772809514775872">
        <ele>471.6</ele>
        <time>2021-04-10T13:02:07.000Z</time>
      </trkpt>
      <trkpt lat="37.92714684270322" lon="23.772813538089395">
        <ele>471.2</ele>
        <time>2021-04-10T13:02:08.000Z</time>
      </trkpt>
      <trkpt lat="37.92714315466583" lon="23.77280213870108">
        <ele>470.6</ele>
        <time>2021-04-10T13:02:11.000Z</time>
      </trkpt>
      <trkpt lat="37.927136616781354" lon="23.772782273590565">
        <ele>470.4</ele>
        <time>2021-04-10T13:02:14.000Z</time>
      </trkpt>
      <trkpt lat="37.9271325096488" lon="23.77277330495417">
        <ele>470.2</ele>
        <time>2021-04-10T13:02:16.000Z</time>
      </trkpt>
      <trkpt lat="37.927126474678516" lon="23.772769449278712">
        <ele>470.2</ele>
        <time>2021-04-10T13:02:17.000Z</time>
      </trkpt>
      <trkpt lat="37.92711893096566" lon="23.772760815918446">
        <ele>470.2</ele>
        <time>2021-04-10T13:02:22.000Z</time>
      </trkpt>
      <trkpt lat="37.927143070846796" lon="23.772833235561848">
        <ele>470</ele>
        <time>2021-04-10T13:02:32.000Z</time>
      </trkpt>
      <trkpt lat="37.927165953442454" lon="23.772828206419945">
        <ele>470</ele>
        <time>2021-04-10T13:02:36.000Z</time>
      </trkpt>
      <trkpt lat="37.927104933187366" lon="23.772798031568527">
        <ele>469.8</ele>
        <time>2021-04-10T13:02:39.000Z</time>
      </trkpt>
      <trkpt lat="37.92709479108453" lon="23.772765593603253">
        <ele>469.2</ele>
        <time>2021-04-10T13:02:41.000Z</time>
      </trkpt>
      <trkpt lat="37.92709043249488" lon="23.772765593603253">
        <ele>468.8</ele>
        <time>2021-04-10T13:02:42.000Z</time>
      </trkpt>
      <trkpt lat="37.92708867229521" lon="23.772761654108763">
        <ele>468.4</ele>
        <time>2021-04-10T13:02:43.000Z</time>
      </trkpt>
      <trkpt lat="37.927090683951974" lon="23.77274882979691">
        <ele>467.6</ele>
        <time>2021-04-10T13:02:45.000Z</time>
      </trkpt>
      <trkpt lat="37.92706754989922" lon="23.772759642452">
        <ele>467.4</ele>
        <time>2021-04-10T13:02:49.000Z</time>
      </trkpt>
      <trkpt lat="37.92705925181508" lon="23.772766264155507">
        <ele>467.4</ele>
        <time>2021-04-10T13:02:51.000Z</time>
      </trkpt>
      <trkpt lat="37.92705740779638" lon="23.772757798433304">
        <ele>467.2</ele>
        <time>2021-04-10T13:02:53.000Z</time>
      </trkpt>
      <trkpt lat="37.927068723365664" lon="23.772728461772203">
        <ele>466.8</ele>
        <time>2021-04-10T13:02:56.000Z</time>
      </trkpt>
      <trkpt lat="37.92706687934697" lon="23.772722259163857">
        <ele>467</ele>
        <time>2021-04-10T13:02:57.000Z</time>
      </trkpt>
      <trkpt lat="37.92705841362476" lon="23.772721840068698">
        <ele>466.6</ele>
        <time>2021-04-10T13:03:01.000Z</time>
      </trkpt>
      <trkpt lat="37.92705221101642" lon="23.772710356861353">
        <ele>466.6</ele>
        <time>2021-04-10T13:03:02.000Z</time>
      </trkpt>
      <trkpt lat="37.92705573141575" lon="23.77265453338623">
        <ele>466.2</ele>
        <time>2021-04-10T13:03:06.000Z</time>
      </trkpt>
      <trkpt lat="37.92706788517535" lon="23.77262276597321">
        <ele>465.6</ele>
        <time>2021-04-10T13:03:08.000Z</time>
      </trkpt>
      <trkpt lat="37.92706495150924" lon="23.772622849792242">
        <ele>464.8</ele>
        <time>2021-04-10T13:03:10.000Z</time>
      </trkpt>
      <trkpt lat="37.927060509100556" lon="23.772630896419287">
        <ele>464.4</ele>
        <time>2021-04-10T13:03:11.000Z</time>
      </trkpt>
      <trkpt lat="37.92705623432994" lon="23.772630812600255">
        <ele>463.8</ele>
        <time>2021-04-10T13:03:13.000Z</time>
      </trkpt>
      <trkpt lat="37.92706361040473" lon="23.7726285494864">
        <ele>463.8</ele>
        <time>2021-04-10T13:03:15.000Z</time>
      </trkpt>
      <trkpt lat="37.92706646025181" lon="23.772641038522124">
        <ele>463.6</ele>
        <time>2021-04-10T13:03:16.000Z</time>
      </trkpt>
      <trkpt lat="37.92706939391792" lon="23.77264908514917">
        <ele>463.4</ele>
        <time>2021-04-10T13:03:17.000Z</time>
      </trkpt>
      <trkpt lat="37.927070651203394" lon="23.77265067771077">
        <ele>463.4</ele>
        <time>2021-04-10T13:03:18.000Z</time>
      </trkpt>
      <trkpt lat="37.9270685557276" lon="23.772651851177216">
        <ele>463.2</ele>
        <time>2021-04-10T13:03:20.000Z</time>
      </trkpt>
      <trkpt lat="37.92705967091024" lon="23.77264522947371">
        <ele>463.2</ele>
        <time>2021-04-10T13:03:25.000Z</time>
      </trkpt>
      <trkpt lat="37.92705078609288" lon="23.772638775408268">
        <ele>463.6</ele>
        <time>2021-04-10T13:03:28.000Z</time>
      </trkpt>
      <trkpt lat="37.927046762779355" lon="23.77263894304633">
        <ele>463.8</ele>
        <time>2021-04-10T13:03:30.000Z</time>
      </trkpt>
      <trkpt lat="37.92703804560006" lon="23.77260415814817">
        <ele>463.2</ele>
        <time>2021-04-10T13:03:35.000Z</time>
      </trkpt>
      <trkpt lat="37.927027735859156" lon="23.772585466504097">
        <ele>462.2</ele>
        <time>2021-04-10T13:03:40.000Z</time>
      </trkpt>
      <trkpt lat="37.9270305018872" lon="23.77257725223899">
        <ele>462.2</ele>
        <time>2021-04-10T13:03:41.000Z</time>
      </trkpt>
      <trkpt lat="37.927033519372344" lon="23.77259627915919">
        <ele>461.8</ele>
        <time>2021-04-10T13:03:44.000Z</time>
      </trkpt>
      <trkpt lat="37.92701876722276" lon="23.772596614435315">
        <ele>462</ele>
        <time>2021-04-10T13:03:50.000Z</time>
      </trkpt>
      <trkpt lat="37.92698976583779" lon="23.77258798107505">
        <ele>462</ele>
        <time>2021-04-10T13:03:56.000Z</time>
      </trkpt>
      <trkpt lat="37.927024215459824" lon="23.7725783418864">
        <ele>462.6</ele>
        <time>2021-04-10T13:04:02.000Z</time>
      </trkpt>
      <trkpt lat="37.927013067528605" lon="23.77258555032313">
        <ele>462</ele>
        <time>2021-04-10T13:04:06.000Z</time>
      </trkpt>
      <trkpt lat="37.927013989537954" lon="23.772577671334147">
        <ele>461.6</ele>
        <time>2021-04-10T13:04:07.000Z</time>
      </trkpt>
      <trkpt lat="37.92701248079538" lon="23.77256509847939">
        <ele>461</ele>
        <time>2021-04-10T13:04:09.000Z</time>
      </trkpt>
      <trkpt lat="37.92697652243078" lon="23.772568618878722">
        <ele>459.6</ele>
        <time>2021-04-10T13:04:15.000Z</time>
      </trkpt>
      <trkpt lat="37.926938803866506" lon="23.77254364080727">
        <ele>459</ele>
        <time>2021-04-10T13:04:20.000Z</time>
      </trkpt>
      <trkpt lat="37.92693947441876" lon="23.772526877000928">
        <ele>458.6</ele>
        <time>2021-04-10T13:04:21.000Z</time>
      </trkpt>
      <trkpt lat="37.92694257572293" lon="23.772519417107105">
        <ele>458.2</ele>
        <time>2021-04-10T13:04:22.000Z</time>
      </trkpt>
      <trkpt lat="37.9269443359226" lon="23.772513885051012">
        <ele>457.2</ele>
        <time>2021-04-10T13:04:24.000Z</time>
      </trkpt>
      <trkpt lat="37.92694156989455" lon="23.77251044847071">
        <ele>456.6</ele>
        <time>2021-04-10T13:04:27.000Z</time>
      </trkpt>
      <trkpt lat="37.92694441974163" lon="23.772509107366204">
        <ele>456.6</ele>
        <time>2021-04-10T13:04:29.000Z</time>
      </trkpt>
      <trkpt lat="37.92694919742644" lon="23.772520506754518">
        <ele>456.6</ele>
        <time>2021-04-10T13:04:31.000Z</time>
      </trkpt>
      <trkpt lat="37.92695724405348" lon="23.772518327459693">
        <ele>457</ele>
        <time>2021-04-10T13:04:33.000Z</time>
      </trkpt>
      <trkpt lat="37.92694441974163" lon="23.77247951924801">
        <ele>456.8</ele>
        <time>2021-04-10T13:04:38.000Z</time>
      </trkpt>
      <trkpt lat="37.92694282718003" lon="23.772428138181567">
        <ele>456.2</ele>
        <time>2021-04-10T13:04:41.000Z</time>
      </trkpt>
      <trkpt lat="37.92693008668721" lon="23.772406596690416">
        <ele>455.6</ele>
        <time>2021-04-10T13:04:43.000Z</time>
      </trkpt>
      <trkpt lat="37.926923632621765" lon="23.772383043542504">
        <ele>454.8</ele>
        <time>2021-04-10T13:04:44.000Z</time>
      </trkpt>
      <trkpt lat="37.92691365815699" lon="23.77236275933683">
        <ele>453.6</ele>
        <time>2021-04-10T13:04:46.000Z</time>
      </trkpt>
      <trkpt lat="37.92689102701843" lon="23.77237885259092">
        <ele>452.8</ele>
        <time>2021-04-10T13:04:48.000Z</time>
      </trkpt>
      <trkpt lat="37.92688365094364" lon="23.772380612790585">
        <ele>452.4</ele>
        <time>2021-04-10T13:04:49.000Z</time>
      </trkpt>
      <trkpt lat="37.926885494962335" lon="23.772375751286745">
        <ele>452.4</ele>
        <time>2021-04-10T13:04:54.000Z</time>
      </trkpt>
      <trkpt lat="37.92690519243479" lon="23.772387402132154">
        <ele>452.4</ele>
        <time>2021-04-10T13:05:00.000Z</time>
      </trkpt>
      <trkpt lat="37.92691273614764" lon="23.77240525558591">
        <ele>452.4</ele>
        <time>2021-04-10T13:05:04.000Z</time>
      </trkpt>
      <trkpt lat="37.926913406699896" lon="23.772400058805943">
        <ele>452.2</ele>
        <time>2021-04-10T13:05:07.000Z</time>
      </trkpt>
      <trkpt lat="37.92692338116467" lon="23.772355718538165">
        <ele>452.2</ele>
        <time>2021-04-10T13:05:12.000Z</time>
      </trkpt>
      <trkpt lat="37.92692572809756" lon="23.772367956116796">
        <ele>452.2</ele>
        <time>2021-04-10T13:05:15.000Z</time>
      </trkpt>
      <trkpt lat="37.926925560459495" lon="23.772407015785575">
        <ele>451.6</ele>
        <time>2021-04-10T13:05:19.000Z</time>
      </trkpt>
      <trkpt lat="37.926931511610746" lon="23.77239838242531">
        <ele>451.4</ele>
        <time>2021-04-10T13:05:23.000Z</time>
      </trkpt>
      <trkpt lat="37.92693167924881" lon="23.772396873682737">
        <ele>451.6</ele>
        <time>2021-04-10T13:05:26.000Z</time>
      </trkpt>
      <trkpt lat="37.92694743722677" lon="23.772378265857697">
        <ele>452</ele>
        <time>2021-04-10T13:05:32.000Z</time>
      </trkpt>
      <trkpt lat="37.92691650800407" lon="23.772395364940166">
        <ele>452.2</ele>
        <time>2021-04-10T13:05:37.000Z</time>
      </trkpt>
      <trkpt lat="37.92691055685282" lon="23.772402070462704">
        <ele>452.2</ele>
        <time>2021-04-10T13:05:39.000Z</time>
      </trkpt>
      <trkpt lat="37.926911478862166" lon="23.772402238100767">
        <ele>452.2</ele>
        <time>2021-04-10T13:05:40.000Z</time>
      </trkpt>
      <trkpt lat="37.92691080830991" lon="23.77240089699626">
        <ele>452.2</ele>
        <time>2021-04-10T13:05:41.000Z</time>
      </trkpt>
      <trkpt lat="37.926909970119596" lon="23.772404165938497">
        <ele>452.4</ele>
        <time>2021-04-10T13:05:42.000Z</time>
      </trkpt>
      <trkpt lat="37.92691902257502" lon="23.77240148372948">
        <ele>452.6</ele>
        <time>2021-04-10T13:05:44.000Z</time>
      </trkpt>
      <trkpt lat="37.92692597955465" lon="23.772407015785575">
        <ele>452.6</ele>
        <time>2021-04-10T13:05:50.000Z</time>
      </trkpt>
      <trkpt lat="37.92691851966083" lon="23.772389413788915">
        <ele>452</ele>
        <time>2021-04-10T13:05:55.000Z</time>
      </trkpt>
      <trkpt lat="37.92691701091826" lon="23.77238815650344">
        <ele>451.8</ele>
        <time>2021-04-10T13:05:57.000Z</time>
      </trkpt>
      <trkpt lat="37.92688323184848" lon="23.77240383066237">
        <ele>451.8</ele>
        <time>2021-04-10T13:06:02.000Z</time>
      </trkpt>
      <trkpt lat="37.92688390240073" lon="23.772372733801603">
        <ele>452</ele>
        <time>2021-04-10T13:06:08.000Z</time>
      </trkpt>
      <trkpt lat="37.92691273614764" lon="23.772348761558533">
        <ele>451.6</ele>
        <time>2021-04-10T13:06:15.000Z</time>
      </trkpt>
      <trkpt lat="37.92692396789789" lon="23.772371895611286">
        <ele>452.2</ele>
        <time>2021-04-10T13:06:21.000Z</time>
      </trkpt>
      <trkpt lat="37.92692614719272" lon="23.772384468466043">
        <ele>452</ele>
        <time>2021-04-10T13:06:24.000Z</time>
      </trkpt>
      <trkpt lat="37.92691986076534" lon="23.772385641932487">
        <ele>451.8</ele>
        <time>2021-04-10T13:06:26.000Z</time>
      </trkpt>
      <trkpt lat="37.92692136950791" lon="23.772376086562872">
        <ele>451.8</ele>
        <time>2021-04-10T13:06:27.000Z</time>
      </trkpt>
      <trkpt lat="37.92692421935499" lon="23.772371476516128">
        <ele>451.8</ele>
        <time>2021-04-10T13:06:28.000Z</time>
      </trkpt>
      <trkpt lat="37.92692572809756" lon="23.772374158725142">
        <ele>452</ele>
        <time>2021-04-10T13:06:29.000Z</time>
      </trkpt>
      <trkpt lat="37.92692421935499" lon="23.77237885259092">
        <ele>452</ele>
        <time>2021-04-10T13:06:30.000Z</time>
      </trkpt>
      <trkpt lat="37.92691743001342" lon="23.77239997498691">
        <ele>452</ele>
        <time>2021-04-10T13:06:33.000Z</time>
      </trkpt>
      <trkpt lat="37.92692497372627" lon="23.772384468466043">
        <ele>452</ele>
        <time>2021-04-10T13:06:38.000Z</time>
      </trkpt>
      <trkpt lat="37.92696202173829" lon="23.772415230050683">
        <ele>451.8</ele>
        <time>2021-04-10T13:06:43.000Z</time>
      </trkpt>
      <trkpt lat="37.92697233147919" lon="23.772420594468713">
        <ele>451.8</ele>
        <time>2021-04-10T13:06:46.000Z</time>
      </trkpt>
      <trkpt lat="37.926973002031446" lon="23.772418247535825">
        <ele>452</ele>
        <time>2021-04-10T13:06:47.000Z</time>
      </trkpt>
      <trkpt lat="37.926964117214084" lon="23.77242780290544">
        <ele>452.2</ele>
        <time>2021-04-10T13:06:52.000Z</time>
      </trkpt>
      <trkpt lat="37.926948610693216" lon="23.772438867017627">
        <ele>452.8</ele>
        <time>2021-04-10T13:06:54.000Z</time>
      </trkpt>
      <trkpt lat="37.926941234618425" lon="23.772443141788244">
        <ele>453.2</ele>
        <time>2021-04-10T13:06:55.000Z</time>
      </trkpt>
      <trkpt lat="37.92692480608821" lon="23.772444147616625">
        <ele>451.8</ele>
        <time>2021-04-10T13:06:57.000Z</time>
      </trkpt>
      <trkpt lat="37.92691608890891" lon="23.77243367023766">
        <ele>451.6</ele>
        <time>2021-04-10T13:06:58.000Z</time>
      </trkpt>
      <trkpt lat="37.92693268507719" lon="23.772452613338828">
        <ele>452.2</ele>
        <time>2021-04-10T13:07:06.000Z</time>
      </trkpt>
      <trkpt lat="37.926948023959994" lon="23.77246158197522">
        <ele>452.2</ele>
        <time>2021-04-10T13:07:08.000Z</time>
      </trkpt>
      <trkpt lat="37.926945174112916" lon="23.77247021533549">
        <ele>452.2</ele>
        <time>2021-04-10T13:07:10.000Z</time>
      </trkpt>
      <trkpt lat="37.92693712748587" lon="23.77246728166938">
        <ele>452.4</ele>
        <time>2021-04-10T13:07:13.000Z</time>
      </trkpt>
      <trkpt lat="37.92692639864981" lon="23.772434424608946">
        <ele>452</ele>
        <time>2021-04-10T13:07:22.000Z</time>
      </trkpt>
      <trkpt lat="37.92692631483078" lon="23.772471556439996">
        <ele>451.6</ele>
        <time>2021-04-10T13:07:29.000Z</time>
      </trkpt>
      <trkpt lat="37.92692614719272" lon="23.772473065182567">
        <ele>451.4</ele>
        <time>2021-04-10T13:07:33.000Z</time>
      </trkpt>
      <trkpt lat="37.92692732065916" lon="23.772470047697425">
        <ele>451.2</ele>
        <time>2021-04-10T13:07:35.000Z</time>
      </trkpt>
      <trkpt lat="37.92692790739238" lon="23.77247172407806">
        <ele>451.2</ele>
        <time>2021-04-10T13:07:36.000Z</time>
      </trkpt>
      <trkpt lat="37.92692924849689" lon="23.772471472620964">
        <ele>451</ele>
        <time>2021-04-10T13:07:37.000Z</time>
      </trkpt>
      <trkpt lat="37.926929499953985" lon="23.77247373573482">
        <ele>451.2</ele>
        <time>2021-04-10T13:07:39.000Z</time>
      </trkpt>
      <trkpt lat="37.92692623101175" lon="23.772479351609945">
        <ele>451.2</ele>
        <time>2021-04-10T13:07:44.000Z</time>
      </trkpt>
      <trkpt lat="37.92692723684013" lon="23.77247574739158">
        <ele>451.2</ele>
        <time>2021-04-10T13:07:48.000Z</time>
      </trkpt>
      <trkpt lat="37.926939725875854" lon="23.772469712421298">
        <ele>451</ele>
        <time>2021-04-10T13:07:53.000Z</time>
      </trkpt>
      <trkpt lat="37.9269596748054" lon="23.772473819553852">
        <ele>451</ele>
        <time>2021-04-10T13:07:59.000Z</time>
      </trkpt>
      <trkpt lat="37.92697769589722" lon="23.77243702299893">
        <ele>451.2</ele>
        <time>2021-04-10T13:08:11.000Z</time>
      </trkpt>
      <trkpt lat="37.926970068365335" lon="23.772437861189246">
        <ele>451.2</ele>
        <time>2021-04-10T13:08:16.000Z</time>
      </trkpt>
      <trkpt lat="37.926948107779026" lon="23.77244984731078">
        <ele>450.8</ele>
        <time>2021-04-10T13:08:26.000Z</time>
      </trkpt>
      <trkpt lat="37.92692908085883" lon="23.772454960271716">
        <ele>450.4</ele>
        <time>2021-04-10T13:08:32.000Z</time>
      </trkpt>
      <trkpt lat="37.92692832648754" lon="23.772437945008278">
        <ele>450.8</ele>
        <time>2021-04-10T13:08:39.000Z</time>
      </trkpt>
      <trkpt lat="37.92693620547652" lon="23.772408021613955">
        <ele>450.8</ele>
        <time>2021-04-10T13:08:42.000Z</time>
      </trkpt>
      <trkpt lat="37.92693419381976" lon="23.77241271547973">
        <ele>450.4</ele>
        <time>2021-04-10T13:08:44.000Z</time>
      </trkpt>
      <trkpt lat="37.92692933231592" lon="23.772416906431317">
        <ele>450</ele>
        <time>2021-04-10T13:08:45.000Z</time>
      </trkpt>
      <trkpt lat="37.92693863622844" lon="23.772432329133153">
        <ele>448.8</ele>
        <time>2021-04-10T13:08:49.000Z</time>
      </trkpt>
      <trkpt lat="37.92693360708654" lon="23.77243123948574">
        <ele>448.2</ele>
        <time>2021-04-10T13:08:55.000Z</time>
      </trkpt>
      <trkpt lat="37.926933439448476" lon="23.772428557276726">
        <ele>448.2</ele>
        <time>2021-04-10T13:08:56.000Z</time>
      </trkpt>
      <trkpt lat="37.926932936534286" lon="23.772427970543504">
        <ele>448.4</ele>
        <time>2021-04-10T13:08:57.000Z</time>
      </trkpt>
      <trkpt lat="37.92693276889622" lon="23.772427970543504">
        <ele>448.4</ele>
        <time>2021-04-10T13:08:58.000Z</time>
      </trkpt>
      <trkpt lat="37.92693084105849" lon="23.772423192858696">
        <ele>448.6</ele>
        <time>2021-04-10T13:09:01.000Z</time>
      </trkpt>
      <trkpt lat="37.926933439448476" lon="23.77242243848741">
        <ele>448.6</ele>
        <time>2021-04-10T13:09:03.000Z</time>
      </trkpt>
      <trkpt lat="37.926934361457825" lon="23.7724247854203">
        <ele>448.6</ele>
        <time>2021-04-10T13:09:04.000Z</time>
      </trkpt>
      <trkpt lat="37.926935283467174" lon="23.772396622225642">
        <ele>449.2</ele>
        <time>2021-04-10T13:09:08.000Z</time>
      </trkpt>
      <trkpt lat="37.92692623101175" lon="23.772370303049684">
        <ele>449.4</ele>
        <time>2021-04-10T13:09:13.000Z</time>
      </trkpt>
      <trkpt lat="37.926904102787375" lon="23.77240718342364">
        <ele>449.4</ele>
        <time>2021-04-10T13:09:21.000Z</time>
      </trkpt>
      <trkpt lat="37.92688935063779" lon="23.772301319986582">
        <ele>449.6</ele>
        <time>2021-04-10T13:09:31.000Z</time>
      </trkpt>
      <trkpt lat="37.92687158100307" lon="23.77227676101029">
        <ele>449.6</ele>
        <time>2021-04-10T13:09:34.000Z</time>
      </trkpt>
      <trkpt lat="37.92693712748587" lon="23.772370973601937">
        <ele>449.6</ele>
        <time>2021-04-10T13:09:48.000Z</time>
      </trkpt>
      <trkpt lat="37.92693796567619" lon="23.772374326363206">
        <ele>449.6</ele>
        <time>2021-04-10T13:09:49.000Z</time>
      </trkpt>
      <trkpt lat="37.926932852715254" lon="23.772390419617295">
        <ele>449.8</ele>
        <time>2021-04-10T13:10:02.000Z</time>
      </trkpt>
      <trkpt lat="37.926930505782366" lon="23.77239645458758">
        <ele>449.8</ele>
        <time>2021-04-10T13:10:03.000Z</time>
      </trkpt>
      <trkpt lat="37.92693670839071" lon="23.77241120673716">
        <ele>450.2</ele>
        <time>2021-04-10T13:10:11.000Z</time>
      </trkpt>
      <trkpt lat="37.92693796567619" lon="23.772411542013288">
        <ele>450</ele>
        <time>2021-04-10T13:10:13.000Z</time>
      </trkpt>
      <trkpt lat="37.926937295123935" lon="23.772410452365875">
        <ele>450</ele>
        <time>2021-04-10T13:10:15.000Z</time>
      </trkpt>
      <trkpt lat="37.92693469673395" lon="23.77240181900561">
        <ele>449.6</ele>
        <time>2021-04-10T13:10:20.000Z</time>
      </trkpt>
      <trkpt lat="37.92693913914263" lon="23.77238865941763">
        <ele>449.2</ele>
        <time>2021-04-10T13:10:23.000Z</time>
      </trkpt>
      <trkpt lat="37.92693612165749" lon="23.772398214787245">
        <ele>449.2</ele>
        <time>2021-04-10T13:10:25.000Z</time>
      </trkpt>
      <trkpt lat="37.92691994458437" lon="23.772420091554523">
        <ele>449.4</ele>
        <time>2021-04-10T13:10:27.000Z</time>
      </trkpt>
      <trkpt lat="37.926912400871515" lon="23.772432329133153">
        <ele>449.4</ele>
        <time>2021-04-10T13:10:28.000Z</time>
      </trkpt>
      <trkpt lat="37.926895301789045" lon="23.772452864795923">
        <ele>449.4</ele>
        <time>2021-04-10T13:10:31.000Z</time>
      </trkpt>
      <trkpt lat="37.92688809335232" lon="23.772446662187576">
        <ele>449.4</ele>
        <time>2021-04-10T13:10:33.000Z</time>
      </trkpt>
      <trkpt lat="37.926893373951316" lon="23.772448506206274">
        <ele>449</ele>
        <time>2021-04-10T13:10:37.000Z</time>
      </trkpt>
      <trkpt lat="37.92689404450357" lon="23.77245219424367">
        <ele>448.8</ele>
        <time>2021-04-10T13:10:39.000Z</time>
      </trkpt>
      <trkpt lat="37.92690133675933" lon="23.77244875766337">
        <ele>448.6</ele>
        <time>2021-04-10T13:10:42.000Z</time>
      </trkpt>
      <trkpt lat="37.92689748108387" lon="23.7724488414824">
        <ele>448.6</ele>
        <time>2021-04-10T13:10:44.000Z</time>
      </trkpt>
      <trkpt lat="37.92689748108387" lon="23.772446243092418">
        <ele>448.6</ele>
        <time>2021-04-10T13:10:45.000Z</time>
      </trkpt>
      <trkpt lat="37.926856745034456" lon="23.77246191725135">
        <ele>448.6</ele>
        <time>2021-04-10T13:10:53.000Z</time>
      </trkpt>
      <trkpt lat="37.926809722557664" lon="23.772462755441666">
        <ele>448.8</ele>
        <time>2021-04-10T13:10:57.000Z</time>
      </trkpt>
      <trkpt lat="37.9267939645797" lon="23.772469125688076">
        <ele>448.8</ele>
        <time>2021-04-10T13:10:58.000Z</time>
      </trkpt>
      <trkpt lat="37.92678013443947" lon="23.772502234205604">
        <ele>448.6</ele>
        <time>2021-04-10T13:11:05.000Z</time>
      </trkpt>
      <trkpt lat="37.92678516358137" lon="23.772510197013617">
        <ele>448.4</ele>
        <time>2021-04-10T13:11:07.000Z</time>
      </trkpt>
      <trkpt lat="37.92679865844548" lon="23.772503156214952">
        <ele>448.6</ele>
        <time>2021-04-10T13:11:09.000Z</time>
      </trkpt>
      <trkpt lat="37.92690477333963" lon="23.77241757698357">
        <ele>449.2</ele>
        <time>2021-04-10T13:11:16.000Z</time>
      </trkpt>
      <trkpt lat="37.92689463123679" lon="23.772369297221303">
        <ele>449.4</ele>
        <time>2021-04-10T13:11:29.000Z</time>
      </trkpt>
      <trkpt lat="37.92693796567619" lon="23.772367956116796">
        <ele>449.2</ele>
        <time>2021-04-10T13:11:39.000Z</time>
      </trkpt>
      <trkpt lat="37.9269408993423" lon="23.7723677046597">
        <ele>449.2</ele>
        <time>2021-04-10T13:11:40.000Z</time>
      </trkpt>
      <trkpt lat="37.92692597955465" lon="23.77240684814751">
        <ele>449.8</ele>
        <time>2021-04-10T13:11:49.000Z</time>
      </trkpt>
      <trkpt lat="37.9269097186625" lon="23.77241363748908">
        <ele>449.8</ele>
        <time>2021-04-10T13:11:52.000Z</time>
      </trkpt>
      <trkpt lat="37.9269184358418" lon="23.772405674681067">
        <ele>449.8</ele>
        <time>2021-04-10T13:11:56.000Z</time>
      </trkpt>
      <trkpt lat="37.92691784910858" lon="23.772389916703105">
        <ele>449.6</ele>
        <time>2021-04-10T13:11:58.000Z</time>
      </trkpt>
      <trkpt lat="37.92688524350524" lon="23.77237306907773">
        <ele>449.4</ele>
        <time>2021-04-10T13:12:09.000Z</time>
      </trkpt>
      <trkpt lat="37.92688122019172" lon="23.772378098219633">
        <ele>449.4</ele>
        <time>2021-04-10T13:12:10.000Z</time>
      </trkpt>
      <trkpt lat="37.92689354158938" lon="23.772399639710784">
        <ele>449.8</ele>
        <time>2021-04-10T13:12:18.000Z</time>
      </trkpt>
      <trkpt lat="37.92690183967352" lon="23.77239217981696">
        <ele>449.8</ele>
        <time>2021-04-10T13:12:22.000Z</time>
      </trkpt>
      <trkpt lat="37.92689857073128" lon="23.772393688559532">
        <ele>449.8</ele>
        <time>2021-04-10T13:12:23.000Z</time>
      </trkpt>
      <trkpt lat="37.92687845416367" lon="23.772425707429647">
        <ele>450</ele>
        <time>2021-04-10T13:12:28.000Z</time>
      </trkpt>
      <trkpt lat="37.92690385133028" lon="23.772412799298763">
        <ele>450.2</ele>
        <time>2021-04-10T13:12:32.000Z</time>
      </trkpt>
      <trkpt lat="37.926919190213084" lon="23.772406093776226">
        <ele>449.6</ele>
        <time>2021-04-10T13:12:38.000Z</time>
      </trkpt>
      <trkpt lat="37.92691768147051" lon="23.77240634523332">
        <ele>449.6</ele>
        <time>2021-04-10T13:12:39.000Z</time>
      </trkpt>
      <trkpt lat="37.926912317052484" lon="23.772408859804273">
        <ele>449.8</ele>
        <time>2021-04-10T13:12:41.000Z</time>
      </trkpt>
      <trkpt lat="37.92690225876868" lon="23.772412966936827">
        <ele>450</ele>
        <time>2021-04-10T13:12:46.000Z</time>
      </trkpt>
      <trkpt lat="37.926912317052484" lon="23.77240089699626">
        <ele>450</ele>
        <time>2021-04-10T13:12:50.000Z</time>
      </trkpt>
      <trkpt lat="37.92690720409155" lon="23.77239796333015">
        <ele>450</ele>
        <time>2021-04-10T13:12:53.000Z</time>
      </trkpt>
      <trkpt lat="37.92689605616033" lon="23.77237893640995">
        <ele>450</ele>
        <time>2021-04-10T13:12:59.000Z</time>
      </trkpt>
      <trkpt lat="37.92687702924013" lon="23.77236627973616">
        <ele>450</ele>
        <time>2021-04-10T13:13:04.000Z</time>
      </trkpt>
      <trkpt lat="37.92687543667853" lon="23.772329818457365">
        <ele>450</ele>
        <time>2021-04-10T13:13:08.000Z</time>
      </trkpt>
      <trkpt lat="37.926875771954656" lon="23.772315736860037">
        <ele>450</ele>
        <time>2021-04-10T13:13:10.000Z</time>
      </trkpt>
      <trkpt lat="37.92686227709055" lon="23.77232411876321">
        <ele>448</ele>
        <time>2021-04-10T13:13:13.000Z</time>
      </trkpt>
      <trkpt lat="37.926850877702236" lon="23.772319005802274">
        <ele>446.8</ele>
        <time>2021-04-10T13:13:15.000Z</time>
      </trkpt>
      <trkpt lat="37.9268494527787" lon="23.772303583100438">
        <ele>446.2</ele>
        <time>2021-04-10T13:13:17.000Z</time>
      </trkpt>
      <trkpt lat="37.92685397900641" lon="23.77229637466371">
        <ele>445.8</ele>
        <time>2021-04-10T13:13:19.000Z</time>
      </trkpt>
      <trkpt lat="37.926852721720934" lon="23.772294698283076">
        <ele>445.6</ele>
        <time>2021-04-10T13:13:20.000Z</time>
      </trkpt>
      <trkpt lat="37.92684559710324" lon="23.772299978882074">
        <ele>445.4</ele>
        <time>2021-04-10T13:13:21.000Z</time>
      </trkpt>
      <trkpt lat="37.926835203543305" lon="23.772294279187918">
        <ele>445.2</ele>
        <time>2021-04-10T13:13:23.000Z</time>
      </trkpt>
      <trkpt lat="37.92682824656367" lon="23.77227340824902">
        <ele>445</ele>
        <time>2021-04-10T13:13:25.000Z</time>
      </trkpt>
      <trkpt lat="37.92681936174631" lon="23.772290842607617">
        <ele>444.6</ele>
        <time>2021-04-10T13:13:29.000Z</time>
      </trkpt>
      <trkpt lat="37.92683436535299" lon="23.772271648049355">
        <ele>445</ele>
        <time>2021-04-10T13:13:32.000Z</time>
      </trkpt>
      <trkpt lat="37.926839143037796" lon="23.772280868142843">
        <ele>444.6</ele>
        <time>2021-04-10T13:13:38.000Z</time>
      </trkpt>
      <trkpt lat="37.9268233012408" lon="23.772231498733163">
        <ele>443.6</ele>
        <time>2021-04-10T13:13:44.000Z</time>
      </trkpt>
      <trkpt lat="37.9268201161176" lon="23.772237617522478">
        <ele>443.4</ele>
        <time>2021-04-10T13:13:45.000Z</time>
      </trkpt>
      <trkpt lat="37.92680460959673" lon="23.772235522046685">
        <ele>442.2</ele>
        <time>2021-04-10T13:13:48.000Z</time>
      </trkpt>
      <trkpt lat="37.92678256519139" lon="23.772213058546185">
        <ele>441.2</ele>
        <time>2021-04-10T13:13:50.000Z</time>
      </trkpt>
      <trkpt lat="37.92675473727286" lon="23.772184811532497">
        <ele>440.6</ele>
        <time>2021-04-10T13:13:52.000Z</time>
      </trkpt>
      <trkpt lat="37.926741829141974" lon="23.77217617817223">
        <ele>440</ele>
        <time>2021-04-10T13:13:53.000Z</time>
      </trkpt>
      <trkpt lat="37.926730681210756" lon="23.77217810600996">
        <ele>439</ele>
        <time>2021-04-10T13:13:57.000Z</time>
      </trkpt>
      <trkpt lat="37.92673294432461" lon="23.772177938371897">
        <ele>438.6</ele>
        <time>2021-04-10T13:13:59.000Z</time>
      </trkpt>
      <trkpt lat="37.92673319578171" lon="23.772176848724484">
        <ele>438.6</ele>
        <time>2021-04-10T13:14:01.000Z</time>
      </trkpt>
      <trkpt lat="37.92672833427787" lon="23.772170646116138">
        <ele>438.6</ele>
        <time>2021-04-10T13:14:02.000Z</time>
      </trkpt>
      <trkpt lat="37.926723808050156" lon="23.772146590054035">
        <ele>438.4</ele>
        <time>2021-04-10T13:14:04.000Z</time>
      </trkpt>
      <trkpt lat="37.92670461349189" lon="23.77212236635387">
        <ele>437.8</ele>
        <time>2021-04-10T13:14:07.000Z</time>
      </trkpt>
      <trkpt lat="37.926700338721275" lon="23.77211499027908">
        <ele>437.4</ele>
        <time>2021-04-10T13:14:08.000Z</time>
      </trkpt>
      <trkpt lat="37.92670444585383" lon="23.772099064663053">
        <ele>436.8</ele>
        <time>2021-04-10T13:14:10.000Z</time>
      </trkpt>
      <trkpt lat="37.92670805007219" lon="23.772098226472735">
        <ele>436.4</ele>
        <time>2021-04-10T13:14:11.000Z</time>
      </trkpt>
      <trkpt lat="37.92670268565416" lon="23.7720965500921">
        <ele>436.4</ele>
        <time>2021-04-10T13:14:13.000Z</time>
      </trkpt>
      <trkpt lat="37.926695393398404" lon="23.772083893418312">
        <ele>436</ele>
        <time>2021-04-10T13:14:16.000Z</time>
      </trkpt>
      <trkpt lat="37.92669329792261" lon="23.772076349705458">
        <ele>435.6</ele>
        <time>2021-04-10T13:14:17.000Z</time>
      </trkpt>
      <trkpt lat="37.92669028043747" lon="23.772065453231335">
        <ele>435</ele>
        <time>2021-04-10T13:14:18.000Z</time>
      </trkpt>
      <trkpt lat="37.92667854577303" lon="23.77203988842666">
        <ele>434.2</ele>
        <time>2021-04-10T13:14:20.000Z</time>
      </trkpt>
      <trkpt lat="37.92667116969824" lon="23.772026812657714">
        <ele>434</ele>
        <time>2021-04-10T13:14:21.000Z</time>
      </trkpt>
      <trkpt lat="37.926650047302246" lon="23.772010635584593">
        <ele>433.6</ele>
        <time>2021-04-10T13:14:24.000Z</time>
      </trkpt>
      <trkpt lat="37.92664627544582" lon="23.772014658898115">
        <ele>433.6</ele>
        <time>2021-04-10T13:14:25.000Z</time>
      </trkpt>
      <trkpt lat="37.92664376087487" lon="23.77202270552516">
        <ele>433.2</ele>
        <time>2021-04-10T13:14:27.000Z</time>
      </trkpt>
      <trkpt lat="37.92664594016969" lon="23.772005354985595">
        <ele>433</ele>
        <time>2021-04-10T13:14:31.000Z</time>
      </trkpt>
      <trkpt lat="37.92665951885283" lon="23.771984232589602">
        <ele>432.6</ele>
        <time>2021-04-10T13:14:36.000Z</time>
      </trkpt>
      <trkpt lat="37.926658261567354" lon="23.771941736340523">
        <ele>432.2</ele>
        <time>2021-04-10T13:14:42.000Z</time>
      </trkpt>
      <trkpt lat="37.92665214277804" lon="23.771886080503464">
        <ele>431.8</ele>
        <time>2021-04-10T13:14:45.000Z</time>
      </trkpt>
      <trkpt lat="37.92665306478739" lon="23.7718687299639">
        <ele>431.6</ele>
        <time>2021-04-10T13:14:46.000Z</time>
      </trkpt>
      <trkpt lat="37.926646610721946" lon="23.771847607567906">
        <ele>431.2</ele>
        <time>2021-04-10T13:14:48.000Z</time>
      </trkpt>
      <trkpt lat="37.92663789354265" lon="23.771845092996955">
        <ele>431</ele>
        <time>2021-04-10T13:14:49.000Z</time>
      </trkpt>
      <trkpt lat="37.92661325074732" lon="23.771818103268743">
        <ele>429.8</ele>
        <time>2021-04-10T13:14:53.000Z</time>
      </trkpt>
      <trkpt lat="37.92660143226385" lon="23.77181651070714">
        <ele>429.4</ele>
        <time>2021-04-10T13:14:54.000Z</time>
      </trkpt>
      <trkpt lat="37.92656471952796" lon="23.771783402189612">
        <ele>428.6</ele>
        <time>2021-04-10T13:14:57.000Z</time>
      </trkpt>
      <trkpt lat="37.92654795572162" lon="23.771738223731518">
        <ele>427</ele>
        <time>2021-04-10T13:14:59.000Z</time>
      </trkpt>
      <trkpt lat="37.92655097320676" lon="23.77168851904571">
        <ele>426.2</ele>
        <time>2021-04-10T13:15:01.000Z</time>
      </trkpt>
      <trkpt lat="37.92655332013965" lon="23.771677622571588">
        <ele>425.6</ele>
        <time>2021-04-10T13:15:02.000Z</time>
      </trkpt>
      <trkpt lat="37.92655407451093" lon="23.771694973111153">
        <ele>424.6</ele>
        <time>2021-04-10T13:15:04.000Z</time>
      </trkpt>
      <trkpt lat="37.926557175815105" lon="23.771708384156227">
        <ele>424.6</ele>
        <time>2021-04-10T13:15:05.000Z</time>
      </trkpt>
      <trkpt lat="37.9265592712909" lon="23.77171383239329">
        <ele>424.6</ele>
        <time>2021-04-10T13:15:06.000Z</time>
      </trkpt>
      <trkpt lat="37.92656136676669" lon="23.771718023344874">
        <ele>424.4</ele>
        <time>2021-04-10T13:15:08.000Z</time>
      </trkpt>
      <trkpt lat="37.92656170204282" lon="23.77168893814087">
        <ele>424.2</ele>
        <time>2021-04-10T13:15:13.000Z</time>
      </trkpt>
      <trkpt lat="37.92654485441744" lon="23.771641245111823">
        <ele>424.2</ele>
        <time>2021-04-10T13:15:17.000Z</time>
      </trkpt>
      <trkpt lat="37.92653060518205" lon="23.771591456606984">
        <ele>423.6</ele>
        <time>2021-04-10T13:15:22.000Z</time>
      </trkpt>
      <trkpt lat="37.92652607895434" lon="23.771586259827018">
        <ele>423.4</ele>
        <time>2021-04-10T13:15:23.000Z</time>
      </trkpt>
      <trkpt lat="37.92651006951928" lon="23.771578716114163">
        <ele>422.4</ele>
        <time>2021-04-10T13:15:26.000Z</time>
      </trkpt>
      <trkpt lat="37.92651199735701" lon="23.77155700698495">
        <ele>422</ele>
        <time>2021-04-10T13:15:28.000Z</time>
      </trkpt>
      <trkpt lat="37.92651627212763" lon="23.771539321169257">
        <ele>421.4</ele>
        <time>2021-04-10T13:15:31.000Z</time>
      </trkpt>
      <trkpt lat="37.92651325464249" lon="23.77153747715056">
        <ele>421</ele>
        <time>2021-04-10T13:15:32.000Z</time>
      </trkpt>
      <trkpt lat="37.9265005979687" lon="23.77153848297894">
        <ele>420.8</ele>
        <time>2021-04-10T13:15:34.000Z</time>
      </trkpt>
      <trkpt lat="37.92650026269257" lon="23.77152389846742">
        <ele>420.8</ele>
        <time>2021-04-10T13:15:39.000Z</time>
      </trkpt>
      <trkpt lat="37.9264847561717" lon="23.771552396938205">
        <ele>421</ele>
        <time>2021-04-10T13:15:42.000Z</time>
      </trkpt>
      <trkpt lat="37.926469752565026" lon="23.771500512957573">
        <ele>420</ele>
        <time>2021-04-10T13:15:46.000Z</time>
      </trkpt>
      <trkpt lat="37.92646262794733" lon="23.771489281207323">
        <ele>419.4</ele>
        <time>2021-04-10T13:15:48.000Z</time>
      </trkpt>
      <trkpt lat="37.92646271176636" lon="23.771441420540214">
        <ele>418.6</ele>
        <time>2021-04-10T13:15:51.000Z</time>
      </trkpt>
      <trkpt lat="37.926458520814776" lon="23.771437229588628">
        <ele>418</ele>
        <time>2021-04-10T13:15:52.000Z</time>
      </trkpt>
      <trkpt lat="37.92644586414099" lon="23.771422477439046">
        <ele>417.6</ele>
        <time>2021-04-10T13:15:56.000Z</time>
      </trkpt>
      <trkpt lat="37.92644502595067" lon="23.771406803280115">
        <ele>417.4</ele>
        <time>2021-04-10T13:15:57.000Z</time>
      </trkpt>
      <trkpt lat="37.92644686996937" lon="23.771393727511168">
        <ele>417.4</ele>
        <time>2021-04-10T13:15:58.000Z</time>
      </trkpt>
      <trkpt lat="37.92646539397538" lon="23.771383250132203">
        <ele>417</ele>
        <time>2021-04-10T13:16:03.000Z</time>
      </trkpt>
      <trkpt lat="37.92648031376302" lon="23.77135860733688">
        <ele>416.4</ele>
        <time>2021-04-10T13:16:06.000Z</time>
      </trkpt>
      <trkpt lat="37.92648416943848" lon="23.771349722519517">
        <ele>415.8</ele>
        <time>2021-04-10T13:16:07.000Z</time>
      </trkpt>
      <trkpt lat="37.926487773656845" lon="23.771338909864426">
        <ele>415.2</ele>
        <time>2021-04-10T13:16:08.000Z</time>
      </trkpt>
      <trkpt lat="37.9264813195914" lon="23.771313093602657">
        <ele>414.4</ele>
        <time>2021-04-10T13:16:11.000Z</time>
      </trkpt>
      <trkpt lat="37.92647226713598" lon="23.771306639537215">
        <ele>414</ele>
        <time>2021-04-10T13:16:12.000Z</time>
      </trkpt>
      <trkpt lat="37.92644318193197" lon="23.771293899044394">
        <ele>413.4</ele>
        <time>2021-04-10T13:16:14.000Z</time>
      </trkpt>
      <trkpt lat="37.92640739120543" lon="23.77125953324139">
        <ele>413</ele>
        <time>2021-04-10T13:16:17.000Z</time>
      </trkpt>
      <trkpt lat="37.92639775201678" lon="23.771245200186968">
        <ele>412.4</ele>
        <time>2021-04-10T13:16:19.000Z</time>
      </trkpt>
      <trkpt lat="37.92638794519007" lon="23.771249391138554">
        <ele>412</ele>
        <time>2021-04-10T13:16:20.000Z</time>
      </trkpt>
      <trkpt lat="37.92637562379241" lon="23.771265987306833">
        <ele>411.4</ele>
        <time>2021-04-10T13:16:22.000Z</time>
      </trkpt>
      <trkpt lat="37.926371516659856" lon="23.77127126790583">
        <ele>411.2</ele>
        <time>2021-04-10T13:16:23.000Z</time>
      </trkpt>
      <trkpt lat="37.926372019574046" lon="23.771256348118186">
        <ele>411.4</ele>
        <time>2021-04-10T13:16:25.000Z</time>
      </trkpt>
      <trkpt lat="37.92637377977371" lon="23.771244026720524">
        <ele>411.4</ele>
        <time>2021-04-10T13:16:26.000Z</time>
      </trkpt>
      <trkpt lat="37.926376797258854" lon="23.771254420280457">
        <ele>411.6</ele>
        <time>2021-04-10T13:16:29.000Z</time>
      </trkpt>
      <trkpt lat="37.92640931904316" lon="23.771245032548904">
        <ele>411.6</ele>
        <time>2021-04-10T13:16:32.000Z</time>
      </trkpt>
      <trkpt lat="37.92641535401344" lon="23.77118619158864">
        <ele>410.8</ele>
        <time>2021-04-10T13:16:36.000Z</time>
      </trkpt>
      <trkpt lat="37.926402697339654" lon="23.771178480237722">
        <ele>410.6</ele>
        <time>2021-04-10T13:16:38.000Z</time>
      </trkpt>
      <trkpt lat="37.92639607563615" lon="23.771128188818693">
        <ele>409.6</ele>
        <time>2021-04-10T13:16:42.000Z</time>
      </trkpt>
      <trkpt lat="37.926391549408436" lon="23.771124500781298">
        <ele>409.4</ele>
        <time>2021-04-10T13:16:43.000Z</time>
      </trkpt>
      <trkpt lat="37.926377383992076" lon="23.771121483296156">
        <ele>409.2</ele>
        <time>2021-04-10T13:16:45.000Z</time>
      </trkpt>
      <trkpt lat="37.92638191021979" lon="23.77112408168614">
        <ele>408.4</ele>
        <time>2021-04-10T13:16:47.000Z</time>
      </trkpt>
      <trkpt lat="37.92638291604817" lon="23.77111980691552">
        <ele>407.6</ele>
        <time>2021-04-10T13:16:50.000Z</time>
      </trkpt>
      <trkpt lat="37.92638543061912" lon="23.771118130534887">
        <ele>407.6</ele>
        <time>2021-04-10T13:16:51.000Z</time>
      </trkpt>
      <trkpt lat="37.926386604085565" lon="23.771116705611348">
        <ele>407.4</ele>
        <time>2021-04-10T13:16:52.000Z</time>
      </trkpt>
      <trkpt lat="37.92639238759875" lon="23.771106228232384">
        <ele>407.8</ele>
        <time>2021-04-10T13:16:58.000Z</time>
      </trkpt>
      <trkpt lat="37.92638719081879" lon="23.771085692569613">
        <ele>408</ele>
        <time>2021-04-10T13:16:59.000Z</time>
      </trkpt>
      <trkpt lat="37.92635659687221" lon="23.771048141643405">
        <ele>408.2</ele>
        <time>2021-04-10T13:17:03.000Z</time>
      </trkpt>
      <trkpt lat="37.92635215446353" lon="23.77103565260768">
        <ele>408.2</ele>
        <time>2021-04-10T13:17:04.000Z</time>
      </trkpt>
      <trkpt lat="37.92634712532163" lon="23.77102207392454">
        <ele>407.6</ele>
        <time>2021-04-10T13:17:06.000Z</time>
      </trkpt>
      <trkpt lat="37.92635466903448" lon="23.77099701203406">
        <ele>406.8</ele>
        <time>2021-04-10T13:17:09.000Z</time>
      </trkpt>
      <trkpt lat="37.926357267424464" lon="23.770994329825044">
        <ele>406.6</ele>
        <time>2021-04-10T13:17:10.000Z</time>
      </trkpt>
      <trkpt lat="37.926349472254515" lon="23.770980164408684">
        <ele>406.2</ele>
        <time>2021-04-10T13:17:12.000Z</time>
      </trkpt>
      <trkpt lat="37.92633555829525" lon="23.770944122225046">
        <ele>405.6</ele>
        <time>2021-04-10T13:17:15.000Z</time>
      </trkpt>
      <trkpt lat="37.926331870257854" lon="23.770944122225046">
        <ele>405.6</ele>
        <time>2021-04-10T13:17:16.000Z</time>
      </trkpt>
      <trkpt lat="37.926333798095584" lon="23.770947642624378">
        <ele>405.2</ele>
        <time>2021-04-10T13:17:18.000Z</time>
      </trkpt>
      <trkpt lat="37.92633614502847" lon="23.770950827747583">
        <ele>405</ele>
        <time>2021-04-10T13:17:19.000Z</time>
      </trkpt>
      <trkpt lat="37.92633505538106" lon="23.770954180508852">
        <ele>405</ele>
        <time>2021-04-10T13:17:20.000Z</time>
      </trkpt>
      <trkpt lat="37.926299180835485" lon="23.77090573310852">
        <ele>405</ele>
        <time>2021-04-10T13:17:25.000Z</time>
      </trkpt>
      <trkpt lat="37.926293229684234" lon="23.77086558379233">
        <ele>404.8</ele>
        <time>2021-04-10T13:17:27.000Z</time>
      </trkpt>
      <trkpt lat="37.92630077339709" lon="23.770813029259443">
        <ele>404.2</ele>
        <time>2021-04-10T13:17:30.000Z</time>
      </trkpt>
      <trkpt lat="37.92630638927221" lon="23.77080456353724">
        <ele>403.8</ele>
        <time>2021-04-10T13:17:31.000Z</time>
      </trkpt>
      <trkpt lat="37.9263121727854" lon="23.77074890770018">
        <ele>403.4</ele>
        <time>2021-04-10T13:17:35.000Z</time>
      </trkpt>
      <trkpt lat="37.926303036510944" lon="23.770708423107862">
        <ele>402.8</ele>
        <time>2021-04-10T13:17:37.000Z</time>
      </trkpt>
      <trkpt lat="37.926294738426805" lon="23.77067405730486">
        <ele>402</ele>
        <time>2021-04-10T13:17:41.000Z</time>
      </trkpt>
      <trkpt lat="37.92629951611161" lon="23.770655868574977">
        <ele>401.8</ele>
        <time>2021-04-10T13:17:43.000Z</time>
      </trkpt>
      <trkpt lat="37.92630219832063" lon="23.770639272406697">
        <ele>401.8</ele>
        <time>2021-04-10T13:17:44.000Z</time>
      </trkpt>
      <trkpt lat="37.926308484748006" lon="23.77062133513391">
        <ele>401.6</ele>
        <time>2021-04-10T13:17:46.000Z</time>
      </trkpt>
      <trkpt lat="37.926311921328306" lon="23.77062175422907">
        <ele>401.4</ele>
        <time>2021-04-10T13:17:47.000Z</time>
      </trkpt>
      <trkpt lat="37.92631359770894" lon="23.77058370038867">
        <ele>401.2</ele>
        <time>2021-04-10T13:17:51.000Z</time>
      </trkpt>
      <trkpt lat="37.92627537623048" lon="23.77046400681138">
        <ele>401.4</ele>
        <time>2021-04-10T13:17:58.000Z</time>
      </trkpt>
      <trkpt lat="37.92624763213098" lon="23.770424779504538">
        <ele>401.4</ele>
        <time>2021-04-10T13:18:01.000Z</time>
      </trkpt>
      <trkpt lat="37.92623246088624" lon="23.770385216921568">
        <ele>401.6</ele>
        <time>2021-04-10T13:18:04.000Z</time>
      </trkpt>
      <trkpt lat="37.92622818611562" lon="23.770349510014057">
        <ele>401.8</ele>
        <time>2021-04-10T13:18:06.000Z</time>
      </trkpt>
      <trkpt lat="37.926227850839496" lon="23.77031304873526">
        <ele>401.8</ele>
        <time>2021-04-10T13:18:08.000Z</time>
      </trkpt>
      <trkpt lat="37.92622131295502" lon="23.77027348615229">
        <ele>402</ele>
        <time>2021-04-10T13:18:12.000Z</time>
      </trkpt>
      <trkpt lat="37.92622952722013" lon="23.77022554166615">
        <ele>402</ele>
        <time>2021-04-10T13:18:16.000Z</time>
      </trkpt>
      <trkpt lat="37.92623941786587" lon="23.770213723182678">
        <ele>401.8</ele>
        <time>2021-04-10T13:18:18.000Z</time>
      </trkpt>
      <trkpt lat="37.926240591332316" lon="23.77024465240538">
        <ele>402.4</ele>
        <time>2021-04-10T13:18:24.000Z</time>
      </trkpt>
      <trkpt lat="37.926216535270214" lon="23.7702764198184">
        <ele>402.8</ele>
        <time>2021-04-10T13:18:28.000Z</time>
      </trkpt>
      <trkpt lat="37.92620119638741" lon="23.77028815448284">
        <ele>403</ele>
        <time>2021-04-10T13:18:31.000Z</time>
      </trkpt>
      <trkpt lat="37.92618258856237" lon="23.770253034308553">
        <ele>403.2</ele>
        <time>2021-04-10T13:18:38.000Z</time>
      </trkpt>
      <trkpt lat="37.92619004845619" lon="23.770228307694197">
        <ele>403.4</ele>
        <time>2021-04-10T13:18:43.000Z</time>
      </trkpt>
      <trkpt lat="37.92620421387255" lon="23.770182626321912">
        <ele>402.2</ele>
        <time>2021-04-10T13:18:49.000Z</time>
      </trkpt>
      <trkpt lat="37.92620806954801" lon="23.770156055688858">
        <ele>402</ele>
        <time>2021-04-10T13:18:51.000Z</time>
      </trkpt>
      <trkpt lat="37.92620748281479" lon="23.77013510093093">
        <ele>401.8</ele>
        <time>2021-04-10T13:18:53.000Z</time>
      </trkpt>
      <trkpt lat="37.92620932683349" lon="23.770130155608058">
        <ele>401.8</ele>
        <time>2021-04-10T13:18:54.000Z</time>
      </trkpt>
      <trkpt lat="37.926220558583736" lon="23.770130909979343">
        <ele>401.4</ele>
        <time>2021-04-10T13:18:56.000Z</time>
      </trkpt>
      <trkpt lat="37.926210751757026" lon="23.770157480612397">
        <ele>401.2</ele>
        <time>2021-04-10T13:19:06.000Z</time>
      </trkpt>
      <trkpt lat="37.92620253749192" lon="23.770133927464485">
        <ele>401.4</ele>
        <time>2021-04-10T13:19:12.000Z</time>
      </trkpt>
      <trkpt lat="37.926200022920966" lon="23.770129149779677">
        <ele>401.4</ele>
        <time>2021-04-10T13:19:13.000Z</time>
      </trkpt>
      <trkpt lat="37.9261998552829" lon="23.7701175827533">
        <ele>401.4</ele>
        <time>2021-04-10T13:19:14.000Z</time>
      </trkpt>
      <trkpt lat="37.92619968764484" lon="23.770108362659812">
        <ele>401.2</ele>
        <time>2021-04-10T13:19:16.000Z</time>
      </trkpt>
      <trkpt lat="37.92619566433132" lon="23.77010484226048">
        <ele>400.8</ele>
        <time>2021-04-10T13:19:19.000Z</time>
      </trkpt>
      <trkpt lat="37.92619499377906" lon="23.770107105374336">
        <ele>400.4</ele>
        <time>2021-04-10T13:19:20.000Z</time>
      </trkpt>
      <trkpt lat="37.926199017092586" lon="23.770115487277508">
        <ele>399.8</ele>
        <time>2021-04-10T13:19:26.000Z</time>
      </trkpt>
      <trkpt lat="37.92620371095836" lon="23.770096208900213">
        <ele>399.4</ele>
        <time>2021-04-10T13:19:29.000Z</time>
      </trkpt>
      <trkpt lat="37.92618862353265" lon="23.770122108981013">
        <ele>398.8</ele>
        <time>2021-04-10T13:19:34.000Z</time>
      </trkpt>
      <trkpt lat="37.92618175037205" lon="23.770123114809394">
        <ele>398.6</ele>
        <time>2021-04-10T13:19:37.000Z</time>
      </trkpt>
      <trkpt lat="37.926187701523304" lon="23.770130155608058">
        <ele>398.8</ele>
        <time>2021-04-10T13:19:40.000Z</time>
      </trkpt>
      <trkpt lat="37.9261929821223" lon="23.770136442035437">
        <ele>398.8</ele>
        <time>2021-04-10T13:19:41.000Z</time>
      </trkpt>
      <trkpt lat="37.92620027437806" lon="23.770157899707556">
        <ele>400.4</ele>
        <time>2021-04-10T13:19:47.000Z</time>
      </trkpt>
      <trkpt lat="37.92620119638741" lon="23.77018053084612">
        <ele>400.8</ele>
        <time>2021-04-10T13:19:48.000Z</time>
      </trkpt>
      <trkpt lat="37.92620396241546" lon="23.770197462290525">
        <ele>401.2</ele>
        <time>2021-04-10T13:19:49.000Z</time>
      </trkpt>
      <trkpt lat="37.926211170852184" lon="23.770243814215064">
        <ele>402.2</ele>
        <time>2021-04-10T13:19:51.000Z</time>
      </trkpt>
      <trkpt lat="37.92621519416571" lon="23.770272731781006">
        <ele>402.4</ele>
        <time>2021-04-10T13:19:52.000Z</time>
      </trkpt>
      <trkpt lat="37.92623237706721" lon="23.77033593133092">
        <ele>402.8</ele>
        <time>2021-04-10T13:19:54.000Z</time>
      </trkpt>
      <trkpt lat="37.92624033987522" lon="23.77039954997599">
        <ele>403.2</ele>
        <time>2021-04-10T13:19:56.000Z</time>
      </trkpt>
      <trkpt lat="37.92625735513866" lon="23.770466689020395">
        <ele>403.8</ele>
        <time>2021-04-10T13:19:58.000Z</time>
      </trkpt>
      <trkpt lat="37.92628291994333" lon="23.770534666255116">
        <ele>404.8</ele>
        <time>2021-04-10T13:20:00.000Z</time>
      </trkpt>
      <trkpt lat="37.926296163350344" lon="23.770561572164297">
        <ele>405</ele>
        <time>2021-04-10T13:20:01.000Z</time>
      </trkpt>
      <trkpt lat="37.92630814947188" lon="23.77058621495962">
        <ele>405.2</ele>
        <time>2021-04-10T13:20:02.000Z</time>
      </trkpt>
      <trkpt lat="37.92631996795535" lon="23.77061102539301">
        <ele>405.2</ele>
        <time>2021-04-10T13:20:03.000Z</time>
      </trkpt>
      <trkpt lat="37.92633212171495" lon="23.770639188587666">
        <ele>404.6</ele>
        <time>2021-04-10T13:20:04.000Z</time>
      </trkpt>
      <trkpt lat="37.9263555072248" lon="23.77068143337965">
        <ele>403.2</ele>
        <time>2021-04-10T13:20:06.000Z</time>
      </trkpt>
      <trkpt lat="37.92638836428523" lon="23.770710015669465">
        <ele>402.2</ele>
        <time>2021-04-10T13:20:08.000Z</time>
      </trkpt>
      <trkpt lat="37.926409151405096" lon="23.770717894658446">
        <ele>401.8</ele>
        <time>2021-04-10T13:20:09.000Z</time>
      </trkpt>
      <trkpt lat="37.92643035762012" lon="23.770724181085825">
        <ele>401</ele>
        <time>2021-04-10T13:20:10.000Z</time>
      </trkpt>
      <trkpt lat="37.92647394351661" lon="23.77074647694826">
        <ele>400.4</ele>
        <time>2021-04-10T13:20:12.000Z</time>
      </trkpt>
      <trkpt lat="37.92654267512262" lon="23.770788554102182">
        <ele>399.2</ele>
        <time>2021-04-10T13:20:15.000Z</time>
      </trkpt>
      <trkpt lat="37.92656622827053" lon="23.770802970975637">
        <ele>399.2</ele>
        <time>2021-04-10T13:20:16.000Z</time>
      </trkpt>
      <trkpt lat="37.9266108199954" lon="23.77083440311253">
        <ele>398.8</ele>
        <time>2021-04-10T13:20:18.000Z</time>
      </trkpt>
      <trkpt lat="37.926628254354" lon="23.770857201889157">
        <ele>398.6</ele>
        <time>2021-04-10T13:20:19.000Z</time>
      </trkpt>
      <trkpt lat="37.926648035645485" lon="23.770872876048088">
        <ele>398.2</ele>
        <time>2021-04-10T13:20:20.000Z</time>
      </trkpt>
      <trkpt lat="37.92666991241276" lon="23.770886957645416">
        <ele>398</ele>
        <time>2021-04-10T13:20:21.000Z</time>
      </trkpt>
      <trkpt lat="37.92670947499573" lon="23.770896429196">
        <ele>397</ele>
        <time>2021-04-10T13:20:23.000Z</time>
      </trkpt>
      <trkpt lat="37.92673084884882" lon="23.770896596834064">
        <ele>396.8</ele>
        <time>2021-04-10T13:20:24.000Z</time>
      </trkpt>
      <trkpt lat="37.92682263068855" lon="23.770889304578304">
        <ele>396.4</ele>
        <time>2021-04-10T13:20:31.000Z</time>
      </trkpt>
      <trkpt lat="37.926870323717594" lon="23.77089198678732">
        <ele>397</ele>
        <time>2021-04-10T13:20:34.000Z</time>
      </trkpt>
      <trkpt lat="37.92691910639405" lon="23.77090967260301">
        <ele>396.4</ele>
        <time>2021-04-10T13:20:37.000Z</time>
      </trkpt>
      <trkpt lat="37.926947018131614" lon="23.770927106961608">
        <ele>395.6</ele>
        <time>2021-04-10T13:20:39.000Z</time>
      </trkpt>
      <trkpt lat="37.92697233147919" lon="23.770923418924212">
        <ele>395.4</ele>
        <time>2021-04-10T13:20:41.000Z</time>
      </trkpt>
      <trkpt lat="37.92698331177235" lon="23.770922161638737">
        <ele>395.2</ele>
        <time>2021-04-10T13:20:42.000Z</time>
      </trkpt>
      <trkpt lat="37.92706210166216" lon="23.77093071117997">
        <ele>395.4</ele>
        <time>2021-04-10T13:20:47.000Z</time>
      </trkpt>
      <trkpt lat="37.927074674516916" lon="23.77093456685543">
        <ele>395.2</ele>
        <time>2021-04-10T13:20:48.000Z</time>
      </trkpt>
      <trkpt lat="37.92710183188319" lon="23.770941775292158">
        <ele>394.6</ele>
        <time>2021-04-10T13:20:50.000Z</time>
      </trkpt>
      <trkpt lat="37.92717098258436" lon="23.77094781026244">
        <ele>393.4</ele>
        <time>2021-04-10T13:20:55.000Z</time>
      </trkpt>
      <trkpt lat="37.927185567095876" lon="23.770953258499503">
        <ele>393.6</ele>
        <time>2021-04-10T13:20:56.000Z</time>
      </trkpt>
      <trkpt lat="37.92724943719804" lon="23.77096784301102">
        <ele>393.4</ele>
        <time>2021-04-10T13:21:00.000Z</time>
      </trkpt>
      <trkpt lat="37.927296459674835" lon="23.77098334953189">
        <ele>393.2</ele>
        <time>2021-04-10T13:21:03.000Z</time>
      </trkpt>
      <trkpt lat="37.927348762750626" lon="23.77097463235259">
        <ele>392.4</ele>
        <time>2021-04-10T13:21:08.000Z</time>
      </trkpt>
      <trkpt lat="37.9273568931967" lon="23.77097991295159">
        <ele>392.2</ele>
        <time>2021-04-10T13:21:09.000Z</time>
      </trkpt>
      <trkpt lat="37.92738949880004" lon="23.771000867709517">
        <ele>391.4</ele>
        <time>2021-04-10T13:21:13.000Z</time>
      </trkpt>
      <trkpt lat="37.927435766905546" lon="23.770997179672122">
        <ele>390.6</ele>
        <time>2021-04-10T13:21:17.000Z</time>
      </trkpt>
      <trkpt lat="37.92748396284878" lon="23.77100103534758">
        <ele>390.4</ele>
        <time>2021-04-10T13:21:20.000Z</time>
      </trkpt>
      <trkpt lat="37.927561746910214" lon="23.771006735041738">
        <ele>390.2</ele>
        <time>2021-04-10T13:21:24.000Z</time>
      </trkpt>
      <trkpt lat="37.92760952375829" lon="23.77100933343172">
        <ele>390.2</ele>
        <time>2021-04-10T13:21:26.000Z</time>
      </trkpt>
      <trkpt lat="37.927721505984664" lon="23.77103908918798">
        <ele>390</ele>
        <time>2021-04-10T13:21:32.000Z</time>
      </trkpt>
      <trkpt lat="37.92776777409017" lon="23.7710518296808">
        <ele>389.4</ele>
        <time>2021-04-10T13:21:35.000Z</time>
      </trkpt>
      <trkpt lat="37.92778277769685" lon="23.7710483931005">
        <ele>389.2</ele>
        <time>2021-04-10T13:21:36.000Z</time>
      </trkpt>
      <trkpt lat="37.92779752984643" lon="23.77104260958731">
        <ele>389</ele>
        <time>2021-04-10T13:21:37.000Z</time>
      </trkpt>
      <trkpt lat="37.92782292701304" lon="23.77101712860167">
        <ele>388.6</ele>
        <time>2021-04-10T13:21:39.000Z</time>
      </trkpt>
      <trkpt lat="37.92779543437064" lon="23.770920233801007">
        <ele>388.2</ele>
        <time>2021-04-10T13:21:44.000Z</time>
      </trkpt>
      <trkpt lat="37.92775612324476" lon="23.770844461396337">
        <ele>388.2</ele>
        <time>2021-04-10T13:21:48.000Z</time>
      </trkpt>
      <trkpt lat="37.927736677229404" lon="23.770818142220378">
        <ele>387.4</ele>
        <time>2021-04-10T13:21:50.000Z</time>
      </trkpt>
      <trkpt lat="37.92772804386914" lon="23.770804228261113">
        <ele>387</ele>
        <time>2021-04-10T13:21:51.000Z</time>
      </trkpt>
      <trkpt lat="37.92769795283675" lon="23.770752595737576">
        <ele>385.8</ele>
        <time>2021-04-10T13:21:56.000Z</time>
      </trkpt>
      <trkpt lat="37.92766174301505" lon="23.77070733346045">
        <ele>385.8</ele>
        <time>2021-04-10T13:22:00.000Z</time>
      </trkpt>
      <trkpt lat="37.927650678902864" lon="23.770698867738247">
        <ele>385.8</ele>
        <time>2021-04-10T13:22:01.000Z</time>
      </trkpt>
      <trkpt lat="37.92763416655362" lon="23.770670369267464">
        <ele>385.8</ele>
        <time>2021-04-10T13:22:03.000Z</time>
      </trkpt>
      <trkpt lat="37.92758949100971" lon="23.770604906603694">
        <ele>384.8</ele>
        <time>2021-04-10T13:22:08.000Z</time>
      </trkpt>
      <trkpt lat="37.92756333947182" lon="23.770574312657118">
        <ele>384.4</ele>
        <time>2021-04-10T13:22:10.000Z</time>
      </trkpt>
      <trkpt lat="37.927512964233756" lon="23.770510777831078">
        <ele>383.8</ele>
        <time>2021-04-10T13:22:14.000Z</time>
      </trkpt>
      <trkpt lat="37.92749569751322" lon="23.77047959715128">
        <ele>383.6</ele>
        <time>2021-04-10T13:22:17.000Z</time>
      </trkpt>
      <trkpt lat="37.927480610087514" lon="23.7704302277416">
        <ele>383.6</ele>
        <time>2021-04-10T13:22:21.000Z</time>
      </trkpt>
      <trkpt lat="37.9274744912982" lon="23.77041078172624">
        <ele>383.6</ele>
        <time>2021-04-10T13:22:23.000Z</time>
      </trkpt>
      <trkpt lat="37.92745563201606" lon="23.77040684223175">
        <ele>383.6</ele>
        <time>2021-04-10T13:22:25.000Z</time>
      </trkpt>
      <trkpt lat="37.927440041676164" lon="23.7703990470618">
        <ele>383.6</ele>
        <time>2021-04-10T13:22:26.000Z</time>
      </trkpt>
      <trkpt lat="37.92739402502775" lon="23.770331908017397">
        <ele>383.2</ele>
        <time>2021-04-10T13:22:30.000Z</time>
      </trkpt>
      <trkpt lat="37.92736552655697" lon="23.770304080098867">
        <ele>382.8</ele>
        <time>2021-04-10T13:22:32.000Z</time>
      </trkpt>
      <trkpt lat="37.92735144495964" lon="23.77029393799603">
        <ele>382.6</ele>
        <time>2021-04-10T13:22:33.000Z</time>
      </trkpt>
      <trkpt lat="37.9273138102144" lon="23.77026803791523">
        <ele>382.2</ele>
        <time>2021-04-10T13:22:35.000Z</time>
      </trkpt>
      <trkpt lat="37.92725664563477" lon="23.770221769809723">
        <ele>381.6</ele>
        <time>2021-04-10T13:22:40.000Z</time>
      </trkpt>
      <trkpt lat="37.92724449187517" lon="23.77020844258368">
        <ele>381.4</ele>
        <time>2021-04-10T13:22:41.000Z</time>
      </trkpt>
      <trkpt lat="37.92721423320472" lon="23.77018447034061">
        <ele>381.2</ele>
        <time>2021-04-10T13:22:43.000Z</time>
      </trkpt>
      <trkpt lat="37.92720057070255" lon="23.77017038874328">
        <ele>381.2</ele>
        <time>2021-04-10T13:22:44.000Z</time>
      </trkpt>
      <trkpt lat="37.92714960873127" lon="23.770118253305554">
        <ele>380.4</ele>
        <time>2021-04-10T13:22:48.000Z</time>
      </trkpt>
      <trkpt lat="37.92711247690022" lon="23.77008673734963">
        <ele>379.6</ele>
        <time>2021-04-10T13:22:51.000Z</time>
      </trkpt>
      <trkpt lat="37.927095126360655" lon="23.7700623460114">
        <ele>379.2</ele>
        <time>2021-04-10T13:22:53.000Z</time>
      </trkpt>
      <trkpt lat="37.92702304199338" lon="23.770002918317914">
        <ele>378</ele>
        <time>2021-04-10T13:22:59.000Z</time>
      </trkpt>
      <trkpt lat="37.926951041445136" lon="23.769896049052477">
        <ele>377</ele>
        <time>2021-04-10T13:23:06.000Z</time>
      </trkpt>
      <trkpt lat="37.92694182135165" lon="23.769875345751643">
        <ele>376.8</ele>
        <time>2021-04-10T13:23:07.000Z</time>
      </trkpt>
      <trkpt lat="37.926862612366676" lon="23.769756071269512">
        <ele>375.8</ele>
        <time>2021-04-10T13:23:14.000Z</time>
      </trkpt>
      <trkpt lat="37.92685506865382" lon="23.769738133996725">
        <ele>375.6</ele>
        <time>2021-04-10T13:23:15.000Z</time>
      </trkpt>
      <trkpt lat="37.92676395736635" lon="23.76959522254765">
        <ele>374.6</ele>
        <time>2021-04-10T13:23:23.000Z</time>
      </trkpt>
      <trkpt lat="37.92675532400608" lon="23.76958256587386">
        <ele>374.6</ele>
        <time>2021-04-10T13:23:24.000Z</time>
      </trkpt>
      <trkpt lat="37.926697907969356" lon="23.769464548677206">
        <ele>373.6</ele>
        <time>2021-04-10T13:23:32.000Z</time>
      </trkpt>
      <trkpt lat="37.92664392851293" lon="23.769355416297913">
        <ele>372.4</ele>
        <time>2021-04-10T13:23:39.000Z</time>
      </trkpt>
      <trkpt lat="37.9266264103353" lon="23.76932892948389">
        <ele>372</ele>
        <time>2021-04-10T13:23:41.000Z</time>
      </trkpt>
      <trkpt lat="37.926594223827124" lon="23.769237315282226">
        <ele>371.4</ele>
        <time>2021-04-10T13:23:46.000Z</time>
      </trkpt>
      <trkpt lat="37.9265677370131" lon="23.769176797941327">
        <ele>371.2</ele>
        <time>2021-04-10T13:23:49.000Z</time>
      </trkpt>
      <trkpt lat="37.926532281562686" lon="23.76909331418574">
        <ele>370.8</ele>
        <time>2021-04-10T13:23:55.000Z</time>
      </trkpt>
      <trkpt lat="37.92653781361878" lon="23.769094068557024">
        <ele>370.4</ele>
        <time>2021-04-10T13:23:58.000Z</time>
      </trkpt>
      <trkpt lat="37.92653345502913" lon="23.769083758816123">
        <ele>370.2</ele>
        <time>2021-04-10T13:24:01.000Z</time>
      </trkpt>
      <trkpt lat="37.92650965042412" lon="23.769022151827812">
        <ele>369.6</ele>
        <time>2021-04-10T13:24:04.000Z</time>
      </trkpt>
      <trkpt lat="37.926494060084224" lon="23.768985774368048">
        <ele>369.2</ele>
        <time>2021-04-10T13:24:06.000Z</time>
      </trkpt>
      <trkpt lat="37.926474614068866" lon="23.76891645602882">
        <ele>369</ele>
        <time>2021-04-10T13:24:12.000Z</time>
      </trkpt>
      <trkpt lat="37.9264419246465" lon="23.76879047602415">
        <ele>368.2</ele>
        <time>2021-04-10T13:24:18.000Z</time>
      </trkpt>
      <trkpt lat="37.92643563821912" lon="23.768772454932332">
        <ele>368</ele>
        <time>2021-04-10T13:24:19.000Z</time>
      </trkpt>
      <trkpt lat="37.92642851360142" lon="23.76870288513601">
        <ele>367</ele>
        <time>2021-04-10T13:24:23.000Z</time>
      </trkpt>
      <trkpt lat="37.926427675411105" lon="23.768683690577745">
        <ele>366.8</ele>
        <time>2021-04-10T13:24:24.000Z</time>
      </trkpt>
      <trkpt lat="37.92640428990126" lon="23.768645217642188">
        <ele>366.6</ele>
        <time>2021-04-10T13:24:27.000Z</time>
      </trkpt>
      <trkpt lat="37.92637352831662" lon="23.768599200993776">
        <ele>366.8</ele>
        <time>2021-04-10T13:24:30.000Z</time>
      </trkpt>
      <trkpt lat="37.92636942118406" lon="23.768499959260225">
        <ele>367</ele>
        <time>2021-04-10T13:24:36.000Z</time>
      </trkpt>
      <trkpt lat="37.926365565508604" lon="23.76847581937909">
        <ele>366.2</ele>
        <time>2021-04-10T13:24:38.000Z</time>
      </trkpt>
      <trkpt lat="37.926339246332645" lon="23.76843323931098">
        <ele>365.8</ele>
        <time>2021-04-10T13:24:41.000Z</time>
      </trkpt>
      <trkpt lat="37.926331451162696" lon="23.768407171592116">
        <ele>365.6</ele>
        <time>2021-04-10T13:24:43.000Z</time>
      </trkpt>
      <trkpt lat="37.92632885277271" lon="23.76833651214838">
        <ele>365</ele>
        <time>2021-04-10T13:24:49.000Z</time>
      </trkpt>
      <trkpt lat="37.926331954076886" lon="23.768326621502638">
        <ele>364.6</ele>
        <time>2021-04-10T13:24:50.000Z</time>
      </trkpt>
      <trkpt lat="37.92634712532163" lon="23.76833642832935">
        <ele>363.8</ele>
        <time>2021-04-10T13:24:54.000Z</time>
      </trkpt>
      <trkpt lat="37.92635173536837" lon="23.768321592360735">
        <ele>363.6</ele>
        <time>2021-04-10T13:24:56.000Z</time>
      </trkpt>
      <trkpt lat="37.926371013745666" lon="23.768262919038534">
        <ele>362.6</ele>
        <time>2021-04-10T13:25:00.000Z</time>
      </trkpt>
      <trkpt lat="37.92637704871595" lon="23.76825193874538">
        <ele>362.4</ele>
        <time>2021-04-10T13:25:01.000Z</time>
      </trkpt>
      <trkpt lat="37.92638048529625" lon="23.768241545185447">
        <ele>362.2</ele>
        <time>2021-04-10T13:25:02.000Z</time>
      </trkpt>
      <trkpt lat="37.92637914419174" lon="23.768215477466583">
        <ele>361.6</ele>
        <time>2021-04-10T13:25:05.000Z</time>
      </trkpt>
      <trkpt lat="37.926365649327636" lon="23.768203910440207">
        <ele>361.2</ele>
        <time>2021-04-10T13:25:07.000Z</time>
      </trkpt>
      <trkpt lat="37.92632717639208" lon="23.768169544637203">
        <ele>361</ele>
        <time>2021-04-10T13:25:12.000Z</time>
      </trkpt>
      <trkpt lat="37.92631309479475" lon="23.768136771395802">
        <ele>360.2</ele>
        <time>2021-04-10T13:25:15.000Z</time>
      </trkpt>
      <trkpt lat="37.926326589658856" lon="23.768135933205485">
        <ele>359.6</ele>
        <time>2021-04-10T13:25:18.000Z</time>
      </trkpt>
      <trkpt lat="37.92634695768356" lon="23.76813266426325">
        <ele>359.2</ele>
        <time>2021-04-10T13:25:20.000Z</time>
      </trkpt>
      <trkpt lat="37.92638626880944" lon="23.76812780275941">
        <ele>359.2</ele>
        <time>2021-04-10T13:25:23.000Z</time>
      </trkpt>
      <trkpt lat="37.926416443660855" lon="23.76810299232602">
        <ele>359</ele>
        <time>2021-04-10T13:25:27.000Z</time>
      </trkpt>
      <trkpt lat="37.92643329128623" lon="23.768096957355738">
        <ele>358.2</ele>
        <time>2021-04-10T13:25:29.000Z</time>
      </trkpt>
      <trkpt lat="37.926429687067866" lon="23.76810148358345">
        <ele>357.8</ele>
        <time>2021-04-10T13:25:31.000Z</time>
      </trkpt>
      <trkpt lat="37.92644217610359" lon="23.768085055053234">
        <ele>357.2</ele>
        <time>2021-04-10T13:25:37.000Z</time>
      </trkpt>
      <trkpt lat="37.92644217610359" lon="23.76807608641684">
        <ele>357</ele>
        <time>2021-04-10T13:25:38.000Z</time>
      </trkpt>
      <trkpt lat="37.92644049972296" lon="23.768064938485622">
        <ele>357</ele>
        <time>2021-04-10T13:25:39.000Z</time>
      </trkpt>
      <trkpt lat="37.92643270455301" lon="23.768066614866257">
        <ele>356.2</ele>
        <time>2021-04-10T13:25:43.000Z</time>
      </trkpt>
      <trkpt lat="37.92642298154533" lon="23.76805362291634">
        <ele>356</ele>
        <time>2021-04-10T13:25:45.000Z</time>
      </trkpt>
      <trkpt lat="37.926406217738986" lon="23.76802956685424">
        <ele>356</ele>
        <time>2021-04-10T13:25:49.000Z</time>
      </trkpt>
      <trkpt lat="37.92638970538974" lon="23.76797927543521">
        <ele>355.2</ele>
        <time>2021-04-10T13:25:55.000Z</time>
      </trkpt>
      <trkpt lat="37.92637461796403" lon="23.767963014543056">
        <ele>354.8</ele>
        <time>2021-04-10T13:25:58.000Z</time>
      </trkpt>
      <trkpt lat="37.926365146413445" lon="23.767957566305995">
        <ele>354.2</ele>
        <time>2021-04-10T13:26:00.000Z</time>
      </trkpt>
      <trkpt lat="37.926356345415115" lon="23.76795639283955">
        <ele>353.8</ele>
        <time>2021-04-10T13:26:01.000Z</time>
      </trkpt>
      <trkpt lat="37.92632566764951" lon="23.76795153133571">
        <ele>352.8</ele>
        <time>2021-04-10T13:26:05.000Z</time>
      </trkpt>
      <trkpt lat="37.926323153078556" lon="23.76793686300516">
        <ele>352.6</ele>
        <time>2021-04-10T13:26:06.000Z</time>
      </trkpt>
      <trkpt lat="37.926311837509274" lon="23.767951279878616">
        <ele>352.6</ele>
        <time>2021-04-10T13:26:09.000Z</time>
      </trkpt>
      <trkpt lat="37.926308484748006" lon="23.76791632734239">
        <ele>352.8</ele>
        <time>2021-04-10T13:26:12.000Z</time>
      </trkpt>
      <trkpt lat="37.926283087581396" lon="23.76786645501852">
        <ele>352.4</ele>
        <time>2021-04-10T13:26:15.000Z</time>
      </trkpt>
      <trkpt lat="37.92627043090761" lon="23.767854971811175">
        <ele>352.2</ele>
        <time>2021-04-10T13:26:16.000Z</time>
      </trkpt>
      <trkpt lat="37.92624679394066" lon="23.767824713140726">
        <ele>351.6</ele>
        <time>2021-04-10T13:26:19.000Z</time>
      </trkpt>
      <trkpt lat="37.92622332461178" lon="23.767812475562096">
        <ele>350.8</ele>
        <time>2021-04-10T13:26:22.000Z</time>
      </trkpt>
      <trkpt lat="37.92621259577572" lon="23.767776768654585">
        <ele>350.4</ele>
        <time>2021-04-10T13:26:25.000Z</time>
      </trkpt>
      <trkpt lat="37.92621050029993" lon="23.76776671037078">
        <ele>350.4</ele>
        <time>2021-04-10T13:26:26.000Z</time>
      </trkpt>
      <trkpt lat="37.92620957829058" lon="23.76775162294507">
        <ele>350.4</ele>
        <time>2021-04-10T13:26:28.000Z</time>
      </trkpt>
      <trkpt lat="37.92621578089893" lon="23.7677310872823">
        <ele>349.4</ele>
        <time>2021-04-10T13:26:31.000Z</time>
      </trkpt>
      <trkpt lat="37.926204800605774" lon="23.767716670408845">
        <ele>348.2</ele>
        <time>2021-04-10T13:26:35.000Z</time>
      </trkpt>
      <trkpt lat="37.926193065941334" lon="23.767719520255923">
        <ele>347.8</ele>
        <time>2021-04-10T13:26:37.000Z</time>
      </trkpt>
      <trkpt lat="37.9261638969183" lon="23.767669647932053">
        <ele>347.4</ele>
        <time>2021-04-10T13:26:42.000Z</time>
      </trkpt>
      <trkpt lat="37.92614839039743" lon="23.767643747851253">
        <ele>347.2</ele>
        <time>2021-04-10T13:26:44.000Z</time>
      </trkpt>
      <trkpt lat="37.92613489553332" lon="23.767603347077966">
        <ele>347</ele>
        <time>2021-04-10T13:26:47.000Z</time>
      </trkpt>
      <trkpt lat="37.926138835027814" lon="23.767538303509355">
        <ele>346.2</ele>
        <time>2021-04-10T13:26:51.000Z</time>
      </trkpt>
      <trkpt lat="37.926138332113624" lon="23.767521288245916">
        <ele>345.8</ele>
        <time>2021-04-10T13:26:52.000Z</time>
      </trkpt>
      <trkpt lat="37.926133554428816" lon="23.76747845672071">
        <ele>344.4</ele>
        <time>2021-04-10T13:26:55.000Z</time>
      </trkpt>
      <trkpt lat="37.926129112020135" lon="23.767463704571128">
        <ele>343.8</ele>
        <time>2021-04-10T13:26:58.000Z</time>
      </trkpt>
      <trkpt lat="37.92611385695636" lon="23.767491532489657">
        <ele>343.6</ele>
        <time>2021-04-10T13:27:01.000Z</time>
      </trkpt>
      <trkpt lat="37.92612089775503" lon="23.767503015697002">
        <ele>343.6</ele>
        <time>2021-04-10T13:27:03.000Z</time>
      </trkpt>
      <trkpt lat="37.926131039857864" lon="23.767516259104013">
        <ele>343.6</ele>
        <time>2021-04-10T13:27:05.000Z</time>
      </trkpt>
      <trkpt lat="37.926151072606444" lon="23.767543751746416">
        <ele>343.4</ele>
        <time>2021-04-10T13:27:08.000Z</time>
      </trkpt>
      <trkpt lat="37.92615878395736" lon="23.767547942698002">
        <ele>343.4</ele>
        <time>2021-04-10T13:27:09.000Z</time>
      </trkpt>
      <trkpt lat="37.92617202736437" lon="23.767547942698002">
        <ele>343.4</ele>
        <time>2021-04-10T13:27:11.000Z</time>
      </trkpt>
      <trkpt lat="37.92618200182915" lon="23.76754987053573">
        <ele>343.4</ele>
        <time>2021-04-10T13:27:12.000Z</time>
      </trkpt>
      <trkpt lat="37.92622868902981" lon="23.767543751746416">
        <ele>342.6</ele>
        <time>2021-04-10T13:27:16.000Z</time>
      </trkpt>
      <trkpt lat="37.92625266127288" lon="23.767528915777802">
        <ele>342.4</ele>
        <time>2021-04-10T13:27:18.000Z</time>
      </trkpt>
      <trkpt lat="37.92628803290427" lon="23.767558252438903">
        <ele>341.8</ele>
        <time>2021-04-10T13:27:22.000Z</time>
      </trkpt>
      <trkpt lat="37.926288368180394" lon="23.767531514167786">
        <ele>341.4</ele>
        <time>2021-04-10T13:27:33.000Z</time>
      </trkpt>
      <trkpt lat="37.92628434486687" lon="23.76750628463924">
        <ele>341.2</ele>
        <time>2021-04-10T13:27:38.000Z</time>
      </trkpt>
      <trkpt lat="37.92632524855435" lon="23.76748046837747">
        <ele>340.2</ele>
        <time>2021-04-10T13:27:42.000Z</time>
      </trkpt>
      <trkpt lat="37.92633371427655" lon="23.76748046837747">
        <ele>340</ele>
        <time>2021-04-10T13:27:43.000Z</time>
      </trkpt>
      <trkpt lat="37.926402194425464" lon="23.76744375564158">
        <ele>340.2</ele>
        <time>2021-04-10T13:27:50.000Z</time>
      </trkpt>
      <trkpt lat="37.92640831321478" lon="23.767437804490328">
        <ele>340.4</ele>
        <time>2021-04-10T13:27:51.000Z</time>
      </trkpt>
      <trkpt lat="37.926438488066196" lon="23.767394721508026">
        <ele>340.4</ele>
        <time>2021-04-10T13:27:56.000Z</time>
      </trkpt>
      <trkpt lat="37.92644242756069" lon="23.767392793670297">
        <ele>340.4</ele>
        <time>2021-04-10T13:27:57.000Z</time>
      </trkpt>
      <trkpt lat="37.92648559436202" lon="23.767388686537743">
        <ele>340.4</ele>
        <time>2021-04-10T13:28:03.000Z</time>
      </trkpt>
      <trkpt lat="37.92651426047087" lon="23.767360439524055">
        <ele>340.8</ele>
        <time>2021-04-10T13:28:07.000Z</time>
      </trkpt>
      <trkpt lat="37.926532281562686" lon="23.767340909689665">
        <ele>340.8</ele>
        <time>2021-04-10T13:28:09.000Z</time>
      </trkpt>
      <trkpt lat="37.92656656354666" lon="23.76729137264192">
        <ele>340.8</ele>
        <time>2021-04-10T13:28:14.000Z</time>
      </trkpt>
      <trkpt lat="37.92657016776502" lon="23.76728399656713">
        <ele>340.8</ele>
        <time>2021-04-10T13:28:15.000Z</time>
      </trkpt>
      <trkpt lat="37.92657410725951" lon="23.76727955415845">
        <ele>340.8</ele>
        <time>2021-04-10T13:28:16.000Z</time>
      </trkpt>
      <trkpt lat="37.926602102816105" lon="23.7672717589885">
        <ele>341</ele>
        <time>2021-04-10T13:28:20.000Z</time>
      </trkpt>
      <trkpt lat="37.926625991240144" lon="23.767264299094677">
        <ele>341.2</ele>
        <time>2021-04-10T13:28:23.000Z</time>
      </trkpt>
      <trkpt lat="37.926633451133966" lon="23.767251474782825">
        <ele>341.4</ele>
        <time>2021-04-10T13:28:25.000Z</time>
      </trkpt>
      <trkpt lat="37.92663303203881" lon="23.767201770097017">
        <ele>340.8</ele>
        <time>2021-04-10T13:28:29.000Z</time>
      </trkpt>
      <trkpt lat="37.9266385640949" lon="23.767194226384163">
        <ele>340.8</ele>
        <time>2021-04-10T13:28:30.000Z</time>
      </trkpt>
      <trkpt lat="37.92664434760809" lon="23.76719255000353">
        <ele>340.6</ele>
        <time>2021-04-10T13:28:31.000Z</time>
      </trkpt>
      <trkpt lat="37.92664744891226" lon="23.76718869432807">
        <ele>340.6</ele>
        <time>2021-04-10T13:28:32.000Z</time>
      </trkpt>
      <trkpt lat="37.92666379362345" lon="23.76716874539852">
        <ele>340.2</ele>
        <time>2021-04-10T13:28:35.000Z</time>
      </trkpt>
      <trkpt lat="37.92667259462178" lon="23.7671560049057">
        <ele>340.2</ele>
        <time>2021-04-10T13:28:36.000Z</time>
      </trkpt>
      <trkpt lat="37.926709558814764" lon="23.767106384038925">
        <ele>339.2</ele>
        <time>2021-04-10T13:28:42.000Z</time>
      </trkpt>
      <trkpt lat="37.92671048082411" lon="23.767123399302363">
        <ele>339.2</ele>
        <time>2021-04-10T13:28:43.000Z</time>
      </trkpt>
      <trkpt lat="37.92670042254031" lon="23.767172684893012">
        <ele>338.6</ele>
        <time>2021-04-10T13:28:47.000Z</time>
      </trkpt>
      <trkpt lat="37.92668835259974" lon="23.767142510041595">
        <ele>338.2</ele>
        <time>2021-04-10T13:28:54.000Z</time>
      </trkpt>
      <trkpt lat="37.92671517468989" lon="23.767091380432248">
        <ele>338.2</ele>
        <time>2021-04-10T13:28:58.000Z</time>
      </trkpt>
      <trkpt lat="37.92673445306718" lon="23.76706807874143">
        <ele>338.2</ele>
        <time>2021-04-10T13:29:00.000Z</time>
      </trkpt>
      <trkpt lat="37.92673730291426" lon="23.76705726608634">
        <ele>338.2</ele>
        <time>2021-04-10T13:29:01.000Z</time>
      </trkpt>
      <trkpt lat="37.92674358934164" lon="23.767033712938428">
        <ele>337.8</ele>
        <time>2021-04-10T13:29:03.000Z</time>
      </trkpt>
      <trkpt lat="37.926748199388385" lon="23.76700839959085">
        <ele>337.6</ele>
        <time>2021-04-10T13:29:06.000Z</time>
      </trkpt>
      <trkpt lat="37.92674937285483" lon="23.767001694068313">
        <ele>337.2</ele>
        <time>2021-04-10T13:29:07.000Z</time>
      </trkpt>
      <trkpt lat="37.92678281664848" lon="23.766968250274658">
        <ele>336.2</ele>
        <time>2021-04-10T13:29:13.000Z</time>
      </trkpt>
      <trkpt lat="37.92678407393396" lon="23.7669625505805">
        <ele>336.2</ele>
        <time>2021-04-10T13:29:14.000Z</time>
      </trkpt>
      <trkpt lat="37.92677435092628" lon="23.76693413592875">
        <ele>335.6</ele>
        <time>2021-04-10T13:29:18.000Z</time>
      </trkpt>
      <trkpt lat="37.92677057906985" lon="23.766909325495362">
        <ele>335</ele>
        <time>2021-04-10T13:29:23.000Z</time>
      </trkpt>
      <trkpt lat="37.92676890268922" lon="23.76691368408501">
        <ele>334.8</ele>
        <time>2021-04-10T13:29:24.000Z</time>
      </trkpt>
      <trkpt lat="37.926744259893894" lon="23.76688862219453">
        <ele>334.2</ele>
        <time>2021-04-10T13:29:30.000Z</time>
      </trkpt>
      <trkpt lat="37.9267336986959" lon="23.76687940210104">
        <ele>334.2</ele>
        <time>2021-04-10T13:29:31.000Z</time>
      </trkpt>
      <trkpt lat="37.9267197009176" lon="23.766841934993863">
        <ele>333.8</ele>
        <time>2021-04-10T13:29:34.000Z</time>
      </trkpt>
      <trkpt lat="37.92671802453697" lon="23.766830451786518">
        <ele>333.8</ele>
        <time>2021-04-10T13:29:35.000Z</time>
      </trkpt>
      <trkpt lat="37.92672204785049" lon="23.766806479543447">
        <ele>333.2</ele>
        <time>2021-04-10T13:29:38.000Z</time>
      </trkpt>
      <trkpt lat="37.926735961809754" lon="23.766815699636936">
        <ele>332.8</ele>
        <time>2021-04-10T13:29:40.000Z</time>
      </trkpt>
      <trkpt lat="37.9267405718565" lon="23.766838163137436">
        <ele>332.6</ele>
        <time>2021-04-10T13:29:42.000Z</time>
      </trkpt>
      <trkpt lat="37.92675004340708" lon="23.766912342980504">
        <ele>332.6</ele>
        <time>2021-04-10T13:29:49.000Z</time>
      </trkpt>
      <trkpt lat="37.92673420161009" lon="23.76692198216915">
        <ele>332.8</ele>
        <time>2021-04-10T13:29:56.000Z</time>
      </trkpt>
      <trkpt lat="37.92673956602812" lon="23.766924245283008">
        <ele>333.2</ele>
        <time>2021-04-10T13:30:06.000Z</time>
      </trkpt>
      <trkpt lat="37.92673914693296" lon="23.76691561192274">
        <ele>333.6</ele>
        <time>2021-04-10T13:30:12.000Z</time>
      </trkpt>
      <trkpt lat="37.9267284180969" lon="23.766891974955797">
        <ele>333.4</ele>
        <time>2021-04-10T13:30:16.000Z</time>
      </trkpt>
      <trkpt lat="37.9267144203186" lon="23.766874205321074">
        <ele>333.4</ele>
        <time>2021-04-10T13:30:18.000Z</time>
      </trkpt>
      <trkpt lat="37.92668801732361" lon="23.766840593889356">
        <ele>333</ele>
        <time>2021-04-10T13:30:21.000Z</time>
      </trkpt>
      <trkpt lat="37.92667360045016" lon="23.766815029084682">
        <ele>332.6</ele>
        <time>2021-04-10T13:30:23.000Z</time>
      </trkpt>
      <trkpt lat="37.92667217552662" lon="23.76677387394011">
        <ele>331.6</ele>
        <time>2021-04-10T13:30:26.000Z</time>
      </trkpt>
      <trkpt lat="37.926677372306585" lon="23.76678217202425">
        <ele>331.4</ele>
        <time>2021-04-10T13:30:28.000Z</time>
      </trkpt>
      <trkpt lat="37.92666094377637" lon="23.7668296135962">
        <ele>331.6</ele>
        <time>2021-04-10T13:30:31.000Z</time>
      </trkpt>
      <trkpt lat="37.926651975139976" lon="23.76684905961156">
        <ele>331.6</ele>
        <time>2021-04-10T13:30:32.000Z</time>
      </trkpt>
      <trkpt lat="37.926649041473866" lon="23.766855094581842">
        <ele>331.6</ele>
        <time>2021-04-10T13:30:33.000Z</time>
      </trkpt>
      <trkpt lat="37.926635378971696" lon="23.766851322725415">
        <ele>331.2</ele>
        <time>2021-04-10T13:30:41.000Z</time>
      </trkpt>
      <trkpt lat="37.92662582360208" lon="23.7668348941952">
        <ele>332.4</ele>
        <time>2021-04-10T13:30:48.000Z</time>
      </trkpt>
      <trkpt lat="37.926641246303916" lon="23.766838079318404">
        <ele>332</ele>
        <time>2021-04-10T13:30:56.000Z</time>
      </trkpt>
      <trkpt lat="37.92665524408221" lon="23.76681829802692">
        <ele>332.4</ele>
        <time>2021-04-10T13:31:03.000Z</time>
      </trkpt>
      <trkpt lat="37.9266488738358" lon="23.76679482869804">
        <ele>332</ele>
        <time>2021-04-10T13:31:09.000Z</time>
      </trkpt>
      <trkpt lat="37.92667452245951" lon="23.766755936667323">
        <ele>330.8</ele>
        <time>2021-04-10T13:31:15.000Z</time>
      </trkpt>
      <trkpt lat="37.92668013833463" lon="23.766714613884687">
        <ele>330.6</ele>
        <time>2021-04-10T13:31:21.000Z</time>
      </trkpt>
      <trkpt lat="37.92667628265917" lon="23.766708495095372">
        <ele>330.6</ele>
        <time>2021-04-10T13:31:23.000Z</time>
      </trkpt>
      <trkpt lat="37.92666295543313" lon="23.766698436811566">
        <ele>330</ele>
        <time>2021-04-10T13:31:29.000Z</time>
      </trkpt>
      <trkpt lat="37.926662620157" lon="23.76669022254646">
        <ele>330</ele>
        <time>2021-04-10T13:31:30.000Z</time>
      </trkpt>
      <trkpt lat="37.92665105313063" lon="23.766639679670334">
        <ele>329.4</ele>
        <time>2021-04-10T13:31:34.000Z</time>
      </trkpt>
      <trkpt lat="37.92664920911193" lon="23.76663163304329">
        <ele>329.2</ele>
        <time>2021-04-10T13:31:35.000Z</time>
      </trkpt>
      <trkpt lat="37.92664736509323" lon="23.76662392169237">
        <ele>329</ele>
        <time>2021-04-10T13:31:37.000Z</time>
      </trkpt>
      <trkpt lat="37.926650550216436" lon="23.76657161861658">
        <ele>328.4</ele>
        <time>2021-04-10T13:31:42.000Z</time>
      </trkpt>
      <trkpt lat="37.926650466397405" lon="23.766558626666665">
        <ele>328.2</ele>
        <time>2021-04-10T13:31:43.000Z</time>
      </trkpt>
      <trkpt lat="37.92665021494031" lon="23.766532810404897">
        <ele>327.8</ele>
        <time>2021-04-10T13:31:45.000Z</time>
      </trkpt>
      <trkpt lat="37.926636803895235" lon="23.76648126170039">
        <ele>327.2</ele>
        <time>2021-04-10T13:31:49.000Z</time>
      </trkpt>
      <trkpt lat="37.926618782803416" lon="23.766456032171845">
        <ele>326.8</ele>
        <time>2021-04-10T13:31:51.000Z</time>
      </trkpt>
      <trkpt lat="37.926609478890896" lon="23.76642988063395">
        <ele>326.2</ele>
        <time>2021-04-10T13:31:53.000Z</time>
      </trkpt>
      <trkpt lat="37.92661031708121" lon="23.766416553407907">
        <ele>325.8</ele>
        <time>2021-04-10T13:31:54.000Z</time>
      </trkpt>
      <trkpt lat="37.92662029154599" lon="23.76635704189539">
        <ele>324.8</ele>
        <time>2021-04-10T13:31:58.000Z</time>
      </trkpt>
      <trkpt lat="37.92662389576435" lon="23.766297865659">
        <ele>323.8</ele>
        <time>2021-04-10T13:32:03.000Z</time>
      </trkpt>
      <trkpt lat="37.9266163520515" lon="23.766283113509417">
        <ele>323.6</ele>
        <time>2021-04-10T13:32:05.000Z</time>
      </trkpt>
      <trkpt lat="37.92661744169891" lon="23.7662545312196">
        <ele>322.8</ele>
        <time>2021-04-10T13:32:08.000Z</time>
      </trkpt>
      <trkpt lat="37.92661551386118" lon="23.766248496249318">
        <ele>322.4</ele>
        <time>2021-04-10T13:32:09.000Z</time>
      </trkpt>
      <trkpt lat="37.926614843308926" lon="23.76624472439289">
        <ele>322.2</ele>
        <time>2021-04-10T13:32:10.000Z</time>
      </trkpt>
      <trkpt lat="37.926596738398075" lon="23.766222009435296">
        <ele>321.4</ele>
        <time>2021-04-10T13:32:15.000Z</time>
      </trkpt>
      <trkpt lat="37.926594307646155" lon="23.766216980293393">
        <ele>321.2</ele>
        <time>2021-04-10T13:32:16.000Z</time>
      </trkpt>
      <trkpt lat="37.92657796293497" lon="23.76613140106201">
        <ele>320.6</ele>
        <time>2021-04-10T13:32:21.000Z</time>
      </trkpt>
      <trkpt lat="37.92656471952796" lon="23.766115056350827">
        <ele>320.2</ele>
        <time>2021-04-10T13:32:23.000Z</time>
      </trkpt>
      <trkpt lat="37.92655843310058" lon="23.766078762710094">
        <ele>319.4</ele>
        <time>2021-04-10T13:32:26.000Z</time>
      </trkpt>
      <trkpt lat="37.92656019330025" lon="23.766067111864686">
        <ele>319.2</ele>
        <time>2021-04-10T13:32:27.000Z</time>
      </trkpt>
      <trkpt lat="37.926563043147326" lon="23.766057221218944">
        <ele>319.2</ele>
        <time>2021-04-10T13:32:28.000Z</time>
      </trkpt>
      <trkpt lat="37.92657058686018" lon="23.766031740233302">
        <ele>319.4</ele>
        <time>2021-04-10T13:32:32.000Z</time>
      </trkpt>
      <trkpt lat="37.926560025662184" lon="23.7660179939121">
        <ele>319.2</ele>
        <time>2021-04-10T13:32:34.000Z</time>
      </trkpt>
      <trkpt lat="37.92655457742512" lon="23.765982622280717">
        <ele>318.2</ele>
        <time>2021-04-10T13:32:38.000Z</time>
      </trkpt>
      <trkpt lat="37.92655348777771" lon="23.765987316146493">
        <ele>317.8</ele>
        <time>2021-04-10T13:32:39.000Z</time>
      </trkpt>
      <trkpt lat="37.926562037318945" lon="23.765961416065693">
        <ele>317.4</ele>
        <time>2021-04-10T13:32:44.000Z</time>
      </trkpt>
      <trkpt lat="37.926609897986054" lon="23.765968959778547">
        <ele>317.4</ele>
        <time>2021-04-10T13:32:50.000Z</time>
      </trkpt>
      <trkpt lat="37.926642671227455" lon="23.765942472964525">
        <ele>316.8</ele>
        <time>2021-04-10T13:32:54.000Z</time>
      </trkpt>
      <trkpt lat="37.926640743389726" lon="23.765943814069033">
        <ele>316.6</ele>
        <time>2021-04-10T13:32:55.000Z</time>
      </trkpt>
      <trkpt lat="37.92664049193263" lon="23.76594079658389">
        <ele>316.4</ele>
        <time>2021-04-10T13:32:57.000Z</time>
      </trkpt>
      <trkpt lat="37.92665566317737" lon="23.765912633389235">
        <ele>316.4</ele>
        <time>2021-04-10T13:33:00.000Z</time>
      </trkpt>
      <trkpt lat="37.926663709804416" lon="23.765857396647334">
        <ele>316.2</ele>
        <time>2021-04-10T13:33:05.000Z</time>
      </trkpt>
      <trkpt lat="37.926667649298906" lon="23.76585337333381">
        <ele>316</ele>
        <time>2021-04-10T13:33:06.000Z</time>
      </trkpt>
      <trkpt lat="37.92668357491493" lon="23.765844153240323">
        <ele>315.6</ele>
        <time>2021-04-10T13:33:09.000Z</time>
      </trkpt>
      <trkpt lat="37.92669044807553" lon="23.765830993652344">
        <ele>314.8</ele>
        <time>2021-04-10T13:33:12.000Z</time>
      </trkpt>
      <trkpt lat="37.926687179133296" lon="23.76582697033882">
        <ele>314.4</ele>
        <time>2021-04-10T13:33:13.000Z</time>
      </trkpt>
      <trkpt lat="37.926677875220776" lon="23.76582839526236">
        <ele>314.2</ele>
        <time>2021-04-10T13:33:17.000Z</time>
      </trkpt>
      <trkpt lat="37.92672070674598" lon="23.76580107025802">
        <ele>313.6</ele>
        <time>2021-04-10T13:33:22.000Z</time>
      </trkpt>
      <trkpt lat="37.926729591563344" lon="23.765791850164533">
        <ele>313.4</ele>
        <time>2021-04-10T13:33:23.000Z</time>
      </trkpt>
      <trkpt lat="37.92672439478338" lon="23.765763184055686">
        <ele>312.8</ele>
        <time>2021-04-10T13:33:26.000Z</time>
      </trkpt>
      <trkpt lat="37.92671676725149" lon="23.765736110508442">
        <ele>312.6</ele>
        <time>2021-04-10T13:33:28.000Z</time>
      </trkpt>
      <trkpt lat="37.926716012880206" lon="23.76571264117956">
        <ele>312.2</ele>
        <time>2021-04-10T13:33:30.000Z</time>
      </trkpt>
      <trkpt lat="37.92671953327954" lon="23.765681041404605">
        <ele>311.2</ele>
        <time>2021-04-10T13:33:33.000Z</time>
      </trkpt>
      <trkpt lat="37.926724227145314" lon="23.765667965635657">
        <ele>310.2</ele>
        <time>2021-04-10T13:33:38.000Z</time>
      </trkpt>
      <trkpt lat="37.92670553550124" lon="23.76575362868607">
        <ele>310</ele>
        <time>2021-04-10T13:33:46.000Z</time>
      </trkpt>
      <trkpt lat="37.92670536786318" lon="23.765758741647005">
        <ele>310</ele>
        <time>2021-04-10T13:33:50.000Z</time>
      </trkpt>
      <trkpt lat="37.92671978473663" lon="23.76571892760694">
        <ele>310</ele>
        <time>2021-04-10T13:33:57.000Z</time>
      </trkpt>
      <trkpt lat="37.926722299307585" lon="23.765717335045338">
        <ele>310</ele>
        <time>2021-04-10T13:33:58.000Z</time>
      </trkpt>
      <trkpt lat="37.926704781129956" lon="23.765682131052017">
        <ele>310.2</ele>
        <time>2021-04-10T13:34:05.000Z</time>
      </trkpt>
      <trkpt lat="37.926703272387385" lon="23.76567735336721">
        <ele>309.2</ele>
        <time>2021-04-10T13:34:10.000Z</time>
      </trkpt>
      <trkpt lat="37.92670293711126" lon="23.76568271778524">
        <ele>309</ele>
        <time>2021-04-10T13:34:11.000Z</time>
      </trkpt>
      <trkpt lat="37.9267268255353" lon="23.76569394953549">
        <ele>308</ele>
        <time>2021-04-10T13:34:18.000Z</time>
      </trkpt>
      <trkpt lat="37.92673923075199" lon="23.76571155153215">
        <ele>308.4</ele>
        <time>2021-04-10T13:34:30.000Z</time>
      </trkpt>
      <trkpt lat="37.92671274393797" lon="23.765696296468377">
        <ele>308.4</ele>
        <time>2021-04-10T13:34:38.000Z</time>
      </trkpt>
      <trkpt lat="37.92670503258705" lon="23.765684058889747">
        <ele>308.4</ele>
        <time>2021-04-10T13:34:40.000Z</time>
      </trkpt>
      <trkpt lat="37.92670142836869" lon="23.76568280160427">
        <ele>308.4</ele>
        <time>2021-04-10T13:34:43.000Z</time>
      </trkpt>
      <trkpt lat="37.92671609669924" lon="23.76567450352013">
        <ele>308</ele>
        <time>2021-04-10T13:34:47.000Z</time>
      </trkpt>
      <trkpt lat="37.92672347277403" lon="23.765676096081734">
        <ele>307.8</ele>
        <time>2021-04-10T13:34:48.000Z</time>
      </trkpt>
      <trkpt lat="37.92672833427787" lon="23.76569881103933">
        <ele>307.4</ele>
        <time>2021-04-10T13:34:52.000Z</time>
      </trkpt>
      <trkpt lat="37.92673470452428" lon="23.76566117629409">
        <ele>307.2</ele>
        <time>2021-04-10T13:34:57.000Z</time>
      </trkpt>
      <trkpt lat="37.92676865123212" lon="23.765588337555528">
        <ele>307.4</ele>
        <time>2021-04-10T13:35:03.000Z</time>
      </trkpt>
      <trkpt lat="37.92678499594331" lon="23.765578782185912">
        <ele>307</ele>
        <time>2021-04-10T13:35:05.000Z</time>
      </trkpt>
      <trkpt lat="37.92678751051426" lon="23.76557576470077">
        <ele>306.6</ele>
        <time>2021-04-10T13:35:06.000Z</time>
      </trkpt>
      <trkpt lat="37.92678650468588" lon="23.765575429424644">
        <ele>305.8</ele>
        <time>2021-04-10T13:35:08.000Z</time>
      </trkpt>
      <trkpt lat="37.92678122408688" lon="23.765577105805278">
        <ele>305.6</ele>
        <time>2021-04-10T13:35:10.000Z</time>
      </trkpt>
      <trkpt lat="37.92678130790591" lon="23.765580542385578">
        <ele>305.2</ele>
        <time>2021-04-10T13:35:12.000Z</time>
      </trkpt>
      <trkpt lat="37.92677870951593" lon="23.76558213494718">
        <ele>305</ele>
        <time>2021-04-10T13:35:14.000Z</time>
      </trkpt>
      <trkpt lat="37.92677477002144" lon="23.765577608719468">
        <ele>304.8</ele>
        <time>2021-04-10T13:35:15.000Z</time>
      </trkpt>
      <trkpt lat="37.926746774464846" lon="23.765576602891088">
        <ele>305</ele>
        <time>2021-04-10T13:35:22.000Z</time>
      </trkpt>
      <trkpt lat="37.92677644640207" lon="23.765631839632988">
        <ele>305.2</ele>
        <time>2021-04-10T13:35:28.000Z</time>
      </trkpt>
      <trkpt lat="37.92680595070124" lon="23.76564860343933">
        <ele>306</ele>
        <time>2021-04-10T13:35:34.000Z</time>
      </trkpt>
      <trkpt lat="37.926824893802404" lon="23.76558649353683">
        <ele>306</ele>
        <time>2021-04-10T13:35:40.000Z</time>
      </trkpt>
      <trkpt lat="37.92685850523412" lon="23.7655845656991">
        <ele>305.4</ele>
        <time>2021-04-10T13:35:45.000Z</time>
      </trkpt>
      <trkpt lat="37.92685934342444" lon="23.765577357262373">
        <ele>304.4</ele>
        <time>2021-04-10T13:35:48.000Z</time>
      </trkpt>
      <trkpt lat="37.92685464955866" lon="23.765576016157866">
        <ele>304.2</ele>
        <time>2021-04-10T13:35:49.000Z</time>
      </trkpt>
      <trkpt lat="37.92689002119005" lon="23.765577608719468">
        <ele>303.2</ele>
        <time>2021-04-10T13:35:55.000Z</time>
      </trkpt>
      <trkpt lat="37.9268700722605" lon="23.76560694538057">
        <ele>302.8</ele>
        <time>2021-04-10T13:36:01.000Z</time>
      </trkpt>
      <trkpt lat="37.92690368369222" lon="23.765577105805278">
        <ele>302.6</ele>
        <time>2021-04-10T13:36:10.000Z</time>
      </trkpt>
      <trkpt lat="37.92690091766417" lon="23.765533352270722">
        <ele>302.8</ele>
        <time>2021-04-10T13:36:12.000Z</time>
      </trkpt>
      <trkpt lat="37.92690837755799" lon="23.76553268171847">
        <ele>302.8</ele>
        <time>2021-04-10T13:36:14.000Z</time>
      </trkpt>
      <trkpt lat="37.92700049467385" lon="23.765615494921803">
        <ele>303.2</ele>
        <time>2021-04-10T13:36:21.000Z</time>
      </trkpt>
      <trkpt lat="37.92701382189989" lon="23.76562957651913">
        <ele>303.2</ele>
        <time>2021-04-10T13:36:22.000Z</time>
      </trkpt>
      <trkpt lat="37.92704349383712" lon="23.765637455508113">
        <ele>303.4</ele>
        <time>2021-04-10T13:36:24.000Z</time>
      </trkpt>
      <trkpt lat="37.92705715633929" lon="23.76564416103065">
        <ele>303.2</ele>
        <time>2021-04-10T13:36:25.000Z</time>
      </trkpt>
      <trkpt lat="37.927084816619754" lon="23.76566855236888">
        <ele>303.2</ele>
        <time>2021-04-10T13:36:27.000Z</time>
      </trkpt>
      <trkpt lat="37.92712865397334" lon="23.765741139650345">
        <ele>302.4</ele>
        <time>2021-04-10T13:36:32.000Z</time>
      </trkpt>
      <trkpt lat="37.92715732008219" lon="23.76577466726303">
        <ele>302.4</ele>
        <time>2021-04-10T13:36:34.000Z</time>
      </trkpt>
      <trkpt lat="37.92718489654362" lon="23.765814816579223">
        <ele>302.6</ele>
        <time>2021-04-10T13:36:36.000Z</time>
      </trkpt>
      <trkpt lat="37.927236109972" lon="23.76591430976987">
        <ele>304.4</ele>
        <time>2021-04-10T13:36:43.000Z</time>
      </trkpt>
      <trkpt lat="37.92725656181574" lon="23.76594800502062">
        <ele>304.4</ele>
        <time>2021-04-10T13:36:46.000Z</time>
      </trkpt>
      <trkpt lat="37.92727810330689" lon="23.765971725806594">
        <ele>303.4</ele>
        <time>2021-04-10T13:36:49.000Z</time>
      </trkpt>
      <trkpt lat="37.92728405445814" lon="23.765983376652002">
        <ele>303.4</ele>
        <time>2021-04-10T13:36:50.000Z</time>
      </trkpt>
      <trkpt lat="37.92732018046081" lon="23.766027381643653">
        <ele>303.4</ele>
        <time>2021-04-10T13:36:55.000Z</time>
      </trkpt>
      <trkpt lat="37.92732956819236" lon="23.766028974205256">
        <ele>303.6</ele>
        <time>2021-04-10T13:36:56.000Z</time>
      </trkpt>
      <trkpt lat="37.92734105139971" lon="23.766035344451666">
        <ele>303.8</ele>
        <time>2021-04-10T13:36:57.000Z</time>
      </trkpt>
      <trkpt lat="37.92736234143376" lon="23.76605990342796">
        <ele>304</ele>
        <time>2021-04-10T13:36:59.000Z</time>
      </trkpt>
      <trkpt lat="37.92739352211356" lon="23.766103154048324">
        <ele>304.2</ele>
        <time>2021-04-10T13:37:01.000Z</time>
      </trkpt>
      <trkpt lat="37.92740307748318" lon="23.766124779358506">
        <ele>304.4</ele>
        <time>2021-04-10T13:37:02.000Z</time>
      </trkpt>
      <trkpt lat="37.92743149213493" lon="23.76619292423129">
        <ele>304.8</ele>
        <time>2021-04-10T13:37:09.000Z</time>
      </trkpt>
      <trkpt lat="37.92746610939503" lon="23.76623399555683">
        <ele>305</ele>
        <time>2021-04-10T13:37:12.000Z</time>
      </trkpt>
      <trkpt lat="37.927551520988345" lon="23.766299122944474">
        <ele>305</ele>
        <time>2021-04-10T13:37:18.000Z</time>
      </trkpt>
      <trkpt lat="37.927563758566976" lon="23.766351342201233">
        <ele>304.4</ele>
        <time>2021-04-10T13:37:22.000Z</time>
      </trkpt>
      <trkpt lat="37.92757574468851" lon="23.766369447112083">
        <ele>304.4</ele>
        <time>2021-04-10T13:37:24.000Z</time>
      </trkpt>
      <trkpt lat="37.92759661562741" lon="23.766395766288042">
        <ele>304.4</ele>
        <time>2021-04-10T13:37:26.000Z</time>
      </trkpt>
      <trkpt lat="37.92767004109919" lon="23.766519650816917">
        <ele>305.6</ele>
        <time>2021-04-10T13:37:33.000Z</time>
      </trkpt>
      <trkpt lat="37.92774388566613" lon="23.76661746762693">
        <ele>305</ele>
        <time>2021-04-10T13:37:43.000Z</time>
      </trkpt>
      <trkpt lat="37.92782577686012" lon="23.766748141497374">
        <ele>304.6</ele>
        <time>2021-04-10T13:37:50.000Z</time>
      </trkpt>
      <trkpt lat="37.92783415876329" lon="23.76677244901657">
        <ele>304.6</ele>
        <time>2021-04-10T13:37:51.000Z</time>
      </trkpt>
      <trkpt lat="37.927869111299515" lon="23.766817962750793">
        <ele>305.4</ele>
        <time>2021-04-10T13:37:57.000Z</time>
      </trkpt>
      <trkpt lat="37.92787481099367" lon="23.76682860776782">
        <ele>305.6</ele>
        <time>2021-04-10T13:37:58.000Z</time>
      </trkpt>
      <trkpt lat="37.92789249680936" lon="23.76684428192675">
        <ele>305.6</ele>
        <time>2021-04-10T13:38:00.000Z</time>
      </trkpt>
      <trkpt lat="37.927964832633734" lon="23.766928520053625">
        <ele>306.6</ele>
        <time>2021-04-10T13:38:07.000Z</time>
      </trkpt>
      <trkpt lat="37.92805946432054" lon="23.76703874208033">
        <ele>307.4</ele>
        <time>2021-04-10T13:38:16.000Z</time>
      </trkpt>
      <trkpt lat="37.928117299452424" lon="23.767109401524067">
        <ele>307.6</ele>
        <time>2021-04-10T13:38:22.000Z</time>
      </trkpt>
      <trkpt lat="37.92814093641937" lon="23.767143515869975">
        <ele>308</ele>
        <time>2021-04-10T13:38:24.000Z</time>
      </trkpt>
      <trkpt lat="37.928188210353255" lon="23.767203697934747">
        <ele>308.2</ele>
        <time>2021-04-10T13:38:29.000Z</time>
      </trkpt>
      <trkpt lat="37.928234646096826" lon="23.767265053465962">
        <ele>308.6</ele>
        <time>2021-04-10T13:38:33.000Z</time>
      </trkpt>
      <trkpt lat="37.928246883675456" lon="23.767282823100686">
        <ele>308.6</ele>
        <time>2021-04-10T13:38:34.000Z</time>
      </trkpt>
      <trkpt lat="37.92834193445742" lon="23.76749019138515">
        <ele>308.4</ele>
        <time>2021-04-10T13:38:42.000Z</time>
      </trkpt>
      <trkpt lat="37.928446540609" lon="23.767568981274962">
        <ele>309.4</ele>
        <time>2021-04-10T13:38:53.000Z</time>
      </trkpt>
      <trkpt lat="37.92854117229581" lon="23.767722537741065">
        <ele>309.8</ele>
        <time>2021-04-10T13:39:02.000Z</time>
      </trkpt>
      <trkpt lat="37.92857394553721" lon="23.767755394801497">
        <ele>310</ele>
        <time>2021-04-10T13:39:05.000Z</time>
      </trkpt>
      <trkpt lat="37.928654830902815" lon="23.767772242426872">
        <ele>309.8</ele>
        <time>2021-04-10T13:39:12.000Z</time>
      </trkpt>
      <trkpt lat="37.928813667967916" lon="23.767950357869267">
        <ele>309.8</ele>
        <time>2021-04-10T13:39:24.000Z</time>
      </trkpt>
      <trkpt lat="37.928881561383605" lon="23.76795538701117">
        <ele>310.6</ele>
        <time>2021-04-10T13:39:34.000Z</time>
      </trkpt>
      <trkpt lat="37.928888937458396" lon="23.767965277656913">
        <ele>310.4</ele>
        <time>2021-04-10T13:39:35.000Z</time>
      </trkpt>
      <trkpt lat="37.92889882810414" lon="23.767976760864258">
        <ele>310.4</ele>
        <time>2021-04-10T13:39:36.000Z</time>
      </trkpt>
      <trkpt lat="37.928938223049045" lon="23.767994279041886">
        <ele>310</ele>
        <time>2021-04-10T13:39:41.000Z</time>
      </trkpt>
      <trkpt lat="37.928942162543535" lon="23.767987908795476">
        <ele>310</ele>
        <time>2021-04-10T13:39:42.000Z</time>
      </trkpt>
      <trkpt lat="37.9289457667619" lon="23.76797248609364">
        <ele>310.2</ele>
        <time>2021-04-10T13:39:43.000Z</time>
      </trkpt>
      <trkpt lat="37.92895624414086" lon="23.767960164695978">
        <ele>310.2</ele>
        <time>2021-04-10T13:39:44.000Z</time>
      </trkpt>
      <trkpt lat="37.92898474261165" lon="23.767919847741723">
        <ele>310.4</ele>
        <time>2021-04-10T13:39:47.000Z</time>
      </trkpt>
      <trkpt lat="37.929041823372245" lon="23.767896881327033">
        <ele>310.8</ele>
        <time>2021-04-10T13:39:52.000Z</time>
      </trkpt>
      <trkpt lat="37.92905322276056" lon="23.767896629869938">
        <ele>310.6</ele>
        <time>2021-04-10T13:39:54.000Z</time>
      </trkpt>
      <trkpt lat="37.92905573733151" lon="23.76788933761418">
        <ele>310.4</ele>
        <time>2021-04-10T13:39:56.000Z</time>
      </trkpt>
      <trkpt lat="37.92905867099762" lon="23.767894534394145">
        <ele>309.8</ele>
        <time>2021-04-10T13:40:00.000Z</time>
      </trkpt>
      <trkpt lat="37.92906210757792" lon="23.767892941832542">
        <ele>309.8</ele>
        <time>2021-04-10T13:40:01.000Z</time>
      </trkpt>
      <trkpt lat="37.92907007038593" lon="23.767912974581122">
        <ele>309.8</ele>
        <time>2021-04-10T13:40:07.000Z</time>
      </trkpt>
      <trkpt lat="37.92907149530947" lon="23.767916578799486">
        <ele>310</ele>
        <time>2021-04-10T13:40:09.000Z</time>
      </trkpt>
      <trkpt lat="37.929070154204965" lon="23.767915572971106">
        <ele>310</ele>
        <time>2021-04-10T13:40:18.000Z</time>
      </trkpt>
      <trkpt lat="37.92907568626106" lon="23.767910627648234">
        <ele>309.6</ele>
        <time>2021-04-10T13:40:21.000Z</time>
      </trkpt>
      <trkpt lat="37.92910259217024" lon="23.767911633476615">
        <ele>309.4</ele>
        <time>2021-04-10T13:40:24.000Z</time>
      </trkpt>
      <trkpt lat="37.929130252450705" lon="23.767914986237884">
        <ele>309.2</ele>
        <time>2021-04-10T13:40:26.000Z</time>
      </trkpt>
      <trkpt lat="37.92919806204736" lon="23.767898976802826">
        <ele>309</ele>
        <time>2021-04-10T13:40:32.000Z</time>
      </trkpt>
      <trkpt lat="37.92920828796923" lon="23.767899479717016">
        <ele>308.6</ele>
        <time>2021-04-10T13:40:33.000Z</time>
      </trkpt>
      <trkpt lat="37.92923946864903" lon="23.767899060621858">
        <ele>308</ele>
        <time>2021-04-10T13:40:35.000Z</time>
      </trkpt>
      <trkpt lat="37.92930920608342" lon="23.76792697235942">
        <ele>307.4</ele>
        <time>2021-04-10T13:40:41.000Z</time>
      </trkpt>
      <trkpt lat="37.92934256605804" lon="23.767937449738383">
        <ele>306.6</ele>
        <time>2021-04-10T13:40:43.000Z</time>
      </trkpt>
      <trkpt lat="37.929362347349524" lon="23.767952118068933">
        <ele>306.2</ele>
        <time>2021-04-10T13:40:44.000Z</time>
      </trkpt>
      <trkpt lat="37.929444490000606" lon="23.767969720065594">
        <ele>305.4</ele>
        <time>2021-04-10T13:40:50.000Z</time>
      </trkpt>
      <trkpt lat="37.92946963571012" lon="23.767982879653573">
        <ele>305.2</ele>
        <time>2021-04-10T13:40:52.000Z</time>
      </trkpt>
      <trkpt lat="37.929502157494426" lon="23.7680125515908">
        <ele>304.8</ele>
        <time>2021-04-10T13:40:56.000Z</time>
      </trkpt>
      <trkpt lat="37.92951012030244" lon="23.768019760027528">
        <ele>304.6</ele>
        <time>2021-04-10T13:40:57.000Z</time>
      </trkpt>
      <trkpt lat="37.92952353134751" lon="23.768016658723354">
        <ele>304.2</ele>
        <time>2021-04-10T13:41:00.000Z</time>
      </trkpt>
      <trkpt lat="37.9295174125582" lon="23.768012803047895">
        <ele>303.6</ele>
        <time>2021-04-10T13:41:04.000Z</time>
      </trkpt>
      <trkpt lat="37.929551443085074" lon="23.768000062555075">
        <ele>304.2</ele>
        <time>2021-04-10T13:41:13.000Z</time>
      </trkpt>
      <trkpt lat="37.92956292629242" lon="23.768014227971435">
        <ele>304</ele>
        <time>2021-04-10T13:41:17.000Z</time>
      </trkpt>
      <trkpt lat="37.9295499343425" lon="23.768044989556074">
        <ele>303.8</ele>
        <time>2021-04-10T13:41:21.000Z</time>
      </trkpt>
      <trkpt lat="37.929584635421634" lon="23.76804331317544">
        <ele>304.4</ele>
        <time>2021-04-10T13:41:29.000Z</time>
      </trkpt>
      <trkpt lat="37.92958312667906" lon="23.768043229356408">
        <ele>304.4</ele>
        <time>2021-04-10T13:41:30.000Z</time>
      </trkpt>
      <trkpt lat="37.929574409499764" lon="23.768040966242552">
        <ele>303.8</ele>
        <time>2021-04-10T13:41:35.000Z</time>
      </trkpt>
      <trkpt lat="37.929562674835324" lon="23.768039625138044">
        <ele>303.6</ele>
        <time>2021-04-10T13:41:37.000Z</time>
      </trkpt>
      <trkpt lat="37.9295464977622" lon="23.768043145537376">
        <ele>303.2</ele>
        <time>2021-04-10T13:41:40.000Z</time>
      </trkpt>
      <trkpt lat="37.929538283497095" lon="23.768048509955406">
        <ele>303.4</ele>
        <time>2021-04-10T13:41:42.000Z</time>
      </trkpt>
      <trkpt lat="37.929537361487746" lon="23.76805496402085">
        <ele>303.4</ele>
        <time>2021-04-10T13:41:43.000Z</time>
      </trkpt>
      <trkpt lat="37.92954155243933" lon="23.768059154972434">
        <ele>303.4</ele>
        <time>2021-04-10T13:41:44.000Z</time>
      </trkpt>
      <trkpt lat="37.92953400872648" lon="23.76807013526559">
        <ele>303.4</ele>
        <time>2021-04-10T13:41:47.000Z</time>
      </trkpt>
      <trkpt lat="37.929555801674724" lon="23.76805362291634">
        <ele>303.6</ele>
        <time>2021-04-10T13:41:56.000Z</time>
      </trkpt>
      <trkpt lat="37.92956502176821" lon="23.768054377287626">
        <ele>303.6</ele>
        <time>2021-04-10T13:41:58.000Z</time>
      </trkpt>
      <trkpt lat="37.92961279861629" lon="23.76807315275073">
        <ele>303.2</ele>
        <time>2021-04-10T13:42:03.000Z</time>
      </trkpt>
      <trkpt lat="37.929623275995255" lon="23.768083043396473">
        <ele>303</ele>
        <time>2021-04-10T13:42:04.000Z</time>
      </trkpt>
      <trkpt lat="37.92971455492079" lon="23.768109949305654">
        <ele>302.8</ele>
        <time>2021-04-10T13:42:11.000Z</time>
      </trkpt>
      <trkpt lat="37.929746992886066" lon="23.768109865486622">
        <ele>302.4</ele>
        <time>2021-04-10T13:42:13.000Z</time>
      </trkpt>
      <trkpt lat="37.92977683246136" lon="23.76809762790799">
        <ele>302</ele>
        <time>2021-04-10T13:42:15.000Z</time>
      </trkpt>
      <trkpt lat="37.92979099787772" lon="23.768088659271598">
        <ele>301.8</ele>
        <time>2021-04-10T13:42:16.000Z</time>
      </trkpt>
      <trkpt lat="37.92982502840459" lon="23.76806342974305">
        <ele>301.6</ele>
        <time>2021-04-10T13:42:19.000Z</time>
      </trkpt>
      <trkpt lat="37.9298385232687" lon="23.76805169507861">
        <ele>301.6</ele>
        <time>2021-04-10T13:42:20.000Z</time>
      </trkpt>
      <trkpt lat="37.92986936867237" lon="23.768023028969765">
        <ele>301</ele>
        <time>2021-04-10T13:42:23.000Z</time>
      </trkpt>
      <trkpt lat="37.9298990406096" lon="23.76798866316676">
        <ele>300.4</ele>
        <time>2021-04-10T13:42:26.000Z</time>
      </trkpt>
      <trkpt lat="37.92990901507437" lon="23.767976677045226">
        <ele>300.4</ele>
        <time>2021-04-10T13:42:27.000Z</time>
      </trkpt>
      <trkpt lat="37.92994011193514" lon="23.76794323325157">
        <ele>300</ele>
        <time>2021-04-10T13:42:30.000Z</time>
      </trkpt>
      <trkpt lat="37.9299489967525" lon="23.767934599891305">
        <ele>299.8</ele>
        <time>2021-04-10T13:42:31.000Z</time>
      </trkpt>
      <trkpt lat="37.930001970380545" lon="23.7678796146065">
        <ele>298.8</ele>
        <time>2021-04-10T13:42:36.000Z</time>
      </trkpt>
      <trkpt lat="37.93001261539757" lon="23.767869975417852">
        <ele>298.6</ele>
        <time>2021-04-10T13:42:37.000Z</time>
      </trkpt>
      <trkpt lat="37.93009073473513" lon="23.76786352135241">
        <ele>298</ele>
        <time>2021-04-10T13:42:43.000Z</time>
      </trkpt>
      <trkpt lat="37.930184779688716" lon="23.76783024519682">
        <ele>297.8</ele>
        <time>2021-04-10T13:42:49.000Z</time>
      </trkpt>
      <trkpt lat="37.930290726944804" lon="23.767772745341063">
        <ele>298</ele>
        <time>2021-04-10T13:42:57.000Z</time>
      </trkpt>
      <trkpt lat="37.930301539599895" lon="23.76776620745659">
        <ele>298</ele>
        <time>2021-04-10T13:42:59.000Z</time>
      </trkpt>
      <trkpt lat="37.93029231950641" lon="23.767758160829544">
        <ele>297.8</ele>
        <time>2021-04-10T13:43:03.000Z</time>
      </trkpt>
      <trkpt lat="37.93028946965933" lon="23.76775212585926">
        <ele>297.6</ele>
        <time>2021-04-10T13:43:05.000Z</time>
      </trkpt>
      <trkpt lat="37.93029449880123" lon="23.767752461135387">
        <ele>297.4</ele>
        <time>2021-04-10T13:43:10.000Z</time>
      </trkpt>
      <trkpt lat="37.93029936030507" lon="23.767752712592483">
        <ele>297.6</ele>
        <time>2021-04-10T13:43:12.000Z</time>
      </trkpt>
      <trkpt lat="37.93036817573011" lon="23.767724884673953">
        <ele>297.4</ele>
        <time>2021-04-10T13:43:20.000Z</time>
      </trkpt>
      <trkpt lat="37.93039281852543" lon="23.7676930334419">
        <ele>297.4</ele>
        <time>2021-04-10T13:43:23.000Z</time>
      </trkpt>
      <trkpt lat="37.9304255079478" lon="23.767641065642238">
        <ele>297.4</ele>
        <time>2021-04-10T13:43:27.000Z</time>
      </trkpt>
      <trkpt lat="37.930448558181524" lon="23.7676118966192">
        <ele>297.6</ele>
        <time>2021-04-10T13:43:30.000Z</time>
      </trkpt>
      <trkpt lat="37.93049231171608" lon="23.76756646670401">
        <ele>298.2</ele>
        <time>2021-04-10T13:43:34.000Z</time>
      </trkpt>
      <trkpt lat="37.93054620735347" lon="23.76747409813106">
        <ele>298.6</ele>
        <time>2021-04-10T13:43:40.000Z</time>
      </trkpt>
      <trkpt lat="37.93055232614279" lon="23.767438977956772">
        <ele>298.4</ele>
        <time>2021-04-10T13:43:42.000Z</time>
      </trkpt>
      <trkpt lat="37.93055257759988" lon="23.76741928048432">
        <ele>298.4</ele>
        <time>2021-04-10T13:43:43.000Z</time>
      </trkpt>
      <trkpt lat="37.930557522922754" lon="23.767386507242918">
        <ele>298.2</ele>
        <time>2021-04-10T13:43:45.000Z</time>
      </trkpt>
      <trkpt lat="37.93056037276983" lon="23.76737049780786">
        <ele>298</ele>
        <time>2021-04-10T13:43:46.000Z</time>
      </trkpt>
      <trkpt lat="37.930566826835275" lon="23.76735683530569">
        <ele>297.8</ele>
        <time>2021-04-10T13:43:47.000Z</time>
      </trkpt>
      <trkpt lat="37.93058945797384" lon="23.767313668504357">
        <ele>297.6</ele>
        <time>2021-04-10T13:43:50.000Z</time>
      </trkpt>
      <trkpt lat="37.9305983427912" lon="23.767295815050602">
        <ele>297.6</ele>
        <time>2021-04-10T13:43:51.000Z</time>
      </trkpt>
      <trkpt lat="37.930600605905056" lon="23.76727762632072">
        <ele>297.4</ele>
        <time>2021-04-10T13:43:52.000Z</time>
      </trkpt>
      <trkpt lat="37.93058233335614" lon="23.767238901928067">
        <ele>296.2</ele>
        <time>2021-04-10T13:43:55.000Z</time>
      </trkpt>
      <trkpt lat="37.93056841939688" lon="23.767220210283995">
        <ele>295.4</ele>
        <time>2021-04-10T13:43:57.000Z</time>
      </trkpt>
      <trkpt lat="37.9305618815124" lon="23.76721015200019">
        <ele>295</ele>
        <time>2021-04-10T13:43:58.000Z</time>
      </trkpt>
      <trkpt lat="37.930557606741786" lon="23.767199087888002">
        <ele>295</ele>
        <time>2021-04-10T13:43:59.000Z</time>
      </trkpt>
      <trkpt lat="37.93054738081992" lon="23.76716338098049">
        <ele>294.4</ele>
        <time>2021-04-10T13:44:02.000Z</time>
      </trkpt>
      <trkpt lat="37.930542854592204" lon="23.767127925530076">
        <ele>294</ele>
        <time>2021-04-10T13:44:04.000Z</time>
      </trkpt>
      <trkpt lat="37.93052759952843" lon="23.767044777050614">
        <ele>293</ele>
        <time>2021-04-10T13:44:09.000Z</time>
      </trkpt>
      <trkpt lat="37.930523827672005" lon="23.767012087628245">
        <ele>292.4</ele>
        <time>2021-04-10T13:44:11.000Z</time>
      </trkpt>
      <trkpt lat="37.930516451597214" lon="23.766969926655293">
        <ele>291.6</ele>
        <time>2021-04-10T13:44:13.000Z</time>
      </trkpt>
      <trkpt lat="37.93050547130406" lon="23.76689650118351">
        <ele>290.8</ele>
        <time>2021-04-10T13:44:19.000Z</time>
      </trkpt>
      <trkpt lat="37.93050446547568" lon="23.76690085977316">
        <ele>290.6</ele>
        <time>2021-04-10T13:44:20.000Z</time>
      </trkpt>
      <trkpt lat="37.93051393702626" lon="23.766922652721405">
        <ele>290.2</ele>
        <time>2021-04-10T13:44:23.000Z</time>
      </trkpt>
      <trkpt lat="37.930527767166495" lon="23.76693556085229">
        <ele>290.2</ele>
        <time>2021-04-10T13:44:28.000Z</time>
      </trkpt>
      <trkpt lat="37.930539920926094" lon="23.766903625801206">
        <ele>290.2</ele>
        <time>2021-04-10T13:44:31.000Z</time>
      </trkpt>
      <trkpt lat="37.93054763227701" lon="23.76683682203293">
        <ele>289.6</ele>
        <time>2021-04-10T13:44:35.000Z</time>
      </trkpt>
      <trkpt lat="37.9305518232286" lon="23.766817040741444">
        <ele>289.6</ele>
        <time>2021-04-10T13:44:36.000Z</time>
      </trkpt>
      <trkpt lat="37.93056657537818" lon="23.766786782070994">
        <ele>289.2</ele>
        <time>2021-04-10T13:44:38.000Z</time>
      </trkpt>
      <trkpt lat="37.93060119263828" lon="23.766736825928092">
        <ele>288.4</ele>
        <time>2021-04-10T13:44:42.000Z</time>
      </trkpt>
      <trkpt lat="37.93064754456282" lon="23.76668200828135">
        <ele>287.2</ele>
        <time>2021-04-10T13:44:47.000Z</time>
      </trkpt>
      <trkpt lat="37.93066564947367" lon="23.766668429598212">
        <ele>286.8</ele>
        <time>2021-04-10T13:44:49.000Z</time>
      </trkpt>
      <trkpt lat="37.93069565668702" lon="23.76663942821324">
        <ele>286</ele>
        <time>2021-04-10T13:44:52.000Z</time>
      </trkpt>
      <trkpt lat="37.93070227839053" lon="23.76663557253778">
        <ele>285.8</ele>
        <time>2021-04-10T13:44:53.000Z</time>
      </trkpt>
      <trkpt lat="37.930707139894366" lon="23.766629118472338">
        <ele>285.8</ele>
        <time>2021-04-10T13:44:54.000Z</time>
      </trkpt>
      <trkpt lat="37.93074234388769" lon="23.766559632495046">
        <ele>284.8</ele>
        <time>2021-04-10T13:45:00.000Z</time>
      </trkpt>
      <trkpt lat="37.93078266084194" lon="23.766491822898388">
        <ele>283.4</ele>
        <time>2021-04-10T13:45:05.000Z</time>
      </trkpt>
      <trkpt lat="37.9307865165174" lon="23.766467263922095">
        <ele>282.2</ele>
        <time>2021-04-10T13:45:08.000Z</time>
      </trkpt>
      <trkpt lat="37.930789617821574" lon="23.766458798199892">
        <ele>281.8</ele>
        <time>2021-04-10T13:45:09.000Z</time>
      </trkpt>
      <trkpt lat="37.930793054401875" lon="23.766447566449642">
        <ele>281.6</ele>
        <time>2021-04-10T13:45:10.000Z</time>
      </trkpt>
      <trkpt lat="37.93079674243927" lon="23.766435412690043">
        <ele>281.2</ele>
        <time>2021-04-10T13:45:11.000Z</time>
      </trkpt>
      <trkpt lat="37.93080319650471" lon="23.766420409083366">
        <ele>281.2</ele>
        <time>2021-04-10T13:45:12.000Z</time>
      </trkpt>
      <trkpt lat="37.93082599528134" lon="23.76631655730307">
        <ele>280.6</ele>
        <time>2021-04-10T13:45:17.000Z</time>
      </trkpt>
      <trkpt lat="37.93082934804261" lon="23.766276659443974">
        <ele>279.8</ele>
        <time>2021-04-10T13:45:20.000Z</time>
      </trkpt>
      <trkpt lat="37.93083404190838" lon="23.766254782676697">
        <ele>279.2</ele>
        <time>2021-04-10T13:45:22.000Z</time>
      </trkpt>
      <trkpt lat="37.93083127588034" lon="23.766211280599236">
        <ele>278.8</ele>
        <time>2021-04-10T13:45:24.000Z</time>
      </trkpt>
      <trkpt lat="37.930827839300036" lon="23.766155121847987">
        <ele>278.4</ele>
        <time>2021-04-10T13:45:26.000Z</time>
      </trkpt>
      <trkpt lat="37.93082348071039" lon="23.766114301979542">
        <ele>278.2</ele>
        <time>2021-04-10T13:45:28.000Z</time>
      </trkpt>
      <trkpt lat="37.93081878684461" lon="23.766100723296404">
        <ele>278</ele>
        <time>2021-04-10T13:45:29.000Z</time>
      </trkpt>
      <trkpt lat="37.93080780655146" lon="23.766074907034636">
        <ele>277.6</ele>
        <time>2021-04-10T13:45:31.000Z</time>
      </trkpt>
      <trkpt lat="37.93078240938485" lon="23.766018664464355">
        <ele>277.2</ele>
        <time>2021-04-10T13:45:34.000Z</time>
      </trkpt>
      <trkpt lat="37.9307677410543" lon="23.76598907634616">
        <ele>276.4</ele>
        <time>2021-04-10T13:45:36.000Z</time>
      </trkpt>
      <trkpt lat="37.930730106309056" lon="23.765934510156512">
        <ele>275.4</ele>
        <time>2021-04-10T13:45:39.000Z</time>
      </trkpt>
      <trkpt lat="37.93070688843727" lon="23.76590601168573">
        <ele>275</ele>
        <time>2021-04-10T13:45:41.000Z</time>
      </trkpt>
      <trkpt lat="37.93068157508969" lon="23.765863766893744">
        <ele>274.6</ele>
        <time>2021-04-10T13:45:44.000Z</time>
      </trkpt>
      <trkpt lat="37.930669421330094" lon="23.765830574557185">
        <ele>274.6</ele>
        <time>2021-04-10T13:45:46.000Z</time>
      </trkpt>
      <trkpt lat="37.93064813129604" lon="23.76579998061061">
        <ele>274.4</ele>
        <time>2021-04-10T13:45:48.000Z</time>
      </trkpt>
      <trkpt lat="37.93063388206065" lon="23.765785479918122">
        <ele>273.8</ele>
        <time>2021-04-10T13:45:49.000Z</time>
      </trkpt>
      <trkpt lat="37.93060630559921" lon="23.76574717462063">
        <ele>273</ele>
        <time>2021-04-10T13:45:51.000Z</time>
      </trkpt>
      <trkpt lat="37.93055861257017" lon="23.765676096081734">
        <ele>272</ele>
        <time>2021-04-10T13:45:55.000Z</time>
      </trkpt>
      <trkpt lat="37.930525755509734" lon="23.76561633311212">
        <ele>270.6</ele>
        <time>2021-04-10T13:45:59.000Z</time>
      </trkpt>
      <trkpt lat="37.93048242107034" lon="23.765537040308118">
        <ele>269.4</ele>
        <time>2021-04-10T13:46:03.000Z</time>
      </trkpt>
      <trkpt lat="37.93046683073044" lon="23.76551767811179">
        <ele>269.2</ele>
        <time>2021-04-10T13:46:04.000Z</time>
      </trkpt>
      <trkpt lat="37.93043816462159" lon="23.765451461076736">
        <ele>268</ele>
        <time>2021-04-10T13:46:08.000Z</time>
      </trkpt>
      <trkpt lat="37.930435398593545" lon="23.765438050031662">
        <ele>267.6</ele>
        <time>2021-04-10T13:46:10.000Z</time>
      </trkpt>
      <trkpt lat="37.93044051155448" lon="23.765420950949192">
        <ele>266.8</ele>
        <time>2021-04-10T13:46:12.000Z</time>
      </trkpt>
      <trkpt lat="37.9304360691458" lon="23.76539546996355">
        <ele>265.6</ele>
        <time>2021-04-10T13:46:15.000Z</time>
      </trkpt>
      <trkpt lat="37.93042399920523" lon="23.76535540446639">
        <ele>265.2</ele>
        <time>2021-04-10T13:46:18.000Z</time>
      </trkpt>
      <trkpt lat="37.93039700947702" lon="23.765318356454372">
        <ele>264.6</ele>
        <time>2021-04-10T13:46:21.000Z</time>
      </trkpt>
      <trkpt lat="37.93038787320256" lon="23.76530645415187">
        <ele>264.6</ele>
        <time>2021-04-10T13:46:22.000Z</time>
      </trkpt>
      <trkpt lat="37.93035744689405" lon="23.76526798121631">
        <ele>264.4</ele>
        <time>2021-04-10T13:46:25.000Z</time>
      </trkpt>
      <trkpt lat="37.93034613132477" lon="23.765213582664728">
        <ele>263.4</ele>
        <time>2021-04-10T13:46:29.000Z</time>
      </trkpt>
      <trkpt lat="37.930329870432615" lon="23.76517217606306">
        <ele>262.2</ele>
        <time>2021-04-10T13:46:32.000Z</time>
      </trkpt>
      <trkpt lat="37.93031754903495" lon="23.765160189941525">
        <ele>262</ele>
        <time>2021-04-10T13:46:33.000Z</time>
      </trkpt>
      <trkpt lat="37.9302909784019" lon="23.765094056725502">
        <ele>261.2</ele>
        <time>2021-04-10T13:46:36.000Z</time>
      </trkpt>
      <trkpt lat="37.930281423032284" lon="23.765067905187607">
        <ele>260.8</ele>
        <time>2021-04-10T13:46:37.000Z</time>
      </trkpt>
      <trkpt lat="37.930254098027945" lon="23.76500311307609">
        <ele>259.8</ele>
        <time>2021-04-10T13:46:40.000Z</time>
      </trkpt>
      <trkpt lat="37.93022694066167" lon="23.764930106699467">
        <ele>258.6</ele>
        <time>2021-04-10T13:46:43.000Z</time>
      </trkpt>
      <trkpt lat="37.93021579273045" lon="23.764877887442708">
        <ele>257.4</ele>
        <time>2021-04-10T13:46:45.000Z</time>
      </trkpt>
      <trkpt lat="37.9302116855979" lon="23.764845365658402">
        <ele>257</ele>
        <time>2021-04-10T13:46:46.000Z</time>
      </trkpt>
      <trkpt lat="37.9302079975605" lon="23.76480949111283">
        <ele>256.4</ele>
        <time>2021-04-10T13:46:47.000Z</time>
      </trkpt>
      <trkpt lat="37.930205734446645" lon="23.764776717871428">
        <ele>255.8</ele>
        <time>2021-04-10T13:46:48.000Z</time>
      </trkpt>
      <trkpt lat="37.93020606972277" lon="23.764741262421012">
        <ele>255.2</ele>
        <time>2021-04-10T13:46:49.000Z</time>
      </trkpt>
      <trkpt lat="37.930200789123774" lon="23.76465953886509">
        <ele>254.6</ele>
        <time>2021-04-10T13:46:51.000Z</time>
      </trkpt>
      <trkpt lat="37.93020162731409" lon="23.76462433487177">
        <ele>254</ele>
        <time>2021-04-10T13:46:52.000Z</time>
      </trkpt>
      <trkpt lat="37.93020598590374" lon="23.76459063962102">
        <ele>254</ele>
        <time>2021-04-10T13:46:53.000Z</time>
      </trkpt>
      <trkpt lat="37.9302098415792" lon="23.764560213312507">
        <ele>253.6</ele>
        <time>2021-04-10T13:46:54.000Z</time>
      </trkpt>
      <trkpt lat="37.93022568337619" lon="23.764497432857752">
        <ele>253.4</ele>
        <time>2021-04-10T13:46:57.000Z</time>
      </trkpt>
      <trkpt lat="37.930238507688046" lon="23.764463402330875">
        <ele>253.2</ele>
        <time>2021-04-10T13:46:59.000Z</time>
      </trkpt>
      <trkpt lat="37.93024412356317" lon="23.764449153095484">
        <ele>253</ele>
        <time>2021-04-10T13:47:00.000Z</time>
      </trkpt>
      <trkpt lat="37.930247224867344" lon="23.76439810730517">
        <ele>251.8</ele>
        <time>2021-04-10T13:47:04.000Z</time>
      </trkpt>
      <trkpt lat="37.93024253100157" lon="23.764362651854753">
        <ele>251.2</ele>
        <time>2021-04-10T13:47:06.000Z</time>
      </trkpt>
      <trkpt lat="37.930239429697394" lon="23.7643308006227">
        <ele>250.8</ele>
        <time>2021-04-10T13:47:08.000Z</time>
      </trkpt>
      <trkpt lat="37.930239513516426" lon="23.764275312423706">
        <ele>250.8</ele>
        <time>2021-04-10T13:47:12.000Z</time>
      </trkpt>
      <trkpt lat="37.930258037522435" lon="23.764175483956933">
        <ele>249.6</ele>
        <time>2021-04-10T13:47:17.000Z</time>
      </trkpt>
      <trkpt lat="37.930259462445974" lon="23.764159809798002">
        <ele>249.4</ele>
        <time>2021-04-10T13:47:18.000Z</time>
      </trkpt>
      <trkpt lat="37.93025149963796" lon="23.76412795856595">
        <ele>248.8</ele>
        <time>2021-04-10T13:47:20.000Z</time>
      </trkpt>
      <trkpt lat="37.93024982325733" lon="23.764116307720542">
        <ele>248.4</ele>
        <time>2021-04-10T13:47:21.000Z</time>
      </trkpt>
      <trkpt lat="37.93025376275182" lon="23.764064256101847">
        <ele>247.8</ele>
        <time>2021-04-10T13:47:24.000Z</time>
      </trkpt>
      <trkpt lat="37.93024596758187" lon="23.76402134075761">
        <ele>247.2</ele>
        <time>2021-04-10T13:47:26.000Z</time>
      </trkpt>
      <trkpt lat="37.930224258452654" lon="23.763963589444757">
        <ele>246</ele>
        <time>2021-04-10T13:47:29.000Z</time>
      </trkpt>
      <trkpt lat="37.93022803030908" lon="23.7638923432678">
        <ele>244.8</ele>
        <time>2021-04-10T13:47:33.000Z</time>
      </trkpt>
      <trkpt lat="37.93022350408137" lon="23.76385680399835">
        <ele>244.2</ele>
        <time>2021-04-10T13:47:35.000Z</time>
      </trkpt>
      <trkpt lat="37.93020942248404" lon="23.763819923624396">
        <ele>243.6</ele>
        <time>2021-04-10T13:47:38.000Z</time>
      </trkpt>
      <trkpt lat="37.93020020239055" lon="23.763796454295516">
        <ele>243.4</ele>
        <time>2021-04-10T13:47:40.000Z</time>
      </trkpt>
      <trkpt lat="37.93018251657486" lon="23.763729985803366">
        <ele>242.4</ele>
        <time>2021-04-10T13:47:44.000Z</time>
      </trkpt>
      <trkpt lat="37.93016985990107" lon="23.76368816010654">
        <ele>241.8</ele>
        <time>2021-04-10T13:47:47.000Z</time>
      </trkpt>
      <trkpt lat="37.93015376664698" lon="23.763648010790348">
        <ele>241.4</ele>
        <time>2021-04-10T13:47:49.000Z</time>
      </trkpt>
      <trkpt lat="37.930141780525446" lon="23.763581961393356">
        <ele>241</ele>
        <time>2021-04-10T13:47:52.000Z</time>
      </trkpt>
      <trkpt lat="37.930116299539804" lon="23.763507613912225">
        <ele>240</ele>
        <time>2021-04-10T13:47:55.000Z</time>
      </trkpt>
      <trkpt lat="37.93008252047002" lon="23.763444498181343">
        <ele>239.4</ele>
        <time>2021-04-10T13:47:58.000Z</time>
      </trkpt>
      <trkpt lat="37.93007028289139" lon="23.763432344421744">
        <ele>239.4</ele>
        <time>2021-04-10T13:47:59.000Z</time>
      </trkpt>
      <trkpt lat="37.930056033656" lon="23.763422202318907">
        <ele>239.4</ele>
        <time>2021-04-10T13:48:00.000Z</time>
      </trkpt>
      <trkpt lat="37.93004631064832" lon="23.763412814587355">
        <ele>239.4</ele>
        <time>2021-04-10T13:48:01.000Z</time>
      </trkpt>
      <trkpt lat="37.93003365397453" lon="23.76340719871223">
        <ele>239.4</ele>
        <time>2021-04-10T13:48:02.000Z</time>
      </trkpt>
      <trkpt lat="37.92999140918255" lon="23.76338222064078">
        <ele>239.2</ele>
        <time>2021-04-10T13:48:07.000Z</time>
      </trkpt>
      <trkpt lat="37.929970286786556" lon="23.763379119336605">
        <ele>239</ele>
        <time>2021-04-10T13:48:09.000Z</time>
      </trkpt>
      <trkpt lat="37.92986744083464" lon="23.76335984095931">
        <ele>238.6</ele>
        <time>2021-04-10T13:48:16.000Z</time>
      </trkpt>
      <trkpt lat="37.92981203645468" lon="23.763361936435103">
        <ele>238.4</ele>
        <time>2021-04-10T13:48:22.000Z</time>
      </trkpt>
      <trkpt lat="37.92979652993381" lon="23.763351123780012">
        <ele>238.6</ele>
        <time>2021-04-10T13:48:24.000Z</time>
      </trkpt>
      <trkpt lat="37.929753279313445" lon="23.763320362195373">
        <ele>238.6</ele>
        <time>2021-04-10T13:48:27.000Z</time>
      </trkpt>
      <trkpt lat="37.92972796596587" lon="23.76330368220806">
        <ele>238.8</ele>
        <time>2021-04-10T13:48:29.000Z</time>
      </trkpt>
      <trkpt lat="37.92963098734617" lon="23.763282308354974">
        <ele>239.2</ele>
        <time>2021-04-10T13:48:37.000Z</time>
      </trkpt>
      <trkpt lat="37.92955471202731" lon="23.76325724646449">
        <ele>239</ele>
        <time>2021-04-10T13:48:45.000Z</time>
      </trkpt>
      <trkpt lat="37.92953853495419" lon="23.763257497921586">
        <ele>238.6</ele>
        <time>2021-04-10T13:48:49.000Z</time>
      </trkpt>
      <trkpt lat="37.929525123909116" lon="23.763281973078847">
        <ele>238.6</ele>
        <time>2021-04-10T13:48:51.000Z</time>
      </trkpt>
      <trkpt lat="37.929555382579565" lon="23.763314243406057">
        <ele>239</ele>
        <time>2021-04-10T13:48:56.000Z</time>
      </trkpt>
      <trkpt lat="37.92957164347172" lon="23.763312147930264">
        <ele>239.2</ele>
        <time>2021-04-10T13:48:58.000Z</time>
      </trkpt>
      <trkpt lat="37.92958606034517" lon="23.76325473189354">
        <ele>239.2</ele>
        <time>2021-04-10T13:49:02.000Z</time>
      </trkpt>
      <trkpt lat="37.92959041893482" lon="23.763242829591036">
        <ele>239</ele>
        <time>2021-04-10T13:49:03.000Z</time>
      </trkpt>
      <trkpt lat="37.929595867171884" lon="23.763214079663157">
        <ele>237.8</ele>
        <time>2021-04-10T13:49:07.000Z</time>
      </trkpt>
      <trkpt lat="37.9295845516026" lon="23.763197734951973">
        <ele>237.8</ele>
        <time>2021-04-10T13:49:11.000Z</time>
      </trkpt>
      <trkpt lat="37.929525040090084" lon="23.76319563947618">
        <ele>238.2</ele>
        <time>2021-04-10T13:49:19.000Z</time>
      </trkpt>
      <trkpt lat="37.92952839285135" lon="23.763201590627432">
        <ele>238.2</ele>
        <time>2021-04-10T13:49:22.000Z</time>
      </trkpt>
      <trkpt lat="37.9295208491385" lon="23.76318491064012">
        <ele>238</ele>
        <time>2021-04-10T13:49:31.000Z</time>
      </trkpt>
      <trkpt lat="37.92951657436788" lon="23.763185162097216">
        <ele>238</ele>
        <time>2021-04-10T13:49:34.000Z</time>
      </trkpt>
      <trkpt lat="37.92951950803399" lon="23.7631652969867">
        <ele>237.8</ele>
        <time>2021-04-10T13:49:41.000Z</time>
      </trkpt>
      <trkpt lat="37.92952537536621" lon="23.763154819607735">
        <ele>237.8</ele>
        <time>2021-04-10T13:49:44.000Z</time>
      </trkpt>
      <trkpt lat="37.92950173839927" lon="23.763181641697884">
        <ele>237.6</ele>
        <time>2021-04-10T13:49:57.000Z</time>
      </trkpt>
      <trkpt lat="37.92950718663633" lon="23.76318440772593">
        <ele>237.6</ele>
        <time>2021-04-10T13:49:58.000Z</time>
      </trkpt>
      <trkpt lat="37.929536271840334" lon="23.76318784430623">
        <ele>237.4</ele>
        <time>2021-04-10T13:50:02.000Z</time>
      </trkpt>
      <trkpt lat="37.92955085635185" lon="23.763168985024095">
        <ele>236.6</ele>
        <time>2021-04-10T13:50:05.000Z</time>
      </trkpt>
      <trkpt lat="37.92955756187439" lon="23.763160267844796">
        <ele>236.4</ele>
        <time>2021-04-10T13:50:06.000Z</time>
      </trkpt>
      <trkpt lat="37.92958086356521" lon="23.763122130185366">
        <ele>235.8</ele>
        <time>2021-04-10T13:50:09.000Z</time>
      </trkpt>
      <trkpt lat="37.92959016747773" lon="23.763108970597386">
        <ele>235.4</ele>
        <time>2021-04-10T13:50:10.000Z</time>
      </trkpt>
      <trkpt lat="37.92961657047272" lon="23.763072341680527">
        <ele>234.2</ele>
        <time>2021-04-10T13:50:14.000Z</time>
      </trkpt>
      <trkpt lat="37.92962880805135" lon="23.76305834390223">
        <ele>234</ele>
        <time>2021-04-10T13:50:16.000Z</time>
      </trkpt>
      <trkpt lat="37.92965345084667" lon="23.763029593974352">
        <ele>233.4</ele>
        <time>2021-04-10T13:50:21.000Z</time>
      </trkpt>
      <trkpt lat="37.92966082692146" lon="23.763023894280195">
        <ele>233.2</ele>
        <time>2021-04-10T13:50:22.000Z</time>
      </trkpt>
      <trkpt lat="37.92967692017555" lon="23.763017104938626">
        <ele>232.6</ele>
        <time>2021-04-10T13:50:24.000Z</time>
      </trkpt>
      <trkpt lat="37.92968563735485" lon="23.763011740520597">
        <ele>232</ele>
        <time>2021-04-10T13:50:26.000Z</time>
      </trkpt>
      <trkpt lat="37.929694605991244" lon="23.763008639216423">
        <ele>231.6</ele>
        <time>2021-04-10T13:50:31.000Z</time>
      </trkpt>
      <trkpt lat="37.92968513444066" lon="23.762987852096558">
        <ele>231.2</ele>
        <time>2021-04-10T13:50:38.000Z</time>
      </trkpt>
      <trkpt lat="37.929665353149176" lon="23.762964215129614">
        <ele>231.2</ele>
        <time>2021-04-10T13:50:42.000Z</time>
      </trkpt>
      <trkpt lat="37.929639453068376" lon="23.76292440108955">
        <ele>231</ele>
        <time>2021-04-10T13:50:48.000Z</time>
      </trkpt>
      <trkpt lat="37.92964104562998" lon="23.762922389432788">
        <ele>231</ele>
        <time>2021-04-10T13:50:49.000Z</time>
      </trkpt>
      <trkpt lat="37.92965671978891" lon="23.7629390694201">
        <ele>231.2</ele>
        <time>2021-04-10T13:50:53.000Z</time>
      </trkpt>
      <trkpt lat="37.92969200760126" lon="23.76294200308621">
        <ele>231</ele>
        <time>2021-04-10T13:51:00.000Z</time>
      </trkpt>
      <trkpt lat="37.92969552800059" lon="23.762940410524607">
        <ele>230.8</ele>
        <time>2021-04-10T13:51:02.000Z</time>
      </trkpt>
      <trkpt lat="37.92969401925802" lon="23.76293915323913">
        <ele>230.8</ele>
        <time>2021-04-10T13:51:03.000Z</time>
      </trkpt>
      <trkpt lat="37.92970080859959" lon="23.76295130699873">
        <ele>231</ele>
        <time>2021-04-10T13:51:10.000Z</time>
      </trkpt>
      <trkpt lat="37.92969695292413" lon="23.76296061091125">
        <ele>231</ele>
        <time>2021-04-10T13:51:12.000Z</time>
      </trkpt>
      <trkpt lat="37.92969427071512" lon="23.762962706387043">
        <ele>231</ele>
        <time>2021-04-10T13:51:13.000Z</time>
      </trkpt>
      <trkpt lat="37.9296847153455" lon="23.76297628507018">
        <ele>231.2</ele>
        <time>2021-04-10T13:51:18.000Z</time>
      </trkpt>
      <trkpt lat="37.92967633344233" lon="23.762998078018427">
        <ele>231.6</ele>
        <time>2021-04-10T13:51:22.000Z</time>
      </trkpt>
      <trkpt lat="37.92967080138624" lon="23.762965723872185">
        <ele>231</ele>
        <time>2021-04-10T13:51:28.000Z</time>
      </trkpt>
      <trkpt lat="37.92971111834049" lon="23.762942673638463">
        <ele>230</ele>
        <time>2021-04-10T13:51:36.000Z</time>
      </trkpt>
      <trkpt lat="37.929715141654015" lon="23.76294502057135">
        <ele>229.8</ele>
        <time>2021-04-10T13:51:38.000Z</time>
      </trkpt>
      <trkpt lat="37.92971304617822" lon="23.76295373775065">
        <ele>229.6</ele>
        <time>2021-04-10T13:51:40.000Z</time>
      </trkpt>
      <trkpt lat="37.929712710902095" lon="23.76295868307352">
        <ele>229.6</ele>
        <time>2021-04-10T13:51:41.000Z</time>
      </trkpt>
      <trkpt lat="37.92972662486136" lon="23.762953905388713">
        <ele>229.4</ele>
        <time>2021-04-10T13:51:45.000Z</time>
      </trkpt>
      <trkpt lat="37.9297314863652" lon="23.762949043884873">
        <ele>229.4</ele>
        <time>2021-04-10T13:51:46.000Z</time>
      </trkpt>
      <trkpt lat="37.92975688353181" lon="23.762893052771688">
        <ele>229.2</ele>
        <time>2021-04-10T13:51:52.000Z</time>
      </trkpt>
      <trkpt lat="37.9297589790076" lon="23.762877797707915">
        <ele>228.8</ele>
        <time>2021-04-10T13:51:53.000Z</time>
      </trkpt>
      <trkpt lat="37.92979585938156" lon="23.762852316722274">
        <ele>227.6</ele>
        <time>2021-04-10T13:51:57.000Z</time>
      </trkpt>
      <trkpt lat="37.92982301674783" lon="23.762871846556664">
        <ele>227.6</ele>
        <time>2021-04-10T13:52:00.000Z</time>
      </trkpt>
      <trkpt lat="37.92982930317521" lon="23.762902775779366">
        <ele>227.8</ele>
        <time>2021-04-10T13:52:03.000Z</time>
      </trkpt>
      <trkpt lat="37.92983600869775" lon="23.762920377776027">
        <ele>227.4</ele>
        <time>2021-04-10T13:52:08.000Z</time>
      </trkpt>
      <trkpt lat="37.929816730320454" lon="23.76292247325182">
        <ele>226.8</ele>
        <time>2021-04-10T13:52:13.000Z</time>
      </trkpt>
      <trkpt lat="37.92981371283531" lon="23.76290093176067">
        <ele>227</ele>
        <time>2021-04-10T13:52:17.000Z</time>
      </trkpt>
      <trkpt lat="37.9298575501889" lon="23.76291560009122">
        <ele>227.6</ele>
        <time>2021-04-10T13:52:24.000Z</time>
      </trkpt>
      <trkpt lat="37.92986216023564" lon="23.76291568391025">
        <ele>227.6</ele>
        <time>2021-04-10T13:52:25.000Z</time>
      </trkpt>
      <trkpt lat="37.929887138307095" lon="23.76294309273362">
        <ele>227.2</ele>
        <time>2021-04-10T13:52:33.000Z</time>
      </trkpt>
      <trkpt lat="37.92988043278456" lon="23.762910487130284">
        <ele>226.6</ele>
        <time>2021-04-10T13:52:40.000Z</time>
      </trkpt>
      <trkpt lat="37.92986978776753" lon="23.762915767729282">
        <ele>226.4</ele>
        <time>2021-04-10T13:52:43.000Z</time>
      </trkpt>
      <trkpt lat="37.9298593942076" lon="23.762932866811752">
        <ele>226.4</ele>
        <time>2021-04-10T13:52:47.000Z</time>
      </trkpt>
      <trkpt lat="37.929879846051335" lon="23.76293135806918">
        <ele>226.6</ele>
        <time>2021-04-10T13:52:52.000Z</time>
      </trkpt>
      <trkpt lat="37.92987775057554" lon="23.762930603697896">
        <ele>226.4</ele>
        <time>2021-04-10T13:52:58.000Z</time>
      </trkpt>
      <trkpt lat="37.929868614301085" lon="23.76293077133596">
        <ele>226.4</ele>
        <time>2021-04-10T13:53:01.000Z</time>
      </trkpt>
      <trkpt lat="37.929882695898414" lon="23.762924233451486">
        <ele>227.2</ele>
        <time>2021-04-10T13:53:10.000Z</time>
      </trkpt>
      <trkpt lat="37.92987800203264" lon="23.762925239279866">
        <ele>227.2</ele>
        <time>2021-04-10T13:53:12.000Z</time>
      </trkpt>
      <trkpt lat="37.929826620966196" lon="23.762864973396063">
        <ele>227.4</ele>
        <time>2021-04-10T13:53:16.000Z</time>
      </trkpt>
      <trkpt lat="37.92981253936887" lon="23.762822058051825">
        <ele>235.8</ele>
        <time>2021-04-10T13:53:22.000Z</time>
      </trkpt>
      <trkpt lat="37.92981404811144" lon="23.76282080076635">
        <ele>231.6</ele>
        <time>2021-04-10T13:53:23.000Z</time>
      </trkpt>
      <trkpt lat="37.92981639504433" lon="23.762822477146983">
        <ele>229.4</ele>
        <time>2021-04-10T13:53:24.000Z</time>
      </trkpt>
      <trkpt lat="37.92982008308172" lon="23.76282323151827">
        <ele>228.4</ele>
        <time>2021-04-10T13:53:25.000Z</time>
      </trkpt>
      <trkpt lat="37.929834919050336" lon="23.76278425566852">
        <ele>227.2</ele>
        <time>2021-04-10T13:53:29.000Z</time>
      </trkpt>
      <trkpt lat="37.9298401158303" lon="23.762763468548656">
        <ele>227.2</ele>
        <time>2021-04-10T13:53:31.000Z</time>
      </trkpt>
      <trkpt lat="37.92984992265701" lon="23.762727761641145">
        <ele>227</ele>
        <time>2021-04-10T13:53:34.000Z</time>
      </trkpt>
      <trkpt lat="37.92984967119992" lon="23.76271083019674">
        <ele>226.2</ele>
        <time>2021-04-10T13:53:36.000Z</time>
      </trkpt>
      <trkpt lat="37.92984740808606" lon="23.76271476969123">
        <ele>225.4</ele>
        <time>2021-04-10T13:53:38.000Z</time>
      </trkpt>
      <trkpt lat="37.929826537147164" lon="23.7627075612545">
        <ele>225.2</ele>
        <time>2021-04-10T13:53:40.000Z</time>
      </trkpt>
      <trkpt lat="37.92980725876987" lon="23.7626938149333">
        <ele>225</ele>
        <time>2021-04-10T13:53:42.000Z</time>
      </trkpt>
      <trkpt lat="37.929797703400254" lon="23.76269230619073">
        <ele>224.8</ele>
        <time>2021-04-10T13:53:43.000Z</time>
      </trkpt>
      <trkpt lat="37.92978739365935" lon="23.76269683241844">
        <ele>224.8</ele>
        <time>2021-04-10T13:53:44.000Z</time>
      </trkpt>
      <trkpt lat="37.92978387326002" lon="23.762697335332632">
        <ele>224.8</ele>
        <time>2021-04-10T13:53:45.000Z</time>
      </trkpt>
      <trkpt lat="37.9297954402864" lon="23.762650731951">
        <ele>224</ele>
        <time>2021-04-10T13:53:49.000Z</time>
      </trkpt>
      <trkpt lat="37.92978915385902" lon="23.762649055570364">
        <ele>223.8</ele>
        <time>2021-04-10T13:53:51.000Z</time>
      </trkpt>
      <trkpt lat="37.92976677417755" lon="23.76262592151761">
        <ele>223.2</ele>
        <time>2021-04-10T13:53:56.000Z</time>
      </trkpt>
      <trkpt lat="37.92976291850209" lon="23.762614857405424">
        <ele>222.8</ele>
        <time>2021-04-10T13:53:57.000Z</time>
      </trkpt>
      <trkpt lat="37.929777670651674" lon="23.762610582634807">
        <ele>221.8</ele>
        <time>2021-04-10T13:54:01.000Z</time>
      </trkpt>
      <trkpt lat="37.92978613637388" lon="23.76263271085918">
        <ele>221.6</ele>
        <time>2021-04-10T13:54:02.000Z</time>
      </trkpt>
      <trkpt lat="37.92978823184967" lon="23.762651067227125">
        <ele>221.4</ele>
        <time>2021-04-10T13:54:08.000Z</time>
      </trkpt>
      <trkpt lat="37.92978077195585" lon="23.76260446384549">
        <ele>221.8</ele>
        <time>2021-04-10T13:54:14.000Z</time>
      </trkpt>
      <trkpt lat="37.92976811528206" lon="23.762590466067195">
        <ele>222.2</ele>
        <time>2021-04-10T13:54:16.000Z</time>
      </trkpt>
      <trkpt lat="37.92976534925401" lon="23.762560877949">
        <ele>221.8</ele>
        <time>2021-04-10T13:54:21.000Z</time>
      </trkpt>
      <trkpt lat="37.92976811528206" lon="23.76251745969057">
        <ele>221.2</ele>
        <time>2021-04-10T13:54:26.000Z</time>
      </trkpt>
      <trkpt lat="37.92977096512914" lon="23.762506814673543">
        <ele>221</ele>
        <time>2021-04-10T13:54:27.000Z</time>
      </trkpt>
      <trkpt lat="37.92977121658623" lon="23.76249893568456">
        <ele>220.8</ele>
        <time>2021-04-10T13:54:28.000Z</time>
      </trkpt>
      <trkpt lat="37.92976710945368" lon="23.762493152171373">
        <ele>220.6</ele>
        <time>2021-04-10T13:54:29.000Z</time>
      </trkpt>
      <trkpt lat="37.92976316995919" lon="23.762482088059187">
        <ele>220.2</ele>
        <time>2021-04-10T13:54:33.000Z</time>
      </trkpt>
      <trkpt lat="37.92977398261428" lon="23.762491894885898">
        <ele>220.2</ele>
        <time>2021-04-10T13:54:40.000Z</time>
      </trkpt>
      <trkpt lat="37.92976090684533" lon="23.762482590973377">
        <ele>220</ele>
        <time>2021-04-10T13:54:47.000Z</time>
      </trkpt>
      <trkpt lat="37.92975059710443" lon="23.762467922642827">
        <ele>219.6</ele>
        <time>2021-04-10T13:54:54.000Z</time>
      </trkpt>
      <trkpt lat="37.9297658521682" lon="23.762479070574045">
        <ele>219.8</ele>
        <time>2021-04-10T13:54:57.000Z</time>
      </trkpt>
      <trkpt lat="37.92976534925401" lon="23.762477142736316">
        <ele>219.8</ele>
        <time>2021-04-10T13:54:58.000Z</time>
      </trkpt>
      <trkpt lat="37.929770881310105" lon="23.76246465370059">
        <ele>220</ele>
        <time>2021-04-10T13:55:03.000Z</time>
      </trkpt>
      <trkpt lat="37.92977171950042" lon="23.76246800646186">
        <ele>220</ele>
        <time>2021-04-10T13:55:05.000Z</time>
      </trkpt>
      <trkpt lat="37.929775742813945" lon="23.762474544346333">
        <ele>219.8</ele>
        <time>2021-04-10T13:55:07.000Z</time>
      </trkpt>
      <trkpt lat="37.929794853553176" lon="23.76252030953765">
        <ele>219.8</ele>
        <time>2021-04-10T13:55:13.000Z</time>
      </trkpt>
      <trkpt lat="37.92978722602129" lon="23.762509245425463">
        <ele>220</ele>
        <time>2021-04-10T13:55:17.000Z</time>
      </trkpt>
      <trkpt lat="37.92984346859157" lon="23.76243045553565">
        <ele>218.2</ele>
        <time>2021-04-10T13:55:29.000Z</time>
      </trkpt>
      <trkpt lat="37.929850090295076" lon="23.76241587102413">
        <ele>217.6</ele>
        <time>2021-04-10T13:55:32.000Z</time>
      </trkpt>
      <trkpt lat="37.92984941974282" lon="23.762418469414115">
        <ele>217.4</ele>
        <time>2021-04-10T13:55:33.000Z</time>
      </trkpt>
      <trkpt lat="37.92983449995518" lon="23.762384187430143">
        <ele>217.2</ele>
        <time>2021-04-10T13:55:38.000Z</time>
      </trkpt>
      <trkpt lat="37.929840199649334" lon="23.76237379387021">
        <ele>217</ele>
        <time>2021-04-10T13:55:39.000Z</time>
      </trkpt>
      <trkpt lat="37.929854365065694" lon="23.762376308441162">
        <ele>216.4</ele>
        <time>2021-04-10T13:55:46.000Z</time>
      </trkpt>
      <trkpt lat="37.92984833009541" lon="23.762357030063868">
        <ele>216.4</ele>
        <time>2021-04-10T13:55:48.000Z</time>
      </trkpt>
      <trkpt lat="37.92985369451344" lon="23.762331381440163">
        <ele>216.2</ele>
        <time>2021-04-10T13:55:50.000Z</time>
      </trkpt>
      <trkpt lat="37.92985369451344" lon="23.762322580441833">
        <ele>216</ele>
        <time>2021-04-10T13:55:51.000Z</time>
      </trkpt>
      <trkpt lat="37.92987138032913" lon="23.762295003980398">
        <ele>215.2</ele>
        <time>2021-04-10T13:55:55.000Z</time>
      </trkpt>
      <trkpt lat="37.92988537810743" lon="23.762280084192753">
        <ele>214.6</ele>
        <time>2021-04-10T13:55:57.000Z</time>
      </trkpt>
      <trkpt lat="37.929904740303755" lon="23.762275641784072">
        <ele>214.2</ele>
        <time>2021-04-10T13:55:59.000Z</time>
      </trkpt>
      <trkpt lat="37.92991613969207" lon="23.762279581278563">
        <ele>214</ele>
        <time>2021-04-10T13:56:00.000Z</time>
      </trkpt>
      <trkpt lat="37.92993332259357" lon="23.762268349528313">
        <ele>213.8</ele>
        <time>2021-04-10T13:56:02.000Z</time>
      </trkpt>
      <trkpt lat="37.92996785603464" lon="23.76221881248057">
        <ele>213.6</ele>
        <time>2021-04-10T13:56:06.000Z</time>
      </trkpt>
      <trkpt lat="37.92999685741961" lon="23.762207832187414">
        <ele>213.4</ele>
        <time>2021-04-10T13:56:08.000Z</time>
      </trkpt>
      <trkpt lat="37.93002460151911" lon="23.762210430577397">
        <ele>213</ele>
        <time>2021-04-10T13:56:10.000Z</time>
      </trkpt>
      <trkpt lat="37.93005301617086" lon="23.762224093079567">
        <ele>212.2</ele>
        <time>2021-04-10T13:56:12.000Z</time>
      </trkpt>
      <trkpt lat="37.930063996464014" lon="23.762234319001436">
        <ele>211.6</ele>
        <time>2021-04-10T13:56:13.000Z</time>
      </trkpt>
      <trkpt lat="37.93007304891944" lon="23.76225108280778">
        <ele>211.4</ele>
        <time>2021-04-10T13:56:14.000Z</time>
      </trkpt>
      <trkpt lat="37.930097775533795" lon="23.762285113334656">
        <ele>211</ele>
        <time>2021-04-10T13:56:21.000Z</time>
      </trkpt>
      <trkpt lat="37.930095260962844" lon="23.76232140697539">
        <ele>210.6</ele>
        <time>2021-04-10T13:56:24.000Z</time>
      </trkpt>
      <trkpt lat="37.93008629232645" lon="23.76231361180544">
        <ele>210.4</ele>
        <time>2021-04-10T13:56:30.000Z</time>
      </trkpt>
      <trkpt lat="37.93009903281927" lon="23.762324089184403">
        <ele>211</ele>
        <time>2021-04-10T13:56:39.000Z</time>
      </trkpt>
      <trkpt lat="37.930102217942476" lon="23.762315288186073">
        <ele>210.8</ele>
        <time>2021-04-10T13:56:42.000Z</time>
      </trkpt>
      <trkpt lat="37.930112360045314" lon="23.76228486187756">
        <ele>210.6</ele>
        <time>2021-04-10T13:56:46.000Z</time>
      </trkpt>
      <trkpt lat="37.93008956126869" lon="23.762228451669216">
        <ele>210.6</ele>
        <time>2021-04-10T13:56:52.000Z</time>
      </trkpt>
      <trkpt lat="37.93007740750909" lon="23.762218728661537">
        <ele>210.4</ele>
        <time>2021-04-10T13:56:54.000Z</time>
      </trkpt>
      <trkpt lat="37.930080676451325" lon="23.762178663164377">
        <ele>210.4</ele>
        <time>2021-04-10T13:57:02.000Z</time>
      </trkpt>
      <trkpt lat="37.93009299784899" lon="23.762164330109954">
        <ele>210.6</ele>
        <time>2021-04-10T13:57:06.000Z</time>
      </trkpt>
      <trkpt lat="37.93008386157453" lon="23.762182602658868">
        <ele>210.6</ele>
        <time>2021-04-10T13:57:08.000Z</time>
      </trkpt>
      <trkpt lat="37.93007832951844" lon="23.762184949591756">
        <ele>210.8</ele>
        <time>2021-04-10T13:57:11.000Z</time>
      </trkpt>
      <trkpt lat="37.93010246939957" lon="23.762270361185074">
        <ele>210.8</ele>
        <time>2021-04-10T13:57:17.000Z</time>
      </trkpt>
      <trkpt lat="37.93010766617954" lon="23.762301541864872">
        <ele>211</ele>
        <time>2021-04-10T13:57:22.000Z</time>
      </trkpt>
      <trkpt lat="37.93010045774281" lon="23.762291902676225">
        <ele>211</ele>
        <time>2021-04-10T13:57:24.000Z</time>
      </trkpt>
      <trkpt lat="37.93007941916585" lon="23.762289974838495">
        <ele>211</ele>
        <time>2021-04-10T13:57:34.000Z</time>
      </trkpt>
      <trkpt lat="37.93010372668505" lon="23.762298356741667">
        <ele>211</ele>
        <time>2021-04-10T13:57:44.000Z</time>
      </trkpt>
      <trkpt lat="37.930106073617935" lon="23.762295674532652">
        <ele>211</ele>
        <time>2021-04-10T13:57:45.000Z</time>
      </trkpt>
      <trkpt lat="37.930108085274696" lon="23.76229215413332">
        <ele>211</ele>
        <time>2021-04-10T13:57:46.000Z</time>
      </trkpt>
      <trkpt lat="37.930105151608586" lon="23.76228930428624">
        <ele>211</ele>
        <time>2021-04-10T13:57:48.000Z</time>
      </trkpt>
      <trkpt lat="37.9300959315151" lon="23.762298859655857">
        <ele>211</ele>
        <time>2021-04-10T13:57:52.000Z</time>
      </trkpt>
      <trkpt lat="37.93005737476051" lon="23.762289052829146">
        <ele>211</ele>
        <time>2021-04-10T13:57:58.000Z</time>
      </trkpt>
      <trkpt lat="37.93004899285734" lon="23.76225552521646">
        <ele>211</ele>
        <time>2021-04-10T13:58:01.000Z</time>
      </trkpt>
      <trkpt lat="37.930052345618606" lon="23.76223993487656">
        <ele>211</ele>
        <time>2021-04-10T13:58:04.000Z</time>
      </trkpt>
      <trkpt lat="37.930073384195566" lon="23.76223457045853">
        <ele>211</ele>
        <time>2021-04-10T13:58:08.000Z</time>
      </trkpt>
      <trkpt lat="37.930074306204915" lon="23.7622276134789">
        <ele>211</ele>
        <time>2021-04-10T13:58:11.000Z</time>
      </trkpt>
      <trkpt lat="37.930066511034966" lon="23.762222081422806">
        <ele>211</ele>
        <time>2021-04-10T13:58:13.000Z</time>
      </trkpt>
      <trkpt lat="37.93008964508772" lon="23.762255860492587">
        <ele>211</ele>
        <time>2021-04-10T13:58:18.000Z</time>
      </trkpt>
      <trkpt lat="37.930086543783545" lon="23.762246808037162">
        <ele>211</ele>
        <time>2021-04-10T13:58:20.000Z</time>
      </trkpt>
      <trkpt lat="37.93008327484131" lon="23.762236749753356">
        <ele>211</ele>
        <time>2021-04-10T13:58:21.000Z</time>
      </trkpt>
      <trkpt lat="37.930079670622945" lon="23.76222224906087">
        <ele>211</ele>
        <time>2021-04-10T13:58:22.000Z</time>
      </trkpt>
      <trkpt lat="37.930069863796234" lon="23.762213699519634">
        <ele>211</ele>
        <time>2021-04-10T13:58:23.000Z</time>
      </trkpt>
      <trkpt lat="37.930060643702745" lon="23.762194588780403">
        <ele>211</ele>
        <time>2021-04-10T13:58:26.000Z</time>
      </trkpt>
      <trkpt lat="37.93009618297219" lon="23.762142788618803">
        <ele>211</ele>
        <time>2021-04-10T13:58:32.000Z</time>
      </trkpt>
      <trkpt lat="37.9301165509969" lon="23.76213390380144">
        <ele>209.2</ele>
        <time>2021-04-10T13:58:36.000Z</time>
      </trkpt>
      <trkpt lat="37.9301149584353" lon="23.762128204107285">
        <ele>208.6</ele>
        <time>2021-04-10T13:58:37.000Z</time>
      </trkpt>
      <trkpt lat="37.9301165509969" lon="23.762120911851525">
        <ele>207.8</ele>
        <time>2021-04-10T13:58:38.000Z</time>
      </trkpt>
      <trkpt lat="37.93013365007937" lon="23.762074392288923">
        <ele>207.2</ele>
        <time>2021-04-10T13:58:42.000Z</time>
      </trkpt>
      <trkpt lat="37.93013205751777" lon="23.762061819434166">
        <ele>206.8</ele>
        <time>2021-04-10T13:58:44.000Z</time>
      </trkpt>
      <trkpt lat="37.93012920767069" lon="23.762040697038174">
        <ele>205.8</ele>
        <time>2021-04-10T13:58:46.000Z</time>
      </trkpt>
      <trkpt lat="37.93012208305299" lon="23.762032063677907">
        <ele>205</ele>
        <time>2021-04-10T13:58:49.000Z</time>
      </trkpt>
      <trkpt lat="37.930119736120105" lon="23.762034913524985">
        <ele>204.8</ele>
        <time>2021-04-10T13:58:52.000Z</time>
      </trkpt>
      <trkpt lat="37.930148066952825" lon="23.762059807777405">
        <ele>204.6</ele>
        <time>2021-04-10T13:58:56.000Z</time>
      </trkpt>
      <trkpt lat="37.930179415270686" lon="23.76209861598909">
        <ele>203.6</ele>
        <time>2021-04-10T13:59:00.000Z</time>
      </trkpt>
      <trkpt lat="37.93018218129873" lon="23.76210590824485">
        <ele>203.4</ele>
        <time>2021-04-10T13:59:02.000Z</time>
      </trkpt>
      <trkpt lat="37.93018687516451" lon="23.762134574353695">
        <ele>203.2</ele>
        <time>2021-04-10T13:59:08.000Z</time>
      </trkpt>
      <trkpt lat="37.930161226540804" lon="23.76211135648191">
        <ele>203</ele>
        <time>2021-04-10T13:59:14.000Z</time>
      </trkpt>
      <trkpt lat="37.930187126621604" lon="23.762062825262547">
        <ele>202.8</ele>
        <time>2021-04-10T13:59:20.000Z</time>
      </trkpt>
      <trkpt lat="37.9302375856787" lon="23.762073386460543">
        <ele>203.2</ele>
        <time>2021-04-10T13:59:24.000Z</time>
      </trkpt>
      <trkpt lat="37.930252170190215" lon="23.76208394765854">
        <ele>203.4</ele>
        <time>2021-04-10T13:59:25.000Z</time>
      </trkpt>
      <trkpt lat="37.93029215186834" lon="23.76211227849126">
        <ele>203.4</ele>
        <time>2021-04-10T13:59:28.000Z</time>
      </trkpt>
      <trkpt lat="37.93031553737819" lon="23.76213683746755">
        <ele>203.4</ele>
        <time>2021-04-10T13:59:30.000Z</time>
      </trkpt>
      <trkpt lat="37.93032827787101" lon="23.76214404590428">
        <ele>203.6</ele>
        <time>2021-04-10T13:59:31.000Z</time>
      </trkpt>
      <trkpt lat="37.930348981171846" lon="23.762159552425146">
        <ele>203.4</ele>
        <time>2021-04-10T13:59:33.000Z</time>
      </trkpt>
      <trkpt lat="37.930441768839955" lon="23.762208335101604">
        <ele>203.2</ele>
        <time>2021-04-10T13:59:42.000Z</time>
      </trkpt>
      <trkpt lat="37.93050748296082" lon="23.76226080581546">
        <ele>204.2</ele>
        <time>2021-04-10T13:59:50.000Z</time>
      </trkpt>
      <trkpt lat="37.9305586963892" lon="23.76227698288858">
        <ele>204.2</ele>
        <time>2021-04-10T13:59:54.000Z</time>
      </trkpt>
      <trkpt lat="37.93060848489404" lon="23.762296764180064">
        <ele>204</ele>
        <time>2021-04-10T13:59:57.000Z</time>
      </trkpt>
      <trkpt lat="37.93069280683994" lon="23.762352587655187">
        <ele>204.4</ele>
        <time>2021-04-10T14:00:04.000Z</time>
      </trkpt>
      <trkpt lat="37.930805711075664" lon="23.762434981763363">
        <ele>204.4</ele>
        <time>2021-04-10T14:00:13.000Z</time>
      </trkpt>
      <trkpt lat="37.930902102962136" lon="23.762492900714278">
        <ele>204.6</ele>
        <time>2021-04-10T14:00:20.000Z</time>
      </trkpt>
      <trkpt lat="37.93097603134811" lon="23.76256196759641">
        <ele>204</ele>
        <time>2021-04-10T14:00:27.000Z</time>
      </trkpt>
      <trkpt lat="37.93098323978484" lon="23.762572361156344">
        <ele>203.8</ele>
        <time>2021-04-10T14:00:28.000Z</time>
      </trkpt>
      <trkpt lat="37.9310938809067" lon="23.762637907639146">
        <ele>203.6</ele>
        <time>2021-04-10T14:00:36.000Z</time>
      </trkpt>
      <trkpt lat="37.931124391034245" lon="23.762645116075873">
        <ele>203.6</ele>
        <time>2021-04-10T14:00:38.000Z</time>
      </trkpt>
      <trkpt lat="37.9311335273087" lon="23.762663304805756">
        <ele>203.8</ele>
        <time>2021-04-10T14:00:39.000Z</time>
      </trkpt>
      <trkpt lat="37.93115045875311" lon="23.762688282877207">
        <ele>203.8</ele>
        <time>2021-04-10T14:00:41.000Z</time>
      </trkpt>
      <trkpt lat="37.931180130690336" lon="23.762707728892565">
        <ele>203.8</ele>
        <time>2021-04-10T14:00:43.000Z</time>
      </trkpt>
      <trkpt lat="37.93125464580953" lon="23.762745698913932">
        <ele>204</ele>
        <time>2021-04-10T14:00:51.000Z</time>
      </trkpt>
      <trkpt lat="37.931270990520716" lon="23.76275290735066">
        <ele>204</ele>
        <time>2021-04-10T14:00:52.000Z</time>
      </trkpt>
      <trkpt lat="37.93134827166796" lon="23.762794816866517">
        <ele>204</ele>
        <time>2021-04-10T14:00:56.000Z</time>
      </trkpt>
      <trkpt lat="37.931391689926386" lon="23.762801690027118">
        <ele>204</ele>
        <time>2021-04-10T14:00:58.000Z</time>
      </trkpt>
      <trkpt lat="37.931513311341405" lon="23.76286975108087">
        <ele>204.2</ele>
        <time>2021-04-10T14:01:06.000Z</time>
      </trkpt>
      <trkpt lat="37.931538205593824" lon="23.76288441941142">
        <ele>204.8</ele>
        <time>2021-04-10T14:01:08.000Z</time>
      </trkpt>
      <trkpt lat="37.931577265262604" lon="23.762910403311253">
        <ele>205</ele>
        <time>2021-04-10T14:01:11.000Z</time>
      </trkpt>
      <trkpt lat="37.93161129578948" lon="23.76294049434364">
        <ele>205</ele>
        <time>2021-04-10T14:01:14.000Z</time>
      </trkpt>
      <trkpt lat="37.93163862079382" lon="23.762982487678528">
        <ele>205.8</ele>
        <time>2021-04-10T14:01:19.000Z</time>
      </trkpt>
      <trkpt lat="37.931644739583135" lon="23.763021966442466">
        <ele>206.4</ele>
        <time>2021-04-10T14:01:22.000Z</time>
      </trkpt>
      <trkpt lat="37.931647170335054" lon="23.76303344964981">
        <ele>206.4</ele>
        <time>2021-04-10T14:01:23.000Z</time>
      </trkpt>
      <trkpt lat="37.931650606915355" lon="23.763048285618424">
        <ele>206</ele>
        <time>2021-04-10T14:01:26.000Z</time>
      </trkpt>
      <trkpt lat="37.931648679077625" lon="23.763048956170678">
        <ele>205.8</ele>
        <time>2021-04-10T14:01:27.000Z</time>
      </trkpt>
      <trkpt lat="37.93163769878447" lon="23.763054320588708">
        <ele>206</ele>
        <time>2021-04-10T14:01:29.000Z</time>
      </trkpt>
      <trkpt lat="37.9316517803818" lon="23.76304803416133">
        <ele>206.2</ele>
        <time>2021-04-10T14:01:32.000Z</time>
      </trkpt>
      <trkpt lat="37.93169444426894" lon="23.763029174879193">
        <ele>206.2</ele>
        <time>2021-04-10T14:01:37.000Z</time>
      </trkpt>
      <trkpt lat="37.93169050477445" lon="23.763018110767007">
        <ele>206.2</ele>
        <time>2021-04-10T14:01:46.000Z</time>
      </trkpt>
      <trkpt lat="37.931667286902666" lon="23.76303495839238">
        <ele>206</ele>
        <time>2021-04-10T14:01:53.000Z</time>
      </trkpt>
      <trkpt lat="37.93165722861886" lon="23.763064043596387">
        <ele>206.2</ele>
        <time>2021-04-10T14:02:00.000Z</time>
      </trkpt>
      <trkpt lat="37.93165655806661" lon="23.76306027173996">
        <ele>206.4</ele>
        <time>2021-04-10T14:02:01.000Z</time>
      </trkpt>
      <trkpt lat="37.93165421113372" lon="23.76305205747485">
        <ele>206.4</ele>
        <time>2021-04-10T14:02:03.000Z</time>
      </trkpt>
      <trkpt lat="37.93166929855943" lon="23.763096733018756">
        <ele>207</ele>
        <time>2021-04-10T14:02:08.000Z</time>
      </trkpt>
      <trkpt lat="37.93172696605325" lon="23.76312774606049">
        <ele>206.8</ele>
        <time>2021-04-10T14:02:13.000Z</time>
      </trkpt>
      <trkpt lat="37.93180491775274" lon="23.76316395588219">
        <ele>206.2</ele>
        <time>2021-04-10T14:02:18.000Z</time>
      </trkpt>
      <trkpt lat="37.93182000517845" lon="23.763166218996048">
        <ele>205.8</ele>
        <time>2021-04-10T14:02:19.000Z</time>
      </trkpt>
      <trkpt lat="37.93188186362386" lon="23.76319555565715">
        <ele>205</ele>
        <time>2021-04-10T14:02:23.000Z</time>
      </trkpt>
      <trkpt lat="37.93197724968195" lon="23.763251965865493">
        <ele>204.8</ele>
        <time>2021-04-10T14:02:29.000Z</time>
      </trkpt>
      <trkpt lat="37.932000467553735" lon="23.763262946158648">
        <ele>204.6</ele>
        <time>2021-04-10T14:02:31.000Z</time>
      </trkpt>
      <trkpt lat="37.932033743709326" lon="23.763279458507895">
        <ele>204.2</ele>
        <time>2021-04-10T14:02:35.000Z</time>
      </trkpt>
      <trkpt lat="37.93204908259213" lon="23.76329538412392">
        <ele>204.4</ele>
        <time>2021-04-10T14:02:37.000Z</time>
      </trkpt>
      <trkpt lat="37.932087471708655" lon="23.763294126838446">
        <ele>204.8</ele>
        <time>2021-04-10T14:02:40.000Z</time>
      </trkpt>
      <trkpt lat="37.93211353942752" lon="23.76329488120973">
        <ele>204.8</ele>
        <time>2021-04-10T14:02:42.000Z</time>
      </trkpt>
      <trkpt lat="37.93212887831032" lon="23.76329630613327">
        <ele>204.8</ele>
        <time>2021-04-10T14:02:43.000Z</time>
      </trkpt>
      <trkpt lat="37.932180762290955" lon="23.763288091868162">
        <ele>205</ele>
        <time>2021-04-10T14:02:47.000Z</time>
      </trkpt>
      <trkpt lat="37.93220465071499" lon="23.763258922845125">
        <ele>205.4</ele>
        <time>2021-04-10T14:02:51.000Z</time>
      </trkpt>
      <trkpt lat="37.93229475617409" lon="23.763242745772004">
        <ele>205</ele>
        <time>2021-04-10T14:02:59.000Z</time>
      </trkpt>
      <trkpt lat="37.932358626276255" lon="23.763246769085526">
        <ele>205.2</ele>
        <time>2021-04-10T14:03:03.000Z</time>
      </trkpt>
      <trkpt lat="37.93240766040981" lon="23.76324492506683">
        <ele>205.2</ele>
        <time>2021-04-10T14:03:07.000Z</time>
      </trkpt>
      <trkpt lat="37.93242543004453" lon="23.76323562115431">
        <ele>205.2</ele>
        <time>2021-04-10T14:03:09.000Z</time>
      </trkpt>
      <trkpt lat="37.93245987966657" lon="23.76322195865214">
        <ele>204.8</ele>
        <time>2021-04-10T14:03:12.000Z</time>
      </trkpt>
      <trkpt lat="37.9325392562896" lon="23.763183234259486">
        <ele>204.2</ele>
        <time>2021-04-10T14:03:17.000Z</time>
      </trkpt>
      <trkpt lat="37.93259432539344" lon="23.763181222602725">
        <ele>204.4</ele>
        <time>2021-04-10T14:03:20.000Z</time>
      </trkpt>
      <trkpt lat="37.9326793178916" lon="23.763189604505897">
        <ele>204.4</ele>
        <time>2021-04-10T14:03:24.000Z</time>
      </trkpt>
      <trkpt lat="37.93277814052999" lon="23.763205027207732">
        <ele>204.6</ele>
        <time>2021-04-10T14:03:31.000Z</time>
      </trkpt>
      <trkpt lat="37.93278350494802" lon="23.763208547607064">
        <ele>204.6</ele>
        <time>2021-04-10T14:03:33.000Z</time>
      </trkpt>
      <trkpt lat="37.932799346745014" lon="23.763225562870502">
        <ele>204.6</ele>
        <time>2021-04-10T14:03:35.000Z</time>
      </trkpt>
      <trkpt lat="37.93281585909426" lon="23.76324500888586">
        <ele>204.8</ele>
        <time>2021-04-10T14:03:36.000Z</time>
      </trkpt>
      <trkpt lat="37.93283438310027" lon="23.763263281434774">
        <ele>204.8</ele>
        <time>2021-04-10T14:03:37.000Z</time>
      </trkpt>
      <trkpt lat="37.93289632536471" lon="23.76330016180873">
        <ele>205</ele>
        <time>2021-04-10T14:03:42.000Z</time>
      </trkpt>
      <trkpt lat="37.932908395305276" lon="23.76334265805781">
        <ele>205.2</ele>
        <time>2021-04-10T14:03:44.000Z</time>
      </trkpt>
      <trkpt lat="37.93292138725519" lon="23.763341484591365">
        <ele>205.4</ele>
        <time>2021-04-10T14:03:45.000Z</time>
      </trkpt>
      <trkpt lat="37.932977797463536" lon="23.763328157365322">
        <ele>206</ele>
        <time>2021-04-10T14:03:50.000Z</time>
      </trkpt>
      <trkpt lat="37.932988526299596" lon="23.763335114344954">
        <ele>206</ele>
        <time>2021-04-10T14:03:51.000Z</time>
      </trkpt>
      <trkpt lat="37.933071590960026" lon="23.76344684511423">
        <ele>206.6</ele>
        <time>2021-04-10T14:03:59.000Z</time>
      </trkpt>
      <trkpt lat="37.93309564702213" lon="23.76345556229353">
        <ele>206.8</ele>
        <time>2021-04-10T14:04:01.000Z</time>
      </trkpt>
      <trkpt lat="37.933127749711275" lon="23.763473499566317">
        <ele>206.8</ele>
        <time>2021-04-10T14:04:03.000Z</time>
      </trkpt>
      <trkpt lat="37.933142837136984" lon="23.763483054935932">
        <ele>206.8</ele>
        <time>2021-04-10T14:04:04.000Z</time>
      </trkpt>
      <trkpt lat="37.93318231590092" lon="23.76349378377199">
        <ele>206.6</ele>
        <time>2021-04-10T14:04:07.000Z</time>
      </trkpt>
      <trkpt lat="37.933264458552" lon="23.763580871745944">
        <ele>206.6</ele>
        <time>2021-04-10T14:04:13.000Z</time>
      </trkpt>
      <trkpt lat="37.93327225372195" lon="23.763591600582004">
        <ele>206.4</ele>
        <time>2021-04-10T14:04:14.000Z</time>
      </trkpt>
      <trkpt lat="37.933286000043154" lon="23.763675084337592">
        <ele>206.2</ele>
        <time>2021-04-10T14:04:19.000Z</time>
      </trkpt>
      <trkpt lat="37.93326957151294" lon="23.763724621385336">
        <ele>206.2</ele>
        <time>2021-04-10T14:04:21.000Z</time>
      </trkpt>
      <trkpt lat="37.93327837251127" lon="23.76375555060804">
        <ele>206.2</ele>
        <time>2021-04-10T14:04:23.000Z</time>
      </trkpt>
      <trkpt lat="37.93331508524716" lon="23.763839034363627">
        <ele>206</ele>
        <time>2021-04-10T14:04:28.000Z</time>
      </trkpt>
      <trkpt lat="37.93332355096936" lon="23.76385873183608">
        <ele>206</ele>
        <time>2021-04-10T14:04:29.000Z</time>
      </trkpt>
      <trkpt lat="37.93336395174265" lon="23.763903994113207">
        <ele>205.6</ele>
        <time>2021-04-10T14:04:32.000Z</time>
      </trkpt>
      <trkpt lat="37.93339228257537" lon="23.763948837295175">
        <ele>205</ele>
        <time>2021-04-10T14:04:35.000Z</time>
      </trkpt>
      <trkpt lat="37.933406783267856" lon="23.763963421806693">
        <ele>205</ele>
        <time>2021-04-10T14:04:36.000Z</time>
      </trkpt>
      <trkpt lat="37.93342505581677" lon="23.763976078480482">
        <ele>204.8</ele>
        <time>2021-04-10T14:04:37.000Z</time>
      </trkpt>
      <trkpt lat="37.93351306580007" lon="23.76404388807714">
        <ele>204.2</ele>
        <time>2021-04-10T14:04:45.000Z</time>
      </trkpt>
      <trkpt lat="37.93351239524782" lon="23.764116391539574">
        <ele>204</ele>
        <time>2021-04-10T14:04:49.000Z</time>
      </trkpt>
      <trkpt lat="37.933533852919936" lon="23.764137011021376">
        <ele>204</ele>
        <time>2021-04-10T14:04:51.000Z</time>
      </trkpt>
      <trkpt lat="37.933570984750986" lon="23.76415771432221">
        <ele>204</ele>
        <time>2021-04-10T14:04:54.000Z</time>
      </trkpt>
      <trkpt lat="37.93357911519706" lon="23.76415528357029">
        <ele>203.8</ele>
        <time>2021-04-10T14:04:55.000Z</time>
      </trkpt>
      <trkpt lat="37.9336135648191" lon="23.764186799526215">
        <ele>204.2</ele>
        <time>2021-04-10T14:05:00.000Z</time>
      </trkpt>
      <trkpt lat="37.9336357768625" lon="23.764201970770955">
        <ele>204.6</ele>
        <time>2021-04-10T14:05:03.000Z</time>
      </trkpt>
      <trkpt lat="37.93364332057536" lon="23.764202054589987">
        <ele>204.8</ele>
        <time>2021-04-10T14:05:04.000Z</time>
      </trkpt>
      <trkpt lat="37.93365337885916" lon="23.764199623838067">
        <ele>205</ele>
        <time>2021-04-10T14:05:05.000Z</time>
      </trkpt>
      <trkpt lat="37.933704257011414" lon="23.764217980206013">
        <ele>205.6</ele>
        <time>2021-04-10T14:05:09.000Z</time>
      </trkpt>
      <trkpt lat="37.93377407826483" lon="23.76423600129783">
        <ele>205.8</ele>
        <time>2021-04-10T14:05:14.000Z</time>
      </trkpt>
      <trkpt lat="37.93380760587752" lon="23.76423390582204">
        <ele>206</ele>
        <time>2021-04-10T14:05:16.000Z</time>
      </trkpt>
      <trkpt lat="37.93385814875364" lon="23.76424086280167">
        <ele>206.4</ele>
        <time>2021-04-10T14:05:19.000Z</time>
      </trkpt>
      <trkpt lat="37.93391045182943" lon="23.76425393857062">
        <ele>206.8</ele>
        <time>2021-04-10T14:05:23.000Z</time>
      </trkpt>
      <trkpt lat="37.93392101302743" lon="23.76426190137863">
        <ele>206.8</ele>
        <time>2021-04-10T14:05:24.000Z</time>
      </trkpt>
      <trkpt lat="37.933956887573004" lon="23.76429023221135">
        <ele>207.2</ele>
        <time>2021-04-10T14:05:28.000Z</time>
      </trkpt>
      <trkpt lat="37.93398211710155" lon="23.76430037431419">
        <ele>207.2</ele>
        <time>2021-04-10T14:05:30.000Z</time>
      </trkpt>
      <trkpt lat="37.93401279486716" lon="23.7643101811409">
        <ele>207.4</ele>
        <time>2021-04-10T14:05:33.000Z</time>
      </trkpt>
      <trkpt lat="37.934071803465486" lon="23.76434002071619">
        <ele>207.2</ele>
        <time>2021-04-10T14:05:37.000Z</time>
      </trkpt>
      <trkpt lat="37.934102062135935" lon="23.76434739679098">
        <ele>207.2</ele>
        <time>2021-04-10T14:05:39.000Z</time>
      </trkpt>
      <trkpt lat="37.934149503707886" lon="23.76435125246644">
        <ele>207</ele>
        <time>2021-04-10T14:05:43.000Z</time>
      </trkpt>
      <trkpt lat="37.93415813706815" lon="23.76435368321836">
        <ele>207</ele>
        <time>2021-04-10T14:05:44.000Z</time>
      </trkpt>
      <trkpt lat="37.934167021885514" lon="23.764358293265104">
        <ele>207.2</ele>
        <time>2021-04-10T14:05:45.000Z</time>
      </trkpt>
      <trkpt lat="37.934176409617066" lon="23.76435762271285">
        <ele>207.2</ele>
        <time>2021-04-10T14:05:46.000Z</time>
      </trkpt>
      <trkpt lat="37.934197364374995" lon="23.76436005346477">
        <ele>207.4</ele>
        <time>2021-04-10T14:05:48.000Z</time>
      </trkpt>
      <trkpt lat="37.93423634022474" lon="23.764356868341565">
        <ele>207</ele>
        <time>2021-04-10T14:05:51.000Z</time>
      </trkpt>
      <trkpt lat="37.934288727119565" lon="23.764349576085806">
        <ele>206.2</ele>
        <time>2021-04-10T14:05:56.000Z</time>
      </trkpt>
      <trkpt lat="37.93429333716631" lon="23.764344127848744">
        <ele>205.8</ele>
        <time>2021-04-10T14:05:57.000Z</time>
      </trkpt>
      <trkpt lat="37.93429283425212" lon="23.764341194182634">
        <ele>205.6</ele>
        <time>2021-04-10T14:05:58.000Z</time>
      </trkpt>
      <trkpt lat="37.93429291807115" lon="23.764335745945573">
        <ele>205.4</ele>
        <time>2021-04-10T14:05:59.000Z</time>
      </trkpt>
      <trkpt lat="37.934298953041434" lon="23.76430523581803">
        <ele>207.6</ele>
        <time>2021-04-10T14:06:02.000Z</time>
      </trkpt>
      <trkpt lat="37.93429627083242" lon="23.764292998239398">
        <ele>206.6</ele>
        <time>2021-04-10T14:06:04.000Z</time>
      </trkpt>
      <trkpt lat="37.93432426638901" lon="23.764237677678466">
        <ele>206.2</ele>
        <time>2021-04-10T14:06:09.000Z</time>
      </trkpt>
      <trkpt lat="37.93436215259135" lon="23.76430045813322">
        <ele>206.2</ele>
        <time>2021-04-10T14:06:17.000Z</time>
      </trkpt>
      <trkpt lat="37.93443297967315" lon="23.764321748167276">
        <ele>206</ele>
        <time>2021-04-10T14:06:22.000Z</time>
      </trkpt>
      <trkpt lat="37.9344632383436" lon="23.764321664348245">
        <ele>205.2</ele>
        <time>2021-04-10T14:06:24.000Z</time>
      </trkpt>
      <trkpt lat="37.934486120939255" lon="23.764310935512185">
        <ele>205</ele>
        <time>2021-04-10T14:06:26.000Z</time>
      </trkpt>
      <trkpt lat="37.93452367186546" lon="23.76429358497262">
        <ele>204.2</ele>
        <time>2021-04-10T14:06:29.000Z</time>
      </trkpt>
      <trkpt lat="37.93457731604576" lon="23.76429744064808">
        <ele>203.4</ele>
        <time>2021-04-10T14:06:33.000Z</time>
      </trkpt>
      <trkpt lat="37.93465333990753" lon="23.764235833659768">
        <ele>203.4</ele>
        <time>2021-04-10T14:06:41.000Z</time>
      </trkpt>
      <trkpt lat="37.93471846729517" lon="23.764190822839737">
        <ele>204</ele>
        <time>2021-04-10T14:06:46.000Z</time>
      </trkpt>
      <trkpt lat="37.93474595993757" lon="23.764151008799672">
        <ele>203.8</ele>
        <time>2021-04-10T14:06:51.000Z</time>
      </trkpt>
      <trkpt lat="37.93471687473357" lon="23.764043804258108">
        <ele>203.8</ele>
        <time>2021-04-10T14:06:58.000Z</time>
      </trkpt>
      <trkpt lat="37.934711342677474" lon="23.76400684006512">
        <ele>203.8</ele>
        <time>2021-04-10T14:07:00.000Z</time>
      </trkpt>
      <trkpt lat="37.93475073762238" lon="23.76395344734192">
        <ele>203.8</ele>
        <time>2021-04-10T14:07:04.000Z</time>
      </trkpt>
      <trkpt lat="37.93485936708748" lon="23.763903323560953">
        <ele>203.6</ele>
        <time>2021-04-10T14:07:11.000Z</time>
      </trkpt>
      <trkpt lat="37.93488887138665" lon="23.763878848403692">
        <ele>203.8</ele>
        <time>2021-04-10T14:07:13.000Z</time>
      </trkpt>
      <trkpt lat="37.93492432683706" lon="23.763899467885494">
        <ele>203.6</ele>
        <time>2021-04-10T14:07:17.000Z</time>
      </trkpt>
      <trkpt lat="37.93494410812855" lon="23.76388505101204">
        <ele>203.2</ele>
        <time>2021-04-10T14:07:21.000Z</time>
      </trkpt>
      <trkpt lat="37.93493187054992" lon="23.76387977041304">
        <ele>203.2</ele>
        <time>2021-04-10T14:07:23.000Z</time>
      </trkpt>
      <trkpt lat="37.93492751196027" lon="23.763877926394343">
        <ele>203.2</ele>
        <time>2021-04-10T14:07:24.000Z</time>
      </trkpt>
      <trkpt lat="37.93496145866811" lon="23.763775415718555">
        <ele>203.2</ele>
        <time>2021-04-10T14:07:31.000Z</time>
      </trkpt>
      <trkpt lat="37.93498828075826" lon="23.76377558335662">
        <ele>202.8</ele>
        <time>2021-04-10T14:07:33.000Z</time>
      </trkpt>
      <trkpt lat="37.93499884195626" lon="23.763769632205367">
        <ele>202.8</ele>
        <time>2021-04-10T14:07:34.000Z</time>
      </trkpt>
      <trkpt lat="37.935007978230715" lon="23.763761585578322">
        <ele>202.6</ele>
        <time>2021-04-10T14:07:35.000Z</time>
      </trkpt>
      <trkpt lat="37.93501149863005" lon="23.763757394626737">
        <ele>202.6</ele>
        <time>2021-04-10T14:07:36.000Z</time>
      </trkpt>
      <trkpt lat="37.935011917725205" lon="23.763756221160293">
        <ele>202.6</ele>
        <time>2021-04-10T14:07:37.000Z</time>
      </trkpt>
      <trkpt lat="37.93501309119165" lon="23.763753371313214">
        <ele>202.6</ele>
        <time>2021-04-10T14:07:38.000Z</time>
      </trkpt>
      <trkpt lat="37.93500881642103" lon="23.763738702982664">
        <ele>202.6</ele>
        <time>2021-04-10T14:07:40.000Z</time>
      </trkpt>
      <trkpt lat="37.93502231128514" lon="23.763692770153284">
        <ele>202.6</ele>
        <time>2021-04-10T14:07:43.000Z</time>
      </trkpt>
      <trkpt lat="37.935044104233384" lon="23.763581961393356">
        <ele>202</ele>
        <time>2021-04-10T14:07:50.000Z</time>
      </trkpt>
      <trkpt lat="37.9350502230227" lon="23.763568634167314">
        <ele>201.8</ele>
        <time>2021-04-10T14:07:51.000Z</time>
      </trkpt>
      <trkpt lat="37.93510998599231" lon="23.763504596427083">
        <ele>201.6</ele>
        <time>2021-04-10T14:07:58.000Z</time>
      </trkpt>
      <trkpt lat="37.93512029573321" lon="23.763495795428753">
        <ele>201.6</ele>
        <time>2021-04-10T14:07:59.000Z</time>
      </trkpt>
      <trkpt lat="37.93521149083972" lon="23.76342572271824">
        <ele>201.2</ele>
        <time>2021-04-10T14:08:08.000Z</time>
      </trkpt>
      <trkpt lat="37.935255747288465" lon="23.763291779905558">
        <ele>201.4</ele>
        <time>2021-04-10T14:08:16.000Z</time>
      </trkpt>
      <trkpt lat="37.93529028072953" lon="23.76317812129855">
        <ele>201.2</ele>
        <time>2021-04-10T14:08:21.000Z</time>
      </trkpt>
      <trkpt lat="37.93529857881367" lon="23.763158256188035">
        <ele>201.2</ele>
        <time>2021-04-10T14:08:22.000Z</time>
      </trkpt>
      <trkpt lat="37.93531718663871" lon="23.76309941522777">
        <ele>201.6</ele>
        <time>2021-04-10T14:08:26.000Z</time>
      </trkpt>
      <trkpt lat="37.93534182943404" lon="23.76305348239839">
        <ele>200.8</ele>
        <time>2021-04-10T14:08:29.000Z</time>
      </trkpt>
      <trkpt lat="37.93536085635424" lon="23.763036467134953">
        <ele>200.4</ele>
        <time>2021-04-10T14:08:31.000Z</time>
      </trkpt>
      <trkpt lat="37.935374015942216" lon="23.763020960614085">
        <ele>200.2</ele>
        <time>2021-04-10T14:08:33.000Z</time>
      </trkpt>
      <trkpt lat="37.93539622798562" lon="23.76298793591559">
        <ele>200</ele>
        <time>2021-04-10T14:08:36.000Z</time>
      </trkpt>
      <trkpt lat="37.93544752523303" lon="23.762842258438468">
        <ele>200.8</ele>
        <time>2021-04-10T14:08:44.000Z</time>
      </trkpt>
      <trkpt lat="37.93554240837693" lon="23.76276229508221">
        <ele>200.6</ele>
        <time>2021-04-10T14:08:53.000Z</time>
      </trkpt>
      <trkpt lat="37.93562279082835" lon="23.76265953294933">
        <ele>200</ele>
        <time>2021-04-10T14:09:01.000Z</time>
      </trkpt>
      <trkpt lat="37.93564206920564" lon="23.7625936511904">
        <ele>199.8</ele>
        <time>2021-04-10T14:09:06.000Z</time>
      </trkpt>
      <trkpt lat="37.935646092519164" lon="23.762586945667863">
        <ele>199.8</ele>
        <time>2021-04-10T14:09:07.000Z</time>
      </trkpt>
      <trkpt lat="37.93565707281232" lon="23.76256917603314">
        <ele>199.4</ele>
        <time>2021-04-10T14:09:09.000Z</time>
      </trkpt>
      <trkpt lat="37.935677859932184" lon="23.762530954554677">
        <ele>199.2</ele>
        <time>2021-04-10T14:09:13.000Z</time>
      </trkpt>
      <trkpt lat="37.93568875640631" lon="23.762508742511272">
        <ele>199</ele>
        <time>2021-04-10T14:09:15.000Z</time>
      </trkpt>
      <trkpt lat="37.93574944138527" lon="23.762412266805768">
        <ele>198.8</ele>
        <time>2021-04-10T14:09:22.000Z</time>
      </trkpt>
      <trkpt lat="37.93575447052717" lon="23.762395083904266">
        <ele>198.6</ele>
        <time>2021-04-10T14:09:23.000Z</time>
      </trkpt>
      <trkpt lat="37.935769725590944" lon="23.76234009861946">
        <ele>198</ele>
        <time>2021-04-10T14:09:26.000Z</time>
      </trkpt>
      <trkpt lat="37.935777101665735" lon="23.762324508279562">
        <ele>197.8</ele>
        <time>2021-04-10T14:09:27.000Z</time>
      </trkpt>
      <trkpt lat="37.93579587712884" lon="23.762289388105273">
        <ele>197.6</ele>
        <time>2021-04-10T14:09:29.000Z</time>
      </trkpt>
      <trkpt lat="37.93580023571849" lon="23.7622706964612">
        <ele>197.4</ele>
        <time>2021-04-10T14:09:30.000Z</time>
      </trkpt>
      <trkpt lat="37.93581213802099" lon="23.762245550751686">
        <ele>197.4</ele>
        <time>2021-04-10T14:09:31.000Z</time>
      </trkpt>
      <trkpt lat="37.93581834062934" lon="23.76222618855536">
        <ele>197.4</ele>
        <time>2021-04-10T14:09:32.000Z</time>
      </trkpt>
      <trkpt lat="37.93582085520029" lon="23.76217690296471">
        <ele>197.2</ele>
        <time>2021-04-10T14:09:35.000Z</time>
      </trkpt>
      <trkpt lat="37.9358272254467" lon="23.762152595445514">
        <ele>197.4</ele>
        <time>2021-04-10T14:09:37.000Z</time>
      </trkpt>
      <trkpt lat="37.935894364491105" lon="23.76207330264151">
        <ele>197</ele>
        <time>2021-04-10T14:09:43.000Z</time>
      </trkpt>
      <trkpt lat="37.935956390574574" lon="23.76193650998175">
        <ele>196.6</ele>
        <time>2021-04-10T14:09:50.000Z</time>
      </trkpt>
      <trkpt lat="37.93596535921097" lon="23.76191547140479">
        <ele>196.6</ele>
        <time>2021-04-10T14:09:51.000Z</time>
      </trkpt>
      <trkpt lat="37.93599955737591" lon="23.761857636272907">
        <ele>195.8</ele>
        <time>2021-04-10T14:09:55.000Z</time>
      </trkpt>
      <trkpt lat="37.93600609526038" lon="23.761845231056213">
        <ele>195.6</ele>
        <time>2021-04-10T14:09:56.000Z</time>
      </trkpt>
      <trkpt lat="37.936011627316475" lon="23.761842716485262">
        <ele>195.4</ele>
        <time>2021-04-10T14:09:57.000Z</time>
      </trkpt>
      <trkpt lat="37.936073737218976" lon="23.761799968779087">
        <ele>195.4</ele>
        <time>2021-04-10T14:10:02.000Z</time>
      </trkpt>
      <trkpt lat="37.936088405549526" lon="23.76178496517241">
        <ele>195.4</ele>
        <time>2021-04-10T14:10:03.000Z</time>
      </trkpt>
      <trkpt lat="37.93614875525236" lon="23.7617043312639">
        <ele>194.8</ele>
        <time>2021-04-10T14:10:10.000Z</time>
      </trkpt>
      <trkpt lat="37.9361710511148" lon="23.761640042066574">
        <ele>194.6</ele>
        <time>2021-04-10T14:10:14.000Z</time>
      </trkpt>
      <trkpt lat="37.93618429452181" lon="23.761600479483604">
        <ele>194.4</ele>
        <time>2021-04-10T14:10:16.000Z</time>
      </trkpt>
      <trkpt lat="37.9361969511956" lon="23.761579105630517">
        <ele>194.2</ele>
        <time>2021-04-10T14:10:17.000Z</time>
      </trkpt>
      <trkpt lat="37.936230478808284" lon="23.761535100638866">
        <ele>193.4</ele>
        <time>2021-04-10T14:10:19.000Z</time>
      </trkpt>
      <trkpt lat="37.93623601086438" lon="23.7615230306983">
        <ele>193.4</ele>
        <time>2021-04-10T14:10:20.000Z</time>
      </trkpt>
      <trkpt lat="37.93624104000628" lon="23.76151188276708">
        <ele>193.2</ele>
        <time>2021-04-10T14:10:21.000Z</time>
      </trkpt>
      <trkpt lat="37.93625436723232" lon="23.76148195937276">
        <ele>193.2</ele>
        <time>2021-04-10T14:10:23.000Z</time>
      </trkpt>
      <trkpt lat="37.936269203200936" lon="23.76145815476775">
        <ele>193.2</ele>
        <time>2021-04-10T14:10:25.000Z</time>
      </trkpt>
      <trkpt lat="37.93632016517222" lon="23.761419765651226">
        <ele>192.8</ele>
        <time>2021-04-10T14:10:29.000Z</time>
      </trkpt>
      <trkpt lat="37.93636316433549" lon="23.761410294100642">
        <ele>192.6</ele>
        <time>2021-04-10T14:10:32.000Z</time>
      </trkpt>
      <trkpt lat="37.9364403616637" lon="23.761378275230527">
        <ele>192.6</ele>
        <time>2021-04-10T14:10:39.000Z</time>
      </trkpt>
      <trkpt lat="37.93644933030009" lon="23.761368468403816">
        <ele>192.8</ele>
        <time>2021-04-10T14:10:40.000Z</time>
      </trkpt>
      <trkpt lat="37.936474811285734" lon="23.761350950226188">
        <ele>192.6</ele>
        <time>2021-04-10T14:10:42.000Z</time>
      </trkpt>
      <trkpt lat="37.93650817126036" lon="23.761342568323016">
        <ele>192.2</ele>
        <time>2021-04-10T14:10:44.000Z</time>
      </trkpt>
      <trkpt lat="37.9365405254066" lon="23.761333348229527">
        <ele>192</ele>
        <time>2021-04-10T14:10:46.000Z</time>
      </trkpt>
      <trkpt lat="37.93656240217388" lon="23.761328905820847">
        <ele>191.8</ele>
        <time>2021-04-10T14:10:48.000Z</time>
      </trkpt>
      <trkpt lat="37.93657229281962" lon="23.761329744011164">
        <ele>191.8</ele>
        <time>2021-04-10T14:10:49.000Z</time>
      </trkpt>
      <trkpt lat="37.93658025562763" lon="23.761328738182783">
        <ele>191.6</ele>
        <time>2021-04-10T14:10:50.000Z</time>
      </trkpt>
      <trkpt lat="37.93660121038556" lon="23.761316165328026">
        <ele>191.2</ele>
        <time>2021-04-10T14:10:52.000Z</time>
      </trkpt>
      <trkpt lat="37.93661872856319" lon="23.761308873072267">
        <ele>191.2</ele>
        <time>2021-04-10T14:10:53.000Z</time>
      </trkpt>
      <trkpt lat="37.936632223427296" lon="23.761300994083285">
        <ele>191.2</ele>
        <time>2021-04-10T14:10:54.000Z</time>
      </trkpt>
      <trkpt lat="37.9366372525692" lon="23.761296551674604">
        <ele>191</ele>
        <time>2021-04-10T14:10:55.000Z</time>
      </trkpt>
      <trkpt lat="37.93664471246302" lon="23.76129001379013">
        <ele>190.8</ele>
        <time>2021-04-10T14:10:56.000Z</time>
      </trkpt>
      <trkpt lat="37.93666960671544" lon="23.761269729584455">
        <ele>190.6</ele>
        <time>2021-04-10T14:10:58.000Z</time>
      </trkpt>
      <trkpt lat="37.93672584928572" lon="23.761266293004155">
        <ele>190.2</ele>
        <time>2021-04-10T14:11:02.000Z</time>
      </trkpt>
      <trkpt lat="37.93682534247637" lon="23.761305855587125">
        <ele>190.6</ele>
        <time>2021-04-10T14:11:09.000Z</time>
      </trkpt>
      <trkpt lat="37.93683481402695" lon="23.76130945980549">
        <ele>190.6</ele>
        <time>2021-04-10T14:11:10.000Z</time>
      </trkpt>
      <trkpt lat="37.936864737421274" lon="23.7613174226135">
        <ele>190.4</ele>
        <time>2021-04-10T14:11:13.000Z</time>
      </trkpt>
      <trkpt lat="37.936902875080705" lon="23.761325804516673">
        <ele>190.4</ele>
        <time>2021-04-10T14:11:16.000Z</time>
      </trkpt>
      <trkpt lat="37.93691963888705" lon="23.761317171156406">
        <ele>190.6</ele>
        <time>2021-04-10T14:11:18.000Z</time>
      </trkpt>
      <trkpt lat="37.936917124316096" lon="23.76126361079514">
        <ele>190.8</ele>
        <time>2021-04-10T14:11:27.000Z</time>
      </trkpt>
      <trkpt lat="37.93691226281226" lon="23.76125824637711">
        <ele>191.2</ele>
        <time>2021-04-10T14:11:32.000Z</time>
      </trkpt>
      <trkpt lat="37.9369118437171" lon="23.76125866547227">
        <ele>191.2</ele>
        <time>2021-04-10T14:11:35.000Z</time>
      </trkpt>
      <trkpt lat="37.93691813014448" lon="23.761260090395808">
        <ele>191</ele>
        <time>2021-04-10T14:11:40.000Z</time>
      </trkpt>
      <trkpt lat="37.936935564503074" lon="23.761255396530032">
        <ele>190.8</ele>
        <time>2021-04-10T14:11:42.000Z</time>
      </trkpt>
      <trkpt lat="37.93702810071409" lon="23.761246260255575">
        <ele>191</ele>
        <time>2021-04-10T14:11:48.000Z</time>
      </trkpt>
      <trkpt lat="37.93704712763429" lon="23.76124701462686">
        <ele>191</ele>
        <time>2021-04-10T14:11:49.000Z</time>
      </trkpt>
      <trkpt lat="37.93711066246033" lon="23.761260006576777">
        <ele>191.2</ele>
        <time>2021-04-10T14:11:53.000Z</time>
      </trkpt>
      <trkpt lat="37.93712398968637" lon="23.761262772604823">
        <ele>191.2</ele>
        <time>2021-04-10T14:11:54.000Z</time>
      </trkpt>
      <trkpt lat="37.93713429942727" lon="23.76126796938479">
        <ele>191.2</ele>
        <time>2021-04-10T14:11:55.000Z</time>
      </trkpt>
      <trkpt lat="37.937155505642295" lon="23.761293282732368">
        <ele>191.2</ele>
        <time>2021-04-10T14:11:57.000Z</time>
      </trkpt>
      <trkpt lat="37.93717226944864" lon="23.761308202520013">
        <ele>191.2</ele>
        <time>2021-04-10T14:11:59.000Z</time>
      </trkpt>
      <trkpt lat="37.93717570602894" lon="23.76131691969931">
        <ele>191.2</ele>
        <time>2021-04-10T14:12:00.000Z</time>
      </trkpt>
      <trkpt lat="37.93718324974179" lon="23.76131985336542">
        <ele>191.2</ele>
        <time>2021-04-10T14:12:01.000Z</time>
      </trkpt>
      <trkpt lat="37.93722130358219" lon="23.761307280510664">
        <ele>190.6</ele>
        <time>2021-04-10T14:12:05.000Z</time>
      </trkpt>
      <trkpt lat="37.93724896386266" lon="23.761302586644888">
        <ele>190.6</ele>
        <time>2021-04-10T14:12:07.000Z</time>
      </trkpt>
      <trkpt lat="37.9372588545084" lon="23.76130275428295">
        <ele>190.8</ele>
        <time>2021-04-10T14:12:08.000Z</time>
      </trkpt>
      <trkpt lat="37.93727058917284" lon="23.7613089568913">
        <ele>190.8</ele>
        <time>2021-04-10T14:12:09.000Z</time>
      </trkpt>
      <trkpt lat="37.9372847545892" lon="23.76131440512836">
        <ele>191</ele>
        <time>2021-04-10T14:12:10.000Z</time>
      </trkpt>
      <trkpt lat="37.937298668548465" lon="23.761321110650897">
        <ele>190.8</ele>
        <time>2021-04-10T14:12:11.000Z</time>
      </trkpt>
      <trkpt lat="37.9373505525291" lon="23.761317254975438">
        <ele>190.6</ele>
        <time>2021-04-10T14:12:14.000Z</time>
      </trkpt>
      <trkpt lat="37.93737402185798" lon="23.76130065880716">
        <ele>190</ele>
        <time>2021-04-10T14:12:16.000Z</time>
      </trkpt>
      <trkpt lat="37.937383744865656" lon="23.76129487529397">
        <ele>189.4</ele>
        <time>2021-04-10T14:12:18.000Z</time>
      </trkpt>
      <trkpt lat="37.937388522550464" lon="23.761285236105323">
        <ele>189</ele>
        <time>2021-04-10T14:12:19.000Z</time>
      </trkpt>
      <trkpt lat="37.9373917914927" lon="23.761273669078946">
        <ele>188.8</ele>
        <time>2021-04-10T14:12:20.000Z</time>
      </trkpt>
      <trkpt lat="37.9373917914927" lon="23.761256486177444">
        <ele>188.2</ele>
        <time>2021-04-10T14:12:22.000Z</time>
      </trkpt>
      <trkpt lat="37.93739413842559" lon="23.76124206930399">
        <ele>188</ele>
        <time>2021-04-10T14:12:23.000Z</time>
      </trkpt>
      <trkpt lat="37.937394976615906" lon="23.76122689805925">
        <ele>187.8</ele>
        <time>2021-04-10T14:12:24.000Z</time>
      </trkpt>
      <trkpt lat="37.93740243650973" lon="23.761195465922356">
        <ele>187</ele>
        <time>2021-04-10T14:12:26.000Z</time>
      </trkpt>
      <trkpt lat="37.937426660209894" lon="23.761143749579787">
        <ele>185.8</ele>
        <time>2021-04-10T14:12:29.000Z</time>
      </trkpt>
      <trkpt lat="37.937435461208224" lon="23.761108126491308">
        <ele>185.4</ele>
        <time>2021-04-10T14:12:31.000Z</time>
      </trkpt>
      <trkpt lat="37.937447279691696" lon="23.76103646121919">
        <ele>185</ele>
        <time>2021-04-10T14:12:35.000Z</time>
      </trkpt>
      <trkpt lat="37.93747343122959" lon="23.761004777625203">
        <ele>184.8</ele>
        <time>2021-04-10T14:12:38.000Z</time>
      </trkpt>
      <trkpt lat="37.937529757618904" lon="23.760923892259598">
        <ele>183.8</ele>
        <time>2021-04-10T14:12:43.000Z</time>
      </trkpt>
      <trkpt lat="37.937570409849286" lon="23.7608599383384">
        <ele>183.4</ele>
        <time>2021-04-10T14:12:47.000Z</time>
      </trkpt>
      <trkpt lat="37.93758910149336" lon="23.7607563380152">
        <ele>183.8</ele>
        <time>2021-04-10T14:12:53.000Z</time>
      </trkpt>
      <trkpt lat="37.937588011845946" lon="23.760733539238572">
        <ele>183.8</ele>
        <time>2021-04-10T14:12:54.000Z</time>
      </trkpt>
      <trkpt lat="37.93759496882558" lon="23.76069045625627">
        <ele>184</ele>
        <time>2021-04-10T14:12:56.000Z</time>
      </trkpt>
      <trkpt lat="37.937607038766146" lon="23.76065332442522">
        <ele>183.8</ele>
        <time>2021-04-10T14:12:58.000Z</time>
      </trkpt>
      <trkpt lat="37.93765431270003" lon="23.760537151247263">
        <ele>183.6</ele>
        <time>2021-04-10T14:13:06.000Z</time>
      </trkpt>
      <trkpt lat="37.93770007789135" lon="23.760435059666634">
        <ele>183.2</ele>
        <time>2021-04-10T14:13:14.000Z</time>
      </trkpt>
      <trkpt lat="37.9377113096416" lon="23.760400945320725">
        <ele>183</ele>
        <time>2021-04-10T14:13:16.000Z</time>
      </trkpt>
      <trkpt lat="37.937724301591516" lon="23.760369764640927">
        <ele>182.8</ele>
        <time>2021-04-10T14:13:18.000Z</time>
      </trkpt>
      <trkpt lat="37.937758499756455" lon="23.760288041085005">
        <ele>181.8</ele>
        <time>2021-04-10T14:13:23.000Z</time>
      </trkpt>
      <trkpt lat="37.937768222764134" lon="23.760271444916725">
        <ele>181.6</ele>
        <time>2021-04-10T14:13:24.000Z</time>
      </trkpt>
      <trkpt lat="37.93779294937849" lon="23.760143034160137">
        <ele>181</ele>
        <time>2021-04-10T14:13:31.000Z</time>
      </trkpt>
      <trkpt lat="37.93780183419585" lon="23.76009047962725">
        <ele>180.4</ele>
        <time>2021-04-10T14:13:35.000Z</time>
      </trkpt>
      <trkpt lat="37.93782513588667" lon="23.760047145187855">
        <ele>180</ele>
        <time>2021-04-10T14:13:38.000Z</time>
      </trkpt>
      <trkpt lat="37.93784340843558" lon="23.76000540331006">
        <ele>179.6</ele>
        <time>2021-04-10T14:13:41.000Z</time>
      </trkpt>
      <trkpt lat="37.93785287998617" lon="23.759974809363484">
        <ele>179.4</ele>
        <time>2021-04-10T14:13:43.000Z</time>
      </trkpt>
      <trkpt lat="37.93787215836346" lon="23.75993298366666">
        <ele>178.6</ele>
        <time>2021-04-10T14:13:46.000Z</time>
      </trkpt>
      <trkpt lat="37.937893280759454" lon="23.759910939261317">
        <ele>178.2</ele>
        <time>2021-04-10T14:13:48.000Z</time>
      </trkpt>
      <trkpt lat="37.93793904595077" lon="23.759829131886363">
        <ele>177.2</ele>
        <time>2021-04-10T14:13:55.000Z</time>
      </trkpt>
      <trkpt lat="37.93794893659651" lon="23.75979920849204">
        <ele>176.6</ele>
        <time>2021-04-10T14:13:59.000Z</time>
      </trkpt>
      <trkpt lat="37.93796050362289" lon="23.759793173521757">
        <ele>176.4</ele>
        <time>2021-04-10T14:14:02.000Z</time>
      </trkpt>
      <trkpt lat="37.9379877448082" lon="23.75976643525064">
        <ele>176.4</ele>
        <time>2021-04-10T14:14:11.000Z</time>
      </trkpt>
      <trkpt lat="37.93800434097648" lon="23.759722262620926">
        <ele>176</ele>
        <time>2021-04-10T14:14:14.000Z</time>
      </trkpt>
      <trkpt lat="37.93803853914142" lon="23.75966719351709">
        <ele>175.8</ele>
        <time>2021-04-10T14:14:18.000Z</time>
      </trkpt>
      <trkpt lat="37.938032587990165" lon="23.75967306084931">
        <ele>176</ele>
        <time>2021-04-10T14:14:21.000Z</time>
      </trkpt>
      <trkpt lat="37.93802261352539" lon="23.759680688381195">
        <ele>176</ele>
        <time>2021-04-10T14:14:25.000Z</time>
      </trkpt>
      <trkpt lat="37.938022781163454" lon="23.759674318134785">
        <ele>175.6</ele>
        <time>2021-04-10T14:14:28.000Z</time>
      </trkpt>
      <trkpt lat="37.938042897731066" lon="23.759681107476354">
        <ele>175.8</ele>
        <time>2021-04-10T14:14:35.000Z</time>
      </trkpt>
      <trkpt lat="37.93804205954075" lon="23.7596873100847">
        <ele>176</ele>
        <time>2021-04-10T14:14:37.000Z</time>
      </trkpt>
      <trkpt lat="37.93802018277347" lon="23.75964037142694">
        <ele>176.2</ele>
        <time>2021-04-10T14:14:44.000Z</time>
      </trkpt>
      <trkpt lat="37.93803761713207" lon="23.759591672569513">
        <ele>175.8</ele>
        <time>2021-04-10T14:14:48.000Z</time>
      </trkpt>
      <trkpt lat="37.93804264627397" lon="23.75958521850407">
        <ele>175.6</ele>
        <time>2021-04-10T14:14:49.000Z</time>
      </trkpt>
      <trkpt lat="37.93805664405227" lon="23.759564431384206">
        <ele>175</ele>
        <time>2021-04-10T14:14:52.000Z</time>
      </trkpt>
      <trkpt lat="37.938061924651265" lon="23.75955680385232">
        <ele>175</ele>
        <time>2021-04-10T14:14:53.000Z</time>
      </trkpt>
      <trkpt lat="37.938082879409194" lon="23.759517492726445">
        <ele>174.4</ele>
        <time>2021-04-10T14:14:57.000Z</time>
      </trkpt>
      <trkpt lat="37.93810366652906" lon="23.75948153436184">
        <ele>174.4</ele>
        <time>2021-04-10T14:15:01.000Z</time>
      </trkpt>
      <trkpt lat="37.938098134472966" lon="23.759411880746484">
        <ele>174</ele>
        <time>2021-04-10T14:15:06.000Z</time>
      </trkpt>
      <trkpt lat="37.9380945302546" lon="23.759365445002913">
        <ele>173.6</ele>
        <time>2021-04-10T14:15:08.000Z</time>
      </trkpt>
      <trkpt lat="37.93809545226395" lon="23.759329989552498">
        <ele>173.2</ele>
        <time>2021-04-10T14:15:10.000Z</time>
      </trkpt>
      <trkpt lat="37.93809629045427" lon="23.759313225746155">
        <ele>173.2</ele>
        <time>2021-04-10T14:15:11.000Z</time>
      </trkpt>
      <trkpt lat="37.93810224160552" lon="23.759286236017942">
        <ele>173.2</ele>
        <time>2021-04-10T14:15:13.000Z</time>
      </trkpt>
      <trkpt lat="37.93812034651637" lon="23.759267712011933">
        <ele>173.2</ele>
        <time>2021-04-10T14:15:16.000Z</time>
      </trkpt>
      <trkpt lat="37.93812897987664" lon="23.759261425584555">
        <ele>173.2</ele>
        <time>2021-04-10T14:15:17.000Z</time>
      </trkpt>
      <trkpt lat="37.93813996016979" lon="23.759253546595573">
        <ele>173</ele>
        <time>2021-04-10T14:15:18.000Z</time>
      </trkpt>
      <trkpt lat="37.93816334567964" lon="23.759232675656676">
        <ele>173</ele>
        <time>2021-04-10T14:15:20.000Z</time>
      </trkpt>
      <trkpt lat="37.93821380473673" lon="23.75914097763598">
        <ele>172.4</ele>
        <time>2021-04-10T14:15:26.000Z</time>
      </trkpt>
      <trkpt lat="37.938248505815864" lon="23.75903251580894">
        <ele>171.8</ele>
        <time>2021-04-10T14:15:31.000Z</time>
      </trkpt>
      <trkpt lat="37.93825663626194" lon="23.759000077843666">
        <ele>171.6</ele>
        <time>2021-04-10T14:15:33.000Z</time>
      </trkpt>
      <trkpt lat="37.93829569593072" lon="23.75888884998858">
        <ele>171.2</ele>
        <time>2021-04-10T14:15:39.000Z</time>
      </trkpt>
      <trkpt lat="37.93832159601152" lon="23.75882238149643">
        <ele>171.4</ele>
        <time>2021-04-10T14:15:43.000Z</time>
      </trkpt>
      <trkpt lat="37.938329139724374" lon="23.758801594376564">
        <ele>171.2</ele>
        <time>2021-04-10T14:15:45.000Z</time>
      </trkpt>
      <trkpt lat="37.93833777308464" lon="23.758767480030656">
        <ele>170.8</ele>
        <time>2021-04-10T14:15:48.000Z</time>
      </trkpt>
      <trkpt lat="37.938386891037226" lon="23.758684750646353">
        <ele>170</ele>
        <time>2021-04-10T14:15:54.000Z</time>
      </trkpt>
      <trkpt lat="37.93839259073138" lon="23.758586514741182">
        <ele>170.4</ele>
        <time>2021-04-10T14:15:59.000Z</time>
      </trkpt>
      <trkpt lat="37.93839577585459" lon="23.758541839197278">
        <ele>170</ele>
        <time>2021-04-10T14:16:01.000Z</time>
      </trkpt>
      <trkpt lat="37.93840365484357" lon="23.75851904042065">
        <ele>169.6</ele>
        <time>2021-04-10T14:16:02.000Z</time>
      </trkpt>
      <trkpt lat="37.93841924518347" lon="23.758487356826663">
        <ele>169.2</ele>
        <time>2021-04-10T14:16:04.000Z</time>
      </trkpt>
      <trkpt lat="37.938421592116356" lon="23.7584784720093">
        <ele>169</ele>
        <time>2021-04-10T14:16:05.000Z</time>
      </trkpt>
      <trkpt lat="37.93842863291502" lon="23.758462043479085">
        <ele>168.6</ele>
        <time>2021-04-10T14:16:07.000Z</time>
      </trkpt>
      <trkpt lat="37.93843408115208" lon="23.758447878062725">
        <ele>168.8</ele>
        <time>2021-04-10T14:16:08.000Z</time>
      </trkpt>
      <trkpt lat="37.9384608194232" lon="23.758381828665733">
        <ele>168.6</ele>
        <time>2021-04-10T14:16:12.000Z</time>
      </trkpt>
      <trkpt lat="37.93849007226527" lon="23.758333129808307">
        <ele>168.2</ele>
        <time>2021-04-10T14:16:15.000Z</time>
      </trkpt>
      <trkpt lat="37.938523683696985" lon="23.758252998813987">
        <ele>168.2</ele>
        <time>2021-04-10T14:16:21.000Z</time>
      </trkpt>
      <trkpt lat="37.93852720409632" lon="23.75823841430247">
        <ele>168.2</ele>
        <time>2021-04-10T14:16:22.000Z</time>
      </trkpt>
      <trkpt lat="37.93858562596142" lon="23.75814026221633">
        <ele>168</ele>
        <time>2021-04-10T14:16:30.000Z</time>
      </trkpt>
      <trkpt lat="37.93859635479748" lon="23.75804990530014">
        <ele>167.8</ele>
        <time>2021-04-10T14:16:35.000Z</time>
      </trkpt>
      <trkpt lat="37.938604233786464" lon="23.75801369547844">
        <ele>167.4</ele>
        <time>2021-04-10T14:16:37.000Z</time>
      </trkpt>
      <trkpt lat="37.93860121630132" lon="23.757993075996637">
        <ele>167.4</ele>
        <time>2021-04-10T14:16:38.000Z</time>
      </trkpt>
      <trkpt lat="37.93860012665391" lon="23.757880004122853">
        <ele>166.8</ele>
        <time>2021-04-10T14:16:45.000Z</time>
      </trkpt>
      <trkpt lat="37.93860398232937" lon="23.75783977098763">
        <ele>166.6</ele>
        <time>2021-04-10T14:16:47.000Z</time>
      </trkpt>
      <trkpt lat="37.938604233786464" lon="23.757818564772606">
        <ele>166.4</ele>
        <time>2021-04-10T14:16:48.000Z</time>
      </trkpt>
      <trkpt lat="37.93860297650099" lon="23.757776487618685">
        <ele>166</ele>
        <time>2021-04-10T14:16:51.000Z</time>
      </trkpt>
      <trkpt lat="37.93856794014573" lon="23.75770733691752">
        <ele>165.2</ele>
        <time>2021-04-10T14:16:56.000Z</time>
      </trkpt>
      <trkpt lat="37.93858026154339" lon="23.75760080292821">
        <ele>164.4</ele>
        <time>2021-04-10T14:17:02.000Z</time>
      </trkpt>
      <trkpt lat="37.938587637618184" lon="23.75757741741836">
        <ele>164.2</ele>
        <time>2021-04-10T14:17:03.000Z</time>
      </trkpt>
      <trkpt lat="37.93859476223588" lon="23.757552187889814">
        <ele>164</ele>
        <time>2021-04-10T14:17:04.000Z</time>
      </trkpt>
      <trkpt lat="37.938617058098316" lon="23.757485300302505">
        <ele>163.8</ele>
        <time>2021-04-10T14:17:07.000Z</time>
      </trkpt>
      <trkpt lat="37.93862208724022" lon="23.757446659728885">
        <ele>163.4</ele>
        <time>2021-04-10T14:17:10.000Z</time>
      </trkpt>
      <trkpt lat="37.9386230930686" lon="23.757428470999002">
        <ele>163.2</ele>
        <time>2021-04-10T14:17:12.000Z</time>
      </trkpt>
      <trkpt lat="37.938616052269936" lon="23.757396452128887">
        <ele>163</ele>
        <time>2021-04-10T14:17:15.000Z</time>
      </trkpt>
      <trkpt lat="37.938615549355745" lon="23.7573629245162">
        <ele>162.6</ele>
        <time>2021-04-10T14:17:17.000Z</time>
      </trkpt>
      <trkpt lat="37.938615968450904" lon="23.75733752734959">
        <ele>162.6</ele>
        <time>2021-04-10T14:17:18.000Z</time>
      </trkpt>
      <trkpt lat="37.93858638033271" lon="23.757245410233736">
        <ele>162.2</ele>
        <time>2021-04-10T14:17:22.000Z</time>
      </trkpt>
      <trkpt lat="37.93857389129698" lon="23.757216492667794">
        <ele>162</ele>
        <time>2021-04-10T14:17:23.000Z</time>
      </trkpt>
      <trkpt lat="37.938564168289304" lon="23.757192017510533">
        <ele>161.8</ele>
        <time>2021-04-10T14:17:24.000Z</time>
      </trkpt>
      <trkpt lat="37.93855310417712" lon="23.757150024175644">
        <ele>161.6</ele>
        <time>2021-04-10T14:17:27.000Z</time>
      </trkpt>
      <trkpt lat="37.938556373119354" lon="23.75702178105712">
        <ele>161</ele>
        <time>2021-04-10T14:17:34.000Z</time>
      </trkpt>
      <trkpt lat="37.93856148608029" lon="23.756992863491178">
        <ele>161</ele>
        <time>2021-04-10T14:17:36.000Z</time>
      </trkpt>
      <trkpt lat="37.938671708106995" lon="23.756895465776324">
        <ele>160.8</ele>
        <time>2021-04-10T14:17:41.000Z</time>
      </trkpt>
      <trkpt lat="37.93868419714272" lon="23.756885826587677">
        <ele>160.6</ele>
        <time>2021-04-10T14:17:42.000Z</time>
      </trkpt>
      <trkpt lat="37.93872878886759" lon="23.75684500671923">
        <ele>160.4</ele>
        <time>2021-04-10T14:17:45.000Z</time>
      </trkpt>
      <trkpt lat="37.938744463026524" lon="23.75683268532157">
        <ele>160.2</ele>
        <time>2021-04-10T14:17:46.000Z</time>
      </trkpt>
      <trkpt lat="37.93877203948796" lon="23.7568137422204">
        <ele>160</ele>
        <time>2021-04-10T14:17:48.000Z</time>
      </trkpt>
      <trkpt lat="37.93880774639547" lon="23.75677024014294">
        <ele>160.2</ele>
        <time>2021-04-10T14:17:51.000Z</time>
      </trkpt>
      <trkpt lat="37.93882350437343" lon="23.756750710308552">
        <ele>160.2</ele>
        <time>2021-04-10T14:17:53.000Z</time>
      </trkpt>
      <trkpt lat="37.938822750002146" lon="23.756722128018737">
        <ele>159.8</ele>
        <time>2021-04-10T14:17:57.000Z</time>
      </trkpt>
      <trkpt lat="37.93882057070732" lon="23.756720535457134">
        <ele>159.8</ele>
        <time>2021-04-10T14:17:58.000Z</time>
      </trkpt>
      <trkpt lat="37.938812021166086" lon="23.756720954552293">
        <ele>159.8</ele>
        <time>2021-04-10T14:18:03.000Z</time>
      </trkpt>
      <trkpt lat="37.93880741111934" lon="23.756714332848787">
        <ele>159.6</ele>
        <time>2021-04-10T14:18:05.000Z</time>
      </trkpt>
      <trkpt lat="37.9388025496155" lon="23.756709890440106">
        <ele>159.6</ele>
        <time>2021-04-10T14:18:07.000Z</time>
      </trkpt>
      <trkpt lat="37.93879115022719" lon="23.756698155775666">
        <ele>159.8</ele>
        <time>2021-04-10T14:18:13.000Z</time>
      </trkpt>
      <trkpt lat="37.93881621211767" lon="23.756681978702545">
        <ele>159.6</ele>
        <time>2021-04-10T14:18:18.000Z</time>
      </trkpt>
      <trkpt lat="37.93886264786124" lon="23.756633447483182">
        <ele>159.8</ele>
        <time>2021-04-10T14:18:24.000Z</time>
      </trkpt>
      <trkpt lat="37.938869940117" lon="23.75663621351123">
        <ele>159.8</ele>
        <time>2021-04-10T14:18:26.000Z</time>
      </trkpt>
      <trkpt lat="37.93887186795473" lon="23.7566583417356">
        <ele>159.8</ele>
        <time>2021-04-10T14:18:28.000Z</time>
      </trkpt>
      <trkpt lat="37.9388733766973" lon="23.756672590970993">
        <ele>160</ele>
        <time>2021-04-10T14:18:31.000Z</time>
      </trkpt>
      <trkpt lat="37.93889030814171" lon="23.756686002016068">
        <ele>160.6</ele>
        <time>2021-04-10T14:18:37.000Z</time>
      </trkpt>
      <trkpt lat="37.93890547938645" lon="23.756693713366985">
        <ele>160.8</ele>
        <time>2021-04-10T14:18:40.000Z</time>
      </trkpt>
      <trkpt lat="37.93892081826925" lon="23.756648702546954">
        <ele>160</ele>
        <time>2021-04-10T14:18:48.000Z</time>
      </trkpt>
      <trkpt lat="37.93892609886825" lon="23.756645182147622">
        <ele>160</ele>
        <time>2021-04-10T14:18:49.000Z</time>
      </trkpt>
      <trkpt lat="37.9389286134392" lon="23.756569242104888">
        <ele>159.8</ele>
        <time>2021-04-10T14:18:57.000Z</time>
      </trkpt>
      <trkpt lat="37.93893129564822" lon="23.75655516050756">
        <ele>159.8</ele>
        <time>2021-04-10T14:18:58.000Z</time>
      </trkpt>
      <trkpt lat="37.93892735615373" lon="23.756487015634775">
        <ele>160.2</ele>
        <time>2021-04-10T14:19:05.000Z</time>
      </trkpt>
      <trkpt lat="37.93889860622585" lon="23.75656446442008">
        <ele>160.6</ele>
        <time>2021-04-10T14:19:12.000Z</time>
      </trkpt>
      <trkpt lat="37.938889637589455" lon="23.756577288731933">
        <ele>160.8</ele>
        <time>2021-04-10T14:19:13.000Z</time>
      </trkpt>
      <trkpt lat="37.938857953995466" lon="23.75662791542709">
        <ele>160.8</ele>
        <time>2021-04-10T14:19:18.000Z</time>
      </trkpt>
      <trkpt lat="37.93885225430131" lon="23.75663923099637">
        <ele>160.8</ele>
        <time>2021-04-10T14:19:19.000Z</time>
      </trkpt>
      <trkpt lat="37.9388665035367" lon="23.756646187976003">
        <ele>160.8</ele>
        <time>2021-04-10T14:19:21.000Z</time>
      </trkpt>
      <trkpt lat="37.938882848247886" lon="23.7566324416548">
        <ele>160.8</ele>
        <time>2021-04-10T14:19:23.000Z</time>
      </trkpt>
      <trkpt lat="37.938893996179104" lon="23.756628669798374">
        <ele>160.6</ele>
        <time>2021-04-10T14:19:25.000Z</time>
      </trkpt>
      <trkpt lat="37.93891293928027" lon="23.756620790809393">
        <ele>160.6</ele>
        <time>2021-04-10T14:19:28.000Z</time>
      </trkpt>
      <trkpt lat="37.93893682770431" lon="23.756624814122915">
        <ele>160.6</ele>
        <time>2021-04-10T14:19:32.000Z</time>
      </trkpt>
      <trkpt lat="37.93891369365156" lon="23.756633698940277">
        <ele>160.6</ele>
        <time>2021-04-10T14:19:39.000Z</time>
      </trkpt>
      <trkpt lat="37.938915537670255" lon="23.756628753617406">
        <ele>160.6</ele>
        <time>2021-04-10T14:19:40.000Z</time>
      </trkpt>
      <trkpt lat="37.9388976842165" lon="23.756594136357307">
        <ele>160.8</ele>
        <time>2021-04-10T14:19:48.000Z</time>
      </trkpt>
      <trkpt lat="37.93889483436942" lon="23.75659380108118">
        <ele>160.8</ele>
        <time>2021-04-10T14:19:49.000Z</time>
      </trkpt>
      <trkpt lat="37.938892571255565" lon="23.75650880858302">
        <ele>160.6</ele>
        <time>2021-04-10T14:19:58.000Z</time>
      </trkpt>
      <trkpt lat="37.938898438587785" lon="23.756504114717245">
        <ele>160.6</ele>
        <time>2021-04-10T14:19:59.000Z</time>
      </trkpt>
      <trkpt lat="37.93886507861316" lon="23.756598830223083">
        <ele>160.4</ele>
        <time>2021-04-10T14:20:06.000Z</time>
      </trkpt>
      <trkpt lat="37.93886021710932" lon="23.756611822173">
        <ele>160.4</ele>
        <time>2021-04-10T14:20:07.000Z</time>
      </trkpt>
      <trkpt lat="37.938885195180774" lon="23.756626239046454">
        <ele>160.4</ele>
        <time>2021-04-10T14:20:10.000Z</time>
      </trkpt>
      <trkpt lat="37.93887563981116" lon="23.756658090278506">
        <ele>160.4</ele>
        <time>2021-04-10T14:20:12.000Z</time>
      </trkpt>
      <trkpt lat="37.93888905085623" lon="23.756648283451796">
        <ele>160.4</ele>
        <time>2021-04-10T14:20:13.000Z</time>
      </trkpt>
      <trkpt lat="37.93890120461583" lon="23.756642751395702">
        <ele>160.6</ele>
        <time>2021-04-10T14:20:14.000Z</time>
      </trkpt>
      <trkpt lat="37.938925428316" lon="23.756652222946286">
        <ele>160.2</ele>
        <time>2021-04-10T14:20:24.000Z</time>
      </trkpt>
      <trkpt lat="37.93892936781049" lon="23.756602434441447">
        <ele>159.8</ele>
        <time>2021-04-10T14:20:27.000Z</time>
      </trkpt>
      <trkpt lat="37.93890078552067" lon="23.756598411127925">
        <ele>159.8</ele>
        <time>2021-04-10T14:20:33.000Z</time>
      </trkpt>
      <trkpt lat="37.93890547938645" lon="23.756659515202045">
        <ele>160.4</ele>
        <time>2021-04-10T14:20:41.000Z</time>
      </trkpt>
      <trkpt lat="37.938911095261574" lon="23.756667729467154">
        <ele>160.4</ele>
        <time>2021-04-10T14:20:45.000Z</time>
      </trkpt>
      <trkpt lat="37.93888318352401" lon="23.756667813286185">
        <ele>160.4</ele>
        <time>2021-04-10T14:20:47.000Z</time>
      </trkpt>
      <trkpt lat="37.938866754993796" lon="23.756668651476502">
        <ele>160.4</ele>
        <time>2021-04-10T14:20:48.000Z</time>
      </trkpt>
      <trkpt lat="37.938854433596134" lon="23.756669908761978">
        <ele>160.4</ele>
        <time>2021-04-10T14:20:49.000Z</time>
      </trkpt>
      <trkpt lat="37.93886507861316" lon="23.756653731688857">
        <ele>160.4</ele>
        <time>2021-04-10T14:20:52.000Z</time>
      </trkpt>
      <trkpt lat="37.93888779357076" lon="23.756643254309893">
        <ele>160.2</ele>
        <time>2021-04-10T14:20:54.000Z</time>
      </trkpt>
      <trkpt lat="37.93897404335439" lon="23.75670561566949">
        <ele>160.4</ele>
        <time>2021-04-10T14:21:01.000Z</time>
      </trkpt>
      <trkpt lat="37.93907118961215" lon="23.756673177704215">
        <ele>160</ele>
        <time>2021-04-10T14:21:08.000Z</time>
      </trkpt>
      <trkpt lat="37.93908149935305" lon="23.756673680618405">
        <ele>160</ele>
        <time>2021-04-10T14:21:09.000Z</time>
      </trkpt>
      <trkpt lat="37.93909935280681" lon="23.75666798092425">
        <ele>159.8</ele>
        <time>2021-04-10T14:21:11.000Z</time>
      </trkpt>
      <trkpt lat="37.93911410495639" lon="23.75666856765747">
        <ele>159.6</ele>
        <time>2021-04-10T14:21:13.000Z</time>
      </trkpt>
      <trkpt lat="37.93917051516473" lon="23.756626322865486">
        <ele>159.4</ele>
        <time>2021-04-10T14:21:18.000Z</time>
      </trkpt>
      <trkpt lat="37.93918736279011" lon="23.75660846941173">
        <ele>159.4</ele>
        <time>2021-04-10T14:21:19.000Z</time>
      </trkpt>
      <trkpt lat="37.93920697644353" lon="23.75657276250422">
        <ele>159.4</ele>
        <time>2021-04-10T14:21:21.000Z</time>
      </trkpt>
      <trkpt lat="37.93922994285822" lon="23.756556753069162">
        <ele>159.4</ele>
        <time>2021-04-10T14:21:23.000Z</time>
      </trkpt>
      <trkpt lat="37.939255591481924" lon="23.7565600220114">
        <ele>159.4</ele>
        <time>2021-04-10T14:21:25.000Z</time>
      </trkpt>
      <trkpt lat="37.93927285820246" lon="23.756560860201716">
        <ele>159.4</ele>
        <time>2021-04-10T14:21:27.000Z</time>
      </trkpt>
      <trkpt lat="37.939282581210136" lon="23.756548538804054">
        <ele>159.4</ele>
        <time>2021-04-10T14:21:29.000Z</time>
      </trkpt>
      <trkpt lat="37.93929104693234" lon="23.756533032283187">
        <ele>159.2</ele>
        <time>2021-04-10T14:21:30.000Z</time>
      </trkpt>
      <trkpt lat="37.939312756061554" lon="23.75650101341307">
        <ele>158.6</ele>
        <time>2021-04-10T14:21:32.000Z</time>
      </trkpt>
      <trkpt lat="37.9393189586699" lon="23.756423145532608">
        <ele>158.2</ele>
        <time>2021-04-10T14:21:37.000Z</time>
      </trkpt>
      <trkpt lat="37.93932390399277" lon="23.75639875419438">
        <ele>158</ele>
        <time>2021-04-10T14:21:39.000Z</time>
      </trkpt>
      <trkpt lat="37.93936623260379" lon="23.75635868869722">
        <ele>157.6</ele>
        <time>2021-04-10T14:21:42.000Z</time>
      </trkpt>
      <trkpt lat="37.93937847018242" lon="23.75634259544313">
        <ele>157.6</ele>
        <time>2021-04-10T14:21:43.000Z</time>
      </trkpt>
      <trkpt lat="37.939390540122986" lon="23.75632993876934">
        <ele>157.6</ele>
        <time>2021-04-10T14:21:44.000Z</time>
      </trkpt>
      <trkpt lat="37.939482908695936" lon="23.75637050718069">
        <ele>158</ele>
        <time>2021-04-10T14:21:49.000Z</time>
      </trkpt>
      <trkpt lat="37.93949807994068" lon="23.756367657333612">
        <ele>158</ele>
        <time>2021-04-10T14:21:50.000Z</time>
      </trkpt>
      <trkpt lat="37.939508222043514" lon="23.75636061653495">
        <ele>158</ele>
        <time>2021-04-10T14:21:51.000Z</time>
      </trkpt>
      <trkpt lat="37.9395208787173" lon="23.756350306794047">
        <ele>158</ele>
        <time>2021-04-10T14:21:52.000Z</time>
      </trkpt>
      <trkpt lat="37.93953579850495" lon="23.756340416148305">
        <ele>157.8</ele>
        <time>2021-04-10T14:21:53.000Z</time>
      </trkpt>
      <trkpt lat="37.93959581293166" lon="23.75629087910056">
        <ele>157.6</ele>
        <time>2021-04-10T14:21:58.000Z</time>
      </trkpt>
      <trkpt lat="37.93961349874735" lon="23.75627570785582">
        <ele>157.2</ele>
        <time>2021-04-10T14:22:00.000Z</time>
      </trkpt>
      <trkpt lat="37.93964392505586" lon="23.75624829903245">
        <ele>156.8</ele>
        <time>2021-04-10T14:22:04.000Z</time>
      </trkpt>
      <trkpt lat="37.939704693853855" lon="23.756120475009084">
        <ele>156.8</ele>
        <time>2021-04-10T14:22:11.000Z</time>
      </trkpt>
      <trkpt lat="37.939720284193754" lon="23.756070099771023">
        <ele>156.6</ele>
        <time>2021-04-10T14:22:14.000Z</time>
      </trkpt>
      <trkpt lat="37.939732605591416" lon="23.75606314279139">
        <ele>156.6</ele>
        <time>2021-04-10T14:22:15.000Z</time>
      </trkpt>
      <trkpt lat="37.93978205882013" lon="23.756012180820107">
        <ele>156.6</ele>
        <time>2021-04-10T14:22:19.000Z</time>
      </trkpt>
      <trkpt lat="37.93983302079141" lon="23.75593464821577">
        <ele>156.6</ele>
        <time>2021-04-10T14:22:25.000Z</time>
      </trkpt>
      <trkpt lat="37.93986713513732" lon="23.755879495292902">
        <ele>155.6</ele>
        <time>2021-04-10T14:22:29.000Z</time>
      </trkpt>
      <trkpt lat="37.939884569495916" lon="23.755847476422787">
        <ele>155.4</ele>
        <time>2021-04-10T14:22:32.000Z</time>
      </trkpt>
      <trkpt lat="37.93995514512062" lon="23.755716383457184">
        <ele>155.4</ele>
        <time>2021-04-10T14:22:41.000Z</time>
      </trkpt>
      <trkpt lat="37.939977273344994" lon="23.755683777853847">
        <ele>155.4</ele>
        <time>2021-04-10T14:22:43.000Z</time>
      </trkpt>
      <trkpt lat="37.940022284165025" lon="23.755581434816122">
        <ele>155.2</ele>
        <time>2021-04-10T14:22:50.000Z</time>
      </trkpt>
      <trkpt lat="37.94009344652295" lon="23.7554635014385">
        <ele>154.8</ele>
        <time>2021-04-10T14:22:59.000Z</time>
      </trkpt>
      <trkpt lat="37.94012479484081" lon="23.755411617457867">
        <ele>154.8</ele>
        <time>2021-04-10T14:23:03.000Z</time>
      </trkpt>
      <trkpt lat="37.94015740044415" lon="23.755318829789758">
        <ele>154.8</ele>
        <time>2021-04-10T14:23:09.000Z</time>
      </trkpt>
      <trkpt lat="37.940157148987055" lon="23.755299551412463">
        <ele>154.8</ele>
        <time>2021-04-10T14:23:10.000Z</time>
      </trkpt>
      <trkpt lat="37.94016536325216" lon="23.75525252893567">
        <ele>154.6</ele>
        <time>2021-04-10T14:23:12.000Z</time>
      </trkpt>
      <trkpt lat="37.94017148204148" lon="23.75523350201547">
        <ele>154.4</ele>
        <time>2021-04-10T14:23:13.000Z</time>
      </trkpt>
      <trkpt lat="37.94018036685884" lon="23.755189329385757">
        <ele>154.4</ele>
        <time>2021-04-10T14:23:15.000Z</time>
      </trkpt>
      <trkpt lat="37.94018707238138" lon="23.755147336050868">
        <ele>154.2</ele>
        <time>2021-04-10T14:23:18.000Z</time>
      </trkpt>
      <trkpt lat="37.940207021310925" lon="23.75511565245688">
        <ele>154</ele>
        <time>2021-04-10T14:23:21.000Z</time>
      </trkpt>
      <trkpt lat="37.94021707959473" lon="23.755066618323326">
        <ele>153.4</ele>
        <time>2021-04-10T14:23:25.000Z</time>
      </trkpt>
      <trkpt lat="37.94021942652762" lon="23.755055805668235">
        <ele>153.4</ele>
        <time>2021-04-10T14:23:26.000Z</time>
      </trkpt>
      <trkpt lat="37.94024197384715" lon="23.75503258779645">
        <ele>153.2</ele>
        <time>2021-04-10T14:23:28.000Z</time>
      </trkpt>
      <trkpt lat="37.94029570184648" lon="23.754956563934684">
        <ele>152.4</ele>
        <time>2021-04-10T14:23:34.000Z</time>
      </trkpt>
      <trkpt lat="37.94030802324414" lon="23.75494214706123">
        <ele>152.4</ele>
        <time>2021-04-10T14:23:35.000Z</time>
      </trkpt>
      <trkpt lat="37.94032093137503" lon="23.754916414618492">
        <ele>152.2</ele>
        <time>2021-04-10T14:23:37.000Z</time>
      </trkpt>
      <trkpt lat="37.94031833298504" lon="23.754886658862233">
        <ele>152.2</ele>
        <time>2021-04-10T14:23:39.000Z</time>
      </trkpt>
      <trkpt lat="37.940315566957" lon="23.754781633615494">
        <ele>152.2</ele>
        <time>2021-04-10T14:23:46.000Z</time>
      </trkpt>
      <trkpt lat="37.94031313620508" lon="23.75475112348795">
        <ele>152</ele>
        <time>2021-04-10T14:23:48.000Z</time>
      </trkpt>
      <trkpt lat="37.940322356298566" lon="23.75463151372969">
        <ele>151.4</ele>
        <time>2021-04-10T14:23:55.000Z</time>
      </trkpt>
      <trkpt lat="37.940317913889885" lon="23.75461474992335">
        <ele>151.2</ele>
        <time>2021-04-10T14:23:56.000Z</time>
      </trkpt>
      <trkpt lat="37.9403190035373" lon="23.75457627698779">
        <ele>151.2</ele>
        <time>2021-04-10T14:23:58.000Z</time>
      </trkpt>
      <trkpt lat="37.9402740765363" lon="23.754466138780117">
        <ele>150.4</ele>
        <time>2021-04-10T14:24:05.000Z</time>
      </trkpt>
      <trkpt lat="37.94031422585249" lon="23.75442272052169">
        <ele>150.4</ele>
        <time>2021-04-10T14:24:08.000Z</time>
      </trkpt>
      <trkpt lat="37.940338449552655" lon="23.75441056676209">
        <ele>150.4</ele>
        <time>2021-04-10T14:24:11.000Z</time>
      </trkpt>
      <trkpt lat="37.94034599326551" lon="23.7544031906873">
        <ele>150.6</ele>
        <time>2021-04-10T14:24:13.000Z</time>
      </trkpt>
      <trkpt lat="37.94034951366484" lon="23.75440226867795">
        <ele>150.6</ele>
        <time>2021-04-10T14:24:15.000Z</time>
      </trkpt>
      <trkpt lat="37.94035663828254" lon="23.754404615610838">
        <ele>150.6</ele>
        <time>2021-04-10T14:24:17.000Z</time>
      </trkpt>
      <trkpt lat="37.94038622640073" lon="23.754452224820852">
        <ele>150.6</ele>
        <time>2021-04-10T14:24:20.000Z</time>
      </trkpt>
      <trkpt lat="37.9404051695019" lon="23.754472928121686">
        <ele>150.6</ele>
        <time>2021-04-10T14:24:22.000Z</time>
      </trkpt>
      <trkpt lat="37.94040919281542" lon="23.754522381350398">
        <ele>150.4</ele>
        <time>2021-04-10T14:24:25.000Z</time>
      </trkpt>
      <trkpt lat="37.94041531160474" lon="23.754525985568762">
        <ele>150.4</ele>
        <time>2021-04-10T14:24:26.000Z</time>
      </trkpt>
      <trkpt lat="37.940422017127275" lon="23.75452984124422">
        <ele>150.4</ele>
        <time>2021-04-10T14:24:27.000Z</time>
      </trkpt>
      <trkpt lat="37.940456718206406" lon="23.754543839022517">
        <ele>150.4</ele>
        <time>2021-04-10T14:24:29.000Z</time>
      </trkpt>
      <trkpt lat="37.94047566130757" lon="23.75456982292235">
        <ele>150.4</ele>
        <time>2021-04-10T14:24:30.000Z</time>
      </trkpt>
      <trkpt lat="37.94052880257368" lon="23.754558339715004">
        <ele>150.4</ele>
        <time>2021-04-10T14:24:36.000Z</time>
      </trkpt>
      <trkpt lat="37.94053500518203" lon="23.754565129056573">
        <ele>150.4</ele>
        <time>2021-04-10T14:24:37.000Z</time>
      </trkpt>
      <trkpt lat="37.94055805541575" lon="23.754572169855237">
        <ele>150.4</ele>
        <time>2021-04-10T14:24:40.000Z</time>
      </trkpt>
      <trkpt lat="37.94057046063244" lon="23.754576947540045">
        <ele>150.4</ele>
        <time>2021-04-10T14:24:42.000Z</time>
      </trkpt>
      <trkpt lat="37.940582698211074" lon="23.754583736881614">
        <ele>150.2</ele>
        <time>2021-04-10T14:24:45.000Z</time>
      </trkpt>
      <trkpt lat="37.94058538042009" lon="23.754586251452565">
        <ele>150.2</ele>
        <time>2021-04-10T14:24:46.000Z</time>
      </trkpt>
      <trkpt lat="37.940668696537614" lon="23.75460561364889">
        <ele>150</ele>
        <time>2021-04-10T14:24:52.000Z</time>
      </trkpt>
      <trkpt lat="37.94048027135432" lon="23.75456403940916">
        <ele>150.2</ele>
        <time>2021-04-10T14:27:13.000Z</time>
      </trkpt>
      <trkpt lat="37.94036787003279" lon="23.754503689706326">
        <ele>149.6</ele>
        <time>2021-04-10T14:27:18.000Z</time>
      </trkpt>
      <trkpt lat="37.94032101519406" lon="23.754436634480953">
        <ele>149.6</ele>
        <time>2021-04-10T14:27:20.000Z</time>
      </trkpt>
      <trkpt lat="37.94025815092027" lon="23.75434602610767">
        <ele>149.4</ele>
        <time>2021-04-10T14:27:26.000Z</time>
      </trkpt>
      <trkpt lat="37.94024876318872" lon="23.75434116460383">
        <ele>149.2</ele>
        <time>2021-04-10T14:27:27.000Z</time>
      </trkpt>
      <trkpt lat="37.94024029746652" lon="23.754334207624197">
        <ele>149.2</ele>
        <time>2021-04-10T14:27:28.000Z</time>
      </trkpt>
      <trkpt lat="37.940220683813095" lon="23.754294561222196">
        <ele>149.2</ele>
        <time>2021-04-10T14:27:31.000Z</time>
      </trkpt>
      <trkpt lat="37.94021934270859" lon="23.754266733303666">
        <ele>149.2</ele>
        <time>2021-04-10T14:27:33.000Z</time>
      </trkpt>
      <trkpt lat="37.94023451395333" lon="23.7541700899601">
        <ele>149</ele>
        <time>2021-04-10T14:27:39.000Z</time>
      </trkpt>
      <trkpt lat="37.94022822752595" lon="23.75406749546528">
        <ele>148.6</ele>
        <time>2021-04-10T14:27:46.000Z</time>
      </trkpt>
      <trkpt lat="37.940252870321274" lon="23.75395266339183">
        <ele>148.2</ele>
        <time>2021-04-10T14:27:54.000Z</time>
      </trkpt>
      <trkpt lat="37.94025354087353" lon="23.753896756097674">
        <ele>147.6</ele>
        <time>2021-04-10T14:27:57.000Z</time>
      </trkpt>
      <trkpt lat="37.94024063274264" lon="23.753819139674306">
        <ele>147.2</ele>
        <time>2021-04-10T14:28:01.000Z</time>
      </trkpt>
      <trkpt lat="37.9402360226959" lon="23.753799526020885">
        <ele>147.2</ele>
        <time>2021-04-10T14:28:02.000Z</time>
      </trkpt>
      <trkpt lat="37.94021707959473" lon="23.753688633441925">
        <ele>147.2</ele>
        <time>2021-04-10T14:28:10.000Z</time>
      </trkpt>
      <trkpt lat="37.940201656892896" lon="23.753567012026906">
        <ele>146.8</ele>
        <time>2021-04-10T14:28:16.000Z</time>
      </trkpt>
      <trkpt lat="37.940196208655834" lon="23.753549829125404">
        <ele>146.8</ele>
        <time>2021-04-10T14:28:17.000Z</time>
      </trkpt>
      <trkpt lat="37.94020417146385" lon="23.75344354659319">
        <ele>146</ele>
        <time>2021-04-10T14:28:23.000Z</time>
      </trkpt>
      <trkpt lat="37.94019310735166" lon="23.753393003717065">
        <ele>145.8</ele>
        <time>2021-04-10T14:28:26.000Z</time>
      </trkpt>
      <trkpt lat="37.940179612487555" lon="23.75332435593009">
        <ele>146</ele>
        <time>2021-04-10T14:28:30.000Z</time>
      </trkpt>
      <trkpt lat="37.94017659500241" lon="23.753306083381176">
        <ele>146</ele>
        <time>2021-04-10T14:28:31.000Z</time>
      </trkpt>
      <trkpt lat="37.94017148204148" lon="23.75329309143126">
        <ele>146</ele>
        <time>2021-04-10T14:28:32.000Z</time>
      </trkpt>
      <trkpt lat="37.940167374908924" lon="23.753280099481344">
        <ele>146</ele>
        <time>2021-04-10T14:28:33.000Z</time>
      </trkpt>
      <trkpt lat="37.94016083702445" lon="23.753245314583182">
        <ele>146</ele>
        <time>2021-04-10T14:28:35.000Z</time>
      </trkpt>
      <trkpt lat="37.94013845734298" lon="23.753181863576174">
        <ele>145.6</ele>
        <time>2021-04-10T14:28:40.000Z</time>
      </trkpt>
      <trkpt lat="37.94015111401677" lon="23.75306979753077">
        <ele>145</ele>
        <time>2021-04-10T14:28:45.000Z</time>
      </trkpt>
      <trkpt lat="37.94014650397003" lon="23.753036437556148">
        <ele>144.8</ele>
        <time>2021-04-10T14:28:47.000Z</time>
      </trkpt>
      <trkpt lat="37.94015404768288" lon="23.752959994599223">
        <ele>144.8</ele>
        <time>2021-04-10T14:28:52.000Z</time>
      </trkpt>
      <trkpt lat="37.94015312567353" lon="23.75294465571642">
        <ele>144.6</ele>
        <time>2021-04-10T14:28:53.000Z</time>
      </trkpt>
      <trkpt lat="37.94014566577971" lon="23.752788081765175">
        <ele>144</ele>
        <time>2021-04-10T14:29:02.000Z</time>
      </trkpt>
      <trkpt lat="37.94014625251293" lon="23.75276821665466">
        <ele>144</ele>
        <time>2021-04-10T14:29:03.000Z</time>
      </trkpt>
      <trkpt lat="37.940144911408424" lon="23.752625389024615">
        <ele>143.6</ele>
        <time>2021-04-10T14:29:11.000Z</time>
      </trkpt>
      <trkpt lat="37.94008347205818" lon="23.752498319372535">
        <ele>143.2</ele>
        <time>2021-04-10T14:29:19.000Z</time>
      </trkpt>
      <trkpt lat="37.94008129276335" lon="23.75247996300459">
        <ele>143</ele>
        <time>2021-04-10T14:29:21.000Z</time>
      </trkpt>
      <trkpt lat="37.94006369076669" lon="23.752310061827302">
        <ele>142.4</ele>
        <time>2021-04-10T14:29:27.000Z</time>
      </trkpt>
      <trkpt lat="37.94006905518472" lon="23.75227033160627">
        <ele>142</ele>
        <time>2021-04-10T14:29:30.000Z</time>
      </trkpt>
      <trkpt lat="37.94007240794599" lon="23.752252142876387">
        <ele>142</ele>
        <time>2021-04-10T14:29:31.000Z</time>
      </trkpt>
      <trkpt lat="37.94007148593664" lon="23.75218391418457">
        <ele>142</ele>
        <time>2021-04-10T14:29:34.000Z</time>
      </trkpt>
      <trkpt lat="37.94007098302245" lon="23.752125659957528">
        <ele>142.2</ele>
        <time>2021-04-10T14:29:37.000Z</time>
      </trkpt>
      <trkpt lat="37.940073665231466" lon="23.752053575590253">
        <ele>142.2</ele>
        <time>2021-04-10T14:29:41.000Z</time>
      </trkpt>
      <trkpt lat="37.94007400050759" lon="23.752000518143177">
        <ele>141.8</ele>
        <time>2021-04-10T14:29:44.000Z</time>
      </trkpt>
      <trkpt lat="37.94007224030793" lon="23.751978809013963">
        <ele>141.6</ele>
        <time>2021-04-10T14:29:45.000Z</time>
      </trkpt>
      <trkpt lat="37.94006444513798" lon="23.751935977488756">
        <ele>141.4</ele>
        <time>2021-04-10T14:29:47.000Z</time>
      </trkpt>
      <trkpt lat="37.94005614705384" lon="23.751891050487757">
        <ele>140.8</ele>
        <time>2021-04-10T14:29:50.000Z</time>
      </trkpt>
      <trkpt lat="37.940048687160015" lon="23.751824581995606">
        <ele>140.4</ele>
        <time>2021-04-10T14:29:54.000Z</time>
      </trkpt>
      <trkpt lat="37.94004952535033" lon="23.751764316111803">
        <ele>139.8</ele>
        <time>2021-04-10T14:29:59.000Z</time>
      </trkpt>
      <trkpt lat="37.940053129568696" lon="23.751758448779583">
        <ele>139.8</ele>
        <time>2021-04-10T14:30:00.000Z</time>
      </trkpt>
      <trkpt lat="37.94006251730025" lon="23.751758616417646">
        <ele>139.6</ele>
        <time>2021-04-10T14:30:01.000Z</time>
      </trkpt>
      <trkpt lat="37.94009126722813" lon="23.751756437122822">
        <ele>139.6</ele>
        <time>2021-04-10T14:30:05.000Z</time>
      </trkpt>
      <trkpt lat="37.94006419368088" lon="23.75172173604369">
        <ele>139.6</ele>
        <time>2021-04-10T14:30:06.000Z</time>
      </trkpt>
      <trkpt lat="37.940054554492235" lon="23.751697931438684">
        <ele>139.6</ele>
        <time>2021-04-10T14:30:07.000Z</time>
      </trkpt>
      <trkpt lat="37.94002555310726" lon="23.751572873443365">
        <ele>139.4</ele>
        <time>2021-04-10T14:30:11.000Z</time>
      </trkpt>
      <trkpt lat="37.9400150757283" lon="23.751456448808312">
        <ele>139</ele>
        <time>2021-04-10T14:30:16.000Z</time>
      </trkpt>
      <trkpt lat="37.940004682168365" lon="23.751417556777596">
        <ele>139</ele>
        <time>2021-04-10T14:30:18.000Z</time>
      </trkpt>
      <trkpt lat="37.94000652618706" lon="23.751358883455396">
        <ele>139.2</ele>
        <time>2021-04-10T14:30:21.000Z</time>
      </trkpt>
      <trkpt lat="37.94000786729157" lon="23.751339940354228">
        <ele>139.2</ele>
        <time>2021-04-10T14:30:22.000Z</time>
      </trkpt>
      <trkpt lat="37.93999378569424" lon="23.751259725540876">
        <ele>138.8</ele>
        <time>2021-04-10T14:30:26.000Z</time>
      </trkpt>
      <trkpt lat="37.939986661076546" lon="23.751242542639375">
        <ele>138.6</ele>
        <time>2021-04-10T14:30:27.000Z</time>
      </trkpt>
      <trkpt lat="37.93997995555401" lon="23.751209266483784">
        <ele>138.4</ele>
        <time>2021-04-10T14:30:29.000Z</time>
      </trkpt>
      <trkpt lat="37.93998984619975" lon="23.751140031963587">
        <ele>138</ele>
        <time>2021-04-10T14:30:33.000Z</time>
      </trkpt>
      <trkpt lat="37.9399857390672" lon="23.751066606491804">
        <ele>137.8</ele>
        <time>2021-04-10T14:30:37.000Z</time>
      </trkpt>
      <trkpt lat="37.93998523615301" lon="23.75105034559965">
        <ele>137.6</ele>
        <time>2021-04-10T14:30:38.000Z</time>
      </trkpt>
      <trkpt lat="37.93997995555401" lon="23.750995192676783">
        <ele>137.4</ele>
        <time>2021-04-10T14:30:41.000Z</time>
      </trkpt>
      <trkpt lat="37.939969981089234" lon="23.750944985076785">
        <ele>137</ele>
        <time>2021-04-10T14:30:44.000Z</time>
      </trkpt>
      <trkpt lat="37.93995749205351" lon="23.750895028933883">
        <ele>137</ele>
        <time>2021-04-10T14:30:47.000Z</time>
      </trkpt>
      <trkpt lat="37.93994978070259" lon="23.750835098326206">
        <ele>137</ele>
        <time>2021-04-10T14:30:51.000Z</time>
      </trkpt>
      <trkpt lat="37.9399579949677" lon="23.750824285671115">
        <ele>136.6</ele>
        <time>2021-04-10T14:30:53.000Z</time>
      </trkpt>
      <trkpt lat="37.93996009044349" lon="23.75081774778664">
        <ele>136.4</ele>
        <time>2021-04-10T14:30:56.000Z</time>
      </trkpt>
      <trkpt lat="37.9399598389864" lon="23.75081825070083">
        <ele>136.4</ele>
        <time>2021-04-10T14:30:57.000Z</time>
      </trkpt>
      <trkpt lat="37.93993276543915" lon="23.750835433602333">
        <ele>136.4</ele>
        <time>2021-04-10T14:31:04.000Z</time>
      </trkpt>
      <trkpt lat="37.939947601407766" lon="23.750817915424705">
        <ele>136.2</ele>
        <time>2021-04-10T14:31:09.000Z</time>
      </trkpt>
      <trkpt lat="37.93995841406286" lon="23.750786986202">
        <ele>136.2</ele>
        <time>2021-04-10T14:31:10.000Z</time>
      </trkpt>
      <trkpt lat="37.94001113623381" lon="23.750661509111524">
        <ele>136.4</ele>
        <time>2021-04-10T14:31:14.000Z</time>
      </trkpt>
      <trkpt lat="37.9400356952101" lon="23.750607864931226">
        <ele>136.4</ele>
        <time>2021-04-10T14:31:17.000Z</time>
      </trkpt>
      <trkpt lat="37.94005120173097" lon="23.750583892688155">
        <ele>136.4</ele>
        <time>2021-04-10T14:31:19.000Z</time>
      </trkpt>
      <trkpt lat="37.94005908071995" lon="23.75051516108215">
        <ele>136.4</ele>
        <time>2021-04-10T14:31:23.000Z</time>
      </trkpt>
      <trkpt lat="37.94007668271661" lon="23.750458667054772">
        <ele>136</ele>
        <time>2021-04-10T14:31:26.000Z</time>
      </trkpt>
      <trkpt lat="37.94008866883814" lon="23.750418685376644">
        <ele>135.4</ele>
        <time>2021-04-10T14:31:28.000Z</time>
      </trkpt>
      <trkpt lat="37.94009738601744" lon="23.750394294038415">
        <ele>135.4</ele>
        <time>2021-04-10T14:31:29.000Z</time>
      </trkpt>
      <trkpt lat="37.940125465393066" lon="23.75032707117498">
        <ele>135.2</ele>
        <time>2021-04-10T14:31:32.000Z</time>
      </trkpt>
      <trkpt lat="37.94015949591994" lon="23.75026311725378">
        <ele>135.2</ele>
        <time>2021-04-10T14:31:35.000Z</time>
      </trkpt>
      <trkpt lat="37.94017701409757" lon="23.750203689560294">
        <ele>135</ele>
        <time>2021-04-10T14:31:37.000Z</time>
      </trkpt>
      <trkpt lat="37.94018439017236" lon="23.75018835067749">
        <ele>135</ele>
        <time>2021-04-10T14:31:38.000Z</time>
      </trkpt>
      <trkpt lat="37.94019930996001" lon="23.750166641548276">
        <ele>134.4</ele>
        <time>2021-04-10T14:31:41.000Z</time>
      </trkpt>
      <trkpt lat="37.94023468159139" lon="23.750157840549946">
        <ele>134</ele>
        <time>2021-04-10T14:31:45.000Z</time>
      </trkpt>
      <trkpt lat="37.94031724333763" lon="23.750141244381666">
        <ele>134</ele>
        <time>2021-04-10T14:31:50.000Z</time>
      </trkpt>
      <trkpt lat="37.940379520878196" lon="23.750115679576993">
        <ele>134</ele>
        <time>2021-04-10T14:31:53.000Z</time>
      </trkpt>
      <trkpt lat="37.940403409302235" lon="23.750116182491183">
        <ele>134</ele>
        <time>2021-04-10T14:31:54.000Z</time>
      </trkpt>
      <trkpt lat="37.94048806652427" lon="23.75011106953025">
        <ele>133.8</ele>
        <time>2021-04-10T14:31:58.000Z</time>
      </trkpt>
      <trkpt lat="37.94051396660507" lon="23.75010771676898">
        <ele>133.6</ele>
        <time>2021-04-10T14:32:00.000Z</time>
      </trkpt>
      <trkpt lat="37.94052536599338" lon="23.7501014303416">
        <ele>133.6</ele>
        <time>2021-04-10T14:32:01.000Z</time>
      </trkpt>
      <trkpt lat="37.940550008788705" lon="23.750078799203038">
        <ele>133.6</ele>
        <time>2021-04-10T14:32:04.000Z</time>
      </trkpt>
      <trkpt lat="37.94061312451959" lon="23.750059688463807">
        <ele>133.6</ele>
        <time>2021-04-10T14:32:09.000Z</time>
      </trkpt>
      <trkpt lat="37.940631564706564" lon="23.75006086193025">
        <ele>133.2</ele>
        <time>2021-04-10T14:32:11.000Z</time>
      </trkpt>
      <trkpt lat="37.94070792384446" lon="23.750018449500203">
        <ele>133</ele>
        <time>2021-04-10T14:32:17.000Z</time>
      </trkpt>
      <trkpt lat="37.94079459272325" lon="23.74997134320438">
        <ele>132.8</ele>
        <time>2021-04-10T14:32:23.000Z</time>
      </trkpt>
      <trkpt lat="37.940815379843116" lon="23.749969750642776">
        <ele>132.8</ele>
        <time>2021-04-10T14:32:24.000Z</time>
      </trkpt>
      <trkpt lat="37.94094010256231" lon="23.750017024576664">
        <ele>132.2</ele>
        <time>2021-04-10T14:32:31.000Z</time>
      </trkpt>
      <trkpt lat="37.94093633070588" lon="23.749992214143276">
        <ele>132.8</ele>
        <time>2021-04-10T14:32:37.000Z</time>
      </trkpt>
      <trkpt lat="37.94093272648752" lon="23.749986179172993">
        <ele>133</ele>
        <time>2021-04-10T14:32:38.000Z</time>
      </trkpt>
      <trkpt lat="37.94092593714595" lon="23.749934630468488">
        <ele>132.8</ele>
        <time>2021-04-10T14:32:46.000Z</time>
      </trkpt>
      <trkpt lat="37.940990310162306" lon="23.749912502244115">
        <ele>132.8</ele>
        <time>2021-04-10T14:32:51.000Z</time>
      </trkpt>
      <trkpt lat="37.94100263155997" lon="23.74991426244378">
        <ele>132.8</ele>
        <time>2021-04-10T14:32:52.000Z</time>
      </trkpt>
      <trkpt lat="37.94108125381172" lon="23.749923147261143">
        <ele>133.2</ele>
        <time>2021-04-10T14:32:58.000Z</time>
      </trkpt>
      <trkpt lat="37.94110371731222" lon="23.749915519729257">
        <ele>133.4</ele>
        <time>2021-04-10T14:33:00.000Z</time>
      </trkpt>
      <trkpt lat="37.941112853586674" lon="23.7499132566154">
        <ele>133.4</ele>
        <time>2021-04-10T14:33:01.000Z</time>
      </trkpt>
      <trkpt lat="37.94115677475929" lon="23.749915938824415">
        <ele>133.6</ele>
        <time>2021-04-10T14:33:05.000Z</time>
      </trkpt>
      <trkpt lat="37.94120446778834" lon="23.749900851398706">
        <ele>133.8</ele>
        <time>2021-04-10T14:33:08.000Z</time>
      </trkpt>
      <trkpt lat="37.941231206059456" lon="23.749890038743615">
        <ele>133.8</ele>
        <time>2021-04-10T14:33:10.000Z</time>
      </trkpt>
      <trkpt lat="37.94127688743174" lon="23.749866150319576">
        <ele>134</ele>
        <time>2021-04-10T14:33:14.000Z</time>
      </trkpt>
      <trkpt lat="37.941310750320554" lon="23.749839579686522">
        <ele>133.8</ele>
        <time>2021-04-10T14:33:17.000Z</time>
      </trkpt>
      <trkpt lat="37.9414033703506" lon="23.749777302145958">
        <ele>134</ele>
        <time>2021-04-10T14:33:25.000Z</time>
      </trkpt>
      <trkpt lat="37.94141963124275" lon="23.749750228598714">
        <ele>134</ele>
        <time>2021-04-10T14:33:28.000Z</time>
      </trkpt>
      <trkpt lat="37.94142784550786" lon="23.749741930514574">
        <ele>133.2</ele>
        <time>2021-04-10T14:33:31.000Z</time>
      </trkpt>
      <trkpt lat="37.94145567342639" lon="23.749712174758315">
        <ele>133</ele>
        <time>2021-04-10T14:33:40.000Z</time>
      </trkpt>
      <trkpt lat="37.94145483523607" lon="23.749713767319918">
        <ele>133</ele>
        <time>2021-04-10T14:33:41.000Z</time>
      </trkpt>
      <trkpt lat="37.94145994819701" lon="23.749714521691203">
        <ele>128.8</ele>
        <time>2021-04-10T14:33:43.000Z</time>
      </trkpt>
      <trkpt lat="37.941462295129895" lon="23.749715443700552">
        <ele>130.6</ele>
        <time>2021-04-10T14:33:44.000Z</time>
      </trkpt>
      <trkpt lat="37.941468078643084" lon="23.749713264405727">
        <ele>132</ele>
        <time>2021-04-10T14:33:46.000Z</time>
      </trkpt>
      <trkpt lat="37.94145927764475" lon="23.749687783420086">
        <ele>132.6</ele>
        <time>2021-04-10T14:33:52.000Z</time>
      </trkpt>
      <trkpt lat="37.94147713109851" lon="23.749601114541292">
        <ele>132.6</ele>
        <time>2021-04-10T14:33:59.000Z</time>
      </trkpt>
      <trkpt lat="37.94148501008749" lon="23.749589463695884">
        <ele>132.6</ele>
        <time>2021-04-10T14:34:00.000Z</time>
      </trkpt>
      <trkpt lat="37.94151233509183" lon="23.74955895356834">
        <ele>132.6</ele>
        <time>2021-04-10T14:34:04.000Z</time>
      </trkpt>
      <trkpt lat="37.94154452160001" lon="23.74953900463879">
        <ele>133.4</ele>
        <time>2021-04-10T14:34:07.000Z</time>
      </trkpt>
      <trkpt lat="37.94158659875393" lon="23.74952383339405">
        <ele>133.6</ele>
        <time>2021-04-10T14:34:10.000Z</time>
      </trkpt>
      <trkpt lat="37.941600596532226" lon="23.7495160382241">
        <ele>133.6</ele>
        <time>2021-04-10T14:34:11.000Z</time>
      </trkpt>
      <trkpt lat="37.94164384715259" lon="23.749466752633452">
        <ele>133.8</ele>
        <time>2021-04-10T14:34:16.000Z</time>
      </trkpt>
      <trkpt lat="37.941720709204674" lon="23.749423502013087">
        <ele>134.4</ele>
        <time>2021-04-10T14:34:24.000Z</time>
      </trkpt>
      <trkpt lat="37.941738897934556" lon="23.74941780231893">
        <ele>134.4</ele>
        <time>2021-04-10T14:34:25.000Z</time>
      </trkpt>
      <trkpt lat="37.94179287739098" lon="23.74942216090858">
        <ele>134.4</ele>
        <time>2021-04-10T14:34:28.000Z</time>
      </trkpt>
      <trkpt lat="37.94184107333422" lon="23.749393662437797">
        <ele>134.6</ele>
        <time>2021-04-10T14:34:32.000Z</time>
      </trkpt>
      <trkpt lat="37.94189295731485" lon="23.749344376847148">
        <ele>134.6</ele>
        <time>2021-04-10T14:34:37.000Z</time>
      </trkpt>
      <trkpt lat="37.94194861315191" lon="23.749319398775697">
        <ele>135.2</ele>
        <time>2021-04-10T14:34:41.000Z</time>
      </trkpt>
      <trkpt lat="37.94203855097294" lon="23.74931621365249">
        <ele>135.4</ele>
        <time>2021-04-10T14:34:48.000Z</time>
      </trkpt>
      <trkpt lat="37.942056991159916" lon="23.749316465109587">
        <ele>135.4</ele>
        <time>2021-04-10T14:34:50.000Z</time>
      </trkpt>
      <trkpt lat="37.94211524538696" lon="23.749281177297235">
        <ele>134.6</ele>
        <time>2021-04-10T14:34:55.000Z</time>
      </trkpt>
      <trkpt lat="37.94222035445273" lon="23.74921839684248">
        <ele>135</ele>
        <time>2021-04-10T14:35:03.000Z</time>
      </trkpt>
      <trkpt lat="37.94229671359062" lon="23.749146731570363">
        <ele>134.8</ele>
        <time>2021-04-10T14:35:09.000Z</time>
      </trkpt>
      <trkpt lat="37.94230920262635" lon="23.749140445142984">
        <ele>134.8</ele>
        <time>2021-04-10T14:35:10.000Z</time>
      </trkpt>
      <trkpt lat="37.94233510270715" lon="23.749118400737643">
        <ele>134.6</ele>
        <time>2021-04-10T14:35:12.000Z</time>
      </trkpt>
      <trkpt lat="37.942357985302806" lon="23.74908747151494">
        <ele>134.6</ele>
        <time>2021-04-10T14:35:14.000Z</time>
      </trkpt>
      <trkpt lat="37.94235865585506" lon="23.749047489836812">
        <ele>134.6</ele>
        <time>2021-04-10T14:35:16.000Z</time>
      </trkpt>
      <trkpt lat="37.94236779212952" lon="23.748973729088902">
        <ele>134.8</ele>
        <time>2021-04-10T14:35:19.000Z</time>
      </trkpt>
      <trkpt lat="37.94246703386307" lon="23.749057296663523">
        <ele>134.6</ele>
        <time>2021-04-10T14:35:25.000Z</time>
      </trkpt>
      <trkpt lat="37.942494777962565" lon="23.749075820669532">
        <ele>134.6</ele>
        <time>2021-04-10T14:35:27.000Z</time>
      </trkpt>
      <trkpt lat="37.94254523701966" lon="23.749050507321954">
        <ele>134.2</ele>
        <time>2021-04-10T14:35:31.000Z</time>
      </trkpt>
      <trkpt lat="37.942612543702126" lon="23.74898730777204">
        <ele>134.2</ele>
        <time>2021-04-10T14:35:36.000Z</time>
      </trkpt>
      <trkpt lat="37.94260676018894" lon="23.748972807079554">
        <ele>134.2</ele>
        <time>2021-04-10T14:35:38.000Z</time>
      </trkpt>
      <trkpt lat="37.94259083457291" lon="23.748970041051507">
        <ele>134.2</ele>
        <time>2021-04-10T14:35:39.000Z</time>
      </trkpt>
      <trkpt lat="37.94256962835789" lon="23.748986888676882">
        <ele>134.2</ele>
        <time>2021-04-10T14:35:45.000Z</time>
      </trkpt>
      <trkpt lat="37.94254230335355" lon="23.748934250324965">
        <ele>134.4</ele>
        <time>2021-04-10T14:35:51.000Z</time>
      </trkpt>
      <trkpt lat="37.94255554676056" lon="23.748905500397086">
        <ele>134.4</ele>
        <time>2021-04-10T14:35:53.000Z</time>
      </trkpt>
      <trkpt lat="37.942565185949206" lon="23.7488891556859">
        <ele>134.4</ele>
        <time>2021-04-10T14:35:54.000Z</time>
      </trkpt>
      <trkpt lat="37.94258454814553" lon="23.748822268098593">
        <ele>134.4</ele>
        <time>2021-04-10T14:35:58.000Z</time>
      </trkpt>
      <trkpt lat="37.942592008039355" lon="23.748810701072216">
        <ele>134.4</ele>
        <time>2021-04-10T14:35:59.000Z</time>
      </trkpt>
      <trkpt lat="37.9426399525255" lon="23.748786225914955">
        <ele>134.2</ele>
        <time>2021-04-10T14:36:02.000Z</time>
      </trkpt>
      <trkpt lat="37.94269183650613" lon="23.748794021084905">
        <ele>134.2</ele>
        <time>2021-04-10T14:36:05.000Z</time>
      </trkpt>
      <trkpt lat="37.94270717538893" lon="23.7488080188632">
        <ele>134.2</ele>
        <time>2021-04-10T14:36:06.000Z</time>
      </trkpt>
      <trkpt lat="37.942731315270066" lon="23.748805252835155">
        <ele>134.6</ele>
        <time>2021-04-10T14:36:08.000Z</time>
      </trkpt>
      <trkpt lat="37.94273064471781" lon="23.748758733272552">
        <ele>134.6</ele>
        <time>2021-04-10T14:36:10.000Z</time>
      </trkpt>
      <trkpt lat="37.94275897555053" lon="23.74878262169659">
        <ele>134.4</ele>
        <time>2021-04-10T14:36:12.000Z</time>
      </trkpt>
      <trkpt lat="37.94277540408075" lon="23.748800894245505">
        <ele>134.4</ele>
        <time>2021-04-10T14:36:13.000Z</time>
      </trkpt>
      <trkpt lat="37.94279711320996" lon="23.74884213320911">
        <ele>134.2</ele>
        <time>2021-04-10T14:36:15.000Z</time>
      </trkpt>
      <trkpt lat="37.94281689450145" lon="23.748858394101262">
        <ele>134.2</ele>
        <time>2021-04-10T14:36:17.000Z</time>
      </trkpt>
      <trkpt lat="37.94282536022365" lon="23.748858477920294">
        <ele>134.2</ele>
        <time>2021-04-10T14:36:18.000Z</time>
      </trkpt>
      <trkpt lat="37.942850003018975" lon="23.74884556978941">
        <ele>133.8</ele>
        <time>2021-04-10T14:36:20.000Z</time>
      </trkpt>
      <trkpt lat="37.942873891443014" lon="23.748877169564366">
        <ele>133.4</ele>
        <time>2021-04-10T14:36:24.000Z</time>
      </trkpt>
      <trkpt lat="37.94290934689343" lon="23.748920001089573">
        <ele>133.6</ele>
        <time>2021-04-10T14:36:26.000Z</time>
      </trkpt>
      <trkpt lat="37.94296642765403" lon="23.74891354702413">
        <ele>133.8</ele>
        <time>2021-04-10T14:36:29.000Z</time>
      </trkpt>
      <trkpt lat="37.943077655509114" lon="23.748860908672214">
        <ele>134</ele>
        <time>2021-04-10T14:36:37.000Z</time>
      </trkpt>
      <trkpt lat="37.943111853674054" lon="23.7488288898021">
        <ele>133.6</ele>
        <time>2021-04-10T14:36:39.000Z</time>
      </trkpt>
      <trkpt lat="37.94312828220427" lon="23.748825285583735">
        <ele>133.4</ele>
        <time>2021-04-10T14:36:40.000Z</time>
      </trkpt>
      <trkpt lat="37.94318293221295" lon="23.74880852177739">
        <ele>132.8</ele>
        <time>2021-04-10T14:36:43.000Z</time>
      </trkpt>
      <trkpt lat="37.94322551228106" lon="23.748806593939662">
        <ele>132.2</ele>
        <time>2021-04-10T14:36:46.000Z</time>
      </trkpt>
      <trkpt lat="37.943236073479056" lon="23.748807767406106">
        <ele>132.2</ele>
        <time>2021-04-10T14:36:47.000Z</time>
      </trkpt>
      <trkpt lat="37.94324370101094" lon="23.748809611424804">
        <ele>132.2</ele>
        <time>2021-04-10T14:36:48.000Z</time>
      </trkpt>
      <trkpt lat="37.94325761497021" lon="23.7488011457026">
        <ele>132.2</ele>
        <time>2021-04-10T14:36:49.000Z</time>
      </trkpt>
      <trkpt lat="37.94328762218356" lon="23.74878505244851">
        <ele>132</ele>
        <time>2021-04-10T14:36:51.000Z</time>
      </trkpt>
      <trkpt lat="37.94336775317788" lon="23.748702323064208">
        <ele>131.8</ele>
        <time>2021-04-10T14:36:58.000Z</time>
      </trkpt>
      <trkpt lat="37.94345769099891" lon="23.74863057397306">
        <ele>131.4</ele>
        <time>2021-04-10T14:37:05.000Z</time>
      </trkpt>
      <trkpt lat="37.94346883893013" lon="23.748618671670556">
        <ele>131.2</ele>
        <time>2021-04-10T14:37:06.000Z</time>
      </trkpt>
      <trkpt lat="37.94354394078255" lon="23.748584892600775">
        <ele>130.6</ele>
        <time>2021-04-10T14:37:11.000Z</time>
      </trkpt>
      <trkpt lat="37.943561458960176" lon="23.748578606173396">
        <ele>130.4</ele>
        <time>2021-04-10T14:37:12.000Z</time>
      </trkpt>
      <trkpt lat="37.94357788749039" lon="23.748567877337337">
        <ele>130.2</ele>
        <time>2021-04-10T14:37:13.000Z</time>
      </trkpt>
      <trkpt lat="37.94361141510308" lon="23.74855044297874">
        <ele>129.8</ele>
        <time>2021-04-10T14:37:16.000Z</time>
      </trkpt>
      <trkpt lat="37.94364863075316" lon="23.748538959771395">
        <ele>129.6</ele>
        <time>2021-04-10T14:37:19.000Z</time>
      </trkpt>
      <trkpt lat="37.9436793923378" lon="23.748517921194434">
        <ele>129</ele>
        <time>2021-04-10T14:37:23.000Z</time>
      </trkpt>
      <trkpt lat="37.9437277559191" lon="23.74848498031497">
        <ele>128.8</ele>
        <time>2021-04-10T14:37:26.000Z</time>
      </trkpt>
      <trkpt lat="37.94383571483195" lon="23.748613726347685">
        <ele>128.8</ele>
        <time>2021-04-10T14:37:31.000Z</time>
      </trkpt>
      <trkpt lat="37.94383730739355" lon="23.748619258403778">
        <ele>129</ele>
        <time>2021-04-10T14:37:32.000Z</time>
      </trkpt>
      <trkpt lat="37.94380344450474" lon="23.74862034805119">
        <ele>129</ele>
        <time>2021-04-10T14:37:38.000Z</time>
      </trkpt>
      <trkpt lat="37.9438107367605" lon="23.74859101139009">
        <ele>128.8</ele>
        <time>2021-04-10T14:37:41.000Z</time>
      </trkpt>
      <trkpt lat="37.943876618519425" lon="23.74850844964385">
        <ele>128.6</ele>
        <time>2021-04-10T14:37:47.000Z</time>
      </trkpt>
      <trkpt lat="37.94397510588169" lon="23.748435778543353">
        <ele>128.2</ele>
        <time>2021-04-10T14:37:55.000Z</time>
      </trkpt>
      <trkpt lat="37.944035371765494" lon="23.748406693339348">
        <ele>128</ele>
        <time>2021-04-10T14:37:59.000Z</time>
      </trkpt>
      <trkpt lat="37.9440797958523" lon="23.748379200696945">
        <ele>128</ele>
        <time>2021-04-10T14:38:03.000Z</time>
      </trkpt>
      <trkpt lat="37.94410854578018" lon="23.748377691954374">
        <ele>128</ele>
        <time>2021-04-10T14:38:06.000Z</time>
      </trkpt>
      <trkpt lat="37.94413570314646" lon="23.74836729839444">
        <ele>127.6</ele>
        <time>2021-04-10T14:38:08.000Z</time>
      </trkpt>
      <trkpt lat="37.94422362931073" lon="23.748327400535345">
        <ele>127.2</ele>
        <time>2021-04-10T14:38:14.000Z</time>
      </trkpt>
      <trkpt lat="37.94435019604862" lon="23.74821818433702">
        <ele>126.6</ele>
        <time>2021-04-10T14:38:23.000Z</time>
      </trkpt>
      <trkpt lat="37.94446402229369" lon="23.748123552650213">
        <ele>126.6</ele>
        <time>2021-04-10T14:38:33.000Z</time>
      </trkpt>
      <trkpt lat="37.94454189017415" lon="23.7481311801821">
        <ele>126.4</ele>
        <time>2021-04-10T14:38:38.000Z</time>
      </trkpt>
      <trkpt lat="37.944566113874316" lon="23.748120786622167">
        <ele>125.8</ele>
        <time>2021-04-10T14:38:41.000Z</time>
      </trkpt>
      <trkpt lat="37.944580782204866" lon="23.74810720793903">
        <ele>125.6</ele>
        <time>2021-04-10T14:38:42.000Z</time>
      </trkpt>
      <trkpt lat="37.94460098259151" lon="23.748097401112318">
        <ele>125.6</ele>
        <time>2021-04-10T14:38:43.000Z</time>
      </trkpt>
      <trkpt lat="37.9446982126683" lon="23.74805591069162">
        <ele>125.6</ele>
        <time>2021-04-10T14:38:48.000Z</time>
      </trkpt>
      <trkpt lat="37.9447967838496" lon="23.747973265126348">
        <ele>125.4</ele>
        <time>2021-04-10T14:38:56.000Z</time>
      </trkpt>
      <trkpt lat="37.9447637591511" lon="23.747909981757402">
        <ele>125</ele>
        <time>2021-04-10T14:39:03.000Z</time>
      </trkpt>
      <trkpt lat="37.94475336559117" lon="23.747807387262583">
        <ele>125.2</ele>
        <time>2021-04-10T14:39:08.000Z</time>
      </trkpt>
      <trkpt lat="37.94476484879851" lon="23.747776625677943">
        <ele>125.4</ele>
        <time>2021-04-10T14:39:10.000Z</time>
      </trkpt>
      <trkpt lat="37.94478421099484" lon="23.747763046994805">
        <ele>125.4</ele>
        <time>2021-04-10T14:39:12.000Z</time>
      </trkpt>
      <trkpt lat="37.94479988515377" lon="23.747757095843554">
        <ele>125.4</ele>
        <time>2021-04-10T14:39:17.000Z</time>
      </trkpt>
      <trkpt lat="37.94479644857347" lon="23.747759023681283">
        <ele>125.2</ele>
        <time>2021-04-10T14:39:19.000Z</time>
      </trkpt>
      <trkpt lat="37.94474372640252" lon="23.7477857619524">
        <ele>125</ele>
        <time>2021-04-10T14:39:26.000Z</time>
      </trkpt>
      <trkpt lat="37.944751270115376" lon="23.74773303978145">
        <ele>125</ele>
        <time>2021-04-10T14:39:33.000Z</time>
      </trkpt>
      <trkpt lat="37.94479611329734" lon="23.747949544340372">
        <ele>124.6</ele>
        <time>2021-04-10T14:40:06.000Z</time>
      </trkpt>
      <trkpt lat="37.94480969198048" lon="23.74791467562318">
        <ele>124.6</ele>
        <time>2021-04-10T14:40:07.000Z</time>
      </trkpt>
      <trkpt lat="37.94484908692539" lon="23.74783504754305">
        <ele>124.8</ele>
        <time>2021-04-10T14:40:11.000Z</time>
      </trkpt>
      <trkpt lat="37.94490046799183" lon="23.747759107500315">
        <ele>124.8</ele>
        <time>2021-04-10T14:40:14.000Z</time>
      </trkpt>
      <trkpt lat="37.94492041692138" lon="23.747731782495975">
        <ele>125</ele>
        <time>2021-04-10T14:40:16.000Z</time>
      </trkpt>
      <trkpt lat="37.944925697520375" lon="23.747720047831535">
        <ele>125</ele>
        <time>2021-04-10T14:40:18.000Z</time>
      </trkpt>
      <trkpt lat="37.94496995396912" lon="23.74769632704556">
        <ele>125.2</ele>
        <time>2021-04-10T14:40:22.000Z</time>
      </trkpt>
      <trkpt lat="37.94499283656478" lon="23.74769096262753">
        <ele>125</ele>
        <time>2021-04-10T14:40:23.000Z</time>
      </trkpt>
      <trkpt lat="37.94504161924124" lon="23.747668163850904">
        <ele>125.2</ele>
        <time>2021-04-10T14:40:26.000Z</time>
      </trkpt>
      <trkpt lat="37.94506852515042" lon="23.747659781947732">
        <ele>125.2</ele>
        <time>2021-04-10T14:40:28.000Z</time>
      </trkpt>
      <trkpt lat="37.94510850682855" lon="23.747646287083626">
        <ele>125</ele>
        <time>2021-04-10T14:40:32.000Z</time>
      </trkpt>
      <trkpt lat="37.94514295645058" lon="23.747610496357083">
        <ele>124.8</ele>
        <time>2021-04-10T14:40:35.000Z</time>
      </trkpt>
      <trkpt lat="37.94519869610667" lon="23.747584763914347">
        <ele>125</ele>
        <time>2021-04-10T14:40:38.000Z</time>
      </trkpt>
      <trkpt lat="37.94523222371936" lon="23.74758048914373">
        <ele>124.6</ele>
        <time>2021-04-10T14:40:42.000Z</time>
      </trkpt>
      <trkpt lat="37.94529248960316" lon="23.74755701981485">
        <ele>124</ele>
        <time>2021-04-10T14:40:48.000Z</time>
      </trkpt>
      <trkpt lat="37.94530355371535" lon="23.747542770579457">
        <ele>124</ele>
        <time>2021-04-10T14:40:49.000Z</time>
      </trkpt>
      <trkpt lat="37.94531277380884" lon="23.747534807771444">
        <ele>124</ele>
        <time>2021-04-10T14:40:50.000Z</time>
      </trkpt>
      <trkpt lat="37.945347307249904" lon="23.747500777244568">
        <ele>124.2</ele>
        <time>2021-04-10T14:40:53.000Z</time>
      </trkpt>
      <trkpt lat="37.94537262059748" lon="23.747469764202833">
        <ele>124.2</ele>
        <time>2021-04-10T14:40:55.000Z</time>
      </trkpt>
      <trkpt lat="37.945459792390466" lon="23.747500777244568">
        <ele>125</ele>
        <time>2021-04-10T14:41:02.000Z</time>
      </trkpt>
      <trkpt lat="37.94546473771334" lon="23.747496334835887">
        <ele>124.8</ele>
        <time>2021-04-10T14:41:03.000Z</time>
      </trkpt>
      <trkpt lat="37.9454789031297" lon="23.747488958761096">
        <ele>124.4</ele>
        <time>2021-04-10T14:41:05.000Z</time>
      </trkpt>
      <trkpt lat="37.94554512016475" lon="23.747480660676956">
        <ele>124.4</ele>
        <time>2021-04-10T14:41:09.000Z</time>
      </trkpt>
      <trkpt lat="37.94556833803654" lon="23.747483007609844">
        <ele>124.2</ele>
        <time>2021-04-10T14:41:11.000Z</time>
      </trkpt>
      <trkpt lat="37.945631789043546" lon="23.747424837201834">
        <ele>124.8</ele>
        <time>2021-04-10T14:41:15.000Z</time>
      </trkpt>
      <trkpt lat="37.94564167968929" lon="23.747414192184806">
        <ele>125</ele>
        <time>2021-04-10T14:41:16.000Z</time>
      </trkpt>
      <trkpt lat="37.94571049511433" lon="23.747363816946745">
        <ele>125</ele>
        <time>2021-04-10T14:41:21.000Z</time>
      </trkpt>
      <trkpt lat="37.94572197832167" lon="23.747351160272956">
        <ele>124.8</ele>
        <time>2021-04-10T14:41:22.000Z</time>
      </trkpt>
      <trkpt lat="37.945830104872584" lon="23.74728972092271">
        <ele>124.4</ele>
        <time>2021-04-10T14:41:29.000Z</time>
      </trkpt>
      <trkpt lat="37.945953737944365" lon="23.747279327362776">
        <ele>124.8</ele>
        <time>2021-04-10T14:41:36.000Z</time>
      </trkpt>
      <trkpt lat="37.94594971463084" lon="23.747271448373795">
        <ele>124.6</ele>
        <time>2021-04-10T14:41:38.000Z</time>
      </trkpt>
      <trkpt lat="37.945982655510306" lon="23.747192239388824">
        <ele>124.6</ele>
        <time>2021-04-10T14:41:44.000Z</time>
      </trkpt>
      <trkpt lat="37.94607234187424" lon="23.74712317250669">
        <ele>124.8</ele>
        <time>2021-04-10T14:41:51.000Z</time>
      </trkpt>
      <trkpt lat="37.946161944419146" lon="23.747008675709367">
        <ele>124.4</ele>
        <time>2021-04-10T14:42:00.000Z</time>
      </trkpt>
      <trkpt lat="37.946214247494936" lon="23.746970873326063">
        <ele>124.2</ele>
        <time>2021-04-10T14:42:04.000Z</time>
      </trkpt>
      <trkpt lat="37.94625213369727" lon="23.746978333219886">
        <ele>124.4</ele>
        <time>2021-04-10T14:42:07.000Z</time>
      </trkpt>
      <trkpt lat="37.946268478408456" lon="23.746976237744093">
        <ele>124.4</ele>
        <time>2021-04-10T14:42:08.000Z</time>
      </trkpt>
      <trkpt lat="37.946284990757704" lon="23.74697271734476">
        <ele>124.6</ele>
        <time>2021-04-10T14:42:09.000Z</time>
      </trkpt>
      <trkpt lat="37.946330923587084" lon="23.746957210823894">
        <ele>125</ele>
        <time>2021-04-10T14:42:12.000Z</time>
      </trkpt>
      <trkpt lat="37.946346681565046" lon="23.746937848627567">
        <ele>125</ele>
        <time>2021-04-10T14:42:14.000Z</time>
      </trkpt>
      <trkpt lat="37.946374928578734" lon="23.746883366256952">
        <ele>125</ele>
        <time>2021-04-10T14:42:17.000Z</time>
      </trkpt>
      <trkpt lat="37.94639378786087" lon="23.746878588572145">
        <ele>125.2</ele>
        <time>2021-04-10T14:42:18.000Z</time>
      </trkpt>
      <trkpt lat="37.94644156470895" lon="23.7468618247658">
        <ele>125.6</ele>
        <time>2021-04-10T14:42:21.000Z</time>
      </trkpt>
      <trkpt lat="37.946468805894256" lon="23.74685059301555">
        <ele>125.4</ele>
        <time>2021-04-10T14:42:23.000Z</time>
      </trkpt>
      <trkpt lat="37.94647978618741" lon="23.74684506095946">
        <ele>125.4</ele>
        <time>2021-04-10T14:42:24.000Z</time>
      </trkpt>
      <trkpt lat="37.946488838642836" lon="23.74681924469769">
        <ele>125.2</ele>
        <time>2021-04-10T14:42:27.000Z</time>
      </trkpt>
      <trkpt lat="37.94649336487055" lon="23.746788734570146">
        <ele>125.4</ele>
        <time>2021-04-10T14:42:29.000Z</time>
      </trkpt>
      <trkpt lat="37.946514151990414" lon="23.746745316311717">
        <ele>125.4</ele>
        <time>2021-04-10T14:42:32.000Z</time>
      </trkpt>
      <trkpt lat="37.946542985737324" lon="23.74671656638384">
        <ele>125.6</ele>
        <time>2021-04-10T14:42:34.000Z</time>
      </trkpt>
      <trkpt lat="37.94657274149358" lon="23.746708016842604">
        <ele>125.8</ele>
        <time>2021-04-10T14:42:36.000Z</time>
      </trkpt>
      <trkpt lat="37.946584140881896" lon="23.746704077348113">
        <ele>126</ele>
        <time>2021-04-10T14:42:37.000Z</time>
      </trkpt>
      <trkpt lat="37.946594366803765" lon="23.746698377653956">
        <ele>126.2</ele>
        <time>2021-04-10T14:42:38.000Z</time>
      </trkpt>
      <trkpt lat="37.94665371067822" lon="23.74663643538952">
        <ele>126.2</ele>
        <time>2021-04-10T14:42:42.000Z</time>
      </trkpt>
      <trkpt lat="37.94679880142212" lon="23.74658572487533">
        <ele>126</ele>
        <time>2021-04-10T14:42:50.000Z</time>
      </trkpt>
      <trkpt lat="37.94680877588689" lon="23.746458236128092">
        <ele>125.4</ele>
        <time>2021-04-10T14:42:58.000Z</time>
      </trkpt>
      <trkpt lat="37.946810871362686" lon="23.746444573625922">
        <ele>125.4</ele>
        <time>2021-04-10T14:42:59.000Z</time>
      </trkpt>
      <trkpt lat="37.9468119610101" lon="23.746409537270665">
        <ele>125.6</ele>
        <time>2021-04-10T14:43:02.000Z</time>
      </trkpt>
      <trkpt lat="37.946816738694906" lon="23.74639268964529">
        <ele>125.8</ele>
        <time>2021-04-10T14:43:03.000Z</time>
      </trkpt>
      <trkpt lat="37.94683509506285" lon="23.746374920010567">
        <ele>126</ele>
        <time>2021-04-10T14:43:04.000Z</time>
      </trkpt>
      <trkpt lat="37.94701580889523" lon="23.74633116647601">
        <ele>126.4</ele>
        <time>2021-04-10T14:43:07.000Z</time>
      </trkpt>
      <trkpt lat="37.94701564125717" lon="23.746444825083017">
        <ele>126.4</ele>
        <time>2021-04-10T14:43:10.000Z</time>
      </trkpt>
      <trkpt lat="37.947023436427116" lon="23.746451111510396">
        <ele>126.4</ele>
        <time>2021-04-10T14:43:11.000Z</time>
      </trkpt>
      <trkpt lat="37.947028214111924" lon="23.746447088196874">
        <ele>126</ele>
        <time>2021-04-10T14:43:15.000Z</time>
      </trkpt>
      <trkpt lat="37.947027711197734" lon="23.746443651616573">
        <ele>125.8</ele>
        <time>2021-04-10T14:43:17.000Z</time>
      </trkpt>
      <trkpt lat="37.947047743946314" lon="23.746459325775504">
        <ele>125.8</ele>
        <time>2021-04-10T14:43:22.000Z</time>
      </trkpt>
      <trkpt lat="37.94706677086651" lon="23.746489752084017">
        <ele>125.8</ele>
        <time>2021-04-10T14:43:24.000Z</time>
      </trkpt>
      <trkpt lat="37.94711102731526" lon="23.74650215730071">
        <ele>125.8</ele>
        <time>2021-04-10T14:43:30.000Z</time>
      </trkpt>
      <trkpt lat="37.9471106082201" lon="23.74649679288268">
        <ele>125.8</ele>
        <time>2021-04-10T14:43:31.000Z</time>
      </trkpt>
      <trkpt lat="37.94711982831359" lon="23.74642060138285">
        <ele>126.2</ele>
        <time>2021-04-10T14:43:35.000Z</time>
      </trkpt>
      <trkpt lat="37.94711655937135" lon="23.746402161195874">
        <ele>126.2</ele>
        <time>2021-04-10T14:43:36.000Z</time>
      </trkpt>
      <trkpt lat="37.9471246059984" lon="23.746360754594207">
        <ele>126.4</ele>
        <time>2021-04-10T14:43:38.000Z</time>
      </trkpt>
      <trkpt lat="37.947136759757996" lon="23.74631549231708">
        <ele>126.2</ele>
        <time>2021-04-10T14:43:42.000Z</time>
      </trkpt>
      <trkpt lat="37.94713072478771" lon="23.74630275182426">
        <ele>126.2</ele>
        <time>2021-04-10T14:43:43.000Z</time>
      </trkpt>
      <trkpt lat="37.947146985679865" lon="23.746256986632943">
        <ele>126</ele>
        <time>2021-04-10T14:43:46.000Z</time>
      </trkpt>
      <trkpt lat="37.94717607088387" lon="23.74625002965331">
        <ele>126.4</ele>
        <time>2021-04-10T14:43:49.000Z</time>
      </trkpt>
      <trkpt lat="37.94722300954163" lon="23.746218094602227">
        <ele>126.4</ele>
        <time>2021-04-10T14:43:53.000Z</time>
      </trkpt>
      <trkpt lat="37.94726022519171" lon="23.746187249198556">
        <ele>126</ele>
        <time>2021-04-10T14:43:56.000Z</time>
      </trkpt>
      <trkpt lat="37.94728612527251" lon="23.746138801798224">
        <ele>125.8</ele>
        <time>2021-04-10T14:43:58.000Z</time>
      </trkpt>
      <trkpt lat="37.947294004261494" lon="23.746120193973184">
        <ele>125.6</ele>
        <time>2021-04-10T14:43:59.000Z</time>
      </trkpt>
      <trkpt lat="37.947313115000725" lon="23.74607317149639">
        <ele>125.6</ele>
        <time>2021-04-10T14:44:02.000Z</time>
      </trkpt>
      <trkpt lat="37.94732610695064" lon="23.74607166275382">
        <ele>125.4</ele>
        <time>2021-04-10T14:44:03.000Z</time>
      </trkpt>
      <trkpt lat="37.947355192154646" lon="23.7460364587605">
        <ele>124.4</ele>
        <time>2021-04-10T14:44:06.000Z</time>
      </trkpt>
      <trkpt lat="37.94736558571458" lon="23.746018270030618">
        <ele>124</ele>
        <time>2021-04-10T14:44:07.000Z</time>
      </trkpt>
      <trkpt lat="37.947418643161654" lon="23.74595968052745">
        <ele>123.6</ele>
        <time>2021-04-10T14:44:13.000Z</time>
      </trkpt>
      <trkpt lat="37.947535403072834" lon="23.745978204533458">
        <ele>124</ele>
        <time>2021-04-10T14:44:20.000Z</time>
      </trkpt>
      <trkpt lat="37.94765484519303" lon="23.745930595323443">
        <ele>124.4</ele>
        <time>2021-04-10T14:44:29.000Z</time>
      </trkpt>
      <trkpt lat="37.94769826345146" lon="23.745875945314765">
        <ele>124.4</ele>
        <time>2021-04-10T14:44:33.000Z</time>
      </trkpt>
      <trkpt lat="37.94771586544812" lon="23.745805453509092">
        <ele>123.4</ele>
        <time>2021-04-10T14:44:38.000Z</time>
      </trkpt>
      <trkpt lat="37.94771645218134" lon="23.745768573135138">
        <ele>123.2</ele>
        <time>2021-04-10T14:44:41.000Z</time>
      </trkpt>
      <trkpt lat="37.94773003086448" lon="23.745731944218278">
        <ele>123</ele>
        <time>2021-04-10T14:44:43.000Z</time>
      </trkpt>
      <trkpt lat="37.94775593094528" lon="23.7457066308707">
        <ele>122.8</ele>
        <time>2021-04-10T14:44:47.000Z</time>
      </trkpt>
      <trkpt lat="37.947798343375325" lon="23.745704954490066">
        <ele>122.8</ele>
        <time>2021-04-10T14:44:49.000Z</time>
      </trkpt>
      <trkpt lat="37.947811000049114" lon="23.745707971975207">
        <ele>123</ele>
        <time>2021-04-10T14:44:50.000Z</time>
      </trkpt>
      <trkpt lat="37.94781778939068" lon="23.74571635387838">
        <ele>123</ele>
        <time>2021-04-10T14:44:51.000Z</time>
      </trkpt>
      <trkpt lat="37.94781611301005" lon="23.745736805722117">
        <ele>123</ele>
        <time>2021-04-10T14:44:53.000Z</time>
      </trkpt>
      <trkpt lat="37.947807060554624" lon="23.74572473578155">
        <ele>123</ele>
        <time>2021-04-10T14:44:55.000Z</time>
      </trkpt>
      <trkpt lat="37.94783555902541" lon="23.745735716074705">
        <ele>122.6</ele>
        <time>2021-04-10T14:45:01.000Z</time>
      </trkpt>
      <trkpt lat="37.94787336140871" lon="23.745760777965188">
        <ele>122.4</ele>
        <time>2021-04-10T14:45:03.000Z</time>
      </trkpt>
      <trkpt lat="37.94789716601372" lon="23.745769578963518">
        <ele>122.4</ele>
        <time>2021-04-10T14:45:05.000Z</time>
      </trkpt>
      <trkpt lat="37.94790864922106" lon="23.745760275050998">
        <ele>122.4</ele>
        <time>2021-04-10T14:45:06.000Z</time>
      </trkpt>
      <trkpt lat="37.9479327891022" lon="23.745721047744155">
        <ele>122.2</ele>
        <time>2021-04-10T14:45:08.000Z</time>
      </trkpt>
      <trkpt lat="37.947926837950945" lon="23.745738146826625">
        <ele>122.2</ele>
        <time>2021-04-10T14:45:11.000Z</time>
      </trkpt>
      <trkpt lat="37.947909738868475" lon="23.745751474052668">
        <ele>122</ele>
        <time>2021-04-10T14:45:13.000Z</time>
      </trkpt>
      <trkpt lat="37.94789272360504" lon="23.745836382731795">
        <ele>122.2</ele>
        <time>2021-04-10T14:45:20.000Z</time>
      </trkpt>
      <trkpt lat="37.94790362007916" lon="23.745881896466017">
        <ele>122.2</ele>
        <time>2021-04-10T14:45:24.000Z</time>
      </trkpt>
      <trkpt lat="37.94790747575462" lon="23.74590653926134">
        <ele>122</ele>
        <time>2021-04-10T14:45:28.000Z</time>
      </trkpt>
      <trkpt lat="37.9478997644037" lon="23.745883740484715">
        <ele>122</ele>
        <time>2021-04-10T14:45:33.000Z</time>
      </trkpt>
      <trkpt lat="37.9479275085032" lon="23.74583948403597">
        <ele>122.6</ele>
        <time>2021-04-10T14:45:36.000Z</time>
      </trkpt>
      <trkpt lat="37.9479327891022" lon="23.7458326946944">
        <ele>122.6</ele>
        <time>2021-04-10T14:45:37.000Z</time>
      </trkpt>
      <trkpt lat="37.947965394705534" lon="23.745816266164184">
        <ele>122</ele>
        <time>2021-04-10T14:45:42.000Z</time>
      </trkpt>
      <trkpt lat="37.94799632392824" lon="23.745795479044318">
        <ele>121.8</ele>
        <time>2021-04-10T14:45:44.000Z</time>
      </trkpt>
      <trkpt lat="37.948056757450104" lon="23.745749797672033">
        <ele>122.2</ele>
        <time>2021-04-10T14:45:50.000Z</time>
      </trkpt>
      <trkpt lat="37.94806480407715" lon="23.74574820511043">
        <ele>122</ele>
        <time>2021-04-10T14:45:52.000Z</time>
      </trkpt>
      <trkpt lat="37.948068073019385" lon="23.745776284486055">
        <ele>122</ele>
        <time>2021-04-10T14:46:00.000Z</time>
      </trkpt>
      <trkpt lat="37.94807855039835" lon="23.745775194838643">
        <ele>122</ele>
        <time>2021-04-10T14:46:02.000Z</time>
      </trkpt>
      <trkpt lat="37.94807318598032" lon="23.74576924368739">
        <ele>122</ele>
        <time>2021-04-10T14:46:07.000Z</time>
      </trkpt>
      <trkpt lat="37.94809129089117" lon="23.745769495144486">
        <ele>122</ele>
        <time>2021-04-10T14:46:14.000Z</time>
      </trkpt>
      <trkpt lat="37.948080226778984" lon="23.745790282264352">
        <ele>122</ele>
        <time>2021-04-10T14:46:22.000Z</time>
      </trkpt>
      <trkpt lat="37.94804351404309" lon="23.745809476822615">
        <ele>122</ele>
        <time>2021-04-10T14:46:28.000Z</time>
      </trkpt>
      <trkpt lat="37.94803446158767" lon="23.745808470994234">
        <ele>122</ele>
        <time>2021-04-10T14:46:29.000Z</time>
      </trkpt>
      <trkpt lat="37.94798031449318" lon="23.745802268385887">
        <ele>122</ele>
        <time>2021-04-10T14:46:39.000Z</time>
      </trkpt>
      <trkpt lat="37.947981990873814" lon="23.74579891562462">
        <ele>122</ele>
        <time>2021-04-10T14:46:41.000Z</time>
      </trkpt>
      <trkpt lat="37.94798953458667" lon="23.745792042464018">
        <ele>122</ele>
        <time>2021-04-10T14:46:46.000Z</time>
      </trkpt>
      <trkpt lat="37.94798978604376" lon="23.74579011462629">
        <ele>122</ele>
        <time>2021-04-10T14:46:47.000Z</time>
      </trkpt>
      <trkpt lat="37.94797318987548" lon="23.745776787400246">
        <ele>122</ele>
        <time>2021-04-10T14:46:55.000Z</time>
      </trkpt>
      <trkpt lat="37.947961958125234" lon="23.745787935331464">
        <ele>122</ele>
        <time>2021-04-10T14:47:00.000Z</time>
      </trkpt>
      <trkpt lat="37.94794385321438" lon="23.74579011462629">
        <ele>122</ele>
        <time>2021-04-10T14:47:05.000Z</time>
      </trkpt>
      <trkpt lat="37.947948127985" lon="23.74578977935016">
        <ele>122</ele>
        <time>2021-04-10T14:47:13.000Z</time>
      </trkpt>
      <trkpt lat="37.947994228452444" lon="23.74580486677587">
        <ele>122</ele>
        <time>2021-04-10T14:47:20.000Z</time>
      </trkpt>
      <trkpt lat="37.94801057316363" lon="23.745789946988225">
        <ele>122</ele>
        <time>2021-04-10T14:47:22.000Z</time>
      </trkpt>
      <trkpt lat="37.948062708601356" lon="23.745745019987226">
        <ele>122</ele>
        <time>2021-04-10T14:47:27.000Z</time>
      </trkpt>
      <trkpt lat="37.9480430111289" lon="23.74574225395918">
        <ele>122.4</ele>
        <time>2021-04-10T14:47:34.000Z</time>
      </trkpt>
      <trkpt lat="37.94802415184677" lon="23.74571157619357">
        <ele>122.6</ele>
        <time>2021-04-10T14:47:40.000Z</time>
      </trkpt>
      <trkpt lat="37.9480015207082" lon="23.74569338746369">
        <ele>122.4</ele>
        <time>2021-04-10T14:47:46.000Z</time>
      </trkpt>
      <trkpt lat="37.94801987707615" lon="23.745675701647997">
        <ele>122.6</ele>
        <time>2021-04-10T14:47:52.000Z</time>
      </trkpt>
      <trkpt lat="37.94802180491388" lon="23.745685843750834">
        <ele>122.8</ele>
        <time>2021-04-10T14:47:54.000Z</time>
      </trkpt>
      <trkpt lat="37.948022056370974" lon="23.74570218846202">
        <ele>122.8</ele>
        <time>2021-04-10T14:47:55.000Z</time>
      </trkpt>
      <trkpt lat="37.94802968390286" lon="23.74575113877654">
        <ele>122.6</ele>
        <time>2021-04-10T14:47:58.000Z</time>
      </trkpt>
      <trkpt lat="37.948028007522225" lon="23.745772428810596">
        <ele>122.8</ele>
        <time>2021-04-10T14:48:00.000Z</time>
      </trkpt>
      <trkpt lat="37.94802809134126" lon="23.74577645212412">
        <ele>122.8</ele>
        <time>2021-04-10T14:48:01.000Z</time>
      </trkpt>
      <trkpt lat="37.94804519042373" lon="23.745767902582884">
        <ele>122.4</ele>
        <time>2021-04-10T14:48:06.000Z</time>
      </trkpt>
      <trkpt lat="37.948045106604695" lon="23.74576773494482">
        <ele>122.2</ele>
        <time>2021-04-10T14:48:07.000Z</time>
      </trkpt>
      <trkpt lat="37.94804049655795" lon="23.745763041079044">
        <ele>122</ele>
        <time>2021-04-10T14:48:09.000Z</time>
      </trkpt>
      <trkpt lat="37.948042592033744" lon="23.74575792811811">
        <ele>122</ele>
        <time>2021-04-10T14:48:12.000Z</time>
      </trkpt>
      <trkpt lat="37.94804133474827" lon="23.74574183486402">
        <ele>122</ele>
        <time>2021-04-10T14:48:15.000Z</time>
      </trkpt>
      <trkpt lat="37.94806254096329" lon="23.745711240917444">
        <ele>122</ele>
        <time>2021-04-10T14:48:19.000Z</time>
      </trkpt>
      <trkpt lat="37.94805801473558" lon="23.745757592841983">
        <ele>121.8</ele>
        <time>2021-04-10T14:48:25.000Z</time>
      </trkpt>
      <trkpt lat="37.948048962280154" lon="23.745765555649996">
        <ele>121.8</ele>
        <time>2021-04-10T14:48:27.000Z</time>
      </trkpt>
      <trkpt lat="37.94803018681705" lon="23.74577896669507">
        <ele>122</ele>
        <time>2021-04-10T14:48:31.000Z</time>
      </trkpt>
      <trkpt lat="37.94805625453591" lon="23.745774943381548">
        <ele>121.8</ele>
        <time>2021-04-10T14:48:37.000Z</time>
      </trkpt>
      <trkpt lat="37.94806472025812" lon="23.745790533721447">
        <ele>121.8</ele>
        <time>2021-04-10T14:48:44.000Z</time>
      </trkpt>
      <trkpt lat="37.948077879846096" lon="23.745772261172533">
        <ele>121.8</ele>
        <time>2021-04-10T14:48:48.000Z</time>
      </trkpt>
      <trkpt lat="37.94806254096329" lon="23.745771422982216">
        <ele>121.8</ele>
        <time>2021-04-10T14:48:54.000Z</time>
      </trkpt>
      <trkpt lat="37.94805717654526" lon="23.745768573135138">
        <ele>122</ele>
        <time>2021-04-10T14:48:55.000Z</time>
      </trkpt>
      <trkpt lat="37.94805265031755" lon="23.745767986401916">
        <ele>122</ele>
        <time>2021-04-10T14:48:56.000Z</time>
      </trkpt>
      <trkpt lat="37.94803764671087" lon="23.745774943381548">
        <ele>122.2</ele>
        <time>2021-04-10T14:48:58.000Z</time>
      </trkpt>
      <trkpt lat="37.94799883849919" lon="23.74578977935016">
        <ele>122.4</ele>
        <time>2021-04-10T14:49:00.000Z</time>
      </trkpt>
      <trkpt lat="37.94796288013458" lon="23.74581215903163">
        <ele>122.4</ele>
        <time>2021-04-10T14:49:06.000Z</time>
      </trkpt>
      <trkpt lat="37.94796455651522" lon="23.74582137912512">
        <ele>122.6</ele>
        <time>2021-04-10T14:49:14.000Z</time>
      </trkpt>
      <trkpt lat="37.94796505942941" lon="23.74582481570542">
        <ele>122.6</ele>
        <time>2021-04-10T14:49:16.000Z</time>
      </trkpt>
      <trkpt lat="37.94796707108617" lon="23.745826575905085">
        <ele>122.6</ele>
        <time>2021-04-10T14:49:17.000Z</time>
      </trkpt>
      <trkpt lat="37.947974195703864" lon="23.745834287256002">
        <ele>122.6</ele>
        <time>2021-04-10T14:49:19.000Z</time>
      </trkpt>
      <trkpt lat="37.947997665032744" lon="23.745835460722446">
        <ele>123</ele>
        <time>2021-04-10T14:49:24.000Z</time>
      </trkpt>
      <trkpt lat="37.94797025620937" lon="23.74583470635116">
        <ele>122.4</ele>
        <time>2021-04-10T14:49:33.000Z</time>
      </trkpt>
      <trkpt lat="37.94794209301472" lon="23.745817691087723">
        <ele>122.6</ele>
        <time>2021-04-10T14:49:38.000Z</time>
      </trkpt>
      <trkpt lat="37.94793345965445" lon="23.745801765471697">
        <ele>122.4</ele>
        <time>2021-04-10T14:49:42.000Z</time>
      </trkpt>
      <trkpt lat="37.94791686348617" lon="23.745782654732466">
        <ele>122.4</ele>
        <time>2021-04-10T14:49:51.000Z</time>
      </trkpt>
      <trkpt lat="37.94792985543609" lon="23.745768908411264">
        <ele>121.8</ele>
        <time>2021-04-10T14:50:01.000Z</time>
      </trkpt>
      <trkpt lat="37.9479446914047" lon="23.745739571750164">
        <ele>122.2</ele>
        <time>2021-04-10T14:50:09.000Z</time>
      </trkpt>
      <trkpt lat="37.94795064255595" lon="23.74573831446469">
        <ele>122.2</ele>
        <time>2021-04-10T14:50:11.000Z</time>
      </trkpt>
      <trkpt lat="37.947958689183" lon="23.74573295004666">
        <ele>122.2</ele>
        <time>2021-04-10T14:50:17.000Z</time>
      </trkpt>
      <trkpt lat="37.94797503389418" lon="23.74574183486402">
        <ele>122.2</ele>
        <time>2021-04-10T14:50:22.000Z</time>
      </trkpt>
      <trkpt lat="37.94798735529184" lon="23.74574376270175">
        <ele>122.2</ele>
        <time>2021-04-10T14:50:24.000Z</time>
      </trkpt>
      <trkpt lat="37.94799858704209" lon="23.745746361091733">
        <ele>122.6</ele>
        <time>2021-04-10T14:50:32.000Z</time>
      </trkpt>
      <trkpt lat="37.94804820790887" lon="23.745791288092732">
        <ele>122.4</ele>
        <time>2021-04-10T14:50:37.000Z</time>
      </trkpt>
      <trkpt lat="37.94804980047047" lon="23.745792293921113">
        <ele>122.4</ele>
        <time>2021-04-10T14:50:38.000Z</time>
      </trkpt>
      <trkpt lat="37.94804544188082" lon="23.745787851512432">
        <ele>122.4</ele>
        <time>2021-04-10T14:50:40.000Z</time>
      </trkpt>
      <trkpt lat="37.948046531528234" lon="23.745767902582884">
        <ele>122.4</ele>
        <time>2021-04-10T14:50:44.000Z</time>
      </trkpt>
      <trkpt lat="37.94806648045778" lon="23.745744097977877">
        <ele>122.4</ele>
        <time>2021-04-10T14:50:53.000Z</time>
      </trkpt>
      <trkpt lat="37.94806589372456" lon="23.74574770219624">
        <ele>122.4</ele>
        <time>2021-04-10T14:51:01.000Z</time>
      </trkpt>
      <trkpt lat="37.94804879464209" lon="23.74576572328806">
        <ele>122.4</ele>
        <time>2021-04-10T14:51:09.000Z</time>
      </trkpt>
      <trkpt lat="37.94802281074226" lon="23.74577888287604">
        <ele>122.4</ele>
        <time>2021-04-10T14:51:17.000Z</time>
      </trkpt>
      <trkpt lat="37.948003616183996" lon="23.74579757452011">
        <ele>122.4</ele>
        <time>2021-04-10T14:51:22.000Z</time>
      </trkpt>
      <trkpt lat="37.948002023622394" lon="23.745797825977206">
        <ele>122.4</ele>
        <time>2021-04-10T14:51:23.000Z</time>
      </trkpt>
      <trkpt lat="37.948005544021726" lon="23.745793467387557">
        <ele>122.4</ele>
        <time>2021-04-10T14:51:24.000Z</time>
      </trkpt>
      <trkpt lat="37.948009483516216" lon="23.74579070135951">
        <ele>122.4</ele>
        <time>2021-04-10T14:51:25.000Z</time>
      </trkpt>
      <trkpt lat="37.94801811687648" lon="23.74579212628305">
        <ele>122.4</ele>
        <time>2021-04-10T14:51:28.000Z</time>
      </trkpt>
      <trkpt lat="37.948013842105865" lon="23.745788605883718">
        <ele>122.4</ele>
        <time>2021-04-10T14:51:31.000Z</time>
      </trkpt>
      <trkpt lat="37.94800537638366" lon="23.745787432417274">
        <ele>122.4</ele>
        <time>2021-04-10T14:51:34.000Z</time>
      </trkpt>
      <trkpt lat="37.948010405525565" lon="23.74577837996185">
        <ele>122.4</ele>
        <time>2021-04-10T14:51:40.000Z</time>
      </trkpt>
      <trkpt lat="37.947993054986" lon="23.745765555649996">
        <ele>122.4</ele>
        <time>2021-04-10T14:51:44.000Z</time>
      </trkpt>
      <trkpt lat="37.94806924648583" lon="23.74582154676318">
        <ele>122.4</ele>
        <time>2021-04-10T14:51:48.000Z</time>
      </trkpt>
      <trkpt lat="37.94799498282373" lon="23.7457256577909">
        <ele>122.4</ele>
        <time>2021-04-10T14:51:52.000Z</time>
      </trkpt>
      <trkpt lat="37.94799322262406" lon="23.745718197897077">
        <ele>122.4</ele>
        <time>2021-04-10T14:51:53.000Z</time>
      </trkpt>
      <trkpt lat="37.947990791872144" lon="23.745708893984556">
        <ele>122.4</ele>
        <time>2021-04-10T14:51:54.000Z</time>
      </trkpt>
      <trkpt lat="37.9479845892638" lon="23.745697159320116">
        <ele>122.4</ele>
        <time>2021-04-10T14:51:56.000Z</time>
      </trkpt>
      <trkpt lat="37.947960030287504" lon="23.745694141834974">
        <ele>122.4</ele>
        <time>2021-04-10T14:52:01.000Z</time>
      </trkpt>
      <trkpt lat="37.94800537638366" lon="23.745780559256673">
        <ele>121.8</ele>
        <time>2021-04-10T14:53:12.000Z</time>
      </trkpt>
      <trkpt lat="37.948024570941925" lon="23.745767818763852">
        <ele>122.2</ele>
        <time>2021-04-10T14:53:19.000Z</time>
      </trkpt>
      <trkpt lat="37.94803052209318" lon="23.74575356952846">
        <ele>122.2</ele>
        <time>2021-04-10T14:53:20.000Z</time>
      </trkpt>
      <trkpt lat="37.948025073856115" lon="23.745754240080714">
        <ele>122.4</ele>
        <time>2021-04-10T14:53:21.000Z</time>
      </trkpt>
      <trkpt lat="37.9480205476284" lon="23.74574870802462">
        <ele>122</ele>
        <time>2021-04-10T14:53:26.000Z</time>
      </trkpt>
      <trkpt lat="37.94802960008383" lon="23.745733620598912">
        <ele>121.8</ele>
        <time>2021-04-10T14:53:27.000Z</time>
      </trkpt>
      <trkpt lat="37.948111491277814" lon="23.745714174583554">
        <ele>121.6</ele>
        <time>2021-04-10T14:53:32.000Z</time>
      </trkpt>
      <trkpt lat="37.94814711436629" lon="23.745676120743155">
        <ele>121.6</ele>
        <time>2021-04-10T14:53:33.000Z</time>
      </trkpt>
      <trkpt lat="37.94816848821938" lon="23.74566949903965">
        <ele>121.6</ele>
        <time>2021-04-10T14:53:35.000Z</time>
      </trkpt>
      <trkpt lat="37.94816941022873" lon="23.745682910084724">
        <ele>122</ele>
        <time>2021-04-10T14:53:38.000Z</time>
      </trkpt>
      <trkpt lat="37.94816664420068" lon="23.74568668194115">
        <ele>122.2</ele>
        <time>2021-04-10T14:53:39.000Z</time>
      </trkpt>
      <trkpt lat="37.94815951958299" lon="23.74568508937955">
        <ele>122.2</ele>
        <time>2021-04-10T14:53:41.000Z</time>
      </trkpt>
      <trkpt lat="37.94809288345277" lon="23.745665308088064">
        <ele>122.2</ele>
        <time>2021-04-10T14:53:44.000Z</time>
      </trkpt>
      <trkpt lat="37.94805550016463" lon="23.745643012225628">
        <ele>121.8</ele>
        <time>2021-04-10T14:53:45.000Z</time>
      </trkpt>
      <trkpt lat="37.94802817516029" lon="23.745622728019953">
        <ele>121.6</ele>
        <time>2021-04-10T14:53:46.000Z</time>
      </trkpt>
      <trkpt lat="37.948005544021726" lon="23.745604706928134">
        <ele>121.2</ele>
        <time>2021-04-10T14:53:47.000Z</time>
      </trkpt>
      <trkpt lat="37.94799841940403" lon="23.745591631159186">
        <ele>121.2</ele>
        <time>2021-04-10T14:53:48.000Z</time>
      </trkpt>
      <trkpt lat="37.9479964915663" lon="23.74557956121862">
        <ele>121</ele>
        <time>2021-04-10T14:53:49.000Z</time>
      </trkpt>
      <trkpt lat="37.94800386764109" lon="23.745567156001925">
        <ele>121</ele>
        <time>2021-04-10T14:53:51.000Z</time>
      </trkpt>
      <trkpt lat="37.94801174663007" lon="23.74556891620159">
        <ele>121</ele>
        <time>2021-04-10T14:53:52.000Z</time>
      </trkpt>
      <trkpt lat="37.948025492951274" lon="23.745577465742826">
        <ele>121</ele>
        <time>2021-04-10T14:53:53.000Z</time>
      </trkpt>
      <trkpt lat="37.94803471304476" lon="23.74558207578957">
        <ele>121.2</ele>
        <time>2021-04-10T14:53:54.000Z</time>
      </trkpt>
      <trkpt lat="37.94808684848249" lon="23.745543770492077">
        <ele>121.2</ele>
        <time>2021-04-10T14:54:01.000Z</time>
      </trkpt>
      <trkpt lat="37.94809891842306" lon="23.745544189587235">
        <ele>121.2</ele>
        <time>2021-04-10T14:54:02.000Z</time>
      </trkpt>
      <trkpt lat="37.9481468629092" lon="23.74552440829575">
        <ele>120.8</ele>
        <time>2021-04-10T14:54:07.000Z</time>
      </trkpt>
      <trkpt lat="37.94815574772656" lon="23.745514014735818">
        <ele>120.8</ele>
        <time>2021-04-10T14:54:08.000Z</time>
      </trkpt>
      <trkpt lat="37.94824132695794" lon="23.74544176273048">
        <ele>121</ele>
        <time>2021-04-10T14:54:15.000Z</time>
      </trkpt>
      <trkpt lat="37.948300587013364" lon="23.745413683354855">
        <ele>120.6</ele>
        <time>2021-04-10T14:54:20.000Z</time>
      </trkpt>
      <trkpt lat="37.948314836248755" lon="23.745409911498427">
        <ele>120.6</ele>
        <time>2021-04-10T14:54:21.000Z</time>
      </trkpt>
      <trkpt lat="37.94834207743406" lon="23.745402954518795">
        <ele>120.6</ele>
        <time>2021-04-10T14:54:23.000Z</time>
      </trkpt>
      <trkpt lat="37.94838557951152" lon="23.745388872921467">
        <ele>120.6</ele>
        <time>2021-04-10T14:54:26.000Z</time>
      </trkpt>
      <trkpt lat="37.94841164723039" lon="23.745398176833987">
        <ele>120.6</ele>
        <time>2021-04-10T14:54:29.000Z</time>
      </trkpt>
      <trkpt lat="37.948414916172624" lon="23.74541007913649">
        <ele>120.6</ele>
        <time>2021-04-10T14:54:30.000Z</time>
      </trkpt>
      <trkpt lat="37.94842849485576" lon="23.745422568172216">
        <ele>120.8</ele>
        <time>2021-04-10T14:54:33.000Z</time>
      </trkpt>
      <trkpt lat="37.94843662530184" lon="23.74542122706771">
        <ele>120.8</ele>
        <time>2021-04-10T14:54:34.000Z</time>
      </trkpt>
      <trkpt lat="37.94846311211586" lon="23.745404966175556">
        <ele>120.6</ele>
        <time>2021-04-10T14:54:36.000Z</time>
      </trkpt>
      <trkpt lat="37.94854131527245" lon="23.745392141863704">
        <ele>120.6</ele>
        <time>2021-04-10T14:54:42.000Z</time>
      </trkpt>
      <trkpt lat="37.94855657033622" lon="23.745385520160198">
        <ele>120.8</ele>
        <time>2021-04-10T14:54:43.000Z</time>
      </trkpt>
      <trkpt lat="37.948571825399995" lon="23.74537294730544">
        <ele>120.8</ele>
        <time>2021-04-10T14:54:44.000Z</time>
      </trkpt>
      <trkpt lat="37.948636366054416" lon="23.745283177122474">
        <ele>120.6</ele>
        <time>2021-04-10T14:54:50.000Z</time>
      </trkpt>
      <trkpt lat="37.94869679957628" lon="23.745204219594598">
        <ele>120.4</ele>
        <time>2021-04-10T14:54:53.000Z</time>
      </trkpt>
      <trkpt lat="37.948735691607" lon="23.745185863226652">
        <ele>120.4</ele>
        <time>2021-04-10T14:54:55.000Z</time>
      </trkpt>
      <trkpt lat="37.948774667456746" lon="23.745178151875734">
        <ele>120.2</ele>
        <time>2021-04-10T14:54:57.000Z</time>
      </trkpt>
      <trkpt lat="37.94880609959364" lon="23.745162393897772">
        <ele>120</ele>
        <time>2021-04-10T14:54:58.000Z</time>
      </trkpt>
      <trkpt lat="37.94885245151818" lon="23.745126854628325">
        <ele>119.8</ele>
        <time>2021-04-10T14:55:00.000Z</time>
      </trkpt>
      <trkpt lat="37.94886628165841" lon="23.745108833536506">
        <ele>119.8</ele>
        <time>2021-04-10T14:55:01.000Z</time>
      </trkpt>
      <trkpt lat="37.948893355205655" lon="23.745078155770898">
        <ele>119.6</ele>
        <time>2021-04-10T14:55:03.000Z</time>
      </trkpt>
      <trkpt lat="37.94892135076225" lon="23.74502786435187">
        <ele>119.6</ele>
        <time>2021-04-10T14:55:06.000Z</time>
      </trkpt>
      <trkpt lat="37.94893375597894" lon="23.74499567784369">
        <ele>119.8</ele>
        <time>2021-04-10T14:55:08.000Z</time>
      </trkpt>
      <trkpt lat="37.948946077376604" lon="23.74495460651815">
        <ele>119.8</ele>
        <time>2021-04-10T14:55:10.000Z</time>
      </trkpt>
      <trkpt lat="37.948952950537205" lon="23.74493516050279">
        <ele>119.6</ele>
        <time>2021-04-10T14:55:11.000Z</time>
      </trkpt>
      <trkpt lat="37.948973067104816" lon="23.744905907660723">
        <ele>119.4</ele>
        <time>2021-04-10T14:55:13.000Z</time>
      </trkpt>
      <trkpt lat="37.949009193107486" lon="23.744878247380257">
        <ele>119.4</ele>
        <time>2021-04-10T14:55:16.000Z</time>
      </trkpt>
      <trkpt lat="37.94903190806508" lon="23.74486324377358">
        <ele>119.8</ele>
        <time>2021-04-10T14:55:18.000Z</time>
      </trkpt>
      <trkpt lat="37.94904079288244" lon="23.744815047830343">
        <ele>119.8</ele>
        <time>2021-04-10T14:55:20.000Z</time>
      </trkpt>
      <trkpt lat="37.94904590584338" lon="23.744790237396955">
        <ele>119.8</ele>
        <time>2021-04-10T14:55:21.000Z</time>
      </trkpt>
      <trkpt lat="37.94904456473887" lon="23.744747573509812">
        <ele>119</ele>
        <time>2021-04-10T14:55:23.000Z</time>
      </trkpt>
      <trkpt lat="37.949039870873094" lon="23.744732402265072">
        <ele>118.8</ele>
        <time>2021-04-10T14:55:24.000Z</time>
      </trkpt>
      <trkpt lat="37.94904070906341" lon="23.744666939601302">
        <ele>118.6</ele>
        <time>2021-04-10T14:55:29.000Z</time>
      </trkpt>
      <trkpt lat="37.94903174042702" lon="23.744656797498465">
        <ele>118.6</ele>
        <time>2021-04-10T14:55:30.000Z</time>
      </trkpt>
      <trkpt lat="37.94899829663336" lon="23.74459653161466">
        <ele>118.6</ele>
        <time>2021-04-10T14:55:35.000Z</time>
      </trkpt>
      <trkpt lat="37.94899854809046" lon="23.744583539664745">
        <ele>118.8</ele>
        <time>2021-04-10T14:55:36.000Z</time>
      </trkpt>
      <trkpt lat="37.948948508128524" lon="23.74446309171617">
        <ele>118.2</ele>
        <time>2021-04-10T14:55:43.000Z</time>
      </trkpt>
      <trkpt lat="37.94893710874021" lon="23.744342224672437">
        <ele>118</ele>
        <time>2021-04-10T14:55:51.000Z</time>
      </trkpt>
      <trkpt lat="37.94896233826876" lon="23.74432143755257">
        <ele>118</ele>
        <time>2021-04-10T14:55:53.000Z</time>
      </trkpt>
      <trkpt lat="37.94897474348545" lon="23.744312720373273">
        <ele>118.2</ele>
        <time>2021-04-10T14:55:54.000Z</time>
      </trkpt>
      <trkpt lat="37.94899569824338" lon="23.74433065764606">
        <ele>118.4</ele>
        <time>2021-04-10T14:55:57.000Z</time>
      </trkpt>
      <trkpt lat="37.94900148175657" lon="23.744337866082788">
        <ele>118.4</ele>
        <time>2021-04-10T14:55:59.000Z</time>
      </trkpt>
      <trkpt lat="37.94900190085173" lon="23.744342643767595">
        <ele>118.2</ele>
        <time>2021-04-10T14:56:00.000Z</time>
      </trkpt>
      <trkpt lat="37.94900248758495" lon="23.744348930194974">
        <ele>117.8</ele>
        <time>2021-04-10T14:56:01.000Z</time>
      </trkpt>
      <trkpt lat="37.949022771790624" lon="23.7443770095706">
        <ele>117.2</ele>
        <time>2021-04-10T14:56:05.000Z</time>
      </trkpt>
      <trkpt lat="37.94901682063937" lon="23.744399221614003">
        <ele>117.6</ele>
        <time>2021-04-10T14:56:11.000Z</time>
      </trkpt>
      <trkpt lat="37.9490171559155" lon="23.744407268241048">
        <ele>117.6</ele>
        <time>2021-04-10T14:56:13.000Z</time>
      </trkpt>
      <trkpt lat="37.94901422224939" lon="23.74441129155457">
        <ele>117.4</ele>
        <time>2021-04-10T14:56:14.000Z</time>
      </trkpt>
      <trkpt lat="37.949012126773596" lon="23.744446076452732">
        <ele>117.2</ele>
        <time>2021-04-10T14:56:19.000Z</time>
      </trkpt>
      <trkpt lat="37.9490134678781" lon="23.74444842338562">
        <ele>117</ele>
        <time>2021-04-10T14:56:20.000Z</time>
      </trkpt>
      <trkpt lat="37.94901145622134" lon="23.744451440870762">
        <ele>117</ele>
        <time>2021-04-10T14:56:21.000Z</time>
      </trkpt>
      <trkpt lat="37.94899921864271" lon="23.744354881346226">
        <ele>117.4</ele>
        <time>2021-04-10T14:56:27.000Z</time>
      </trkpt>
      <trkpt lat="37.94894917868078" lon="23.744283467531204">
        <ele>116.8</ele>
        <time>2021-04-10T14:56:34.000Z</time>
      </trkpt>
      <trkpt lat="37.94893015176058" lon="23.7442734092474">
        <ele>116.8</ele>
        <time>2021-04-10T14:56:44.000Z</time>
      </trkpt>
      <trkpt lat="37.94893350452185" lon="23.744278103113174">
        <ele>116.8</ele>
        <time>2021-04-10T14:56:45.000Z</time>
      </trkpt>
      <trkpt lat="37.94896778650582" lon="23.744309283792973">
        <ele>116.4</ele>
        <time>2021-04-10T14:56:50.000Z</time>
      </trkpt>
      <trkpt lat="37.948964266106486" lon="23.744292352348566">
        <ele>116.2</ele>
        <time>2021-04-10T14:56:52.000Z</time>
      </trkpt>
      <trkpt lat="37.948997374624014" lon="23.74431741423905">
        <ele>116.2</ele>
        <time>2021-04-10T14:57:00.000Z</time>
      </trkpt>
      <trkpt lat="37.94899620115757" lon="23.744328897446394">
        <ele>116.4</ele>
        <time>2021-04-10T14:57:02.000Z</time>
      </trkpt>
      <trkpt lat="37.94900022447109" lon="23.744330070912838">
        <ele>116.4</ele>
        <time>2021-04-10T14:57:09.000Z</time>
      </trkpt>
      <trkpt lat="37.94898262247443" lon="23.74431204982102">
        <ele>116.4</ele>
        <time>2021-04-10T14:57:15.000Z</time>
      </trkpt>
      <trkpt lat="37.948972061276436" lon="23.74431163072586">
        <ele>116.4</ele>
        <time>2021-04-10T14:57:20.000Z</time>
      </trkpt>
      <trkpt lat="37.948964685201645" lon="23.744291262701154">
        <ele>116.4</ele>
        <time>2021-04-10T14:57:25.000Z</time>
      </trkpt>
      <trkpt lat="37.94896141625941" lon="23.744280617684126">
        <ele>116.4</ele>
        <time>2021-04-10T14:57:28.000Z</time>
      </trkpt>
      <trkpt lat="37.94895890168846" lon="23.744277013465762">
        <ele>116.4</ele>
        <time>2021-04-10T14:57:53.000Z</time>
      </trkpt>
      <trkpt lat="37.94894699938595" lon="23.744265362620354">
        <ele>116.4</ele>
        <time>2021-04-10T14:58:05.000Z</time>
      </trkpt>
      <trkpt lat="37.94895378872752" lon="23.744268296286464">
        <ele>116.4</ele>
        <time>2021-04-10T14:58:14.000Z</time>
      </trkpt>
      <trkpt lat="37.948888409882784" lon="23.744230745360255">
        <ele>116.4</ele>
        <time>2021-04-10T14:58:30.000Z</time>
      </trkpt>
      <trkpt lat="37.948880614712834" lon="23.74421783722937">
        <ele>116.4</ele>
        <time>2021-04-10T14:58:31.000Z</time>
      </trkpt>
      <trkpt lat="37.948874328285456" lon="23.744202917441726">
        <ele>116.4</ele>
        <time>2021-04-10T14:58:32.000Z</time>
      </trkpt>
      <trkpt lat="37.948862593621016" lon="23.744179867208004">
        <ele>116.4</ele>
        <time>2021-04-10T14:58:35.000Z</time>
      </trkpt>
      <trkpt lat="37.948863599449396" lon="23.74418204650283">
        <ele>116.4</ele>
        <time>2021-04-10T14:58:36.000Z</time>
      </trkpt>
      <trkpt lat="37.94886485673487" lon="23.744189087301493">
        <ele>116.4</ele>
        <time>2021-04-10T14:58:38.000Z</time>
      </trkpt>
      <trkpt lat="37.948932498693466" lon="23.74423149973154">
        <ele>116.4</ele>
        <time>2021-04-10T14:59:05.000Z</time>
      </trkpt>
      <trkpt lat="37.94893400743604" lon="23.74423393048346">
        <ele>116.4</ele>
        <time>2021-04-10T14:59:12.000Z</time>
      </trkpt>
      <trkpt lat="37.94893040321767" lon="23.744232757017016">
        <ele>116.4</ele>
        <time>2021-04-10T14:59:16.000Z</time>
      </trkpt>
      <trkpt lat="37.94890861026943" lon="23.74422764405608">
        <ele>116.4</ele>
        <time>2021-04-10T14:59:23.000Z</time>
      </trkpt>
      <trkpt lat="37.948944149538875" lon="23.74425295740366">
        <ele>116.4</ele>
        <time>2021-04-10T14:59:25.000Z</time>
      </trkpt>
      <trkpt lat="37.94894875958562" lon="23.74425689689815">
        <ele>116.4</ele>
        <time>2021-04-10T14:59:26.000Z</time>
      </trkpt>
      <trkpt lat="37.948952447623014" lon="23.744266033172607">
        <ele>116</ele>
        <time>2021-04-10T14:59:30.000Z</time>
      </trkpt>
      <trkpt lat="37.94895370490849" lon="23.74426670372486">
        <ele>115.6</ele>
        <time>2021-04-10T14:59:33.000Z</time>
      </trkpt>
      <trkpt lat="37.94895596802235" lon="23.744266452267766">
        <ele>115.6</ele>
        <time>2021-04-10T14:59:34.000Z</time>
      </trkpt>
      <trkpt lat="37.94894750230014" lon="23.74425974674523">
        <ele>115.8</ele>
        <time>2021-04-10T14:59:52.000Z</time>
      </trkpt>
      <trkpt lat="37.948946077376604" lon="23.744261926040053">
        <ele>115.8</ele>
        <time>2021-04-10T14:59:58.000Z</time>
      </trkpt>
      <trkpt lat="37.948953872546554" lon="23.744288412854075">
        <ele>115.6</ele>
        <time>2021-04-10T15:00:14.000Z</time>
      </trkpt>
      <trkpt lat="37.94896703213453" lon="23.74430727213621">
        <ele>115.8</ele>
        <time>2021-04-10T15:00:20.000Z</time>
      </trkpt>
      <trkpt lat="37.9489651042968" lon="23.744308780878782">
        <ele>115.8</ele>
        <time>2021-04-10T15:00:21.000Z</time>
      </trkpt>
      <trkpt lat="37.94896451756358" lon="23.744307439774275">
        <ele>115.8</ele>
        <time>2021-04-10T15:00:22.000Z</time>
      </trkpt>
      <trkpt lat="37.94896585866809" lon="23.74430819414556">
        <ele>115.8</ele>
        <time>2021-04-10T15:00:23.000Z</time>
      </trkpt>
      <trkpt lat="37.948949765414" lon="23.744328562170267">
        <ele>115.2</ele>
        <time>2021-04-10T15:00:36.000Z</time>
      </trkpt>
      <trkpt lat="37.94895311817527" lon="23.744329484179616">
        <ele>115.2</ele>
        <time>2021-04-10T15:00:40.000Z</time>
      </trkpt>
      <trkpt lat="37.948951441794634" lon="23.74432135373354">
        <ele>115.2</ele>
        <time>2021-04-10T15:00:41.000Z</time>
      </trkpt>
      <trkpt lat="37.94893819838762" lon="23.744278773665428">
        <ele>115.2</ele>
        <time>2021-04-10T15:00:48.000Z</time>
      </trkpt>
      <trkpt lat="37.948944149538875" lon="23.74427005648613">
        <ele>115.2</ele>
        <time>2021-04-10T15:00:55.000Z</time>
      </trkpt>
      <trkpt lat="37.9489600751549" lon="23.74427198432386">
        <ele>115.2</ele>
        <time>2021-04-10T15:01:14.000Z</time>
      </trkpt>
      <trkpt lat="37.948960745707154" lon="23.744263937696815">
        <ele>115.2</ele>
        <time>2021-04-10T15:01:20.000Z</time>
      </trkpt>
      <trkpt lat="37.94895697385073" lon="23.744260082021356">
        <ele>115.2</ele>
        <time>2021-04-10T15:01:31.000Z</time>
      </trkpt>
      <trkpt lat="37.94895261526108" lon="23.744254549965262">
        <ele>115.2</ele>
        <time>2021-04-10T15:01:38.000Z</time>
      </trkpt>
      <trkpt lat="37.94893275015056" lon="23.74422906897962">
        <ele>115.2</ele>
        <time>2021-04-10T15:01:52.000Z</time>
      </trkpt>
      <trkpt lat="37.94893065467477" lon="23.744229320436716">
        <ele>115.2</ele>
        <time>2021-04-10T15:01:56.000Z</time>
      </trkpt>
      <trkpt lat="37.9489325825125" lon="23.744230661541224">
        <ele>115.2</ele>
        <time>2021-04-10T15:02:00.000Z</time>
      </trkpt>
      <trkpt lat="37.94894523918629" lon="23.74424801208079">
        <ele>115.2</ele>
        <time>2021-04-10T15:02:10.000Z</time>
      </trkpt>
      <trkpt lat="37.949002739042044" lon="23.74434867873788">
        <ele>115.2</ele>
        <time>2021-04-10T15:02:12.000Z</time>
      </trkpt>
      <trkpt lat="37.9489775095135" lon="23.74431070871651">
        <ele>115.2</ele>
        <time>2021-04-10T15:02:20.000Z</time>
      </trkpt>
      <trkpt lat="37.948941718786955" lon="23.74429889023304">
        <ele>115.2</ele>
        <time>2021-04-10T15:02:27.000Z</time>
      </trkpt>
      <trkpt lat="37.94894138351083" lon="23.74429981224239">
        <ele>115.2</ele>
        <time>2021-04-10T15:02:28.000Z</time>
      </trkpt>
      <trkpt lat="37.948968540877104" lon="23.744317665696144">
        <ele>115.2</ele>
        <time>2021-04-10T15:02:32.000Z</time>
      </trkpt>
      <trkpt lat="37.94897533021867" lon="23.744312804192305">
        <ele>115.2</ele>
        <time>2021-04-10T15:02:35.000Z</time>
      </trkpt>
      <trkpt lat="37.94902008958161" lon="23.74429889023304">
        <ele>115.2</ele>
        <time>2021-04-10T15:02:40.000Z</time>
      </trkpt>
      <trkpt lat="37.94905403628945" lon="23.744320264086127">
        <ele>115.2</ele>
        <time>2021-04-10T15:02:45.000Z</time>
      </trkpt>
      <trkpt lat="37.94904079288244" lon="23.744282964617014">
        <ele>115.2</ele>
        <time>2021-04-10T15:02:53.000Z</time>
      </trkpt>
      <trkpt lat="37.94905764050782" lon="23.744292184710503">
        <ele>115.2</ele>
        <time>2021-04-10T15:02:58.000Z</time>
      </trkpt>
      <trkpt lat="37.94906359165907" lon="23.744335938245058">
        <ele>115.2</ele>
        <time>2021-04-10T15:03:02.000Z</time>
      </trkpt>
      <trkpt lat="37.94904263690114" lon="23.744343984872103">
        <ele>115.2</ele>
        <time>2021-04-10T15:03:05.000Z</time>
      </trkpt>
      <trkpt lat="37.94899955391884" lon="23.744301237165928">
        <ele>115.2</ele>
        <time>2021-04-10T15:03:09.000Z</time>
      </trkpt>
      <trkpt lat="37.9489651042968" lon="23.74430718831718">
        <ele>115.2</ele>
        <time>2021-04-10T15:03:15.000Z</time>
      </trkpt>
      <trkpt lat="37.948974911123514" lon="23.74432973563671">
        <ele>115.2</ele>
        <time>2021-04-10T15:03:25.000Z</time>
      </trkpt>
      <trkpt lat="37.948982706293464" lon="23.744330992922187">
        <ele>115.2</ele>
        <time>2021-04-10T15:03:26.000Z</time>
      </trkpt>
      <trkpt lat="37.94899335131049" lon="23.744331328198314">
        <ele>115.2</ele>
        <time>2021-04-10T15:03:27.000Z</time>
      </trkpt>
      <trkpt lat="37.9490065947175" lon="23.744337782263756">
        <ele>115.2</ele>
        <time>2021-04-10T15:03:29.000Z</time>
      </trkpt>
      <trkpt lat="37.949017994105816" lon="23.74435991048813">
        <ele>115.2</ele>
        <time>2021-04-10T15:03:31.000Z</time>
      </trkpt>
      <trkpt lat="37.94900936074555" lon="23.744372818619013">
        <ele>115.2</ele>
        <time>2021-04-10T15:03:33.000Z</time>
      </trkpt>
      <trkpt lat="37.94900835491717" lon="23.744334848597646">
        <ele>115.2</ele>
        <time>2021-04-10T15:03:38.000Z</time>
      </trkpt>
      <trkpt lat="37.94900483451784" lon="23.744331244379282">
        <ele>115.2</ele>
        <time>2021-04-10T15:03:40.000Z</time>
      </trkpt>
      <trkpt lat="37.949006762355566" lon="23.744328059256077">
        <ele>115.2</ele>
        <time>2021-04-10T15:03:41.000Z</time>
      </trkpt>
      <trkpt lat="37.949020341038704" lon="23.744304170832038">
        <ele>115.2</ele>
        <time>2021-04-10T15:03:47.000Z</time>
      </trkpt>
      <trkpt lat="37.948994021862745" lon="23.744308780878782">
        <ele>115.2</ele>
        <time>2021-04-10T15:03:56.000Z</time>
      </trkpt>
      <trkpt lat="37.949005756527185" lon="23.744305092841387">
        <ele>115.2</ele>
        <time>2021-04-10T15:03:59.000Z</time>
      </trkpt>
      <trkpt lat="37.94904800131917" lon="23.744343230500817">
        <ele>115.2</ele>
        <time>2021-04-10T15:04:01.000Z</time>
      </trkpt>
      <trkpt lat="37.949063340201974" lon="23.744352869689465">
        <ele>115.2</ele>
        <time>2021-04-10T15:04:02.000Z</time>
      </trkpt>
      <trkpt lat="37.94907188974321" lon="23.744361167773604">
        <ele>115.2</ele>
        <time>2021-04-10T15:04:03.000Z</time>
      </trkpt>
      <trkpt lat="37.949064346030354" lon="23.744354881346226">
        <ele>115.2</ele>
        <time>2021-04-10T15:04:06.000Z</time>
      </trkpt>
      <trkpt lat="37.94903492555022" lon="23.74435161240399">
        <ele>115.2</ele>
        <time>2021-04-10T15:04:09.000Z</time>
      </trkpt>
      <trkpt lat="37.9490274656564" lon="23.744358737021685">
        <ele>115.2</ele>
        <time>2021-04-10T15:04:12.000Z</time>
      </trkpt>
      <trkpt lat="37.949012126773596" lon="23.744395365938544">
        <ele>115.2</ele>
        <time>2021-04-10T15:04:17.000Z</time>
      </trkpt>
      <trkpt lat="37.94899871572852" lon="23.744396036490798">
        <ele>115.2</ele>
        <time>2021-04-10T15:04:19.000Z</time>
      </trkpt>
      <trkpt lat="37.948983209207654" lon="23.744407603517175">
        <ele>115.2</ele>
        <time>2021-04-10T15:04:22.000Z</time>
      </trkpt>
      <trkpt lat="37.948937779292464" lon="23.74439670704305">
        <ele>115.2</ele>
        <time>2021-04-10T15:04:25.000Z</time>
      </trkpt>
      <trkpt lat="37.94894138351083" lon="23.74438052996993">
        <ele>115.2</ele>
        <time>2021-04-10T15:04:38.000Z</time>
      </trkpt>
      <trkpt lat="37.94896988198161" lon="23.744341637939215">
        <ele>115.2</ele>
        <time>2021-04-10T15:04:44.000Z</time>
      </trkpt>
      <trkpt lat="37.94896795414388" lon="23.744378266856074">
        <ele>115.2</ele>
        <time>2021-04-10T15:04:47.000Z</time>
      </trkpt>
      <trkpt lat="37.948986729606986" lon="23.744378853589296">
        <ele>115.2</ele>
        <time>2021-04-10T15:04:50.000Z</time>
      </trkpt>
      <trkpt lat="37.948986645787954" lon="23.744335435330868">
        <ele>115.2</ele>
        <time>2021-04-10T15:04:57.000Z</time>
      </trkpt>
      <trkpt lat="37.94901673682034" lon="23.74435856938362">
        <ele>115.2</ele>
        <time>2021-04-10T15:05:03.000Z</time>
      </trkpt>
      <trkpt lat="37.94901958666742" lon="23.74435077421367">
        <ele>115.2</ele>
        <time>2021-04-10T15:05:04.000Z</time>
      </trkpt>
      <trkpt lat="37.94901765882969" lon="23.744336776435375">
        <ele>115.2</ele>
        <time>2021-04-10T15:05:07.000Z</time>
      </trkpt>
      <trkpt lat="37.948998883366585" lon="23.744382793083787">
        <ele>115.2</ele>
        <time>2021-04-10T15:05:14.000Z</time>
      </trkpt>
      <trkpt lat="37.94899569824338" lon="23.744384218007326">
        <ele>115.2</ele>
        <time>2021-04-10T15:05:15.000Z</time>
      </trkpt>
      <trkpt lat="37.948983795940876" lon="23.744399892166257">
        <ele>115.2</ele>
        <time>2021-04-10T15:05:18.000Z</time>
      </trkpt>
      <trkpt lat="37.94898681342602" lon="23.744409615173936">
        <ele>115.2</ele>
        <time>2021-04-10T15:05:20.000Z</time>
      </trkpt>
      <trkpt lat="37.94898689724505" lon="23.744448591023684">
        <ele>115.2</ele>
        <time>2021-04-10T15:05:24.000Z</time>
      </trkpt>
      <trkpt lat="37.948962757363915" lon="23.744377261027694">
        <ele>115.2</ele>
        <time>2021-04-10T15:05:31.000Z</time>
      </trkpt>
      <trkpt lat="37.94891179539263" lon="23.744442304596305">
        <ele>115.2</ele>
        <time>2021-04-10T15:05:42.000Z</time>
      </trkpt>
      <trkpt lat="37.94889595359564" lon="23.744470719248056">
        <ele>115.2</ele>
        <time>2021-04-10T15:05:44.000Z</time>
      </trkpt>
      <trkpt lat="37.94886267744005" lon="23.744512042030692">
        <ele>115.2</ele>
        <time>2021-04-10T15:05:47.000Z</time>
      </trkpt>
      <trkpt lat="37.94882680289447" lon="23.744552778080106">
        <ele>115.2</ele>
        <time>2021-04-10T15:05:52.000Z</time>
      </trkpt>
      <trkpt lat="37.94891179539263" lon="23.744542133063078">
        <ele>115.2</ele>
        <time>2021-04-10T15:06:04.000Z</time>
      </trkpt>
      <trkpt lat="37.9488926846534" lon="23.744472060352564">
        <ele>115.2</ele>
        <time>2021-04-10T15:06:06.000Z</time>
      </trkpt>
      <trkpt lat="37.948891930282116" lon="23.744452111423016">
        <ele>115.2</ele>
        <time>2021-04-10T15:06:07.000Z</time>
      </trkpt>
      <trkpt lat="37.948887068778276" lon="23.74449041672051">
        <ele>115.2</ele>
        <time>2021-04-10T15:06:12.000Z</time>
      </trkpt>
      <trkpt lat="37.948923110961914" lon="23.744513718411326">
        <ele>115.2</ele>
        <time>2021-04-10T15:06:24.000Z</time>
      </trkpt>
      <trkpt lat="37.94893375597894" lon="23.744462756440043">
        <ele>115.2</ele>
        <time>2021-04-10T15:06:26.000Z</time>
      </trkpt>
      <trkpt lat="37.948930989950895" lon="23.744470300152898">
        <ele>115.2</ele>
        <time>2021-04-10T15:06:28.000Z</time>
      </trkpt>
      <trkpt lat="37.94891422614455" lon="23.744514221325517">
        <ele>115.2</ele>
        <time>2021-04-10T15:06:31.000Z</time>
      </trkpt>
      <trkpt lat="37.94889469631016" lon="23.744525955989957">
        <ele>115.2</ele>
        <time>2021-04-10T15:06:33.000Z</time>
      </trkpt>
      <trkpt lat="37.94892143458128" lon="23.74446300789714">
        <ele>115.2</ele>
        <time>2021-04-10T15:06:49.000Z</time>
      </trkpt>
      <trkpt lat="37.94897130690515" lon="23.744398970156908">
        <ele>116.2</ele>
        <time>2021-04-10T15:07:17.000Z</time>
      </trkpt>
      <trkpt lat="37.948970133438706" lon="23.74440207146108">
        <ele>116.4</ele>
        <time>2021-04-10T15:07:18.000Z</time>
      </trkpt>
      <trkpt lat="37.948964266106486" lon="23.74440785497427">
        <ele>116.4</ele>
        <time>2021-04-10T15:07:37.000Z</time>
      </trkpt>
      <trkpt lat="37.948965607210994" lon="23.744408944621682">
        <ele>116.4</ele>
        <time>2021-04-10T15:07:40.000Z</time>
      </trkpt>
      <trkpt lat="37.94895018450916" lon="23.744455631822348">
        <ele>116.2</ele>
        <time>2021-04-10T15:07:48.000Z</time>
      </trkpt>
      <trkpt lat="37.94896988198161" lon="23.74446510337293">
        <ele>116.4</ele>
        <time>2021-04-10T15:07:53.000Z</time>
      </trkpt>
      <trkpt lat="37.94899025000632" lon="23.744431072846055">
        <ele>116.4</ele>
        <time>2021-04-10T15:08:02.000Z</time>
      </trkpt>
      <trkpt lat="37.948973989114165" lon="23.74447281472385">
        <ele>116.6</ele>
        <time>2021-04-10T15:08:10.000Z</time>
      </trkpt>
      <trkpt lat="37.94901095330715" lon="23.74444984830916">
        <ele>116.4</ele>
        <time>2021-04-10T15:08:19.000Z</time>
      </trkpt>
      <trkpt lat="37.94902260415256" lon="23.74439083971083">
        <ele>115.4</ele>
        <time>2021-04-10T15:08:24.000Z</time>
      </trkpt>
      <trkpt lat="37.94901774264872" lon="23.744409531354904">
        <ele>115.4</ele>
        <time>2021-04-10T15:08:29.000Z</time>
      </trkpt>
      <trkpt lat="37.948973905295134" lon="23.74441615305841">
        <ele>115.4</ele>
        <time>2021-04-10T15:08:46.000Z</time>
      </trkpt>
      <trkpt lat="37.94897558167577" lon="23.744413889944553">
        <ele>115.4</ele>
        <time>2021-04-10T15:08:56.000Z</time>
      </trkpt>
      <trkpt lat="37.94902319088578" lon="23.74437667429447">
        <ele>115.4</ele>
        <time>2021-04-10T15:09:00.000Z</time>
      </trkpt>
      <trkpt lat="37.94897524639964" lon="23.74441330321133">
        <ele>115.4</ele>
        <time>2021-04-10T15:09:17.000Z</time>
      </trkpt>
      <trkpt lat="37.94897558167577" lon="23.744411543011665">
        <ele>115.4</ele>
        <time>2021-04-10T15:09:18.000Z</time>
      </trkpt>
      <trkpt lat="37.94897172600031" lon="23.744413051754236">
        <ele>115.4</ele>
        <time>2021-04-10T15:09:23.000Z</time>
      </trkpt>
      <trkpt lat="37.948960242792964" lon="23.74450265429914">
        <ele>115.4</ele>
        <time>2021-04-10T15:09:27.000Z</time>
      </trkpt>
      <trkpt lat="37.948952950537205" lon="23.744511790573597">
        <ele>115.4</ele>
        <time>2021-04-10T15:09:28.000Z</time>
      </trkpt>
      <trkpt lat="37.94894590973854" lon="23.744555125012994">
        <ele>115.4</ele>
        <time>2021-04-10T15:09:40.000Z</time>
      </trkpt>
      <trkpt lat="37.94894498772919" lon="23.744535678997636">
        <ele>115.4</ele>
        <time>2021-04-10T15:09:46.000Z</time>
      </trkpt>
      <trkpt lat="37.94893409125507" lon="23.74451581388712">
        <ele>115.4</ele>
        <time>2021-04-10T15:09:53.000Z</time>
      </trkpt>
      <trkpt lat="37.948921686038375" lon="23.744495697319508">
        <ele>115.4</ele>
        <time>2021-04-10T15:09:59.000Z</time>
      </trkpt>
      <trkpt lat="37.94891850091517" lon="23.74454766511917">
        <ele>115.4</ele>
        <time>2021-04-10T15:10:03.000Z</time>
      </trkpt>
      <trkpt lat="37.948914309963584" lon="23.744512628763914">
        <ele>115.4</ele>
        <time>2021-04-10T15:10:05.000Z</time>
      </trkpt>
      <trkpt lat="37.94897994026542" lon="23.744471641257405">
        <ele>115.4</ele>
        <time>2021-04-10T15:10:14.000Z</time>
      </trkpt>
      <trkpt lat="37.948967199772596" lon="23.744487818330526">
        <ele>115.4</ele>
        <time>2021-04-10T15:10:17.000Z</time>
      </trkpt>
      <trkpt lat="37.9489635117352" lon="23.74449527822435">
        <ele>115.4</ele>
        <time>2021-04-10T15:10:18.000Z</time>
      </trkpt>
      <trkpt lat="37.948965188115835" lon="23.744428642094135">
        <ele>115.4</ele>
        <time>2021-04-10T15:10:38.000Z</time>
      </trkpt>
      <trkpt lat="37.94896493665874" lon="23.744429647922516">
        <ele>115.4</ele>
        <time>2021-04-10T15:10:40.000Z</time>
      </trkpt>
      <trkpt lat="37.94896585866809" lon="23.74443090520799">
        <ele>115.4</ele>
        <time>2021-04-10T15:10:45.000Z</time>
      </trkpt>
      <trkpt lat="37.94896585866809" lon="23.744430737569928">
        <ele>115.4</ele>
        <time>2021-04-10T15:10:47.000Z</time>
      </trkpt>
      <trkpt lat="37.94893409125507" lon="23.744464181363583">
        <ele>115.4</ele>
        <time>2021-04-10T15:10:54.000Z</time>
      </trkpt>
      <trkpt lat="37.94892964884639" lon="23.744499469175935">
        <ele>115.4</ele>
        <time>2021-04-10T15:10:56.000Z</time>
      </trkpt>
      <trkpt lat="37.94892738573253" lon="23.74452260322869">
        <ele>115.4</ele>
        <time>2021-04-10T15:10:57.000Z</time>
      </trkpt>
      <trkpt lat="37.94894440099597" lon="23.744568955153227">
        <ele>115.4</ele>
        <time>2021-04-10T15:11:01.000Z</time>
      </trkpt>
      <trkpt lat="37.94894113205373" lon="23.744398886337876">
        <ele>115.4</ele>
        <time>2021-04-10T15:11:08.000Z</time>
      </trkpt>
      <trkpt lat="37.94895772822201" lon="23.744360078126192">
        <ele>115.4</ele>
        <time>2021-04-10T15:11:11.000Z</time>
      </trkpt>
      <trkpt lat="37.949025286361575" lon="23.744346918538213">
        <ele>115.4</ele>
        <time>2021-04-10T15:11:22.000Z</time>
      </trkpt>
      <trkpt lat="37.949014976620674" lon="23.74433266930282">
        <ele>115.4</ele>
        <time>2021-04-10T15:11:27.000Z</time>
      </trkpt>
      <trkpt lat="37.949001397937536" lon="23.74436091631651">
        <ele>115.4</ele>
        <time>2021-04-10T15:11:32.000Z</time>
      </trkpt>
      <trkpt lat="37.94902159832418" lon="23.744364101439714">
        <ele>115.4</ele>
        <time>2021-04-10T15:11:41.000Z</time>
      </trkpt>
      <trkpt lat="37.949024280533195" lon="23.74432722106576">
        <ele>115.4</ele>
        <time>2021-04-10T15:11:51.000Z</time>
      </trkpt>
      <trkpt lat="37.9490224365145" lon="23.744328813627362">
        <ele>115.4</ele>
        <time>2021-04-10T15:11:52.000Z</time>
      </trkpt>
      <trkpt lat="37.948984215036035" lon="23.74432034790516">
        <ele>115.4</ele>
        <time>2021-04-10T15:12:07.000Z</time>
      </trkpt>
      <trkpt lat="37.948983293026686" lon="23.744359659031034">
        <ele>115.4</ele>
        <time>2021-04-10T15:12:13.000Z</time>
      </trkpt>
      <trkpt lat="37.948986645787954" lon="23.744350355118513">
        <ele>115.4</ele>
        <time>2021-04-10T15:12:15.000Z</time>
      </trkpt>
      <trkpt lat="37.94900642707944" lon="23.744359742850065">
        <ele>115.4</ele>
        <time>2021-04-10T15:12:24.000Z</time>
      </trkpt>
      <trkpt lat="37.949011623859406" lon="23.74435261823237">
        <ele>118</ele>
        <time>2021-04-10T15:12:25.000Z</time>
      </trkpt>
      <trkpt lat="37.94901858083904" lon="23.74434046447277">
        <ele>117.6</ele>
        <time>2021-04-10T15:12:33.000Z</time>
      </trkpt>
      <trkpt lat="37.949018413200974" lon="23.74434482306242">
        <ele>117.6</ele>
        <time>2021-04-10T15:12:35.000Z</time>
      </trkpt>
      <trkpt lat="37.94898807071149" lon="23.744389414787292">
        <ele>117.6</ele>
        <time>2021-04-10T15:12:40.000Z</time>
      </trkpt>
      <trkpt lat="37.94898807071149" lon="23.744441382586956">
        <ele>117</ele>
        <time>2021-04-10T15:12:53.000Z</time>
      </trkpt>
      <trkpt lat="37.948988657444715" lon="23.744444902986288">
        <ele>117</ele>
        <time>2021-04-10T15:12:54.000Z</time>
      </trkpt>
      <trkpt lat="37.94900634326041" lon="23.74437315389514">
        <ele>117.2</ele>
        <time>2021-04-10T15:13:01.000Z</time>
      </trkpt>
      <trkpt lat="37.94899879954755" lon="23.744380110874772">
        <ele>117.4</ele>
        <time>2021-04-10T15:13:03.000Z</time>
      </trkpt>
      <trkpt lat="37.94898681342602" lon="23.744367118924856">
        <ele>118.2</ele>
        <time>2021-04-10T15:13:26.000Z</time>
      </trkpt>
      <trkpt lat="37.94898706488311" lon="23.74436686746776">
        <ele>118.2</ele>
        <time>2021-04-10T15:13:28.000Z</time>
      </trkpt>
      <trkpt lat="37.94898656196892" lon="23.74437415972352">
        <ele>118.2</ele>
        <time>2021-04-10T15:13:30.000Z</time>
      </trkpt>
      <trkpt lat="37.94899636879563" lon="23.744374746456742">
        <ele>118.2</ele>
        <time>2021-04-10T15:13:33.000Z</time>
      </trkpt>
      <trkpt lat="37.948997877538204" lon="23.744371309876442">
        <ele>118.2</ele>
        <time>2021-04-10T15:13:34.000Z</time>
      </trkpt>
      <trkpt lat="37.94900164939463" lon="23.74436921440065">
        <ele>118.2</ele>
        <time>2021-04-10T15:13:35.000Z</time>
      </trkpt>
      <trkpt lat="37.94903391972184" lon="23.744362173601985">
        <ele>118.2</ele>
        <time>2021-04-10T15:13:45.000Z</time>
      </trkpt>
      <trkpt lat="37.94903442263603" lon="23.74436443671584">
        <ele>118.2</ele>
        <time>2021-04-10T15:13:47.000Z</time>
      </trkpt>
      <trkpt lat="37.94902830384672" lon="23.744372818619013">
        <ele>118.2</ele>
        <time>2021-04-10T15:13:51.000Z</time>
      </trkpt>
      <trkpt lat="37.949010115116835" lon="23.744386648759246">
        <ele>118.2</ele>
        <time>2021-04-10T15:13:53.000Z</time>
      </trkpt>
      <trkpt lat="37.94899821281433" lon="23.74438530765474">
        <ele>118.2</ele>
        <time>2021-04-10T15:13:55.000Z</time>
      </trkpt>
      <trkpt lat="37.94898773543537" lon="23.744375249370933">
        <ele>118.2</ele>
        <time>2021-04-10T15:13:57.000Z</time>
      </trkpt>
      <trkpt lat="37.94898932799697" lon="23.744376339018345">
        <ele>118.2</ele>
        <time>2021-04-10T15:13:58.000Z</time>
      </trkpt>
      <trkpt lat="37.94898991473019" lon="23.7443820387125">
        <ele>118.2</ele>
        <time>2021-04-10T15:13:59.000Z</time>
      </trkpt>
      <trkpt lat="37.9489910043776" lon="23.744388995692134">
        <ele>118.2</ele>
        <time>2021-04-10T15:14:00.000Z</time>
      </trkpt>
      <trkpt lat="37.94899670407176" lon="23.744388492777944">
        <ele>118.2</ele>
        <time>2021-04-10T15:14:01.000Z</time>
      </trkpt>
      <trkpt lat="37.94896803796291" lon="23.744434593245387">
        <ele>118.2</ele>
        <time>2021-04-10T15:14:04.000Z</time>
      </trkpt>
      <trkpt lat="37.948929481208324" lon="23.74449628405273">
        <ele>118.2</ele>
        <time>2021-04-10T15:14:09.000Z</time>
      </trkpt>
      <trkpt lat="37.948926631361246" lon="23.744511287659407">
        <ele>118.2</ele>
        <time>2021-04-10T15:14:11.000Z</time>
      </trkpt>
      <trkpt lat="37.948930487036705" lon="23.74450902454555">
        <ele>118.2</ele>
        <time>2021-04-10T15:14:12.000Z</time>
      </trkpt>
      <trkpt lat="37.94893618673086" lon="23.744506929069757">
        <ele>118.2</ele>
        <time>2021-04-10T15:14:14.000Z</time>
      </trkpt>
      <trkpt lat="37.94893668964505" lon="23.74450709670782">
        <ele>118.2</ele>
        <time>2021-04-10T15:14:15.000Z</time>
      </trkpt>
      <trkpt lat="37.948932414874434" lon="23.744512712582946">
        <ele>118.2</ele>
        <time>2021-04-10T15:14:16.000Z</time>
      </trkpt>
      <trkpt lat="37.948929565027356" lon="23.744526207447052">
        <ele>118.2</ele>
        <time>2021-04-10T15:14:17.000Z</time>
      </trkpt>
      <trkpt lat="37.948935432359576" lon="23.744548251852393">
        <ele>118.2</ele>
        <time>2021-04-10T15:14:21.000Z</time>
      </trkpt>
      <trkpt lat="37.94897818006575" lon="23.74447281472385">
        <ele>118.6</ele>
        <time>2021-04-10T15:14:28.000Z</time>
      </trkpt>
      <trkpt lat="37.948977844789624" lon="23.744462924078107">
        <ele>118.8</ele>
        <time>2021-04-10T15:14:30.000Z</time>
      </trkpt>
      <trkpt lat="37.94896627776325" lon="23.744451692327857">
        <ele>119</ele>
        <time>2021-04-10T15:14:36.000Z</time>
      </trkpt>
      <trkpt lat="37.948936354368925" lon="23.744468623772264">
        <ele>119</ele>
        <time>2021-04-10T15:14:47.000Z</time>
      </trkpt>
      <trkpt lat="37.948962673544884" lon="23.744481364265084">
        <ele>118.8</ele>
        <time>2021-04-10T15:15:01.000Z</time>
      </trkpt>
      <trkpt lat="37.94895169325173" lon="23.744454123079777">
        <ele>118.8</ele>
        <time>2021-04-10T15:15:06.000Z</time>
      </trkpt>
      <trkpt lat="37.948949513956904" lon="23.7444528657943">
        <ele>119</ele>
        <time>2021-04-10T15:15:07.000Z</time>
      </trkpt>
      <trkpt lat="37.94894188642502" lon="23.744443897157907">
        <ele>119</ele>
        <time>2021-04-10T15:15:18.000Z</time>
      </trkpt>
      <trkpt lat="37.94894834049046" lon="23.744445573538542">
        <ele>119</ele>
        <time>2021-04-10T15:15:20.000Z</time>
      </trkpt>
      <trkpt lat="37.948950519785285" lon="23.744448674842715">
        <ele>119</ele>
        <time>2021-04-10T15:15:21.000Z</time>
      </trkpt>
      <trkpt lat="37.948937863111496" lon="23.7444856390357">
        <ele>119</ele>
        <time>2021-04-10T15:15:29.000Z</time>
      </trkpt>
      <trkpt lat="37.948942221701145" lon="23.7444650195539">
        <ele>119</ele>
        <time>2021-04-10T15:15:31.000Z</time>
      </trkpt>
      <trkpt lat="37.94894280843437" lon="23.744463426992297">
        <ele>118.8</ele>
        <time>2021-04-10T15:15:33.000Z</time>
      </trkpt>
      <trkpt lat="37.94896393083036" lon="23.744474491104484">
        <ele>118.8</ele>
        <time>2021-04-10T15:15:38.000Z</time>
      </trkpt>
      <trkpt lat="37.948965607210994" lon="23.744444902986288">
        <ele>119</ele>
        <time>2021-04-10T15:15:48.000Z</time>
      </trkpt>
      <trkpt lat="37.948944233357906" lon="23.744441717863083">
        <ele>119</ele>
        <time>2021-04-10T15:15:59.000Z</time>
      </trkpt>
      <trkpt lat="37.94893744401634" lon="23.744441466405988">
        <ele>119</ele>
        <time>2021-04-10T15:16:04.000Z</time>
      </trkpt>
      <trkpt lat="37.94893107376993" lon="23.744440292939544">
        <ele>119.2</ele>
        <time>2021-04-10T15:16:07.000Z</time>
      </trkpt>
      <trkpt lat="37.948926128447056" lon="23.74443962238729">
        <ele>119.2</ele>
        <time>2021-04-10T15:16:08.000Z</time>
      </trkpt>
      <trkpt lat="37.948913890868425" lon="23.744450602680445">
        <ele>119.2</ele>
        <time>2021-04-10T15:16:12.000Z</time>
      </trkpt>
      <trkpt lat="37.9488979652524" lon="23.744447669014335">
        <ele>119</ele>
        <time>2021-04-10T15:16:22.000Z</time>
      </trkpt>
      <trkpt lat="37.948896288871765" lon="23.744438784196973">
        <ele>119</ele>
        <time>2021-04-10T15:16:24.000Z</time>
      </trkpt>
      <trkpt lat="37.94890249148011" lon="23.744416320696473">
        <ele>119</ele>
        <time>2021-04-10T15:16:31.000Z</time>
      </trkpt>
      <trkpt lat="37.94888623058796" lon="23.74442738480866">
        <ele>119</ele>
        <time>2021-04-10T15:16:37.000Z</time>
      </trkpt>
      <trkpt lat="37.94889327138662" lon="23.744426798075438">
        <ele>119</ele>
        <time>2021-04-10T15:16:43.000Z</time>
      </trkpt>
      <trkpt lat="37.9489098675549" lon="23.744408190250397">
        <ele>119</ele>
        <time>2021-04-10T15:16:46.000Z</time>
      </trkpt>
      <trkpt lat="37.948911963030696" lon="23.74441372230649">
        <ele>119</ele>
        <time>2021-04-10T15:16:49.000Z</time>
      </trkpt>
      <trkpt lat="37.94891984201968" lon="23.74442746862769">
        <ele>119</ele>
        <time>2021-04-10T15:16:53.000Z</time>
      </trkpt>
      <trkpt lat="37.94898488558829" lon="23.744466276839375">
        <ele>119</ele>
        <time>2021-04-10T15:17:07.000Z</time>
      </trkpt>
      <trkpt lat="37.94893811456859" lon="23.74443333595991">
        <ele>119</ele>
        <time>2021-04-10T15:17:23.000Z</time>
      </trkpt>
      <trkpt lat="37.949013551697135" lon="23.74446594156325">
        <ele>119</ele>
        <time>2021-04-10T15:17:24.000Z</time>
      </trkpt>
      <trkpt lat="37.94904498383403" lon="23.744492512196302">
        <ele>119</ele>
        <time>2021-04-10T15:17:31.000Z</time>
      </trkpt>
      <trkpt lat="37.949075158685446" lon="23.744484800845385">
        <ele>119</ele>
        <time>2021-04-10T15:17:35.000Z</time>
      </trkpt>
      <trkpt lat="37.949083959683776" lon="23.744472563266754">
        <ele>119</ele>
        <time>2021-04-10T15:17:36.000Z</time>
      </trkpt>
      <trkpt lat="37.94910265132785" lon="23.74444800429046">
        <ele>118.8</ele>
        <time>2021-04-10T15:17:38.000Z</time>
      </trkpt>
      <trkpt lat="37.949174316599965" lon="23.744405508041382">
        <ele>118.6</ele>
        <time>2021-04-10T15:17:45.000Z</time>
      </trkpt>
      <trkpt lat="37.949236426502466" lon="23.7444063462317">
        <ele>118.8</ele>
        <time>2021-04-10T15:17:50.000Z</time>
      </trkpt>
      <trkpt lat="37.949322843924165" lon="23.744362173601985">
        <ele>118.2</ele>
        <time>2021-04-10T15:17:57.000Z</time>
      </trkpt>
      <trkpt lat="37.94938067905605" lon="23.744279444217682">
        <ele>117.2</ele>
        <time>2021-04-10T15:18:03.000Z</time>
      </trkpt>
      <trkpt lat="37.949382523074746" lon="23.744269805029035">
        <ele>117</ele>
        <time>2021-04-10T15:18:04.000Z</time>
      </trkpt>
      <trkpt lat="37.949426947161555" lon="23.744257483631372">
        <ele>116.2</ele>
        <time>2021-04-10T15:18:13.000Z</time>
      </trkpt>
      <trkpt lat="37.94943943619728" lon="23.744246922433376">
        <ele>116</ele>
        <time>2021-04-10T15:18:14.000Z</time>
      </trkpt>
      <trkpt lat="37.94951369985938" lon="23.744170563295484">
        <ele>116.2</ele>
        <time>2021-04-10T15:18:19.000Z</time>
      </trkpt>
      <trkpt lat="37.949584694579244" lon="23.74410342425108">
        <ele>116</ele>
        <time>2021-04-10T15:18:28.000Z</time>
      </trkpt>
      <trkpt lat="37.94964814558625" lon="23.74406386166811">
        <ele>115.6</ele>
        <time>2021-04-10T15:18:34.000Z</time>
      </trkpt>
      <trkpt lat="37.949661975726485" lon="23.744010720402002">
        <ele>115.4</ele>
        <time>2021-04-10T15:18:37.000Z</time>
      </trkpt>
      <trkpt lat="37.949681086465716" lon="23.74396126717329">
        <ele>115</ele>
        <time>2021-04-10T15:18:40.000Z</time>
      </trkpt>
      <trkpt lat="37.94968728907406" lon="23.743875436484814">
        <ele>114.8</ele>
        <time>2021-04-10T15:18:44.000Z</time>
      </trkpt>
      <trkpt lat="37.94971587136388" lon="23.743749372661114">
        <ele>114.4</ele>
        <time>2021-04-10T15:18:49.000Z</time>
      </trkpt>
      <trkpt lat="37.94976331293583" lon="23.743664799258113">
        <ele>114.2</ele>
        <time>2021-04-10T15:18:55.000Z</time>
      </trkpt>
      <trkpt lat="37.949803210794926" lon="23.74361635185778">
        <ele>114</ele>
        <time>2021-04-10T15:18:59.000Z</time>
      </trkpt>
      <trkpt lat="37.949834391474724" lon="23.74358005821705">
        <ele>113.6</ele>
        <time>2021-04-10T15:19:02.000Z</time>
      </trkpt>
      <trkpt lat="37.94992852024734" lon="23.743504285812378">
        <ele>113</ele>
        <time>2021-04-10T15:19:08.000Z</time>
      </trkpt>
      <trkpt lat="37.94993874616921" lon="23.743490455672145">
        <ele>112.8</ele>
        <time>2021-04-10T15:19:09.000Z</time>
      </trkpt>
      <trkpt lat="37.94996598735452" lon="23.74340479262173">
        <ele>112.6</ele>
        <time>2021-04-10T15:19:15.000Z</time>
      </trkpt>
      <trkpt lat="37.94995844364166" lon="23.74338610097766">
        <ele>112.6</ele>
        <time>2021-04-10T15:19:17.000Z</time>
      </trkpt>
      <trkpt lat="37.94995886273682" lon="23.74330412596464">
        <ele>112.2</ele>
        <time>2021-04-10T15:19:21.000Z</time>
      </trkpt>
      <trkpt lat="37.949972692877054" lon="23.743172027170658">
        <ele>112.2</ele>
        <time>2021-04-10T15:19:28.000Z</time>
      </trkpt>
      <trkpt lat="37.949975207448006" lon="23.74314185231924">
        <ele>111.8</ele>
        <time>2021-04-10T15:19:30.000Z</time>
      </trkpt>
      <trkpt lat="37.9500013589859" lon="23.743093321099877">
        <ele>111.4</ele>
        <time>2021-04-10T15:19:33.000Z</time>
      </trkpt>
      <trkpt lat="37.950018709525466" lon="23.743080915883183">
        <ele>111.4</ele>
        <time>2021-04-10T15:19:34.000Z</time>
      </trkpt>
      <trkpt lat="37.95004888437688" lon="23.743043951690197">
        <ele>111.2</ele>
        <time>2021-04-10T15:19:36.000Z</time>
      </trkpt>
      <trkpt lat="37.950070006772876" lon="23.74302945099771">
        <ele>111.2</ele>
        <time>2021-04-10T15:19:38.000Z</time>
      </trkpt>
      <trkpt lat="37.95010579749942" lon="23.742993157356977">
        <ele>111.2</ele>
        <time>2021-04-10T15:19:42.000Z</time>
      </trkpt>
      <trkpt lat="37.950118286535144" lon="23.742982763797045">
        <ele>111</ele>
        <time>2021-04-10T15:19:43.000Z</time>
      </trkpt>
      <trkpt lat="37.950144270434976" lon="23.742944709956646">
        <ele>110.6</ele>
        <time>2021-04-10T15:19:46.000Z</time>
      </trkpt>
      <trkpt lat="37.950141755864024" lon="23.742886874824762">
        <ele>110.6</ele>
        <time>2021-04-10T15:19:50.000Z</time>
      </trkpt>
      <trkpt lat="37.95017712749541" lon="23.7428573705256">
        <ele>110.4</ele>
        <time>2021-04-10T15:19:53.000Z</time>
      </trkpt>
      <trkpt lat="37.95022062957287" lon="23.742804396897554">
        <ele>110.6</ele>
        <time>2021-04-10T15:19:57.000Z</time>
      </trkpt>
      <trkpt lat="37.950245356187224" lon="23.74276701360941">
        <ele>110.8</ele>
        <time>2021-04-10T15:20:00.000Z</time>
      </trkpt>
      <trkpt lat="37.95026957988739" lon="23.742689481005073">
        <ele>110.2</ele>
        <time>2021-04-10T15:20:05.000Z</time>
      </trkpt>
      <trkpt lat="37.950278548523784" lon="23.74267715960741">
        <ele>110</ele>
        <time>2021-04-10T15:20:06.000Z</time>
      </trkpt>
      <trkpt lat="37.95029489323497" lon="23.74263466335833">
        <ele>109.6</ele>
        <time>2021-04-10T15:20:09.000Z</time>
      </trkpt>
      <trkpt lat="37.950295228511095" lon="23.742561656981707">
        <ele>109.2</ele>
        <time>2021-04-10T15:20:14.000Z</time>
      </trkpt>
      <trkpt lat="37.95031073503196" lon="23.742521507665515">
        <ele>109.2</ele>
        <time>2021-04-10T15:20:17.000Z</time>
      </trkpt>
      <trkpt lat="37.950319619849324" lon="23.742504324764013">
        <ele>109.2</ele>
        <time>2021-04-10T15:20:18.000Z</time>
      </trkpt>
      <trkpt lat="37.950358679518104" lon="23.74239955097437">
        <ele>108.6</ele>
        <time>2021-04-10T15:20:24.000Z</time>
      </trkpt>
      <trkpt lat="37.950369073078036" lon="23.742380272597075">
        <ele>108.4</ele>
        <time>2021-04-10T15:20:25.000Z</time>
      </trkpt>
      <trkpt lat="37.95038701035082" lon="23.74229502864182">
        <ele>108.2</ele>
        <time>2021-04-10T15:20:30.000Z</time>
      </trkpt>
      <trkpt lat="37.950383238494396" lon="23.74225588515401">
        <ele>108.2</ele>
        <time>2021-04-10T15:20:32.000Z</time>
      </trkpt>
      <trkpt lat="37.95038080774248" lon="23.74223534949124">
        <ele>108</ele>
        <time>2021-04-10T15:20:33.000Z</time>
      </trkpt>
      <trkpt lat="37.95038726180792" lon="23.74220467172563">
        <ele>107.8</ele>
        <time>2021-04-10T15:20:35.000Z</time>
      </trkpt>
      <trkpt lat="37.950409138575196" lon="23.74214457347989">
        <ele>107.8</ele>
        <time>2021-04-10T15:20:39.000Z</time>
      </trkpt>
      <trkpt lat="37.95047149993479" lon="23.742053043097258">
        <ele>108.8</ele>
        <time>2021-04-10T15:20:44.000Z</time>
      </trkpt>
      <trkpt lat="37.9504831507802" lon="23.741990849375725">
        <ele>108.8</ele>
        <time>2021-04-10T15:20:50.000Z</time>
      </trkpt>
      <trkpt lat="37.95048910193145" lon="23.74196134507656">
        <ele>108.2</ele>
        <time>2021-04-10T15:20:52.000Z</time>
      </trkpt>
      <trkpt lat="37.95050159096718" lon="23.741913987323642">
        <ele>107.6</ele>
        <time>2021-04-10T15:20:56.000Z</time>
      </trkpt>
      <trkpt lat="37.95050544664264" lon="23.741897558793426">
        <ele>107.6</ele>
        <time>2021-04-10T15:20:57.000Z</time>
      </trkpt>
      <trkpt lat="37.950511230155826" lon="23.74188263900578">
        <ele>107.6</ele>
        <time>2021-04-10T15:20:58.000Z</time>
      </trkpt>
      <trkpt lat="37.950550289824605" lon="23.74180351383984">
        <ele>107.8</ele>
        <time>2021-04-10T15:21:03.000Z</time>
      </trkpt>
      <trkpt lat="37.950573759153485" lon="23.741780882701278">
        <ele>107.4</ele>
        <time>2021-04-10T15:21:05.000Z</time>
      </trkpt>
      <trkpt lat="37.95059806667268" lon="23.741746516898274">
        <ele>107.2</ele>
        <time>2021-04-10T15:21:10.000Z</time>
      </trkpt>
      <trkpt lat="37.95066051185131" lon="23.741652136668563">
        <ele>108</ele>
        <time>2021-04-10T15:21:16.000Z</time>
      </trkpt>
      <trkpt lat="37.95066587626934" lon="23.741623889654875">
        <ele>108</ele>
        <time>2021-04-10T15:21:18.000Z</time>
      </trkpt>
      <trkpt lat="37.95067082159221" lon="23.741596564650536">
        <ele>107.8</ele>
        <time>2021-04-10T15:21:20.000Z</time>
      </trkpt>
      <trkpt lat="37.9506800416857" lon="23.741575442254543">
        <ele>107.6</ele>
        <time>2021-04-10T15:21:23.000Z</time>
      </trkpt>
      <trkpt lat="37.95069814659655" lon="23.74152682721615">
        <ele>107</ele>
        <time>2021-04-10T15:21:26.000Z</time>
      </trkpt>
      <trkpt lat="37.950703762471676" lon="23.741500340402126">
        <ele>106.8</ele>
        <time>2021-04-10T15:21:28.000Z</time>
      </trkpt>
      <trkpt lat="37.95070887543261" lon="23.741479134187102">
        <ele>106.6</ele>
        <time>2021-04-10T15:21:30.000Z</time>
      </trkpt>
      <trkpt lat="37.95073628425598" lon="23.741430519148707">
        <ele>106.8</ele>
        <time>2021-04-10T15:21:33.000Z</time>
      </trkpt>
      <trkpt lat="37.95074701309204" lon="23.7414135877043">
        <ele>106.4</ele>
        <time>2021-04-10T15:21:34.000Z</time>
      </trkpt>
      <trkpt lat="37.9507817979902" lon="23.741358099505305">
        <ele>106.8</ele>
        <time>2021-04-10T15:21:38.000Z</time>
      </trkpt>
      <trkpt lat="37.95080174691975" lon="23.741306634619832">
        <ele>107.2</ele>
        <time>2021-04-10T15:21:41.000Z</time>
      </trkpt>
      <trkpt lat="37.95081448741257" lon="23.741283416748047">
        <ele>107.6</ele>
        <time>2021-04-10T15:21:43.000Z</time>
      </trkpt>
      <trkpt lat="37.95082404278219" lon="23.741249050945044">
        <ele>107.6</ele>
        <time>2021-04-10T15:21:45.000Z</time>
      </trkpt>
      <trkpt lat="37.95083477161825" lon="23.74121124856174">
        <ele>107.6</ele>
        <time>2021-04-10T15:21:47.000Z</time>
      </trkpt>
      <trkpt lat="37.95083946548402" lon="23.74119465239346">
        <ele>107.6</ele>
        <time>2021-04-10T15:21:48.000Z</time>
      </trkpt>
      <trkpt lat="37.950849272310734" lon="23.741091387346387">
        <ele>107.6</ele>
        <time>2021-04-10T15:21:53.000Z</time>
      </trkpt>
      <trkpt lat="37.95083879493177" lon="23.741055512800813">
        <ele>107.4</ele>
        <time>2021-04-10T15:21:55.000Z</time>
      </trkpt>
      <trkpt lat="37.95083376578987" lon="23.74100010842085">
        <ele>107.2</ele>
        <time>2021-04-10T15:21:59.000Z</time>
      </trkpt>
      <trkpt lat="37.95087299309671" lon="23.740949481725693">
        <ele>107</ele>
        <time>2021-04-10T15:22:02.000Z</time>
      </trkpt>
      <trkpt lat="37.95090241357684" lon="23.74091813340783">
        <ele>106.8</ele>
        <time>2021-04-10T15:22:04.000Z</time>
      </trkpt>
      <trkpt lat="37.9509115498513" lon="23.740906566381454">
        <ele>106.8</ele>
        <time>2021-04-10T15:22:05.000Z</time>
      </trkpt>
      <trkpt lat="37.95098287984729" lon="23.740830710157752">
        <ele>106.6</ele>
        <time>2021-04-10T15:22:13.000Z</time>
      </trkpt>
      <trkpt lat="37.950987573713064" lon="23.740814784541726">
        <ele>106.6</ele>
        <time>2021-04-10T15:22:14.000Z</time>
      </trkpt>
      <trkpt lat="37.9509786888957" lon="23.740751082077622">
        <ele>106.6</ele>
        <time>2021-04-10T15:22:17.000Z</time>
      </trkpt>
      <trkpt lat="37.95098572969437" lon="23.740712273865938">
        <ele>106.6</ele>
        <time>2021-04-10T15:22:19.000Z</time>
      </trkpt>
      <trkpt lat="37.951006684452295" lon="23.74067480675876">
        <ele>106.4</ele>
        <time>2021-04-10T15:22:21.000Z</time>
      </trkpt>
      <trkpt lat="37.95103870332241" lon="23.740644045174122">
        <ele>106</ele>
        <time>2021-04-10T15:22:24.000Z</time>
      </trkpt>
      <trkpt lat="37.951053539291024" lon="23.740618815645576">
        <ele>105.8</ele>
        <time>2021-04-10T15:22:27.000Z</time>
      </trkpt>
      <trkpt lat="37.95107239857316" lon="23.740596352145076">
        <ele>105.8</ele>
        <time>2021-04-10T15:22:30.000Z</time>
      </trkpt>
      <trkpt lat="37.95112847350538" lon="23.740492835640907">
        <ele>106</ele>
        <time>2021-04-10T15:22:38.000Z</time>
      </trkpt>
      <trkpt lat="37.95114263892174" lon="23.74045880511403">
        <ele>106</ele>
        <time>2021-04-10T15:22:40.000Z</time>
      </trkpt>
      <trkpt lat="37.95116853900254" lon="23.740404909476638">
        <ele>106.2</ele>
        <time>2021-04-10T15:22:44.000Z</time>
      </trkpt>
      <trkpt lat="37.95116996392608" lon="23.74039384536445">
        <ele>106</ele>
        <time>2021-04-10T15:22:45.000Z</time>
      </trkpt>
      <trkpt lat="37.951154708862305" lon="23.74039812013507">
        <ele>105.6</ele>
        <time>2021-04-10T15:22:52.000Z</time>
      </trkpt>
      <trkpt lat="37.95114674605429" lon="23.74040398746729">
        <ele>105.4</ele>
        <time>2021-04-10T15:22:53.000Z</time>
      </trkpt>
      <trkpt lat="37.951136603951454" lon="23.74036685563624">
        <ele>105.4</ele>
        <time>2021-04-10T15:23:01.000Z</time>
      </trkpt>
      <trkpt lat="37.95114289037883" lon="23.740368867293">
        <ele>105.2</ele>
        <time>2021-04-10T15:23:03.000Z</time>
      </trkpt>
      <trkpt lat="37.95114867389202" lon="23.740363838151097">
        <ele>105.4</ele>
        <time>2021-04-10T15:23:04.000Z</time>
      </trkpt>
      <trkpt lat="37.9512466583401" lon="23.740295190364122">
        <ele>105.8</ele>
        <time>2021-04-10T15:23:11.000Z</time>
      </trkpt>
      <trkpt lat="37.951348163187504" lon="23.7402428034693">
        <ele>105.8</ele>
        <time>2021-04-10T15:23:18.000Z</time>
      </trkpt>
      <trkpt lat="37.95136861503124" lon="23.740223105996847">
        <ele>105.6</ele>
        <time>2021-04-10T15:23:20.000Z</time>
      </trkpt>
      <trkpt lat="37.9513862170279" lon="23.740182369947433">
        <ele>105.6</ele>
        <time>2021-04-10T15:23:23.000Z</time>
      </trkpt>
      <trkpt lat="37.95139887370169" lon="23.74015529640019">
        <ele>105.8</ele>
        <time>2021-04-10T15:23:25.000Z</time>
      </trkpt>
      <trkpt lat="37.95144564472139" lon="23.740097461268306">
        <ele>106</ele>
        <time>2021-04-10T15:23:30.000Z</time>
      </trkpt>
      <trkpt lat="37.951454780995846" lon="23.740093102678657">
        <ele>106</ele>
        <time>2021-04-10T15:23:31.000Z</time>
      </trkpt>
      <trkpt lat="37.95146668329835" lon="23.740083631128073">
        <ele>106</ele>
        <time>2021-04-10T15:23:32.000Z</time>
      </trkpt>
      <trkpt lat="37.95152728445828" lon="23.74005865305662">
        <ele>106</ele>
        <time>2021-04-10T15:23:36.000Z</time>
      </trkpt>
      <trkpt lat="37.951581347733736" lon="23.74001213349402">
        <ele>106.6</ele>
        <time>2021-04-10T15:23:41.000Z</time>
      </trkpt>
      <trkpt lat="37.95158872380853" lon="23.74000526033342">
        <ele>106.6</ele>
        <time>2021-04-10T15:23:42.000Z</time>
      </trkpt>
      <trkpt lat="37.951597943902016" lon="23.739994782954454">
        <ele>106.6</ele>
        <time>2021-04-10T15:23:43.000Z</time>
      </trkpt>
      <trkpt lat="37.95160515233874" lon="23.739984976127744">
        <ele>106.6</ele>
        <time>2021-04-10T15:23:44.000Z</time>
      </trkpt>
      <trkpt lat="37.95166592113674" lon="23.739960500970483">
        <ele>106.6</ele>
        <time>2021-04-10T15:23:49.000Z</time>
      </trkpt>
      <trkpt lat="37.95174462720752" lon="23.739947844296694">
        <ele>106.6</ele>
        <time>2021-04-10T15:23:53.000Z</time>
      </trkpt>
      <trkpt lat="37.95176927000284" lon="23.739928985014558">
        <ele>106.2</ele>
        <time>2021-04-10T15:23:55.000Z</time>
      </trkpt>
      <trkpt lat="37.95178033411503" lon="23.739921441301703">
        <ele>106</ele>
        <time>2021-04-10T15:23:56.000Z</time>
      </trkpt>
      <trkpt lat="37.95179315842688" lon="23.73991532251239">
        <ele>105.6</ele>
        <time>2021-04-10T15:23:57.000Z</time>
      </trkpt>
      <trkpt lat="37.95184252783656" lon="23.739894116297364">
        <ele>104.8</ele>
        <time>2021-04-10T15:24:00.000Z</time>
      </trkpt>
      <trkpt lat="37.95185409486294" lon="23.739880118519068">
        <ele>104.8</ele>
        <time>2021-04-10T15:24:01.000Z</time>
      </trkpt>
      <trkpt lat="37.95186633244157" lon="23.739866456016898">
        <ele>104.8</ele>
        <time>2021-04-10T15:24:02.000Z</time>
      </trkpt>
      <trkpt lat="37.95193640515208" lon="23.739768220111728">
        <ele>105.2</ele>
        <time>2021-04-10T15:24:10.000Z</time>
      </trkpt>
      <trkpt lat="37.95204947702587" lon="23.73970728367567">
        <ele>105.4</ele>
        <time>2021-04-10T15:24:18.000Z</time>
      </trkpt>
      <trkpt lat="37.95210144482553" lon="23.739670738577843">
        <ele>105.6</ele>
        <time>2021-04-10T15:24:22.000Z</time>
      </trkpt>
      <trkpt lat="37.95212927274406" lon="23.739642910659313">
        <ele>105.6</ele>
        <time>2021-04-10T15:24:24.000Z</time>
      </trkpt>
      <trkpt lat="37.95222197659314" lon="23.739563953131437">
        <ele>105.4</ele>
        <time>2021-04-10T15:24:32.000Z</time>
      </trkpt>
      <trkpt lat="37.952234549447894" lon="23.739557415246964">
        <ele>105.4</ele>
        <time>2021-04-10T15:24:33.000Z</time>
      </trkpt>
      <trkpt lat="37.95225525274873" lon="23.73954358510673">
        <ele>105.6</ele>
        <time>2021-04-10T15:24:35.000Z</time>
      </trkpt>
      <trkpt lat="37.95230763964355" lon="23.73951030895114">
        <ele>105.6</ele>
        <time>2021-04-10T15:24:39.000Z</time>
      </trkpt>
      <trkpt lat="37.95237989164889" lon="23.739452306181192">
        <ele>105</ele>
        <time>2021-04-10T15:24:46.000Z</time>
      </trkpt>
      <trkpt lat="37.952390955761075" lon="23.739442750811577">
        <ele>105</ele>
        <time>2021-04-10T15:24:47.000Z</time>
      </trkpt>
      <trkpt lat="37.952432446181774" lon="23.739380724728107">
        <ele>104.8</ele>
        <time>2021-04-10T15:24:51.000Z</time>
      </trkpt>
      <trkpt lat="37.952453568577766" lon="23.739339904859662">
        <ele>104.8</ele>
        <time>2021-04-10T15:24:53.000Z</time>
      </trkpt>
      <trkpt lat="37.952461866661906" lon="23.73929673805833">
        <ele>104.8</ele>
        <time>2021-04-10T15:24:55.000Z</time>
      </trkpt>
      <trkpt lat="37.95247821137309" lon="23.739250050857663">
        <ele>105.6</ele>
        <time>2021-04-10T15:24:59.000Z</time>
      </trkpt>
      <trkpt lat="37.95248516835272" lon="23.73917955905199">
        <ele>105.4</ele>
        <time>2021-04-10T15:25:04.000Z</time>
      </trkpt>
      <trkpt lat="37.95248550362885" lon="23.739146618172526">
        <ele>105</ele>
        <time>2021-04-10T15:25:06.000Z</time>
      </trkpt>
      <trkpt lat="37.95249271206558" lon="23.739117113873363">
        <ele>104.2</ele>
        <time>2021-04-10T15:25:09.000Z</time>
      </trkpt>
      <trkpt lat="37.952496064826846" lon="23.739102026447654">
        <ele>104</ele>
        <time>2021-04-10T15:25:10.000Z</time>
      </trkpt>
      <trkpt lat="37.95249396935105" lon="23.739017955958843">
        <ele>103.8</ele>
        <time>2021-04-10T15:25:13.000Z</time>
      </trkpt>
      <trkpt lat="37.95253571122885" lon="23.738895999267697">
        <ele>105</ele>
        <time>2021-04-10T15:25:20.000Z</time>
      </trkpt>
      <trkpt lat="37.95256529934704" lon="23.738870434463024">
        <ele>104.6</ele>
        <time>2021-04-10T15:25:24.000Z</time>
      </trkpt>
      <trkpt lat="37.95256521552801" lon="23.73886674642563">
        <ele>104.6</ele>
        <time>2021-04-10T15:25:25.000Z</time>
      </trkpt>
      <trkpt lat="37.952564461156726" lon="23.73885853216052">
        <ele>104.6</ele>
        <time>2021-04-10T15:25:27.000Z</time>
      </trkpt>
      <trkpt lat="37.95255683362484" lon="23.73886582441628">
        <ele>104.6</ele>
        <time>2021-04-10T15:25:28.000Z</time>
      </trkpt>
      <trkpt lat="37.952559096738696" lon="23.738866914063692">
        <ele>104.6</ele>
        <time>2021-04-10T15:25:32.000Z</time>
      </trkpt>
      <trkpt lat="37.95256865210831" lon="23.738854760304093">
        <ele>104.6</ele>
        <time>2021-04-10T15:25:34.000Z</time>
      </trkpt>
      <trkpt lat="37.95257586054504" lon="23.738859370350838">
        <ele>104.4</ele>
        <time>2021-04-10T15:25:35.000Z</time>
      </trkpt>
      <trkpt lat="37.952589355409145" lon="23.738895831629634">
        <ele>104.4</ele>
        <time>2021-04-10T15:25:37.000Z</time>
      </trkpt>
      <trkpt lat="37.95262179337442" lon="23.738933885470033">
        <ele>104.6</ele>
        <time>2021-04-10T15:25:40.000Z</time>
      </trkpt>
      <trkpt lat="37.9526849091053" lon="23.738891137763858">
        <ele>104.4</ele>
        <time>2021-04-10T15:25:45.000Z</time>
      </trkpt>
      <trkpt lat="37.95271223410964" lon="23.738886695355177">
        <ele>104.4</ele>
        <time>2021-04-10T15:25:47.000Z</time>
      </trkpt>
      <trkpt lat="37.952736876904964" lon="23.738875715062022">
        <ele>104.4</ele>
        <time>2021-04-10T15:25:49.000Z</time>
      </trkpt>
      <trkpt lat="37.952750120311975" lon="23.738876720890403">
        <ele>104.4</ele>
        <time>2021-04-10T15:25:50.000Z</time>
      </trkpt>
      <trkpt lat="37.95278741978109" lon="23.738898430019617">
        <ele>104</ele>
        <time>2021-04-10T15:25:54.000Z</time>
      </trkpt>
      <trkpt lat="37.95279471203685" lon="23.738896334543824">
        <ele>104</ele>
        <time>2021-04-10T15:25:56.000Z</time>
      </trkpt>
      <trkpt lat="37.95285229571164" lon="23.738894909620285">
        <ele>104.2</ele>
        <time>2021-04-10T15:25:59.000Z</time>
      </trkpt>
      <trkpt lat="37.952888337895274" lon="23.738876301795244">
        <ele>104.4</ele>
        <time>2021-04-10T15:26:01.000Z</time>
      </trkpt>
      <trkpt lat="37.952903592959046" lon="23.73887018300593">
        <ele>104.2</ele>
        <time>2021-04-10T15:26:02.000Z</time>
      </trkpt>
      <trkpt lat="37.95298598706722" lon="23.738855933770537">
        <ele>104.2</ele>
        <time>2021-04-10T15:26:06.000Z</time>
      </trkpt>
      <trkpt lat="37.953042732551694" lon="23.738892562687397">
        <ele>104.4</ele>
        <time>2021-04-10T15:26:10.000Z</time>
      </trkpt>
      <trkpt lat="37.95309327542782" lon="23.738884683698416">
        <ele>104.4</ele>
        <time>2021-04-10T15:26:14.000Z</time>
      </trkpt>
      <trkpt lat="37.95313451439142" lon="23.738879235461354">
        <ele>104.6</ele>
        <time>2021-04-10T15:26:17.000Z</time>
      </trkpt>
      <trkpt lat="37.953191343694925" lon="23.73890547081828">
        <ele>104.6</ele>
        <time>2021-04-10T15:26:21.000Z</time>
      </trkpt>
      <trkpt lat="37.95320073142648" lon="23.73891125433147">
        <ele>104.4</ele>
        <time>2021-04-10T15:26:22.000Z</time>
      </trkpt>
      <trkpt lat="37.953215735033154" lon="23.738927599042654">
        <ele>104</ele>
        <time>2021-04-10T15:26:24.000Z</time>
      </trkpt>
      <trkpt lat="37.95326108112931" lon="23.73893958516419">
        <ele>103.8</ele>
        <time>2021-04-10T15:26:28.000Z</time>
      </trkpt>
      <trkpt lat="37.95326971448958" lon="23.738935980945826">
        <ele>103.8</ele>
        <time>2021-04-10T15:26:29.000Z</time>
      </trkpt>
      <trkpt lat="37.95329360291362" lon="23.738937824964523">
        <ele>103.6</ele>
        <time>2021-04-10T15:26:32.000Z</time>
      </trkpt>
      <trkpt lat="37.953314473852515" lon="23.738931622356176">
        <ele>102.8</ele>
        <time>2021-04-10T15:26:35.000Z</time>
      </trkpt>
      <trkpt lat="37.95331908389926" lon="23.738928688690066">
        <ele>103</ele>
        <time>2021-04-10T15:26:36.000Z</time>
      </trkpt>
      <trkpt lat="37.953374572098255" lon="23.73890354298055">
        <ele>103</ele>
        <time>2021-04-10T15:26:41.000Z</time>
      </trkpt>
      <trkpt lat="37.953420924022794" lon="23.738899854943156">
        <ele>103</ele>
        <time>2021-04-10T15:26:46.000Z</time>
      </trkpt>
      <trkpt lat="37.9534481652081" lon="23.73891720548272">
        <ele>103.2</ele>
        <time>2021-04-10T15:26:48.000Z</time>
      </trkpt>
      <trkpt lat="37.95345981605351" lon="23.73892734758556">
        <ele>103.2</ele>
        <time>2021-04-10T15:26:49.000Z</time>
      </trkpt>
      <trkpt lat="37.95348915271461" lon="23.73893279582262">
        <ele>103</ele>
        <time>2021-04-10T15:26:51.000Z</time>
      </trkpt>
      <trkpt lat="37.95357230119407" lon="23.738947631791234">
        <ele>103.2</ele>
        <time>2021-04-10T15:26:55.000Z</time>
      </trkpt>
      <trkpt lat="37.95363080687821" lon="23.7389425188303">
        <ele>103.2</ele>
        <time>2021-04-10T15:26:59.000Z</time>
      </trkpt>
      <trkpt lat="37.95365394093096" lon="23.738945117220283">
        <ele>103</ele>
        <time>2021-04-10T15:27:01.000Z</time>
      </trkpt>
      <trkpt lat="37.95369777828455" lon="23.738967832177877">
        <ele>103.2</ele>
        <time>2021-04-10T15:27:03.000Z</time>
      </trkpt>
      <trkpt lat="37.953759636729956" lon="23.738978728652">
        <ele>103.4</ele>
        <time>2021-04-10T15:27:06.000Z</time>
      </trkpt>
      <trkpt lat="37.953793331980705" lon="23.73897437006235">
        <ele>103.4</ele>
        <time>2021-04-10T15:27:08.000Z</time>
      </trkpt>
      <trkpt lat="37.95383054763079" lon="23.738976465538144">
        <ele>103.4</ele>
        <time>2021-04-10T15:27:11.000Z</time>
      </trkpt>
      <trkpt lat="37.9538591299206" lon="23.738969173282385">
        <ele>103.4</ele>
        <time>2021-04-10T15:27:14.000Z</time>
      </trkpt>
      <trkpt lat="37.953882683068514" lon="23.738962970674038">
        <ele>103.2</ele>
        <time>2021-04-10T15:27:16.000Z</time>
      </trkpt>
      <trkpt lat="37.95392358675599" lon="23.73893866315484">
        <ele>103.2</ele>
        <time>2021-04-10T15:27:20.000Z</time>
      </trkpt>
      <trkpt lat="37.953931549564004" lon="23.738930951803923">
        <ele>103.2</ele>
        <time>2021-04-10T15:27:21.000Z</time>
      </trkpt>
      <trkpt lat="37.95396474190056" lon="23.73892298899591">
        <ele>103.2</ele>
        <time>2021-04-10T15:27:24.000Z</time>
      </trkpt>
      <trkpt lat="37.953980416059494" lon="23.73892550356686">
        <ele>103.2</ele>
        <time>2021-04-10T15:27:25.000Z</time>
      </trkpt>
      <trkpt lat="37.95401251874864" lon="23.73892198316753">
        <ele>103.4</ele>
        <time>2021-04-10T15:27:27.000Z</time>
      </trkpt>
      <trkpt lat="37.954040598124266" lon="23.73891955241561">
        <ele>103.2</ele>
        <time>2021-04-10T15:27:29.000Z</time>
      </trkpt>
      <trkpt lat="37.9540560208261" lon="23.738920222967863">
        <ele>103.2</ele>
        <time>2021-04-10T15:27:30.000Z</time>
      </trkpt>
      <trkpt lat="37.95408074744046" lon="23.738919217139482">
        <ele>103</ele>
        <time>2021-04-10T15:27:32.000Z</time>
      </trkpt>
      <trkpt lat="37.95409440994263" lon="23.738921815529466">
        <ele>103.2</ele>
        <time>2021-04-10T15:27:33.000Z</time>
      </trkpt>
      <trkpt lat="37.95410974882543" lon="23.738919803872705">
        <ele>103.2</ele>
        <time>2021-04-10T15:27:34.000Z</time>
      </trkpt>
      <trkpt lat="37.95413170941174" lon="23.738919971510768">
        <ele>103.4</ele>
        <time>2021-04-10T15:27:36.000Z</time>
      </trkpt>
      <trkpt lat="37.954152915626764" lon="23.738934639841318">
        <ele>103.2</ele>
        <time>2021-04-10T15:27:38.000Z</time>
      </trkpt>
      <trkpt lat="37.95421116985381" lon="23.73892248608172">
        <ele>102.8</ele>
        <time>2021-04-10T15:27:42.000Z</time>
      </trkpt>
      <trkpt lat="37.95424746349454" lon="23.738906225189567">
        <ele>102.6</ele>
        <time>2021-04-10T15:27:44.000Z</time>
      </trkpt>
      <trkpt lat="37.954305885359645" lon="23.73889708891511">
        <ele>102.8</ele>
        <time>2021-04-10T15:27:47.000Z</time>
      </trkpt>
      <trkpt lat="37.95436665415764" lon="23.738874038681388">
        <ele>102.8</ele>
        <time>2021-04-10T15:27:49.000Z</time>
      </trkpt>
      <trkpt lat="37.95440051704645" lon="23.738854927942157">
        <ele>103</ele>
        <time>2021-04-10T15:27:50.000Z</time>
      </trkpt>
      <trkpt lat="37.95441853813827" lon="23.738833386451006">
        <ele>103</ele>
        <time>2021-04-10T15:27:53.000Z</time>
      </trkpt>
      <trkpt lat="37.95441803522408" lon="23.73882089741528">
        <ele>103</ele>
        <time>2021-04-10T15:27:54.000Z</time>
      </trkpt>
      <trkpt lat="37.954414347186685" lon="23.73881008476019">
        <ele>102.8</ele>
        <time>2021-04-10T15:27:55.000Z</time>
      </trkpt>
      <trkpt lat="37.95441057533026" lon="23.738799020648003">
        <ele>102.2</ele>
        <time>2021-04-10T15:27:58.000Z</time>
      </trkpt>
      <trkpt lat="37.95441510155797" lon="23.738800110295415">
        <ele>102</ele>
        <time>2021-04-10T15:28:00.000Z</time>
      </trkpt>
      <trkpt lat="37.95442147180438" lon="23.738801199942827">
        <ele>102.2</ele>
        <time>2021-04-10T15:28:01.000Z</time>
      </trkpt>
      <trkpt lat="37.95447033829987" lon="23.73881402425468">
        <ele>102.6</ele>
        <time>2021-04-10T15:28:05.000Z</time>
      </trkpt>
      <trkpt lat="37.95448886230588" lon="23.738818047568202">
        <ele>102.6</ele>
        <time>2021-04-10T15:28:06.000Z</time>
      </trkpt>
      <trkpt lat="37.95450436882675" lon="23.738822154700756">
        <ele>102.6</ele>
        <time>2021-04-10T15:28:07.000Z</time>
      </trkpt>
      <trkpt lat="37.95454787090421" lon="23.738849060609937">
        <ele>102.8</ele>
        <time>2021-04-10T15:28:11.000Z</time>
      </trkpt>
      <trkpt lat="37.95458374544978" lon="23.73885710723698">
        <ele>102.2</ele>
        <time>2021-04-10T15:28:14.000Z</time>
      </trkpt>
      <trkpt lat="37.95464711263776" lon="23.73886884190142">
        <ele>102.4</ele>
        <time>2021-04-10T15:28:18.000Z</time>
      </trkpt>
      <trkpt lat="37.95467410236597" lon="23.73887269757688">
        <ele>102.2</ele>
        <time>2021-04-10T15:28:20.000Z</time>
      </trkpt>
      <trkpt lat="37.954689525067806" lon="23.738869847729802">
        <ele>102.4</ele>
        <time>2021-04-10T15:28:21.000Z</time>
      </trkpt>
      <trkpt lat="37.95474635437131" lon="23.738872446119785">
        <ele>102.8</ele>
        <time>2021-04-10T15:28:24.000Z</time>
      </trkpt>
      <trkpt lat="37.95481340959668" lon="23.7388716917485">
        <ele>102.6</ele>
        <time>2021-04-10T15:28:28.000Z</time>
      </trkpt>
      <trkpt lat="37.95485934242606" lon="23.738864650949836">
        <ele>102.8</ele>
        <time>2021-04-10T15:28:31.000Z</time>
      </trkpt>
      <trkpt lat="37.95488281175494" lon="23.73886096291244">
        <ele>102.6</ele>
        <time>2021-04-10T15:28:33.000Z</time>
      </trkpt>
      <trkpt lat="37.95492807403207" lon="23.738843025639653">
        <ele>102.6</ele>
        <time>2021-04-10T15:28:36.000Z</time>
      </trkpt>
      <trkpt lat="37.95498138293624" lon="23.73882324434817">
        <ele>102.4</ele>
        <time>2021-04-10T15:28:41.000Z</time>
      </trkpt>
      <trkpt lat="37.955006612464786" lon="23.738809414207935">
        <ele>102.2</ele>
        <time>2021-04-10T15:28:44.000Z</time>
      </trkpt>
      <trkpt lat="37.95510887168348" lon="23.738793237134814">
        <ele>102.6</ele>
        <time>2021-04-10T15:28:51.000Z</time>
      </trkpt>
      <trkpt lat="37.95515296049416" lon="23.738790219649673">
        <ele>102.4</ele>
        <time>2021-04-10T15:28:54.000Z</time>
      </trkpt>
      <trkpt lat="37.95517056249082" lon="23.738788459450006">
        <ele>102.2</ele>
        <time>2021-04-10T15:28:56.000Z</time>
      </trkpt>
      <trkpt lat="37.955178609117866" lon="23.738786028698087">
        <ele>102.2</ele>
        <time>2021-04-10T15:28:57.000Z</time>
      </trkpt>
      <trkpt lat="37.95518606901169" lon="23.738783346489072">
        <ele>102</ele>
        <time>2021-04-10T15:28:58.000Z</time>
      </trkpt>
      <trkpt lat="37.95520727522671" lon="23.738783346489072">
        <ele>102.2</ele>
        <time>2021-04-10T15:29:00.000Z</time>
      </trkpt>
      <trkpt lat="37.95531062409282" lon="23.738806480541825">
        <ele>102.2</ele>
        <time>2021-04-10T15:29:06.000Z</time>
      </trkpt>
      <trkpt lat="37.95533090829849" lon="23.738806061446667">
        <ele>102</ele>
        <time>2021-04-10T15:29:08.000Z</time>
      </trkpt>
      <trkpt lat="37.95534247532487" lon="23.738809833303094">
        <ele>102</ele>
        <time>2021-04-10T15:29:09.000Z</time>
      </trkpt>
      <trkpt lat="37.955369129776955" lon="23.73881947249174">
        <ele>102</ele>
        <time>2021-04-10T15:29:12.000Z</time>
      </trkpt>
      <trkpt lat="37.95537474565208" lon="23.738824501633644">
        <ele>102</ele>
        <time>2021-04-10T15:29:13.000Z</time>
      </trkpt>
      <trkpt lat="37.955388743430376" lon="23.73888636007905">
        <ele>102.6</ele>
        <time>2021-04-10T15:29:15.000Z</time>
      </trkpt>
      <trkpt lat="37.955399388447404" lon="23.738939836621284">
        <ele>103</ele>
        <time>2021-04-10T15:29:17.000Z</time>
      </trkpt>
      <trkpt lat="37.9554411303252" lon="23.739025751128793">
        <ele>103</ele>
        <time>2021-04-10T15:29:21.000Z</time>
      </trkpt>
      <trkpt lat="37.95545035041869" lon="23.73906573280692">
        <ele>102.8</ele>
        <time>2021-04-10T15:29:23.000Z</time>
      </trkpt>
      <trkpt lat="37.9554532840848" lon="23.73908174224198">
        <ele>102.8</ele>
        <time>2021-04-10T15:29:24.000Z</time>
      </trkpt>
      <trkpt lat="37.955467868596315" lon="23.7391877733171">
        <ele>103.2</ele>
        <time>2021-04-10T15:29:29.000Z</time>
      </trkpt>
      <trkpt lat="37.95548530295491" lon="23.739294055849314">
        <ele>103.6</ele>
        <time>2021-04-10T15:29:35.000Z</time>
      </trkpt>
      <trkpt lat="37.95548915863037" lon="23.739317692816257">
        <ele>103.6</ele>
        <time>2021-04-10T15:29:36.000Z</time>
      </trkpt>
      <trkpt lat="37.955488320440054" lon="23.739337557926774">
        <ele>103.8</ele>
        <time>2021-04-10T15:29:37.000Z</time>
      </trkpt>
      <trkpt lat="37.955502569675446" lon="23.739360105246305">
        <ele>103.8</ele>
        <time>2021-04-10T15:29:38.000Z</time>
      </trkpt>
      <trkpt lat="37.95552168041468" lon="23.739445684477687">
        <ele>103.8</ele>
        <time>2021-04-10T15:29:42.000Z</time>
      </trkpt>
      <trkpt lat="37.95552469789982" lon="23.73948206193745">
        <ele>104</ele>
        <time>2021-04-10T15:29:44.000Z</time>
      </trkpt>
      <trkpt lat="37.95553844422102" lon="23.739548614248633">
        <ele>104.2</ele>
        <time>2021-04-10T15:29:48.000Z</time>
      </trkpt>
      <trkpt lat="37.95553492382169" lon="23.739569149911404">
        <ele>104.2</ele>
        <time>2021-04-10T15:29:49.000Z</time>
      </trkpt>
      <trkpt lat="37.95550625771284" lon="23.73964374884963">
        <ele>104.2</ele>
        <time>2021-04-10T15:29:53.000Z</time>
      </trkpt>
      <trkpt lat="37.955505419522524" lon="23.739688340574503">
        <ele>104.6</ele>
        <time>2021-04-10T15:29:57.000Z</time>
      </trkpt>
      <trkpt lat="37.955520674586296" lon="23.739728154614568">
        <ele>104.8</ele>
        <time>2021-04-10T15:30:00.000Z</time>
      </trkpt>
      <trkpt lat="37.95552721247077" lon="23.7397507019341">
        <ele>104.8</ele>
        <time>2021-04-10T15:30:02.000Z</time>
      </trkpt>
      <trkpt lat="37.955513298511505" lon="23.7398439925164">
        <ele>104.6</ele>
        <time>2021-04-10T15:30:07.000Z</time>
      </trkpt>
      <trkpt lat="37.9555101133883" lon="23.73988665640354">
        <ele>104.6</ele>
        <time>2021-04-10T15:30:09.000Z</time>
      </trkpt>
      <trkpt lat="37.9555169865489" lon="23.739946419373155">
        <ele>105</ele>
        <time>2021-04-10T15:30:12.000Z</time>
      </trkpt>
      <trkpt lat="37.955534337088466" lon="23.739985479041934">
        <ele>105.2</ele>
        <time>2021-04-10T15:30:15.000Z</time>
      </trkpt>
      <trkpt lat="37.95554573647678" lon="23.740000650286674">
        <ele>105.2</ele>
        <time>2021-04-10T15:30:16.000Z</time>
      </trkpt>
      <trkpt lat="37.95560164377093" lon="23.740107687190175">
        <ele>105.2</ele>
        <time>2021-04-10T15:30:21.000Z</time>
      </trkpt>
      <trkpt lat="37.95563701540232" lon="23.740140292793512">
        <ele>105.2</ele>
        <time>2021-04-10T15:30:24.000Z</time>
      </trkpt>
      <trkpt lat="37.955651599913836" lon="23.740152530372143">
        <ele>105.2</ele>
        <time>2021-04-10T15:30:25.000Z</time>
      </trkpt>
      <trkpt lat="37.95567288994789" lon="23.74017641879618">
        <ele>105.2</ele>
        <time>2021-04-10T15:30:27.000Z</time>
      </trkpt>
      <trkpt lat="37.95565386302769" lon="23.740213215351105">
        <ele>105.2</ele>
        <time>2021-04-10T15:30:31.000Z</time>
      </trkpt>
      <trkpt lat="37.95564975589514" lon="23.740213802084327">
        <ele>105</ele>
        <time>2021-04-10T15:30:34.000Z</time>
      </trkpt>
      <trkpt lat="37.955668196082115" lon="23.740223860368133">
        <ele>105</ele>
        <time>2021-04-10T15:30:39.000Z</time>
      </trkpt>
      <trkpt lat="37.95569887384772" lon="23.74018027447164">
        <ele>105</ele>
        <time>2021-04-10T15:30:46.000Z</time>
      </trkpt>
      <trkpt lat="37.9556966945529" lon="23.740179603919387">
        <ele>105</ele>
        <time>2021-04-10T15:30:48.000Z</time>
      </trkpt>
      <trkpt lat="37.955695101991296" lon="23.74020709656179">
        <ele>105.2</ele>
        <time>2021-04-10T15:30:56.000Z</time>
      </trkpt>
      <trkpt lat="37.95566794462502" lon="23.74017491005361">
        <ele>105</ele>
        <time>2021-04-10T15:31:00.000Z</time>
      </trkpt>
      <trkpt lat="37.95563190244138" lon="23.740159571170807">
        <ele>104.8</ele>
        <time>2021-04-10T15:31:06.000Z</time>
      </trkpt>
      <trkpt lat="37.955619832500815" lon="23.740147333592176">
        <ele>105.4</ele>
        <time>2021-04-10T15:31:14.000Z</time>
      </trkpt>
      <trkpt lat="37.955620838329196" lon="23.740154625847936">
        <ele>105.4</ele>
        <time>2021-04-10T15:31:16.000Z</time>
      </trkpt>
      <trkpt lat="37.95562067069113" lon="23.74015915207565">
        <ele>105.2</ele>
        <time>2021-04-10T15:31:18.000Z</time>
      </trkpt>
      <trkpt lat="37.95562008395791" lon="23.740160325542092">
        <ele>105.2</ele>
        <time>2021-04-10T15:31:19.000Z</time>
      </trkpt>
      <trkpt lat="37.955627208575606" lon="23.740196116268635">
        <ele>104.8</ele>
        <time>2021-04-10T15:31:24.000Z</time>
      </trkpt>
      <trkpt lat="37.95566014945507" lon="23.740182537585497">
        <ele>104.6</ele>
        <time>2021-04-10T15:31:34.000Z</time>
      </trkpt>
      <trkpt lat="37.955683786422014" lon="23.74015730805695">
        <ele>105</ele>
        <time>2021-04-10T15:31:39.000Z</time>
      </trkpt>
      <trkpt lat="37.955693593248725" lon="23.740142975002527">
        <ele>105</ele>
        <time>2021-04-10T15:31:42.000Z</time>
      </trkpt>
      <trkpt lat="37.955705327913165" lon="23.740152698010206">
        <ele>105</ele>
        <time>2021-04-10T15:31:44.000Z</time>
      </trkpt>
      <trkpt lat="37.955746399238706" lon="23.740175748243928">
        <ele>105</ele>
        <time>2021-04-10T15:31:51.000Z</time>
      </trkpt>
      <trkpt lat="37.95579937286675" lon="23.74026769772172">
        <ele>105</ele>
        <time>2021-04-10T15:31:58.000Z</time>
      </trkpt>
      <trkpt lat="37.95590054243803" lon="23.74034875072539">
        <ele>105</ele>
        <time>2021-04-10T15:32:02.000Z</time>
      </trkpt>
      <trkpt lat="37.955912025645375" lon="23.74035084620118">
        <ele>105</ele>
        <time>2021-04-10T15:32:03.000Z</time>
      </trkpt>
      <trkpt lat="37.95594639144838" lon="23.740330645814538">
        <ele>105</ele>
        <time>2021-04-10T15:32:06.000Z</time>
      </trkpt>
      <trkpt lat="37.955994587391615" lon="23.740323940292">
        <ele>104.6</ele>
        <time>2021-04-10T15:32:10.000Z</time>
      </trkpt>
      <trkpt lat="37.955943290144205" lon="23.740270463749766">
        <ele>104.6</ele>
        <time>2021-04-10T15:32:13.000Z</time>
      </trkpt>
      <trkpt lat="37.955891992896795" lon="23.74021598137915">
        <ele>105</ele>
        <time>2021-04-10T15:32:17.000Z</time>
      </trkpt>
      <trkpt lat="37.95588453300297" lon="23.740212880074978">
        <ele>105</ele>
        <time>2021-04-10T15:32:19.000Z</time>
      </trkpt>
      <trkpt lat="37.955861231312156" lon="23.74020525254309">
        <ele>105</ele>
        <time>2021-04-10T15:32:22.000Z</time>
      </trkpt>
      <trkpt lat="37.9558261949569" lon="23.740211706608534">
        <ele>104.4</ele>
        <time>2021-04-10T15:32:27.000Z</time>
      </trkpt>
      <trkpt lat="37.955758133903146" lon="23.740310613065958">
        <ele>104.6</ele>
        <time>2021-04-10T15:32:34.000Z</time>
      </trkpt>
      <trkpt lat="37.95569879002869" lon="23.740259651094675">
        <ele>104.8</ele>
        <time>2021-04-10T15:32:40.000Z</time>
      </trkpt>
      <trkpt lat="37.95568495988846" lon="23.74018169939518">
        <ele>104.6</ele>
        <time>2021-04-10T15:32:43.000Z</time>
      </trkpt>
      <trkpt lat="37.9556570481509" lon="23.740110034123063">
        <ele>104.4</ele>
        <time>2021-04-10T15:32:46.000Z</time>
      </trkpt>
      <trkpt lat="37.9556084331125" lon="23.740046666935086">
        <ele>104</ele>
        <time>2021-04-10T15:32:49.000Z</time>
      </trkpt>
      <trkpt lat="37.95556618832052" lon="23.739966033026576">
        <ele>104</ele>
        <time>2021-04-10T15:32:52.000Z</time>
      </trkpt>
      <trkpt lat="37.95554271899164" lon="23.739914651960135">
        <ele>104</ele>
        <time>2021-04-10T15:32:54.000Z</time>
      </trkpt>
      <trkpt lat="37.95553207397461" lon="23.739847345277667">
        <ele>104.4</ele>
        <time>2021-04-10T15:32:58.000Z</time>
      </trkpt>
      <trkpt lat="37.95553450472653" lon="23.73980308882892">
        <ele>103.8</ele>
        <time>2021-04-10T15:33:01.000Z</time>
      </trkpt>
      <trkpt lat="37.95553517527878" lon="23.739777943119407">
        <ele>103.4</ele>
        <time>2021-04-10T15:33:03.000Z</time>
      </trkpt>
      <trkpt lat="37.95553266070783" lon="23.739771991968155">
        <ele>103.4</ele>
        <time>2021-04-10T15:33:04.000Z</time>
      </trkpt>
      <trkpt lat="37.95551992021501" lon="23.739758245646954">
        <ele>103.4</ele>
        <time>2021-04-10T15:33:06.000Z</time>
      </trkpt>
      <trkpt lat="37.95551103539765" lon="23.739728070795536">
        <ele>103.2</ele>
        <time>2021-04-10T15:33:08.000Z</time>
      </trkpt>
      <trkpt lat="37.95550231821835" lon="23.739711977541447">
        <ele>103.2</ele>
        <time>2021-04-10T15:33:09.000Z</time>
      </trkpt>
      <trkpt lat="37.955492343753576" lon="23.739674426615238">
        <ele>103.4</ele>
        <time>2021-04-10T15:33:12.000Z</time>
      </trkpt>
      <trkpt lat="37.955489829182625" lon="23.739663949236274">
        <ele>103.2</ele>
        <time>2021-04-10T15:33:13.000Z</time>
      </trkpt>
      <trkpt lat="37.9554910864681" lon="23.739636288955808">
        <ele>103.2</ele>
        <time>2021-04-10T15:33:15.000Z</time>
      </trkpt>
      <trkpt lat="37.955494774505496" lon="23.73960024677217">
        <ele>103</ele>
        <time>2021-04-10T15:33:17.000Z</time>
      </trkpt>
      <trkpt lat="37.95549645088613" lon="23.739557079970837">
        <ele>102.8</ele>
        <time>2021-04-10T15:33:20.000Z</time>
      </trkpt>
      <trkpt lat="37.95551053248346" lon="23.739527156576514">
        <ele>102.8</ele>
        <time>2021-04-10T15:33:22.000Z</time>
      </trkpt>
      <trkpt lat="37.955523105338216" lon="23.73943453654647">
        <ele>102.6</ele>
        <time>2021-04-10T15:33:28.000Z</time>
      </trkpt>
      <trkpt lat="37.955520087853074" lon="23.739423472434282">
        <ele>102.4</ele>
        <time>2021-04-10T15:33:29.000Z</time>
      </trkpt>
      <trkpt lat="37.95550701208413" lon="23.739345856010914">
        <ele>102.4</ele>
        <time>2021-04-10T15:33:35.000Z</time>
      </trkpt>
      <trkpt lat="37.955503491684794" lon="23.73932858929038">
        <ele>102.4</ele>
        <time>2021-04-10T15:33:36.000Z</time>
      </trkpt>
      <trkpt lat="37.955492343753576" lon="23.739281399175525">
        <ele>102.4</ele>
        <time>2021-04-10T15:33:39.000Z</time>
      </trkpt>
      <trkpt lat="37.95548169873655" lon="23.739250972867012">
        <ele>102</ele>
        <time>2021-04-10T15:33:41.000Z</time>
      </trkpt>
      <trkpt lat="37.95546376146376" lon="23.73920436948538">
        <ele>101.8</ele>
        <time>2021-04-10T15:33:44.000Z</time>
      </trkpt>
      <trkpt lat="37.95545722357929" lon="23.739186180755496">
        <ele>101.8</ele>
        <time>2021-04-10T15:33:45.000Z</time>
      </trkpt>
      <trkpt lat="37.95543107204139" lon="23.739100685343146">
        <ele>102</ele>
        <time>2021-04-10T15:33:51.000Z</time>
      </trkpt>
      <trkpt lat="37.95542981475592" lon="23.739040922373533">
        <ele>101.8</ele>
        <time>2021-04-10T15:33:54.000Z</time>
      </trkpt>
      <trkpt lat="37.955436604097486" lon="23.738973196595907">
        <ele>101.8</ele>
        <time>2021-04-10T15:33:57.000Z</time>
      </trkpt>
      <trkpt lat="37.955437107011676" lon="23.738946123048663">
        <ele>101.6</ele>
        <time>2021-04-10T15:33:58.000Z</time>
      </trkpt>
      <trkpt lat="37.95542704872787" lon="23.73886540532112">
        <ele>101.4</ele>
        <time>2021-04-10T15:34:02.000Z</time>
      </trkpt>
      <trkpt lat="37.95540944673121" lon="23.73877395875752">
        <ele>101.6</ele>
        <time>2021-04-10T15:34:10.000Z</time>
      </trkpt>
      <trkpt lat="37.95542151667178" lon="23.738845204934478">
        <ele>101</ele>
        <time>2021-04-10T15:34:22.000Z</time>
      </trkpt>
      <trkpt lat="37.95549536123872" lon="23.738761553540826">
        <ele>101.4</ele>
        <time>2021-04-10T15:34:30.000Z</time>
      </trkpt>
      <trkpt lat="37.95555009506643" lon="23.73872894793749">
        <ele>101.4</ele>
        <time>2021-04-10T15:34:34.000Z</time>
      </trkpt>
      <trkpt lat="37.955572893843055" lon="23.738719141110778">
        <ele>101.6</ele>
        <time>2021-04-10T15:34:37.000Z</time>
      </trkpt>
      <trkpt lat="37.955569457262754" lon="23.73869919218123">
        <ele>101.8</ele>
        <time>2021-04-10T15:34:38.000Z</time>
      </trkpt>
      <trkpt lat="37.95554682612419" lon="23.73867379501462">
        <ele>101.4</ele>
        <time>2021-04-10T15:34:41.000Z</time>
      </trkpt>
      <trkpt lat="37.95552561990917" lon="23.73869148083031">
        <ele>101.4</ele>
        <time>2021-04-10T15:34:43.000Z</time>
      </trkpt>
      <trkpt lat="37.95551405288279" lon="23.738679410889745">
        <ele>101.6</ele>
        <time>2021-04-10T15:34:46.000Z</time>
      </trkpt>
      <trkpt lat="37.955477591603994" lon="23.73869131319225">
        <ele>102</ele>
        <time>2021-04-10T15:34:51.000Z</time>
      </trkpt>
      <trkpt lat="37.9554757475853" lon="23.738679075613618">
        <ele>101.6</ele>
        <time>2021-04-10T15:34:56.000Z</time>
      </trkpt>
      <trkpt lat="37.955497708171606" lon="23.738649571314454">
        <ele>101.6</ele>
        <time>2021-04-10T15:35:00.000Z</time>
      </trkpt>
      <trkpt lat="37.95553048141301" lon="23.7387059815228">
        <ele>102</ele>
        <time>2021-04-10T15:35:04.000Z</time>
      </trkpt>
      <trkpt lat="37.95555738732219" lon="23.73874654993415">
        <ele>101.8</ele>
        <time>2021-04-10T15:35:06.000Z</time>
      </trkpt>
      <trkpt lat="37.95560348778963" lon="23.738778484985232">
        <ele>101.6</ele>
        <time>2021-04-10T15:35:09.000Z</time>
      </trkpt>
      <trkpt lat="37.95567674562335" lon="23.738842522725463">
        <ele>101.6</ele>
        <time>2021-04-10T15:35:14.000Z</time>
      </trkpt>
      <trkpt lat="37.95569350942969" lon="23.738849814981222">
        <ele>101.6</ele>
        <time>2021-04-10T15:35:15.000Z</time>
      </trkpt>
      <trkpt lat="37.9557397775352" lon="23.738841265439987">
        <ele>101.6</ele>
        <time>2021-04-10T15:35:18.000Z</time>
      </trkpt>
      <trkpt lat="37.955752266570926" lon="23.73883740976453">
        <ele>101.6</ele>
        <time>2021-04-10T15:35:19.000Z</time>
      </trkpt>
      <trkpt lat="37.95581605285406" lon="23.738802960142493">
        <ele>101.6</ele>
        <time>2021-04-10T15:35:22.000Z</time>
      </trkpt>
      <trkpt lat="37.95583792962134" lon="23.738784603774548">
        <ele>101.6</ele>
        <time>2021-04-10T15:35:23.000Z</time>
      </trkpt>
      <trkpt lat="37.95586106367409" lon="23.738789297640324">
        <ele>101.4</ele>
        <time>2021-04-10T15:35:25.000Z</time>
      </trkpt>
      <trkpt lat="37.955879252403975" lon="23.738793237134814">
        <ele>101.4</ele>
        <time>2021-04-10T15:35:27.000Z</time>
      </trkpt>
      <trkpt lat="37.955893501639366" lon="23.738799523562193">
        <ele>101.2</ele>
        <time>2021-04-10T15:35:29.000Z</time>
      </trkpt>
      <trkpt lat="37.95591143891215" lon="23.738798517733812">
        <ele>101</ele>
        <time>2021-04-10T15:35:31.000Z</time>
      </trkpt>
      <trkpt lat="37.95592392794788" lon="23.73879692517221">
        <ele>101</ele>
        <time>2021-04-10T15:35:32.000Z</time>
      </trkpt>
      <trkpt lat="37.95593390241265" lon="23.73879348859191">
        <ele>101</ele>
        <time>2021-04-10T15:35:33.000Z</time>
      </trkpt>
      <trkpt lat="37.955954018980265" lon="23.738781670108438">
        <ele>101.2</ele>
        <time>2021-04-10T15:35:35.000Z</time>
      </trkpt>
      <trkpt lat="37.95598025433719" lon="23.73876515775919">
        <ele>101.2</ele>
        <time>2021-04-10T15:35:37.000Z</time>
      </trkpt>
      <trkpt lat="37.95600808225572" lon="23.738753758370876">
        <ele>101.4</ele>
        <time>2021-04-10T15:35:39.000Z</time>
      </trkpt>
      <trkpt lat="37.95604948885739" lon="23.738743867725134">
        <ele>101.4</ele>
        <time>2021-04-10T15:35:42.000Z</time>
      </trkpt>
      <trkpt lat="37.956087375059724" lon="23.73873732984066">
        <ele>101.4</ele>
        <time>2021-04-10T15:35:44.000Z</time>
      </trkpt>
      <trkpt lat="37.9562250059098" lon="23.7387059815228">
        <ele>101.2</ele>
        <time>2021-04-10T15:35:52.000Z</time>
      </trkpt>
      <trkpt lat="37.95626012608409" lon="23.738672034814954">
        <ele>101</ele>
        <time>2021-04-10T15:35:56.000Z</time>
      </trkpt>
      <trkpt lat="37.956288708373904" lon="23.73865812085569">
        <ele>101</ele>
        <time>2021-04-10T15:35:59.000Z</time>
      </trkpt>
      <trkpt lat="37.95632123015821" lon="23.73864982277155">
        <ele>101</ele>
        <time>2021-04-10T15:36:04.000Z</time>
      </trkpt>
      <trkpt lat="37.95632567256689" lon="23.738650241866708">
        <ele>101</ele>
        <time>2021-04-10T15:36:05.000Z</time>
      </trkpt>
      <trkpt lat="37.956339502707124" lon="23.73865325935185">
        <ele>100.8</ele>
        <time>2021-04-10T15:36:06.000Z</time>
      </trkpt>
      <trkpt lat="37.956360122188926" lon="23.738666838034987">
        <ele>101</ele>
        <time>2021-04-10T15:36:07.000Z</time>
      </trkpt>
      <trkpt lat="37.95639616437256" lon="23.738701287657022">
        <ele>101</ele>
        <time>2021-04-10T15:36:09.000Z</time>
      </trkpt>
      <trkpt lat="37.95643706806004" lon="23.738706232979894">
        <ele>101</ele>
        <time>2021-04-10T15:36:11.000Z</time>
      </trkpt>
      <trkpt lat="37.95650454238057" lon="23.738740431144834">
        <ele>101.2</ele>
        <time>2021-04-10T15:36:14.000Z</time>
      </trkpt>
      <trkpt lat="37.956523820757866" lon="23.738750908523798">
        <ele>101.2</ele>
        <time>2021-04-10T15:36:15.000Z</time>
      </trkpt>
      <trkpt lat="37.956627840176225" lon="23.73870992101729">
        <ele>101</ele>
        <time>2021-04-10T15:36:21.000Z</time>
      </trkpt>
      <trkpt lat="37.95673990622163" lon="23.738674800843">
        <ele>101.4</ele>
        <time>2021-04-10T15:36:27.000Z</time>
      </trkpt>
      <trkpt lat="37.95678298920393" lon="23.738659881055355">
        <ele>101.4</ele>
        <time>2021-04-10T15:36:29.000Z</time>
      </trkpt>
      <trkpt lat="37.956803776323795" lon="23.738650996237993">
        <ele>101.4</ele>
        <time>2021-04-10T15:36:30.000Z</time>
      </trkpt>
      <trkpt lat="37.956844344735146" lon="23.738643284887075">
        <ele>101.4</ele>
        <time>2021-04-10T15:36:33.000Z</time>
      </trkpt>
      <trkpt lat="37.956887846812606" lon="23.73863272368908">
        <ele>101.4</ele>
        <time>2021-04-10T15:36:35.000Z</time>
      </trkpt>
      <trkpt lat="37.956918608397245" lon="23.73864697292447">
        <ele>101.4</ele>
        <time>2021-04-10T15:36:36.000Z</time>
      </trkpt>
      <trkpt lat="37.95695146545768" lon="23.73865376226604">
        <ele>101.2</ele>
        <time>2021-04-10T15:36:37.000Z</time>
      </trkpt>
      <trkpt lat="37.95699547044933" lon="23.73861512169242">
        <ele>101.2</ele>
        <time>2021-04-10T15:36:40.000Z</time>
      </trkpt>
      <trkpt lat="37.957007540389895" lon="23.73859961517155">
        <ele>101.2</ele>
        <time>2021-04-10T15:36:41.000Z</time>
      </trkpt>
      <trkpt lat="37.95705716125667" lon="23.73853364959359">
        <ele>101.2</ele>
        <time>2021-04-10T15:36:46.000Z</time>
      </trkpt>
      <trkpt lat="37.957062693312764" lon="23.738511437550187">
        <ele>101.2</ele>
        <time>2021-04-10T15:36:47.000Z</time>
      </trkpt>
      <trkpt lat="37.95706973411143" lon="23.738450249657035">
        <ele>101.2</ele>
        <time>2021-04-10T15:36:51.000Z</time>
      </trkpt>
      <trkpt lat="37.95707132667303" lon="23.73843591660261">
        <ele>101.4</ele>
        <time>2021-04-10T15:36:52.000Z</time>
      </trkpt>
      <trkpt lat="37.95705623924732" lon="23.738329969346523">
        <ele>101.2</ele>
        <time>2021-04-10T15:36:59.000Z</time>
      </trkpt>
      <trkpt lat="37.95705288648605" lon="23.738311361521482">
        <ele>101</ele>
        <time>2021-04-10T15:37:00.000Z</time>
      </trkpt>
      <trkpt lat="37.95703561976552" lon="23.738175071775913">
        <ele>100.8</ele>
        <time>2021-04-10T15:37:06.000Z</time>
      </trkpt>
      <trkpt lat="37.95703218318522" lon="23.73814615420997">
        <ele>100.8</ele>
        <time>2021-04-10T15:37:07.000Z</time>
      </trkpt>
      <trkpt lat="37.95701608993113" lon="23.738098461180925">
        <ele>101</ele>
        <time>2021-04-10T15:37:09.000Z</time>
      </trkpt>
      <trkpt lat="37.95700636692345" lon="23.738045236095786">
        <ele>101</ele>
        <time>2021-04-10T15:37:13.000Z</time>
      </trkpt>
      <trkpt lat="37.957009468227625" lon="23.738037943840027">
        <ele>101</ele>
        <time>2021-04-10T15:37:14.000Z</time>
      </trkpt>
      <trkpt lat="37.95701893977821" lon="23.737983712926507">
        <ele>100.8</ele>
        <time>2021-04-10T15:37:17.000Z</time>
      </trkpt>
      <trkpt lat="37.957023633643985" lon="23.73795554973185">
        <ele>100.6</ele>
        <time>2021-04-10T15:37:19.000Z</time>
      </trkpt>
      <trkpt lat="37.95702380128205" lon="23.73791246674955">
        <ele>100.6</ele>
        <time>2021-04-10T15:37:21.000Z</time>
      </trkpt>
      <trkpt lat="37.957021621987224" lon="23.73786360025406">
        <ele>100.6</ele>
        <time>2021-04-10T15:37:23.000Z</time>
      </trkpt>
      <trkpt lat="37.95700737275183" lon="23.737797467038035">
        <ele>100.2</ele>
        <time>2021-04-10T15:37:26.000Z</time>
      </trkpt>
      <trkpt lat="37.95698381960392" lon="23.737701745703816">
        <ele>100</ele>
        <time>2021-04-10T15:37:31.000Z</time>
      </trkpt>
      <trkpt lat="37.956979628652334" lon="23.737682718783617">
        <ele>100</ele>
        <time>2021-04-10T15:37:32.000Z</time>
      </trkpt>
      <trkpt lat="37.95698088593781" lon="23.737625386565924">
        <ele>99.8</ele>
        <time>2021-04-10T15:37:35.000Z</time>
      </trkpt>
      <trkpt lat="37.95698658563197" lon="23.737597977742553">
        <ele>99.6</ele>
        <time>2021-04-10T15:37:36.000Z</time>
      </trkpt>
      <trkpt lat="37.95700184069574" lon="23.737519355490804">
        <ele>99.6</ele>
        <time>2021-04-10T15:37:39.000Z</time>
      </trkpt>
      <trkpt lat="37.957008462399244" lon="23.737439308315516">
        <ele>99.8</ele>
        <time>2021-04-10T15:37:45.000Z</time>
      </trkpt>
      <trkpt lat="37.95695439912379" lon="23.737343922257423">
        <ele>99.4</ele>
        <time>2021-04-10T15:37:51.000Z</time>
      </trkpt>
      <trkpt lat="37.95694383792579" lon="23.737308382987976">
        <ele>99.4</ele>
        <time>2021-04-10T15:37:53.000Z</time>
      </trkpt>
      <trkpt lat="37.95695289038122" lon="23.737209057435393">
        <ele>99</ele>
        <time>2021-04-10T15:37:57.000Z</time>
      </trkpt>
      <trkpt lat="37.95695942826569" lon="23.737183827906847">
        <ele>98.8</ele>
        <time>2021-04-10T15:37:59.000Z</time>
      </trkpt>
      <trkpt lat="37.95695842243731" lon="23.73716882430017">
        <ele>98.6</ele>
        <time>2021-04-10T15:38:00.000Z</time>
      </trkpt>
      <trkpt lat="37.95690402388573" lon="23.737017028033733">
        <ele>98.2</ele>
        <time>2021-04-10T15:38:07.000Z</time>
      </trkpt>
      <trkpt lat="37.95690704137087" lon="23.736920803785324">
        <ele>97.6</ele>
        <time>2021-04-10T15:38:12.000Z</time>
      </trkpt>
      <trkpt lat="37.95690989121795" lon="23.73687562532723">
        <ele>97.4</ele>
        <time>2021-04-10T15:38:15.000Z</time>
      </trkpt>
      <trkpt lat="37.95689396560192" lon="23.73681217432022">
        <ele>97.4</ele>
        <time>2021-04-10T15:38:18.000Z</time>
      </trkpt>
      <trkpt lat="37.95687636360526" lon="23.73677110299468">
        <ele>97.2</ele>
        <time>2021-04-10T15:38:21.000Z</time>
      </trkpt>
      <trkpt lat="37.95684861950576" lon="23.736698599532247">
        <ele>97</ele>
        <time>2021-04-10T15:38:26.000Z</time>
      </trkpt>
      <trkpt lat="37.956845853477716" lon="23.736661719158292">
        <ele>97</ele>
        <time>2021-04-10T15:38:28.000Z</time>
      </trkpt>
      <trkpt lat="37.956875609233975" lon="23.736603381112218">
        <ele>96.6</ele>
        <time>2021-04-10T15:38:31.000Z</time>
      </trkpt>
      <trkpt lat="37.95687787234783" lon="23.736585276201367">
        <ele>96.6</ele>
        <time>2021-04-10T15:38:32.000Z</time>
      </trkpt>
      <trkpt lat="37.95687401667237" lon="23.736565243452787">
        <ele>96.4</ele>
        <time>2021-04-10T15:38:33.000Z</time>
      </trkpt>
      <trkpt lat="37.956859013065696" lon="23.736547473818064">
        <ele>96.4</ele>
        <time>2021-04-10T15:38:34.000Z</time>
      </trkpt>
      <trkpt lat="37.95683571137488" lon="23.736494164913893">
        <ele>96.2</ele>
        <time>2021-04-10T15:38:37.000Z</time>
      </trkpt>
      <trkpt lat="37.9568378906697" lon="23.736453847959638">
        <ele>96.2</ele>
        <time>2021-04-10T15:38:39.000Z</time>
      </trkpt>
      <trkpt lat="37.95683755539358" lon="23.736434737220407">
        <ele>96</ele>
        <time>2021-04-10T15:38:40.000Z</time>
      </trkpt>
      <trkpt lat="37.95683529227972" lon="23.736382517963648">
        <ele>95.8</ele>
        <time>2021-04-10T15:38:43.000Z</time>
      </trkpt>
      <trkpt lat="37.95683294534683" lon="23.736346727237105">
        <ele>95.8</ele>
        <time>2021-04-10T15:38:45.000Z</time>
      </trkpt>
      <trkpt lat="37.956828167662024" lon="23.7363297957927">
        <ele>95.6</ele>
        <time>2021-04-10T15:38:46.000Z</time>
      </trkpt>
      <trkpt lat="37.95681970193982" lon="23.736308086663485">
        <ele>95.8</ele>
        <time>2021-04-10T15:38:48.000Z</time>
      </trkpt>
      <trkpt lat="37.95680704526603" lon="23.73625745996833">
        <ele>96.2</ele>
        <time>2021-04-10T15:38:52.000Z</time>
      </trkpt>
      <trkpt lat="37.95679430477321" lon="23.736122762784362">
        <ele>95.2</ele>
        <time>2021-04-10T15:39:00.000Z</time>
      </trkpt>
      <trkpt lat="37.956787180155516" lon="23.736043889075518">
        <ele>94.6</ele>
        <time>2021-04-10T15:39:03.000Z</time>
      </trkpt>
      <trkpt lat="37.95678039081395" lon="23.735992088913918">
        <ele>94.2</ele>
        <time>2021-04-10T15:39:06.000Z</time>
      </trkpt>
      <trkpt lat="37.95678257010877" lon="23.735978342592716">
        <ele>94.2</ele>
        <time>2021-04-10T15:39:07.000Z</time>
      </trkpt>
      <trkpt lat="37.95679028145969" lon="23.735926374793053">
        <ele>94.6</ele>
        <time>2021-04-10T15:39:12.000Z</time>
      </trkpt>
      <trkpt lat="37.956795897334814" lon="23.7359066773206">
        <ele>94.4</ele>
        <time>2021-04-10T15:39:14.000Z</time>
      </trkpt>
      <trkpt lat="37.95680209994316" lon="23.73588128015399">
        <ele>94</ele>
        <time>2021-04-10T15:39:16.000Z</time>
      </trkpt>
      <trkpt lat="37.956806961447" lon="23.735849848017097">
        <ele>93.6</ele>
        <time>2021-04-10T15:39:18.000Z</time>
      </trkpt>
      <trkpt lat="37.95680587179959" lon="23.735783966258168">
        <ele>93.4</ele>
        <time>2021-04-10T15:39:21.000Z</time>
      </trkpt>
      <trkpt lat="37.95679606497288" lon="23.735719425603747">
        <ele>93.6</ele>
        <time>2021-04-10T15:39:24.000Z</time>
      </trkpt>
      <trkpt lat="37.95676899142563" lon="23.735672067850828">
        <ele>93.8</ele>
        <time>2021-04-10T15:39:26.000Z</time>
      </trkpt>
      <trkpt lat="37.95677133835852" lon="23.735594619065523">
        <ele>93.8</ele>
        <time>2021-04-10T15:39:29.000Z</time>
      </trkpt>
      <trkpt lat="37.95678433030844" lon="23.73555874451995">
        <ele>93.6</ele>
        <time>2021-04-10T15:39:30.000Z</time>
      </trkpt>
      <trkpt lat="37.95685398392379" lon="23.735457910224795">
        <ele>93.4</ele>
        <time>2021-04-10T15:39:34.000Z</time>
      </trkpt>
      <trkpt lat="37.9568846616894" lon="23.735427064821124">
        <ele>93.2</ele>
        <time>2021-04-10T15:39:36.000Z</time>
      </trkpt>
      <trkpt lat="37.956914165988564" lon="23.735406612977386">
        <ele>92.8</ele>
        <time>2021-04-10T15:39:38.000Z</time>
      </trkpt>
      <trkpt lat="37.956947358325124" lon="23.735363697633147">
        <ele>92.6</ele>
        <time>2021-04-10T15:39:41.000Z</time>
      </trkpt>
      <trkpt lat="37.956974850967526" lon="23.735336875543">
        <ele>92.6</ele>
        <time>2021-04-10T15:39:43.000Z</time>
      </trkpt>
      <trkpt lat="37.95698884874582" lon="23.735311897471547">
        <ele>92.4</ele>
        <time>2021-04-10T15:39:45.000Z</time>
      </trkpt>
      <trkpt lat="37.95699303969741" lon="23.73528616502881">
        <ele>92.6</ele>
        <time>2021-04-10T15:39:46.000Z</time>
      </trkpt>
      <trkpt lat="37.95700720511377" lon="23.735241573303938">
        <ele>92.6</ele>
        <time>2021-04-10T15:39:48.000Z</time>
      </trkpt>
      <trkpt lat="37.95701592229307" lon="23.735227156430483">
        <ele>92.6</ele>
        <time>2021-04-10T15:39:49.000Z</time>
      </trkpt>
      <trkpt lat="37.95708901248872" lon="23.735178876668215">
        <ele>92.4</ele>
        <time>2021-04-10T15:39:54.000Z</time>
      </trkpt>
      <trkpt lat="37.957148188725114" lon="23.73510972596705">
        <ele>92.4</ele>
        <time>2021-04-10T15:39:59.000Z</time>
      </trkpt>
      <trkpt lat="37.95716252177954" lon="23.735089106485248">
        <ele>92.2</ele>
        <time>2021-04-10T15:40:00.000Z</time>
      </trkpt>
      <trkpt lat="37.957217171788216" lon="23.735006041824818">
        <ele>92.4</ele>
        <time>2021-04-10T15:40:05.000Z</time>
      </trkpt>
      <trkpt lat="37.95722144655883" lon="23.73499439097941">
        <ele>92.4</ele>
        <time>2021-04-10T15:40:06.000Z</time>
      </trkpt>
      <trkpt lat="37.957259165123105" lon="23.73494602739811">
        <ele>91.8</ele>
        <time>2021-04-10T15:40:10.000Z</time>
      </trkpt>
      <trkpt lat="37.95727852731943" lon="23.734916606917977">
        <ele>91.6</ele>
        <time>2021-04-10T15:40:12.000Z</time>
      </trkpt>
      <trkpt lat="37.95729009434581" lon="23.734887521713972">
        <ele>91.6</ele>
        <time>2021-04-10T15:40:13.000Z</time>
      </trkpt>
      <trkpt lat="37.95730342157185" lon="23.734874529764056">
        <ele>91.6</ele>
        <time>2021-04-10T15:40:14.000Z</time>
      </trkpt>
      <trkpt lat="37.95737952925265" lon="23.734848126769066">
        <ele>91.6</ele>
        <time>2021-04-10T15:40:20.000Z</time>
      </trkpt>
      <trkpt lat="37.95747986063361" lon="23.73484251089394">
        <ele>91.2</ele>
        <time>2021-04-10T15:40:27.000Z</time>
      </trkpt>
      <trkpt lat="37.95753308571875" lon="23.734802277758718">
        <ele>91</ele>
        <time>2021-04-10T15:40:32.000Z</time>
      </trkpt>
      <trkpt lat="37.95757424086332" lon="23.734790291637182">
        <ele>91.2</ele>
        <time>2021-04-10T15:40:35.000Z</time>
      </trkpt>
      <trkpt lat="37.957632914185524" lon="23.73473446816206">
        <ele>90.8</ele>
        <time>2021-04-10T15:40:41.000Z</time>
      </trkpt>
      <trkpt lat="37.95771857723594" lon="23.734677471220493">
        <ele>90.4</ele>
        <time>2021-04-10T15:40:47.000Z</time>
      </trkpt>
      <trkpt lat="37.95776308514178" lon="23.734676633030176">
        <ele>90.2</ele>
        <time>2021-04-10T15:40:50.000Z</time>
      </trkpt>
      <trkpt lat="37.95779007486999" lon="23.73469339683652">
        <ele>90</ele>
        <time>2021-04-10T15:40:52.000Z</time>
      </trkpt>
      <trkpt lat="37.95786517672241" lon="23.73471242375672">
        <ele>90</ele>
        <time>2021-04-10T15:40:58.000Z</time>
      </trkpt>
      <trkpt lat="37.95785654336214" lon="23.734723990783095">
        <ele>90</ele>
        <time>2021-04-10T15:41:02.000Z</time>
      </trkpt>
      <trkpt lat="37.9578638356179" lon="23.734735725447536">
        <ele>89.8</ele>
        <time>2021-04-10T15:41:05.000Z</time>
      </trkpt>
      <trkpt lat="37.957869032397866" lon="23.73473497107625">
        <ele>89.6</ele>
        <time>2021-04-10T15:41:06.000Z</time>
      </trkpt>
      <trkpt lat="37.95789719559252" lon="23.734730444848537">
        <ele>89.6</ele>
        <time>2021-04-10T15:41:14.000Z</time>
      </trkpt>
      <trkpt lat="37.95792351476848" lon="23.73474528081715">
        <ele>89.6</ele>
        <time>2021-04-10T15:41:21.000Z</time>
      </trkpt>
      <trkpt lat="37.95792829245329" lon="23.734748046845198">
        <ele>89.8</ele>
        <time>2021-04-10T15:41:25.000Z</time>
      </trkpt>
      <trkpt lat="37.957913456484675" lon="23.734722398221493">
        <ele>89.2</ele>
        <time>2021-04-10T15:41:34.000Z</time>
      </trkpt>
      <trkpt lat="37.95790775679052" lon="23.734721140936017">
        <ele>89.4</ele>
        <time>2021-04-10T15:41:35.000Z</time>
      </trkpt>
      <trkpt lat="37.957891495898366" lon="23.73471586033702">
        <ele>89.8</ele>
        <time>2021-04-10T15:41:38.000Z</time>
      </trkpt>
      <trkpt lat="37.95788688585162" lon="23.734687278047204">
        <ele>89.6</ele>
        <time>2021-04-10T15:41:44.000Z</time>
      </trkpt>
      <trkpt lat="37.95786350034177" lon="23.734704880043864">
        <ele>89.8</ele>
        <time>2021-04-10T15:41:48.000Z</time>
      </trkpt>
      <trkpt lat="37.95781413093209" lon="23.734714686870575">
        <ele>89.8</ele>
        <time>2021-04-10T15:41:53.000Z</time>
      </trkpt>
      <trkpt lat="37.957800552248955" lon="23.734722062945366">
        <ele>89.8</ele>
        <time>2021-04-10T15:41:54.000Z</time>
      </trkpt>
      <trkpt lat="37.95776115730405" lon="23.7346650660038">
        <ele>90</ele>
        <time>2021-04-10T15:41:59.000Z</time>
      </trkpt>
      <trkpt lat="37.95775453560054" lon="23.73463279567659">
        <ele>90</ele>
        <time>2021-04-10T15:42:02.000Z</time>
      </trkpt>
      <trkpt lat="37.9577462375164" lon="23.73460991308093">
        <ele>89.8</ele>
        <time>2021-04-10T15:42:05.000Z</time>
      </trkpt>
      <trkpt lat="37.95773668214679" lon="23.73459373600781">
        <ele>89.8</ele>
        <time>2021-04-10T15:42:07.000Z</time>
      </trkpt>
      <trkpt lat="37.957734167575836" lon="23.734584851190448">
        <ele>89.8</ele>
        <time>2021-04-10T15:42:08.000Z</time>
      </trkpt>
      <trkpt lat="37.957713128998876" lon="23.734519807621837">
        <ele>89.8</ele>
        <time>2021-04-10T15:42:14.000Z</time>
      </trkpt>
      <trkpt lat="37.95771103352308" lon="23.734470354393125">
        <ele>89.8</ele>
        <time>2021-04-10T15:42:17.000Z</time>
      </trkpt>
      <trkpt lat="37.95770348981023" lon="23.734436072409153">
        <ele>89.6</ele>
        <time>2021-04-10T15:42:20.000Z</time>
      </trkpt>
      <trkpt lat="37.95769334770739" lon="23.734399862587452">
        <ele>89.4</ele>
        <time>2021-04-10T15:42:22.000Z</time>
      </trkpt>
      <trkpt lat="37.95767901465297" lon="23.734326269477606">
        <ele>89.6</ele>
        <time>2021-04-10T15:42:26.000Z</time>
      </trkpt>
      <trkpt lat="37.95767524279654" lon="23.734309673309326">
        <ele>89.6</ele>
        <time>2021-04-10T15:42:27.000Z</time>
      </trkpt>
      <trkpt lat="37.95766828581691" lon="23.734277738258243">
        <ele>89.4</ele>
        <time>2021-04-10T15:42:29.000Z</time>
      </trkpt>
      <trkpt lat="37.95768848620355" lon="23.734181094914675">
        <ele>89.4</ele>
        <time>2021-04-10T15:42:35.000Z</time>
      </trkpt>
      <trkpt lat="37.95769569464028" lon="23.73416868969798">
        <ele>89.4</ele>
        <time>2021-04-10T15:42:36.000Z</time>
      </trkpt>
      <trkpt lat="37.957726791501045" lon="23.734148321673274">
        <ele>89.4</ele>
        <time>2021-04-10T15:42:39.000Z</time>
      </trkpt>
      <trkpt lat="37.957763001322746" lon="23.734137760475278">
        <ele>89.4</ele>
        <time>2021-04-10T15:42:41.000Z</time>
      </trkpt>
      <trkpt lat="37.95778336934745" lon="23.734131893143058">
        <ele>89.4</ele>
        <time>2021-04-10T15:42:42.000Z</time>
      </trkpt>
      <trkpt lat="37.95782997272909" lon="23.734106328338385">
        <ele>89.4</ele>
        <time>2021-04-10T15:42:45.000Z</time>
      </trkpt>
      <trkpt lat="37.957874899730086" lon="23.734088810160756">
        <ele>89.8</ele>
        <time>2021-04-10T15:42:48.000Z</time>
      </trkpt>
      <trkpt lat="37.95788546092808" lon="23.734083948656917">
        <ele>89.8</ele>
        <time>2021-04-10T15:42:49.000Z</time>
      </trkpt>
      <trkpt lat="37.957923179492354" lon="23.734075063839555">
        <ele>90</ele>
        <time>2021-04-10T15:42:51.000Z</time>
      </trkpt>
      <trkpt lat="37.95795142650604" lon="23.734044888988137">
        <ele>90</ele>
        <time>2021-04-10T15:42:54.000Z</time>
      </trkpt>
      <trkpt lat="37.958029294386506" lon="23.73403432779014">
        <ele>89.8</ele>
        <time>2021-04-10T15:42:57.000Z</time>
      </trkpt>
      <trkpt lat="37.95804756693542" lon="23.73403533361852">
        <ele>89.8</ele>
        <time>2021-04-10T15:42:59.000Z</time>
      </trkpt>
      <trkpt lat="37.95805033296347" lon="23.73403918929398">
        <ele>90</ele>
        <time>2021-04-10T15:43:00.000Z</time>
      </trkpt>
      <trkpt lat="37.95807070098817" lon="23.73403273522854">
        <ele>90</ele>
        <time>2021-04-10T15:43:01.000Z</time>
      </trkpt>
      <trkpt lat="37.95810850337148" lon="23.733944725245237">
        <ele>89.6</ele>
        <time>2021-04-10T15:43:05.000Z</time>
      </trkpt>
      <trkpt lat="37.958115711808205" lon="23.73388613574207">
        <ele>89.2</ele>
        <time>2021-04-10T15:43:07.000Z</time>
      </trkpt>
      <trkpt lat="37.958118645474315" lon="23.73385981656611">
        <ele>89.2</ele>
        <time>2021-04-10T15:43:08.000Z</time>
      </trkpt>
      <trkpt lat="37.95812677592039" lon="23.73386610299349">
        <ele>89.2</ele>
        <time>2021-04-10T15:43:09.000Z</time>
      </trkpt>
      <trkpt lat="37.95812719501555" lon="23.733881525695324">
        <ele>89</ele>
        <time>2021-04-10T15:43:10.000Z</time>
      </trkpt>
      <trkpt lat="37.9581434559077" lon="23.733886973932385">
        <ele>88.8</ele>
        <time>2021-04-10T15:43:12.000Z</time>
      </trkpt>
      <trkpt lat="37.95815116725862" lon="23.73388286679983">
        <ele>88.6</ele>
        <time>2021-04-10T15:43:13.000Z</time>
      </trkpt>
      <trkpt lat="37.95816910453141" lon="23.73387255705893">
        <ele>88.4</ele>
        <time>2021-04-10T15:43:15.000Z</time>
      </trkpt>
      <trkpt lat="37.958183605223894" lon="23.73387104831636">
        <ele>88</ele>
        <time>2021-04-10T15:43:17.000Z</time>
      </trkpt>
      <trkpt lat="37.958196848630905" lon="23.7338724732399">
        <ele>88</ele>
        <time>2021-04-10T15:43:19.000Z</time>
      </trkpt>
      <trkpt lat="37.95822626911104" lon="23.73386124148965">
        <ele>88</ele>
        <time>2021-04-10T15:43:21.000Z</time>
      </trkpt>
      <trkpt lat="37.95823951251805" lon="23.7338534463197">
        <ele>88</ele>
        <time>2021-04-10T15:43:22.000Z</time>
      </trkpt>
      <trkpt lat="37.958261808380485" lon="23.733840873464942">
        <ele>88.2</ele>
        <time>2021-04-10T15:43:24.000Z</time>
      </trkpt>
      <trkpt lat="37.95829005539417" lon="23.73382167890668">
        <ele>88.2</ele>
        <time>2021-04-10T15:43:26.000Z</time>
      </trkpt>
      <trkpt lat="37.958330288529396" lon="23.733807848766446">
        <ele>88</ele>
        <time>2021-04-10T15:43:29.000Z</time>
      </trkpt>
      <trkpt lat="37.958380579948425" lon="23.73375093564391">
        <ele>88</ele>
        <time>2021-04-10T15:43:31.000Z</time>
      </trkpt>
      <trkpt lat="37.95843590050936" lon="23.733715983107686">
        <ele>88</ele>
        <time>2021-04-10T15:43:33.000Z</time>
      </trkpt>
      <trkpt lat="37.95846004039049" lon="23.73365806415677">
        <ele>88.2</ele>
        <time>2021-04-10T15:43:35.000Z</time>
      </trkpt>
      <trkpt lat="37.958465069532394" lon="23.73361799865961">
        <ele>88.2</ele>
        <time>2021-04-10T15:43:36.000Z</time>
      </trkpt>
      <trkpt lat="37.958487113937736" lon="23.733574664220214">
        <ele>88.2</ele>
        <time>2021-04-10T15:43:38.000Z</time>
      </trkpt>
      <trkpt lat="37.95852600596845" lon="23.73362185433507">
        <ele>88</ele>
        <time>2021-04-10T15:43:41.000Z</time>
      </trkpt>
      <trkpt lat="37.95854050666094" lon="23.733632750809193">
        <ele>87.8</ele>
        <time>2021-04-10T15:43:42.000Z</time>
      </trkpt>
      <trkpt lat="37.95854947529733" lon="23.733636438846588">
        <ele>87.6</ele>
        <time>2021-04-10T15:43:43.000Z</time>
      </trkpt>
      <trkpt lat="37.958573028445244" lon="23.733631493523717">
        <ele>87.4</ele>
        <time>2021-04-10T15:43:45.000Z</time>
      </trkpt>
      <trkpt lat="37.95860655605793" lon="23.733626967296004">
        <ele>87.6</ele>
        <time>2021-04-10T15:43:47.000Z</time>
      </trkpt>
      <trkpt lat="37.95861686579883" lon="23.733626883476973">
        <ele>87.6</ele>
        <time>2021-04-10T15:43:48.000Z</time>
      </trkpt>
      <trkpt lat="37.958631282672286" lon="23.73363073915243">
        <ele>87.6</ele>
        <time>2021-04-10T15:43:49.000Z</time>
      </trkpt>
      <trkpt lat="37.95866724103689" lon="23.73363266699016">
        <ele>87.8</ele>
        <time>2021-04-10T15:43:51.000Z</time>
      </trkpt>
      <trkpt lat="37.958776289597154" lon="23.733609281480312">
        <ele>88</ele>
        <time>2021-04-10T15:43:55.000Z</time>
      </trkpt>
      <trkpt lat="37.95879942364991" lon="23.73359838500619">
        <ele>88</ele>
        <time>2021-04-10T15:43:56.000Z</time>
      </trkpt>
      <trkpt lat="37.95885591767728" lon="23.733580196276307">
        <ele>88</ele>
        <time>2021-04-10T15:44:00.000Z</time>
      </trkpt>
      <trkpt lat="37.95887486077845" lon="23.73356611467898">
        <ele>88</ele>
        <time>2021-04-10T15:44:02.000Z</time>
      </trkpt>
      <trkpt lat="37.9588860925287" lon="23.733548345044255">
        <ele>87.8</ele>
        <time>2021-04-10T15:44:03.000Z</time>
      </trkpt>
      <trkpt lat="37.95889975503087" lon="23.733530240133405">
        <ele>88</ele>
        <time>2021-04-10T15:44:04.000Z</time>
      </trkpt>
      <trkpt lat="37.95896186493337" lon="23.733482882380486">
        <ele>88.6</ele>
        <time>2021-04-10T15:44:09.000Z</time>
      </trkpt>
      <trkpt lat="37.95897737145424" lon="23.733490174636245">
        <ele>88.6</ele>
        <time>2021-04-10T15:44:10.000Z</time>
      </trkpt>
      <trkpt lat="37.959008384495974" lon="23.733540130779147">
        <ele>87.8</ele>
        <time>2021-04-10T15:44:15.000Z</time>
      </trkpt>
      <trkpt lat="37.959004612639546" lon="23.733554799109697">
        <ele>87.6</ele>
        <time>2021-04-10T15:44:16.000Z</time>
      </trkpt>
      <trkpt lat="37.95900570228696" lon="23.73356427066028">
        <ele>87.6</ele>
        <time>2021-04-10T15:44:17.000Z</time>
      </trkpt>
      <trkpt lat="37.95900318771601" lon="23.733574245125055">
        <ele>87.6</ele>
        <time>2021-04-10T15:44:18.000Z</time>
      </trkpt>
      <trkpt lat="37.959020119160414" lon="23.73359838500619">
        <ele>88</ele>
        <time>2021-04-10T15:44:22.000Z</time>
      </trkpt>
      <trkpt lat="37.959041744470596" lon="23.73360861092806">
        <ele>88.2</ele>
        <time>2021-04-10T15:44:24.000Z</time>
      </trkpt>
      <trkpt lat="37.95906982384622" lon="23.733597295358777">
        <ele>88.2</ele>
        <time>2021-04-10T15:44:26.000Z</time>
      </trkpt>
      <trkpt lat="37.959094466641545" lon="23.733568713068962">
        <ele>88.6</ele>
        <time>2021-04-10T15:44:28.000Z</time>
      </trkpt>
      <trkpt lat="37.95910410583019" lon="23.733553625643253">
        <ele>88.8</ele>
        <time>2021-04-10T15:44:29.000Z</time>
      </trkpt>
      <trkpt lat="37.95911324210465" lon="23.733537700027227">
        <ele>88.8</ele>
        <time>2021-04-10T15:44:30.000Z</time>
      </trkpt>
      <trkpt lat="37.95912841334939" lon="23.733522361144423">
        <ele>88.8</ele>
        <time>2021-04-10T15:44:32.000Z</time>
      </trkpt>
      <trkpt lat="37.959146769717336" lon="23.733501490205526">
        <ele>88.8</ele>
        <time>2021-04-10T15:44:34.000Z</time>
      </trkpt>
      <trkpt lat="37.959202006459236" lon="23.733485899865627">
        <ele>89</ele>
        <time>2021-04-10T15:44:38.000Z</time>
      </trkpt>
      <trkpt lat="37.95924039557576" lon="23.733455557376146">
        <ele>89</ele>
        <time>2021-04-10T15:44:43.000Z</time>
      </trkpt>
      <trkpt lat="37.95925120823085" lon="23.733451534062624">
        <ele>89.2</ele>
        <time>2021-04-10T15:44:44.000Z</time>
      </trkpt>
      <trkpt lat="37.9592677205801" lon="23.73344742693007">
        <ele>89.4</ele>
        <time>2021-04-10T15:44:45.000Z</time>
      </trkpt>
      <trkpt lat="37.95932387933135" lon="23.73343477025628">
        <ele>89.2</ele>
        <time>2021-04-10T15:44:49.000Z</time>
      </trkpt>
      <trkpt lat="37.95934483408928" lon="23.733432423323393">
        <ele>89.2</ele>
        <time>2021-04-10T15:44:53.000Z</time>
      </trkpt>
      <trkpt lat="37.95934969559312" lon="23.73343083076179">
        <ele>89.2</ele>
        <time>2021-04-10T15:44:55.000Z</time>
      </trkpt>
      <trkpt lat="37.95934919267893" lon="23.733433932065964">
        <ele>89.4</ele>
        <time>2021-04-10T15:44:57.000Z</time>
      </trkpt>
      <trkpt lat="37.95935648493469" lon="23.733444157987833">
        <ele>89.4</ele>
        <time>2021-04-10T15:44:59.000Z</time>
      </trkpt>
      <trkpt lat="37.959360256791115" lon="23.733454886823893">
        <ele>89.2</ele>
        <time>2021-04-10T15:45:02.000Z</time>
      </trkpt>
      <trkpt lat="37.95936134643853" lon="23.733458407223225">
        <ele>89.2</ele>
        <time>2021-04-10T15:45:03.000Z</time>
      </trkpt>
      <trkpt lat="37.95938204973936" lon="23.733464777469635">
        <ele>89</ele>
        <time>2021-04-10T15:45:07.000Z</time>
      </trkpt>
      <trkpt lat="37.959435945376754" lon="23.733445331454277">
        <ele>89.8</ele>
        <time>2021-04-10T15:45:12.000Z</time>
      </trkpt>
      <trkpt lat="37.95944977551699" lon="23.733436781913042">
        <ele>89.8</ele>
        <time>2021-04-10T15:45:13.000Z</time>
      </trkpt>
      <trkpt lat="37.95949721708894" lon="23.73341172002256">
        <ele>89.8</ele>
        <time>2021-04-10T15:45:18.000Z</time>
      </trkpt>
      <trkpt lat="37.95951599255204" lon="23.73340778052807">
        <ele>89.6</ele>
        <time>2021-04-10T15:45:20.000Z</time>
      </trkpt>
      <trkpt lat="37.95953803695738" lon="23.73341230675578">
        <ele>89.6</ele>
        <time>2021-04-10T15:45:22.000Z</time>
      </trkpt>
      <trkpt lat="37.95959369279444" lon="23.733401661738753">
        <ele>90</ele>
        <time>2021-04-10T15:45:26.000Z</time>
      </trkpt>
      <trkpt lat="37.95963794924319" lon="23.733385736122727">
        <ele>90.6</ele>
        <time>2021-04-10T15:45:30.000Z</time>
      </trkpt>
      <trkpt lat="37.959656305611134" lon="23.73338347300887">
        <ele>90.8</ele>
        <time>2021-04-10T15:45:32.000Z</time>
      </trkpt>
      <trkpt lat="37.959729647263885" lon="23.733357740566134">
        <ele>91.2</ele>
        <time>2021-04-10T15:45:37.000Z</time>
      </trkpt>
      <trkpt lat="37.9597460757941" lon="23.73334818519652">
        <ele>91.2</ele>
        <time>2021-04-10T15:45:38.000Z</time>
      </trkpt>
      <trkpt lat="37.959766862913966" lon="23.73334290459752">
        <ele>91.6</ele>
        <time>2021-04-10T15:45:41.000Z</time>
      </trkpt>
      <trkpt lat="37.95977323316038" lon="23.733343072235584">
        <ele>91.8</ele>
        <time>2021-04-10T15:45:42.000Z</time>
      </trkpt>
      <trkpt lat="37.9597791004926" lon="23.733341060578823">
        <ele>91.8</ele>
        <time>2021-04-10T15:45:43.000Z</time>
      </trkpt>
      <trkpt lat="37.9597822856158" lon="23.733341563493013">
        <ele>91.8</ele>
        <time>2021-04-10T15:45:44.000Z</time>
      </trkpt>
      <trkpt lat="37.959785303100944" lon="23.73333460651338">
        <ele>91.8</ele>
        <time>2021-04-10T15:45:46.000Z</time>
      </trkpt>
      <trkpt lat="37.95978697948158" lon="23.733325051143765">
        <ele>91.4</ele>
        <time>2021-04-10T15:45:48.000Z</time>
      </trkpt>
      <trkpt lat="37.9597925953567" lon="23.733316753059626">
        <ele>91.4</ele>
        <time>2021-04-10T15:45:50.000Z</time>
      </trkpt>
      <trkpt lat="37.95981262810528" lon="23.73331164009869">
        <ele>92</ele>
        <time>2021-04-10T15:45:53.000Z</time>
      </trkpt>
      <trkpt lat="37.95983291231096" lon="23.733301581814885">
        <ele>92</ele>
        <time>2021-04-10T15:45:55.000Z</time>
      </trkpt>
      <trkpt lat="37.95986090786755" lon="23.733286829665303">
        <ele>91.8</ele>
        <time>2021-04-10T15:45:57.000Z</time>
      </trkpt>
      <trkpt lat="37.95990549959242" lon="23.733270820230246">
        <ele>91.6</ele>
        <time>2021-04-10T15:46:00.000Z</time>
      </trkpt>
      <trkpt lat="37.95996651984751" lon="23.733239891007543">
        <ele>92.6</ele>
        <time>2021-04-10T15:46:05.000Z</time>
      </trkpt>
      <trkpt lat="37.96004983596504" lon="23.733213990926743">
        <ele>92.8</ele>
        <time>2021-04-10T15:46:12.000Z</time>
      </trkpt>
      <trkpt lat="37.96006282791495" lon="23.733210721984506">
        <ele>92.8</ele>
        <time>2021-04-10T15:46:13.000Z</time>
      </trkpt>
      <trkpt lat="37.9601123649627" lon="23.733200998976827">
        <ele>92.8</ele>
        <time>2021-04-10T15:46:16.000Z</time>
      </trkpt>
      <trkpt lat="37.96014765277505" lon="23.73320208862424">
        <ele>93</ele>
        <time>2021-04-10T15:46:19.000Z</time>
      </trkpt>
      <trkpt lat="37.96015804633498" lon="23.73320510610938">
        <ele>93</ele>
        <time>2021-04-10T15:46:20.000Z</time>
      </trkpt>
      <trkpt lat="37.96017003245652" lon="23.733211811631918">
        <ele>93.2</ele>
        <time>2021-04-10T15:46:21.000Z</time>
      </trkpt>
      <trkpt lat="37.960201129317284" lon="23.733214158564806">
        <ele>93.6</ele>
        <time>2021-04-10T15:46:24.000Z</time>
      </trkpt>
      <trkpt lat="37.9602125287056" lon="23.733212566003203">
        <ele>93.8</ele>
        <time>2021-04-10T15:46:25.000Z</time>
      </trkpt>
      <trkpt lat="37.96022619120777" lon="23.733209297060966">
        <ele>93.8</ele>
        <time>2021-04-10T15:46:26.000Z</time>
      </trkpt>
      <trkpt lat="37.96031621284783" lon="23.733171159401536">
        <ele>93.8</ele>
        <time>2021-04-10T15:46:33.000Z</time>
      </trkpt>
      <trkpt lat="37.960343873128295" lon="23.733135955408216">
        <ele>93.8</ele>
        <time>2021-04-10T15:46:35.000Z</time>
      </trkpt>
      <trkpt lat="37.960365917533636" lon="23.733087508007884">
        <ele>94</ele>
        <time>2021-04-10T15:46:38.000Z</time>
      </trkpt>
      <trkpt lat="37.96037103049457" lon="23.733068900182843">
        <ele>94</ele>
        <time>2021-04-10T15:46:40.000Z</time>
      </trkpt>
      <trkpt lat="37.96041453257203" lon="23.733085747808218">
        <ele>93.8</ele>
        <time>2021-04-10T15:46:44.000Z</time>
      </trkpt>
      <trkpt lat="37.96042702160776" lon="23.73308532871306">
        <ele>94</ele>
        <time>2021-04-10T15:46:45.000Z</time>
      </trkpt>
      <trkpt lat="37.96044043265283" lon="23.733081724494696">
        <ele>94</ele>
        <time>2021-04-10T15:46:46.000Z</time>
      </trkpt>
      <trkpt lat="37.96046180650592" lon="23.73306286521256">
        <ele>94.2</ele>
        <time>2021-04-10T15:46:48.000Z</time>
      </trkpt>
      <trkpt lat="37.960469936951995" lon="23.733042245730758">
        <ele>94.4</ele>
        <time>2021-04-10T15:46:49.000Z</time>
      </trkpt>
      <trkpt lat="37.9604696854949" lon="23.73303554020822">
        <ele>94.8</ele>
        <time>2021-04-10T15:46:51.000Z</time>
      </trkpt>
      <trkpt lat="37.96047949232161" lon="23.733021458610892">
        <ele>95</ele>
        <time>2021-04-10T15:46:52.000Z</time>
      </trkpt>
      <trkpt lat="37.96053213067353" lon="23.732978459447622">
        <ele>95</ele>
        <time>2021-04-10T15:46:58.000Z</time>
      </trkpt>
      <trkpt lat="37.96054822392762" lon="23.732978710904717">
        <ele>95.2</ele>
        <time>2021-04-10T15:47:00.000Z</time>
      </trkpt>
      <trkpt lat="37.96059222891927" lon="23.732978710904717">
        <ele>95.6</ele>
        <time>2021-04-10T15:47:04.000Z</time>
      </trkpt>
      <trkpt lat="37.9606200568378" lon="23.732975022867322">
        <ele>95.6</ele>
        <time>2021-04-10T15:47:06.000Z</time>
      </trkpt>
      <trkpt lat="37.960635647177696" lon="23.732969323173165">
        <ele>95.8</ele>
        <time>2021-04-10T15:47:07.000Z</time>
      </trkpt>
      <trkpt lat="37.960675125941634" lon="23.732954068109393">
        <ele>96</ele>
        <time>2021-04-10T15:47:09.000Z</time>
      </trkpt>
      <trkpt lat="37.96070136129856" lon="23.73294753022492">
        <ele>96</ele>
        <time>2021-04-10T15:47:11.000Z</time>
      </trkpt>
      <trkpt lat="37.96071401797235" lon="23.732945770025253">
        <ele>96</ele>
        <time>2021-04-10T15:47:12.000Z</time>
      </trkpt>
      <trkpt lat="37.96074142679572" lon="23.732959097251296">
        <ele>96.2</ele>
        <time>2021-04-10T15:47:14.000Z</time>
      </trkpt>
      <trkpt lat="37.96081082895398" lon="23.732967227697372">
        <ele>96.2</ele>
        <time>2021-04-10T15:47:18.000Z</time>
      </trkpt>
      <trkpt lat="37.96082532964647" lon="23.732970412820578">
        <ele>96.2</ele>
        <time>2021-04-10T15:47:20.000Z</time>
      </trkpt>
      <trkpt lat="37.960835890844464" lon="23.73297007754445">
        <ele>96.2</ele>
        <time>2021-04-10T15:47:22.000Z</time>
      </trkpt>
      <trkpt lat="37.960849050432444" lon="23.732961947098374">
        <ele>96.4</ele>
        <time>2021-04-10T15:47:24.000Z</time>
      </trkpt>
      <trkpt lat="37.96088023111224" lon="23.732951218262315">
        <ele>96.2</ele>
        <time>2021-04-10T15:47:27.000Z</time>
      </trkpt>
      <trkpt lat="37.96091929078102" lon="23.73293529264629">
        <ele>96</ele>
        <time>2021-04-10T15:47:30.000Z</time>
      </trkpt>
      <trkpt lat="37.960972096771" lon="23.732909057289362">
        <ele>96.4</ele>
        <time>2021-04-10T15:47:34.000Z</time>
      </trkpt>
      <trkpt lat="37.961007468402386" lon="23.732890784740448">
        <ele>96.6</ele>
        <time>2021-04-10T15:47:37.000Z</time>
      </trkpt>
      <trkpt lat="37.96102171763778" lon="23.73288257047534">
        <ele>96.6</ele>
        <time>2021-04-10T15:47:38.000Z</time>
      </trkpt>
      <trkpt lat="37.96106304042041" lon="23.732857927680016">
        <ele>96.2</ele>
        <time>2021-04-10T15:47:40.000Z</time>
      </trkpt>
      <trkpt lat="37.961071925237775" lon="23.732850970700383">
        <ele>96.2</ele>
        <time>2021-04-10T15:47:41.000Z</time>
      </trkpt>
      <trkpt lat="37.96108592301607" lon="23.73284828849137">
        <ele>96.2</ele>
        <time>2021-04-10T15:47:43.000Z</time>
      </trkpt>
      <trkpt lat="37.96115146949887" lon="23.732854491099715">
        <ele>96.2</ele>
        <time>2021-04-10T15:47:49.000Z</time>
      </trkpt>
      <trkpt lat="37.961205365136266" lon="23.732851892709732">
        <ele>96.4</ele>
        <time>2021-04-10T15:47:54.000Z</time>
      </trkpt>
      <trkpt lat="37.96123595908284" lon="23.732847534120083">
        <ele>96.4</ele>
        <time>2021-04-10T15:47:56.000Z</time>
      </trkpt>
      <trkpt lat="37.96128122135997" lon="23.732826747000217">
        <ele>96.2</ele>
        <time>2021-04-10T15:48:00.000Z</time>
      </trkpt>
      <trkpt lat="37.961320113390684" lon="23.7328034453094">
        <ele>96.4</ele>
        <time>2021-04-10T15:48:02.000Z</time>
      </trkpt>
      <trkpt lat="37.96133620664477" lon="23.73279757797718">
        <ele>96.4</ele>
        <time>2021-04-10T15:48:03.000Z</time>
      </trkpt>
      <trkpt lat="37.96134911477566" lon="23.732792297378182">
        <ele>96.6</ele>
        <time>2021-04-10T15:48:04.000Z</time>
      </trkpt>
      <trkpt lat="37.961409129202366" lon="23.73277318663895">
        <ele>96.2</ele>
        <time>2021-04-10T15:48:09.000Z</time>
      </trkpt>
      <trkpt lat="37.96143360435963" lon="23.7327603623271">
        <ele>96.2</ele>
        <time>2021-04-10T15:48:10.000Z</time>
      </trkpt>
      <trkpt lat="37.9614573251456" lon="23.732749884948134">
        <ele>96.2</ele>
        <time>2021-04-10T15:48:11.000Z</time>
      </trkpt>
      <trkpt lat="37.96152320690453" lon="23.732732785865664">
        <ele>96</ele>
        <time>2021-04-10T15:48:15.000Z</time>
      </trkpt>
      <trkpt lat="37.96154910698533" lon="23.732734210789204">
        <ele>96</ele>
        <time>2021-04-10T15:48:17.000Z</time>
      </trkpt>
      <trkpt lat="37.961588837206364" lon="23.732699928805232">
        <ele>96.2</ele>
        <time>2021-04-10T15:48:22.000Z</time>
      </trkpt>
      <trkpt lat="37.961679361760616" lon="23.73265969567001">
        <ele>95.8</ele>
        <time>2021-04-10T15:48:28.000Z</time>
      </trkpt>
      <trkpt lat="37.961709452793" lon="23.732643434777856">
        <ele>95.6</ele>
        <time>2021-04-10T15:48:30.000Z</time>
      </trkpt>
      <trkpt lat="37.96177231706679" lon="23.732620887458324">
        <ele>96.6</ele>
        <time>2021-04-10T15:48:33.000Z</time>
      </trkpt>
      <trkpt lat="37.96182964928448" lon="23.732636980712414">
        <ele>97</ele>
        <time>2021-04-10T15:48:36.000Z</time>
      </trkpt>
      <trkpt lat="37.96186041086912" lon="23.73263723216951">
        <ele>96.8</ele>
        <time>2021-04-10T15:48:38.000Z</time>
      </trkpt>
      <trkpt lat="37.96187826432288" lon="23.732632538303733">
        <ele>96.6</ele>
        <time>2021-04-10T15:48:39.000Z</time>
      </trkpt>
      <trkpt lat="37.96190592460334" lon="23.732613511383533">
        <ele>96.4</ele>
        <time>2021-04-10T15:48:41.000Z</time>
      </trkpt>
      <trkpt lat="37.96194766648114" lon="23.732610577717423">
        <ele>96.6</ele>
        <time>2021-04-10T15:48:43.000Z</time>
      </trkpt>
      <trkpt lat="37.9619858879596" lon="23.732592556625605">
        <ele>96.6</ele>
        <time>2021-04-10T15:48:46.000Z</time>
      </trkpt>
      <trkpt lat="37.96199812553823" lon="23.732583420351148">
        <ele>96.6</ele>
        <time>2021-04-10T15:48:47.000Z</time>
      </trkpt>
      <trkpt lat="37.96201581135392" lon="23.732575960457325">
        <ele>96.6</ele>
        <time>2021-04-10T15:48:48.000Z</time>
      </trkpt>
      <trkpt lat="37.96202930621803" lon="23.73255902901292">
        <ele>96.6</ele>
        <time>2021-04-10T15:48:50.000Z</time>
      </trkpt>
      <trkpt lat="37.96205545775592" lon="23.732546204701066">
        <ele>96.4</ele>
        <time>2021-04-10T15:48:52.000Z</time>
      </trkpt>
      <trkpt lat="37.96208219602704" lon="23.732553999871016">
        <ele>96</ele>
        <time>2021-04-10T15:48:54.000Z</time>
      </trkpt>
      <trkpt lat="37.96210088767111" lon="23.7325616274029">
        <ele>96</ele>
        <time>2021-04-10T15:48:56.000Z</time>
      </trkpt>
      <trkpt lat="37.962111197412014" lon="23.73256397433579">
        <ele>96</ele>
        <time>2021-04-10T15:48:57.000Z</time>
      </trkpt>
      <trkpt lat="37.962153442204" lon="23.732552072033286">
        <ele>96</ele>
        <time>2021-04-10T15:49:02.000Z</time>
      </trkpt>
      <trkpt lat="37.96218956820667" lon="23.732532458379865">
        <ele>96</ele>
        <time>2021-04-10T15:49:05.000Z</time>
      </trkpt>
      <trkpt lat="37.96222468838096" lon="23.73252047225833">
        <ele>95.4</ele>
        <time>2021-04-10T15:49:08.000Z</time>
      </trkpt>
      <trkpt lat="37.96225083991885" lon="23.732513012364507">
        <ele>94.8</ele>
        <time>2021-04-10T15:49:10.000Z</time>
      </trkpt>
      <trkpt lat="37.962316051125526" lon="23.732505049556494">
        <ele>94.6</ele>
        <time>2021-04-10T15:49:14.000Z</time>
      </trkpt>
      <trkpt lat="37.96232644468546" lon="23.732503037899733">
        <ele>94.8</ele>
        <time>2021-04-10T15:49:15.000Z</time>
      </trkpt>
      <trkpt lat="37.96237958595157" lon="23.732459032908082">
        <ele>94.6</ele>
        <time>2021-04-10T15:49:21.000Z</time>
      </trkpt>
      <trkpt lat="37.96240649186075" lon="23.73243891634047">
        <ele>94.6</ele>
        <time>2021-04-10T15:49:23.000Z</time>
      </trkpt>
      <trkpt lat="37.96250523068011" lon="23.73238803818822">
        <ele>94.2</ele>
        <time>2021-04-10T15:49:28.000Z</time>
      </trkpt>
      <trkpt lat="37.96255510300398" lon="23.73239055275917">
        <ele>94.2</ele>
        <time>2021-04-10T15:49:32.000Z</time>
      </trkpt>
      <trkpt lat="37.96258494257927" lon="23.732373118400574">
        <ele>94.2</ele>
        <time>2021-04-10T15:49:35.000Z</time>
      </trkpt>
      <trkpt lat="37.96259575523436" lon="23.732367418706417">
        <ele>94.2</ele>
        <time>2021-04-10T15:49:36.000Z</time>
      </trkpt>
      <trkpt lat="37.96262945048511" lon="23.7323544267565">
        <ele>93.8</ele>
        <time>2021-04-10T15:49:39.000Z</time>
      </trkpt>
      <trkpt lat="37.96268669888377" lon="23.732349649071693">
        <ele>93.4</ele>
        <time>2021-04-10T15:49:43.000Z</time>
      </trkpt>
      <trkpt lat="37.96277068555355" lon="23.732321821153164">
        <ele>93.2</ele>
        <time>2021-04-10T15:49:50.000Z</time>
      </trkpt>
      <trkpt lat="37.96282039023936" lon="23.732289047911763">
        <ele>92.6</ele>
        <time>2021-04-10T15:49:54.000Z</time>
      </trkpt>
      <trkpt lat="37.96288308687508" lon="23.732239259406924">
        <ele>92.6</ele>
        <time>2021-04-10T15:49:59.000Z</time>
      </trkpt>
      <trkpt lat="37.962911585345864" lon="23.732223669067025">
        <ele>92.4</ele>
        <time>2021-04-10T15:50:02.000Z</time>
      </trkpt>
      <trkpt lat="37.96293027698994" lon="23.732208916917443">
        <ele>92.2</ele>
        <time>2021-04-10T15:50:04.000Z</time>
      </trkpt>
      <trkpt lat="37.962937485426664" lon="23.732203049585223">
        <ele>92</ele>
        <time>2021-04-10T15:50:05.000Z</time>
      </trkpt>
      <trkpt lat="37.96296170912683" lon="23.732195841148496">
        <ele>91.8</ele>
        <time>2021-04-10T15:50:07.000Z</time>
      </trkpt>
      <trkpt lat="37.96298601664603" lon="23.732200199738145">
        <ele>91.6</ele>
        <time>2021-04-10T15:50:10.000Z</time>
      </trkpt>
      <trkpt lat="37.96300454065204" lon="23.732201708480716">
        <ele>91.2</ele>
        <time>2021-04-10T15:50:12.000Z</time>
      </trkpt>
      <trkpt lat="37.9631064645946" lon="23.732198607176542">
        <ele>90.8</ele>
        <time>2021-04-10T15:50:18.000Z</time>
      </trkpt>
      <trkpt lat="37.96315281651914" lon="23.73218963854015">
        <ele>90.8</ele>
        <time>2021-04-10T15:50:21.000Z</time>
      </trkpt>
      <trkpt lat="37.96319338493049" lon="23.732181591913104">
        <ele>90.8</ele>
        <time>2021-04-10T15:50:24.000Z</time>
      </trkpt>
      <trkpt lat="37.963212160393596" lon="23.732172874733806">
        <ele>90.8</ele>
        <time>2021-04-10T15:50:25.000Z</time>
      </trkpt>
      <trkpt lat="37.96322448179126" lon="23.732164409011602">
        <ele>90.8</ele>
        <time>2021-04-10T15:50:26.000Z</time>
      </trkpt>
      <trkpt lat="37.96324895694852" lon="23.7321749702096">
        <ele>90.6</ele>
        <time>2021-04-10T15:50:29.000Z</time>
      </trkpt>
      <trkpt lat="37.96322816982865" lon="23.73217304237187">
        <ele>90</ele>
        <time>2021-04-10T15:50:33.000Z</time>
      </trkpt>
      <trkpt lat="37.9632325284183" lon="23.73217404820025">
        <ele>92.2</ele>
        <time>2021-04-10T15:50:38.000Z</time>
      </trkpt>
      <trkpt lat="37.963228253647685" lon="23.732169438153505">
        <ele>91.2</ele>
        <time>2021-04-10T15:50:39.000Z</time>
      </trkpt>
      <trkpt lat="37.96322347596288" lon="23.732166336849332">
        <ele>90.6</ele>
        <time>2021-04-10T15:50:40.000Z</time>
      </trkpt>
      <trkpt lat="37.963227750733495" lon="23.732168097048998">
        <ele>90.2</ele>
        <time>2021-04-10T15:50:43.000Z</time>
      </trkpt>
      <trkpt lat="37.96323789283633" lon="23.732190895825624">
        <ele>90.2</ele>
        <time>2021-04-10T15:50:49.000Z</time>
      </trkpt>
      <trkpt lat="37.96330033801496" lon="23.73207723721862">
        <ele>90.2</ele>
        <time>2021-04-10T15:50:58.000Z</time>
      </trkpt>
      <trkpt lat="37.96331794001162" lon="23.731974055990577">
        <ele>90.2</ele>
        <time>2021-04-10T15:51:04.000Z</time>
      </trkpt>
      <trkpt lat="37.96331685036421" lon="23.73195854946971">
        <ele>90.2</ele>
        <time>2021-04-10T15:51:05.000Z</time>
      </trkpt>
      <trkpt lat="37.963310899212956" lon="23.73192636296153">
        <ele>89.6</ele>
        <time>2021-04-10T15:51:07.000Z</time>
      </trkpt>
      <trkpt lat="37.96330260112882" lon="23.731906581670046">
        <ele>89.2</ele>
        <time>2021-04-10T15:51:08.000Z</time>
      </trkpt>
      <trkpt lat="37.96327888034284" lon="23.731867941096425">
        <ele>88.6</ele>
        <time>2021-04-10T15:51:10.000Z</time>
      </trkpt>
      <trkpt lat="37.963272174820304" lon="23.73185838572681">
        <ele>88.6</ele>
        <time>2021-04-10T15:51:11.000Z</time>
      </trkpt>
      <trkpt lat="37.96325080096722" lon="23.731826450675726">
        <ele>88</ele>
        <time>2021-04-10T15:51:13.000Z</time>
      </trkpt>
      <trkpt lat="37.963242419064045" lon="23.731798706576228">
        <ele>88</ele>
        <time>2021-04-10T15:51:14.000Z</time>
      </trkpt>
      <trkpt lat="37.96321920119226" lon="23.731756545603275">
        <ele>87.8</ele>
        <time>2021-04-10T15:51:16.000Z</time>
      </trkpt>
      <trkpt lat="37.96319078654051" lon="23.731732489541173">
        <ele>87.2</ele>
        <time>2021-04-10T15:51:18.000Z</time>
      </trkpt>
      <trkpt lat="37.96320243738592" lon="23.731691166758537">
        <ele>87</ele>
        <time>2021-04-10T15:51:21.000Z</time>
      </trkpt>
      <trkpt lat="37.96320411376655" lon="23.731670631095767">
        <ele>87</ele>
        <time>2021-04-10T15:51:22.000Z</time>
      </trkpt>
      <trkpt lat="37.96319950371981" lon="23.731638779863715">
        <ele>86.8</ele>
        <time>2021-04-10T15:51:24.000Z</time>
      </trkpt>
      <trkpt lat="37.96319296583533" lon="23.731621680781245">
        <ele>86.8</ele>
        <time>2021-04-10T15:51:25.000Z</time>
      </trkpt>
      <trkpt lat="37.963170167058706" lon="23.73156971298158">
        <ele>87</ele>
        <time>2021-04-10T15:51:29.000Z</time>
      </trkpt>
      <trkpt lat="37.963170083239675" lon="23.731554793193936">
        <ele>87</ele>
        <time>2021-04-10T15:51:30.000Z</time>
      </trkpt>
      <trkpt lat="37.963174022734165" lon="23.73153693974018">
        <ele>87</ele>
        <time>2021-04-10T15:51:31.000Z</time>
      </trkpt>
      <trkpt lat="37.963197408244014" lon="23.73151590116322">
        <ele>86.8</ele>
        <time>2021-04-10T15:51:34.000Z</time>
      </trkpt>
      <trkpt lat="37.96320411376655" lon="23.73151196166873">
        <ele>86.8</ele>
        <time>2021-04-10T15:51:35.000Z</time>
      </trkpt>
      <trkpt lat="37.96323101967573" lon="23.731515565887094">
        <ele>86.6</ele>
        <time>2021-04-10T15:51:39.000Z</time>
      </trkpt>
      <trkpt lat="37.963251639157534" lon="23.7315169069916">
        <ele>86.6</ele>
        <time>2021-04-10T15:51:41.000Z</time>
      </trkpt>
      <trkpt lat="37.9632618650794" lon="23.731515565887094">
        <ele>86.6</ele>
        <time>2021-04-10T15:51:42.000Z</time>
      </trkpt>
      <trkpt lat="37.963294638320804" lon="23.731494527310133">
        <ele>86.2</ele>
        <time>2021-04-10T15:51:45.000Z</time>
      </trkpt>
      <trkpt lat="37.96333403326571" lon="23.73146016150713">
        <ele>86</ele>
        <time>2021-04-10T15:51:48.000Z</time>
      </trkpt>
      <trkpt lat="37.96341701410711" lon="23.73141271993518">
        <ele>85.6</ele>
        <time>2021-04-10T15:51:54.000Z</time>
      </trkpt>
      <trkpt lat="37.963436376303434" lon="23.731403332203627">
        <ele>85.6</ele>
        <time>2021-04-10T15:51:55.000Z</time>
      </trkpt>
      <trkpt lat="37.96345389448106" lon="23.731395369395614">
        <ele>85.6</ele>
        <time>2021-04-10T15:51:56.000Z</time>
      </trkpt>
      <trkpt lat="37.96348457224667" lon="23.731373073533177">
        <ele>85.2</ele>
        <time>2021-04-10T15:51:58.000Z</time>
      </trkpt>
      <trkpt lat="37.96350217424333" lon="23.73136435635388">
        <ele>85</ele>
        <time>2021-04-10T15:51:59.000Z</time>
      </trkpt>
      <trkpt lat="37.963565876707435" lon="23.73135169968009">
        <ele>84.4</ele>
        <time>2021-04-10T15:52:02.000Z</time>
      </trkpt>
      <trkpt lat="37.96359546482563" lon="23.731348430737853">
        <ele>84.2</ele>
        <time>2021-04-10T15:52:04.000Z</time>
      </trkpt>
      <trkpt lat="37.96362320892513" lon="23.731354884803295">
        <ele>84</ele>
        <time>2021-04-10T15:52:06.000Z</time>
      </trkpt>
      <trkpt lat="37.96363469213247" lon="23.731362093240023">
        <ele>84</ele>
        <time>2021-04-10T15:52:07.000Z</time>
      </trkpt>
      <trkpt lat="37.96364542096853" lon="23.73137466609478">
        <ele>83.8</ele>
        <time>2021-04-10T15:52:08.000Z</time>
      </trkpt>
      <trkpt lat="37.96365497633815" lon="23.73138690367341">
        <ele>83.6</ele>
        <time>2021-04-10T15:52:09.000Z</time>
      </trkpt>
      <trkpt lat="37.963690012693405" lon="23.731401823461056">
        <ele>82.8</ele>
        <time>2021-04-10T15:52:13.000Z</time>
      </trkpt>
      <trkpt lat="37.96370199881494" lon="23.731402326375246">
        <ele>82.8</ele>
        <time>2021-04-10T15:52:14.000Z</time>
      </trkpt>
      <trkpt lat="37.96371725387871" lon="23.731402745470405">
        <ele>82.8</ele>
        <time>2021-04-10T15:52:15.000Z</time>
      </trkpt>
      <trkpt lat="37.963757403194904" lon="23.73142939992249">
        <ele>81.8</ele>
        <time>2021-04-10T15:52:19.000Z</time>
      </trkpt>
      <trkpt lat="37.96377005986869" lon="23.73144113458693">
        <ele>81.6</ele>
        <time>2021-04-10T15:52:21.000Z</time>
      </trkpt>
      <trkpt lat="37.963799899443984" lon="23.731463346630335">
        <ele>81.8</ele>
        <time>2021-04-10T15:52:25.000Z</time>
      </trkpt>
      <trkpt lat="37.96383149921894" lon="23.731474494561553">
        <ele>81.8</ele>
        <time>2021-04-10T15:52:27.000Z</time>
      </trkpt>
      <trkpt lat="37.96386779285967" lon="23.731478434056044">
        <ele>81.6</ele>
        <time>2021-04-10T15:52:29.000Z</time>
      </trkpt>
      <trkpt lat="37.963962173089385" lon="23.731448259204626">
        <ele>81</ele>
        <time>2021-04-10T15:52:34.000Z</time>
      </trkpt>
      <trkpt lat="37.96398296020925" lon="23.73142453841865">
        <ele>80.6</ele>
        <time>2021-04-10T15:52:36.000Z</time>
      </trkpt>
      <trkpt lat="37.9640443995595" lon="23.731399727985263">
        <ele>80</ele>
        <time>2021-04-10T15:52:40.000Z</time>
      </trkpt>
      <trkpt lat="37.96412947587669" lon="23.73134633526206">
        <ele>79.6</ele>
        <time>2021-04-10T15:52:45.000Z</time>
      </trkpt>
      <trkpt lat="37.964151268824935" lon="23.731314903125167">
        <ele>79.6</ele>
        <time>2021-04-10T15:52:47.000Z</time>
      </trkpt>
      <trkpt lat="37.96419250778854" lon="23.731281962245703">
        <ele>79.6</ele>
        <time>2021-04-10T15:52:50.000Z</time>
      </trkpt>
      <trkpt lat="37.96424883417785" lon="23.73129168525338">
        <ele>79.6</ele>
        <time>2021-04-10T15:52:53.000Z</time>
      </trkpt>
      <trkpt lat="37.9642806854099" lon="23.731293948367238">
        <ele>79.6</ele>
        <time>2021-04-10T15:52:55.000Z</time>
      </trkpt>
      <trkpt lat="37.96430625021458" lon="23.731283135712147">
        <ele>79.6</ele>
        <time>2021-04-10T15:52:57.000Z</time>
      </trkpt>
      <trkpt lat="37.96431379392743" lon="23.73127936385572">
        <ele>79.6</ele>
        <time>2021-04-10T15:52:58.000Z</time>
      </trkpt>
      <trkpt lat="37.964341370388865" lon="23.73125832527876">
        <ele>78.8</ele>
        <time>2021-04-10T15:53:03.000Z</time>
      </trkpt>
      <trkpt lat="37.96434271149337" lon="23.731256145983934">
        <ele>78.6</ele>
        <time>2021-04-10T15:53:04.000Z</time>
      </trkpt>
      <trkpt lat="37.96434313058853" lon="23.731252877041698">
        <ele>78.2</ele>
        <time>2021-04-10T15:53:05.000Z</time>
      </trkpt>
      <trkpt lat="37.964343298226595" lon="23.731251368299127">
        <ele>78</ele>
        <time>2021-04-10T15:53:06.000Z</time>
      </trkpt>
      <trkpt lat="37.96433072537184" lon="23.731226893141866">
        <ele>78</ele>
        <time>2021-04-10T15:53:08.000Z</time>
      </trkpt>
      <trkpt lat="37.96431756578386" lon="23.731209123507142">
        <ele>77.8</ele>
        <time>2021-04-10T15:53:09.000Z</time>
      </trkpt>
      <trkpt lat="37.96429962851107" lon="23.73117576353252">
        <ele>77.8</ele>
        <time>2021-04-10T15:53:10.000Z</time>
      </trkpt>
      <trkpt lat="37.96428504399955" lon="23.731143325567245">
        <ele>77.6</ele>
        <time>2021-04-10T15:53:11.000Z</time>
      </trkpt>
      <trkpt lat="37.964278841391206" lon="23.731119353324175">
        <ele>77.6</ele>
        <time>2021-04-10T15:53:12.000Z</time>
      </trkpt>
      <trkpt lat="37.96427515335381" lon="23.73110543936491">
        <ele>77.4</ele>
        <time>2021-04-10T15:53:15.000Z</time>
      </trkpt>
      <trkpt lat="37.964264592155814" lon="23.731121532619">
        <ele>77.4</ele>
        <time>2021-04-10T15:53:20.000Z</time>
      </trkpt>
      <trkpt lat="37.96427180059254" lon="23.73111516237259">
        <ele>77.4</ele>
        <time>2021-04-10T15:53:22.000Z</time>
      </trkpt>
      <trkpt lat="37.96434271149337" lon="23.731070570647717">
        <ele>77.2</ele>
        <time>2021-04-10T15:53:29.000Z</time>
      </trkpt>
      <trkpt lat="37.96439375728369" lon="23.731122370809317">
        <ele>77.2</ele>
        <time>2021-04-10T15:53:34.000Z</time>
      </trkpt>
      <trkpt lat="37.96440968289971" lon="23.731135614216328">
        <ele>77.4</ele>
        <time>2021-04-10T15:53:35.000Z</time>
      </trkpt>
      <trkpt lat="37.9644931666553" lon="23.731195712462068">
        <ele>77.6</ele>
        <time>2021-04-10T15:53:40.000Z</time>
      </trkpt>
      <trkpt lat="37.96450867317617" lon="23.731217002496123">
        <ele>77.4</ele>
        <time>2021-04-10T15:53:42.000Z</time>
      </trkpt>
      <trkpt lat="37.96454278752208" lon="23.731246506795287">
        <ele>77.2</ele>
        <time>2021-04-10T15:53:45.000Z</time>
      </trkpt>
      <trkpt lat="37.96456441283226" lon="23.73128858394921">
        <ele>77</ele>
        <time>2021-04-10T15:53:47.000Z</time>
      </trkpt>
      <trkpt lat="37.96456919051707" lon="23.73135161586106">
        <ele>77</ele>
        <time>2021-04-10T15:53:50.000Z</time>
      </trkpt>
      <trkpt lat="37.96457991935313" lon="23.731441386044025">
        <ele>77</ele>
        <time>2021-04-10T15:53:53.000Z</time>
      </trkpt>
      <trkpt lat="37.96458796598017" lon="23.73148078098893">
        <ele>76.8</ele>
        <time>2021-04-10T15:53:55.000Z</time>
      </trkpt>
      <trkpt lat="37.96459416858852" lon="23.731500646099448">
        <ele>76.8</ele>
        <time>2021-04-10T15:53:56.000Z</time>
      </trkpt>
      <trkpt lat="37.96463029459119" lon="23.73156954534352">
        <ele>76.8</ele>
        <time>2021-04-10T15:53:59.000Z</time>
      </trkpt>
      <trkpt lat="37.96465720050037" lon="23.73160097748041">
        <ele>77</ele>
        <time>2021-04-10T15:54:01.000Z</time>
      </trkpt>
      <trkpt lat="37.96467010863125" lon="23.731616819277406">
        <ele>77</ele>
        <time>2021-04-10T15:54:02.000Z</time>
      </trkpt>
      <trkpt lat="37.96468066982925" lon="23.731633499264717">
        <ele>77</ele>
        <time>2021-04-10T15:54:03.000Z</time>
      </trkpt>
      <trkpt lat="37.96471629291773" lon="23.731685550883412">
        <ele>77.8</ele>
        <time>2021-04-10T15:54:07.000Z</time>
      </trkpt>
      <trkpt lat="37.96472484245896" lon="23.731718827039003">
        <ele>77.8</ele>
        <time>2021-04-10T15:54:09.000Z</time>
      </trkpt>
      <trkpt lat="37.964729871600866" lon="23.731730226427317">
        <ele>77.8</ele>
        <time>2021-04-10T15:54:10.000Z</time>
      </trkpt>
      <trkpt lat="37.9647505749017" lon="23.731737015768886">
        <ele>77.8</ele>
        <time>2021-04-10T15:54:13.000Z</time>
      </trkpt>
      <trkpt lat="37.96477857045829" lon="23.731740536168218">
        <ele>77.8</ele>
        <time>2021-04-10T15:54:15.000Z</time>
      </trkpt>
      <trkpt lat="37.96478980220854" lon="23.73174757696688">
        <ele>77.8</ele>
        <time>2021-04-10T15:54:16.000Z</time>
      </trkpt>
      <trkpt lat="37.9648092482239" lon="23.731788732111454">
        <ele>78.2</ele>
        <time>2021-04-10T15:54:19.000Z</time>
      </trkpt>
      <trkpt lat="37.96482249163091" lon="23.731807926669717">
        <ele>78.4</ele>
        <time>2021-04-10T15:54:21.000Z</time>
      </trkpt>
      <trkpt lat="37.964829448610544" lon="23.7318226788193">
        <ele>78.6</ele>
        <time>2021-04-10T15:54:23.000Z</time>
      </trkpt>
      <trkpt lat="37.96484353020787" lon="23.731831395998597">
        <ele>79</ele>
        <time>2021-04-10T15:54:26.000Z</time>
      </trkpt>
      <trkpt lat="37.96486205421388" lon="23.731826869770885">
        <ele>79.2</ele>
        <time>2021-04-10T15:54:28.000Z</time>
      </trkpt>
      <trkpt lat="37.96486993320286" lon="23.73182477429509">
        <ele>79.4</ele>
        <time>2021-04-10T15:54:29.000Z</time>
      </trkpt>
      <trkpt lat="37.964887116104364" lon="23.73182318173349">
        <ele>79.4</ele>
        <time>2021-04-10T15:54:32.000Z</time>
      </trkpt>
      <trkpt lat="37.96488409861922" lon="23.731826283037663">
        <ele>79.4</ele>
        <time>2021-04-10T15:54:35.000Z</time>
      </trkpt>
      <trkpt lat="37.96488267369568" lon="23.731829971075058">
        <ele>79.4</ele>
        <time>2021-04-10T15:54:36.000Z</time>
      </trkpt>
      <trkpt lat="37.964867167174816" lon="23.731880681589246">
        <ele>79.2</ele>
        <time>2021-04-10T15:54:45.000Z</time>
      </trkpt>
      <trkpt lat="37.96481654047966" lon="23.731901636347175">
        <ele>79</ele>
        <time>2021-04-10T15:54:52.000Z</time>
      </trkpt>
      <trkpt lat="37.96482735313475" lon="23.731888895854354">
        <ele>79</ele>
        <time>2021-04-10T15:54:55.000Z</time>
      </trkpt>
      <trkpt lat="37.964892061427236" lon="23.731824941933155">
        <ele>78.8</ele>
        <time>2021-04-10T15:55:00.000Z</time>
      </trkpt>
      <trkpt lat="37.96495199203491" lon="23.731765178963542">
        <ele>78.6</ele>
        <time>2021-04-10T15:55:07.000Z</time>
      </trkpt>
      <trkpt lat="37.964961379766464" lon="23.731754450127482">
        <ele>78.6</ele>
        <time>2021-04-10T15:55:08.000Z</time>
      </trkpt>
      <trkpt lat="37.96499381773174" lon="23.731723772361875">
        <ele>79</ele>
        <time>2021-04-10T15:55:11.000Z</time>
      </trkpt>
      <trkpt lat="37.96500404365361" lon="23.731714971363544">
        <ele>79</ele>
        <time>2021-04-10T15:55:12.000Z</time>
      </trkpt>
      <trkpt lat="37.96501284465194" lon="23.731705583631992">
        <ele>79</ele>
        <time>2021-04-10T15:55:13.000Z</time>
      </trkpt>
      <trkpt lat="37.965025417506695" lon="23.73169376514852">
        <ele>79.2</ele>
        <time>2021-04-10T15:55:14.000Z</time>
      </trkpt>
      <trkpt lat="37.96506900340319" lon="23.731648167595267">
        <ele>79</ele>
        <time>2021-04-10T15:55:18.000Z</time>
      </trkpt>
      <trkpt lat="37.965144189074636" lon="23.731578262522817">
        <ele>79</ele>
        <time>2021-04-10T15:55:23.000Z</time>
      </trkpt>
      <trkpt lat="37.96515374444425" lon="23.731570215895772">
        <ele>79.2</ele>
        <time>2021-04-10T15:55:24.000Z</time>
      </trkpt>
      <trkpt lat="37.96517956070602" lon="23.731548506766558">
        <ele>78.8</ele>
        <time>2021-04-10T15:55:26.000Z</time>
      </trkpt>
      <trkpt lat="37.96519288793206" lon="23.73153258115053">
        <ele>78.8</ele>
        <time>2021-04-10T15:55:27.000Z</time>
      </trkpt>
      <trkpt lat="37.96524804085493" lon="23.731483044102788">
        <ele>78.8</ele>
        <time>2021-04-10T15:55:30.000Z</time>
      </trkpt>
      <trkpt lat="37.96528181992471" lon="23.731460999697447">
        <ele>78.8</ele>
        <time>2021-04-10T15:55:32.000Z</time>
      </trkpt>
      <trkpt lat="37.965299086645246" lon="23.731450773775578">
        <ele>79</ele>
        <time>2021-04-10T15:55:33.000Z</time>
      </trkpt>
      <trkpt lat="37.965378211811185" lon="23.731410708278418">
        <ele>78.8</ele>
        <time>2021-04-10T15:55:38.000Z</time>
      </trkpt>
      <trkpt lat="37.965400675311685" lon="23.73142990283668">
        <ele>78.6</ele>
        <time>2021-04-10T15:55:40.000Z</time>
      </trkpt>
      <trkpt lat="37.96540645882487" lon="23.731439961120486">
        <ele>78.4</ele>
        <time>2021-04-10T15:55:41.000Z</time>
      </trkpt>
      <trkpt lat="37.96541056595743" lon="23.731452701613307">
        <ele>78.2</ele>
        <time>2021-04-10T15:55:42.000Z</time>
      </trkpt>
      <trkpt lat="37.965436298400164" lon="23.73150165192783">
        <ele>78</ele>
        <time>2021-04-10T15:55:46.000Z</time>
      </trkpt>
      <trkpt lat="37.96546337194741" lon="23.73153107240796">
        <ele>78</ele>
        <time>2021-04-10T15:55:48.000Z</time>
      </trkpt>
      <trkpt lat="37.96547845937312" lon="23.731542639434338">
        <ele>78.2</ele>
        <time>2021-04-10T15:55:49.000Z</time>
      </trkpt>
      <trkpt lat="37.96550846658647" lon="23.731565102934837">
        <ele>78.4</ele>
        <time>2021-04-10T15:55:51.000Z</time>
      </trkpt>
      <trkpt lat="37.96556713990867" lon="23.73159896582365">
        <ele>78</ele>
        <time>2021-04-10T15:55:55.000Z</time>
      </trkpt>
      <trkpt lat="37.96559630893171" lon="23.73161271214485">
        <ele>77.6</ele>
        <time>2021-04-10T15:55:57.000Z</time>
      </trkpt>
      <trkpt lat="37.96561986207962" lon="23.73162293806672">
        <ele>77.6</ele>
        <time>2021-04-10T15:55:59.000Z</time>
      </trkpt>
      <trkpt lat="37.96564416959882" lon="23.731663338840008">
        <ele>78</ele>
        <time>2021-04-10T15:56:01.000Z</time>
      </trkpt>
      <trkpt lat="37.96568582765758" lon="23.731748666614294">
        <ele>77.8</ele>
        <time>2021-04-10T15:56:07.000Z</time>
      </trkpt>
      <trkpt lat="37.965703178197145" lon="23.73177724890411">
        <ele>77.6</ele>
        <time>2021-04-10T15:56:09.000Z</time>
      </trkpt>
      <trkpt lat="37.965770652517676" lon="23.731886884197593">
        <ele>77.4</ele>
        <time>2021-04-10T15:56:17.000Z</time>
      </trkpt>
      <trkpt lat="37.96581298112869" lon="23.731920747086406">
        <ele>77.4</ele>
        <time>2021-04-10T15:56:21.000Z</time>
      </trkpt>
      <trkpt lat="37.965823877602816" lon="23.731935499235988">
        <ele>77.2</ele>
        <time>2021-04-10T15:56:23.000Z</time>
      </trkpt>
      <trkpt lat="37.96582446433604" lon="23.731947569176555">
        <ele>77</ele>
        <time>2021-04-10T15:56:24.000Z</time>
      </trkpt>
      <trkpt lat="37.96582253649831" lon="23.73196156695485">
        <ele>77</ele>
        <time>2021-04-10T15:56:25.000Z</time>
      </trkpt>
      <trkpt lat="37.965821363031864" lon="23.73197958804667">
        <ele>77</ele>
        <time>2021-04-10T15:56:27.000Z</time>
      </trkpt>
      <trkpt lat="37.96582052484155" lon="23.73198503628373">
        <ele>77</ele>
        <time>2021-04-10T15:56:29.000Z</time>
      </trkpt>
      <trkpt lat="37.96582111157477" lon="23.731985287740827">
        <ele>77</ele>
        <time>2021-04-10T15:56:32.000Z</time>
      </trkpt>
      <trkpt lat="37.965821949765086" lon="23.731980342417955">
        <ele>77</ele>
        <time>2021-04-10T15:56:34.000Z</time>
      </trkpt>
      <trkpt lat="37.96580451540649" lon="23.731972044333816">
        <ele>77</ele>
        <time>2021-04-10T15:56:39.000Z</time>
      </trkpt>
      <trkpt lat="37.96580124646425" lon="23.731973133981228">
        <ele>77</ele>
        <time>2021-04-10T15:56:40.000Z</time>
      </trkpt>
      <trkpt lat="37.965783309191465" lon="23.7319815158844">
        <ele>76.4</ele>
        <time>2021-04-10T15:56:46.000Z</time>
      </trkpt>
      <trkpt lat="37.965776016935706" lon="23.731985287740827">
        <ele>76.4</ele>
        <time>2021-04-10T15:56:48.000Z</time>
      </trkpt>
      <trkpt lat="37.96576444990933" lon="23.73198503628373">
        <ele>76.6</ele>
        <time>2021-04-10T15:56:52.000Z</time>
      </trkpt>
      <trkpt lat="37.96575522981584" lon="23.732002722099423">
        <ele>77</ele>
        <time>2021-04-10T15:57:00.000Z</time>
      </trkpt>
      <trkpt lat="37.9657540563494" lon="23.732005236670375">
        <ele>77</ele>
        <time>2021-04-10T15:57:01.000Z</time>
      </trkpt>
      <trkpt lat="37.9657574929297" lon="23.73200448229909">
        <ele>77</ele>
        <time>2021-04-10T15:57:03.000Z</time>
      </trkpt>
      <trkpt lat="37.96578163281083" lon="23.73199090361595">
        <ele>78.4</ele>
        <time>2021-04-10T15:57:07.000Z</time>
      </trkpt>
      <trkpt lat="37.96578699722886" lon="23.73198403045535">
        <ele>77.6</ele>
        <time>2021-04-10T15:57:09.000Z</time>
      </trkpt>
      <trkpt lat="37.96580174937844" lon="23.731981348246336">
        <ele>77.2</ele>
        <time>2021-04-10T15:57:12.000Z</time>
      </trkpt>
      <trkpt lat="37.96580795198679" lon="23.731985287740827">
        <ele>77.2</ele>
        <time>2021-04-10T15:57:13.000Z</time>
      </trkpt>
      <trkpt lat="37.965806778520346" lon="23.732000458985567">
        <ele>77.2</ele>
        <time>2021-04-10T15:57:18.000Z</time>
      </trkpt>
      <trkpt lat="37.96585874632001" lon="23.732013115659356">
        <ele>77.2</ele>
        <time>2021-04-10T15:57:24.000Z</time>
      </trkpt>
      <trkpt lat="37.96586369164288" lon="23.731970451772213">
        <ele>77.2</ele>
        <time>2021-04-10T15:57:25.000Z</time>
      </trkpt>
      <trkpt lat="37.96594323590398" lon="23.731997776776552">
        <ele>77.2</ele>
        <time>2021-04-10T15:57:33.000Z</time>
      </trkpt>
      <trkpt lat="37.965972907841206" lon="23.732046894729137">
        <ele>77.2</ele>
        <time>2021-04-10T15:57:35.000Z</time>
      </trkpt>
      <trkpt lat="37.96596687287092" lon="23.732077153399587">
        <ele>77.2</ele>
        <time>2021-04-10T15:57:36.000Z</time>
      </trkpt>
      <trkpt lat="37.96593317762017" lon="23.73213155195117">
        <ele>77.2</ele>
        <time>2021-04-10T15:57:40.000Z</time>
      </trkpt>
      <trkpt lat="37.96581390313804" lon="23.73208763077855">
        <ele>77.2</ele>
        <time>2021-04-10T15:57:45.000Z</time>
      </trkpt>
      <trkpt lat="37.965805772691965" lon="23.7320470623672">
        <ele>77.2</ele>
        <time>2021-04-10T15:57:46.000Z</time>
      </trkpt>
      <trkpt lat="37.96578104607761" lon="23.731885626912117">
        <ele>77.2</ele>
        <time>2021-04-10T15:57:50.000Z</time>
      </trkpt>
      <trkpt lat="37.96576512046158" lon="23.73184908181429">
        <ele>77.2</ele>
        <time>2021-04-10T15:57:52.000Z</time>
      </trkpt>
      <trkpt lat="37.96581465750933" lon="23.731789905577898">
        <ele>77.2</ele>
        <time>2021-04-10T15:57:58.000Z</time>
      </trkpt>
      <trkpt lat="37.965956730768085" lon="23.731793258339167">
        <ele>77.2</ele>
        <time>2021-04-10T15:58:00.000Z</time>
      </trkpt>
      <trkpt lat="37.96588464640081" lon="23.731722766533494">
        <ele>77.2</ele>
        <time>2021-04-10T15:58:05.000Z</time>
      </trkpt>
      <trkpt lat="37.96584642492235" lon="23.73189794830978">
        <ele>77.2</ele>
        <time>2021-04-10T15:58:10.000Z</time>
      </trkpt>
      <trkpt lat="37.966004088521004" lon="23.731755455955863">
        <ele>77.2</ele>
        <time>2021-04-10T15:58:16.000Z</time>
      </trkpt>
      <trkpt lat="37.96601959504187" lon="23.731761993840337">
        <ele>77.2</ele>
        <time>2021-04-10T15:58:21.000Z</time>
      </trkpt>
      <trkpt lat="37.966023702174425" lon="23.731764843687415">
        <ele>77.2</ele>
        <time>2021-04-10T15:58:24.000Z</time>
      </trkpt>
    </trkseg>
  </trk>
</gpx>
